<?xml version='1.0' encoding='UTF-8'?><gpx version="1.1" creator="JPX - https://github.com/jenetics/jpx" xmlns="http://www.topografix.com/GPX/1/1"><trk><trkseg><trkpt lat="42.1498688" lon="14.5852235"><ele>196.66666666666669</ele><time>2026-05-03T06:55:50.023Z</time></trkpt><trkpt lat="42.1499248" lon="14.5853088"><ele>196.33333333333334</ele><time>2026-05-03T06:55:53.464Z</time></trkpt><trkpt lat="42.1498768" lon="14.5854025"><ele>196.0</ele><time>2026-05-03T06:55:55.464Z</time></trkpt><trkpt lat="42.1499423" lon="14.5853831"><ele>195.66666666666669</ele><time>2026-05-03T06:55:58.464Z</time></trkpt><trkpt lat="42.1500085" lon="14.5853092"><ele>195.33333333333334</ele><time>2026-05-03T06:56:03.899Z</time></trkpt><trkpt lat="42.1499981" lon="14.5852213"><ele>195.0</ele><time>2026-05-03T06:56:31.898Z</time></trkpt><trkpt lat="42.1499496" lon="14.5852815"><ele>195.0</ele><time>2026-05-03T06:56:46.898Z</time></trkpt><trkpt lat="42.1500259" lon="14.5853252"><ele>195.0</ele><time>2026-05-03T06:57:04.898Z</time></trkpt><trkpt lat="42.1500898" lon="14.5853479"><ele>195.0</ele><time>2026-05-03T06:57:08.899Z</time></trkpt><trkpt lat="42.1501514" lon="14.5853127"><ele>195.0</ele><time>2026-05-03T06:57:11.899Z</time></trkpt><trkpt lat="42.1502283" lon="14.5852601"><ele>195.0</ele><time>2026-05-03T06:57:15.898Z</time></trkpt><trkpt lat="42.1502928" lon="14.5851906"><ele>195.0</ele><time>2026-05-03T06:57:18.899Z</time></trkpt><trkpt lat="42.1503569" lon="14.5851504"><ele>196.42857142857142</ele><time>2026-05-03T06:57:21.898Z</time></trkpt><trkpt lat="42.1504198" lon="14.5851187"><ele>197.85714285714283</ele><time>2026-05-03T06:57:23.899Z</time></trkpt><trkpt lat="42.1505085" lon="14.5850917"><ele>199.28571428571428</ele><time>2026-05-03T06:57:26.899Z</time></trkpt><trkpt lat="42.1505723" lon="14.5850584"><ele>200.71428571428572</ele><time>2026-05-03T06:57:28.899Z</time></trkpt><trkpt lat="42.1506581" lon="14.5850189"><ele>202.14285714285714</ele><time>2026-05-03T06:57:31.899Z</time></trkpt><trkpt lat="42.1507208" lon="14.5850291"><ele>203.57142857142858</ele><time>2026-05-03T06:57:33.899Z</time></trkpt><trkpt lat="42.1507841" lon="14.5850572"><ele>205.0</ele><time>2026-05-03T06:57:35.899Z</time></trkpt><trkpt lat="42.1508793" lon="14.585078"><ele>205.2</ele><time>2026-05-03T06:57:38.899Z</time></trkpt><trkpt lat="42.1509533" lon="14.5850733"><ele>205.4</ele><time>2026-05-03T06:57:40.898Z</time></trkpt><trkpt lat="42.1510517" lon="14.58508"><ele>205.60000000000002</ele><time>2026-05-03T06:57:42.898Z</time></trkpt><trkpt lat="42.1511717" lon="14.58507"><ele>205.8</ele><time>2026-05-03T06:57:44.899Z</time></trkpt><trkpt lat="42.151285" lon="14.5850467"><ele>206.0</ele><time>2026-05-03T06:57:46.899Z</time></trkpt><trkpt lat="42.1513783" lon="14.5850217"><ele>206.0</ele><time>2026-05-03T06:57:48.899Z</time></trkpt><trkpt lat="42.1514317" lon="14.5849767"><ele>206.0</ele><time>2026-05-03T06:57:49.898Z</time></trkpt><trkpt lat="42.1515483" lon="14.584955"><ele>206.0</ele><time>2026-05-03T06:57:51.899Z</time></trkpt><trkpt lat="42.1516283" lon="14.5848983"><ele>206.0</ele><time>2026-05-03T06:57:53.898Z</time></trkpt><trkpt lat="42.1516883" lon="14.58481"><ele>206.0</ele><time>2026-05-03T06:57:55.898Z</time></trkpt><trkpt lat="42.1517233" lon="14.5846517"><ele>205.14285714285714</ele><time>2026-05-03T06:57:57.899Z</time></trkpt><trkpt lat="42.15174" lon="14.5845667"><ele>204.28571428571428</ele><time>2026-05-03T06:57:58.899Z</time></trkpt><trkpt lat="42.15175" lon="14.5844733"><ele>203.42857142857144</ele><time>2026-05-03T06:57:59.898Z</time></trkpt><trkpt lat="42.1517583" lon="14.5843817"><ele>202.57142857142856</ele><time>2026-05-03T06:58:00.899Z</time></trkpt><trkpt lat="42.1517683" lon="14.5842717"><ele>201.71428571428572</ele><time>2026-05-03T06:58:01.899Z</time></trkpt><trkpt lat="42.1517767" lon="14.58417"><ele>200.85714285714286</ele><time>2026-05-03T06:58:02.898Z</time></trkpt><trkpt lat="42.1517883" lon="14.5840817"><ele>200.0</ele><time>2026-05-03T06:58:03.898Z</time></trkpt><trkpt lat="42.1518017" lon="14.58399"><ele>199.66666666666669</ele><time>2026-05-03T06:58:04.898Z</time></trkpt><trkpt lat="42.1518217" lon="14.583905"><ele>199.33333333333334</ele><time>2026-05-03T06:58:05.898Z</time></trkpt><trkpt lat="42.151835" lon="14.583815"><ele>199.0</ele><time>2026-05-03T06:58:06.898Z</time></trkpt><trkpt lat="42.1518467" lon="14.583725"><ele>198.66666666666669</ele><time>2026-05-03T06:58:07.898Z</time></trkpt><trkpt lat="42.15185" lon="14.58364"><ele>198.33333333333334</ele><time>2026-05-03T06:58:08.898Z</time></trkpt><trkpt lat="42.1518333" lon="14.5834767"><ele>198.0</ele><time>2026-05-03T06:58:10.898Z</time></trkpt><trkpt lat="42.1518317" lon="14.5833233"><ele>196.8</ele><time>2026-05-03T06:58:12.899Z</time></trkpt><trkpt lat="42.15188" lon="14.583175"><ele>195.60000000000002</ele><time>2026-05-03T06:58:14.899Z</time></trkpt><trkpt lat="42.1519467" lon="14.5830483"><ele>194.39999999999998</ele><time>2026-05-03T06:58:16.899Z</time></trkpt><trkpt lat="42.1520233" lon="14.582995"><ele>193.2</ele><time>2026-05-03T06:58:18.899Z</time></trkpt><trkpt lat="42.1521217" lon="14.5830633"><ele>192.0</ele><time>2026-05-03T06:58:20.899Z</time></trkpt><trkpt lat="42.15217" lon="14.5831267"><ele>191.99999999999997</ele><time>2026-05-03T06:58:21.899Z</time></trkpt><trkpt lat="42.15221" lon="14.5831983"><ele>192.0</ele><time>2026-05-03T06:58:22.898Z</time></trkpt><trkpt lat="42.1522533" lon="14.583265"><ele>192.0</ele><time>2026-05-03T06:58:23.899Z</time></trkpt><trkpt lat="42.1523017" lon="14.583335"><ele>192.0</ele><time>2026-05-03T06:58:24.899Z</time></trkpt><trkpt lat="42.1523517" lon="14.58341"><ele>192.0</ele><time>2026-05-03T06:58:25.899Z</time></trkpt><trkpt lat="42.1523983" lon="14.583485"><ele>191.99999999999997</ele><time>2026-05-03T06:58:26.899Z</time></trkpt><trkpt lat="42.1524583" lon="14.5835533"><ele>192.0</ele><time>2026-05-03T06:58:27.899Z</time></trkpt><trkpt lat="42.1525167" lon="14.5836233"><ele>190.66666666666666</ele><time>2026-05-03T06:58:28.899Z</time></trkpt><trkpt lat="42.1525833" lon="14.5836967"><ele>189.33333333333334</ele><time>2026-05-03T06:58:29.898Z</time></trkpt><trkpt lat="42.1526483" lon="14.5837767"><ele>188.0</ele><time>2026-05-03T06:58:30.899Z</time></trkpt><trkpt lat="42.1527117" lon="14.5838583"><ele>186.66666666666669</ele><time>2026-05-03T06:58:31.899Z</time></trkpt><trkpt lat="42.15277" lon="14.5839483"><ele>185.33333333333334</ele><time>2026-05-03T06:58:32.899Z</time></trkpt><trkpt lat="42.1528367" lon="14.5840367"><ele>184.0</ele><time>2026-05-03T06:58:33.898Z</time></trkpt><trkpt lat="42.152905" lon="14.5841183"><ele>184.0</ele><time>2026-05-03T06:58:34.898Z</time></trkpt><trkpt lat="42.1529733" lon="14.5842033"><ele>184.0</ele><time>2026-05-03T06:58:35.898Z</time></trkpt><trkpt lat="42.15304" lon="14.5842967"><ele>184.0</ele><time>2026-05-03T06:58:36.899Z</time></trkpt><trkpt lat="42.1531033" lon="14.58438"><ele>184.0</ele><time>2026-05-03T06:58:37.898Z</time></trkpt><trkpt lat="42.15316" lon="14.5844783"><ele>184.0</ele><time>2026-05-03T06:58:38.899Z</time></trkpt><trkpt lat="42.1532017" lon="14.5845917"><ele>182.83333333333334</ele><time>2026-05-03T06:58:39.899Z</time></trkpt><trkpt lat="42.1532417" lon="14.584705"><ele>181.66666666666669</ele><time>2026-05-03T06:58:40.899Z</time></trkpt><trkpt lat="42.153265" lon="14.5848167"><ele>180.5</ele><time>2026-05-03T06:58:41.899Z</time></trkpt><trkpt lat="42.1532833" lon="14.5849233"><ele>179.33333333333334</ele><time>2026-05-03T06:58:42.898Z</time></trkpt><trkpt lat="42.153295" lon="14.5850267"><ele>178.16666666666666</ele><time>2026-05-03T06:58:43.899Z</time></trkpt><trkpt lat="42.153315" lon="14.58517"><ele>177.0</ele><time>2026-05-03T06:58:45.898Z</time></trkpt><trkpt lat="42.1533683" lon="14.5852683"><ele>177.0</ele><time>2026-05-03T06:58:50.899Z</time></trkpt><trkpt lat="42.1534517" lon="14.5852817"><ele>177.0</ele><time>2026-05-03T06:58:52.899Z</time></trkpt><trkpt lat="42.1535433" lon="14.5852517"><ele>177.0</ele><time>2026-05-03T06:58:54.899Z</time></trkpt><trkpt lat="42.1536733" lon="14.5852317"><ele>177.0</ele><time>2026-05-03T06:58:56.899Z</time></trkpt><trkpt lat="42.1537467" lon="14.5852217"><ele>177.0</ele><time>2026-05-03T06:58:57.899Z</time></trkpt><trkpt lat="42.153825" lon="14.5852117"><ele>177.0</ele><time>2026-05-03T06:58:58.899Z</time></trkpt><trkpt lat="42.1538933" lon="14.5852117"><ele>177.0</ele><time>2026-05-03T06:58:59.899Z</time></trkpt><trkpt lat="42.1539633" lon="14.58521"><ele>177.0</ele><time>2026-05-03T06:59:00.899Z</time></trkpt><trkpt lat="42.154045" lon="14.5852167"><ele>177.0</ele><time>2026-05-03T06:59:01.899Z</time></trkpt><trkpt lat="42.1541317" lon="14.5852217"><ele>177.0</ele><time>2026-05-03T06:59:02.899Z</time></trkpt><trkpt lat="42.15421" lon="14.5852267"><ele>177.0</ele><time>2026-05-03T06:59:03.899Z</time></trkpt><trkpt lat="42.154295" lon="14.5852367"><ele>176.16666666666666</ele><time>2026-05-03T06:59:04.898Z</time></trkpt><trkpt lat="42.154375" lon="14.5852617"><ele>175.33333333333334</ele><time>2026-05-03T06:59:05.899Z</time></trkpt><trkpt lat="42.1544517" lon="14.5853133"><ele>174.5</ele><time>2026-05-03T06:59:06.899Z</time></trkpt><trkpt lat="42.1545133" lon="14.5853867"><ele>173.66666666666669</ele><time>2026-05-03T06:59:07.898Z</time></trkpt><trkpt lat="42.1545667" lon="14.5854783"><ele>172.83333333333334</ele><time>2026-05-03T06:59:08.899Z</time></trkpt><trkpt lat="42.1546133" lon="14.585565"><ele>172.0</ele><time>2026-05-03T06:59:09.899Z</time></trkpt><trkpt lat="42.1546633" lon="14.5856533"><ele>171.71428571428572</ele><time>2026-05-03T06:59:10.899Z</time></trkpt><trkpt lat="42.1547233" lon="14.5857317"><ele>171.42857142857144</ele><time>2026-05-03T06:59:11.898Z</time></trkpt><trkpt lat="42.1547833" lon="14.5857967"><ele>171.14285714285717</ele><time>2026-05-03T06:59:12.899Z</time></trkpt><trkpt lat="42.1548467" lon="14.5858483"><ele>170.85714285714286</ele><time>2026-05-03T06:59:13.898Z</time></trkpt><trkpt lat="42.1549117" lon="14.5858933"><ele>170.57142857142856</ele><time>2026-05-03T06:59:14.899Z</time></trkpt><trkpt lat="42.154975" lon="14.5859267"><ele>170.2857142857143</ele><time>2026-05-03T06:59:15.899Z</time></trkpt><trkpt lat="42.1550367" lon="14.58595"><ele>170.0</ele><time>2026-05-03T06:59:16.898Z</time></trkpt><trkpt lat="42.1551367" lon="14.5859967"><ele>170.0</ele><time>2026-05-03T06:59:18.898Z</time></trkpt><trkpt lat="42.1552383" lon="14.5860333"><ele>170.0</ele><time>2026-05-03T06:59:20.899Z</time></trkpt><trkpt lat="42.155335" lon="14.5860633"><ele>170.0</ele><time>2026-05-03T06:59:22.899Z</time></trkpt><trkpt lat="42.1554267" lon="14.5860883"><ele>170.0</ele><time>2026-05-03T06:59:24.898Z</time></trkpt><trkpt lat="42.1555133" lon="14.5861267"><ele>170.0</ele><time>2026-05-03T06:59:26.898Z</time></trkpt><trkpt lat="42.1555983" lon="14.5861533"><ele>170.0</ele><time>2026-05-03T06:59:28.898Z</time></trkpt><trkpt lat="42.15569" lon="14.5861767"><ele>170.0</ele><time>2026-05-03T06:59:30.899Z</time></trkpt><trkpt lat="42.155785" lon="14.5861967"><ele>170.0</ele><time>2026-05-03T06:59:32.899Z</time></trkpt><trkpt lat="42.1558867" lon="14.5862417"><ele>170.0</ele><time>2026-05-03T06:59:34.899Z</time></trkpt><trkpt lat="42.155985" lon="14.58628"><ele>170.0</ele><time>2026-05-03T06:59:36.899Z</time></trkpt><trkpt lat="42.1560883" lon="14.5863217"><ele>169.75</ele><time>2026-05-03T06:59:38.899Z</time></trkpt><trkpt lat="42.1561883" lon="14.58636"><ele>169.5</ele><time>2026-05-03T06:59:40.899Z</time></trkpt><trkpt lat="42.156305" lon="14.5863917"><ele>169.25</ele><time>2026-05-03T06:59:42.899Z</time></trkpt><trkpt lat="42.15642" lon="14.5864283"><ele>169.0</ele><time>2026-05-03T06:59:44.899Z</time></trkpt><trkpt lat="42.1565383" lon="14.5864667"><ele>169.0</ele><time>2026-05-03T06:59:46.899Z</time></trkpt><trkpt lat="42.1566467" lon="14.5865067"><ele>169.0</ele><time>2026-05-03T06:59:48.899Z</time></trkpt><trkpt lat="42.1567583" lon="14.5865367"><ele>169.0</ele><time>2026-05-03T06:59:50.899Z</time></trkpt><trkpt lat="42.1568683" lon="14.5865567"><ele>169.0</ele><time>2026-05-03T06:59:52.899Z</time></trkpt><trkpt lat="42.1569783" lon="14.5865717"><ele>169.0</ele><time>2026-05-03T06:59:54.899Z</time></trkpt><trkpt lat="42.1570783" lon="14.58657"><ele>169.0</ele><time>2026-05-03T06:59:56.898Z</time></trkpt><trkpt lat="42.1571833" lon="14.5865417"><ele>169.0</ele><time>2026-05-03T06:59:58.898Z</time></trkpt><trkpt lat="42.1572917" lon="14.5865083"><ele>169.0</ele><time>2026-05-03T07:00:00.898Z</time></trkpt><trkpt lat="42.1573967" lon="14.586485"><ele>169.0</ele><time>2026-05-03T07:00:02.899Z</time></trkpt><trkpt lat="42.1575067" lon="14.586445"><ele>169.0</ele><time>2026-05-03T07:00:04.899Z</time></trkpt><trkpt lat="42.1575683" lon="14.586425"><ele>168.2</ele><time>2026-05-03T07:00:05.898Z</time></trkpt><trkpt lat="42.1576867" lon="14.5863883"><ele>167.39999999999998</ele><time>2026-05-03T07:00:07.899Z</time></trkpt><trkpt lat="42.15775" lon="14.5863733"><ele>166.6</ele><time>2026-05-03T07:00:08.899Z</time></trkpt><trkpt lat="42.1578717" lon="14.5863367"><ele>165.8</ele><time>2026-05-03T07:00:10.899Z</time></trkpt><trkpt lat="42.1579917" lon="14.586295"><ele>165.0</ele><time>2026-05-03T07:00:12.899Z</time></trkpt><trkpt lat="42.158105" lon="14.58626"><ele>165.0</ele><time>2026-05-03T07:00:14.898Z</time></trkpt><trkpt lat="42.15817" lon="14.5862417"><ele>165.0</ele><time>2026-05-03T07:00:15.898Z</time></trkpt><trkpt lat="42.1582967" lon="14.5862117"><ele>165.0</ele><time>2026-05-03T07:00:17.898Z</time></trkpt><trkpt lat="42.15836" lon="14.5862"><ele>165.0</ele><time>2026-05-03T07:00:18.898Z</time></trkpt><trkpt lat="42.1584233" lon="14.5861883"><ele>165.0</ele><time>2026-05-03T07:00:19.898Z</time></trkpt><trkpt lat="42.1585433" lon="14.5861633"><ele>165.0</ele><time>2026-05-03T07:00:21.898Z</time></trkpt><trkpt lat="42.1586067" lon="14.5861533"><ele>164.83333333333334</ele><time>2026-05-03T07:00:22.899Z</time></trkpt><trkpt lat="42.1587317" lon="14.5861167"><ele>164.66666666666666</ele><time>2026-05-03T07:00:24.899Z</time></trkpt><trkpt lat="42.158795" lon="14.5861017"><ele>164.5</ele><time>2026-05-03T07:00:25.899Z</time></trkpt><trkpt lat="42.1589133" lon="14.5860633"><ele>164.33333333333331</ele><time>2026-05-03T07:00:27.899Z</time></trkpt><trkpt lat="42.1589733" lon="14.58603"><ele>164.16666666666666</ele><time>2026-05-03T07:00:28.898Z</time></trkpt><trkpt lat="42.1590333" lon="14.5859967"><ele>164.0</ele><time>2026-05-03T07:00:29.898Z</time></trkpt><trkpt lat="42.159095" lon="14.5859583"><ele>163.57142857142856</ele><time>2026-05-03T07:00:30.898Z</time></trkpt><trkpt lat="42.1591533" lon="14.5859183"><ele>163.14285714285714</ele><time>2026-05-03T07:00:31.899Z</time></trkpt><trkpt lat="42.15921" lon="14.5858767"><ele>162.71428571428572</ele><time>2026-05-03T07:00:32.899Z</time></trkpt><trkpt lat="42.1592667" lon="14.585835"><ele>162.28571428571428</ele><time>2026-05-03T07:00:33.899Z</time></trkpt><trkpt lat="42.1593267" lon="14.5857883"><ele>161.85714285714286</ele><time>2026-05-03T07:00:34.899Z</time></trkpt><trkpt lat="42.1593883" lon="14.585745"><ele>161.42857142857142</ele><time>2026-05-03T07:00:35.899Z</time></trkpt><trkpt lat="42.15945" lon="14.5857117"><ele>161.0</ele><time>2026-05-03T07:00:36.899Z</time></trkpt><trkpt lat="42.1595567" lon="14.58563"><ele>161.0</ele><time>2026-05-03T07:00:38.899Z</time></trkpt><trkpt lat="42.1596583" lon="14.58555"><ele>161.0</ele><time>2026-05-03T07:00:40.899Z</time></trkpt><trkpt lat="42.1597583" lon="14.58547"><ele>161.0</ele><time>2026-05-03T07:00:42.899Z</time></trkpt><trkpt lat="42.1598517" lon="14.585395"><ele>161.0</ele><time>2026-05-03T07:00:44.899Z</time></trkpt><trkpt lat="42.1599483" lon="14.58532"><ele>160.8</ele><time>2026-05-03T07:00:46.898Z</time></trkpt><trkpt lat="42.160035" lon="14.58525"><ele>160.60000000000002</ele><time>2026-05-03T07:00:48.899Z</time></trkpt><trkpt lat="42.1601183" lon="14.5851833"><ele>160.4</ele><time>2026-05-03T07:00:50.898Z</time></trkpt><trkpt lat="42.1602117" lon="14.5851283"><ele>160.2</ele><time>2026-05-03T07:00:52.899Z</time></trkpt><trkpt lat="42.1603033" lon="14.58507"><ele>160.0</ele><time>2026-05-03T07:00:54.899Z</time></trkpt><trkpt lat="42.1603867" lon="14.5850067"><ele>160.0</ele><time>2026-05-03T07:00:56.898Z</time></trkpt><trkpt lat="42.160465" lon="14.5849517"><ele>160.0</ele><time>2026-05-03T07:00:58.899Z</time></trkpt><trkpt lat="42.160545" lon="14.5848883"><ele>160.0</ele><time>2026-05-03T07:01:00.898Z</time></trkpt><trkpt lat="42.1606217" lon="14.5848317"><ele>160.0</ele><time>2026-05-03T07:01:02.899Z</time></trkpt><trkpt lat="42.1607067" lon="14.5847733"><ele>160.0</ele><time>2026-05-03T07:01:04.899Z</time></trkpt><trkpt lat="42.16079" lon="14.58471"><ele>160.0</ele><time>2026-05-03T07:01:06.899Z</time></trkpt><trkpt lat="42.160885" lon="14.5846483"><ele>160.0</ele><time>2026-05-03T07:01:08.898Z</time></trkpt><trkpt lat="42.1609783" lon="14.58458"><ele>160.0</ele><time>2026-05-03T07:01:10.898Z</time></trkpt><trkpt lat="42.1610633" lon="14.5845083"><ele>160.0</ele><time>2026-05-03T07:01:12.898Z</time></trkpt><trkpt lat="42.1611583" lon="14.58443"><ele>160.0</ele><time>2026-05-03T07:01:14.899Z</time></trkpt><trkpt lat="42.1612517" lon="14.5843517"><ele>160.0</ele><time>2026-05-03T07:01:16.899Z</time></trkpt><trkpt lat="42.1613467" lon="14.5842717"><ele>160.0</ele><time>2026-05-03T07:01:18.899Z</time></trkpt><trkpt lat="42.1614367" lon="14.5841867"><ele>160.0</ele><time>2026-05-03T07:01:20.899Z</time></trkpt><trkpt lat="42.1615217" lon="14.58409"><ele>160.0</ele><time>2026-05-03T07:01:22.899Z</time></trkpt><trkpt lat="42.1615983" lon="14.5839867"><ele>160.0</ele><time>2026-05-03T07:01:24.899Z</time></trkpt><trkpt lat="42.1616817" lon="14.5838933"><ele>160.0</ele><time>2026-05-03T07:01:26.899Z</time></trkpt><trkpt lat="42.1617667" lon="14.5837967"><ele>160.0</ele><time>2026-05-03T07:01:28.898Z</time></trkpt><trkpt lat="42.1618667" lon="14.583685"><ele>160.0</ele><time>2026-05-03T07:01:30.898Z</time></trkpt><trkpt lat="42.16192" lon="14.5836333"><ele>160.0</ele><time>2026-05-03T07:01:31.899Z</time></trkpt><trkpt lat="42.162025" lon="14.5835433"><ele>160.0</ele><time>2026-05-03T07:01:33.898Z</time></trkpt><trkpt lat="42.1621367" lon="14.58348"><ele>159.8</ele><time>2026-05-03T07:01:35.899Z</time></trkpt><trkpt lat="42.1621967" lon="14.5834533"><ele>159.6</ele><time>2026-05-03T07:01:36.898Z</time></trkpt><trkpt lat="42.16226" lon="14.5834467"><ele>159.4</ele><time>2026-05-03T07:01:37.899Z</time></trkpt><trkpt lat="42.1623783" lon="14.5834617"><ele>159.2</ele><time>2026-05-03T07:01:39.898Z</time></trkpt><trkpt lat="42.1624967" lon="14.5835067"><ele>159.0</ele><time>2026-05-03T07:01:41.899Z</time></trkpt><trkpt lat="42.1626083" lon="14.583545"><ele>158.75</ele><time>2026-05-03T07:01:43.899Z</time></trkpt><trkpt lat="42.1627233" lon="14.5835817"><ele>158.5</ele><time>2026-05-03T07:01:45.899Z</time></trkpt><trkpt lat="42.162825" lon="14.5836283"><ele>158.25</ele><time>2026-05-03T07:01:47.898Z</time></trkpt><trkpt lat="42.1629333" lon="14.5836617"><ele>158.0</ele><time>2026-05-03T07:01:49.899Z</time></trkpt><trkpt lat="42.1630467" lon="14.5837033"><ele>157.5</ele><time>2026-05-03T07:01:51.899Z</time></trkpt><trkpt lat="42.1631667" lon="14.5837417"><ele>157.0</ele><time>2026-05-03T07:01:53.899Z</time></trkpt><trkpt lat="42.16328" lon="14.5837717"><ele>156.5</ele><time>2026-05-03T07:01:55.899Z</time></trkpt><trkpt lat="42.16339" lon="14.5838183"><ele>156.0</ele><time>2026-05-03T07:01:57.899Z</time></trkpt><trkpt lat="42.1635067" lon="14.5838567"><ele>155.5</ele><time>2026-05-03T07:01:59.899Z</time></trkpt><trkpt lat="42.1636267" lon="14.5838967"><ele>155.0</ele><time>2026-05-03T07:02:01.898Z</time></trkpt><trkpt lat="42.1637317" lon="14.5839317"><ele>154.5</ele><time>2026-05-03T07:02:03.899Z</time></trkpt><trkpt lat="42.163845" lon="14.5839733"><ele>154.0</ele><time>2026-05-03T07:02:05.898Z</time></trkpt><trkpt lat="42.16396" lon="14.5840083"><ele>154.0</ele><time>2026-05-03T07:02:07.899Z</time></trkpt><trkpt lat="42.164075" lon="14.5840433"><ele>154.0</ele><time>2026-05-03T07:02:09.899Z</time></trkpt><trkpt lat="42.16418" lon="14.5840817"><ele>154.0</ele><time>2026-05-03T07:02:11.899Z</time></trkpt><trkpt lat="42.1643017" lon="14.5841217"><ele>154.0</ele><time>2026-05-03T07:02:13.898Z</time></trkpt><trkpt lat="42.16436" lon="14.584155"><ele>154.0</ele><time>2026-05-03T07:02:14.899Z</time></trkpt><trkpt lat="42.1644217" lon="14.584175"><ele>154.0</ele><time>2026-05-03T07:02:15.899Z</time></trkpt><trkpt lat="42.1645417" lon="14.5842233"><ele>154.0</ele><time>2026-05-03T07:02:17.899Z</time></trkpt><trkpt lat="42.1646567" lon="14.5842817"><ele>154.0</ele><time>2026-05-03T07:02:19.899Z</time></trkpt><trkpt lat="42.1647183" lon="14.58431"><ele>154.0</ele><time>2026-05-03T07:02:20.898Z</time></trkpt><trkpt lat="42.1647783" lon="14.5843367"><ele>154.0</ele><time>2026-05-03T07:02:21.898Z</time></trkpt><trkpt lat="42.16484" lon="14.58436"><ele>154.0</ele><time>2026-05-03T07:02:22.899Z</time></trkpt><trkpt lat="42.1649567" lon="14.5844"><ele>153.6</ele><time>2026-05-03T07:02:24.899Z</time></trkpt><trkpt lat="42.1650733" lon="14.5844433"><ele>153.2</ele><time>2026-05-03T07:02:26.898Z</time></trkpt><trkpt lat="42.1651333" lon="14.5844717"><ele>152.79999999999998</ele><time>2026-05-03T07:02:27.898Z</time></trkpt><trkpt lat="42.165245" lon="14.58452"><ele>152.4</ele><time>2026-05-03T07:02:29.898Z</time></trkpt><trkpt lat="42.16536" lon="14.5845733"><ele>152.0</ele><time>2026-05-03T07:02:31.899Z</time></trkpt><trkpt lat="42.1654717" lon="14.5846333"><ele>151.5</ele><time>2026-05-03T07:02:33.899Z</time></trkpt><trkpt lat="42.1655833" lon="14.5846783"><ele>151.0</ele><time>2026-05-03T07:02:35.898Z</time></trkpt><trkpt lat="42.1656967" lon="14.5847283"><ele>150.5</ele><time>2026-05-03T07:02:37.899Z</time></trkpt><trkpt lat="42.1658017" lon="14.58478"><ele>150.0</ele><time>2026-05-03T07:02:39.899Z</time></trkpt><trkpt lat="42.1659033" lon="14.584835"><ele>149.75</ele><time>2026-05-03T07:02:41.899Z</time></trkpt><trkpt lat="42.16601" lon="14.5848883"><ele>149.5</ele><time>2026-05-03T07:02:43.899Z</time></trkpt><trkpt lat="42.1661217" lon="14.5849417"><ele>149.25</ele><time>2026-05-03T07:02:45.899Z</time></trkpt><trkpt lat="42.1662383" lon="14.5849833"><ele>149.0</ele><time>2026-05-03T07:02:47.899Z</time></trkpt><trkpt lat="42.1663517" lon="14.5850233"><ele>149.0</ele><time>2026-05-03T07:02:49.899Z</time></trkpt><trkpt lat="42.166455" lon="14.5850917"><ele>149.0</ele><time>2026-05-03T07:02:51.898Z</time></trkpt><trkpt lat="42.1665517" lon="14.585175"><ele>149.0</ele><time>2026-05-03T07:02:53.898Z</time></trkpt><trkpt lat="42.1666017" lon="14.5852267"><ele>149.0</ele><time>2026-05-03T07:02:54.899Z</time></trkpt><trkpt lat="42.16668" lon="14.5853467"><ele>149.0</ele><time>2026-05-03T07:02:56.898Z</time></trkpt><trkpt lat="42.1667217" lon="14.5854133"><ele>148.66666666666666</ele><time>2026-05-03T07:02:57.899Z</time></trkpt><trkpt lat="42.1667667" lon="14.58548"><ele>148.33333333333331</ele><time>2026-05-03T07:02:58.899Z</time></trkpt><trkpt lat="42.1668433" lon="14.5856033"><ele>148.0</ele><time>2026-05-03T07:03:00.898Z</time></trkpt><trkpt lat="42.1669267" lon="14.5857267"><ele>147.66666666666666</ele><time>2026-05-03T07:03:02.899Z</time></trkpt><trkpt lat="42.1669667" lon="14.5857933"><ele>147.33333333333334</ele><time>2026-05-03T07:03:03.898Z</time></trkpt><trkpt lat="42.1670083" lon="14.585865"><ele>147.0</ele><time>2026-05-03T07:03:04.898Z</time></trkpt><trkpt lat="42.1670517" lon="14.5859367"><ele>147.0</ele><time>2026-05-03T07:03:05.899Z</time></trkpt><trkpt lat="42.1670917" lon="14.5860083"><ele>147.0</ele><time>2026-05-03T07:03:06.898Z</time></trkpt><trkpt lat="42.1671367" lon="14.5860683"><ele>147.0</ele><time>2026-05-03T07:03:07.898Z</time></trkpt><trkpt lat="42.1671767" lon="14.5861383"><ele>147.0</ele><time>2026-05-03T07:03:08.899Z</time></trkpt><trkpt lat="42.1672233" lon="14.586205"><ele>147.0</ele><time>2026-05-03T07:03:09.899Z</time></trkpt><trkpt lat="42.1672633" lon="14.5862783"><ele>147.0</ele><time>2026-05-03T07:03:10.899Z</time></trkpt><trkpt lat="42.1673117" lon="14.5863517"><ele>147.0</ele><time>2026-05-03T07:03:11.898Z</time></trkpt><trkpt lat="42.167355" lon="14.5864183"><ele>147.0</ele><time>2026-05-03T07:03:12.899Z</time></trkpt><trkpt lat="42.1674017" lon="14.5864867"><ele>147.0</ele><time>2026-05-03T07:03:13.898Z</time></trkpt><trkpt lat="42.1674483" lon="14.586565"><ele>147.0</ele><time>2026-05-03T07:03:14.899Z</time></trkpt><trkpt lat="42.1674967" lon="14.5866433"><ele>147.0</ele><time>2026-05-03T07:03:15.899Z</time></trkpt><trkpt lat="42.1675383" lon="14.5867167"><ele>147.0</ele><time>2026-05-03T07:03:16.898Z</time></trkpt><trkpt lat="42.1675817" lon="14.586785"><ele>147.0</ele><time>2026-05-03T07:03:17.899Z</time></trkpt><trkpt lat="42.1676267" lon="14.5868567"><ele>147.0</ele><time>2026-05-03T07:03:18.899Z</time></trkpt><trkpt lat="42.1676767" lon="14.58693"><ele>147.0</ele><time>2026-05-03T07:03:19.898Z</time></trkpt><trkpt lat="42.1677267" lon="14.5870033"><ele>147.0</ele><time>2026-05-03T07:03:20.898Z</time></trkpt><trkpt lat="42.167775" lon="14.5870767"><ele>147.0</ele><time>2026-05-03T07:03:21.898Z</time></trkpt><trkpt lat="42.1678233" lon="14.58716"><ele>147.0</ele><time>2026-05-03T07:03:22.899Z</time></trkpt><trkpt lat="42.16787" lon="14.5872383"><ele>147.0</ele><time>2026-05-03T07:03:23.899Z</time></trkpt><trkpt lat="42.167915" lon="14.5873133"><ele>147.0</ele><time>2026-05-03T07:03:24.898Z</time></trkpt><trkpt lat="42.1679583" lon="14.5873917"><ele>147.0</ele><time>2026-05-03T07:03:25.899Z</time></trkpt><trkpt lat="42.16801" lon="14.5874633"><ele>146.5</ele><time>2026-05-03T07:03:26.898Z</time></trkpt><trkpt lat="42.1680633" lon="14.5875367"><ele>146.0</ele><time>2026-05-03T07:03:27.898Z</time></trkpt><trkpt lat="42.1681167" lon="14.5876117"><ele>145.5</ele><time>2026-05-03T07:03:28.898Z</time></trkpt><trkpt lat="42.1681717" lon="14.5876833"><ele>145.0</ele><time>2026-05-03T07:03:29.899Z</time></trkpt><trkpt lat="42.1682317" lon="14.5877433"><ele>144.5</ele><time>2026-05-03T07:03:30.898Z</time></trkpt><trkpt lat="42.16829" lon="14.5878067"><ele>144.0</ele><time>2026-05-03T07:03:31.899Z</time></trkpt><trkpt lat="42.1683483" lon="14.5878667"><ele>143.57142857142858</ele><time>2026-05-03T07:03:32.899Z</time></trkpt><trkpt lat="42.1684067" lon="14.587925"><ele>143.14285714285714</ele><time>2026-05-03T07:03:33.898Z</time></trkpt><trkpt lat="42.1684667" lon="14.5879817"><ele>142.71428571428572</ele><time>2026-05-03T07:03:34.899Z</time></trkpt><trkpt lat="42.1685267" lon="14.5880367"><ele>142.28571428571428</ele><time>2026-05-03T07:03:35.899Z</time></trkpt><trkpt lat="42.1685883" lon="14.5880883"><ele>141.85714285714286</ele><time>2026-05-03T07:03:36.899Z</time></trkpt><trkpt lat="42.168655" lon="14.5881333"><ele>141.42857142857144</ele><time>2026-05-03T07:03:37.898Z</time></trkpt><trkpt lat="42.16872" lon="14.5881767"><ele>141.0</ele><time>2026-05-03T07:03:38.899Z</time></trkpt><trkpt lat="42.1687833" lon="14.58822"><ele>141.0</ele><time>2026-05-03T07:03:39.899Z</time></trkpt><trkpt lat="42.1688467" lon="14.58826"><ele>141.0</ele><time>2026-05-03T07:03:40.898Z</time></trkpt><trkpt lat="42.1689117" lon="14.5883"><ele>141.0</ele><time>2026-05-03T07:03:41.899Z</time></trkpt><trkpt lat="42.1689733" lon="14.5883383"><ele>141.0</ele><time>2026-05-03T07:03:42.899Z</time></trkpt><trkpt lat="42.1690383" lon="14.5883783"><ele>141.0</ele><time>2026-05-03T07:03:43.899Z</time></trkpt><trkpt lat="42.1690983" lon="14.5884133"><ele>141.0</ele><time>2026-05-03T07:03:44.898Z</time></trkpt><trkpt lat="42.1691617" lon="14.5884517"><ele>141.0</ele><time>2026-05-03T07:03:45.899Z</time></trkpt><trkpt lat="42.169225" lon="14.5884867"><ele>141.16666666666666</ele><time>2026-05-03T07:03:46.898Z</time></trkpt><trkpt lat="42.1692817" lon="14.5885283"><ele>141.33333333333334</ele><time>2026-05-03T07:03:47.899Z</time></trkpt><trkpt lat="42.1693917" lon="14.5886083"><ele>141.5</ele><time>2026-05-03T07:03:49.899Z</time></trkpt><trkpt lat="42.1694567" lon="14.588645"><ele>141.66666666666669</ele><time>2026-05-03T07:03:50.899Z</time></trkpt><trkpt lat="42.169515" lon="14.58868"><ele>141.83333333333334</ele><time>2026-05-03T07:03:51.898Z</time></trkpt><trkpt lat="42.16957" lon="14.588725"><ele>142.0</ele><time>2026-05-03T07:03:52.899Z</time></trkpt><trkpt lat="42.1696867" lon="14.58879"><ele>141.4</ele><time>2026-05-03T07:03:54.898Z</time></trkpt><trkpt lat="42.1698" lon="14.58886"><ele>140.79999999999998</ele><time>2026-05-03T07:03:56.899Z</time></trkpt><trkpt lat="42.1698583" lon="14.5888967"><ele>140.2</ele><time>2026-05-03T07:03:57.899Z</time></trkpt><trkpt lat="42.16997" lon="14.588965"><ele>139.6</ele><time>2026-05-03T07:03:59.898Z</time></trkpt><trkpt lat="42.1700783" lon="14.58903"><ele>139.0</ele><time>2026-05-03T07:04:01.899Z</time></trkpt><trkpt lat="42.1701367" lon="14.5890683"><ele>139.0</ele><time>2026-05-03T07:04:02.898Z</time></trkpt><trkpt lat="42.1702483" lon="14.589135"><ele>139.0</ele><time>2026-05-03T07:04:04.899Z</time></trkpt><trkpt lat="42.170355" lon="14.5892"><ele>139.0</ele><time>2026-05-03T07:04:06.899Z</time></trkpt><trkpt lat="42.1704517" lon="14.5892733"><ele>139.0</ele><time>2026-05-03T07:04:08.899Z</time></trkpt><trkpt lat="42.1705583" lon="14.5893467"><ele>139.0</ele><time>2026-05-03T07:04:10.898Z</time></trkpt><trkpt lat="42.1706683" lon="14.5894083"><ele>139.0</ele><time>2026-05-03T07:04:12.899Z</time></trkpt><trkpt lat="42.1707333" lon="14.58944"><ele>139.0</ele><time>2026-05-03T07:04:13.899Z</time></trkpt><trkpt lat="42.1707933" lon="14.5894783"><ele>139.0</ele><time>2026-05-03T07:04:14.898Z</time></trkpt><trkpt lat="42.1708517" lon="14.5895133"><ele>139.0</ele><time>2026-05-03T07:04:15.899Z</time></trkpt><trkpt lat="42.1709117" lon="14.5895467"><ele>139.0</ele><time>2026-05-03T07:04:16.899Z</time></trkpt><trkpt lat="42.17102" lon="14.5896017"><ele>138.4</ele><time>2026-05-03T07:04:18.899Z</time></trkpt><trkpt lat="42.1710783" lon="14.58964"><ele>137.8</ele><time>2026-05-03T07:04:19.899Z</time></trkpt><trkpt lat="42.171135" lon="14.589685"><ele>137.2</ele><time>2026-05-03T07:04:20.898Z</time></trkpt><trkpt lat="42.17124" lon="14.589785"><ele>136.6</ele><time>2026-05-03T07:04:22.899Z</time></trkpt><trkpt lat="42.1712917" lon="14.5898417"><ele>136.0</ele><time>2026-05-03T07:04:23.898Z</time></trkpt><trkpt lat="42.1713917" lon="14.5899433"><ele>136.0</ele><time>2026-05-03T07:04:25.899Z</time></trkpt><trkpt lat="42.1714433" lon="14.5899983"><ele>136.0</ele><time>2026-05-03T07:04:26.899Z</time></trkpt><trkpt lat="42.1714933" lon="14.5900533"><ele>136.0</ele><time>2026-05-03T07:04:27.899Z</time></trkpt><trkpt lat="42.171545" lon="14.5901067"><ele>136.0</ele><time>2026-05-03T07:04:28.899Z</time></trkpt><trkpt lat="42.1715967" lon="14.5901567"><ele>136.0</ele><time>2026-05-03T07:04:29.898Z</time></trkpt><trkpt lat="42.1716933" lon="14.5902667"><ele>136.0</ele><time>2026-05-03T07:04:31.898Z</time></trkpt><trkpt lat="42.17179" lon="14.59038"><ele>135.7142857142857</ele><time>2026-05-03T07:04:33.898Z</time></trkpt><trkpt lat="42.1718383" lon="14.590435"><ele>135.42857142857142</ele><time>2026-05-03T07:04:34.899Z</time></trkpt><trkpt lat="42.17189" lon="14.5904983"><ele>135.14285714285714</ele><time>2026-05-03T07:04:35.899Z</time></trkpt><trkpt lat="42.1719433" lon="14.5905667"><ele>134.85714285714283</ele><time>2026-05-03T07:04:36.899Z</time></trkpt><trkpt lat="42.17199" lon="14.590625"><ele>134.57142857142856</ele><time>2026-05-03T07:04:37.899Z</time></trkpt><trkpt lat="42.1720383" lon="14.59069"><ele>134.28571428571428</ele><time>2026-05-03T07:04:38.899Z</time></trkpt><trkpt lat="42.1720917" lon="14.5907467"><ele>134.0</ele><time>2026-05-03T07:04:39.899Z</time></trkpt><trkpt lat="42.1721433" lon="14.5907967"><ele>134.0</ele><time>2026-05-03T07:04:40.899Z</time></trkpt><trkpt lat="42.1721967" lon="14.590855"><ele>134.0</ele><time>2026-05-03T07:04:41.899Z</time></trkpt><trkpt lat="42.1722433" lon="14.5909167"><ele>134.0</ele><time>2026-05-03T07:04:42.899Z</time></trkpt><trkpt lat="42.172295" lon="14.5909767"><ele>134.0</ele><time>2026-05-03T07:04:43.899Z</time></trkpt><trkpt lat="42.1723517" lon="14.591035"><ele>134.0</ele><time>2026-05-03T07:04:44.899Z</time></trkpt><trkpt lat="42.1724067" lon="14.5910917"><ele>134.0</ele><time>2026-05-03T07:04:45.899Z</time></trkpt><trkpt lat="42.172465" lon="14.5911383"><ele>134.0</ele><time>2026-05-03T07:04:46.899Z</time></trkpt><trkpt lat="42.172525" lon="14.5911983"><ele>133.71428571428572</ele><time>2026-05-03T07:04:47.899Z</time></trkpt><trkpt lat="42.1725833" lon="14.59126"><ele>133.42857142857142</ele><time>2026-05-03T07:04:48.898Z</time></trkpt><trkpt lat="42.1726433" lon="14.5913217"><ele>133.14285714285714</ele><time>2026-05-03T07:04:49.898Z</time></trkpt><trkpt lat="42.1726983" lon="14.591385"><ele>132.85714285714286</ele><time>2026-05-03T07:04:50.898Z</time></trkpt><trkpt lat="42.17275" lon="14.5914467"><ele>132.57142857142858</ele><time>2026-05-03T07:04:51.899Z</time></trkpt><trkpt lat="42.17279" lon="14.591515"><ele>132.28571428571428</ele><time>2026-05-03T07:04:52.899Z</time></trkpt><trkpt lat="42.172825" lon="14.5915867"><ele>132.0</ele><time>2026-05-03T07:04:53.898Z</time></trkpt><trkpt lat="42.1728667" lon="14.5916617"><ele>132.0</ele><time>2026-05-03T07:04:54.898Z</time></trkpt><trkpt lat="42.1729133" lon="14.59173"><ele>132.0</ele><time>2026-05-03T07:04:55.898Z</time></trkpt><trkpt lat="42.1729583" lon="14.5918017"><ele>132.0</ele><time>2026-05-03T07:04:56.898Z</time></trkpt><trkpt lat="42.1730017" lon="14.5918717"><ele>132.0</ele><time>2026-05-03T07:04:57.899Z</time></trkpt><trkpt lat="42.173045" lon="14.5919433"><ele>132.0</ele><time>2026-05-03T07:04:58.899Z</time></trkpt><trkpt lat="42.1730867" lon="14.5920217"><ele>132.0</ele><time>2026-05-03T07:04:59.899Z</time></trkpt><trkpt lat="42.1731283" lon="14.5920933"><ele>132.0</ele><time>2026-05-03T07:05:00.898Z</time></trkpt><trkpt lat="42.17317" lon="14.592165"><ele>131.71428571428572</ele><time>2026-05-03T07:05:01.899Z</time></trkpt><trkpt lat="42.173205" lon="14.5922417"><ele>131.42857142857144</ele><time>2026-05-03T07:05:02.899Z</time></trkpt><trkpt lat="42.1732433" lon="14.59232"><ele>131.14285714285717</ele><time>2026-05-03T07:05:03.899Z</time></trkpt><trkpt lat="42.1732817" lon="14.59239"><ele>130.85714285714286</ele><time>2026-05-03T07:05:04.898Z</time></trkpt><trkpt lat="42.1733183" lon="14.5924683"><ele>130.57142857142858</ele><time>2026-05-03T07:05:05.899Z</time></trkpt><trkpt lat="42.1733533" lon="14.59255"><ele>130.2857142857143</ele><time>2026-05-03T07:05:06.899Z</time></trkpt><trkpt lat="42.1733833" lon="14.5926317"><ele>130.0</ele><time>2026-05-03T07:05:07.899Z</time></trkpt><trkpt lat="42.173415" lon="14.5927167"><ele>130.00000000000003</ele><time>2026-05-03T07:05:08.899Z</time></trkpt><trkpt lat="42.1734417" lon="14.5928017"><ele>130.0</ele><time>2026-05-03T07:05:09.899Z</time></trkpt><trkpt lat="42.1734717" lon="14.5928883"><ele>130.0</ele><time>2026-05-03T07:05:10.899Z</time></trkpt><trkpt lat="42.173495" lon="14.592975"><ele>130.0</ele><time>2026-05-03T07:05:11.898Z</time></trkpt><trkpt lat="42.17352" lon="14.5930633"><ele>130.0</ele><time>2026-05-03T07:05:12.898Z</time></trkpt><trkpt lat="42.1735433" lon="14.5931533"><ele>130.00000000000003</ele><time>2026-05-03T07:05:13.899Z</time></trkpt><trkpt lat="42.1735617" lon="14.5932467"><ele>130.0</ele><time>2026-05-03T07:05:14.898Z</time></trkpt><trkpt lat="42.1735767" lon="14.5933433"><ele>129.83333333333334</ele><time>2026-05-03T07:05:15.898Z</time></trkpt><trkpt lat="42.1735983" lon="14.59343"><ele>129.66666666666669</ele><time>2026-05-03T07:05:16.899Z</time></trkpt><trkpt lat="42.173625" lon="14.5935167"><ele>129.5</ele><time>2026-05-03T07:05:17.898Z</time></trkpt><trkpt lat="42.1736567" lon="14.593605"><ele>129.33333333333334</ele><time>2026-05-03T07:05:18.899Z</time></trkpt><trkpt lat="42.173695" lon="14.5936883"><ele>129.16666666666666</ele><time>2026-05-03T07:05:19.898Z</time></trkpt><trkpt lat="42.1737333" lon="14.593765"><ele>129.0</ele><time>2026-05-03T07:05:20.899Z</time></trkpt><trkpt lat="42.1738117" lon="14.5939083"><ele>128.7142857142857</ele><time>2026-05-03T07:05:22.898Z</time></trkpt><trkpt lat="42.1738533" lon="14.5939767"><ele>128.42857142857142</ele><time>2026-05-03T07:05:23.899Z</time></trkpt><trkpt lat="42.173905" lon="14.59405"><ele>128.14285714285714</ele><time>2026-05-03T07:05:24.899Z</time></trkpt><trkpt lat="42.1739533" lon="14.59412"><ele>127.85714285714285</ele><time>2026-05-03T07:05:25.898Z</time></trkpt><trkpt lat="42.1739967" lon="14.5941933"><ele>127.57142857142856</ele><time>2026-05-03T07:05:26.899Z</time></trkpt><trkpt lat="42.1740367" lon="14.5942633"><ele>127.28571428571429</ele><time>2026-05-03T07:05:27.899Z</time></trkpt><trkpt lat="42.1740783" lon="14.59433"><ele>127.0</ele><time>2026-05-03T07:05:28.899Z</time></trkpt><trkpt lat="42.1741167" lon="14.5943983"><ele>127.0</ele><time>2026-05-03T07:05:29.899Z</time></trkpt><trkpt lat="42.17416" lon="14.5944617"><ele>127.0</ele><time>2026-05-03T07:05:30.899Z</time></trkpt><trkpt lat="42.1742" lon="14.594535"><ele>127.0</ele><time>2026-05-03T07:05:31.898Z</time></trkpt><trkpt lat="42.174235" lon="14.59461"><ele>127.0</ele><time>2026-05-03T07:05:32.899Z</time></trkpt><trkpt lat="42.17427" lon="14.5946883"><ele>127.0</ele><time>2026-05-03T07:05:33.898Z</time></trkpt><trkpt lat="42.1743033" lon="14.59477"><ele>127.0</ele><time>2026-05-03T07:05:34.898Z</time></trkpt><trkpt lat="42.1743317" lon="14.5948533"><ele>127.0</ele><time>2026-05-03T07:05:35.898Z</time></trkpt><trkpt lat="42.1743583" lon="14.5949383"><ele>126.83333333333334</ele><time>2026-05-03T07:05:36.899Z</time></trkpt><trkpt lat="42.1744017" lon="14.5950983"><ele>126.66666666666667</ele><time>2026-05-03T07:05:38.898Z</time></trkpt><trkpt lat="42.174425" lon="14.595185"><ele>126.5</ele><time>2026-05-03T07:05:39.899Z</time></trkpt><trkpt lat="42.1744483" lon="14.59527"><ele>126.33333333333334</ele><time>2026-05-03T07:05:40.899Z</time></trkpt><trkpt lat="42.1744783" lon="14.59536"><ele>126.16666666666667</ele><time>2026-05-03T07:05:41.898Z</time></trkpt><trkpt lat="42.1745033" lon="14.595445"><ele>126.0</ele><time>2026-05-03T07:05:42.898Z</time></trkpt><trkpt lat="42.1745517" lon="14.5956067"><ele>126.0</ele><time>2026-05-03T07:05:44.899Z</time></trkpt><trkpt lat="42.1745783" lon="14.5956917"><ele>126.0</ele><time>2026-05-03T07:05:45.899Z</time></trkpt><trkpt lat="42.174605" lon="14.5957817"><ele>126.0</ele><time>2026-05-03T07:05:46.899Z</time></trkpt><trkpt lat="42.174635" lon="14.5958683"><ele>126.0</ele><time>2026-05-03T07:05:47.899Z</time></trkpt><trkpt lat="42.1746633" lon="14.595955"><ele>126.0</ele><time>2026-05-03T07:05:48.899Z</time></trkpt><trkpt lat="42.17469" lon="14.5960467"><ele>126.0</ele><time>2026-05-03T07:05:49.899Z</time></trkpt><trkpt lat="42.17472" lon="14.596135"><ele>126.0</ele><time>2026-05-03T07:05:50.899Z</time></trkpt><trkpt lat="42.1747483" lon="14.596225"><ele>125.71428571428572</ele><time>2026-05-03T07:05:51.899Z</time></trkpt><trkpt lat="42.1747717" lon="14.596315"><ele>125.42857142857143</ele><time>2026-05-03T07:05:52.899Z</time></trkpt><trkpt lat="42.1748" lon="14.5964033"><ele>125.14285714285714</ele><time>2026-05-03T07:05:53.899Z</time></trkpt><trkpt lat="42.1748233" lon="14.5964917"><ele>124.85714285714286</ele><time>2026-05-03T07:05:54.899Z</time></trkpt><trkpt lat="42.1748517" lon="14.59658"><ele>124.57142857142858</ele><time>2026-05-03T07:05:55.899Z</time></trkpt><trkpt lat="42.1748817" lon="14.5966683"><ele>124.28571428571429</ele><time>2026-05-03T07:05:56.898Z</time></trkpt><trkpt lat="42.174915" lon="14.5967583"><ele>124.0</ele><time>2026-05-03T07:05:57.899Z</time></trkpt><trkpt lat="42.1749533" lon="14.596845"><ele>123.66666666666667</ele><time>2026-05-03T07:05:58.899Z</time></trkpt><trkpt lat="42.1749967" lon="14.59693"><ele>123.33333333333334</ele><time>2026-05-03T07:05:59.899Z</time></trkpt><trkpt lat="42.1750383" lon="14.5970183"><ele>123.0</ele><time>2026-05-03T07:06:00.899Z</time></trkpt><trkpt lat="42.1750733" lon="14.5971067"><ele>122.66666666666666</ele><time>2026-05-03T07:06:01.899Z</time></trkpt><trkpt lat="42.17511" lon="14.5971967"><ele>122.33333333333333</ele><time>2026-05-03T07:06:02.899Z</time></trkpt><trkpt lat="42.1751483" lon="14.597285"><ele>122.0</ele><time>2026-05-03T07:06:03.899Z</time></trkpt><trkpt lat="42.1751883" lon="14.5973717"><ele>121.66666666666666</ele><time>2026-05-03T07:06:04.898Z</time></trkpt><trkpt lat="42.17523" lon="14.59746"><ele>121.33333333333333</ele><time>2026-05-03T07:06:05.899Z</time></trkpt><trkpt lat="42.17527" lon="14.59755"><ele>121.0</ele><time>2026-05-03T07:06:06.898Z</time></trkpt><trkpt lat="42.1753117" lon="14.59764"><ele>120.66666666666666</ele><time>2026-05-03T07:06:07.898Z</time></trkpt><trkpt lat="42.1753517" lon="14.597725"><ele>120.33333333333333</ele><time>2026-05-03T07:06:08.899Z</time></trkpt><trkpt lat="42.1753967" lon="14.59781"><ele>120.0</ele><time>2026-05-03T07:06:09.899Z</time></trkpt><trkpt lat="42.1754433" lon="14.5978933"><ele>120.0</ele><time>2026-05-03T07:06:10.899Z</time></trkpt><trkpt lat="42.17549" lon="14.597975"><ele>120.0</ele><time>2026-05-03T07:06:11.899Z</time></trkpt><trkpt lat="42.1755383" lon="14.59806"><ele>120.0</ele><time>2026-05-03T07:06:12.899Z</time></trkpt><trkpt lat="42.1755933" lon="14.5981383"><ele>120.0</ele><time>2026-05-03T07:06:13.898Z</time></trkpt><trkpt lat="42.17565" lon="14.5982133"><ele>120.0</ele><time>2026-05-03T07:06:14.899Z</time></trkpt><trkpt lat="42.1757083" lon="14.59829"><ele>120.0</ele><time>2026-05-03T07:06:15.898Z</time></trkpt><trkpt lat="42.175775" lon="14.5983667"><ele>119.66666666666667</ele><time>2026-05-03T07:06:16.899Z</time></trkpt><trkpt lat="42.175845" lon="14.5984383"><ele>119.33333333333334</ele><time>2026-05-03T07:06:17.898Z</time></trkpt><trkpt lat="42.1759183" lon="14.59851"><ele>119.0</ele><time>2026-05-03T07:06:18.899Z</time></trkpt><trkpt lat="42.1759833" lon="14.598575"><ele>118.66666666666667</ele><time>2026-05-03T07:06:19.899Z</time></trkpt><trkpt lat="42.176055" lon="14.59864"><ele>118.33333333333334</ele><time>2026-05-03T07:06:20.899Z</time></trkpt><trkpt lat="42.176125" lon="14.5987017"><ele>118.0</ele><time>2026-05-03T07:06:21.898Z</time></trkpt><trkpt lat="42.1761917" lon="14.59876"><ele>117.83333333333334</ele><time>2026-05-03T07:06:22.899Z</time></trkpt><trkpt lat="42.17626" lon="14.598815"><ele>117.66666666666667</ele><time>2026-05-03T07:06:23.899Z</time></trkpt><trkpt lat="42.1763283" lon="14.5988717"><ele>117.5</ele><time>2026-05-03T07:06:24.899Z</time></trkpt><trkpt lat="42.1763967" lon="14.5989333"><ele>117.33333333333334</ele><time>2026-05-03T07:06:25.898Z</time></trkpt><trkpt lat="42.1764667" lon="14.59899"><ele>117.16666666666667</ele><time>2026-05-03T07:06:26.898Z</time></trkpt><trkpt lat="42.1765333" lon="14.5990517"><ele>117.0</ele><time>2026-05-03T07:06:27.898Z</time></trkpt><trkpt lat="42.1766067" lon="14.5991083"><ele>116.5</ele><time>2026-05-03T07:06:28.899Z</time></trkpt><trkpt lat="42.1766767" lon="14.5991633"><ele>116.0</ele><time>2026-05-03T07:06:29.899Z</time></trkpt><trkpt lat="42.1767417" lon="14.5992217"><ele>115.5</ele><time>2026-05-03T07:06:30.899Z</time></trkpt><trkpt lat="42.17681" lon="14.5992733"><ele>115.0</ele><time>2026-05-03T07:06:31.899Z</time></trkpt><trkpt lat="42.1768733" lon="14.5993317"><ele>114.5</ele><time>2026-05-03T07:06:32.898Z</time></trkpt><trkpt lat="42.1769383" lon="14.59939"><ele>114.0</ele><time>2026-05-03T07:06:33.898Z</time></trkpt><trkpt lat="42.177005" lon="14.5994483"><ele>114.14285714285714</ele><time>2026-05-03T07:06:34.898Z</time></trkpt><trkpt lat="42.177065" lon="14.5995083"><ele>114.28571428571428</ele><time>2026-05-03T07:06:35.899Z</time></trkpt><trkpt lat="42.1771233" lon="14.5995617"><ele>114.42857142857142</ele><time>2026-05-03T07:06:36.898Z</time></trkpt><trkpt lat="42.1771833" lon="14.599605"><ele>114.57142857142856</ele><time>2026-05-03T07:06:37.899Z</time></trkpt><trkpt lat="42.1772483" lon="14.5996417"><ele>114.71428571428571</ele><time>2026-05-03T07:06:38.898Z</time></trkpt><trkpt lat="42.17731" lon="14.5996833"><ele>114.85714285714283</ele><time>2026-05-03T07:06:39.899Z</time></trkpt><trkpt lat="42.1773717" lon="14.5997283"><ele>114.99999999999999</ele><time>2026-05-03T07:06:40.899Z</time></trkpt><trkpt lat="42.1774317" lon="14.5997733"><ele>114.50000000000001</ele><time>2026-05-03T07:06:41.898Z</time></trkpt><trkpt lat="42.1774917" lon="14.5998233"><ele>114.0</ele><time>2026-05-03T07:06:42.899Z</time></trkpt><trkpt lat="42.1775483" lon="14.5998717"><ele>113.5</ele><time>2026-05-03T07:06:43.899Z</time></trkpt><trkpt lat="42.1776017" lon="14.5999217"><ele>113.0</ele><time>2026-05-03T07:06:44.898Z</time></trkpt><trkpt lat="42.177655" lon="14.59997"><ele>112.50000000000001</ele><time>2026-05-03T07:06:45.899Z</time></trkpt><trkpt lat="42.1777617" lon="14.6000683"><ele>112.0</ele><time>2026-05-03T07:06:47.899Z</time></trkpt><trkpt lat="42.1778133" lon="14.6001217"><ele>112.0</ele><time>2026-05-03T07:06:48.898Z</time></trkpt><trkpt lat="42.1778633" lon="14.6001783"><ele>112.0</ele><time>2026-05-03T07:06:49.898Z</time></trkpt><trkpt lat="42.177915" lon="14.6002433"><ele>112.0</ele><time>2026-05-03T07:06:50.899Z</time></trkpt><trkpt lat="42.1779633" lon="14.6003017"><ele>112.0</ele><time>2026-05-03T07:06:51.898Z</time></trkpt><trkpt lat="42.17801" lon="14.6003633"><ele>112.0</ele><time>2026-05-03T07:06:52.898Z</time></trkpt><trkpt lat="42.178055" lon="14.6004233"><ele>112.0</ele><time>2026-05-03T07:06:53.898Z</time></trkpt><trkpt lat="42.1781067" lon="14.600485"><ele>112.0</ele><time>2026-05-03T07:06:54.899Z</time></trkpt><trkpt lat="42.1781567" lon="14.60055"><ele>111.85714285714286</ele><time>2026-05-03T07:06:55.898Z</time></trkpt><trkpt lat="42.1782033" lon="14.6006183"><ele>111.71428571428572</ele><time>2026-05-03T07:06:56.899Z</time></trkpt><trkpt lat="42.1782517" lon="14.600685"><ele>111.57142857142857</ele><time>2026-05-03T07:06:57.898Z</time></trkpt><trkpt lat="42.1783" lon="14.6007533"><ele>111.42857142857143</ele><time>2026-05-03T07:06:58.899Z</time></trkpt><trkpt lat="42.1783467" lon="14.6008217"><ele>111.28571428571429</ele><time>2026-05-03T07:06:59.898Z</time></trkpt><trkpt lat="42.1783933" lon="14.600885"><ele>111.14285714285714</ele><time>2026-05-03T07:07:00.899Z</time></trkpt><trkpt lat="42.1784417" lon="14.6009483"><ele>111.0</ele><time>2026-05-03T07:07:01.898Z</time></trkpt><trkpt lat="42.1784883" lon="14.60101"><ele>111.0</ele><time>2026-05-03T07:07:02.898Z</time></trkpt><trkpt lat="42.1785383" lon="14.6010717"><ele>111.0</ele><time>2026-05-03T07:07:03.899Z</time></trkpt><trkpt lat="42.1786233" lon="14.601195"><ele>111.0</ele><time>2026-05-03T07:07:05.898Z</time></trkpt><trkpt lat="42.1787167" lon="14.6013133"><ele>111.0</ele><time>2026-05-03T07:07:07.899Z</time></trkpt><trkpt lat="42.178765" lon="14.6013733"><ele>111.0</ele><time>2026-05-03T07:07:08.899Z</time></trkpt><trkpt lat="42.1788167" lon="14.60143"><ele>111.14285714285714</ele><time>2026-05-03T07:07:09.899Z</time></trkpt><trkpt lat="42.17887" lon="14.601485"><ele>111.28571428571429</ele><time>2026-05-03T07:07:10.899Z</time></trkpt><trkpt lat="42.178925" lon="14.60154"><ele>111.42857142857143</ele><time>2026-05-03T07:07:11.898Z</time></trkpt><trkpt lat="42.1789833" lon="14.6015983"><ele>111.57142857142857</ele><time>2026-05-03T07:07:12.899Z</time></trkpt><trkpt lat="42.1790417" lon="14.6016483"><ele>111.71428571428572</ele><time>2026-05-03T07:07:13.898Z</time></trkpt><trkpt lat="42.1790967" lon="14.6017067"><ele>111.85714285714286</ele><time>2026-05-03T07:07:14.898Z</time></trkpt><trkpt lat="42.1791533" lon="14.6017583"><ele>112.0</ele><time>2026-05-03T07:07:15.898Z</time></trkpt><trkpt lat="42.17921" lon="14.60182"><ele>111.57142857142857</ele><time>2026-05-03T07:07:16.899Z</time></trkpt><trkpt lat="42.1792667" lon="14.6018817"><ele>111.14285714285714</ele><time>2026-05-03T07:07:17.898Z</time></trkpt><trkpt lat="42.1793233" lon="14.60194"><ele>110.71428571428572</ele><time>2026-05-03T07:07:18.899Z</time></trkpt><trkpt lat="42.1793767" lon="14.6020033"><ele>110.28571428571428</ele><time>2026-05-03T07:07:19.899Z</time></trkpt><trkpt lat="42.179435" lon="14.60207"><ele>109.85714285714286</ele><time>2026-05-03T07:07:20.899Z</time></trkpt><trkpt lat="42.17949" lon="14.6021383"><ele>109.42857142857143</ele><time>2026-05-03T07:07:21.898Z</time></trkpt><trkpt lat="42.179545" lon="14.6022083"><ele>109.0</ele><time>2026-05-03T07:07:22.898Z</time></trkpt><trkpt lat="42.179595" lon="14.602285"><ele>108.71428571428572</ele><time>2026-05-03T07:07:23.898Z</time></trkpt><trkpt lat="42.1796417" lon="14.6023567"><ele>108.42857142857143</ele><time>2026-05-03T07:07:24.899Z</time></trkpt><trkpt lat="42.17969" lon="14.6024317"><ele>108.14285714285714</ele><time>2026-05-03T07:07:25.898Z</time></trkpt><trkpt lat="42.17974" lon="14.6025133"><ele>107.85714285714286</ele><time>2026-05-03T07:07:26.899Z</time></trkpt><trkpt lat="42.1797867" lon="14.6025917"><ele>107.57142857142857</ele><time>2026-05-03T07:07:27.899Z</time></trkpt><trkpt lat="42.179835" lon="14.60267"><ele>107.28571428571429</ele><time>2026-05-03T07:07:28.899Z</time></trkpt><trkpt lat="42.1798833" lon="14.602745"><ele>107.0</ele><time>2026-05-03T07:07:29.898Z</time></trkpt><trkpt lat="42.1799333" lon="14.602815"><ele>106.57142857142858</ele><time>2026-05-03T07:07:30.899Z</time></trkpt><trkpt lat="42.1799867" lon="14.6028833"><ele>106.14285714285714</ele><time>2026-05-03T07:07:31.899Z</time></trkpt><trkpt lat="42.1800383" lon="14.6029467"><ele>105.71428571428572</ele><time>2026-05-03T07:07:32.899Z</time></trkpt><trkpt lat="42.18009" lon="14.603015"><ele>105.28571428571429</ele><time>2026-05-03T07:07:33.899Z</time></trkpt><trkpt lat="42.1801467" lon="14.6030817"><ele>104.85714285714286</ele><time>2026-05-03T07:07:34.899Z</time></trkpt><trkpt lat="42.180205" lon="14.6031383"><ele>104.42857142857143</ele><time>2026-05-03T07:07:35.899Z</time></trkpt><trkpt lat="42.18026" lon="14.6031933"><ele>104.0</ele><time>2026-05-03T07:07:36.899Z</time></trkpt><trkpt lat="42.1803183" lon="14.6032383"><ele>104.0</ele><time>2026-05-03T07:07:37.899Z</time></trkpt><trkpt lat="42.18038" lon="14.6032933"><ele>104.0</ele><time>2026-05-03T07:07:38.899Z</time></trkpt><trkpt lat="42.180435" lon="14.6033417"><ele>104.0</ele><time>2026-05-03T07:07:39.899Z</time></trkpt><trkpt lat="42.1804883" lon="14.6033883"><ele>104.0</ele><time>2026-05-03T07:07:40.899Z</time></trkpt><trkpt lat="42.1805533" lon="14.6034417"><ele>104.0</ele><time>2026-05-03T07:07:41.898Z</time></trkpt><trkpt lat="42.180615" lon="14.6034933"><ele>104.0</ele><time>2026-05-03T07:07:42.899Z</time></trkpt><trkpt lat="42.180675" lon="14.6035367"><ele>104.0</ele><time>2026-05-03T07:07:43.899Z</time></trkpt><trkpt lat="42.180745" lon="14.6035783"><ele>103.85714285714285</ele><time>2026-05-03T07:07:44.899Z</time></trkpt><trkpt lat="42.1808067" lon="14.60362"><ele>103.71428571428572</ele><time>2026-05-03T07:07:45.898Z</time></trkpt><trkpt lat="42.1808717" lon="14.6036533"><ele>103.57142857142857</ele><time>2026-05-03T07:07:46.899Z</time></trkpt><trkpt lat="42.1809383" lon="14.6036917"><ele>103.42857142857142</ele><time>2026-05-03T07:07:47.899Z</time></trkpt><trkpt lat="42.1810033" lon="14.6037317"><ele>103.28571428571428</ele><time>2026-05-03T07:07:48.899Z</time></trkpt><trkpt lat="42.18107" lon="14.6037667"><ele>103.14285714285714</ele><time>2026-05-03T07:07:49.899Z</time></trkpt><trkpt lat="42.1811367" lon="14.6038017"><ele>103.0</ele><time>2026-05-03T07:07:50.899Z</time></trkpt><trkpt lat="42.1812" lon="14.60384"><ele>102.85714285714285</ele><time>2026-05-03T07:07:51.899Z</time></trkpt><trkpt lat="42.1812683" lon="14.603875"><ele>102.71428571428571</ele><time>2026-05-03T07:07:52.899Z</time></trkpt><trkpt lat="42.1813367" lon="14.6039083"><ele>102.57142857142857</ele><time>2026-05-03T07:07:53.899Z</time></trkpt><trkpt lat="42.1814033" lon="14.6039417"><ele>102.42857142857142</ele><time>2026-05-03T07:07:54.898Z</time></trkpt><trkpt lat="42.18147" lon="14.603985"><ele>102.28571428571429</ele><time>2026-05-03T07:07:55.898Z</time></trkpt><trkpt lat="42.1815383" lon="14.6040233"><ele>102.14285714285714</ele><time>2026-05-03T07:07:56.899Z</time></trkpt><trkpt lat="42.18161" lon="14.60406"><ele>102.0</ele><time>2026-05-03T07:07:57.898Z</time></trkpt><trkpt lat="42.18168" lon="14.6041017"><ele>101.85714285714286</ele><time>2026-05-03T07:07:58.898Z</time></trkpt><trkpt lat="42.1817483" lon="14.6041333"><ele>101.71428571428572</ele><time>2026-05-03T07:07:59.899Z</time></trkpt><trkpt lat="42.1818183" lon="14.60417"><ele>101.57142857142857</ele><time>2026-05-03T07:08:00.899Z</time></trkpt><trkpt lat="42.1818867" lon="14.604205"><ele>101.42857142857143</ele><time>2026-05-03T07:08:01.899Z</time></trkpt><trkpt lat="42.1819533" lon="14.6042383"><ele>101.28571428571428</ele><time>2026-05-03T07:08:02.899Z</time></trkpt><trkpt lat="42.1820183" lon="14.6042717"><ele>101.14285714285714</ele><time>2026-05-03T07:08:03.899Z</time></trkpt><trkpt lat="42.1820883" lon="14.6043017"><ele>101.0</ele><time>2026-05-03T07:08:04.899Z</time></trkpt><trkpt lat="42.1821583" lon="14.6043417"><ele>100.99999999999999</ele><time>2026-05-03T07:08:05.898Z</time></trkpt><trkpt lat="42.1822267" lon="14.6043783"><ele>101.0</ele><time>2026-05-03T07:08:06.898Z</time></trkpt><trkpt lat="42.182295" lon="14.6044167"><ele>101.0</ele><time>2026-05-03T07:08:07.899Z</time></trkpt><trkpt lat="42.182365" lon="14.6044583"><ele>101.0</ele><time>2026-05-03T07:08:08.898Z</time></trkpt><trkpt lat="42.182435" lon="14.60449"><ele>100.99999999999999</ele><time>2026-05-03T07:08:09.899Z</time></trkpt><trkpt lat="42.1825117" lon="14.604525"><ele>101.0</ele><time>2026-05-03T07:08:10.898Z</time></trkpt><trkpt lat="42.1825817" lon="14.6045667"><ele>100.16666666666666</ele><time>2026-05-03T07:08:11.899Z</time></trkpt><trkpt lat="42.182655" lon="14.6046083"><ele>99.33333333333333</ele><time>2026-05-03T07:08:12.899Z</time></trkpt><trkpt lat="42.1827267" lon="14.604645"><ele>98.5</ele><time>2026-05-03T07:08:13.899Z</time></trkpt><trkpt lat="42.1827983" lon="14.6046783"><ele>97.66666666666666</ele><time>2026-05-03T07:08:14.899Z</time></trkpt><trkpt lat="42.182875" lon="14.604705"><ele>96.83333333333333</ele><time>2026-05-03T07:08:15.899Z</time></trkpt><trkpt lat="42.182945" lon="14.6047283"><ele>96.0</ele><time>2026-05-03T07:08:16.899Z</time></trkpt><trkpt lat="42.1830183" lon="14.60475"><ele>95.99999999999999</ele><time>2026-05-03T07:08:17.899Z</time></trkpt><trkpt lat="42.1830883" lon="14.6047767"><ele>96.0</ele><time>2026-05-03T07:08:18.899Z</time></trkpt><trkpt lat="42.183155" lon="14.6048017"><ele>96.0</ele><time>2026-05-03T07:08:19.899Z</time></trkpt><trkpt lat="42.18322" lon="14.6048317"><ele>96.0</ele><time>2026-05-03T07:08:20.898Z</time></trkpt><trkpt lat="42.1832817" lon="14.6048617"><ele>96.0</ele><time>2026-05-03T07:08:21.898Z</time></trkpt><trkpt lat="42.1833417" lon="14.604905"><ele>95.99999999999999</ele><time>2026-05-03T07:08:22.899Z</time></trkpt><trkpt lat="42.1833883" lon="14.6049667"><ele>96.0</ele><time>2026-05-03T07:08:23.899Z</time></trkpt><trkpt lat="42.1834183" lon="14.6050483"><ele>95.4</ele><time>2026-05-03T07:08:24.898Z</time></trkpt><trkpt lat="42.183435" lon="14.6051367"><ele>94.8</ele><time>2026-05-03T07:08:25.898Z</time></trkpt><trkpt lat="42.1834717" lon="14.605285"><ele>94.2</ele><time>2026-05-03T07:08:27.898Z</time></trkpt><trkpt lat="42.18351" lon="14.6054333"><ele>93.60000000000001</ele><time>2026-05-03T07:08:29.899Z</time></trkpt><trkpt lat="42.18354" lon="14.60557"><ele>93.0</ele><time>2026-05-03T07:08:31.898Z</time></trkpt><trkpt lat="42.1835967" lon="14.6056667"><ele>91.75</ele><time>2026-05-03T07:08:33.899Z</time></trkpt><trkpt lat="42.1836917" lon="14.6056683"><ele>90.5</ele><time>2026-05-03T07:08:35.898Z</time></trkpt><trkpt lat="42.18379" lon="14.605575"><ele>89.25</ele><time>2026-05-03T07:08:37.899Z</time></trkpt><trkpt lat="42.1838983" lon="14.6054967"><ele>88.0</ele><time>2026-05-03T07:08:39.899Z</time></trkpt><trkpt lat="42.1840117" lon="14.6054383"><ele>88.75</ele><time>2026-05-03T07:08:41.898Z</time></trkpt><trkpt lat="42.18413" lon="14.60545"><ele>89.5</ele><time>2026-05-03T07:08:43.899Z</time></trkpt><trkpt lat="42.1842467" lon="14.6054783"><ele>90.25</ele><time>2026-05-03T07:08:45.899Z</time></trkpt><trkpt lat="42.1843583" lon="14.60551"><ele>91.0</ele><time>2026-05-03T07:08:47.899Z</time></trkpt><trkpt lat="42.1844717" lon="14.6055517"><ele>91.0</ele><time>2026-05-03T07:08:49.899Z</time></trkpt><trkpt lat="42.184585" lon="14.6055817"><ele>91.0</ele><time>2026-05-03T07:08:51.898Z</time></trkpt><trkpt lat="42.1846983" lon="14.6056067"><ele>91.0</ele><time>2026-05-03T07:08:53.899Z</time></trkpt><trkpt lat="42.184815" lon="14.605625"><ele>91.0</ele><time>2026-05-03T07:08:55.899Z</time></trkpt><trkpt lat="42.1849317" lon="14.605645"><ele>91.5</ele><time>2026-05-03T07:08:57.899Z</time></trkpt><trkpt lat="42.1850483" lon="14.6056667"><ele>92.0</ele><time>2026-05-03T07:08:59.899Z</time></trkpt><trkpt lat="42.1851733" lon="14.605685"><ele>92.5</ele><time>2026-05-03T07:09:01.899Z</time></trkpt><trkpt lat="42.1852883" lon="14.6057067"><ele>93.0</ele><time>2026-05-03T07:09:03.899Z</time></trkpt><trkpt lat="42.185405" lon="14.6057117"><ele>93.0</ele><time>2026-05-03T07:09:05.899Z</time></trkpt><trkpt lat="42.1855233" lon="14.605715"><ele>93.0</ele><time>2026-05-03T07:09:07.898Z</time></trkpt><trkpt lat="42.1856383" lon="14.6056967"><ele>93.0</ele><time>2026-05-03T07:09:09.899Z</time></trkpt><trkpt lat="42.1857533" lon="14.60569"><ele>93.0</ele><time>2026-05-03T07:09:11.899Z</time></trkpt><trkpt lat="42.1858683" lon="14.6056883"><ele>92.33333333333333</ele><time>2026-05-03T07:09:13.899Z</time></trkpt><trkpt lat="42.1859833" lon="14.6056767"><ele>91.66666666666667</ele><time>2026-05-03T07:09:15.898Z</time></trkpt><trkpt lat="42.186095" lon="14.6056617"><ele>91.0</ele><time>2026-05-03T07:09:17.899Z</time></trkpt><trkpt lat="42.1861583" lon="14.60565"><ele>90.33333333333334</ele><time>2026-05-03T07:09:18.899Z</time></trkpt><trkpt lat="42.1862217" lon="14.605635"><ele>89.66666666666667</ele><time>2026-05-03T07:09:19.899Z</time></trkpt><trkpt lat="42.1862883" lon="14.605625"><ele>89.0</ele><time>2026-05-03T07:09:20.899Z</time></trkpt><trkpt lat="42.18636" lon="14.6056067"><ele>88.99999999999999</ele><time>2026-05-03T07:09:21.899Z</time></trkpt><trkpt lat="42.1864283" lon="14.6055917"><ele>89.0</ele><time>2026-05-03T07:09:22.899Z</time></trkpt><trkpt lat="42.1864983" lon="14.6055783"><ele>89.0</ele><time>2026-05-03T07:09:23.899Z</time></trkpt><trkpt lat="42.1865683" lon="14.6055567"><ele>89.0</ele><time>2026-05-03T07:09:24.899Z</time></trkpt><trkpt lat="42.1866333" lon="14.605545"><ele>89.0</ele><time>2026-05-03T07:09:25.898Z</time></trkpt><trkpt lat="42.1867033" lon="14.60553"><ele>88.99999999999999</ele><time>2026-05-03T07:09:26.899Z</time></trkpt><trkpt lat="42.1867767" lon="14.605515"><ele>89.0</ele><time>2026-05-03T07:09:27.899Z</time></trkpt><trkpt lat="42.1868533" lon="14.6054967"><ele>88.83333333333334</ele><time>2026-05-03T07:09:28.898Z</time></trkpt><trkpt lat="42.1869267" lon="14.6054833"><ele>88.66666666666667</ele><time>2026-05-03T07:09:29.899Z</time></trkpt><trkpt lat="42.187" lon="14.6054683"><ele>88.5</ele><time>2026-05-03T07:09:30.899Z</time></trkpt><trkpt lat="42.187075" lon="14.6054517"><ele>88.33333333333333</ele><time>2026-05-03T07:09:31.899Z</time></trkpt><trkpt lat="42.1871517" lon="14.605435"><ele>88.16666666666666</ele><time>2026-05-03T07:09:32.899Z</time></trkpt><trkpt lat="42.1872267" lon="14.6054133"><ele>88.0</ele><time>2026-05-03T07:09:33.898Z</time></trkpt><trkpt lat="42.1873017" lon="14.605395"><ele>87.66666666666666</ele><time>2026-05-03T07:09:34.899Z</time></trkpt><trkpt lat="42.187375" lon="14.60538"><ele>87.33333333333333</ele><time>2026-05-03T07:09:35.899Z</time></trkpt><trkpt lat="42.1874483" lon="14.6053617"><ele>87.0</ele><time>2026-05-03T07:09:36.899Z</time></trkpt><trkpt lat="42.1875233" lon="14.60534"><ele>86.66666666666667</ele><time>2026-05-03T07:09:37.899Z</time></trkpt><trkpt lat="42.1875967" lon="14.6053233"><ele>86.33333333333334</ele><time>2026-05-03T07:09:38.898Z</time></trkpt><trkpt lat="42.1876717" lon="14.605305"><ele>86.0</ele><time>2026-05-03T07:09:39.898Z</time></trkpt><trkpt lat="42.187745" lon="14.605295"><ele>85.0</ele><time>2026-05-03T07:09:40.898Z</time></trkpt><trkpt lat="42.187825" lon="14.6052733"><ele>84.0</ele><time>2026-05-03T07:09:41.898Z</time></trkpt><trkpt lat="42.1879017" lon="14.6052617"><ele>83.0</ele><time>2026-05-03T07:09:42.899Z</time></trkpt><trkpt lat="42.1879767" lon="14.60525"><ele>82.0</ele><time>2026-05-03T07:09:43.899Z</time></trkpt><trkpt lat="42.1880583" lon="14.6052267"><ele>81.0</ele><time>2026-05-03T07:09:44.898Z</time></trkpt><trkpt lat="42.1881367" lon="14.6052117"><ele>80.0</ele><time>2026-05-03T07:09:45.899Z</time></trkpt><trkpt lat="42.1882167" lon="14.6051933"><ele>79.0</ele><time>2026-05-03T07:09:46.899Z</time></trkpt><trkpt lat="42.1883017" lon="14.605175"><ele>78.0</ele><time>2026-05-03T07:09:47.898Z</time></trkpt><trkpt lat="42.1883817" lon="14.6051583"><ele>77.0</ele><time>2026-05-03T07:09:48.899Z</time></trkpt><trkpt lat="42.1884583" lon="14.60514"><ele>76.0</ele><time>2026-05-03T07:09:49.899Z</time></trkpt><trkpt lat="42.1885467" lon="14.60512"><ele>75.0</ele><time>2026-05-03T07:09:50.899Z</time></trkpt><trkpt lat="42.1886383" lon="14.6051083"><ele>74.0</ele><time>2026-05-03T07:09:51.899Z</time></trkpt><trkpt lat="42.1887317" lon="14.6050967"><ele>74.0</ele><time>2026-05-03T07:09:52.899Z</time></trkpt><trkpt lat="42.1888217" lon="14.6050833"><ele>74.0</ele><time>2026-05-03T07:09:53.899Z</time></trkpt><trkpt lat="42.1889117" lon="14.60507"><ele>74.0</ele><time>2026-05-03T07:09:54.899Z</time></trkpt><trkpt lat="42.188995" lon="14.60506"><ele>74.0</ele><time>2026-05-03T07:09:55.899Z</time></trkpt><trkpt lat="42.1890733" lon="14.6050283"><ele>74.0</ele><time>2026-05-03T07:09:56.898Z</time></trkpt><trkpt lat="42.189155" lon="14.60498"><ele>74.0</ele><time>2026-05-03T07:09:57.899Z</time></trkpt><trkpt lat="42.1892383" lon="14.6049"><ele>73.66666666666667</ele><time>2026-05-03T07:09:58.899Z</time></trkpt><trkpt lat="42.1893117" lon="14.6048383"><ele>73.33333333333334</ele><time>2026-05-03T07:09:59.899Z</time></trkpt><trkpt lat="42.189385" lon="14.6047567"><ele>73.0</ele><time>2026-05-03T07:10:00.898Z</time></trkpt><trkpt lat="42.1894617" lon="14.6046767"><ele>72.66666666666667</ele><time>2026-05-03T07:10:01.899Z</time></trkpt><trkpt lat="42.189525" lon="14.604615"><ele>72.33333333333333</ele><time>2026-05-03T07:10:02.898Z</time></trkpt><trkpt lat="42.1895967" lon="14.604545"><ele>72.0</ele><time>2026-05-03T07:10:03.899Z</time></trkpt><trkpt lat="42.18967" lon="14.6044667"><ele>70.2</ele><time>2026-05-03T07:10:04.899Z</time></trkpt><trkpt lat="42.1897433" lon="14.604395"><ele>68.4</ele><time>2026-05-03T07:10:05.898Z</time></trkpt><trkpt lat="42.189825" lon="14.604335"><ele>66.6</ele><time>2026-05-03T07:10:06.898Z</time></trkpt><trkpt lat="42.18991" lon="14.6042833"><ele>64.8</ele><time>2026-05-03T07:10:07.899Z</time></trkpt><trkpt lat="42.19" lon="14.6042517"><ele>63.0</ele><time>2026-05-03T07:10:08.899Z</time></trkpt><trkpt lat="42.1900983" lon="14.6042183"><ele>60.5</ele><time>2026-05-03T07:10:09.898Z</time></trkpt><trkpt lat="42.1902217" lon="14.6042033"><ele>58.0</ele><time>2026-05-03T07:10:10.898Z</time></trkpt><trkpt lat="42.1903467" lon="14.60422"><ele>55.5</ele><time>2026-05-03T07:10:11.899Z</time></trkpt><trkpt lat="42.1904783" lon="14.6042467"><ele>53.0</ele><time>2026-05-03T07:10:12.899Z</time></trkpt><trkpt lat="42.1906117" lon="14.6042717"><ele>50.25</ele><time>2026-05-03T07:10:13.899Z</time></trkpt><trkpt lat="42.1907467" lon="14.6042883"><ele>47.5</ele><time>2026-05-03T07:10:14.898Z</time></trkpt><trkpt lat="42.1908767" lon="14.60429"><ele>44.75</ele><time>2026-05-03T07:10:15.898Z</time></trkpt><trkpt lat="42.1910033" lon="14.6042933"><ele>42.0</ele><time>2026-05-03T07:10:16.898Z</time></trkpt><trkpt lat="42.1911133" lon="14.60431"><ele>42.0</ele><time>2026-05-03T07:10:17.899Z</time></trkpt><trkpt lat="42.1912167" lon="14.6043117"><ele>42.0</ele><time>2026-05-03T07:10:18.899Z</time></trkpt><trkpt lat="42.1913117" lon="14.60429"><ele>42.0</ele><time>2026-05-03T07:10:19.899Z</time></trkpt><trkpt lat="42.1913983" lon="14.60425"><ele>42.0</ele><time>2026-05-03T07:10:20.899Z</time></trkpt><trkpt lat="42.191475" lon="14.6042283"><ele>42.0</ele><time>2026-05-03T07:10:21.899Z</time></trkpt><trkpt lat="42.19154" lon="14.6042183"><ele>42.0</ele><time>2026-05-03T07:10:22.898Z</time></trkpt><trkpt lat="42.1916517" lon="14.60422"><ele>42.333333333333336</ele><time>2026-05-03T07:10:24.899Z</time></trkpt><trkpt lat="42.191745" lon="14.6042383"><ele>42.666666666666664</ele><time>2026-05-03T07:10:26.899Z</time></trkpt><trkpt lat="42.1918267" lon="14.6042867"><ele>43.0</ele><time>2026-05-03T07:10:28.899Z</time></trkpt><trkpt lat="42.1919033" lon="14.604345"><ele>43.33333333333333</ele><time>2026-05-03T07:10:30.899Z</time></trkpt><trkpt lat="42.1919617" lon="14.604425"><ele>43.666666666666664</ele><time>2026-05-03T07:10:32.899Z</time></trkpt><trkpt lat="42.1920133" lon="14.6045033"><ele>44.0</ele><time>2026-05-03T07:10:34.898Z</time></trkpt><trkpt lat="42.1920567" lon="14.6045867"><ele>44.0</ele><time>2026-05-03T07:10:36.898Z</time></trkpt><trkpt lat="42.1921017" lon="14.6046767"><ele>44.0</ele><time>2026-05-03T07:10:38.899Z</time></trkpt><trkpt lat="42.1921317" lon="14.6047767"><ele>44.0</ele><time>2026-05-03T07:10:40.899Z</time></trkpt><trkpt lat="42.1921667" lon="14.6048817"><ele>44.0</ele><time>2026-05-03T07:10:42.898Z</time></trkpt><trkpt lat="42.1922017" lon="14.6049983"><ele>44.0</ele><time>2026-05-03T07:10:44.899Z</time></trkpt><trkpt lat="42.192235" lon="14.605115"><ele>44.0</ele><time>2026-05-03T07:10:46.898Z</time></trkpt><trkpt lat="42.1922683" lon="14.6052267"><ele>44.0</ele><time>2026-05-03T07:10:48.898Z</time></trkpt><trkpt lat="42.1923067" lon="14.6053283"><ele>44.0</ele><time>2026-05-03T07:10:50.898Z</time></trkpt><trkpt lat="42.1923433" lon="14.6054233"><ele>44.0</ele><time>2026-05-03T07:10:52.898Z</time></trkpt><trkpt lat="42.192385" lon="14.6055083"><ele>44.0</ele><time>2026-05-03T07:10:54.898Z</time></trkpt><trkpt lat="42.1924317" lon="14.6056033"><ele>44.0</ele><time>2026-05-03T07:10:56.899Z</time></trkpt><trkpt lat="42.1924967" lon="14.6056917"><ele>44.0</ele><time>2026-05-03T07:10:58.899Z</time></trkpt><trkpt lat="42.192555" lon="14.6057883"><ele>46.33333333333333</ele><time>2026-05-03T07:11:00.899Z</time></trkpt><trkpt lat="42.19261" lon="14.60588"><ele>48.666666666666664</ele><time>2026-05-03T07:11:02.899Z</time></trkpt><trkpt lat="42.1926533" lon="14.605985"><ele>51.0</ele><time>2026-05-03T07:11:04.898Z</time></trkpt><trkpt lat="42.1926867" lon="14.6060933"><ele>53.33333333333333</ele><time>2026-05-03T07:11:06.899Z</time></trkpt><trkpt lat="42.1927083" lon="14.6062033"><ele>55.666666666666664</ele><time>2026-05-03T07:11:08.899Z</time></trkpt><trkpt lat="42.1927317" lon="14.6062983"><ele>58.0</ele><time>2026-05-03T07:11:10.899Z</time></trkpt><trkpt lat="42.192745" lon="14.6063983"><ele>57.99999999999999</ele><time>2026-05-03T07:11:12.899Z</time></trkpt><trkpt lat="42.192765" lon="14.6064817"><ele>58.0</ele><time>2026-05-03T07:11:14.898Z</time></trkpt><trkpt lat="42.19276" lon="14.6066017"><ele>58.0</ele><time>2026-05-03T07:11:17.898Z</time></trkpt><trkpt lat="42.1927567" lon="14.6066967"><ele>58.0</ele><time>2026-05-03T07:11:19.899Z</time></trkpt><trkpt lat="42.1927583" lon="14.6068017"><ele>57.99999999999999</ele><time>2026-05-03T07:11:21.898Z</time></trkpt><trkpt lat="42.1927633" lon="14.6069367"><ele>58.0</ele><time>2026-05-03T07:11:23.898Z</time></trkpt><trkpt lat="42.192765" lon="14.60707"><ele>57.49999999999999</ele><time>2026-05-03T07:11:25.899Z</time></trkpt><trkpt lat="42.1927683" lon="14.6071933"><ele>57.0</ele><time>2026-05-03T07:11:27.899Z</time></trkpt><trkpt lat="42.192785" lon="14.6073133"><ele>56.5</ele><time>2026-05-03T07:11:29.899Z</time></trkpt><trkpt lat="42.1928133" lon="14.607425"><ele>56.0</ele><time>2026-05-03T07:11:31.898Z</time></trkpt><trkpt lat="42.1928467" lon="14.6075367"><ele>55.49999999999999</ele><time>2026-05-03T07:11:33.899Z</time></trkpt><trkpt lat="42.19287" lon="14.6076467"><ele>55.0</ele><time>2026-05-03T07:11:35.898Z</time></trkpt><trkpt lat="42.192895" lon="14.60776"><ele>54.33333333333333</ele><time>2026-05-03T07:11:37.899Z</time></trkpt><trkpt lat="42.1929267" lon="14.6078683"><ele>53.666666666666664</ele><time>2026-05-03T07:11:39.899Z</time></trkpt><trkpt lat="42.192955" lon="14.6079867"><ele>53.0</ele><time>2026-05-03T07:11:41.899Z</time></trkpt><trkpt lat="42.19298" lon="14.6080983"><ele>52.33333333333333</ele><time>2026-05-03T07:11:43.899Z</time></trkpt><trkpt lat="42.1930017" lon="14.6082133"><ele>51.666666666666664</ele><time>2026-05-03T07:11:45.899Z</time></trkpt><trkpt lat="42.1930283" lon="14.6083233"><ele>51.0</ele><time>2026-05-03T07:11:47.899Z</time></trkpt><trkpt lat="42.1930633" lon="14.60844"><ele>51.0</ele><time>2026-05-03T07:11:49.898Z</time></trkpt><trkpt lat="42.1931067" lon="14.6085633"><ele>51.0</ele><time>2026-05-03T07:11:51.898Z</time></trkpt><trkpt lat="42.19314" lon="14.6086983"><ele>51.0</ele><time>2026-05-03T07:11:53.898Z</time></trkpt><trkpt lat="42.1931667" lon="14.608835"><ele>51.0</ele><time>2026-05-03T07:11:55.899Z</time></trkpt><trkpt lat="42.1931933" lon="14.6089667"><ele>51.0</ele><time>2026-05-03T07:11:57.899Z</time></trkpt><trkpt lat="42.1932217" lon="14.6090983"><ele>53.199999999999996</ele><time>2026-05-03T07:11:59.899Z</time></trkpt><trkpt lat="42.193245" lon="14.60923"><ele>55.4</ele><time>2026-05-03T07:12:01.899Z</time></trkpt><trkpt lat="42.19328" lon="14.6093433"><ele>57.6</ele><time>2026-05-03T07:12:03.898Z</time></trkpt><trkpt lat="42.1933217" lon="14.6094467"><ele>59.8</ele><time>2026-05-03T07:12:05.898Z</time></trkpt><trkpt lat="42.193375" lon="14.6095417"><ele>62.0</ele><time>2026-05-03T07:12:07.898Z</time></trkpt><trkpt lat="42.1934383" lon="14.6096483"><ele>62.00000000000001</ele><time>2026-05-03T07:12:09.898Z</time></trkpt><trkpt lat="42.1934967" lon="14.60973"><ele>62.0</ele><time>2026-05-03T07:12:11.898Z</time></trkpt><trkpt lat="42.1935517" lon="14.609805"><ele>62.0</ele><time>2026-05-03T07:12:13.899Z</time></trkpt><trkpt lat="42.1936083" lon="14.6098817"><ele>62.0</ele><time>2026-05-03T07:12:15.898Z</time></trkpt><trkpt lat="42.1936567" lon="14.6099667"><ele>62.00000000000001</ele><time>2026-05-03T07:12:17.899Z</time></trkpt><trkpt lat="42.1937183" lon="14.610085"><ele>62.0</ele><time>2026-05-03T07:12:19.899Z</time></trkpt><trkpt lat="42.1937817" lon="14.6101933"><ele>62.0</ele><time>2026-05-03T07:12:21.899Z</time></trkpt><trkpt lat="42.1938467" lon="14.6102917"><ele>62.0</ele><time>2026-05-03T07:12:23.898Z</time></trkpt><trkpt lat="42.1939033" lon="14.6103917"><ele>62.0</ele><time>2026-05-03T07:12:25.899Z</time></trkpt><trkpt lat="42.193975" lon="14.6104967"><ele>62.0</ele><time>2026-05-03T07:12:27.898Z</time></trkpt><trkpt lat="42.1940367" lon="14.6106017"><ele>62.0</ele><time>2026-05-03T07:12:29.898Z</time></trkpt><trkpt lat="42.19411" lon="14.6107117"><ele>62.75</ele><time>2026-05-03T07:12:31.898Z</time></trkpt><trkpt lat="42.1941883" lon="14.6108267"><ele>63.5</ele><time>2026-05-03T07:12:33.899Z</time></trkpt><trkpt lat="42.194265" lon="14.6109383"><ele>64.25</ele><time>2026-05-03T07:12:35.899Z</time></trkpt><trkpt lat="42.1943433" lon="14.6110417"><ele>65.0</ele><time>2026-05-03T07:12:37.899Z</time></trkpt><trkpt lat="42.1944217" lon="14.61115"><ele>63.5</ele><time>2026-05-03T07:12:39.899Z</time></trkpt><trkpt lat="42.1945" lon="14.6112717"><ele>62.0</ele><time>2026-05-03T07:12:41.899Z</time></trkpt><trkpt lat="42.1945833" lon="14.61138"><ele>60.5</ele><time>2026-05-03T07:12:43.899Z</time></trkpt><trkpt lat="42.194665" lon="14.61149"><ele>59.0</ele><time>2026-05-03T07:12:45.898Z</time></trkpt><trkpt lat="42.194745" lon="14.6115983"><ele>59.0</ele><time>2026-05-03T07:12:47.899Z</time></trkpt><trkpt lat="42.1948233" lon="14.6117017"><ele>59.00000000000001</ele><time>2026-05-03T07:12:49.899Z</time></trkpt><trkpt lat="42.1949033" lon="14.611815"><ele>59.00000000000001</ele><time>2026-05-03T07:12:51.898Z</time></trkpt><trkpt lat="42.19497" lon="14.6119167"><ele>59.0</ele><time>2026-05-03T07:12:53.899Z</time></trkpt><trkpt lat="42.1950367" lon="14.6120283"><ele>59.0</ele><time>2026-05-03T07:12:55.899Z</time></trkpt><trkpt lat="42.1950833" lon="14.61209"><ele>59.16666666666667</ele><time>2026-05-03T07:12:56.898Z</time></trkpt><trkpt lat="42.1951283" lon="14.6121517"><ele>59.333333333333336</ele><time>2026-05-03T07:12:57.899Z</time></trkpt><trkpt lat="42.195175" lon="14.6122183"><ele>59.5</ele><time>2026-05-03T07:12:58.899Z</time></trkpt><trkpt lat="42.1952267" lon="14.6122783"><ele>59.66666666666667</ele><time>2026-05-03T07:12:59.899Z</time></trkpt><trkpt lat="42.1953183" lon="14.61239"><ele>59.833333333333336</ele><time>2026-05-03T07:13:01.899Z</time></trkpt><trkpt lat="42.19537" lon="14.6124483"><ele>60.0</ele><time>2026-05-03T07:13:02.899Z</time></trkpt><trkpt lat="42.195415" lon="14.6125083"><ele>60.0</ele><time>2026-05-03T07:13:03.899Z</time></trkpt><trkpt lat="42.195465" lon="14.6125667"><ele>60.0</ele><time>2026-05-03T07:13:04.899Z</time></trkpt><trkpt lat="42.1955533" lon="14.6126733"><ele>60.0</ele><time>2026-05-03T07:13:06.898Z</time></trkpt><trkpt lat="42.195645" lon="14.61278"><ele>60.0</ele><time>2026-05-03T07:13:08.898Z</time></trkpt><trkpt lat="42.19573" lon="14.6128917"><ele>60.0</ele><time>2026-05-03T07:13:10.899Z</time></trkpt><trkpt lat="42.195805" lon="14.6129883"><ele>60.0</ele><time>2026-05-03T07:13:12.899Z</time></trkpt><trkpt lat="42.1958767" lon="14.6130883"><ele>60.0</ele><time>2026-05-03T07:13:14.899Z</time></trkpt><trkpt lat="42.1959533" lon="14.613185"><ele>60.0</ele><time>2026-05-03T07:13:16.898Z</time></trkpt><trkpt lat="42.1959983" lon="14.6132483"><ele>60.0</ele><time>2026-05-03T07:13:17.899Z</time></trkpt><trkpt lat="42.1960433" lon="14.6133083"><ele>60.0</ele><time>2026-05-03T07:13:18.899Z</time></trkpt><trkpt lat="42.1961283" lon="14.6134183"><ele>60.0</ele><time>2026-05-03T07:13:20.899Z</time></trkpt><trkpt lat="42.19622" lon="14.6135233"><ele>60.0</ele><time>2026-05-03T07:13:22.899Z</time></trkpt><trkpt lat="42.196305" lon="14.6136183"><ele>60.0</ele><time>2026-05-03T07:13:24.899Z</time></trkpt><trkpt lat="42.1963883" lon="14.6137183"><ele>60.0</ele><time>2026-05-03T07:13:26.899Z</time></trkpt><trkpt lat="42.1964733" lon="14.6138133"><ele>60.0</ele><time>2026-05-03T07:13:28.898Z</time></trkpt><trkpt lat="42.1965567" lon="14.6139117"><ele>60.0</ele><time>2026-05-03T07:13:30.899Z</time></trkpt><trkpt lat="42.1966433" lon="14.6140083"><ele>60.0</ele><time>2026-05-03T07:13:32.899Z</time></trkpt><trkpt lat="42.196725" lon="14.614095"><ele>60.0</ele><time>2026-05-03T07:13:34.898Z</time></trkpt><trkpt lat="42.1968083" lon="14.6141833"><ele>60.0</ele><time>2026-05-03T07:13:36.898Z</time></trkpt><trkpt lat="42.1968917" lon="14.61427"><ele>60.0</ele><time>2026-05-03T07:13:38.899Z</time></trkpt><trkpt lat="42.1969767" lon="14.614355"><ele>60.0</ele><time>2026-05-03T07:13:40.898Z</time></trkpt><trkpt lat="42.1970633" lon="14.614435"><ele>60.0</ele><time>2026-05-03T07:13:42.899Z</time></trkpt><trkpt lat="42.19716" lon="14.614505"><ele>60.0</ele><time>2026-05-03T07:13:44.898Z</time></trkpt><trkpt lat="42.19726" lon="14.61456"><ele>60.0</ele><time>2026-05-03T07:13:46.899Z</time></trkpt><trkpt lat="42.1973683" lon="14.6146067"><ele>59.4</ele><time>2026-05-03T07:13:48.898Z</time></trkpt><trkpt lat="42.19748" lon="14.6146333"><ele>58.8</ele><time>2026-05-03T07:13:50.899Z</time></trkpt><trkpt lat="42.197605" lon="14.6146383"><ele>58.2</ele><time>2026-05-03T07:13:52.899Z</time></trkpt><trkpt lat="42.197675" lon="14.6146383"><ele>57.6</ele><time>2026-05-03T07:13:53.898Z</time></trkpt><trkpt lat="42.1977433" lon="14.6146333"><ele>57.0</ele><time>2026-05-03T07:13:54.899Z</time></trkpt><trkpt lat="42.1978167" lon="14.6146267"><ele>57.0</ele><time>2026-05-03T07:13:55.899Z</time></trkpt><trkpt lat="42.1978917" lon="14.6146217"><ele>56.99999999999999</ele><time>2026-05-03T07:13:56.899Z</time></trkpt><trkpt lat="42.197965" lon="14.6146133"><ele>57.0</ele><time>2026-05-03T07:13:57.899Z</time></trkpt><trkpt lat="42.198035" lon="14.6145967"><ele>57.0</ele><time>2026-05-03T07:13:58.898Z</time></trkpt><trkpt lat="42.1981017" lon="14.6145833"><ele>56.99999999999999</ele><time>2026-05-03T07:13:59.899Z</time></trkpt><trkpt lat="42.198175" lon="14.6145633"><ele>57.0</ele><time>2026-05-03T07:14:00.899Z</time></trkpt><trkpt lat="42.19825" lon="14.6145317"><ele>57.0</ele><time>2026-05-03T07:14:01.899Z</time></trkpt><trkpt lat="42.1983267" lon="14.614485"><ele>56.0</ele><time>2026-05-03T07:14:02.899Z</time></trkpt><trkpt lat="42.19839" lon="14.61443"><ele>55.0</ele><time>2026-05-03T07:14:03.898Z</time></trkpt><trkpt lat="42.19844" lon="14.6143583"><ele>54.0</ele><time>2026-05-03T07:14:04.899Z</time></trkpt><trkpt lat="42.1984883" lon="14.61426"><ele>53.0</ele><time>2026-05-03T07:14:05.899Z</time></trkpt><trkpt lat="42.1985267" lon="14.6141483"><ele>52.0</ele><time>2026-05-03T07:14:06.899Z</time></trkpt><trkpt lat="42.1985633" lon="14.6140217"><ele>51.0</ele><time>2026-05-03T07:14:07.899Z</time></trkpt><trkpt lat="42.1985883" lon="14.61388"><ele>51.0</ele><time>2026-05-03T07:14:08.899Z</time></trkpt><trkpt lat="42.19861" lon="14.6137267"><ele>51.0</ele><time>2026-05-03T07:14:09.899Z</time></trkpt><trkpt lat="42.198625" lon="14.61357"><ele>51.0</ele><time>2026-05-03T07:14:10.898Z</time></trkpt><trkpt lat="42.1986267" lon="14.6134167"><ele>51.0</ele><time>2026-05-03T07:14:11.899Z</time></trkpt><trkpt lat="42.198625" lon="14.6132567"><ele>50.8</ele><time>2026-05-03T07:14:12.899Z</time></trkpt><trkpt lat="42.1986217" lon="14.6131"><ele>50.599999999999994</ele><time>2026-05-03T07:14:13.899Z</time></trkpt><trkpt lat="42.1986133" lon="14.612945"><ele>50.4</ele><time>2026-05-03T07:14:14.899Z</time></trkpt><trkpt lat="42.1986033" lon="14.6127983"><ele>50.2</ele><time>2026-05-03T07:14:15.898Z</time></trkpt><trkpt lat="42.1985933" lon="14.6126617"><ele>50.0</ele><time>2026-05-03T07:14:16.899Z</time></trkpt><trkpt lat="42.1985867" lon="14.61253"><ele>49.00000000000001</ele><time>2026-05-03T07:14:17.899Z</time></trkpt><trkpt lat="42.1985833" lon="14.6124117"><ele>48.0</ele><time>2026-05-03T07:14:18.899Z</time></trkpt><trkpt lat="42.1985883" lon="14.6123067"><ele>47.0</ele><time>2026-05-03T07:14:19.899Z</time></trkpt><trkpt lat="42.1986083" lon="14.612215"><ele>46.0</ele><time>2026-05-03T07:14:20.898Z</time></trkpt><trkpt lat="42.1986483" lon="14.6121433"><ele>45.0</ele><time>2026-05-03T07:14:21.899Z</time></trkpt><trkpt lat="42.1987133" lon="14.612085"><ele>44.0</ele><time>2026-05-03T07:14:22.899Z</time></trkpt><trkpt lat="42.1987983" lon="14.6120433"><ele>44.0</ele><time>2026-05-03T07:14:23.899Z</time></trkpt><trkpt lat="42.1988917" lon="14.612015"><ele>44.0</ele><time>2026-05-03T07:14:24.899Z</time></trkpt><trkpt lat="42.198975" lon="14.612"><ele>44.0</ele><time>2026-05-03T07:14:25.899Z</time></trkpt><trkpt lat="42.1990617" lon="14.6119783"><ele>44.0</ele><time>2026-05-03T07:14:26.899Z</time></trkpt><trkpt lat="42.1991433" lon="14.61195"><ele>44.0</ele><time>2026-05-03T07:14:27.898Z</time></trkpt><trkpt lat="42.19922" lon="14.6119183"><ele>44.0</ele><time>2026-05-03T07:14:28.899Z</time></trkpt><trkpt lat="42.1992917" lon="14.61187"><ele>40.83333333333333</ele><time>2026-05-03T07:14:29.899Z</time></trkpt><trkpt lat="42.1993517" lon="14.6118017"><ele>37.666666666666664</ele><time>2026-05-03T07:14:30.898Z</time></trkpt><trkpt lat="42.1993967" lon="14.611715"><ele>34.5</ele><time>2026-05-03T07:14:31.898Z</time></trkpt><trkpt lat="42.199435" lon="14.6116067"><ele>31.333333333333336</ele><time>2026-05-03T07:14:32.899Z</time></trkpt><trkpt lat="42.199475" lon="14.6114983"><ele>28.166666666666668</ele><time>2026-05-03T07:14:33.899Z</time></trkpt><trkpt lat="42.1995067" lon="14.611385"><ele>25.0</ele><time>2026-05-03T07:14:34.899Z</time></trkpt><trkpt lat="42.19953" lon="14.61128"><ele>25.000000000000004</ele><time>2026-05-03T07:14:35.898Z</time></trkpt><trkpt lat="42.19955" lon="14.6111667"><ele>25.0</ele><time>2026-05-03T07:14:36.899Z</time></trkpt><trkpt lat="42.19957" lon="14.6110583"><ele>25.0</ele><time>2026-05-03T07:14:37.898Z</time></trkpt><trkpt lat="42.1995833" lon="14.6109483"><ele>25.0</ele><time>2026-05-03T07:14:38.898Z</time></trkpt><trkpt lat="42.1996067" lon="14.6108583"><ele>25.000000000000004</ele><time>2026-05-03T07:14:39.898Z</time></trkpt><trkpt lat="42.1996717" lon="14.61074"><ele>25.0</ele><time>2026-05-03T07:14:41.899Z</time></trkpt><trkpt lat="42.1997267" lon="14.6106717"><ele>24.666666666666668</ele><time>2026-05-03T07:14:44.899Z</time></trkpt><trkpt lat="42.1997767" lon="14.6105767"><ele>24.333333333333336</ele><time>2026-05-03T07:14:48.899Z</time></trkpt><trkpt lat="42.19977" lon="14.6104833"><ele>24.0</ele><time>2026-05-03T07:14:50.899Z</time></trkpt><trkpt lat="42.1997583" lon="14.6103833"><ele>23.666666666666668</ele><time>2026-05-03T07:14:52.898Z</time></trkpt><trkpt lat="42.199745" lon="14.610275"><ele>23.333333333333336</ele><time>2026-05-03T07:14:54.899Z</time></trkpt><trkpt lat="42.199715" lon="14.61015"><ele>23.0</ele><time>2026-05-03T07:14:56.899Z</time></trkpt><trkpt lat="42.1996833" lon="14.610025"><ele>22.599999999999998</ele><time>2026-05-03T07:14:58.899Z</time></trkpt><trkpt lat="42.1996583" lon="14.60989"><ele>22.2</ele><time>2026-05-03T07:15:00.899Z</time></trkpt><trkpt lat="42.1996333" lon="14.6097417"><ele>21.8</ele><time>2026-05-03T07:15:02.899Z</time></trkpt><trkpt lat="42.1996017" lon="14.609605"><ele>21.4</ele><time>2026-05-03T07:15:04.898Z</time></trkpt><trkpt lat="42.199575" lon="14.609475"><ele>21.0</ele><time>2026-05-03T07:15:06.899Z</time></trkpt><trkpt lat="42.19954" lon="14.6093367"><ele>20.6</ele><time>2026-05-03T07:15:08.899Z</time></trkpt><trkpt lat="42.199505" lon="14.609195"><ele>20.200000000000003</ele><time>2026-05-03T07:15:10.899Z</time></trkpt><trkpt lat="42.1994733" lon="14.60906"><ele>19.799999999999997</ele><time>2026-05-03T07:15:12.899Z</time></trkpt><trkpt lat="42.1994367" lon="14.608925"><ele>19.4</ele><time>2026-05-03T07:15:14.898Z</time></trkpt><trkpt lat="42.1994017" lon="14.6087833"><ele>19.0</ele><time>2026-05-03T07:15:16.899Z</time></trkpt><trkpt lat="42.1993733" lon="14.6086483"><ele>18.0</ele><time>2026-05-03T07:15:18.898Z</time></trkpt><trkpt lat="42.1993433" lon="14.6085133"><ele>17.0</ele><time>2026-05-03T07:15:20.899Z</time></trkpt><trkpt lat="42.1993133" lon="14.60838"><ele>15.999999999999998</ele><time>2026-05-03T07:15:22.899Z</time></trkpt><trkpt lat="42.19929" lon="14.6082383"><ele>15.0</ele><time>2026-05-03T07:15:24.898Z</time></trkpt><trkpt lat="42.1992567" lon="14.6080933"><ele>14.0</ele><time>2026-05-03T07:15:26.898Z</time></trkpt><trkpt lat="42.1992217" lon="14.6079583"><ele>13.799999999999999</ele><time>2026-05-03T07:15:28.898Z</time></trkpt><trkpt lat="42.199185" lon="14.607815"><ele>13.599999999999998</ele><time>2026-05-03T07:15:30.898Z</time></trkpt><trkpt lat="42.1991533" lon="14.6076833"><ele>13.4</ele><time>2026-05-03T07:15:32.899Z</time></trkpt><trkpt lat="42.1991217" lon="14.6075383"><ele>13.2</ele><time>2026-05-03T07:15:34.899Z</time></trkpt><trkpt lat="42.199095" lon="14.6074"><ele>13.0</ele><time>2026-05-03T07:15:36.898Z</time></trkpt><trkpt lat="42.1990567" lon="14.6072583"><ele>13.0</ele><time>2026-05-03T07:15:38.899Z</time></trkpt><trkpt lat="42.199025" lon="14.60712"><ele>13.0</ele><time>2026-05-03T07:15:40.899Z</time></trkpt><trkpt lat="42.1989917" lon="14.6069767"><ele>13.0</ele><time>2026-05-03T07:15:42.899Z</time></trkpt><trkpt lat="42.198955" lon="14.6068367"><ele>13.0</ele><time>2026-05-03T07:15:44.898Z</time></trkpt><trkpt lat="42.1989233" lon="14.6066917"><ele>13.0</ele><time>2026-05-03T07:15:46.899Z</time></trkpt><trkpt lat="42.198895" lon="14.6065483"><ele>14.2</ele><time>2026-05-03T07:15:48.899Z</time></trkpt><trkpt lat="42.198855" lon="14.6064133"><ele>15.4</ele><time>2026-05-03T07:15:50.899Z</time></trkpt><trkpt lat="42.1988267" lon="14.606275"><ele>16.599999999999998</ele><time>2026-05-03T07:15:52.899Z</time></trkpt><trkpt lat="42.1987933" lon="14.6061333"><ele>17.8</ele><time>2026-05-03T07:15:54.899Z</time></trkpt><trkpt lat="42.19876" lon="14.6059867"><ele>19.0</ele><time>2026-05-03T07:15:56.898Z</time></trkpt><trkpt lat="42.198725" lon="14.605835"><ele>19.0</ele><time>2026-05-03T07:15:58.899Z</time></trkpt><trkpt lat="42.1987" lon="14.6056867"><ele>19.0</ele><time>2026-05-03T07:16:00.898Z</time></trkpt><trkpt lat="42.1986717" lon="14.6055433"><ele>19.0</ele><time>2026-05-03T07:16:02.898Z</time></trkpt><trkpt lat="42.1986533" lon="14.6054"><ele>19.0</ele><time>2026-05-03T07:16:04.899Z</time></trkpt><trkpt lat="42.1986333" lon="14.6052583"><ele>19.0</ele><time>2026-05-03T07:16:06.899Z</time></trkpt><trkpt lat="42.1986233" lon="14.6051183"><ele>19.0</ele><time>2026-05-03T07:16:08.899Z</time></trkpt><trkpt lat="42.1986117" lon="14.6049767"><ele>19.0</ele><time>2026-05-03T07:16:10.898Z</time></trkpt><trkpt lat="42.1986083" lon="14.6048233"><ele>19.0</ele><time>2026-05-03T07:16:12.899Z</time></trkpt><trkpt lat="42.1986067" lon="14.6046733"><ele>19.0</ele><time>2026-05-03T07:16:14.898Z</time></trkpt><trkpt lat="42.1986117" lon="14.60452"><ele>19.0</ele><time>2026-05-03T07:16:16.898Z</time></trkpt><trkpt lat="42.1986183" lon="14.604365"><ele>18.5</ele><time>2026-05-03T07:16:18.899Z</time></trkpt><trkpt lat="42.19863" lon="14.6042167"><ele>18.0</ele><time>2026-05-03T07:16:20.898Z</time></trkpt><trkpt lat="42.19864" lon="14.6040567"><ele>17.5</ele><time>2026-05-03T07:16:22.899Z</time></trkpt><trkpt lat="42.1986583" lon="14.6038967"><ele>17.0</ele><time>2026-05-03T07:16:24.899Z</time></trkpt><trkpt lat="42.1986767" lon="14.603745"><ele>17.0</ele><time>2026-05-03T07:16:26.898Z</time></trkpt><trkpt lat="42.1987" lon="14.6035883"><ele>17.0</ele><time>2026-05-03T07:16:28.898Z</time></trkpt><trkpt lat="42.1987233" lon="14.6034367"><ele>17.0</ele><time>2026-05-03T07:16:30.898Z</time></trkpt><trkpt lat="42.1987483" lon="14.6032867"><ele>17.0</ele><time>2026-05-03T07:16:32.899Z</time></trkpt><trkpt lat="42.198765" lon="14.6031333"><ele>17.0</ele><time>2026-05-03T07:16:34.898Z</time></trkpt><trkpt lat="42.19878" lon="14.6029783"><ele>17.0</ele><time>2026-05-03T07:16:36.899Z</time></trkpt><trkpt lat="42.1988083" lon="14.6028183"><ele>17.0</ele><time>2026-05-03T07:16:38.899Z</time></trkpt><trkpt lat="42.19884" lon="14.6026667"><ele>17.0</ele><time>2026-05-03T07:16:40.899Z</time></trkpt><trkpt lat="42.198855" lon="14.6025117"><ele>17.0</ele><time>2026-05-03T07:16:42.899Z</time></trkpt><trkpt lat="42.1988733" lon="14.6023617"><ele>17.0</ele><time>2026-05-03T07:16:44.899Z</time></trkpt><trkpt lat="42.1988983" lon="14.60221"><ele>17.0</ele><time>2026-05-03T07:16:46.899Z</time></trkpt><trkpt lat="42.1989217" lon="14.602065"><ele>17.0</ele><time>2026-05-03T07:16:48.898Z</time></trkpt><trkpt lat="42.1989417" lon="14.6019117"><ele>17.0</ele><time>2026-05-03T07:16:50.898Z</time></trkpt><trkpt lat="42.19896" lon="14.6017617"><ele>17.0</ele><time>2026-05-03T07:16:52.899Z</time></trkpt><trkpt lat="42.1989833" lon="14.6016167"><ele>17.0</ele><time>2026-05-03T07:16:54.898Z</time></trkpt><trkpt lat="42.1990167" lon="14.6014683"><ele>17.0</ele><time>2026-05-03T07:16:56.898Z</time></trkpt><trkpt lat="42.1990533" lon="14.6013183"><ele>15.8</ele><time>2026-05-03T07:16:58.899Z</time></trkpt><trkpt lat="42.199105" lon="14.6011817"><ele>14.6</ele><time>2026-05-03T07:17:00.899Z</time></trkpt><trkpt lat="42.1991567" lon="14.6010483"><ele>13.4</ele><time>2026-05-03T07:17:02.899Z</time></trkpt><trkpt lat="42.1992083" lon="14.6009317"><ele>12.200000000000001</ele><time>2026-05-03T07:17:04.899Z</time></trkpt><trkpt lat="42.199285" lon="14.6008883"><ele>11.0</ele><time>2026-05-03T07:17:06.898Z</time></trkpt><trkpt lat="42.1994" lon="14.6009567"><ele>11.0</ele><time>2026-05-03T07:17:08.899Z</time></trkpt><trkpt lat="42.1994717" lon="14.6010017"><ele>11.0</ele><time>2026-05-03T07:17:09.899Z</time></trkpt><trkpt lat="42.19955" lon="14.601045"><ele>11.0</ele><time>2026-05-03T07:17:10.899Z</time></trkpt><trkpt lat="42.19963" lon="14.60109"><ele>11.0</ele><time>2026-05-03T07:17:11.899Z</time></trkpt><trkpt lat="42.1997033" lon="14.6011533"><ele>11.0</ele><time>2026-05-03T07:17:12.898Z</time></trkpt><trkpt lat="42.1997667" lon="14.601225"><ele>11.0</ele><time>2026-05-03T07:17:13.899Z</time></trkpt><trkpt lat="42.19982" lon="14.6012967"><ele>9.833333333333332</ele><time>2026-05-03T07:17:14.899Z</time></trkpt><trkpt lat="42.1998833" lon="14.6013883"><ele>8.666666666666666</ele><time>2026-05-03T07:17:16.898Z</time></trkpt><trkpt lat="42.19992" lon="14.6014583"><ele>7.5</ele><time>2026-05-03T07:17:18.898Z</time></trkpt><trkpt lat="42.1999683" lon="14.6015367"><ele>6.333333333333333</ele><time>2026-05-03T07:17:20.899Z</time></trkpt><trkpt lat="42.2000167" lon="14.6016233"><ele>5.166666666666666</ele><time>2026-05-03T07:17:22.899Z</time></trkpt><trkpt lat="42.2000733" lon="14.601725"><ele>4.0</ele><time>2026-05-03T07:17:24.899Z</time></trkpt><trkpt lat="42.2001367" lon="14.6018383"><ele>4.0</ele><time>2026-05-03T07:17:26.898Z</time></trkpt><trkpt lat="42.20021" lon="14.6019533"><ele>4.0</ele><time>2026-05-03T07:17:28.899Z</time></trkpt><trkpt lat="42.20028" lon="14.6020667"><ele>4.0</ele><time>2026-05-03T07:17:30.899Z</time></trkpt><trkpt lat="42.2003467" lon="14.60218"><ele>4.0</ele><time>2026-05-03T07:17:32.899Z</time></trkpt><trkpt lat="42.2004117" lon="14.602305"><ele>4.0</ele><time>2026-05-03T07:17:34.899Z</time></trkpt><trkpt lat="42.2004717" lon="14.6024417"><ele>4.0</ele><time>2026-05-03T07:17:36.898Z</time></trkpt><trkpt lat="42.2005333" lon="14.6025617"><ele>4.0</ele><time>2026-05-03T07:17:38.897Z</time></trkpt><trkpt lat="42.200585" lon="14.6026883"><ele>4.0</ele><time>2026-05-03T07:17:40.898Z</time></trkpt><trkpt lat="42.2006417" lon="14.60282"><ele>4.0</ele><time>2026-05-03T07:17:42.898Z</time></trkpt><trkpt lat="42.2007017" lon="14.60295"><ele>4.0</ele><time>2026-05-03T07:17:44.897Z</time></trkpt><trkpt lat="42.20075" lon="14.603075"><ele>3.5</ele><time>2026-05-03T07:17:46.898Z</time></trkpt><trkpt lat="42.2008133" lon="14.6031983"><ele>3.0</ele><time>2026-05-03T07:17:48.897Z</time></trkpt><trkpt lat="42.2008733" lon="14.6033333"><ele>2.5</ele><time>2026-05-03T07:17:50.897Z</time></trkpt><trkpt lat="42.2009333" lon="14.6034767"><ele>2.0</ele><time>2026-05-03T07:17:52.897Z</time></trkpt><trkpt lat="42.2009917" lon="14.6036083"><ele>1.8</ele><time>2026-05-03T07:17:54.898Z</time></trkpt><trkpt lat="42.2010583" lon="14.6037283"><ele>1.6</ele><time>2026-05-03T07:17:56.898Z</time></trkpt><trkpt lat="42.201135" lon="14.60384"><ele>1.4000000000000001</ele><time>2026-05-03T07:17:58.898Z</time></trkpt><trkpt lat="42.201215" lon="14.6039433"><ele>1.2000000000000002</ele><time>2026-05-03T07:18:00.898Z</time></trkpt><trkpt lat="42.2012917" lon="14.6040433"><ele>1.0</ele><time>2026-05-03T07:18:02.898Z</time></trkpt><trkpt lat="42.20137" lon="14.6041517"><ele>1.0</ele><time>2026-05-03T07:18:04.898Z</time></trkpt><trkpt lat="42.2014483" lon="14.6042483"><ele>1.0</ele><time>2026-05-03T07:18:06.898Z</time></trkpt><trkpt lat="42.2015317" lon="14.6043433"><ele>1.0</ele><time>2026-05-03T07:18:08.897Z</time></trkpt><trkpt lat="42.2016167" lon="14.6044467"><ele>1.0</ele><time>2026-05-03T07:18:10.898Z</time></trkpt><trkpt lat="42.2016983" lon="14.60456"><ele>1.0</ele><time>2026-05-03T07:18:12.897Z</time></trkpt><trkpt lat="42.2017717" lon="14.604675"><ele>1.2000000000000002</ele><time>2026-05-03T07:18:14.898Z</time></trkpt><trkpt lat="42.201845" lon="14.6047833"><ele>1.4000000000000001</ele><time>2026-05-03T07:18:16.898Z</time></trkpt><trkpt lat="42.20192" lon="14.6049"><ele>1.6</ele><time>2026-05-03T07:18:18.898Z</time></trkpt><trkpt lat="42.2019983" lon="14.6050167"><ele>1.8</ele><time>2026-05-03T07:18:20.898Z</time></trkpt><trkpt lat="42.2020417" lon="14.6050783"><ele>2.0</ele><time>2026-05-03T07:18:21.898Z</time></trkpt><trkpt lat="42.20214" lon="14.6051783"><ele>2.0</ele><time>2026-05-03T07:18:23.898Z</time></trkpt><trkpt lat="42.2022183" lon="14.6052533"><ele>2.0</ele><time>2026-05-03T07:18:25.898Z</time></trkpt><trkpt lat="42.2022967" lon="14.6053417"><ele>2.0</ele><time>2026-05-03T07:18:27.898Z</time></trkpt><trkpt lat="42.202385" lon="14.6054317"><ele>2.0</ele><time>2026-05-03T07:18:29.898Z</time></trkpt><trkpt lat="42.202475" lon="14.6055133"><ele>2.0</ele><time>2026-05-03T07:18:31.898Z</time></trkpt><trkpt lat="42.20256" lon="14.6055917"><ele>1.8</ele><time>2026-05-03T07:18:33.898Z</time></trkpt><trkpt lat="42.202655" lon="14.6056567"><ele>1.6</ele><time>2026-05-03T07:18:35.898Z</time></trkpt><trkpt lat="42.2027517" lon="14.605725"><ele>1.4000000000000001</ele><time>2026-05-03T07:18:37.898Z</time></trkpt><trkpt lat="42.2028483" lon="14.6057883"><ele>1.2000000000000002</ele><time>2026-05-03T07:18:39.897Z</time></trkpt><trkpt lat="42.2029417" lon="14.6058467"><ele>1.0</ele><time>2026-05-03T07:18:41.898Z</time></trkpt><trkpt lat="42.2030333" lon="14.6059133"><ele>0.9999999999999999</ele><time>2026-05-03T07:18:43.898Z</time></trkpt><trkpt lat="42.20312" lon="14.6059733"><ele>1.0</ele><time>2026-05-03T07:18:45.898Z</time></trkpt><trkpt lat="42.2032067" lon="14.60604"><ele>1.0</ele><time>2026-05-03T07:18:47.898Z</time></trkpt><trkpt lat="42.2032433" lon="14.6061267"><ele>1.0</ele><time>2026-05-03T07:18:49.897Z</time></trkpt><trkpt lat="42.2032033" lon="14.6062017"><ele>0.9999999999999999</ele><time>2026-05-03T07:18:51.897Z</time></trkpt><trkpt lat="42.2031933" lon="14.60631"><ele>1.0</ele><time>2026-05-03T07:18:54.897Z</time></trkpt><trkpt lat="42.20325" lon="14.6063583"><ele>0.9999999999999999</ele><time>2026-05-03T07:18:57.898Z</time></trkpt><trkpt lat="42.2033167" lon="14.606365"><ele>1.0</ele><time>2026-05-03T07:19:00.898Z</time></trkpt><trkpt lat="42.2033967" lon="14.6063533"><ele>1.0</ele><time>2026-05-03T07:19:04.898Z</time></trkpt><trkpt lat="42.203455" lon="14.6063"><ele>1.0</ele><time>2026-05-03T07:19:07.897Z</time></trkpt><trkpt lat="42.2035033" lon="14.606195"><ele>0.9999999999999999</ele><time>2026-05-03T07:19:10.898Z</time></trkpt><trkpt lat="42.2035517" lon="14.6060867"><ele>1.0</ele><time>2026-05-03T07:19:13.897Z</time></trkpt><trkpt lat="42.203585" lon="14.606005"><ele>0.8333333333333333</ele><time>2026-05-03T07:19:15.897Z</time></trkpt><trkpt lat="42.2036167" lon="14.6059233"><ele>0.6666666666666666</ele><time>2026-05-03T07:19:17.898Z</time></trkpt><trkpt lat="42.20365" lon="14.6058317"><ele>0.5</ele><time>2026-05-03T07:19:19.897Z</time></trkpt><trkpt lat="42.2036983" lon="14.60574"><ele>0.3333333333333333</ele><time>2026-05-03T07:19:21.898Z</time></trkpt><trkpt lat="42.2037433" lon="14.6056433"><ele>0.16666666666666666</ele><time>2026-05-03T07:19:23.898Z</time></trkpt><trkpt lat="42.20379" lon="14.6055433"><ele>0.0</ele><time>2026-05-03T07:19:25.898Z</time></trkpt><trkpt lat="42.2038333" lon="14.605435"><ele>0.2</ele><time>2026-05-03T07:19:27.897Z</time></trkpt><trkpt lat="42.2038767" lon="14.6053267"><ele>0.4</ele><time>2026-05-03T07:19:29.898Z</time></trkpt><trkpt lat="42.2039267" lon="14.6052133"><ele>0.6000000000000001</ele><time>2026-05-03T07:19:31.897Z</time></trkpt><trkpt lat="42.203975" lon="14.6051083"><ele>0.8</ele><time>2026-05-03T07:19:33.897Z</time></trkpt><trkpt lat="42.20402" lon="14.6050017"><ele>1.0</ele><time>2026-05-03T07:19:35.898Z</time></trkpt><trkpt lat="42.2040667" lon="14.604895"><ele>1.0</ele><time>2026-05-03T07:19:37.897Z</time></trkpt><trkpt lat="42.2041183" lon="14.604785"><ele>1.0</ele><time>2026-05-03T07:19:39.897Z</time></trkpt><trkpt lat="42.2041617" lon="14.60468"><ele>1.0</ele><time>2026-05-03T07:19:41.898Z</time></trkpt><trkpt lat="42.20421" lon="14.6045617"><ele>1.0</ele><time>2026-05-03T07:19:43.898Z</time></trkpt><trkpt lat="42.2042583" lon="14.6044533"><ele>1.0</ele><time>2026-05-03T07:19:45.898Z</time></trkpt><trkpt lat="42.204305" lon="14.604345"><ele>0.8</ele><time>2026-05-03T07:19:47.898Z</time></trkpt><trkpt lat="42.2043533" lon="14.604235"><ele>0.6000000000000001</ele><time>2026-05-03T07:19:49.897Z</time></trkpt><trkpt lat="42.2044083" lon="14.604115"><ele>0.4</ele><time>2026-05-03T07:19:51.897Z</time></trkpt><trkpt lat="42.20446" lon="14.604"><ele>0.2</ele><time>2026-05-03T07:19:53.898Z</time></trkpt><trkpt lat="42.2045067" lon="14.6038933"><ele>0.0</ele><time>2026-05-03T07:19:55.897Z</time></trkpt><trkpt lat="42.2045617" lon="14.6037917"><ele>0.0</ele><time>2026-05-03T07:19:57.898Z</time></trkpt><trkpt lat="42.2046217" lon="14.6037017"><ele>0.0</ele><time>2026-05-03T07:19:59.897Z</time></trkpt><trkpt lat="42.204685" lon="14.60361"><ele>0.0</ele><time>2026-05-03T07:20:01.897Z</time></trkpt><trkpt lat="42.20474" lon="14.6034983"><ele>0.0</ele><time>2026-05-03T07:20:03.897Z</time></trkpt><trkpt lat="42.2047883" lon="14.6033983"><ele>0.0</ele><time>2026-05-03T07:20:05.897Z</time></trkpt><trkpt lat="42.20484" lon="14.6032833"><ele>0.8</ele><time>2026-05-03T07:20:07.898Z</time></trkpt><trkpt lat="42.2048767" lon="14.6032"><ele>1.6</ele><time>2026-05-03T07:20:08.898Z</time></trkpt><trkpt lat="42.2049167" lon="14.6030933"><ele>2.4000000000000004</ele><time>2026-05-03T07:20:10.898Z</time></trkpt><trkpt lat="42.204965" lon="14.602975"><ele>3.2</ele><time>2026-05-03T07:20:12.898Z</time></trkpt><trkpt lat="42.2050083" lon="14.602835"><ele>4.0</ele><time>2026-05-03T07:20:14.898Z</time></trkpt><trkpt lat="42.2050633" lon="14.6027017"><ele>4.6</ele><time>2026-05-03T07:20:16.898Z</time></trkpt><trkpt lat="42.2051167" lon="14.602575"><ele>5.2</ele><time>2026-05-03T07:20:18.898Z</time></trkpt><trkpt lat="42.2051683" lon="14.6024633"><ele>5.799999999999999</ele><time>2026-05-03T07:20:20.898Z</time></trkpt><trkpt lat="42.205215" lon="14.6023733"><ele>6.3999999999999995</ele><time>2026-05-03T07:20:22.898Z</time></trkpt><trkpt lat="42.2052617" lon="14.6022733"><ele>7.0</ele><time>2026-05-03T07:20:24.898Z</time></trkpt><trkpt lat="42.2053083" lon="14.6021733"><ele>7.0</ele><time>2026-05-03T07:20:26.898Z</time></trkpt><trkpt lat="42.20536" lon="14.6020667"><ele>6.999999999999999</ele><time>2026-05-03T07:20:28.898Z</time></trkpt><trkpt lat="42.2054117" lon="14.60196"><ele>6.999999999999999</ele><time>2026-05-03T07:20:30.897Z</time></trkpt><trkpt lat="42.2054783" lon="14.6018383"><ele>7.0</ele><time>2026-05-03T07:20:32.898Z</time></trkpt><trkpt lat="42.2055383" lon="14.60171"><ele>7.0</ele><time>2026-05-03T07:20:34.898Z</time></trkpt><trkpt lat="42.2055867" lon="14.6016017"><ele>7.199999999999999</ele><time>2026-05-03T07:20:36.898Z</time></trkpt><trkpt lat="42.2056283" lon="14.6014817"><ele>7.3999999999999995</ele><time>2026-05-03T07:20:38.898Z</time></trkpt><trkpt lat="42.2056767" lon="14.601355"><ele>7.6000000000000005</ele><time>2026-05-03T07:20:40.898Z</time></trkpt><trkpt lat="42.20573" lon="14.6012267"><ele>7.800000000000001</ele><time>2026-05-03T07:20:42.898Z</time></trkpt><trkpt lat="42.2057817" lon="14.6011083"><ele>8.0</ele><time>2026-05-03T07:20:44.898Z</time></trkpt><trkpt lat="42.2058367" lon="14.6009933"><ele>8.0</ele><time>2026-05-03T07:20:46.897Z</time></trkpt><trkpt lat="42.20589" lon="14.6008783"><ele>8.0</ele><time>2026-05-03T07:20:48.897Z</time></trkpt><trkpt lat="42.2059283" lon="14.6007767"><ele>8.0</ele><time>2026-05-03T07:20:50.898Z</time></trkpt><trkpt lat="42.2059833" lon="14.6006667"><ele>8.0</ele><time>2026-05-03T07:20:52.898Z</time></trkpt><trkpt lat="42.2060383" lon="14.6005567"><ele>8.0</ele><time>2026-05-03T07:20:54.897Z</time></trkpt><trkpt lat="42.20609" lon="14.60044"><ele>8.600000000000001</ele><time>2026-05-03T07:20:56.898Z</time></trkpt><trkpt lat="42.2061417" lon="14.6003283"><ele>9.200000000000001</ele><time>2026-05-03T07:20:58.898Z</time></trkpt><trkpt lat="42.2061867" lon="14.6002183"><ele>9.8</ele><time>2026-05-03T07:21:00.897Z</time></trkpt><trkpt lat="42.2062367" lon="14.6001133"><ele>10.4</ele><time>2026-05-03T07:21:02.898Z</time></trkpt><trkpt lat="42.2062817" lon="14.6000067"><ele>11.0</ele><time>2026-05-03T07:21:04.898Z</time></trkpt><trkpt lat="42.20633" lon="14.5999"><ele>11.0</ele><time>2026-05-03T07:21:06.898Z</time></trkpt><trkpt lat="42.2063767" lon="14.5998"><ele>11.0</ele><time>2026-05-03T07:21:08.898Z</time></trkpt><trkpt lat="42.2064167" lon="14.599685"><ele>11.0</ele><time>2026-05-03T07:21:10.898Z</time></trkpt><trkpt lat="42.2064633" lon="14.59957"><ele>11.0</ele><time>2026-05-03T07:21:12.897Z</time></trkpt><trkpt lat="42.2065133" lon="14.5994667"><ele>11.0</ele><time>2026-05-03T07:21:14.897Z</time></trkpt><trkpt lat="42.206565" lon="14.59936"><ele>10.4</ele><time>2026-05-03T07:21:16.898Z</time></trkpt><trkpt lat="42.2066133" lon="14.59926"><ele>9.8</ele><time>2026-05-03T07:21:18.898Z</time></trkpt><trkpt lat="42.2066567" lon="14.5991717"><ele>9.200000000000001</ele><time>2026-05-03T07:21:20.897Z</time></trkpt><trkpt lat="42.2067033" lon="14.599065"><ele>8.600000000000001</ele><time>2026-05-03T07:21:22.897Z</time></trkpt><trkpt lat="42.20676" lon="14.59896"><ele>8.0</ele><time>2026-05-03T07:21:24.898Z</time></trkpt><trkpt lat="42.2068067" lon="14.598845"><ele>7.999999999999999</ele><time>2026-05-03T07:21:26.898Z</time></trkpt><trkpt lat="42.2068517" lon="14.5987383"><ele>8.0</ele><time>2026-05-03T07:21:28.897Z</time></trkpt><trkpt lat="42.2068967" lon="14.5986317"><ele>8.0</ele><time>2026-05-03T07:21:30.898Z</time></trkpt><trkpt lat="42.2069383" lon="14.5985317"><ele>8.0</ele><time>2026-05-03T07:21:32.897Z</time></trkpt><trkpt lat="42.2069867" lon="14.59844"><ele>7.999999999999999</ele><time>2026-05-03T07:21:34.898Z</time></trkpt><trkpt lat="42.207035" lon="14.59836"><ele>8.0</ele><time>2026-05-03T07:21:36.898Z</time></trkpt><trkpt lat="42.2070717" lon="14.5982617"><ele>9.4</ele><time>2026-05-03T07:21:38.898Z</time></trkpt><trkpt lat="42.2071117" lon="14.5981617"><ele>10.8</ele><time>2026-05-03T07:21:40.898Z</time></trkpt><trkpt lat="42.20716" lon="14.5980533"><ele>12.2</ele><time>2026-05-03T07:21:42.897Z</time></trkpt><trkpt lat="42.2072167" lon="14.5979333"><ele>13.6</ele><time>2026-05-03T07:21:44.897Z</time></trkpt><trkpt lat="42.2072633" lon="14.5978017"><ele>15.0</ele><time>2026-05-03T07:21:46.897Z</time></trkpt><trkpt lat="42.207305" lon="14.5976783"><ele>13.4</ele><time>2026-05-03T07:21:48.898Z</time></trkpt><trkpt lat="42.2073517" lon="14.5975733"><ele>11.8</ele><time>2026-05-03T07:21:50.898Z</time></trkpt><trkpt lat="42.207395" lon="14.5974683"><ele>10.2</ele><time>2026-05-03T07:21:52.898Z</time></trkpt><trkpt lat="42.2074433" lon="14.5973583"><ele>8.6</ele><time>2026-05-03T07:21:54.898Z</time></trkpt><trkpt lat="42.20749" lon="14.5972617"><ele>7.0</ele><time>2026-05-03T07:21:56.898Z</time></trkpt><trkpt lat="42.20754" lon="14.5971583"><ele>7.0</ele><time>2026-05-03T07:21:58.898Z</time></trkpt><trkpt lat="42.20758" lon="14.5970467"><ele>6.999999999999999</ele><time>2026-05-03T07:22:00.897Z</time></trkpt><trkpt lat="42.207605" lon="14.596925"><ele>6.999999999999999</ele><time>2026-05-03T07:22:02.898Z</time></trkpt><trkpt lat="42.20763" lon="14.5968017"><ele>7.0</ele><time>2026-05-03T07:22:04.898Z</time></trkpt><trkpt lat="42.2076733" lon="14.596695"><ele>7.0</ele><time>2026-05-03T07:22:06.898Z</time></trkpt><trkpt lat="42.2077183" lon="14.596585"><ele>8.399999999999999</ele><time>2026-05-03T07:22:08.898Z</time></trkpt><trkpt lat="42.20777" lon="14.59648"><ele>9.799999999999999</ele><time>2026-05-03T07:22:10.898Z</time></trkpt><trkpt lat="42.2078167" lon="14.5963833"><ele>11.2</ele><time>2026-05-03T07:22:12.898Z</time></trkpt><trkpt lat="42.2078583" lon="14.596275"><ele>12.6</ele><time>2026-05-03T07:22:14.897Z</time></trkpt><trkpt lat="42.2079083" lon="14.5961683"><ele>14.0</ele><time>2026-05-03T07:22:16.898Z</time></trkpt><trkpt lat="42.2079583" lon="14.5960617"><ele>14.666666666666668</ele><time>2026-05-03T07:22:18.898Z</time></trkpt><trkpt lat="42.2080117" lon="14.5959567"><ele>15.333333333333334</ele><time>2026-05-03T07:22:20.898Z</time></trkpt><trkpt lat="42.2080567" lon="14.5958567"><ele>16.0</ele><time>2026-05-03T07:22:22.897Z</time></trkpt><trkpt lat="42.2081067" lon="14.595755"><ele>16.666666666666668</ele><time>2026-05-03T07:22:24.897Z</time></trkpt><trkpt lat="42.2081567" lon="14.5956517"><ele>17.333333333333332</ele><time>2026-05-03T07:22:26.898Z</time></trkpt><trkpt lat="42.2082017" lon="14.595555"><ele>18.0</ele><time>2026-05-03T07:22:28.897Z</time></trkpt><trkpt lat="42.2082517" lon="14.595455"><ele>17.2</ele><time>2026-05-03T07:22:30.898Z</time></trkpt><trkpt lat="42.20831" lon="14.595355"><ele>16.4</ele><time>2026-05-03T07:22:32.898Z</time></trkpt><trkpt lat="42.2083633" lon="14.59526"><ele>15.599999999999998</ele><time>2026-05-03T07:22:34.897Z</time></trkpt><trkpt lat="42.2084233" lon="14.5951667"><ele>14.799999999999999</ele><time>2026-05-03T07:22:36.897Z</time></trkpt><trkpt lat="42.20848" lon="14.59507"><ele>14.0</ele><time>2026-05-03T07:22:38.898Z</time></trkpt><trkpt lat="42.2085317" lon="14.5949633"><ele>14.0</ele><time>2026-05-03T07:22:40.897Z</time></trkpt><trkpt lat="42.2085867" lon="14.594865"><ele>13.999999999999998</ele><time>2026-05-03T07:22:42.898Z</time></trkpt><trkpt lat="42.2086467" lon="14.5947783"><ele>13.999999999999998</ele><time>2026-05-03T07:22:44.897Z</time></trkpt><trkpt lat="42.2087" lon="14.5946783"><ele>14.0</ele><time>2026-05-03T07:22:46.898Z</time></trkpt><trkpt lat="42.208755" lon="14.5945733"><ele>14.0</ele><time>2026-05-03T07:22:48.898Z</time></trkpt><trkpt lat="42.2088117" lon="14.5944733"><ele>14.799999999999999</ele><time>2026-05-03T07:22:50.898Z</time></trkpt><trkpt lat="42.2088717" lon="14.5943767"><ele>15.599999999999998</ele><time>2026-05-03T07:22:52.897Z</time></trkpt><trkpt lat="42.2089317" lon="14.594275"><ele>16.4</ele><time>2026-05-03T07:22:54.898Z</time></trkpt><trkpt lat="42.2089917" lon="14.5941783"><ele>17.2</ele><time>2026-05-03T07:22:56.898Z</time></trkpt><trkpt lat="42.2090533" lon="14.5940867"><ele>18.0</ele><time>2026-05-03T07:22:58.898Z</time></trkpt><trkpt lat="42.2091133" lon="14.5939867"><ele>17.0</ele><time>2026-05-03T07:23:00.898Z</time></trkpt><trkpt lat="42.2091733" lon="14.5938983"><ele>16.0</ele><time>2026-05-03T07:23:02.898Z</time></trkpt><trkpt lat="42.2092333" lon="14.5938033"><ele>15.0</ele><time>2026-05-03T07:23:04.898Z</time></trkpt><trkpt lat="42.2092883" lon="14.59371"><ele>14.0</ele><time>2026-05-03T07:23:06.898Z</time></trkpt><trkpt lat="42.20935" lon="14.5936167"><ele>13.0</ele><time>2026-05-03T07:23:08.898Z</time></trkpt><trkpt lat="42.2094067" lon="14.593515"><ele>12.999999999999998</ele><time>2026-05-03T07:23:10.897Z</time></trkpt><trkpt lat="42.2094567" lon="14.5934267"><ele>13.0</ele><time>2026-05-03T07:23:12.897Z</time></trkpt><trkpt lat="42.20951" lon="14.5933417"><ele>13.0</ele><time>2026-05-03T07:23:14.898Z</time></trkpt><trkpt lat="42.2095717" lon="14.5932433"><ele>13.0</ele><time>2026-05-03T07:23:16.898Z</time></trkpt><trkpt lat="42.209625" lon="14.5931483"><ele>12.999999999999998</ele><time>2026-05-03T07:23:18.897Z</time></trkpt><trkpt lat="42.2096717" lon="14.5930517"><ele>13.0</ele><time>2026-05-03T07:23:20.898Z</time></trkpt><trkpt lat="42.20973" lon="14.592945"><ele>11.8</ele><time>2026-05-03T07:23:22.898Z</time></trkpt><trkpt lat="42.2097883" lon="14.5928383"><ele>10.600000000000001</ele><time>2026-05-03T07:23:24.898Z</time></trkpt><trkpt lat="42.209845" lon="14.59273"><ele>9.399999999999999</ele><time>2026-05-03T07:23:26.898Z</time></trkpt><trkpt lat="42.209905" lon="14.5926217"><ele>8.2</ele><time>2026-05-03T07:23:28.898Z</time></trkpt><trkpt lat="42.209965" lon="14.592525"><ele>7.0</ele><time>2026-05-03T07:23:30.897Z</time></trkpt><trkpt lat="42.2100183" lon="14.59243"><ele>7.0</ele><time>2026-05-03T07:23:32.898Z</time></trkpt><trkpt lat="42.2100617" lon="14.5923133"><ele>6.999999999999999</ele><time>2026-05-03T07:23:34.897Z</time></trkpt><trkpt lat="42.2101133" lon="14.5922033"><ele>6.999999999999999</ele><time>2026-05-03T07:23:36.897Z</time></trkpt><trkpt lat="42.21016" lon="14.5920967"><ele>7.0</ele><time>2026-05-03T07:23:38.897Z</time></trkpt><trkpt lat="42.2102117" lon="14.59199"><ele>7.0</ele><time>2026-05-03T07:23:40.898Z</time></trkpt><trkpt lat="42.210265" lon="14.5919017"><ele>8.142857142857142</ele><time>2026-05-03T07:23:42.898Z</time></trkpt><trkpt lat="42.210305" lon="14.5918217"><ele>9.285714285714285</ele><time>2026-05-03T07:23:44.898Z</time></trkpt><trkpt lat="42.2103367" lon="14.591725"><ele>10.428571428571429</ele><time>2026-05-03T07:23:48.897Z</time></trkpt><trkpt lat="42.2103817" lon="14.5916567"><ele>11.571428571428571</ele><time>2026-05-03T07:23:54.897Z</time></trkpt><trkpt lat="42.2103217" lon="14.591705"><ele>12.714285714285714</ele><time>2026-05-03T07:24:00.898Z</time></trkpt><trkpt lat="42.2102767" lon="14.59178"><ele>13.857142857142858</ele><time>2026-05-03T07:24:04.898Z</time></trkpt><trkpt lat="42.21023" lon="14.5918383"><ele>15.0</ele><time>2026-05-03T07:24:08.898Z</time></trkpt><trkpt lat="42.2101967" lon="14.5919183"><ele>15.0</ele><time>2026-05-03T07:24:12.898Z</time></trkpt><trkpt lat="42.2101567" lon="14.591985"><ele>15.0</ele><time>2026-05-03T07:24:16.897Z</time></trkpt><trkpt lat="42.21012" lon="14.5920633"><ele>15.0</ele><time>2026-05-03T07:24:20.898Z</time></trkpt><trkpt lat="42.210075" lon="14.592155"><ele>15.0</ele><time>2026-05-03T07:24:23.897Z</time></trkpt><trkpt lat="42.2100333" lon="14.5922367"><ele>15.0</ele><time>2026-05-03T07:24:25.897Z</time></trkpt><trkpt lat="42.2099883" lon="14.5923367"><ele>15.0</ele><time>2026-05-03T07:24:27.898Z</time></trkpt><trkpt lat="42.2099367" lon="14.5924483"><ele>14.6</ele><time>2026-05-03T07:24:29.898Z</time></trkpt><trkpt lat="42.2098867" lon="14.59255"><ele>14.2</ele><time>2026-05-03T07:24:31.897Z</time></trkpt><trkpt lat="42.2098317" lon="14.592645"><ele>13.8</ele><time>2026-05-03T07:24:33.898Z</time></trkpt><trkpt lat="42.20978" lon="14.5927433"><ele>13.4</ele><time>2026-05-03T07:24:35.898Z</time></trkpt><trkpt lat="42.2097233" lon="14.5928383"><ele>13.0</ele><time>2026-05-03T07:24:37.897Z</time></trkpt><trkpt lat="42.2096667" lon="14.5929383"><ele>13.0</ele><time>2026-05-03T07:24:39.898Z</time></trkpt><trkpt lat="42.209615" lon="14.5930317"><ele>13.0</ele><time>2026-05-03T07:24:41.898Z</time></trkpt><trkpt lat="42.2095567" lon="14.5931417"><ele>13.0</ele><time>2026-05-03T07:24:43.898Z</time></trkpt><trkpt lat="42.20951" lon="14.593235"><ele>13.0</ele><time>2026-05-03T07:24:45.897Z</time></trkpt><trkpt lat="42.209455" lon="14.5933283"><ele>13.0</ele><time>2026-05-03T07:24:47.898Z</time></trkpt><trkpt lat="42.2093883" lon="14.5934233"><ele>13.0</ele><time>2026-05-03T07:24:49.898Z</time></trkpt><trkpt lat="42.2093267" lon="14.59353"><ele>13.0</ele><time>2026-05-03T07:24:51.898Z</time></trkpt><trkpt lat="42.2092667" lon="14.5936317"><ele>13.0</ele><time>2026-05-03T07:24:53.897Z</time></trkpt><trkpt lat="42.209205" lon="14.5937333"><ele>13.0</ele><time>2026-05-03T07:24:55.897Z</time></trkpt><trkpt lat="42.209145" lon="14.5938417"><ele>13.0</ele><time>2026-05-03T07:24:57.898Z</time></trkpt><trkpt lat="42.2090917" lon="14.59394"><ele>14.0</ele><time>2026-05-03T07:24:59.898Z</time></trkpt><trkpt lat="42.2090367" lon="14.5940383"><ele>15.0</ele><time>2026-05-03T07:25:01.897Z</time></trkpt><trkpt lat="42.2089783" lon="14.5941383"><ele>16.0</ele><time>2026-05-03T07:25:03.898Z</time></trkpt><trkpt lat="42.2089183" lon="14.5942367"><ele>17.0</ele><time>2026-05-03T07:25:05.898Z</time></trkpt><trkpt lat="42.20886" lon="14.59434"><ele>18.0</ele><time>2026-05-03T07:25:07.898Z</time></trkpt><trkpt lat="42.2087967" lon="14.59444"><ele>17.2</ele><time>2026-05-03T07:25:09.898Z</time></trkpt><trkpt lat="42.2087417" lon="14.5945483"><ele>16.4</ele><time>2026-05-03T07:25:11.897Z</time></trkpt><trkpt lat="42.2086883" lon="14.5946517"><ele>15.599999999999998</ele><time>2026-05-03T07:25:13.897Z</time></trkpt><trkpt lat="42.2086233" lon="14.5947383"><ele>14.799999999999999</ele><time>2026-05-03T07:25:15.897Z</time></trkpt><trkpt lat="42.2085733" lon="14.5948333"><ele>14.0</ele><time>2026-05-03T07:25:17.898Z</time></trkpt><trkpt lat="42.20852" lon="14.5949383"><ele>14.0</ele><time>2026-05-03T07:25:19.897Z</time></trkpt><trkpt lat="42.2084617" lon="14.595035"><ele>13.999999999999998</ele><time>2026-05-03T07:25:21.898Z</time></trkpt><trkpt lat="42.208405" lon="14.595145"><ele>13.999999999999998</ele><time>2026-05-03T07:25:23.898Z</time></trkpt><trkpt lat="42.20835" lon="14.59526"><ele>14.0</ele><time>2026-05-03T07:25:25.897Z</time></trkpt><trkpt lat="42.2082917" lon="14.5953583"><ele>14.0</ele><time>2026-05-03T07:25:27.898Z</time></trkpt><trkpt lat="42.2082417" lon="14.5954633"><ele>14.799999999999999</ele><time>2026-05-03T07:25:29.898Z</time></trkpt><trkpt lat="42.20818" lon="14.595565"><ele>15.599999999999998</ele><time>2026-05-03T07:25:31.898Z</time></trkpt><trkpt lat="42.2081233" lon="14.5956683"><ele>16.4</ele><time>2026-05-03T07:25:33.898Z</time></trkpt><trkpt lat="42.2080667" lon="14.5957783"><ele>17.2</ele><time>2026-05-03T07:25:35.898Z</time></trkpt><trkpt lat="42.2080117" lon="14.5958883"><ele>18.0</ele><time>2026-05-03T07:25:37.898Z</time></trkpt><trkpt lat="42.20796" lon="14.5959983"><ele>18.0</ele><time>2026-05-03T07:25:39.898Z</time></trkpt><trkpt lat="42.2079083" lon="14.5961117"><ele>18.0</ele><time>2026-05-03T07:25:41.897Z</time></trkpt><trkpt lat="42.2078567" lon="14.596225"><ele>18.0</ele><time>2026-05-03T07:25:43.898Z</time></trkpt><trkpt lat="42.207805" lon="14.5963383"><ele>18.0</ele><time>2026-05-03T07:25:45.897Z</time></trkpt><trkpt lat="42.2077583" lon="14.5964583"><ele>18.0</ele><time>2026-05-03T07:25:47.898Z</time></trkpt><trkpt lat="42.2077167" lon="14.5965633"><ele>17.2</ele><time>2026-05-03T07:25:49.898Z</time></trkpt><trkpt lat="42.2076667" lon="14.5966683"><ele>16.4</ele><time>2026-05-03T07:25:51.898Z</time></trkpt><trkpt lat="42.20762" lon="14.596785"><ele>15.599999999999998</ele><time>2026-05-03T07:25:53.898Z</time></trkpt><trkpt lat="42.2075833" lon="14.5969083"><ele>14.799999999999999</ele><time>2026-05-03T07:25:55.898Z</time></trkpt><trkpt lat="42.2075433" lon="14.5970283"><ele>14.0</ele><time>2026-05-03T07:25:57.898Z</time></trkpt><trkpt lat="42.2074917" lon="14.5971333"><ele>15.0</ele><time>2026-05-03T07:25:59.897Z</time></trkpt><trkpt lat="42.2074383" lon="14.59724"><ele>15.999999999999998</ele><time>2026-05-03T07:26:01.898Z</time></trkpt><trkpt lat="42.207385" lon="14.597355"><ele>17.0</ele><time>2026-05-03T07:26:03.897Z</time></trkpt><trkpt lat="42.20734" lon="14.59748"><ele>18.0</ele><time>2026-05-03T07:26:05.897Z</time></trkpt><trkpt lat="42.2072933" lon="14.5976033"><ele>19.0</ele><time>2026-05-03T07:26:07.898Z</time></trkpt><trkpt lat="42.2072383" lon="14.597725"><ele>18.2</ele><time>2026-05-03T07:26:09.897Z</time></trkpt><trkpt lat="42.2071883" lon="14.5978467"><ele>17.4</ele><time>2026-05-03T07:26:11.898Z</time></trkpt><trkpt lat="42.2071367" lon="14.59797"><ele>16.6</ele><time>2026-05-03T07:26:13.897Z</time></trkpt><trkpt lat="42.2070817" lon="14.5980883"><ele>15.8</ele><time>2026-05-03T07:26:15.898Z</time></trkpt><trkpt lat="42.2070267" lon="14.5981983"><ele>15.0</ele><time>2026-05-03T07:26:17.897Z</time></trkpt><trkpt lat="42.20697" lon="14.59831"><ele>15.0</ele><time>2026-05-03T07:26:19.898Z</time></trkpt><trkpt lat="42.20691" lon="14.5984233"><ele>15.0</ele><time>2026-05-03T07:26:21.897Z</time></trkpt><trkpt lat="42.2068533" lon="14.5985267"><ele>15.0</ele><time>2026-05-03T07:26:23.898Z</time></trkpt><trkpt lat="42.2068" lon="14.5986417"><ele>15.0</ele><time>2026-05-03T07:26:25.898Z</time></trkpt><trkpt lat="42.2067433" lon="14.5987617"><ele>15.0</ele><time>2026-05-03T07:26:27.897Z</time></trkpt><trkpt lat="42.206705" lon="14.5988917"><ele>14.8</ele><time>2026-05-03T07:26:29.898Z</time></trkpt><trkpt lat="42.20666" lon="14.59902"><ele>14.6</ele><time>2026-05-03T07:26:31.897Z</time></trkpt><trkpt lat="42.2066133" lon="14.599135"><ele>14.399999999999999</ele><time>2026-05-03T07:26:33.897Z</time></trkpt><trkpt lat="42.20657" lon="14.59926"><ele>14.2</ele><time>2026-05-03T07:26:35.897Z</time></trkpt><trkpt lat="42.206525" lon="14.5993683"><ele>14.0</ele><time>2026-05-03T07:26:37.898Z</time></trkpt><trkpt lat="42.2064833" lon="14.5994817"><ele>13.399999999999999</ele><time>2026-05-03T07:26:39.898Z</time></trkpt><trkpt lat="42.20643" lon="14.5995933"><ele>12.799999999999999</ele><time>2026-05-03T07:26:41.898Z</time></trkpt><trkpt lat="42.206365" lon="14.5996767"><ele>12.2</ele><time>2026-05-03T07:26:43.898Z</time></trkpt><trkpt lat="42.2063217" lon="14.5997833"><ele>11.600000000000001</ele><time>2026-05-03T07:26:45.898Z</time></trkpt><trkpt lat="42.206265" lon="14.5998817"><ele>11.0</ele><time>2026-05-03T07:26:47.898Z</time></trkpt><trkpt lat="42.2062117" lon="14.5999867"><ele>11.0</ele><time>2026-05-03T07:26:49.898Z</time></trkpt><trkpt lat="42.206165" lon="14.600095"><ele>11.0</ele><time>2026-05-03T07:26:51.898Z</time></trkpt><trkpt lat="42.2061283" lon="14.600215"><ele>11.0</ele><time>2026-05-03T07:26:53.897Z</time></trkpt><trkpt lat="42.2060833" lon="14.6003333"><ele>11.0</ele><time>2026-05-03T07:26:55.897Z</time></trkpt><trkpt lat="42.2060367" lon="14.6004583"><ele>11.0</ele><time>2026-05-03T07:26:57.898Z</time></trkpt><trkpt lat="42.2059917" lon="14.6005717"><ele>10.4</ele><time>2026-05-03T07:26:59.898Z</time></trkpt><trkpt lat="42.2059433" lon="14.6006933"><ele>9.8</ele><time>2026-05-03T07:27:01.898Z</time></trkpt><trkpt lat="42.2058917" lon="14.60081"><ele>9.200000000000001</ele><time>2026-05-03T07:27:03.897Z</time></trkpt><trkpt lat="42.205835" lon="14.6009233"><ele>8.600000000000001</ele><time>2026-05-03T07:27:05.897Z</time></trkpt><trkpt lat="42.20579" lon="14.6010417"><ele>8.0</ele><time>2026-05-03T07:27:07.898Z</time></trkpt><trkpt lat="42.2057433" lon="14.601165"><ele>8.600000000000001</ele><time>2026-05-03T07:27:09.898Z</time></trkpt><trkpt lat="42.2056967" lon="14.6012867"><ele>9.200000000000001</ele><time>2026-05-03T07:27:11.898Z</time></trkpt><trkpt lat="42.2056417" lon="14.601405"><ele>9.8</ele><time>2026-05-03T07:27:13.898Z</time></trkpt><trkpt lat="42.2055867" lon="14.6015117"><ele>10.4</ele><time>2026-05-03T07:27:15.897Z</time></trkpt><trkpt lat="42.2055433" lon="14.60162"><ele>11.0</ele><time>2026-05-03T07:27:17.897Z</time></trkpt><trkpt lat="42.2054867" lon="14.6017267"><ele>11.0</ele><time>2026-05-03T07:27:19.897Z</time></trkpt><trkpt lat="42.20544" lon="14.6018467"><ele>11.0</ele><time>2026-05-03T07:27:21.897Z</time></trkpt><trkpt lat="42.2053883" lon="14.601955"><ele>11.0</ele><time>2026-05-03T07:27:23.898Z</time></trkpt><trkpt lat="42.205335" lon="14.602065"><ele>11.0</ele><time>2026-05-03T07:27:25.897Z</time></trkpt><trkpt lat="42.2052783" lon="14.602175"><ele>11.0</ele><time>2026-05-03T07:27:27.897Z</time></trkpt><trkpt lat="42.205225" lon="14.6022917"><ele>10.200000000000001</ele><time>2026-05-03T07:27:29.898Z</time></trkpt><trkpt lat="42.2051783" lon="14.6024067"><ele>9.4</ele><time>2026-05-03T07:27:31.897Z</time></trkpt><trkpt lat="42.2051233" lon="14.602515"><ele>8.6</ele><time>2026-05-03T07:27:33.898Z</time></trkpt><trkpt lat="42.2050683" lon="14.6026283"><ele>7.8</ele><time>2026-05-03T07:27:35.898Z</time></trkpt><trkpt lat="42.2050267" lon="14.6027567"><ele>7.0</ele><time>2026-05-03T07:27:37.898Z</time></trkpt><trkpt lat="42.2049833" lon="14.6028767"><ele>6.3999999999999995</ele><time>2026-05-03T07:27:39.897Z</time></trkpt><trkpt lat="42.2049367" lon="14.6029967"><ele>5.799999999999999</ele><time>2026-05-03T07:27:41.898Z</time></trkpt><trkpt lat="42.2048833" lon="14.6031033"><ele>5.2</ele><time>2026-05-03T07:27:43.898Z</time></trkpt><trkpt lat="42.2048317" lon="14.603225"><ele>4.6</ele><time>2026-05-03T07:27:45.897Z</time></trkpt><trkpt lat="42.2047867" lon="14.6033417"><ele>4.0</ele><time>2026-05-03T07:27:47.898Z</time></trkpt><trkpt lat="42.2047317" lon="14.6034483"><ele>3.4000000000000004</ele><time>2026-05-03T07:27:49.898Z</time></trkpt><trkpt lat="42.2046783" lon="14.6035483"><ele>2.8000000000000003</ele><time>2026-05-03T07:27:51.898Z</time></trkpt><trkpt lat="42.20462" lon="14.60365"><ele>2.2</ele><time>2026-05-03T07:27:53.897Z</time></trkpt><trkpt lat="42.2045633" lon="14.6037433"><ele>1.6</ele><time>2026-05-03T07:27:55.897Z</time></trkpt><trkpt lat="42.204515" lon="14.6038517"><ele>1.0</ele><time>2026-05-03T07:27:57.898Z</time></trkpt><trkpt lat="42.20447" lon="14.6039683"><ele>1.0</ele><time>2026-05-03T07:27:59.898Z</time></trkpt><trkpt lat="42.2044217" lon="14.604085"><ele>1.0</ele><time>2026-05-03T07:28:01.898Z</time></trkpt><trkpt lat="42.204365" lon="14.6041917"><ele>1.0</ele><time>2026-05-03T07:28:03.897Z</time></trkpt><trkpt lat="42.2043133" lon="14.6043"><ele>1.0</ele><time>2026-05-03T07:28:05.897Z</time></trkpt><trkpt lat="42.2042683" lon="14.6044083"><ele>1.0</ele><time>2026-05-03T07:28:07.898Z</time></trkpt><trkpt lat="42.2042183" lon="14.6045233"><ele>1.0</ele><time>2026-05-03T07:28:09.897Z</time></trkpt><trkpt lat="42.20417" lon="14.604635"><ele>1.0</ele><time>2026-05-03T07:28:11.897Z</time></trkpt><trkpt lat="42.2041217" lon="14.6047517"><ele>1.0</ele><time>2026-05-03T07:28:13.897Z</time></trkpt><trkpt lat="42.2040733" lon="14.6048683"><ele>1.0</ele><time>2026-05-03T07:28:15.897Z</time></trkpt><trkpt lat="42.2040217" lon="14.60498"><ele>1.0</ele><time>2026-05-03T07:28:17.898Z</time></trkpt><trkpt lat="42.20397" lon="14.6050967"><ele>1.0</ele><time>2026-05-03T07:28:19.897Z</time></trkpt><trkpt lat="42.2039233" lon="14.6052033"><ele>1.0</ele><time>2026-05-03T07:28:21.897Z</time></trkpt><trkpt lat="42.2038767" lon="14.6053167"><ele>1.0</ele><time>2026-05-03T07:28:23.898Z</time></trkpt><trkpt lat="42.2038267" lon="14.60543"><ele>1.0</ele><time>2026-05-03T07:28:25.897Z</time></trkpt><trkpt lat="42.203775" lon="14.6055317"><ele>1.0</ele><time>2026-05-03T07:28:27.897Z</time></trkpt><trkpt lat="42.2037267" lon="14.6056367"><ele>1.0</ele><time>2026-05-03T07:28:29.897Z</time></trkpt><trkpt lat="42.2036767" lon="14.605745"><ele>1.0</ele><time>2026-05-03T07:28:31.898Z</time></trkpt><trkpt lat="42.203635" lon="14.6058467"><ele>1.0</ele><time>2026-05-03T07:28:33.898Z</time></trkpt><trkpt lat="42.2035933" lon="14.605955"><ele>1.0</ele><time>2026-05-03T07:28:35.898Z</time></trkpt><trkpt lat="42.2035483" lon="14.6060617"><ele>1.0</ele><time>2026-05-03T07:28:37.897Z</time></trkpt><trkpt lat="42.2035017" lon="14.6061633"><ele>1.0</ele><time>2026-05-03T07:28:39.898Z</time></trkpt><trkpt lat="42.20345" lon="14.6062733"><ele>1.0</ele><time>2026-05-03T07:28:41.898Z</time></trkpt><trkpt lat="42.2034017" lon="14.6063783"><ele>1.0</ele><time>2026-05-03T07:28:43.897Z</time></trkpt><trkpt lat="42.2033533" lon="14.6064917"><ele>1.0</ele><time>2026-05-03T07:28:45.898Z</time></trkpt><trkpt lat="42.2033033" lon="14.606615"><ele>1.0</ele><time>2026-05-03T07:28:47.898Z</time></trkpt><trkpt lat="42.2032517" lon="14.60673"><ele>1.0</ele><time>2026-05-03T07:28:49.897Z</time></trkpt><trkpt lat="42.203205" lon="14.6068483"><ele>1.0</ele><time>2026-05-03T07:28:51.898Z</time></trkpt><trkpt lat="42.2031517" lon="14.60696"><ele>1.0</ele><time>2026-05-03T07:28:53.898Z</time></trkpt><trkpt lat="42.2031083" lon="14.6070667"><ele>1.0</ele><time>2026-05-03T07:28:55.897Z</time></trkpt><trkpt lat="42.2030617" lon="14.6071833"><ele>1.0</ele><time>2026-05-03T07:28:57.898Z</time></trkpt><trkpt lat="42.2030083" lon="14.6072967"><ele>1.4</ele><time>2026-05-03T07:28:59.898Z</time></trkpt><trkpt lat="42.2029583" lon="14.60741"><ele>1.8</ele><time>2026-05-03T07:29:01.898Z</time></trkpt><trkpt lat="42.2029083" lon="14.607525"><ele>2.1999999999999997</ele><time>2026-05-03T07:29:03.897Z</time></trkpt><trkpt lat="42.2028583" lon="14.607635"><ele>2.6</ele><time>2026-05-03T07:29:05.898Z</time></trkpt><trkpt lat="42.2028133" lon="14.6077417"><ele>3.0</ele><time>2026-05-03T07:29:07.897Z</time></trkpt><trkpt lat="42.2027617" lon="14.6078533"><ele>3.2</ele><time>2026-05-03T07:29:09.898Z</time></trkpt><trkpt lat="42.2027133" lon="14.607965"><ele>3.4</ele><time>2026-05-03T07:29:11.898Z</time></trkpt><trkpt lat="42.2026617" lon="14.6080867"><ele>3.6000000000000005</ele><time>2026-05-03T07:29:13.898Z</time></trkpt><trkpt lat="42.2026117" lon="14.6082017"><ele>3.8000000000000003</ele><time>2026-05-03T07:29:15.897Z</time></trkpt><trkpt lat="42.2025583" lon="14.6083217"><ele>4.0</ele><time>2026-05-03T07:29:17.898Z</time></trkpt><trkpt lat="42.20251" lon="14.6084383"><ele>4.0</ele><time>2026-05-03T07:29:19.898Z</time></trkpt><trkpt lat="42.20247" lon="14.60856"><ele>4.0</ele><time>2026-05-03T07:29:21.898Z</time></trkpt><trkpt lat="42.20242" lon="14.6086817"><ele>4.0</ele><time>2026-05-03T07:29:23.898Z</time></trkpt><trkpt lat="42.20237" lon="14.6088017"><ele>4.0</ele><time>2026-05-03T07:29:25.897Z</time></trkpt><trkpt lat="42.2023183" lon="14.6089083"><ele>4.0</ele><time>2026-05-03T07:29:27.898Z</time></trkpt><trkpt lat="42.2022733" lon="14.6090133"><ele>3.8000000000000003</ele><time>2026-05-03T07:29:29.898Z</time></trkpt><trkpt lat="42.2022233" lon="14.6091333"><ele>3.6000000000000005</ele><time>2026-05-03T07:29:31.898Z</time></trkpt><trkpt lat="42.20218" lon="14.6092583"><ele>3.4</ele><time>2026-05-03T07:29:33.897Z</time></trkpt><trkpt lat="42.2021283" lon="14.609375"><ele>3.2</ele><time>2026-05-03T07:29:35.898Z</time></trkpt><trkpt lat="42.202085" lon="14.6094767"><ele>3.0</ele><time>2026-05-03T07:29:37.898Z</time></trkpt><trkpt lat="42.2020467" lon="14.6095767"><ele>3.0</ele><time>2026-05-03T07:29:39.898Z</time></trkpt><trkpt lat="42.20201" lon="14.60969"><ele>3.0</ele><time>2026-05-03T07:29:41.897Z</time></trkpt><trkpt lat="42.2019733" lon="14.6097917"><ele>3.0</ele><time>2026-05-03T07:29:43.898Z</time></trkpt><trkpt lat="42.201945" lon="14.6099017"><ele>3.0</ele><time>2026-05-03T07:29:45.898Z</time></trkpt><trkpt lat="42.2019283" lon="14.61003"><ele>3.0</ele><time>2026-05-03T07:29:47.898Z</time></trkpt><trkpt lat="42.20192" lon="14.610185"><ele>3.3333333333333335</ele><time>2026-05-03T07:29:49.898Z</time></trkpt><trkpt lat="42.2019167" lon="14.610355"><ele>3.666666666666667</ele><time>2026-05-03T07:29:51.897Z</time></trkpt><trkpt lat="42.2019117" lon="14.610445"><ele>4.0</ele><time>2026-05-03T07:29:52.898Z</time></trkpt><trkpt lat="42.2018967" lon="14.6105367"><ele>4.333333333333334</ele><time>2026-05-03T07:29:53.898Z</time></trkpt><trkpt lat="42.2018717" lon="14.6106283"><ele>4.666666666666667</ele><time>2026-05-03T07:29:54.897Z</time></trkpt><trkpt lat="42.2018467" lon="14.6107167"><ele>5.0</ele><time>2026-05-03T07:29:55.898Z</time></trkpt><trkpt lat="42.2018183" lon="14.6108067"><ele>5.0</ele><time>2026-05-03T07:29:56.897Z</time></trkpt><trkpt lat="42.2017917" lon="14.610885"><ele>5.0</ele><time>2026-05-03T07:29:57.897Z</time></trkpt><trkpt lat="42.2017417" lon="14.611035"><ele>5.0</ele><time>2026-05-03T07:29:59.898Z</time></trkpt><trkpt lat="42.201695" lon="14.611185"><ele>5.0</ele><time>2026-05-03T07:30:01.897Z</time></trkpt><trkpt lat="42.201645" lon="14.61131"><ele>5.0</ele><time>2026-05-03T07:30:03.897Z</time></trkpt><trkpt lat="42.2015983" lon="14.611455"><ele>5.0</ele><time>2026-05-03T07:30:05.897Z</time></trkpt><trkpt lat="42.20155" lon="14.6115933"><ele>5.0</ele><time>2026-05-03T07:30:07.897Z</time></trkpt><trkpt lat="42.2015067" lon="14.6117233"><ele>5.0</ele><time>2026-05-03T07:30:09.898Z</time></trkpt><trkpt lat="42.2014633" lon="14.611855"><ele>5.0</ele><time>2026-05-03T07:30:11.897Z</time></trkpt><trkpt lat="42.2014233" lon="14.6119917"><ele>5.0</ele><time>2026-05-03T07:30:13.897Z</time></trkpt><trkpt lat="42.2013883" lon="14.6121117"><ele>5.2</ele><time>2026-05-03T07:30:15.898Z</time></trkpt><trkpt lat="42.20135" lon="14.6122333"><ele>5.4</ele><time>2026-05-03T07:30:17.897Z</time></trkpt><trkpt lat="42.2013183" lon="14.612345"><ele>5.6</ele><time>2026-05-03T07:30:19.898Z</time></trkpt><trkpt lat="42.2012867" lon="14.6124583"><ele>5.8</ele><time>2026-05-03T07:30:21.897Z</time></trkpt><trkpt lat="42.201255" lon="14.6125667"><ele>6.0</ele><time>2026-05-03T07:30:23.898Z</time></trkpt><trkpt lat="42.20122" lon="14.6126933"><ele>6.0</ele><time>2026-05-03T07:30:25.897Z</time></trkpt><trkpt lat="42.20119" lon="14.6128067"><ele>6.0</ele><time>2026-05-03T07:30:27.898Z</time></trkpt><trkpt lat="42.2011517" lon="14.6129"><ele>6.0</ele><time>2026-05-03T07:30:29.898Z</time></trkpt><trkpt lat="42.2011217" lon="14.6130017"><ele>6.0</ele><time>2026-05-03T07:30:31.897Z</time></trkpt><trkpt lat="42.2010883" lon="14.6131"><ele>6.0</ele><time>2026-05-03T07:30:33.897Z</time></trkpt><trkpt lat="42.2010583" lon="14.6132017"><ele>6.0</ele><time>2026-05-03T07:30:35.897Z</time></trkpt><trkpt lat="42.2010267" lon="14.6133083"><ele>6.142857142857142</ele><time>2026-05-03T07:30:37.898Z</time></trkpt><trkpt lat="42.200995" lon="14.6134067"><ele>6.285714285714286</ele><time>2026-05-03T07:30:39.898Z</time></trkpt><trkpt lat="42.200965" lon="14.6135033"><ele>6.428571428571429</ele><time>2026-05-03T07:30:41.898Z</time></trkpt><trkpt lat="42.2009367" lon="14.6135883"><ele>6.571428571428571</ele><time>2026-05-03T07:30:43.898Z</time></trkpt><trkpt lat="42.2009033" lon="14.6136767"><ele>6.714285714285714</ele><time>2026-05-03T07:30:45.898Z</time></trkpt><trkpt lat="42.200875" lon="14.6137683"><ele>6.857142857142857</ele><time>2026-05-03T07:30:47.898Z</time></trkpt><trkpt lat="42.200845" lon="14.6138567"><ele>7.0</ele><time>2026-05-03T07:30:49.898Z</time></trkpt><trkpt lat="42.2008167" lon="14.6139467"><ele>6.714285714285714</ele><time>2026-05-03T07:30:51.898Z</time></trkpt><trkpt lat="42.2007917" lon="14.6140267"><ele>6.428571428571429</ele><time>2026-05-03T07:30:53.898Z</time></trkpt><trkpt lat="42.2007617" lon="14.6141117"><ele>6.142857142857142</ele><time>2026-05-03T07:30:55.897Z</time></trkpt><trkpt lat="42.2007367" lon="14.61419"><ele>5.857142857142858</ele><time>2026-05-03T07:30:57.898Z</time></trkpt><trkpt lat="42.200705" lon="14.61429"><ele>5.571428571428571</ele><time>2026-05-03T07:31:00.898Z</time></trkpt><trkpt lat="42.20067" lon="14.6144017"><ele>5.285714285714286</ele><time>2026-05-03T07:31:03.898Z</time></trkpt><trkpt lat="42.2006533" lon="14.6144917"><ele>5.0</ele><time>2026-05-03T07:31:05.898Z</time></trkpt><trkpt lat="42.20063" lon="14.61458"><ele>5.666666666666667</ele><time>2026-05-03T07:31:07.898Z</time></trkpt><trkpt lat="42.200635" lon="14.6146967"><ele>6.333333333333334</ele><time>2026-05-03T07:31:09.897Z</time></trkpt><trkpt lat="42.2006383" lon="14.614805"><ele>7.0</ele><time>2026-05-03T07:31:11.898Z</time></trkpt><trkpt lat="42.200615" lon="14.6149183"><ele>7.666666666666667</ele><time>2026-05-03T07:31:13.897Z</time></trkpt><trkpt lat="42.2005783" lon="14.6150367"><ele>8.333333333333334</ele><time>2026-05-03T07:31:15.897Z</time></trkpt><trkpt lat="42.2005267" lon="14.6151317"><ele>9.0</ele><time>2026-05-03T07:31:17.898Z</time></trkpt><trkpt lat="42.2004717" lon="14.6152183"><ele>9.000000000000002</ele><time>2026-05-03T07:31:19.898Z</time></trkpt><trkpt lat="42.2004233" lon="14.6153"><ele>9.0</ele><time>2026-05-03T07:31:21.898Z</time></trkpt><trkpt lat="42.2003833" lon="14.6153817"><ele>9.0</ele><time>2026-05-03T07:31:23.898Z</time></trkpt><trkpt lat="42.200345" lon="14.615465"><ele>9.0</ele><time>2026-05-03T07:31:25.898Z</time></trkpt><trkpt lat="42.2003033" lon="14.6155433"><ele>9.0</ele><time>2026-05-03T07:31:27.898Z</time></trkpt><trkpt lat="42.20026" lon="14.6156367"><ele>9.000000000000002</ele><time>2026-05-03T07:31:29.898Z</time></trkpt><trkpt lat="42.2002333" lon="14.6157267"><ele>9.0</ele><time>2026-05-03T07:31:31.898Z</time></trkpt><trkpt lat="42.2002033" lon="14.61583"><ele>8.166666666666666</ele><time>2026-05-03T07:31:33.897Z</time></trkpt><trkpt lat="42.20017" lon="14.6159217"><ele>7.333333333333333</ele><time>2026-05-03T07:31:35.897Z</time></trkpt><trkpt lat="42.2001433" lon="14.616015"><ele>6.5</ele><time>2026-05-03T07:31:37.897Z</time></trkpt><trkpt lat="42.2001183" lon="14.6161117"><ele>5.666666666666666</ele><time>2026-05-03T07:31:39.898Z</time></trkpt><trkpt lat="42.2000867" lon="14.6162067"><ele>4.833333333333333</ele><time>2026-05-03T07:31:41.897Z</time></trkpt><trkpt lat="42.200055" lon="14.61631"><ele>4.0</ele><time>2026-05-03T07:31:43.897Z</time></trkpt><trkpt lat="42.200025" lon="14.61642"><ele>4.333333333333333</ele><time>2026-05-03T07:31:45.898Z</time></trkpt><trkpt lat="42.1999933" lon="14.61653"><ele>4.666666666666666</ele><time>2026-05-03T07:31:47.897Z</time></trkpt><trkpt lat="42.199955" lon="14.61662"><ele>5.0</ele><time>2026-05-03T07:31:49.898Z</time></trkpt><trkpt lat="42.1999167" lon="14.6167117"><ele>5.333333333333333</ele><time>2026-05-03T07:31:51.898Z</time></trkpt><trkpt lat="42.1998817" lon="14.6168133"><ele>5.666666666666667</ele><time>2026-05-03T07:31:53.897Z</time></trkpt><trkpt lat="42.1998533" lon="14.6169217"><ele>6.0</ele><time>2026-05-03T07:31:55.897Z</time></trkpt><trkpt lat="42.1998183" lon="14.6170183"><ele>6.0</ele><time>2026-05-03T07:31:57.897Z</time></trkpt><trkpt lat="42.1997767" lon="14.6171217"><ele>6.0</ele><time>2026-05-03T07:31:59.897Z</time></trkpt><trkpt lat="42.199735" lon="14.6172283"><ele>6.0</ele><time>2026-05-03T07:32:01.898Z</time></trkpt><trkpt lat="42.1997017" lon="14.617335"><ele>6.0</ele><time>2026-05-03T07:32:03.898Z</time></trkpt><trkpt lat="42.19967" lon="14.617445"><ele>6.0</ele><time>2026-05-03T07:32:05.898Z</time></trkpt><trkpt lat="42.1996317" lon="14.617555"><ele>6.0</ele><time>2026-05-03T07:32:07.897Z</time></trkpt><trkpt lat="42.199595" lon="14.617675"><ele>6.0</ele><time>2026-05-03T07:32:09.897Z</time></trkpt><trkpt lat="42.199555" lon="14.6177967"><ele>6.0</ele><time>2026-05-03T07:32:11.898Z</time></trkpt><trkpt lat="42.199515" lon="14.6179117"><ele>6.0</ele><time>2026-05-03T07:32:13.898Z</time></trkpt><trkpt lat="42.1994767" lon="14.6180183"><ele>6.0</ele><time>2026-05-03T07:32:15.898Z</time></trkpt><trkpt lat="42.1994417" lon="14.6181217"><ele>6.0</ele><time>2026-05-03T07:32:17.898Z</time></trkpt><trkpt lat="42.199405" lon="14.618235"><ele>5.5</ele><time>2026-05-03T07:32:19.898Z</time></trkpt><trkpt lat="42.1993783" lon="14.618345"><ele>5.0</ele><time>2026-05-03T07:32:21.897Z</time></trkpt><trkpt lat="42.1993367" lon="14.6184483"><ele>4.5</ele><time>2026-05-03T07:32:23.897Z</time></trkpt><trkpt lat="42.1992933" lon="14.618545"><ele>4.0</ele><time>2026-05-03T07:32:25.898Z</time></trkpt><trkpt lat="42.1992567" lon="14.618645"><ele>3.5</ele><time>2026-05-03T07:32:27.898Z</time></trkpt><trkpt lat="42.1992233" lon="14.6187533"><ele>3.0</ele><time>2026-05-03T07:32:29.898Z</time></trkpt><trkpt lat="42.1991917" lon="14.6188633"><ele>2.8333333333333335</ele><time>2026-05-03T07:32:31.898Z</time></trkpt><trkpt lat="42.1991483" lon="14.6189717"><ele>2.6666666666666665</ele><time>2026-05-03T07:32:33.897Z</time></trkpt><trkpt lat="42.199115" lon="14.6190717"><ele>2.5</ele><time>2026-05-03T07:32:35.898Z</time></trkpt><trkpt lat="42.199075" lon="14.619165"><ele>2.333333333333333</ele><time>2026-05-03T07:32:37.897Z</time></trkpt><trkpt lat="42.1990417" lon="14.619265"><ele>2.1666666666666665</ele><time>2026-05-03T07:32:39.897Z</time></trkpt><trkpt lat="42.1990017" lon="14.61938"><ele>2.0</ele><time>2026-05-03T07:32:41.897Z</time></trkpt><trkpt lat="42.19896" lon="14.6194917"><ele>3.4000000000000004</ele><time>2026-05-03T07:32:43.898Z</time></trkpt><trkpt lat="42.19892" lon="14.61959"><ele>4.800000000000001</ele><time>2026-05-03T07:32:45.898Z</time></trkpt><trkpt lat="42.1988867" lon="14.6197033"><ele>6.2</ele><time>2026-05-03T07:32:47.897Z</time></trkpt><trkpt lat="42.1988567" lon="14.6198167"><ele>7.6000000000000005</ele><time>2026-05-03T07:32:49.898Z</time></trkpt><trkpt lat="42.1988233" lon="14.61994"><ele>9.0</ele><time>2026-05-03T07:32:51.898Z</time></trkpt><trkpt lat="42.19879" lon="14.6200583"><ele>9.0</ele><time>2026-05-03T07:32:53.897Z</time></trkpt><trkpt lat="42.1987567" lon="14.6201767"><ele>9.0</ele><time>2026-05-03T07:32:55.898Z</time></trkpt><trkpt lat="42.1987267" lon="14.6203017"><ele>9.0</ele><time>2026-05-03T07:32:57.897Z</time></trkpt><trkpt lat="42.1986917" lon="14.6204067"><ele>9.0</ele><time>2026-05-03T07:32:59.897Z</time></trkpt><trkpt lat="42.198655" lon="14.6205183"><ele>9.0</ele><time>2026-05-03T07:33:01.897Z</time></trkpt><trkpt lat="42.1986267" lon="14.6206333"><ele>9.0</ele><time>2026-05-03T07:33:03.897Z</time></trkpt><trkpt lat="42.19859" lon="14.6207633"><ele>9.0</ele><time>2026-05-03T07:33:05.898Z</time></trkpt><trkpt lat="42.1985567" lon="14.62089"><ele>9.0</ele><time>2026-05-03T07:33:07.898Z</time></trkpt><trkpt lat="42.1985317" lon="14.6210233"><ele>9.0</ele><time>2026-05-03T07:33:09.897Z</time></trkpt><trkpt lat="42.198505" lon="14.6211417"><ele>9.0</ele><time>2026-05-03T07:33:11.898Z</time></trkpt><trkpt lat="42.1984717" lon="14.62125"><ele>8.8</ele><time>2026-05-03T07:33:13.897Z</time></trkpt><trkpt lat="42.1984383" lon="14.6213667"><ele>8.600000000000001</ele><time>2026-05-03T07:33:15.898Z</time></trkpt><trkpt lat="42.1984033" lon="14.6214817"><ele>8.4</ele><time>2026-05-03T07:33:17.898Z</time></trkpt><trkpt lat="42.1983683" lon="14.621605"><ele>8.200000000000001</ele><time>2026-05-03T07:33:19.898Z</time></trkpt><trkpt lat="42.1983317" lon="14.621725"><ele>8.0</ele><time>2026-05-03T07:33:21.898Z</time></trkpt><trkpt lat="42.1982867" lon="14.6218483"><ele>8.0</ele><time>2026-05-03T07:33:23.897Z</time></trkpt><trkpt lat="42.1982533" lon="14.6219617"><ele>8.0</ele><time>2026-05-03T07:33:25.898Z</time></trkpt><trkpt lat="42.1982267" lon="14.6220833"><ele>8.0</ele><time>2026-05-03T07:33:27.898Z</time></trkpt><trkpt lat="42.198195" lon="14.6222033"><ele>8.0</ele><time>2026-05-03T07:33:29.898Z</time></trkpt><trkpt lat="42.1981667" lon="14.6223133"><ele>8.0</ele><time>2026-05-03T07:33:31.898Z</time></trkpt><trkpt lat="42.198125" lon="14.6224267"><ele>8.600000000000001</ele><time>2026-05-03T07:33:33.897Z</time></trkpt><trkpt lat="42.1980833" lon="14.6225467"><ele>9.200000000000001</ele><time>2026-05-03T07:33:35.898Z</time></trkpt><trkpt lat="42.19805" lon="14.6226683"><ele>9.8</ele><time>2026-05-03T07:33:37.897Z</time></trkpt><trkpt lat="42.1980167" lon="14.622785"><ele>10.4</ele><time>2026-05-03T07:33:39.898Z</time></trkpt><trkpt lat="42.1979883" lon="14.6229017"><ele>11.0</ele><time>2026-05-03T07:33:41.898Z</time></trkpt><trkpt lat="42.1979533" lon="14.6230183"><ele>11.0</ele><time>2026-05-03T07:33:43.898Z</time></trkpt><trkpt lat="42.1979183" lon="14.6231367"><ele>11.0</ele><time>2026-05-03T07:33:45.898Z</time></trkpt><trkpt lat="42.1978883" lon="14.6232567"><ele>11.0</ele><time>2026-05-03T07:33:47.898Z</time></trkpt><trkpt lat="42.1978583" lon="14.6233767"><ele>11.0</ele><time>2026-05-03T07:33:49.897Z</time></trkpt><trkpt lat="42.197825" lon="14.6234967"><ele>11.0</ele><time>2026-05-03T07:33:51.898Z</time></trkpt><trkpt lat="42.19779" lon="14.6236133"><ele>10.600000000000001</ele><time>2026-05-03T07:33:53.897Z</time></trkpt><trkpt lat="42.197755" lon="14.6237283"><ele>10.200000000000001</ele><time>2026-05-03T07:33:55.898Z</time></trkpt><trkpt lat="42.1977183" lon="14.6238417"><ele>9.8</ele><time>2026-05-03T07:33:57.898Z</time></trkpt><trkpt lat="42.1976867" lon="14.623965"><ele>9.4</ele><time>2026-05-03T07:33:59.898Z</time></trkpt><trkpt lat="42.1976533" lon="14.62408"><ele>9.0</ele><time>2026-05-03T07:34:01.898Z</time></trkpt><trkpt lat="42.1976167" lon="14.6241933"><ele>9.0</ele><time>2026-05-03T07:34:03.898Z</time></trkpt><trkpt lat="42.1975783" lon="14.6243133"><ele>9.0</ele><time>2026-05-03T07:34:05.898Z</time></trkpt><trkpt lat="42.1975383" lon="14.6244333"><ele>9.0</ele><time>2026-05-03T07:34:07.898Z</time></trkpt><trkpt lat="42.1975" lon="14.624545"><ele>9.0</ele><time>2026-05-03T07:34:09.897Z</time></trkpt><trkpt lat="42.1974617" lon="14.62466"><ele>9.0</ele><time>2026-05-03T07:34:11.897Z</time></trkpt><trkpt lat="42.1974233" lon="14.624775"><ele>8.6</ele><time>2026-05-03T07:34:13.897Z</time></trkpt><trkpt lat="42.1973867" lon="14.6248917"><ele>8.2</ele><time>2026-05-03T07:34:15.898Z</time></trkpt><trkpt lat="42.1973417" lon="14.6249967"><ele>7.799999999999999</ele><time>2026-05-03T07:34:17.898Z</time></trkpt><trkpt lat="42.1973017" lon="14.62511"><ele>7.3999999999999995</ele><time>2026-05-03T07:34:19.897Z</time></trkpt><trkpt lat="42.1972617" lon="14.625225"><ele>7.0</ele><time>2026-05-03T07:34:21.897Z</time></trkpt><trkpt lat="42.197225" lon="14.6253433"><ele>7.0</ele><time>2026-05-03T07:34:23.898Z</time></trkpt><trkpt lat="42.1971833" lon="14.625455"><ele>6.999999999999999</ele><time>2026-05-03T07:34:25.898Z</time></trkpt><trkpt lat="42.1971383" lon="14.6255733"><ele>6.999999999999999</ele><time>2026-05-03T07:34:27.898Z</time></trkpt><trkpt lat="42.1970967" lon="14.6256933"><ele>7.0</ele><time>2026-05-03T07:34:29.898Z</time></trkpt><trkpt lat="42.1970567" lon="14.625795"><ele>7.0</ele><time>2026-05-03T07:34:31.897Z</time></trkpt><trkpt lat="42.1970167" lon="14.6259033"><ele>7.0</ele><time>2026-05-03T07:34:33.897Z</time></trkpt><trkpt lat="42.196975" lon="14.6260233"><ele>6.999999999999999</ele><time>2026-05-03T07:34:35.897Z</time></trkpt><trkpt lat="42.1969333" lon="14.62614"><ele>6.999999999999999</ele><time>2026-05-03T07:34:37.898Z</time></trkpt><trkpt lat="42.1968933" lon="14.6262483"><ele>7.0</ele><time>2026-05-03T07:34:39.897Z</time></trkpt><trkpt lat="42.1968517" lon="14.6263617"><ele>7.0</ele><time>2026-05-03T07:34:41.898Z</time></trkpt><trkpt lat="42.1968117" lon="14.62647"><ele>6.0</ele><time>2026-05-03T07:34:43.898Z</time></trkpt><trkpt lat="42.1967567" lon="14.6265917"><ele>4.999999999999999</ele><time>2026-05-03T07:34:45.898Z</time></trkpt><trkpt lat="42.1967133" lon="14.6267017"><ele>4.0</ele><time>2026-05-03T07:34:47.898Z</time></trkpt><trkpt lat="42.1966733" lon="14.6268217"><ele>3.0</ele><time>2026-05-03T07:34:49.898Z</time></trkpt><trkpt lat="42.1966367" lon="14.6269433"><ele>2.0</ele><time>2026-05-03T07:34:51.897Z</time></trkpt><trkpt lat="42.1966017" lon="14.627055"><ele>2.0</ele><time>2026-05-03T07:34:53.897Z</time></trkpt><trkpt lat="42.1965567" lon="14.6271617"><ele>2.0</ele><time>2026-05-03T07:34:55.898Z</time></trkpt><trkpt lat="42.196525" lon="14.62729"><ele>2.0</ele><time>2026-05-03T07:34:57.898Z</time></trkpt><trkpt lat="42.1964833" lon="14.62741"><ele>2.0</ele><time>2026-05-03T07:34:59.897Z</time></trkpt><trkpt lat="42.1964417" lon="14.6275317"><ele>2.0</ele><time>2026-05-03T07:35:01.898Z</time></trkpt><trkpt lat="42.1963983" lon="14.62765"><ele>2.333333333333333</ele><time>2026-05-03T07:35:03.898Z</time></trkpt><trkpt lat="42.1963567" lon="14.6277633"><ele>2.6666666666666665</ele><time>2026-05-03T07:35:05.898Z</time></trkpt><trkpt lat="42.1963167" lon="14.6278717"><ele>3.0</ele><time>2026-05-03T07:35:07.898Z</time></trkpt><trkpt lat="42.1962817" lon="14.627975"><ele>3.333333333333333</ele><time>2026-05-03T07:35:09.898Z</time></trkpt><trkpt lat="42.1962483" lon="14.6280767"><ele>3.6666666666666665</ele><time>2026-05-03T07:35:11.898Z</time></trkpt><trkpt lat="42.1962217" lon="14.62818"><ele>4.0</ele><time>2026-05-03T07:35:13.898Z</time></trkpt><trkpt lat="42.1961883" lon="14.628275"><ele>3.9999999999999996</ele><time>2026-05-03T07:35:15.898Z</time></trkpt><trkpt lat="42.1961483" lon="14.6283633"><ele>4.0</ele><time>2026-05-03T07:35:17.898Z</time></trkpt><trkpt lat="42.1961167" lon="14.6284533"><ele>4.0</ele><time>2026-05-03T07:35:19.898Z</time></trkpt><trkpt lat="42.1960917" lon="14.62855"><ele>4.0</ele><time>2026-05-03T07:35:21.898Z</time></trkpt><trkpt lat="42.1960583" lon="14.6286417"><ele>3.9999999999999996</ele><time>2026-05-03T07:35:23.898Z</time></trkpt><trkpt lat="42.19603" lon="14.62873"><ele>4.0</ele><time>2026-05-03T07:35:25.898Z</time></trkpt><trkpt lat="42.196015" lon="14.628835"><ele>4.0</ele><time>2026-05-03T07:35:27.897Z</time></trkpt><trkpt lat="42.19601" lon="14.6289333"><ele>3.9999999999999996</ele><time>2026-05-03T07:35:29.897Z</time></trkpt><trkpt lat="42.1960117" lon="14.6290367"><ele>4.0</ele><time>2026-05-03T07:35:32.897Z</time></trkpt><trkpt lat="42.1960117" lon="14.629135"><ele>4.0</ele><time>2026-05-03T07:35:36.897Z</time></trkpt><trkpt lat="42.1960067" lon="14.6292233"><ele>3.9999999999999996</ele><time>2026-05-03T07:35:38.898Z</time></trkpt><trkpt lat="42.195985" lon="14.629325"><ele>4.0</ele><time>2026-05-03T07:35:40.898Z</time></trkpt><trkpt lat="42.1959417" lon="14.6294167"><ele>4.0</ele><time>2026-05-03T07:35:42.897Z</time></trkpt><trkpt lat="42.1958967" lon="14.629505"><ele>3.833333333333333</ele><time>2026-05-03T07:35:44.898Z</time></trkpt><trkpt lat="42.1958717" lon="14.6296033"><ele>3.6666666666666665</ele><time>2026-05-03T07:35:46.897Z</time></trkpt><trkpt lat="42.1958517" lon="14.6297033"><ele>3.5</ele><time>2026-05-03T07:35:48.898Z</time></trkpt><trkpt lat="42.19583" lon="14.6298083"><ele>3.333333333333333</ele><time>2026-05-03T07:35:50.898Z</time></trkpt><trkpt lat="42.1958" lon="14.62991"><ele>3.1666666666666665</ele><time>2026-05-03T07:35:52.897Z</time></trkpt><trkpt lat="42.195765" lon="14.6300083"><ele>3.0</ele><time>2026-05-03T07:35:54.898Z</time></trkpt><trkpt lat="42.1957283" lon="14.6301083"><ele>3.0</ele><time>2026-05-03T07:35:56.898Z</time></trkpt><trkpt lat="42.1956983" lon="14.6302083"><ele>3.0</ele><time>2026-05-03T07:35:58.898Z</time></trkpt><trkpt lat="42.19567" lon="14.6303117"><ele>3.0</ele><time>2026-05-03T07:36:00.897Z</time></trkpt><trkpt lat="42.19564" lon="14.6304133"><ele>3.0</ele><time>2026-05-03T07:36:02.898Z</time></trkpt><trkpt lat="42.1956083" lon="14.6305133"><ele>3.0</ele><time>2026-05-03T07:36:04.898Z</time></trkpt><trkpt lat="42.19558" lon="14.6306133"><ele>3.0</ele><time>2026-05-03T07:36:06.898Z</time></trkpt><trkpt lat="42.1955533" lon="14.6307117"><ele>3.1666666666666665</ele><time>2026-05-03T07:36:08.897Z</time></trkpt><trkpt lat="42.1955267" lon="14.630815"><ele>3.333333333333333</ele><time>2026-05-03T07:36:10.898Z</time></trkpt><trkpt lat="42.195495" lon="14.6309183"><ele>3.5</ele><time>2026-05-03T07:36:12.897Z</time></trkpt><trkpt lat="42.19546" lon="14.6310317"><ele>3.6666666666666665</ele><time>2026-05-03T07:36:14.897Z</time></trkpt><trkpt lat="42.195435" lon="14.6311333"><ele>3.833333333333333</ele><time>2026-05-03T07:36:16.897Z</time></trkpt><trkpt lat="42.1954117" lon="14.6312333"><ele>4.0</ele><time>2026-05-03T07:36:18.898Z</time></trkpt><trkpt lat="42.19539" lon="14.6313167"><ele>3.9999999999999996</ele><time>2026-05-03T07:36:20.898Z</time></trkpt><trkpt lat="42.195355" lon="14.63141"><ele>4.0</ele><time>2026-05-03T07:36:22.898Z</time></trkpt><trkpt lat="42.1953117" lon="14.63151"><ele>4.0</ele><time>2026-05-03T07:36:24.898Z</time></trkpt><trkpt lat="42.19527" lon="14.63162"><ele>4.0</ele><time>2026-05-03T07:36:26.898Z</time></trkpt><trkpt lat="42.1952433" lon="14.6317217"><ele>3.9999999999999996</ele><time>2026-05-03T07:36:28.897Z</time></trkpt><trkpt lat="42.1952217" lon="14.6318383"><ele>4.0</ele><time>2026-05-03T07:36:30.898Z</time></trkpt><trkpt lat="42.1952" lon="14.6319567"><ele>4.2</ele><time>2026-05-03T07:36:32.897Z</time></trkpt><trkpt lat="42.1951717" lon="14.63209"><ele>4.4</ele><time>2026-05-03T07:36:34.898Z</time></trkpt><trkpt lat="42.1951283" lon="14.6322183"><ele>4.6</ele><time>2026-05-03T07:36:36.898Z</time></trkpt><trkpt lat="42.1950967" lon="14.63233"><ele>4.8</ele><time>2026-05-03T07:36:38.897Z</time></trkpt><trkpt lat="42.1950583" lon="14.632445"><ele>5.0</ele><time>2026-05-03T07:36:40.898Z</time></trkpt><trkpt lat="42.19503" lon="14.6325583"><ele>5.0</ele><time>2026-05-03T07:36:42.898Z</time></trkpt><trkpt lat="42.1950017" lon="14.6326667"><ele>5.0</ele><time>2026-05-03T07:36:44.897Z</time></trkpt><trkpt lat="42.194965" lon="14.6327717"><ele>5.0</ele><time>2026-05-03T07:36:46.897Z</time></trkpt><trkpt lat="42.1949333" lon="14.6328883"><ele>5.0</ele><time>2026-05-03T07:36:48.898Z</time></trkpt><trkpt lat="42.1949083" lon="14.6329983"><ele>5.0</ele><time>2026-05-03T07:36:50.898Z</time></trkpt><trkpt lat="42.1948817" lon="14.6331117"><ele>5.0</ele><time>2026-05-03T07:36:52.898Z</time></trkpt><trkpt lat="42.19485" lon="14.6332233"><ele>5.166666666666667</ele><time>2026-05-03T07:36:54.898Z</time></trkpt><trkpt lat="42.19482" lon="14.6333417"><ele>5.333333333333334</ele><time>2026-05-03T07:36:56.898Z</time></trkpt><trkpt lat="42.1947933" lon="14.6334483"><ele>5.5</ele><time>2026-05-03T07:36:58.898Z</time></trkpt><trkpt lat="42.19476" lon="14.6335517"><ele>5.666666666666667</ele><time>2026-05-03T07:37:00.898Z</time></trkpt><trkpt lat="42.19473" lon="14.6336633"><ele>5.833333333333333</ele><time>2026-05-03T07:37:02.898Z</time></trkpt><trkpt lat="42.1947017" lon="14.63377"><ele>6.0</ele><time>2026-05-03T07:37:04.898Z</time></trkpt><trkpt lat="42.1946733" lon="14.6338783"><ele>5.666666666666667</ele><time>2026-05-03T07:37:06.898Z</time></trkpt><trkpt lat="42.1946417" lon="14.63398"><ele>5.333333333333333</ele><time>2026-05-03T07:37:08.898Z</time></trkpt><trkpt lat="42.1945983" lon="14.6340533"><ele>5.0</ele><time>2026-05-03T07:37:11.897Z</time></trkpt><trkpt lat="42.1945517" lon="14.6341467"><ele>4.666666666666666</ele><time>2026-05-03T07:37:15.898Z</time></trkpt><trkpt lat="42.1945167" lon="14.6342417"><ele>4.333333333333333</ele><time>2026-05-03T07:37:17.898Z</time></trkpt><trkpt lat="42.1944867" lon="14.63434"><ele>4.0</ele><time>2026-05-03T07:37:19.897Z</time></trkpt><trkpt lat="42.19445" lon="14.634425"><ele>3.714285714285714</ele><time>2026-05-03T07:37:21.898Z</time></trkpt><trkpt lat="42.1944167" lon="14.6345167"><ele>3.428571428571428</ele><time>2026-05-03T07:37:23.898Z</time></trkpt><trkpt lat="42.1943933" lon="14.6346233"><ele>3.142857142857143</ele><time>2026-05-03T07:37:25.898Z</time></trkpt><trkpt lat="42.19436" lon="14.6347083"><ele>2.8571428571428568</ele><time>2026-05-03T07:37:27.898Z</time></trkpt><trkpt lat="42.1943317" lon="14.6347933"><ele>2.571428571428571</ele><time>2026-05-03T07:37:29.898Z</time></trkpt><trkpt lat="42.1943033" lon="14.6348733"><ele>2.2857142857142856</ele><time>2026-05-03T07:37:31.898Z</time></trkpt><trkpt lat="42.1942667" lon="14.63496"><ele>2.0</ele><time>2026-05-03T07:37:33.898Z</time></trkpt><trkpt lat="42.1942367" lon="14.63508"><ele>1.9999999999999998</ele><time>2026-05-03T07:37:35.898Z</time></trkpt><trkpt lat="42.1942133" lon="14.63519"><ele>2.0</ele><time>2026-05-03T07:37:37.897Z</time></trkpt><trkpt lat="42.19419" lon="14.6353067"><ele>2.0</ele><time>2026-05-03T07:37:39.898Z</time></trkpt><trkpt lat="42.1941583" lon="14.6354"><ele>2.0</ele><time>2026-05-03T07:37:41.897Z</time></trkpt><trkpt lat="42.194125" lon="14.6355017"><ele>1.9999999999999998</ele><time>2026-05-03T07:37:43.898Z</time></trkpt><trkpt lat="42.1940967" lon="14.6355867"><ele>2.0</ele><time>2026-05-03T07:37:45.898Z</time></trkpt><trkpt lat="42.194075" lon="14.6356733"><ele>1.9999999999999998</ele><time>2026-05-03T07:37:47.897Z</time></trkpt><trkpt lat="42.1940517" lon="14.6357667"><ele>2.0</ele><time>2026-05-03T07:37:49.897Z</time></trkpt><trkpt lat="42.19401" lon="14.63587"><ele>2.0</ele><time>2026-05-03T07:37:51.898Z</time></trkpt><trkpt lat="42.19398" lon="14.635975"><ele>2.0</ele><time>2026-05-03T07:37:53.897Z</time></trkpt><trkpt lat="42.193955" lon="14.6360883"><ele>1.9999999999999998</ele><time>2026-05-03T07:37:55.898Z</time></trkpt><trkpt lat="42.193935" lon="14.6362267"><ele>2.0</ele><time>2026-05-03T07:37:57.897Z</time></trkpt><trkpt lat="42.1939117" lon="14.6363333"><ele>1.9999999999999998</ele><time>2026-05-03T07:37:59.897Z</time></trkpt><trkpt lat="42.1938767" lon="14.6364217"><ele>2.0</ele><time>2026-05-03T07:38:01.898Z</time></trkpt><trkpt lat="42.193835" lon="14.63652"><ele>2.0</ele><time>2026-05-03T07:38:03.898Z</time></trkpt><trkpt lat="42.193805" lon="14.63663"><ele>2.0</ele><time>2026-05-03T07:38:05.898Z</time></trkpt><trkpt lat="42.19378" lon="14.6367417"><ele>1.9999999999999998</ele><time>2026-05-03T07:38:07.898Z</time></trkpt><trkpt lat="42.19376" lon="14.636855"><ele>2.0</ele><time>2026-05-03T07:38:09.898Z</time></trkpt><trkpt lat="42.1937317" lon="14.636955"><ele>1.8333333333333333</ele><time>2026-05-03T07:38:11.898Z</time></trkpt><trkpt lat="42.1937117" lon="14.637065"><ele>1.6666666666666665</ele><time>2026-05-03T07:38:13.898Z</time></trkpt><trkpt lat="42.193685" lon="14.637165"><ele>1.5</ele><time>2026-05-03T07:38:15.898Z</time></trkpt><trkpt lat="42.1936517" lon="14.6372733"><ele>1.3333333333333333</ele><time>2026-05-03T07:38:17.898Z</time></trkpt><trkpt lat="42.19362" lon="14.6373867"><ele>1.1666666666666665</ele><time>2026-05-03T07:38:19.897Z</time></trkpt><trkpt lat="42.1935833" lon="14.6374967"><ele>1.0</ele><time>2026-05-03T07:38:21.898Z</time></trkpt><trkpt lat="42.1935483" lon="14.63762"><ele>1.0</ele><time>2026-05-03T07:38:23.897Z</time></trkpt><trkpt lat="42.1935033" lon="14.6377417"><ele>1.0</ele><time>2026-05-03T07:38:25.897Z</time></trkpt><trkpt lat="42.1934767" lon="14.6378667"><ele>1.0</ele><time>2026-05-03T07:38:27.898Z</time></trkpt><trkpt lat="42.19345" lon="14.6379783"><ele>1.0</ele><time>2026-05-03T07:38:29.897Z</time></trkpt><trkpt lat="42.193415" lon="14.6380917"><ele>1.0</ele><time>2026-05-03T07:38:31.898Z</time></trkpt><trkpt lat="42.19338" lon="14.6382117"><ele>1.0</ele><time>2026-05-03T07:38:33.898Z</time></trkpt><trkpt lat="42.1933567" lon="14.638325"><ele>1.0</ele><time>2026-05-03T07:38:35.897Z</time></trkpt><trkpt lat="42.1933183" lon="14.6384367"><ele>1.0</ele><time>2026-05-03T07:38:37.898Z</time></trkpt><trkpt lat="42.193285" lon="14.6385383"><ele>1.0</ele><time>2026-05-03T07:38:39.897Z</time></trkpt><trkpt lat="42.1932533" lon="14.6386667"><ele>1.0</ele><time>2026-05-03T07:38:41.898Z</time></trkpt><trkpt lat="42.1932133" lon="14.638795"><ele>1.0</ele><time>2026-05-03T07:38:43.897Z</time></trkpt><trkpt lat="42.19318" lon="14.63893"><ele>1.0</ele><time>2026-05-03T07:38:45.898Z</time></trkpt><trkpt lat="42.19315" lon="14.6390533"><ele>1.0</ele><time>2026-05-03T07:38:47.897Z</time></trkpt><trkpt lat="42.193125" lon="14.639185"><ele>1.0</ele><time>2026-05-03T07:38:49.897Z</time></trkpt><trkpt lat="42.1930983" lon="14.6393117"><ele>1.0</ele><time>2026-05-03T07:38:51.898Z</time></trkpt><trkpt lat="42.1930667" lon="14.63943"><ele>0.6666666666666666</ele><time>2026-05-03T07:38:53.898Z</time></trkpt><trkpt lat="42.19304" lon="14.63954"><ele>0.3333333333333333</ele><time>2026-05-03T07:38:55.898Z</time></trkpt><trkpt lat="42.1930033" lon="14.639645"><ele>0.0</ele><time>2026-05-03T07:38:57.898Z</time></trkpt><trkpt lat="42.19297" lon="14.6397567"><ele>-0.3333333333333333</ele><time>2026-05-03T07:38:59.898Z</time></trkpt><trkpt lat="42.1929433" lon="14.6398567"><ele>-0.6666666666666666</ele><time>2026-05-03T07:39:01.897Z</time></trkpt><trkpt lat="42.192915" lon="14.6399633"><ele>-1.0</ele><time>2026-05-03T07:39:03.898Z</time></trkpt><trkpt lat="42.192885" lon="14.6400817"><ele>-1.0</ele><time>2026-05-03T07:39:05.898Z</time></trkpt><trkpt lat="42.1928567" lon="14.6401917"><ele>-1.0</ele><time>2026-05-03T07:39:07.897Z</time></trkpt><trkpt lat="42.1928267" lon="14.6403"><ele>-1.0</ele><time>2026-05-03T07:39:09.897Z</time></trkpt><trkpt lat="42.1927967" lon="14.6404233"><ele>-1.0</ele><time>2026-05-03T07:39:11.898Z</time></trkpt><trkpt lat="42.1927683" lon="14.6405333"><ele>-1.0</ele><time>2026-05-03T07:39:13.898Z</time></trkpt><trkpt lat="42.1927417" lon="14.6406567"><ele>-0.8333333333333333</ele><time>2026-05-03T07:39:15.898Z</time></trkpt><trkpt lat="42.1927117" lon="14.6407667"><ele>-0.6666666666666666</ele><time>2026-05-03T07:39:17.898Z</time></trkpt><trkpt lat="42.19269" lon="14.6408883"><ele>-0.5</ele><time>2026-05-03T07:39:19.898Z</time></trkpt><trkpt lat="42.19267" lon="14.6409983"><ele>-0.3333333333333333</ele><time>2026-05-03T07:39:21.898Z</time></trkpt><trkpt lat="42.19265" lon="14.6411133"><ele>-0.16666666666666666</ele><time>2026-05-03T07:39:23.898Z</time></trkpt><trkpt lat="42.1926267" lon="14.641215"><ele>0.0</ele><time>2026-05-03T07:39:25.898Z</time></trkpt><trkpt lat="42.1925983" lon="14.6413267"><ele>0.0</ele><time>2026-05-03T07:39:27.898Z</time></trkpt><trkpt lat="42.1925683" lon="14.6414483"><ele>0.0</ele><time>2026-05-03T07:39:29.897Z</time></trkpt><trkpt lat="42.1925433" lon="14.64157"><ele>0.0</ele><time>2026-05-03T07:39:31.897Z</time></trkpt><trkpt lat="42.1925183" lon="14.641675"><ele>0.0</ele><time>2026-05-03T07:39:33.898Z</time></trkpt><trkpt lat="42.19249" lon="14.64179"><ele>0.0</ele><time>2026-05-03T07:39:35.897Z</time></trkpt><trkpt lat="42.19246" lon="14.6419017"><ele>0.0</ele><time>2026-05-03T07:39:37.898Z</time></trkpt><trkpt lat="42.19243" lon="14.6420183"><ele>0.0</ele><time>2026-05-03T07:39:39.898Z</time></trkpt><trkpt lat="42.1924017" lon="14.64213"><ele>0.0</ele><time>2026-05-03T07:39:41.897Z</time></trkpt><trkpt lat="42.1923783" lon="14.6422333"><ele>0.0</ele><time>2026-05-03T07:39:43.898Z</time></trkpt><trkpt lat="42.1923517" lon="14.6423467"><ele>0.0</ele><time>2026-05-03T07:39:45.898Z</time></trkpt><trkpt lat="42.192305" lon="14.6424533"><ele>0.0</ele><time>2026-05-03T07:39:47.898Z</time></trkpt><trkpt lat="42.1922417" lon="14.642535"><ele>0.0</ele><time>2026-05-03T07:39:49.898Z</time></trkpt><trkpt lat="42.1921733" lon="14.6426117"><ele>0.0</ele><time>2026-05-03T07:39:51.898Z</time></trkpt><trkpt lat="42.192115" lon="14.6426833"><ele>0.0</ele><time>2026-05-03T07:39:53.898Z</time></trkpt><trkpt lat="42.192055" lon="14.6427683"><ele>0.0</ele><time>2026-05-03T07:39:55.898Z</time></trkpt><trkpt lat="42.192" lon="14.6428433"><ele>0.0</ele><time>2026-05-03T07:39:57.898Z</time></trkpt><trkpt lat="42.1919433" lon="14.6429283"><ele>0.0</ele><time>2026-05-03T07:39:59.898Z</time></trkpt><trkpt lat="42.1918833" lon="14.6430133"><ele>0.0</ele><time>2026-05-03T07:40:01.897Z</time></trkpt><trkpt lat="42.1918217" lon="14.64309"><ele>0.0</ele><time>2026-05-03T07:40:03.897Z</time></trkpt><trkpt lat="42.1917583" lon="14.6431517"><ele>0.0</ele><time>2026-05-03T07:40:05.898Z</time></trkpt><trkpt lat="42.1917017" lon="14.64321"><ele>0.0</ele><time>2026-05-03T07:40:07.898Z</time></trkpt><trkpt lat="42.1916383" lon="14.643265"><ele>0.0</ele><time>2026-05-03T07:40:09.898Z</time></trkpt><trkpt lat="42.1915733" lon="14.6433183"><ele>0.0</ele><time>2026-05-03T07:40:11.898Z</time></trkpt><trkpt lat="42.1915267" lon="14.6433933"><ele>0.0</ele><time>2026-05-03T07:40:13.898Z</time></trkpt><trkpt lat="42.1914733" lon="14.643475"><ele>0.3333333333333333</ele><time>2026-05-03T07:40:15.897Z</time></trkpt><trkpt lat="42.19143" lon="14.6435567"><ele>0.6666666666666666</ele><time>2026-05-03T07:40:17.898Z</time></trkpt><trkpt lat="42.191385" lon="14.64364"><ele>1.0</ele><time>2026-05-03T07:40:19.898Z</time></trkpt><trkpt lat="42.1913367" lon="14.6437183"><ele>1.3333333333333333</ele><time>2026-05-03T07:40:21.898Z</time></trkpt><trkpt lat="42.19129" lon="14.6438133"><ele>1.6666666666666665</ele><time>2026-05-03T07:40:23.898Z</time></trkpt><trkpt lat="42.1912483" lon="14.64391"><ele>2.0</ele><time>2026-05-03T07:40:25.898Z</time></trkpt><trkpt lat="42.191205" lon="14.6439917"><ele>1.9999999999999998</ele><time>2026-05-03T07:40:27.898Z</time></trkpt><trkpt lat="42.1911617" lon="14.64406"><ele>2.0</ele><time>2026-05-03T07:40:29.898Z</time></trkpt><trkpt lat="42.1911083" lon="14.6441433"><ele>2.0</ele><time>2026-05-03T07:40:31.898Z</time></trkpt><trkpt lat="42.19106" lon="14.64422"><ele>2.0</ele><time>2026-05-03T07:40:33.898Z</time></trkpt><trkpt lat="42.191005" lon="14.6442933"><ele>1.9999999999999998</ele><time>2026-05-03T07:40:35.898Z</time></trkpt><trkpt lat="42.1909383" lon="14.6443517"><ele>2.0</ele><time>2026-05-03T07:40:37.898Z</time></trkpt><trkpt lat="42.190865" lon="14.64439"><ele>2.0</ele><time>2026-05-03T07:40:39.898Z</time></trkpt><trkpt lat="42.1907917" lon="14.6444033"><ele>1.9999999999999998</ele><time>2026-05-03T07:40:41.897Z</time></trkpt><trkpt lat="42.1907183" lon="14.6444233"><ele>2.0</ele><time>2026-05-03T07:40:43.898Z</time></trkpt><trkpt lat="42.1906483" lon="14.64444"><ele>2.0</ele><time>2026-05-03T07:40:45.898Z</time></trkpt><trkpt lat="42.1905833" lon="14.6444567"><ele>1.9999999999999998</ele><time>2026-05-03T07:40:47.897Z</time></trkpt><trkpt lat="42.1905067" lon="14.6444833"><ele>2.0</ele><time>2026-05-03T07:40:49.898Z</time></trkpt><trkpt lat="42.19043" lon="14.64451"><ele>2.0</ele><time>2026-05-03T07:40:51.897Z</time></trkpt><trkpt lat="42.1903633" lon="14.644535"><ele>2.142857142857143</ele><time>2026-05-03T07:40:53.897Z</time></trkpt><trkpt lat="42.1902967" lon="14.644565"><ele>2.2857142857142856</ele><time>2026-05-03T07:40:55.898Z</time></trkpt><trkpt lat="42.1902417" lon="14.6446067"><ele>2.4285714285714284</ele><time>2026-05-03T07:40:57.898Z</time></trkpt><trkpt lat="42.19019" lon="14.6446983"><ele>2.571428571428571</ele><time>2026-05-03T07:41:00.897Z</time></trkpt><trkpt lat="42.19017" lon="14.6447817"><ele>2.7142857142857144</ele><time>2026-05-03T07:41:02.897Z</time></trkpt><trkpt lat="42.1901433" lon="14.64486"><ele>2.8571428571428568</ele><time>2026-05-03T07:41:04.897Z</time></trkpt><trkpt lat="42.1901083" lon="14.64494"><ele>3.0</ele><time>2026-05-03T07:41:06.897Z</time></trkpt><trkpt lat="42.1900817" lon="14.6450417"><ele>2.9999999999999996</ele><time>2026-05-03T07:41:08.898Z</time></trkpt><trkpt lat="42.1900533" lon="14.6451233"><ele>3.0</ele><time>2026-05-03T07:41:10.898Z</time></trkpt><trkpt lat="42.1900183" lon="14.64523"><ele>3.0</ele><time>2026-05-03T07:41:13.897Z</time></trkpt><trkpt lat="42.1899833" lon="14.6453167"><ele>3.0</ele><time>2026-05-03T07:41:16.898Z</time></trkpt><trkpt lat="42.1899417" lon="14.6454033"><ele>3.0</ele><time>2026-05-03T07:41:19.898Z</time></trkpt><trkpt lat="42.1899067" lon="14.6454833"><ele>2.9999999999999996</ele><time>2026-05-03T07:41:22.897Z</time></trkpt><trkpt lat="42.1898683" lon="14.6455667"><ele>3.0</ele><time>2026-05-03T07:41:25.898Z</time></trkpt><trkpt lat="42.1898417" lon="14.6456533"><ele>2.9999999999999996</ele><time>2026-05-03T07:41:28.898Z</time></trkpt><trkpt lat="42.18981" lon="14.6457517"><ele>3.0</ele><time>2026-05-03T07:41:31.898Z</time></trkpt><trkpt lat="42.1897783" lon="14.6458367"><ele>3.0</ele><time>2026-05-03T07:41:34.898Z</time></trkpt><trkpt lat="42.1897533" lon="14.6459267"><ele>3.0</ele><time>2026-05-03T07:41:37.898Z</time></trkpt><trkpt lat="42.1897567" lon="14.6460133"><ele>3.0</ele><time>2026-05-03T07:41:40.898Z</time></trkpt><trkpt lat="42.189755" lon="14.6461083"><ele>2.9999999999999996</ele><time>2026-05-03T07:41:43.898Z</time></trkpt><trkpt lat="42.1897383" lon="14.6462067"><ele>3.0</ele><time>2026-05-03T07:41:46.897Z</time></trkpt><trkpt lat="42.1897283" lon="14.6463133"><ele>3.3333333333333335</ele><time>2026-05-03T07:41:49.898Z</time></trkpt><trkpt lat="42.18973" lon="14.6464233"><ele>3.666666666666667</ele><time>2026-05-03T07:41:52.898Z</time></trkpt><trkpt lat="42.18971" lon="14.6465333"><ele>4.0</ele><time>2026-05-03T07:41:55.897Z</time></trkpt><trkpt lat="42.189705" lon="14.64665"><ele>4.333333333333334</ele><time>2026-05-03T07:41:58.898Z</time></trkpt><trkpt lat="42.189695" lon="14.64677"><ele>4.666666666666667</ele><time>2026-05-03T07:42:01.898Z</time></trkpt><trkpt lat="42.1897017" lon="14.6468567"><ele>5.0</ele><time>2026-05-03T07:42:03.898Z</time></trkpt><trkpt lat="42.1897033" lon="14.6469433"><ele>4.833333333333334</ele><time>2026-05-03T07:42:05.898Z</time></trkpt><trkpt lat="42.1897067" lon="14.64705"><ele>4.666666666666667</ele><time>2026-05-03T07:42:07.898Z</time></trkpt><trkpt lat="42.1897017" lon="14.6471467"><ele>4.5</ele><time>2026-05-03T07:42:09.898Z</time></trkpt><trkpt lat="42.189705" lon="14.6472367"><ele>4.333333333333333</ele><time>2026-05-03T07:42:11.898Z</time></trkpt><trkpt lat="42.1897033" lon="14.6473667"><ele>4.166666666666666</ele><time>2026-05-03T07:42:14.897Z</time></trkpt><trkpt lat="42.1897017" lon="14.6474683"><ele>4.0</ele><time>2026-05-03T07:42:16.898Z</time></trkpt><trkpt lat="42.1896967" lon="14.6475667"><ele>4.0</ele><time>2026-05-03T07:42:18.898Z</time></trkpt><trkpt lat="42.1896883" lon="14.6476583"><ele>3.9999999999999996</ele><time>2026-05-03T07:42:20.898Z</time></trkpt><trkpt lat="42.1896883" lon="14.6477533"><ele>4.0</ele><time>2026-05-03T07:42:22.898Z</time></trkpt><trkpt lat="42.189685" lon="14.6478383"><ele>4.0</ele><time>2026-05-03T07:42:24.898Z</time></trkpt><trkpt lat="42.18968" lon="14.6479317"><ele>3.9999999999999996</ele><time>2026-05-03T07:42:26.898Z</time></trkpt><trkpt lat="42.1896817" lon="14.648025"><ele>4.0</ele><time>2026-05-03T07:42:28.898Z</time></trkpt><trkpt lat="42.1896817" lon="14.648115"><ele>4.0</ele><time>2026-05-03T07:42:30.897Z</time></trkpt><trkpt lat="42.1896767" lon="14.648205"><ele>4.5</ele><time>2026-05-03T07:42:32.898Z</time></trkpt><trkpt lat="42.1896517" lon="14.6482917"><ele>5.0</ele><time>2026-05-03T07:42:35.898Z</time></trkpt><trkpt lat="42.1896183" lon="14.648375"><ele>5.5</ele><time>2026-05-03T07:42:37.898Z</time></trkpt><trkpt lat="42.1895967" lon="14.6484617"><ele>6.0</ele><time>2026-05-03T07:42:39.897Z</time></trkpt><trkpt lat="42.1895767" lon="14.6485817"><ele>6.500000000000001</ele><time>2026-05-03T07:42:42.898Z</time></trkpt><trkpt lat="42.189555" lon="14.6486883"><ele>7.0</ele><time>2026-05-03T07:42:44.898Z</time></trkpt><trkpt lat="42.1895367" lon="14.648805"><ele>7.571428571428571</ele><time>2026-05-03T07:42:46.898Z</time></trkpt><trkpt lat="42.18953" lon="14.6489167"><ele>8.142857142857142</ele><time>2026-05-03T07:42:48.898Z</time></trkpt><trkpt lat="42.1895133" lon="14.6490233"><ele>8.714285714285715</ele><time>2026-05-03T07:42:50.898Z</time></trkpt><trkpt lat="42.1894483" lon="14.6490633"><ele>9.285714285714285</ele><time>2026-05-03T07:42:54.897Z</time></trkpt><trkpt lat="42.1894433" lon="14.648965"><ele>9.857142857142858</ele><time>2026-05-03T07:42:57.898Z</time></trkpt><trkpt lat="42.1894717" lon="14.6488867"><ele>10.428571428571429</ele><time>2026-05-03T07:42:59.898Z</time></trkpt><trkpt lat="42.1894833" lon="14.6487983"><ele>11.0</ele><time>2026-05-03T07:43:01.898Z</time></trkpt><trkpt lat="42.1894967" lon="14.6487133"><ele>11.0</ele><time>2026-05-03T07:43:03.898Z</time></trkpt><trkpt lat="42.1895133" lon="14.6486267"><ele>11.0</ele><time>2026-05-03T07:43:05.898Z</time></trkpt><trkpt lat="42.1895117" lon="14.6485267"><ele>11.0</ele><time>2026-05-03T07:43:07.897Z</time></trkpt><trkpt lat="42.1895033" lon="14.648415"><ele>11.0</ele><time>2026-05-03T07:43:09.897Z</time></trkpt><trkpt lat="42.18949" lon="14.6483"><ele>11.0</ele><time>2026-05-03T07:43:11.898Z</time></trkpt><trkpt lat="42.1894817" lon="14.6481867"><ele>11.0</ele><time>2026-05-03T07:43:13.898Z</time></trkpt><trkpt lat="42.1894683" lon="14.6480717"><ele>10.428571428571429</ele><time>2026-05-03T07:43:15.898Z</time></trkpt><trkpt lat="42.1894217" lon="14.6480033"><ele>9.857142857142858</ele><time>2026-05-03T07:43:18.897Z</time></trkpt><trkpt lat="42.1893567" lon="14.6479583"><ele>9.285714285714285</ele><time>2026-05-03T07:43:21.898Z</time></trkpt><trkpt lat="42.1892783" lon="14.6479067"><ele>8.714285714285715</ele><time>2026-05-03T07:43:24.897Z</time></trkpt><trkpt lat="42.189215" lon="14.6478983"><ele>8.142857142857142</ele><time>2026-05-03T07:43:26.897Z</time></trkpt><trkpt lat="42.1891483" lon="14.647905"><ele>7.571428571428571</ele><time>2026-05-03T07:43:28.898Z</time></trkpt><trkpt lat="42.1890767" lon="14.647905"><ele>7.0</ele><time>2026-05-03T07:43:30.898Z</time></trkpt><trkpt lat="42.18901" lon="14.647905"><ele>7.000000000000001</ele><time>2026-05-03T07:43:32.898Z</time></trkpt><trkpt lat="42.1889233" lon="14.64789"><ele>7.0</ele><time>2026-05-03T07:43:35.898Z</time></trkpt><trkpt lat="42.1888433" lon="14.6478517"><ele>7.0</ele><time>2026-05-03T07:43:38.897Z</time></trkpt><trkpt lat="42.1887817" lon="14.6478283"><ele>7.0</ele><time>2026-05-03T07:43:40.897Z</time></trkpt><trkpt lat="42.1887183" lon="14.647815"><ele>7.000000000000001</ele><time>2026-05-03T07:43:42.898Z</time></trkpt><trkpt lat="42.1886417" lon="14.647795"><ele>7.0</ele><time>2026-05-03T07:43:45.898Z</time></trkpt><trkpt lat="42.18856" lon="14.6478183"><ele>7.000000000000001</ele><time>2026-05-03T07:43:48.898Z</time></trkpt><trkpt lat="42.18849" lon="14.6478283"><ele>7.0</ele><time>2026-05-03T07:43:50.897Z</time></trkpt><trkpt lat="42.1884117" lon="14.6478383"><ele>7.0</ele><time>2026-05-03T07:43:52.898Z</time></trkpt><trkpt lat="42.1883417" lon="14.6478467"><ele>7.0</ele><time>2026-05-03T07:43:54.898Z</time></trkpt><trkpt lat="42.1882533" lon="14.6478567"><ele>7.000000000000001</ele><time>2026-05-03T07:43:57.898Z</time></trkpt><trkpt lat="42.188175" lon="14.647875"><ele>7.0</ele><time>2026-05-03T07:44:00.898Z</time></trkpt><trkpt lat="42.1881" lon="14.6478983"><ele>6.500000000000001</ele><time>2026-05-03T07:44:03.897Z</time></trkpt><trkpt lat="42.188025" lon="14.6479167"><ele>6.0</ele><time>2026-05-03T07:44:06.898Z</time></trkpt><trkpt lat="42.18794" lon="14.64793"><ele>5.5</ele><time>2026-05-03T07:44:09.898Z</time></trkpt><trkpt lat="42.18785" lon="14.6479517"><ele>5.0</ele><time>2026-05-03T07:44:12.898Z</time></trkpt><trkpt lat="42.187765" lon="14.6479533"><ele>4.5</ele><time>2026-05-03T07:44:15.898Z</time></trkpt><trkpt lat="42.1876883" lon="14.64795"><ele>4.0</ele><time>2026-05-03T07:44:18.897Z</time></trkpt><trkpt lat="42.1876" lon="14.6479783"><ele>3.9999999999999996</ele><time>2026-05-03T07:44:21.898Z</time></trkpt><trkpt lat="42.1875133" lon="14.6480183"><ele>4.0</ele><time>2026-05-03T07:44:24.897Z</time></trkpt><trkpt lat="42.187445" lon="14.6480433"><ele>4.0</ele><time>2026-05-03T07:44:26.898Z</time></trkpt><trkpt lat="42.1873733" lon="14.6480683"><ele>4.0</ele><time>2026-05-03T07:44:28.897Z</time></trkpt><trkpt lat="42.1873" lon="14.648085"><ele>3.9999999999999996</ele><time>2026-05-03T07:44:30.898Z</time></trkpt><trkpt lat="42.1872283" lon="14.6481067"><ele>4.0</ele><time>2026-05-03T07:44:32.898Z</time></trkpt><trkpt lat="42.187155" lon="14.648135"><ele>3.9999999999999996</ele><time>2026-05-03T07:44:34.898Z</time></trkpt><trkpt lat="42.1870733" lon="14.648155"><ele>4.0</ele><time>2026-05-03T07:44:36.897Z</time></trkpt><trkpt lat="42.187005" lon="14.6481617"><ele>4.0</ele><time>2026-05-03T07:44:38.897Z</time></trkpt><trkpt lat="42.1869417" lon="14.6481883"><ele>4.0</ele><time>2026-05-03T07:44:40.897Z</time></trkpt><trkpt lat="42.1868767" lon="14.6482333"><ele>3.9999999999999996</ele><time>2026-05-03T07:44:42.898Z</time></trkpt><trkpt lat="42.1868017" lon="14.648275"><ele>4.0</ele><time>2026-05-03T07:44:44.898Z</time></trkpt><trkpt lat="42.1867217" lon="14.64831"><ele>3.9999999999999996</ele><time>2026-05-03T07:44:46.897Z</time></trkpt><trkpt lat="42.1866467" lon="14.6483383"><ele>4.0</ele><time>2026-05-03T07:44:48.898Z</time></trkpt><trkpt lat="42.18658" lon="14.64837"><ele>4.0</ele><time>2026-05-03T07:44:50.897Z</time></trkpt><trkpt lat="42.186515" lon="14.6484017"><ele>4.0</ele><time>2026-05-03T07:44:52.898Z</time></trkpt><trkpt lat="42.1864333" lon="14.648445"><ele>3.9999999999999996</ele><time>2026-05-03T07:44:55.898Z</time></trkpt><trkpt lat="42.1863517" lon="14.6484817"><ele>4.0</ele><time>2026-05-03T07:44:58.898Z</time></trkpt><trkpt lat="42.1862817" lon="14.6485333"><ele>3.833333333333333</ele><time>2026-05-03T07:45:01.898Z</time></trkpt><trkpt lat="42.1862233" lon="14.6485767"><ele>3.6666666666666665</ele><time>2026-05-03T07:45:03.898Z</time></trkpt><trkpt lat="42.18615" lon="14.6486133"><ele>3.5</ele><time>2026-05-03T07:45:05.897Z</time></trkpt><trkpt lat="42.1860783" lon="14.64867"><ele>3.333333333333333</ele><time>2026-05-03T07:45:07.898Z</time></trkpt><trkpt lat="42.1860167" lon="14.64873"><ele>3.1666666666666665</ele><time>2026-05-03T07:45:09.898Z</time></trkpt><trkpt lat="42.185935" lon="14.6487867"><ele>3.0</ele><time>2026-05-03T07:45:12.897Z</time></trkpt><trkpt lat="42.1858767" lon="14.6488317"><ele>3.5</ele><time>2026-05-03T07:45:14.897Z</time></trkpt><trkpt lat="42.18581" lon="14.6488767"><ele>4.0</ele><time>2026-05-03T07:45:16.897Z</time></trkpt><trkpt lat="42.1857467" lon="14.6489233"><ele>4.5</ele><time>2026-05-03T07:45:18.898Z</time></trkpt><trkpt lat="42.185685" lon="14.6489617"><ele>5.0</ele><time>2026-05-03T07:45:20.897Z</time></trkpt><trkpt lat="42.1856167" lon="14.6490183"><ele>5.5</ele><time>2026-05-03T07:45:22.898Z</time></trkpt><trkpt lat="42.1855467" lon="14.649055"><ele>6.0</ele><time>2026-05-03T07:45:24.897Z</time></trkpt><trkpt lat="42.1854683" lon="14.6491133"><ele>5.999999999999999</ele><time>2026-05-03T07:45:27.898Z</time></trkpt><trkpt lat="42.1854067" lon="14.6491917"><ele>6.0</ele><time>2026-05-03T07:45:30.897Z</time></trkpt><trkpt lat="42.185345" lon="14.6492517"><ele>6.0</ele><time>2026-05-03T07:45:34.898Z</time></trkpt><trkpt lat="42.1852967" lon="14.6493167"><ele>6.0</ele><time>2026-05-03T07:46:08.897Z</time></trkpt><trkpt lat="42.1852383" lon="14.6493683"><ele>6.0</ele><time>2026-05-03T07:46:11.898Z</time></trkpt><trkpt lat="42.1851817" lon="14.649415"><ele>5.999999999999999</ele><time>2026-05-03T07:46:14.897Z</time></trkpt><trkpt lat="42.1851317" lon="14.64947"><ele>6.0</ele><time>2026-05-03T07:46:16.898Z</time></trkpt><trkpt lat="42.185055" lon="14.6495433"><ele>6.0</ele><time>2026-05-03T07:46:19.897Z</time></trkpt><trkpt lat="42.1850117" lon="14.649605"><ele>6.0</ele><time>2026-05-03T07:46:21.897Z</time></trkpt><trkpt lat="42.1849633" lon="14.6496667"><ele>6.0</ele><time>2026-05-03T07:46:23.898Z</time></trkpt><trkpt lat="42.18489" lon="14.6497467"><ele>6.0</ele><time>2026-05-03T07:46:26.898Z</time></trkpt><trkpt lat="42.184825" lon="14.6498333"><ele>6.0</ele><time>2026-05-03T07:46:29.897Z</time></trkpt><trkpt lat="42.1847533" lon="14.64991"><ele>6.0</ele><time>2026-05-03T07:46:32.898Z</time></trkpt><trkpt lat="42.184685" lon="14.64999"><ele>6.0</ele><time>2026-05-03T07:46:35.897Z</time></trkpt><trkpt lat="42.184615" lon="14.6500717"><ele>6.0</ele><time>2026-05-03T07:46:38.897Z</time></trkpt><trkpt lat="42.1845417" lon="14.650145"><ele>6.0</ele><time>2026-05-03T07:46:41.898Z</time></trkpt><trkpt lat="42.1844917" lon="14.6502033"><ele>6.0</ele><time>2026-05-03T07:46:43.898Z</time></trkpt><trkpt lat="42.1844333" lon="14.6502617"><ele>6.0</ele><time>2026-05-03T07:46:45.898Z</time></trkpt><trkpt lat="42.184375" lon="14.6503117"><ele>6.0</ele><time>2026-05-03T07:46:47.898Z</time></trkpt><trkpt lat="42.18432" lon="14.650355"><ele>5.666666666666667</ele><time>2026-05-03T07:46:49.898Z</time></trkpt><trkpt lat="42.1842583" lon="14.650405"><ele>5.333333333333333</ele><time>2026-05-03T07:46:51.897Z</time></trkpt><trkpt lat="42.1842" lon="14.650455"><ele>5.0</ele><time>2026-05-03T07:46:53.898Z</time></trkpt><trkpt lat="42.1841417" lon="14.6505067"><ele>4.666666666666666</ele><time>2026-05-03T07:46:55.898Z</time></trkpt><trkpt lat="42.1840583" lon="14.6505817"><ele>4.333333333333333</ele><time>2026-05-03T07:46:58.897Z</time></trkpt><trkpt lat="42.1839967" lon="14.6506383"><ele>4.0</ele><time>2026-05-03T07:47:00.897Z</time></trkpt><trkpt lat="42.18394" lon="14.6506883"><ele>4.0</ele><time>2026-05-03T07:47:02.897Z</time></trkpt><trkpt lat="42.1838783" lon="14.6507467"><ele>3.9999999999999996</ele><time>2026-05-03T07:47:04.898Z</time></trkpt><trkpt lat="42.18382" lon="14.6507983"><ele>4.0</ele><time>2026-05-03T07:47:06.898Z</time></trkpt><trkpt lat="42.183755" lon="14.6508467"><ele>4.0</ele><time>2026-05-03T07:47:08.898Z</time></trkpt><trkpt lat="42.183695" lon="14.6509017"><ele>3.9999999999999996</ele><time>2026-05-03T07:47:10.898Z</time></trkpt><trkpt lat="42.183635" lon="14.6509567"><ele>4.0</ele><time>2026-05-03T07:47:12.898Z</time></trkpt><trkpt lat="42.18358" lon="14.651"><ele>4.0</ele><time>2026-05-03T07:47:14.898Z</time></trkpt><trkpt lat="42.1834983" lon="14.6510483"><ele>3.9999999999999996</ele><time>2026-05-03T07:47:17.897Z</time></trkpt><trkpt lat="42.18341" lon="14.6510933"><ele>4.0</ele><time>2026-05-03T07:47:20.897Z</time></trkpt><trkpt lat="42.1833433" lon="14.6511333"><ele>4.0</ele><time>2026-05-03T07:47:22.897Z</time></trkpt><trkpt lat="42.1832733" lon="14.6511683"><ele>4.0</ele><time>2026-05-03T07:47:24.898Z</time></trkpt><trkpt lat="42.1832117" lon="14.6512067"><ele>3.9999999999999996</ele><time>2026-05-03T07:47:26.898Z</time></trkpt><trkpt lat="42.1831383" lon="14.651255"><ele>4.0</ele><time>2026-05-03T07:47:29.898Z</time></trkpt><trkpt lat="42.18306" lon="14.65131"><ele>5.166666666666666</ele><time>2026-05-03T07:47:32.897Z</time></trkpt><trkpt lat="42.1829983" lon="14.6513383"><ele>6.333333333333333</ele><time>2026-05-03T07:47:34.897Z</time></trkpt><trkpt lat="42.1829117" lon="14.65138"><ele>7.5</ele><time>2026-05-03T07:47:37.898Z</time></trkpt><trkpt lat="42.182835" lon="14.6513967"><ele>8.666666666666666</ele><time>2026-05-03T07:47:39.898Z</time></trkpt><trkpt lat="42.1827667" lon="14.651415"><ele>9.833333333333332</ele><time>2026-05-03T07:47:41.898Z</time></trkpt><trkpt lat="42.1827" lon="14.6514383"><ele>11.0</ele><time>2026-05-03T07:47:43.898Z</time></trkpt><trkpt lat="42.182605" lon="14.651465"><ele>11.0</ele><time>2026-05-03T07:47:46.898Z</time></trkpt><trkpt lat="42.18253" lon="14.6514817"><ele>11.0</ele><time>2026-05-03T07:47:48.897Z</time></trkpt><trkpt lat="42.1824567" lon="14.65149"><ele>11.0</ele><time>2026-05-03T07:47:50.898Z</time></trkpt><trkpt lat="42.18238" lon="14.6515117"><ele>11.0</ele><time>2026-05-03T07:47:52.898Z</time></trkpt><trkpt lat="42.1823" lon="14.6515317"><ele>11.0</ele><time>2026-05-03T07:47:54.898Z</time></trkpt><trkpt lat="42.1822117" lon="14.6515433"><ele>11.0</ele><time>2026-05-03T07:47:56.898Z</time></trkpt><trkpt lat="42.182125" lon="14.6515583"><ele>11.428571428571429</ele><time>2026-05-03T07:47:58.898Z</time></trkpt><trkpt lat="42.1820483" lon="14.65155"><ele>11.857142857142858</ele><time>2026-05-03T07:48:00.898Z</time></trkpt><trkpt lat="42.1819783" lon="14.6515417"><ele>12.285714285714285</ele><time>2026-05-03T07:48:02.897Z</time></trkpt><trkpt lat="42.18191" lon="14.651525"><ele>12.714285714285715</ele><time>2026-05-03T07:48:04.898Z</time></trkpt><trkpt lat="42.18184" lon="14.6514917"><ele>13.142857142857142</ele><time>2026-05-03T07:48:06.898Z</time></trkpt><trkpt lat="42.1817667" lon="14.6514667"><ele>13.571428571428571</ele><time>2026-05-03T07:48:08.897Z</time></trkpt><trkpt lat="42.181695" lon="14.6514517"><ele>14.0</ele><time>2026-05-03T07:48:10.898Z</time></trkpt><trkpt lat="42.18162" lon="14.6514367"><ele>14.000000000000002</ele><time>2026-05-03T07:48:12.897Z</time></trkpt><trkpt lat="42.181555" lon="14.65142"><ele>14.0</ele><time>2026-05-03T07:48:14.898Z</time></trkpt><trkpt lat="42.1814833" lon="14.6513883"><ele>14.0</ele><time>2026-05-03T07:48:16.898Z</time></trkpt><trkpt lat="42.181395" lon="14.65136"><ele>14.0</ele><time>2026-05-03T07:48:18.898Z</time></trkpt><trkpt lat="42.18131" lon="14.6513283"><ele>14.000000000000002</ele><time>2026-05-03T07:48:20.898Z</time></trkpt><trkpt lat="42.18123" lon="14.6512983"><ele>14.0</ele><time>2026-05-03T07:48:22.898Z</time></trkpt><trkpt lat="42.181155" lon="14.651275"><ele>14.166666666666668</ele><time>2026-05-03T07:48:24.897Z</time></trkpt><trkpt lat="42.1810783" lon="14.651255"><ele>14.333333333333334</ele><time>2026-05-03T07:48:26.898Z</time></trkpt><trkpt lat="42.1810017" lon="14.6512067"><ele>14.5</ele><time>2026-05-03T07:48:28.898Z</time></trkpt><trkpt lat="42.180925" lon="14.6511567"><ele>14.666666666666668</ele><time>2026-05-03T07:48:30.897Z</time></trkpt><trkpt lat="42.1808533" lon="14.65109"><ele>14.833333333333334</ele><time>2026-05-03T07:48:32.898Z</time></trkpt><trkpt lat="42.1807833" lon="14.65102"><ele>15.0</ele><time>2026-05-03T07:48:34.898Z</time></trkpt><trkpt lat="42.18071" lon="14.65094"><ele>14.0</ele><time>2026-05-03T07:48:36.898Z</time></trkpt><trkpt lat="42.1806317" lon="14.6508633"><ele>13.0</ele><time>2026-05-03T07:48:38.897Z</time></trkpt><trkpt lat="42.1805517" lon="14.6508"><ele>12.0</ele><time>2026-05-03T07:48:40.897Z</time></trkpt><trkpt lat="42.1804833" lon="14.650725"><ele>11.0</ele><time>2026-05-03T07:48:42.897Z</time></trkpt><trkpt lat="42.1804283" lon="14.6506467"><ele>10.0</ele><time>2026-05-03T07:48:44.898Z</time></trkpt><trkpt lat="42.1803817" lon="14.650555"><ele>9.0</ele><time>2026-05-03T07:48:46.898Z</time></trkpt><trkpt lat="42.1803317" lon="14.6504567"><ele>9.0</ele><time>2026-05-03T07:48:48.898Z</time></trkpt><trkpt lat="42.1802733" lon="14.650385"><ele>9.0</ele><time>2026-05-03T07:48:50.897Z</time></trkpt><trkpt lat="42.18022" lon="14.6502967"><ele>9.0</ele><time>2026-05-03T07:48:52.898Z</time></trkpt><trkpt lat="42.1801683" lon="14.6502067"><ele>9.0</ele><time>2026-05-03T07:48:54.898Z</time></trkpt><trkpt lat="42.18012" lon="14.6501267"><ele>9.0</ele><time>2026-05-03T07:48:56.898Z</time></trkpt><trkpt lat="42.1800683" lon="14.65004"><ele>9.0</ele><time>2026-05-03T07:48:58.898Z</time></trkpt><trkpt lat="42.1800067" lon="14.6499567"><ele>9.0</ele><time>2026-05-03T07:49:00.898Z</time></trkpt><trkpt lat="42.1799533" lon="14.649875"><ele>9.0</ele><time>2026-05-03T07:49:02.898Z</time></trkpt><trkpt lat="42.1799017" lon="14.64979"><ele>9.0</ele><time>2026-05-03T07:49:04.897Z</time></trkpt><trkpt lat="42.17985" lon="14.6497117"><ele>9.0</ele><time>2026-05-03T07:49:06.897Z</time></trkpt><trkpt lat="42.1798033" lon="14.6496317"><ele>9.0</ele><time>2026-05-03T07:49:08.897Z</time></trkpt><trkpt lat="42.1797533" lon="14.6495533"><ele>9.0</ele><time>2026-05-03T07:49:10.898Z</time></trkpt><trkpt lat="42.1797033" lon="14.6494717"><ele>8.833333333333334</ele><time>2026-05-03T07:49:12.897Z</time></trkpt><trkpt lat="42.1796617" lon="14.6493817"><ele>8.666666666666666</ele><time>2026-05-03T07:49:14.897Z</time></trkpt><trkpt lat="42.1796167" lon="14.6492983"><ele>8.5</ele><time>2026-05-03T07:49:16.898Z</time></trkpt><trkpt lat="42.1795717" lon="14.6492267"><ele>8.333333333333332</ele><time>2026-05-03T07:49:18.898Z</time></trkpt><trkpt lat="42.179515" lon="14.6491533"><ele>8.166666666666666</ele><time>2026-05-03T07:49:20.898Z</time></trkpt><trkpt lat="42.1794567" lon="14.6490933"><ele>8.0</ele><time>2026-05-03T07:49:22.897Z</time></trkpt><trkpt lat="42.1794017" lon="14.6490283"><ele>8.0</ele><time>2026-05-03T07:49:24.898Z</time></trkpt><trkpt lat="42.1793583" lon="14.6489617"><ele>7.999999999999999</ele><time>2026-05-03T07:49:26.898Z</time></trkpt><trkpt lat="42.1793033" lon="14.6489017"><ele>8.0</ele><time>2026-05-03T07:49:28.898Z</time></trkpt><trkpt lat="42.1792483" lon="14.6488333"><ele>8.0</ele><time>2026-05-03T07:49:30.898Z</time></trkpt><trkpt lat="42.17919" lon="14.6487817"><ele>7.999999999999999</ele><time>2026-05-03T07:49:32.897Z</time></trkpt><trkpt lat="42.1791233" lon="14.6487367"><ele>8.0</ele><time>2026-05-03T07:49:34.898Z</time></trkpt><trkpt lat="42.1790617" lon="14.648695"><ele>8.0</ele><time>2026-05-03T07:49:36.898Z</time></trkpt><trkpt lat="42.1789967" lon="14.64865"><ele>7.7142857142857135</ele><time>2026-05-03T07:49:38.898Z</time></trkpt><trkpt lat="42.1789383" lon="14.6486133"><ele>7.428571428571428</ele><time>2026-05-03T07:49:40.898Z</time></trkpt><trkpt lat="42.17888" lon="14.6485617"><ele>7.142857142857142</ele><time>2026-05-03T07:49:42.898Z</time></trkpt><trkpt lat="42.1788167" lon="14.6485167"><ele>6.857142857142857</ele><time>2026-05-03T07:49:44.897Z</time></trkpt><trkpt lat="42.1787533" lon="14.6484767"><ele>6.571428571428571</ele><time>2026-05-03T07:49:46.897Z</time></trkpt><trkpt lat="42.17868" lon="14.648445"><ele>6.285714285714285</ele><time>2026-05-03T07:49:48.898Z</time></trkpt><trkpt lat="42.178615" lon="14.6484167"><ele>6.0</ele><time>2026-05-03T07:49:50.898Z</time></trkpt><trkpt lat="42.1785533" lon="14.6483967"><ele>6.0</ele><time>2026-05-03T07:49:52.897Z</time></trkpt><trkpt lat="42.17849" lon="14.6483867"><ele>6.0</ele><time>2026-05-03T07:49:54.897Z</time></trkpt><trkpt lat="42.17842" lon="14.648375"><ele>6.0</ele><time>2026-05-03T07:49:56.897Z</time></trkpt><trkpt lat="42.1783433" lon="14.6483467"><ele>6.0</ele><time>2026-05-03T07:49:58.898Z</time></trkpt><trkpt lat="42.178265" lon="14.6483117"><ele>6.0</ele><time>2026-05-03T07:50:00.897Z</time></trkpt><trkpt lat="42.17819" lon="14.6482817"><ele>6.0</ele><time>2026-05-03T07:50:02.898Z</time></trkpt><trkpt lat="42.17811" lon="14.64826"><ele>6.166666666666667</ele><time>2026-05-03T07:50:04.898Z</time></trkpt><trkpt lat="42.1780417" lon="14.6482317"><ele>6.333333333333334</ele><time>2026-05-03T07:50:06.897Z</time></trkpt><trkpt lat="42.17798" lon="14.648205"><ele>6.5</ele><time>2026-05-03T07:50:08.898Z</time></trkpt><trkpt lat="42.1779" lon="14.6481583"><ele>6.666666666666667</ele><time>2026-05-03T07:50:11.898Z</time></trkpt><trkpt lat="42.1778083" lon="14.6481233"><ele>6.833333333333334</ele><time>2026-05-03T07:50:14.897Z</time></trkpt><trkpt lat="42.177745" lon="14.6481"><ele>7.0</ele><time>2026-05-03T07:50:16.897Z</time></trkpt><trkpt lat="42.17768" lon="14.6480733"><ele>7.0</ele><time>2026-05-03T07:50:18.898Z</time></trkpt><trkpt lat="42.1776083" lon="14.6480233"><ele>7.0</ele><time>2026-05-03T07:50:21.898Z</time></trkpt><trkpt lat="42.1775483" lon="14.6479833"><ele>7.0</ele><time>2026-05-03T07:50:23.897Z</time></trkpt><trkpt lat="42.1774817" lon="14.6479517"><ele>7.0</ele><time>2026-05-03T07:50:25.898Z</time></trkpt><trkpt lat="42.17742" lon="14.6479133"><ele>7.0</ele><time>2026-05-03T07:50:27.898Z</time></trkpt><trkpt lat="42.1773583" lon="14.647875"><ele>7.0</ele><time>2026-05-03T07:50:29.898Z</time></trkpt><trkpt lat="42.1772983" lon="14.647835"><ele>7.0</ele><time>2026-05-03T07:50:31.898Z</time></trkpt><trkpt lat="42.1772283" lon="14.6478033"><ele>7.000000000000001</ele><time>2026-05-03T07:50:33.898Z</time></trkpt><trkpt lat="42.1771567" lon="14.647755"><ele>7.0</ele><time>2026-05-03T07:50:35.898Z</time></trkpt><trkpt lat="42.1771" lon="14.647685"><ele>7.0</ele><time>2026-05-03T07:50:37.897Z</time></trkpt><trkpt lat="42.1770517" lon="14.647625"><ele>7.0</ele><time>2026-05-03T07:50:39.898Z</time></trkpt><trkpt lat="42.1769983" lon="14.64757"><ele>7.000000000000001</ele><time>2026-05-03T07:50:41.897Z</time></trkpt><trkpt lat="42.1769283" lon="14.647495"><ele>7.0</ele><time>2026-05-03T07:50:43.898Z</time></trkpt><trkpt lat="42.176865" lon="14.6474217"><ele>7.000000000000001</ele><time>2026-05-03T07:50:45.898Z</time></trkpt><trkpt lat="42.176795" lon="14.6473283"><ele>7.0</ele><time>2026-05-03T07:50:48.898Z</time></trkpt><trkpt lat="42.1767467" lon="14.6472567"><ele>7.0</ele><time>2026-05-03T07:50:50.898Z</time></trkpt><trkpt lat="42.1766833" lon="14.6471783"><ele>7.0</ele><time>2026-05-03T07:50:52.898Z</time></trkpt><trkpt lat="42.1766167" lon="14.64709"><ele>7.000000000000001</ele><time>2026-05-03T07:50:54.897Z</time></trkpt><trkpt lat="42.1765483" lon="14.6470083"><ele>7.0</ele><time>2026-05-03T07:50:56.898Z</time></trkpt><trkpt lat="42.1764683" lon="14.6469333"><ele>7.0</ele><time>2026-05-03T07:50:58.898Z</time></trkpt><trkpt lat="42.1763983" lon="14.6468433"><ele>6.999999999999999</ele><time>2026-05-03T07:51:00.898Z</time></trkpt><trkpt lat="42.1763383" lon="14.6467483"><ele>6.999999999999999</ele><time>2026-05-03T07:51:02.897Z</time></trkpt><trkpt lat="42.1762817" lon="14.6466467"><ele>7.0</ele><time>2026-05-03T07:51:04.898Z</time></trkpt><trkpt lat="42.1762433" lon="14.6465383"><ele>7.0</ele><time>2026-05-03T07:51:06.898Z</time></trkpt><trkpt lat="42.17621" lon="14.646425"><ele>7.000000000000001</ele><time>2026-05-03T07:51:08.898Z</time></trkpt><trkpt lat="42.1761683" lon="14.6463133"><ele>7.0</ele><time>2026-05-03T07:51:10.898Z</time></trkpt><trkpt lat="42.1761333" lon="14.64621"><ele>7.0</ele><time>2026-05-03T07:51:12.898Z</time></trkpt><trkpt lat="42.1761083" lon="14.6461033"><ele>7.0</ele><time>2026-05-03T07:51:14.898Z</time></trkpt><trkpt lat="42.1760833" lon="14.646005"><ele>7.000000000000001</ele><time>2026-05-03T07:51:16.898Z</time></trkpt><trkpt lat="42.1760617" lon="14.6459117"><ele>7.0</ele><time>2026-05-03T07:51:18.898Z</time></trkpt><trkpt lat="42.1760383" lon="14.6458217"><ele>7.166666666666667</ele><time>2026-05-03T07:51:20.898Z</time></trkpt><trkpt lat="42.17601" lon="14.6457217"><ele>7.333333333333334</ele><time>2026-05-03T07:51:22.898Z</time></trkpt><trkpt lat="42.1759867" lon="14.645625"><ele>7.5</ele><time>2026-05-03T07:51:24.898Z</time></trkpt><trkpt lat="42.1759567" lon="14.6455317"><ele>7.666666666666666</ele><time>2026-05-03T07:51:26.898Z</time></trkpt><trkpt lat="42.1759383" lon="14.64543"><ele>7.833333333333333</ele><time>2026-05-03T07:51:28.898Z</time></trkpt><trkpt lat="42.1759233" lon="14.6453317"><ele>8.0</ele><time>2026-05-03T07:51:30.898Z</time></trkpt><trkpt lat="42.1758983" lon="14.6452383"><ele>8.142857142857142</ele><time>2026-05-03T07:51:32.898Z</time></trkpt><trkpt lat="42.1758717" lon="14.64515"><ele>8.285714285714285</ele><time>2026-05-03T07:51:34.898Z</time></trkpt><trkpt lat="42.1758483" lon="14.6450667"><ele>8.428571428571429</ele><time>2026-05-03T07:51:36.898Z</time></trkpt><trkpt lat="42.175815" lon="14.6449817"><ele>8.571428571428571</ele><time>2026-05-03T07:51:38.897Z</time></trkpt><trkpt lat="42.175785" lon="14.6448917"><ele>8.714285714285715</ele><time>2026-05-03T07:51:40.898Z</time></trkpt><trkpt lat="42.1757567" lon="14.6448017"><ele>8.857142857142858</ele><time>2026-05-03T07:51:42.898Z</time></trkpt><trkpt lat="42.1757417" lon="14.644705"><ele>9.0</ele><time>2026-05-03T07:51:44.898Z</time></trkpt><trkpt lat="42.1757117" lon="14.6446067"><ele>9.0</ele><time>2026-05-03T07:51:46.897Z</time></trkpt><trkpt lat="42.1756867" lon="14.6445117"><ele>9.0</ele><time>2026-05-03T07:51:48.897Z</time></trkpt><trkpt lat="42.1756633" lon="14.6444117"><ele>9.0</ele><time>2026-05-03T07:51:50.897Z</time></trkpt><trkpt lat="42.1756367" lon="14.6443183"><ele>9.0</ele><time>2026-05-03T07:51:52.897Z</time></trkpt><trkpt lat="42.175615" lon="14.6442233"><ele>9.0</ele><time>2026-05-03T07:51:54.898Z</time></trkpt><trkpt lat="42.1755883" lon="14.6441183"><ele>9.0</ele><time>2026-05-03T07:51:56.898Z</time></trkpt><trkpt lat="42.1755633" lon="14.6440317"><ele>8.857142857142858</ele><time>2026-05-03T07:51:58.898Z</time></trkpt><trkpt lat="42.175535" lon="14.6439517"><ele>8.714285714285715</ele><time>2026-05-03T07:52:00.898Z</time></trkpt><trkpt lat="42.1755033" lon="14.6438667"><ele>8.571428571428571</ele><time>2026-05-03T07:52:02.897Z</time></trkpt><trkpt lat="42.175475" lon="14.6437733"><ele>8.428571428571429</ele><time>2026-05-03T07:52:04.897Z</time></trkpt><trkpt lat="42.1754417" lon="14.6436833"><ele>8.285714285714285</ele><time>2026-05-03T07:52:06.897Z</time></trkpt><trkpt lat="42.1754067" lon="14.64359"><ele>8.142857142857142</ele><time>2026-05-03T07:52:08.897Z</time></trkpt><trkpt lat="42.1753617" lon="14.6435033"><ele>8.0</ele><time>2026-05-03T07:52:10.898Z</time></trkpt><trkpt lat="42.1753267" lon="14.6434133"><ele>8.333333333333332</ele><time>2026-05-03T07:52:12.898Z</time></trkpt><trkpt lat="42.1752817" lon="14.6433233"><ele>8.666666666666666</ele><time>2026-05-03T07:52:14.898Z</time></trkpt><trkpt lat="42.1752383" lon="14.6432383"><ele>9.0</ele><time>2026-05-03T07:52:16.897Z</time></trkpt><trkpt lat="42.1751917" lon="14.6431517"><ele>9.333333333333334</ele><time>2026-05-03T07:52:18.898Z</time></trkpt><trkpt lat="42.1751367" lon="14.6430783"><ele>9.666666666666668</ele><time>2026-05-03T07:52:20.898Z</time></trkpt><trkpt lat="42.1750833" lon="14.6429983"><ele>10.0</ele><time>2026-05-03T07:52:22.898Z</time></trkpt><trkpt lat="42.1750333" lon="14.6429217"><ele>10.0</ele><time>2026-05-03T07:52:24.898Z</time></trkpt><trkpt lat="42.174975" lon="14.64286"><ele>10.0</ele><time>2026-05-03T07:52:26.897Z</time></trkpt><trkpt lat="42.1749117" lon="14.6427933"><ele>10.0</ele><time>2026-05-03T07:52:28.897Z</time></trkpt><trkpt lat="42.174845" lon="14.6427317"><ele>10.0</ele><time>2026-05-03T07:52:30.898Z</time></trkpt><trkpt lat="42.1747883" lon="14.6426867"><ele>10.0</ele><time>2026-05-03T07:52:32.897Z</time></trkpt><trkpt lat="42.1747267" lon="14.64263"><ele>10.0</ele><time>2026-05-03T07:52:34.897Z</time></trkpt><trkpt lat="42.1746567" lon="14.64257"><ele>10.0</ele><time>2026-05-03T07:52:36.897Z</time></trkpt><trkpt lat="42.1745917" lon="14.6425167"><ele>10.0</ele><time>2026-05-03T07:52:38.898Z</time></trkpt><trkpt lat="42.1745233" lon="14.6424617"><ele>10.0</ele><time>2026-05-03T07:52:40.898Z</time></trkpt><trkpt lat="42.1744567" lon="14.642415"><ele>10.0</ele><time>2026-05-03T07:52:42.897Z</time></trkpt><trkpt lat="42.1743817" lon="14.6423817"><ele>10.0</ele><time>2026-05-03T07:52:44.897Z</time></trkpt><trkpt lat="42.1743133" lon="14.6423417"><ele>10.0</ele><time>2026-05-03T07:52:46.898Z</time></trkpt><trkpt lat="42.1742433" lon="14.6423033"><ele>10.0</ele><time>2026-05-03T07:52:48.897Z</time></trkpt><trkpt lat="42.1741783" lon="14.6422717"><ele>10.0</ele><time>2026-05-03T07:52:50.898Z</time></trkpt><trkpt lat="42.1741033" lon="14.6422367"><ele>10.0</ele><time>2026-05-03T07:52:52.898Z</time></trkpt><trkpt lat="42.1740433" lon="14.6422017"><ele>10.0</ele><time>2026-05-03T07:52:54.898Z</time></trkpt><trkpt lat="42.173975" lon="14.64217"><ele>10.0</ele><time>2026-05-03T07:52:56.898Z</time></trkpt><trkpt lat="42.1739067" lon="14.6421417"><ele>10.0</ele><time>2026-05-03T07:52:58.898Z</time></trkpt><trkpt lat="42.1738317" lon="14.6421283"><ele>10.0</ele><time>2026-05-03T07:53:00.897Z</time></trkpt><trkpt lat="42.1737583" lon="14.642115"><ele>10.0</ele><time>2026-05-03T07:53:02.898Z</time></trkpt><trkpt lat="42.173695" lon="14.6420983"><ele>10.0</ele><time>2026-05-03T07:53:04.897Z</time></trkpt><trkpt lat="42.173625" lon="14.6420883"><ele>10.0</ele><time>2026-05-03T07:53:06.898Z</time></trkpt><trkpt lat="42.1735517" lon="14.642075"><ele>10.0</ele><time>2026-05-03T07:53:08.898Z</time></trkpt><trkpt lat="42.1734867" lon="14.6420617"><ele>10.0</ele><time>2026-05-03T07:53:10.898Z</time></trkpt><trkpt lat="42.1734233" lon="14.64205"><ele>10.0</ele><time>2026-05-03T07:53:12.897Z</time></trkpt><trkpt lat="42.1733367" lon="14.6420633"><ele>10.0</ele><time>2026-05-03T07:53:14.898Z</time></trkpt><trkpt lat="42.1732567" lon="14.6420717"><ele>9.833333333333334</ele><time>2026-05-03T07:53:16.898Z</time></trkpt><trkpt lat="42.17317" lon="14.6420717"><ele>9.666666666666668</ele><time>2026-05-03T07:53:18.898Z</time></trkpt><trkpt lat="42.1730817" lon="14.6420717"><ele>9.5</ele><time>2026-05-03T07:53:20.898Z</time></trkpt><trkpt lat="42.173" lon="14.6420667"><ele>9.333333333333334</ele><time>2026-05-03T07:53:22.898Z</time></trkpt><trkpt lat="42.1729183" lon="14.6420767"><ele>9.166666666666666</ele><time>2026-05-03T07:53:24.898Z</time></trkpt><trkpt lat="42.17282" lon="14.642085"><ele>9.0</ele><time>2026-05-03T07:53:26.898Z</time></trkpt><trkpt lat="42.172725" lon="14.6420917"><ele>9.0</ele><time>2026-05-03T07:53:28.897Z</time></trkpt><trkpt lat="42.1726383" lon="14.6421067"><ele>9.0</ele><time>2026-05-03T07:53:30.898Z</time></trkpt><trkpt lat="42.1725483" lon="14.6421383"><ele>9.0</ele><time>2026-05-03T07:53:32.897Z</time></trkpt><trkpt lat="42.1724683" lon="14.64217"><ele>9.0</ele><time>2026-05-03T07:53:34.898Z</time></trkpt><trkpt lat="42.1723867" lon="14.6421967"><ele>9.0</ele><time>2026-05-03T07:53:36.898Z</time></trkpt><trkpt lat="42.1723167" lon="14.6422333"><ele>9.0</ele><time>2026-05-03T07:53:38.897Z</time></trkpt><trkpt lat="42.17225" lon="14.6422667"><ele>9.285714285714286</ele><time>2026-05-03T07:53:40.897Z</time></trkpt><trkpt lat="42.1721783" lon="14.642295"><ele>9.571428571428571</ele><time>2026-05-03T07:53:42.898Z</time></trkpt><trkpt lat="42.172105" lon="14.6423217"><ele>9.857142857142858</ele><time>2026-05-03T07:53:44.897Z</time></trkpt><trkpt lat="42.172035" lon="14.6423683"><ele>10.142857142857142</ele><time>2026-05-03T07:53:46.898Z</time></trkpt><trkpt lat="42.1719967" lon="14.6424383"><ele>10.428571428571429</ele><time>2026-05-03T07:53:48.898Z</time></trkpt><trkpt lat="42.171995" lon="14.6425367"><ele>10.714285714285715</ele><time>2026-05-03T07:53:50.897Z</time></trkpt><trkpt lat="42.171985" lon="14.6426333"><ele>11.0</ele><time>2026-05-03T07:53:52.897Z</time></trkpt><trkpt lat="42.1719717" lon="14.6427433"><ele>10.833333333333332</ele><time>2026-05-03T07:53:54.897Z</time></trkpt><trkpt lat="42.1719667" lon="14.6428667"><ele>10.666666666666666</ele><time>2026-05-03T07:53:56.897Z</time></trkpt><trkpt lat="42.17197" lon="14.64298"><ele>10.5</ele><time>2026-05-03T07:53:58.898Z</time></trkpt><trkpt lat="42.1719733" lon="14.6430983"><ele>10.333333333333334</ele><time>2026-05-03T07:54:00.898Z</time></trkpt><trkpt lat="42.1719667" lon="14.64321"><ele>10.166666666666668</ele><time>2026-05-03T07:54:02.898Z</time></trkpt><trkpt lat="42.1719617" lon="14.643315"><ele>10.0</ele><time>2026-05-03T07:54:04.898Z</time></trkpt><trkpt lat="42.1719533" lon="14.6434183"><ele>10.0</ele><time>2026-05-03T07:54:06.898Z</time></trkpt><trkpt lat="42.1719583" lon="14.6435283"><ele>10.0</ele><time>2026-05-03T07:54:08.898Z</time></trkpt><trkpt lat="42.1719617" lon="14.6436383"><ele>10.0</ele><time>2026-05-03T07:54:10.897Z</time></trkpt><trkpt lat="42.1719583" lon="14.6437533"><ele>10.0</ele><time>2026-05-03T07:54:12.898Z</time></trkpt><trkpt lat="42.1719533" lon="14.64387"><ele>10.0</ele><time>2026-05-03T07:54:14.898Z</time></trkpt><trkpt lat="42.1719517" lon="14.643975"><ele>10.0</ele><time>2026-05-03T07:54:16.898Z</time></trkpt><trkpt lat="42.1719567" lon="14.644085"><ele>10.0</ele><time>2026-05-03T07:54:18.897Z</time></trkpt><trkpt lat="42.17195" lon="14.6441967"><ele>10.0</ele><time>2026-05-03T07:54:20.897Z</time></trkpt><trkpt lat="42.1719483" lon="14.6443033"><ele>10.0</ele><time>2026-05-03T07:54:22.898Z</time></trkpt><trkpt lat="42.1719433" lon="14.6444083"><ele>10.0</ele><time>2026-05-03T07:54:24.898Z</time></trkpt><trkpt lat="42.171945" lon="14.6445117"><ele>10.0</ele><time>2026-05-03T07:54:26.898Z</time></trkpt><trkpt lat="42.1719383" lon="14.6446183"><ele>10.0</ele><time>2026-05-03T07:54:28.898Z</time></trkpt><trkpt lat="42.1719267" lon="14.644705"><ele>10.428571428571429</ele><time>2026-05-03T07:54:30.898Z</time></trkpt><trkpt lat="42.1719167" lon="14.64481"><ele>10.857142857142858</ele><time>2026-05-03T07:54:32.897Z</time></trkpt><trkpt lat="42.1718967" lon="14.6449033"><ele>11.285714285714285</ele><time>2026-05-03T07:54:34.898Z</time></trkpt><trkpt lat="42.1718783" lon="14.6449917"><ele>11.714285714285715</ele><time>2026-05-03T07:54:36.898Z</time></trkpt><trkpt lat="42.1718467" lon="14.6450833"><ele>12.142857142857144</ele><time>2026-05-03T07:54:39.898Z</time></trkpt><trkpt lat="42.1718067" lon="14.645165"><ele>12.571428571428571</ele><time>2026-05-03T07:54:42.897Z</time></trkpt><trkpt lat="42.1717667" lon="14.6452417"><ele>13.0</ele><time>2026-05-03T07:54:45.898Z</time></trkpt><trkpt lat="42.171725" lon="14.6453367"><ele>13.166666666666666</ele><time>2026-05-03T07:54:48.897Z</time></trkpt><trkpt lat="42.1716883" lon="14.645425"><ele>13.333333333333332</ele><time>2026-05-03T07:54:51.898Z</time></trkpt><trkpt lat="42.171655" lon="14.6455183"><ele>13.5</ele><time>2026-05-03T07:54:54.898Z</time></trkpt><trkpt lat="42.1716167" lon="14.6456233"><ele>13.666666666666668</ele><time>2026-05-03T07:54:57.898Z</time></trkpt><trkpt lat="42.17158" lon="14.6457333"><ele>13.833333333333334</ele><time>2026-05-03T07:55:00.897Z</time></trkpt><trkpt lat="42.1715483" lon="14.645845"><ele>14.0</ele><time>2026-05-03T07:55:03.897Z</time></trkpt><trkpt lat="42.1715183" lon="14.64592"><ele>14.142857142857142</ele><time>2026-05-03T07:55:05.898Z</time></trkpt><trkpt lat="42.171475" lon="14.6460367"><ele>14.285714285714285</ele><time>2026-05-03T07:55:08.897Z</time></trkpt><trkpt lat="42.17144" lon="14.6461117"><ele>14.428571428571429</ele><time>2026-05-03T07:55:10.898Z</time></trkpt><trkpt lat="42.171395" lon="14.64621"><ele>14.571428571428571</ele><time>2026-05-03T07:55:13.898Z</time></trkpt><trkpt lat="42.1713567" lon="14.6462817"><ele>14.714285714285714</ele><time>2026-05-03T07:55:15.898Z</time></trkpt><trkpt lat="42.171315" lon="14.6463517"><ele>14.857142857142858</ele><time>2026-05-03T07:55:17.898Z</time></trkpt><trkpt lat="42.171285" lon="14.6464283"><ele>15.0</ele><time>2026-05-03T07:55:19.897Z</time></trkpt><trkpt lat="42.1712633" lon="14.6465233"><ele>15.0</ele><time>2026-05-03T07:55:21.898Z</time></trkpt><trkpt lat="42.17124" lon="14.646605"><ele>15.0</ele><time>2026-05-03T07:55:23.898Z</time></trkpt><trkpt lat="42.171235" lon="14.6467317"><ele>15.0</ele><time>2026-05-03T07:55:26.898Z</time></trkpt><trkpt lat="42.1712317" lon="14.6468217"><ele>15.0</ele><time>2026-05-03T07:55:28.898Z</time></trkpt><trkpt lat="42.1712233" lon="14.6469167"><ele>15.0</ele><time>2026-05-03T07:55:30.898Z</time></trkpt><trkpt lat="42.17121" lon="14.6470017"><ele>15.0</ele><time>2026-05-03T07:55:32.898Z</time></trkpt><trkpt lat="42.1712017" lon="14.6470917"><ele>15.0</ele><time>2026-05-03T07:55:34.898Z</time></trkpt><trkpt lat="42.1712" lon="14.647185"><ele>14.857142857142858</ele><time>2026-05-03T07:55:36.898Z</time></trkpt><trkpt lat="42.171195" lon="14.6472817"><ele>14.714285714285714</ele><time>2026-05-03T07:55:38.898Z</time></trkpt><trkpt lat="42.171195" lon="14.647375"><ele>14.571428571428571</ele><time>2026-05-03T07:55:40.897Z</time></trkpt><trkpt lat="42.1711983" lon="14.6474717"><ele>14.428571428571429</ele><time>2026-05-03T07:55:42.898Z</time></trkpt><trkpt lat="42.1712" lon="14.64756"><ele>14.285714285714285</ele><time>2026-05-03T07:55:44.897Z</time></trkpt><trkpt lat="42.1712083" lon="14.647655"><ele>14.142857142857142</ele><time>2026-05-03T07:55:46.898Z</time></trkpt><trkpt lat="42.1712133" lon="14.6477517"><ele>14.0</ele><time>2026-05-03T07:55:48.897Z</time></trkpt><trkpt lat="42.1712183" lon="14.6478517"><ele>14.000000000000002</ele><time>2026-05-03T07:55:50.897Z</time></trkpt><trkpt lat="42.17122" lon="14.64795"><ele>14.0</ele><time>2026-05-03T07:55:52.897Z</time></trkpt><trkpt lat="42.171225" lon="14.6480617"><ele>14.0</ele><time>2026-05-03T07:55:54.898Z</time></trkpt><trkpt lat="42.17123" lon="14.6481783"><ele>14.0</ele><time>2026-05-03T07:55:56.898Z</time></trkpt><trkpt lat="42.1712383" lon="14.648285"><ele>14.000000000000002</ele><time>2026-05-03T07:55:58.898Z</time></trkpt><trkpt lat="42.1712433" lon="14.648385"><ele>14.0</ele><time>2026-05-03T07:56:00.898Z</time></trkpt><trkpt lat="42.17126" lon="14.6484817"><ele>14.000000000000002</ele><time>2026-05-03T07:56:02.898Z</time></trkpt><trkpt lat="42.1712617" lon="14.6485767"><ele>14.0</ele><time>2026-05-03T07:56:04.897Z</time></trkpt><trkpt lat="42.171265" lon="14.6486783"><ele>14.0</ele><time>2026-05-03T07:56:06.898Z</time></trkpt><trkpt lat="42.1712683" lon="14.6487817"><ele>14.0</ele><time>2026-05-03T07:56:08.898Z</time></trkpt><trkpt lat="42.1712667" lon="14.6488783"><ele>14.000000000000002</ele><time>2026-05-03T07:56:10.897Z</time></trkpt><trkpt lat="42.1712583" lon="14.6489867"><ele>14.0</ele><time>2026-05-03T07:56:13.898Z</time></trkpt><trkpt lat="42.17127" lon="14.64912"><ele>14.166666666666668</ele><time>2026-05-03T07:56:16.897Z</time></trkpt><trkpt lat="42.17128" lon="14.649225"><ele>14.333333333333334</ele><time>2026-05-03T07:56:18.897Z</time></trkpt><trkpt lat="42.1712967" lon="14.6493383"><ele>14.5</ele><time>2026-05-03T07:56:20.898Z</time></trkpt><trkpt lat="42.1713083" lon="14.6494467"><ele>14.666666666666668</ele><time>2026-05-03T07:56:22.898Z</time></trkpt><trkpt lat="42.171315" lon="14.64956"><ele>14.833333333333334</ele><time>2026-05-03T07:56:24.898Z</time></trkpt><trkpt lat="42.1713217" lon="14.6496783"><ele>15.0</ele><time>2026-05-03T07:56:26.898Z</time></trkpt><trkpt lat="42.171325" lon="14.6497883"><ele>15.0</ele><time>2026-05-03T07:56:28.897Z</time></trkpt><trkpt lat="42.17133" lon="14.649895"><ele>15.0</ele><time>2026-05-03T07:56:30.898Z</time></trkpt><trkpt lat="42.17134" lon="14.6500017"><ele>15.0</ele><time>2026-05-03T07:56:32.898Z</time></trkpt><trkpt lat="42.1713417" lon="14.6501117"><ele>15.0</ele><time>2026-05-03T07:56:34.898Z</time></trkpt><trkpt lat="42.17135" lon="14.65021"><ele>15.0</ele><time>2026-05-03T07:56:36.898Z</time></trkpt><trkpt lat="42.1713583" lon="14.650305"><ele>15.0</ele><time>2026-05-03T07:56:38.897Z</time></trkpt><trkpt lat="42.1713633" lon="14.6504017"><ele>15.0</ele><time>2026-05-03T07:56:40.897Z</time></trkpt><trkpt lat="42.1713717" lon="14.6505067"><ele>15.0</ele><time>2026-05-03T07:56:42.898Z</time></trkpt><trkpt lat="42.1713833" lon="14.6506033"><ele>15.0</ele><time>2026-05-03T07:56:44.898Z</time></trkpt><trkpt lat="42.1713933" lon="14.6506967"><ele>15.0</ele><time>2026-05-03T07:56:46.898Z</time></trkpt><trkpt lat="42.1713983" lon="14.6507833"><ele>15.0</ele><time>2026-05-03T07:56:48.897Z</time></trkpt><trkpt lat="42.1714033" lon="14.65087"><ele>15.0</ele><time>2026-05-03T07:56:50.897Z</time></trkpt><trkpt lat="42.1714117" lon="14.650965"><ele>15.0</ele><time>2026-05-03T07:56:52.898Z</time></trkpt><trkpt lat="42.1714067" lon="14.65105"><ele>15.5</ele><time>2026-05-03T07:56:54.898Z</time></trkpt><trkpt lat="42.17138" lon="14.6511517"><ele>16.0</ele><time>2026-05-03T07:56:57.898Z</time></trkpt><trkpt lat="42.1713183" lon="14.651235"><ele>16.5</ele><time>2026-05-03T07:57:00.898Z</time></trkpt><trkpt lat="42.1712633" lon="14.6513183"><ele>17.0</ele><time>2026-05-03T07:57:03.897Z</time></trkpt><trkpt lat="42.1712067" lon="14.6514083"><ele>17.5</ele><time>2026-05-03T07:57:06.897Z</time></trkpt><trkpt lat="42.17115" lon="14.6514667"><ele>18.0</ele><time>2026-05-03T07:57:09.898Z</time></trkpt><trkpt lat="42.1710983" lon="14.6515317"><ele>18.000000000000004</ele><time>2026-05-03T07:57:12.898Z</time></trkpt><trkpt lat="42.1710467" lon="14.6516"><ele>18.0</ele><time>2026-05-03T07:57:15.898Z</time></trkpt><trkpt lat="42.170995" lon="14.6516517"><ele>18.0</ele><time>2026-05-03T07:57:18.898Z</time></trkpt><trkpt lat="42.170945" lon="14.6517117"><ele>18.0</ele><time>2026-05-03T07:57:21.898Z</time></trkpt><trkpt lat="42.1708933" lon="14.6517733"><ele>18.0</ele><time>2026-05-03T07:57:24.898Z</time></trkpt><trkpt lat="42.17084" lon="14.651835"><ele>18.000000000000004</ele><time>2026-05-03T07:57:27.898Z</time></trkpt><trkpt lat="42.1707867" lon="14.65189"><ele>18.0</ele><time>2026-05-03T07:57:30.897Z</time></trkpt><trkpt lat="42.1707333" lon="14.6519617"><ele>18.857142857142858</ele><time>2026-05-03T07:57:33.898Z</time></trkpt><trkpt lat="42.1706833" lon="14.65202"><ele>19.714285714285715</ele><time>2026-05-03T07:57:36.898Z</time></trkpt><trkpt lat="42.1706383" lon="14.6520933"><ele>20.57142857142857</ele><time>2026-05-03T07:57:39.898Z</time></trkpt><trkpt lat="42.170585" lon="14.6521617"><ele>21.42857142857143</ele><time>2026-05-03T07:57:42.898Z</time></trkpt><trkpt lat="42.17054" lon="14.652225"><ele>22.285714285714285</ele><time>2026-05-03T07:57:45.897Z</time></trkpt><trkpt lat="42.1704917" lon="14.6522933"><ele>23.142857142857142</ele><time>2026-05-03T07:57:48.898Z</time></trkpt><trkpt lat="42.1704317" lon="14.65237"><ele>24.0</ele><time>2026-05-03T07:57:52.897Z</time></trkpt><trkpt lat="42.1703683" lon="14.6524367"><ele>23.999999999999996</ele><time>2026-05-03T07:57:56.898Z</time></trkpt><trkpt lat="42.1703033" lon="14.6525083"><ele>24.0</ele><time>2026-05-03T07:58:00.898Z</time></trkpt><trkpt lat="42.1702517" lon="14.6525667"><ele>24.0</ele><time>2026-05-03T07:58:03.898Z</time></trkpt><trkpt lat="42.1702017" lon="14.6526283"><ele>24.0</ele><time>2026-05-03T07:58:06.897Z</time></trkpt><trkpt lat="42.17014" lon="14.652695"><ele>24.0</ele><time>2026-05-03T07:58:09.898Z</time></trkpt><trkpt lat="42.1700933" lon="14.652755"><ele>23.999999999999996</ele><time>2026-05-03T07:58:12.897Z</time></trkpt><trkpt lat="42.1700467" lon="14.6528283"><ele>24.0</ele><time>2026-05-03T07:58:15.898Z</time></trkpt><trkpt lat="42.17" lon="14.652895"><ele>25.14285714285714</ele><time>2026-05-03T07:58:18.898Z</time></trkpt><trkpt lat="42.16995" lon="14.652955"><ele>26.285714285714285</ele><time>2026-05-03T07:58:21.898Z</time></trkpt><trkpt lat="42.1698933" lon="14.6530133"><ele>27.428571428571427</ele><time>2026-05-03T07:58:24.898Z</time></trkpt><trkpt lat="42.16984" lon="14.65306"><ele>28.57142857142857</ele><time>2026-05-03T07:58:27.897Z</time></trkpt><trkpt lat="42.1697783" lon="14.6531283"><ele>29.71428571428571</ele><time>2026-05-03T07:58:31.898Z</time></trkpt><trkpt lat="42.1697233" lon="14.6531733"><ele>30.857142857142854</ele><time>2026-05-03T07:58:34.898Z</time></trkpt><trkpt lat="42.1696733" lon="14.653225"><ele>32.0</ele><time>2026-05-03T07:58:37.898Z</time></trkpt><trkpt lat="42.1696217" lon="14.6532917"><ele>33.0</ele><time>2026-05-03T07:58:40.898Z</time></trkpt><trkpt lat="42.16955" lon="14.653315"><ele>34.0</ele><time>2026-05-03T07:58:44.898Z</time></trkpt><trkpt lat="42.1694833" lon="14.6533133"><ele>35.0</ele><time>2026-05-03T07:58:48.898Z</time></trkpt><trkpt lat="42.169445" lon="14.65324"><ele>36.0</ele><time>2026-05-03T07:58:54.898Z</time></trkpt><trkpt lat="42.1694133" lon="14.65316"><ele>37.0</ele><time>2026-05-03T07:58:59.897Z</time></trkpt><trkpt lat="42.1693833" lon="14.65308"><ele>38.0</ele><time>2026-05-03T07:59:03.898Z</time></trkpt><trkpt lat="42.1693483" lon="14.6530017"><ele>39.0</ele><time>2026-05-03T07:59:08.898Z</time></trkpt><trkpt lat="42.1692967" lon="14.6529467"><ele>39.0</ele><time>2026-05-03T07:59:12.898Z</time></trkpt><trkpt lat="42.1692217" lon="14.652965"><ele>39.0</ele><time>2026-05-03T07:59:16.898Z</time></trkpt><trkpt lat="42.1691833" lon="14.6530367"><ele>39.0</ele><time>2026-05-03T07:59:21.898Z</time></trkpt><trkpt lat="42.169145" lon="14.6531183"><ele>39.0</ele><time>2026-05-03T07:59:26.897Z</time></trkpt><trkpt lat="42.16912" lon="14.653255"><ele>39.0</ele><time>2026-05-03T07:59:32.898Z</time></trkpt><trkpt lat="42.1691317" lon="14.653355"><ele>39.0</ele><time>2026-05-03T07:59:36.898Z</time></trkpt><trkpt lat="42.1691333" lon="14.6534633"><ele>39.0</ele><time>2026-05-03T07:59:40.898Z</time></trkpt><trkpt lat="42.1691667" lon="14.653575"><ele>39.0</ele><time>2026-05-03T07:59:44.897Z</time></trkpt><trkpt lat="42.1692" lon="14.6536583"><ele>39.0</ele><time>2026-05-03T07:59:47.897Z</time></trkpt><trkpt lat="42.1692433" lon="14.6537283"><ele>39.0</ele><time>2026-05-03T07:59:50.898Z</time></trkpt><trkpt lat="42.1692983" lon="14.6537783"><ele>39.0</ele><time>2026-05-03T07:59:53.898Z</time></trkpt><trkpt lat="42.16937" lon="14.6538333"><ele>39.0</ele><time>2026-05-03T07:59:57.898Z</time></trkpt><trkpt lat="42.1694333" lon="14.6538733"><ele>39.0</ele><time>2026-05-03T08:00:00.897Z</time></trkpt><trkpt lat="42.1695" lon="14.6539033"><ele>40.0</ele><time>2026-05-03T08:00:04.898Z</time></trkpt><trkpt lat="42.1695683" lon="14.6539483"><ele>41.0</ele><time>2026-05-03T08:00:08.898Z</time></trkpt><trkpt lat="42.1696367" lon="14.65395"><ele>42.0</ele><time>2026-05-03T08:00:12.898Z</time></trkpt><trkpt lat="42.169715" lon="14.6539433"><ele>43.0</ele><time>2026-05-03T08:00:16.897Z</time></trkpt><trkpt lat="42.169795" lon="14.65394"><ele>44.0</ele><time>2026-05-03T08:00:20.898Z</time></trkpt><trkpt lat="42.1698617" lon="14.6539433"><ele>45.0</ele><time>2026-05-03T08:00:24.897Z</time></trkpt><trkpt lat="42.1699383" lon="14.65395"><ele>46.0</ele><time>2026-05-03T08:00:28.898Z</time></trkpt><trkpt lat="42.1700167" lon="14.6539267"><ele>46.85714285714286</ele><time>2026-05-03T08:00:32.897Z</time></trkpt><trkpt lat="42.170085" lon="14.65389"><ele>47.71428571428571</ele><time>2026-05-03T08:00:35.897Z</time></trkpt><trkpt lat="42.1701467" lon="14.6538633"><ele>48.57142857142857</ele><time>2026-05-03T08:00:38.897Z</time></trkpt><trkpt lat="42.1702117" lon="14.6538283"><ele>49.42857142857143</ele><time>2026-05-03T08:00:41.898Z</time></trkpt><trkpt lat="42.1702733" lon="14.6537867"><ele>50.28571428571429</ele><time>2026-05-03T08:00:44.898Z</time></trkpt><trkpt lat="42.1703517" lon="14.653775"><ele>51.14285714285714</ele><time>2026-05-03T08:00:48.897Z</time></trkpt><trkpt lat="42.170415" lon="14.653765"><ele>52.0</ele><time>2026-05-03T08:00:51.898Z</time></trkpt><trkpt lat="42.170485" lon="14.65379"><ele>52.0</ele><time>2026-05-03T08:00:56.898Z</time></trkpt><trkpt lat="42.1705117" lon="14.6538883"><ele>52.0</ele><time>2026-05-03T08:01:02.898Z</time></trkpt><trkpt lat="42.1705017" lon="14.65398"><ele>52.0</ele><time>2026-05-03T08:01:08.898Z</time></trkpt><trkpt lat="42.1704367" lon="14.6540317"><ele>52.0</ele><time>2026-05-03T08:01:14.898Z</time></trkpt><trkpt lat="42.1703517" lon="14.6540283"><ele>52.0</ele><time>2026-05-03T08:01:18.898Z</time></trkpt><trkpt lat="42.1702883" lon="14.6540183"><ele>52.0</ele><time>2026-05-03T08:01:21.898Z</time></trkpt><trkpt lat="42.1702183" lon="14.654005"><ele>52.0</ele><time>2026-05-03T08:01:24.897Z</time></trkpt><trkpt lat="42.1701533" lon="14.6540067"><ele>52.0</ele><time>2026-05-03T08:01:27.897Z</time></trkpt><trkpt lat="42.1700733" lon="14.654025"><ele>52.0</ele><time>2026-05-03T08:01:31.898Z</time></trkpt><trkpt lat="42.170005" lon="14.6540417"><ele>52.0</ele><time>2026-05-03T08:01:34.898Z</time></trkpt><trkpt lat="42.16992" lon="14.6540517"><ele>52.0</ele><time>2026-05-03T08:01:38.898Z</time></trkpt><trkpt lat="42.169855" lon="14.6540483"><ele>52.0</ele><time>2026-05-03T08:01:41.898Z</time></trkpt><trkpt lat="42.169785" lon="14.6540667"><ele>52.0</ele><time>2026-05-03T08:01:44.897Z</time></trkpt><trkpt lat="42.1697133" lon="14.6540767"><ele>52.0</ele><time>2026-05-03T08:01:47.897Z</time></trkpt><trkpt lat="42.169645" lon="14.654095"><ele>51.14285714285714</ele><time>2026-05-03T08:01:50.898Z</time></trkpt><trkpt lat="42.169575" lon="14.654115"><ele>50.28571428571429</ele><time>2026-05-03T08:01:53.898Z</time></trkpt><trkpt lat="42.1695033" lon="14.6541333"><ele>49.42857142857143</ele><time>2026-05-03T08:01:56.898Z</time></trkpt><trkpt lat="42.1694417" lon="14.65417"><ele>48.57142857142857</ele><time>2026-05-03T08:01:59.898Z</time></trkpt><trkpt lat="42.169375" lon="14.6542083"><ele>47.71428571428571</ele><time>2026-05-03T08:02:02.898Z</time></trkpt><trkpt lat="42.1692983" lon="14.6542417"><ele>46.85714285714286</ele><time>2026-05-03T08:02:05.898Z</time></trkpt><trkpt lat="42.1692267" lon="14.6542617"><ele>46.0</ele><time>2026-05-03T08:02:08.898Z</time></trkpt><trkpt lat="42.169165" lon="14.6543017"><ele>46.0</ele><time>2026-05-03T08:02:11.897Z</time></trkpt><trkpt lat="42.16909" lon="14.654335"><ele>46.0</ele><time>2026-05-03T08:02:15.898Z</time></trkpt><trkpt lat="42.1690283" lon="14.6543583"><ele>46.0</ele><time>2026-05-03T08:02:18.898Z</time></trkpt><trkpt lat="42.1689633" lon="14.654375"><ele>46.0</ele><time>2026-05-03T08:02:21.897Z</time></trkpt><trkpt lat="42.1689033" lon="14.6544017"><ele>46.0</ele><time>2026-05-03T08:02:24.898Z</time></trkpt><trkpt lat="42.1688417" lon="14.6544467"><ele>46.0</ele><time>2026-05-03T08:02:27.897Z</time></trkpt><trkpt lat="42.1687683" lon="14.6544767"><ele>46.0</ele><time>2026-05-03T08:02:30.898Z</time></trkpt><trkpt lat="42.1687" lon="14.6545117"><ele>48.142857142857146</ele><time>2026-05-03T08:02:33.898Z</time></trkpt><trkpt lat="42.1686317" lon="14.6545517"><ele>50.28571428571428</ele><time>2026-05-03T08:02:36.898Z</time></trkpt><trkpt lat="42.1685783" lon="14.6546033"><ele>52.42857142857142</ele><time>2026-05-03T08:02:39.898Z</time></trkpt><trkpt lat="42.168515" lon="14.6546417"><ele>54.57142857142857</ele><time>2026-05-03T08:02:42.897Z</time></trkpt><trkpt lat="42.16845" lon="14.6546683"><ele>56.71428571428571</ele><time>2026-05-03T08:02:45.897Z</time></trkpt><trkpt lat="42.1683833" lon="14.6546967"><ele>58.85714285714285</ele><time>2026-05-03T08:02:48.898Z</time></trkpt><trkpt lat="42.16831" lon="14.6547067"><ele>60.99999999999999</ele><time>2026-05-03T08:02:51.898Z</time></trkpt><trkpt lat="42.16824" lon="14.6547183"><ele>60.666666666666664</ele><time>2026-05-03T08:02:54.897Z</time></trkpt><trkpt lat="42.1681583" lon="14.6547383"><ele>60.33333333333333</ele><time>2026-05-03T08:02:58.898Z</time></trkpt><trkpt lat="42.1680917" lon="14.6547733"><ele>60.0</ele><time>2026-05-03T08:03:01.897Z</time></trkpt><trkpt lat="42.1680317" lon="14.6548133"><ele>59.66666666666667</ele><time>2026-05-03T08:03:04.898Z</time></trkpt><trkpt lat="42.1679567" lon="14.6548467"><ele>59.333333333333336</ele><time>2026-05-03T08:03:08.898Z</time></trkpt><trkpt lat="42.16788" lon="14.6548833"><ele>59.0</ele><time>2026-05-03T08:03:11.897Z</time></trkpt><trkpt lat="42.1678067" lon="14.65494"><ele>59.0</ele><time>2026-05-03T08:03:15.898Z</time></trkpt><trkpt lat="42.1677317" lon="14.6549767"><ele>59.0</ele><time>2026-05-03T08:03:19.897Z</time></trkpt><trkpt lat="42.167655" lon="14.6550317"><ele>59.0</ele><time>2026-05-03T08:03:23.897Z</time></trkpt><trkpt lat="42.167595" lon="14.6550767"><ele>59.0</ele><time>2026-05-03T08:03:26.898Z</time></trkpt><trkpt lat="42.1675333" lon="14.6551133"><ele>59.0</ele><time>2026-05-03T08:03:29.897Z</time></trkpt><trkpt lat="42.1674617" lon="14.655165"><ele>59.0</ele><time>2026-05-03T08:03:33.898Z</time></trkpt><trkpt lat="42.1674033" lon="14.6552"><ele>59.0</ele><time>2026-05-03T08:03:36.898Z</time></trkpt><trkpt lat="42.167325" lon="14.6552217"><ele>59.16666666666667</ele><time>2026-05-03T08:03:42.898Z</time></trkpt><trkpt lat="42.1672467" lon="14.6552133"><ele>59.333333333333336</ele><time>2026-05-03T08:03:47.897Z</time></trkpt><trkpt lat="42.16717" lon="14.655235"><ele>59.5</ele><time>2026-05-03T08:03:50.897Z</time></trkpt><trkpt lat="42.16709" lon="14.655245"><ele>59.66666666666667</ele><time>2026-05-03T08:03:53.898Z</time></trkpt><trkpt lat="42.167025" lon="14.6552267"><ele>59.833333333333336</ele><time>2026-05-03T08:03:56.898Z</time></trkpt><trkpt lat="42.166945" lon="14.6552067"><ele>60.0</ele><time>2026-05-03T08:03:59.898Z</time></trkpt><trkpt lat="42.166855" lon="14.655245"><ele>62.0</ele><time>2026-05-03T08:04:02.897Z</time></trkpt><trkpt lat="42.1667967" lon="14.655305"><ele>64.0</ele><time>2026-05-03T08:04:04.898Z</time></trkpt><trkpt lat="42.1667317" lon="14.655375"><ele>66.0</ele><time>2026-05-03T08:04:07.898Z</time></trkpt><trkpt lat="42.16668" lon="14.6554367"><ele>68.0</ele><time>2026-05-03T08:04:11.898Z</time></trkpt><trkpt lat="42.166605" lon="14.6554733"><ele>70.0</ele><time>2026-05-03T08:04:15.897Z</time></trkpt><trkpt lat="42.166535" lon="14.655495"><ele>72.0</ele><time>2026-05-03T08:04:18.898Z</time></trkpt><trkpt lat="42.1664617" lon="14.6555083"><ele>72.5</ele><time>2026-05-03T08:04:21.897Z</time></trkpt><trkpt lat="42.16638" lon="14.6555317"><ele>73.0</ele><time>2026-05-03T08:04:24.898Z</time></trkpt><trkpt lat="42.1663033" lon="14.6555267"><ele>73.5</ele><time>2026-05-03T08:04:27.898Z</time></trkpt><trkpt lat="42.1662183" lon="14.6555317"><ele>74.0</ele><time>2026-05-03T08:04:31.898Z</time></trkpt><trkpt lat="42.16615" lon="14.6555517"><ele>74.5</ele><time>2026-05-03T08:04:34.897Z</time></trkpt><trkpt lat="42.1660633" lon="14.655595"><ele>75.0</ele><time>2026-05-03T08:04:37.898Z</time></trkpt><trkpt lat="42.1659917" lon="14.6556367"><ele>75.0</ele><time>2026-05-03T08:04:40.897Z</time></trkpt><trkpt lat="42.16591" lon="14.65564"><ele>75.0</ele><time>2026-05-03T08:04:43.898Z</time></trkpt><trkpt lat="42.1658367" lon="14.6556433"><ele>75.0</ele><time>2026-05-03T08:04:46.897Z</time></trkpt><trkpt lat="42.1657567" lon="14.65568"><ele>75.0</ele><time>2026-05-03T08:04:50.898Z</time></trkpt><trkpt lat="42.16569" lon="14.6557033"><ele>75.0</ele><time>2026-05-03T08:04:55.897Z</time></trkpt><trkpt lat="42.1656017" lon="14.6556817"><ele>75.0</ele><time>2026-05-03T08:04:59.897Z</time></trkpt><trkpt lat="42.16553" lon="14.6556483"><ele>75.71428571428571</ele><time>2026-05-03T08:05:02.898Z</time></trkpt><trkpt lat="42.1654683" lon="14.6556667"><ele>76.42857142857143</ele><time>2026-05-03T08:05:05.897Z</time></trkpt><trkpt lat="42.1654" lon="14.6556567"><ele>77.14285714285714</ele><time>2026-05-03T08:05:08.898Z</time></trkpt><trkpt lat="42.1653267" lon="14.655655"><ele>77.85714285714286</ele><time>2026-05-03T08:05:11.897Z</time></trkpt><trkpt lat="42.16524" lon="14.6556583"><ele>78.57142857142857</ele><time>2026-05-03T08:05:14.898Z</time></trkpt><trkpt lat="42.1651733" lon="14.6556583"><ele>79.28571428571428</ele><time>2026-05-03T08:05:17.897Z</time></trkpt><trkpt lat="42.1651" lon="14.65568"><ele>80.0</ele><time>2026-05-03T08:05:20.898Z</time></trkpt><trkpt lat="42.1650233" lon="14.655685"><ele>80.0</ele><time>2026-05-03T08:05:23.897Z</time></trkpt><trkpt lat="42.1649467" lon="14.6557017"><ele>80.0</ele><time>2026-05-03T08:05:26.898Z</time></trkpt><trkpt lat="42.1648767" lon="14.65572"><ele>80.0</ele><time>2026-05-03T08:05:29.898Z</time></trkpt><trkpt lat="42.1648017" lon="14.65576"><ele>80.0</ele><time>2026-05-03T08:05:32.897Z</time></trkpt><trkpt lat="42.1647333" lon="14.6558033"><ele>80.0</ele><time>2026-05-03T08:05:35.898Z</time></trkpt><trkpt lat="42.1646733" lon="14.6558533"><ele>80.0</ele><time>2026-05-03T08:05:38.897Z</time></trkpt><trkpt lat="42.1646067" lon="14.655895"><ele>80.0</ele><time>2026-05-03T08:05:41.898Z</time></trkpt><trkpt lat="42.1645317" lon="14.6559433"><ele>80.14285714285714</ele><time>2026-05-03T08:05:45.898Z</time></trkpt><trkpt lat="42.1644633" lon="14.6560033"><ele>80.28571428571429</ele><time>2026-05-03T08:05:49.898Z</time></trkpt><trkpt lat="42.16441" lon="14.6560617"><ele>80.42857142857143</ele><time>2026-05-03T08:05:52.898Z</time></trkpt><trkpt lat="42.1643533" lon="14.6561133"><ele>80.57142857142857</ele><time>2026-05-03T08:05:55.897Z</time></trkpt><trkpt lat="42.1642933" lon="14.656155"><ele>80.71428571428571</ele><time>2026-05-03T08:05:58.898Z</time></trkpt><trkpt lat="42.1642333" lon="14.65621"><ele>80.85714285714286</ele><time>2026-05-03T08:06:01.897Z</time></trkpt><trkpt lat="42.164175" lon="14.6562633"><ele>81.0</ele><time>2026-05-03T08:06:04.898Z</time></trkpt><trkpt lat="42.1641117" lon="14.6563017"><ele>81.28571428571429</ele><time>2026-05-03T08:06:07.898Z</time></trkpt><trkpt lat="42.164045" lon="14.6563533"><ele>81.57142857142857</ele><time>2026-05-03T08:06:10.897Z</time></trkpt><trkpt lat="42.1639917" lon="14.6564117"><ele>81.85714285714286</ele><time>2026-05-03T08:06:13.897Z</time></trkpt><trkpt lat="42.1639283" lon="14.6564533"><ele>82.14285714285714</ele><time>2026-05-03T08:06:16.898Z</time></trkpt><trkpt lat="42.1638683" lon="14.6564917"><ele>82.42857142857143</ele><time>2026-05-03T08:06:19.898Z</time></trkpt><trkpt lat="42.1638117" lon="14.6565317"><ele>82.71428571428571</ele><time>2026-05-03T08:06:22.897Z</time></trkpt><trkpt lat="42.16375" lon="14.6565817"><ele>83.0</ele><time>2026-05-03T08:06:25.898Z</time></trkpt><trkpt lat="42.1636883" lon="14.6566233"><ele>83.0</ele><time>2026-05-03T08:06:28.898Z</time></trkpt><trkpt lat="42.1636283" lon="14.6566683"><ele>83.0</ele><time>2026-05-03T08:06:31.898Z</time></trkpt><trkpt lat="42.1635617" lon="14.65672"><ele>83.0</ele><time>2026-05-03T08:06:34.897Z</time></trkpt><trkpt lat="42.163495" lon="14.65677"><ele>83.0</ele><time>2026-05-03T08:06:37.897Z</time></trkpt><trkpt lat="42.1634283" lon="14.6568233"><ele>83.0</ele><time>2026-05-03T08:06:40.898Z</time></trkpt><trkpt lat="42.1633633" lon="14.6568683"><ele>83.0</ele><time>2026-05-03T08:06:43.897Z</time></trkpt><trkpt lat="42.16329" lon="14.6569083"><ele>83.71428571428571</ele><time>2026-05-03T08:06:46.897Z</time></trkpt><trkpt lat="42.1632167" lon="14.6569617"><ele>84.42857142857143</ele><time>2026-05-03T08:06:49.898Z</time></trkpt><trkpt lat="42.1631517" lon="14.6570133"><ele>85.14285714285714</ele><time>2026-05-03T08:06:52.898Z</time></trkpt><trkpt lat="42.1630867" lon="14.657055"><ele>85.85714285714286</ele><time>2026-05-03T08:06:55.898Z</time></trkpt><trkpt lat="42.1630117" lon="14.6570817"><ele>86.57142857142857</ele><time>2026-05-03T08:06:58.897Z</time></trkpt><trkpt lat="42.162945" lon="14.6571133"><ele>87.28571428571429</ele><time>2026-05-03T08:07:01.897Z</time></trkpt><trkpt lat="42.1628817" lon="14.6571417"><ele>88.0</ele><time>2026-05-03T08:07:03.897Z</time></trkpt><trkpt lat="42.16282" lon="14.657165"><ele>88.0</ele><time>2026-05-03T08:07:05.898Z</time></trkpt><trkpt lat="42.162755" lon="14.6572017"><ele>88.0</ele><time>2026-05-03T08:07:07.898Z</time></trkpt><trkpt lat="42.1626917" lon="14.6572383"><ele>88.0</ele><time>2026-05-03T08:07:09.898Z</time></trkpt><trkpt lat="42.1626217" lon="14.65729"><ele>88.0</ele><time>2026-05-03T08:07:12.898Z</time></trkpt><trkpt lat="42.162555" lon="14.65735"><ele>88.0</ele><time>2026-05-03T08:07:15.897Z</time></trkpt><trkpt lat="42.16249" lon="14.65737"><ele>88.0</ele><time>2026-05-03T08:07:18.898Z</time></trkpt><trkpt lat="42.1624317" lon="14.6574167"><ele>88.0</ele><time>2026-05-03T08:07:22.898Z</time></trkpt><trkpt lat="42.1623767" lon="14.65748"><ele>88.33333333333333</ele><time>2026-05-03T08:07:26.897Z</time></trkpt><trkpt lat="42.1623317" lon="14.6575417"><ele>88.66666666666666</ele><time>2026-05-03T08:07:29.898Z</time></trkpt><trkpt lat="42.1623033" lon="14.6576233"><ele>89.0</ele><time>2026-05-03T08:07:32.897Z</time></trkpt><trkpt lat="42.1623067" lon="14.6577133"><ele>89.33333333333333</ele><time>2026-05-03T08:07:35.898Z</time></trkpt><trkpt lat="42.1622983" lon="14.6578"><ele>89.66666666666667</ele><time>2026-05-03T08:07:38.898Z</time></trkpt><trkpt lat="42.1622233" lon="14.6578883"><ele>90.0</ele><time>2026-05-03T08:07:42.897Z</time></trkpt><trkpt lat="42.162135" lon="14.657925"><ele>90.6</ele><time>2026-05-03T08:07:44.898Z</time></trkpt><trkpt lat="42.16203" lon="14.65796"><ele>91.2</ele><time>2026-05-03T08:07:46.898Z</time></trkpt><trkpt lat="42.1619283" lon="14.6579783"><ele>91.80000000000001</ele><time>2026-05-03T08:07:48.897Z</time></trkpt><trkpt lat="42.1618383" lon="14.6580033"><ele>92.4</ele><time>2026-05-03T08:07:50.897Z</time></trkpt><trkpt lat="42.1617533" lon="14.65802"><ele>93.0</ele><time>2026-05-03T08:07:52.898Z</time></trkpt><trkpt lat="42.1616733" lon="14.6580317"><ele>93.00000000000001</ele><time>2026-05-03T08:07:54.897Z</time></trkpt><trkpt lat="42.1616033" lon="14.6580317"><ele>93.0</ele><time>2026-05-03T08:07:56.897Z</time></trkpt><trkpt lat="42.1615383" lon="14.6580317"><ele>93.0</ele><time>2026-05-03T08:07:58.898Z</time></trkpt><trkpt lat="42.1614517" lon="14.65805"><ele>93.0</ele><time>2026-05-03T08:08:01.897Z</time></trkpt><trkpt lat="42.1614183" lon="14.658135"><ele>93.0</ele><time>2026-05-03T08:08:04.897Z</time></trkpt><trkpt lat="42.1614317" lon="14.658225"><ele>93.00000000000001</ele><time>2026-05-03T08:08:07.897Z</time></trkpt><trkpt lat="42.1614683" lon="14.6583167"><ele>93.0</ele><time>2026-05-03T08:08:11.897Z</time></trkpt><trkpt lat="42.1614917" lon="14.65841"><ele>93.0</ele><time>2026-05-03T08:08:16.897Z</time></trkpt><trkpt lat="42.16153" lon="14.6585117"><ele>93.0</ele><time>2026-05-03T08:08:20.897Z</time></trkpt><trkpt lat="42.16156" lon="14.658605"><ele>93.0</ele><time>2026-05-03T08:08:23.898Z</time></trkpt><trkpt lat="42.1615917" lon="14.6586867"><ele>93.0</ele><time>2026-05-03T08:08:26.898Z</time></trkpt><trkpt lat="42.1616133" lon="14.6587783"><ele>93.0</ele><time>2026-05-03T08:08:29.898Z</time></trkpt><trkpt lat="42.1616367" lon="14.6588767"><ele>93.0</ele><time>2026-05-03T08:08:33.898Z</time></trkpt><trkpt lat="42.1616183" lon="14.658995"><ele>93.16666666666667</ele><time>2026-05-03T08:08:37.898Z</time></trkpt><trkpt lat="42.1615817" lon="14.6591067"><ele>93.33333333333333</ele><time>2026-05-03T08:08:40.898Z</time></trkpt><trkpt lat="42.161585" lon="14.659235"><ele>93.5</ele><time>2026-05-03T08:08:43.897Z</time></trkpt><trkpt lat="42.1616033" lon="14.6593233"><ele>93.66666666666666</ele><time>2026-05-03T08:08:45.897Z</time></trkpt><trkpt lat="42.1616217" lon="14.6594083"><ele>93.83333333333333</ele><time>2026-05-03T08:08:47.898Z</time></trkpt><trkpt lat="42.1616383" lon="14.659505"><ele>94.0</ele><time>2026-05-03T08:08:49.898Z</time></trkpt><trkpt lat="42.1616633" lon="14.6596217"><ele>94.0</ele><time>2026-05-03T08:08:51.898Z</time></trkpt><trkpt lat="42.1616867" lon="14.659745"><ele>94.0</ele><time>2026-05-03T08:08:53.898Z</time></trkpt><trkpt lat="42.1617233" lon="14.6598683"><ele>94.0</ele><time>2026-05-03T08:08:55.898Z</time></trkpt><trkpt lat="42.161765" lon="14.660005"><ele>94.0</ele><time>2026-05-03T08:08:57.898Z</time></trkpt><trkpt lat="42.1618017" lon="14.6601533"><ele>94.0</ele><time>2026-05-03T08:08:59.898Z</time></trkpt><trkpt lat="42.1618367" lon="14.6602983"><ele>93.75</ele><time>2026-05-03T08:09:01.898Z</time></trkpt><trkpt lat="42.1618683" lon="14.6604567"><ele>93.5</ele><time>2026-05-03T08:09:03.898Z</time></trkpt><trkpt lat="42.161905" lon="14.660615"><ele>93.25</ele><time>2026-05-03T08:09:05.898Z</time></trkpt><trkpt lat="42.161945" lon="14.6607733"><ele>93.0</ele><time>2026-05-03T08:09:07.898Z</time></trkpt><trkpt lat="42.1619833" lon="14.6609333"><ele>93.0</ele><time>2026-05-03T08:09:09.898Z</time></trkpt><trkpt lat="42.1620033" lon="14.661015"><ele>93.0</ele><time>2026-05-03T08:09:10.898Z</time></trkpt><trkpt lat="42.162045" lon="14.66117"><ele>93.0</ele><time>2026-05-03T08:09:12.898Z</time></trkpt><trkpt lat="42.1620867" lon="14.6613217"><ele>93.0</ele><time>2026-05-03T08:09:14.897Z</time></trkpt><trkpt lat="42.162115" lon="14.6614017"><ele>93.0</ele><time>2026-05-03T08:09:15.897Z</time></trkpt><trkpt lat="42.16214" lon="14.6614833"><ele>93.0</ele><time>2026-05-03T08:09:16.897Z</time></trkpt><trkpt lat="42.162165" lon="14.6615617"><ele>93.00000000000001</ele><time>2026-05-03T08:09:17.898Z</time></trkpt><trkpt lat="42.162195" lon="14.661645"><ele>93.0</ele><time>2026-05-03T08:09:18.897Z</time></trkpt><trkpt lat="42.1622267" lon="14.661725"><ele>93.0</ele><time>2026-05-03T08:09:19.897Z</time></trkpt><trkpt lat="42.1622567" lon="14.66181"><ele>93.0</ele><time>2026-05-03T08:09:20.898Z</time></trkpt><trkpt lat="42.1622917" lon="14.6618833"><ele>93.0</ele><time>2026-05-03T08:09:21.898Z</time></trkpt><trkpt lat="42.16233" lon="14.6619567"><ele>93.00000000000001</ele><time>2026-05-03T08:09:22.897Z</time></trkpt><trkpt lat="42.1623733" lon="14.662035"><ele>93.0</ele><time>2026-05-03T08:09:23.898Z</time></trkpt><trkpt lat="42.16242" lon="14.66211"><ele>92.28571428571429</ele><time>2026-05-03T08:09:24.898Z</time></trkpt><trkpt lat="42.1624667" lon="14.6621833"><ele>91.57142857142857</ele><time>2026-05-03T08:09:25.898Z</time></trkpt><trkpt lat="42.1625167" lon="14.66225"><ele>90.85714285714286</ele><time>2026-05-03T08:09:26.898Z</time></trkpt><trkpt lat="42.1625733" lon="14.6623133"><ele>90.14285714285714</ele><time>2026-05-03T08:09:27.898Z</time></trkpt><trkpt lat="42.1626283" lon="14.662375"><ele>89.42857142857143</ele><time>2026-05-03T08:09:28.898Z</time></trkpt><trkpt lat="42.162685" lon="14.6624383"><ele>88.71428571428572</ele><time>2026-05-03T08:09:29.898Z</time></trkpt><trkpt lat="42.1627433" lon="14.6625017"><ele>88.0</ele><time>2026-05-03T08:09:30.898Z</time></trkpt><trkpt lat="42.1627967" lon="14.662565"><ele>88.0</ele><time>2026-05-03T08:09:31.898Z</time></trkpt><trkpt lat="42.1628467" lon="14.6626283"><ele>88.0</ele><time>2026-05-03T08:09:32.897Z</time></trkpt><trkpt lat="42.1629017" lon="14.662695"><ele>88.0</ele><time>2026-05-03T08:09:33.898Z</time></trkpt><trkpt lat="42.16295" lon="14.6627667"><ele>88.0</ele><time>2026-05-03T08:09:34.897Z</time></trkpt><trkpt lat="42.162995" lon="14.6628383"><ele>88.0</ele><time>2026-05-03T08:09:35.898Z</time></trkpt><trkpt lat="42.1630433" lon="14.6629133"><ele>88.0</ele><time>2026-05-03T08:09:36.898Z</time></trkpt><trkpt lat="42.16309" lon="14.6629883"><ele>88.0</ele><time>2026-05-03T08:09:37.898Z</time></trkpt><trkpt lat="42.1631333" lon="14.6630667"><ele>88.0</ele><time>2026-05-03T08:09:38.898Z</time></trkpt><trkpt lat="42.1631733" lon="14.6631517"><ele>88.0</ele><time>2026-05-03T08:09:39.898Z</time></trkpt><trkpt lat="42.1632083" lon="14.6632367"><ele>88.0</ele><time>2026-05-03T08:09:40.898Z</time></trkpt><trkpt lat="42.16325" lon="14.66332"><ele>88.0</ele><time>2026-05-03T08:09:41.897Z</time></trkpt><trkpt lat="42.1632883" lon="14.6634083"><ele>88.0</ele><time>2026-05-03T08:09:42.898Z</time></trkpt><trkpt lat="42.1633267" lon="14.66349"><ele>88.0</ele><time>2026-05-03T08:09:43.898Z</time></trkpt><trkpt lat="42.163365" lon="14.66357"><ele>88.0</ele><time>2026-05-03T08:09:44.898Z</time></trkpt><trkpt lat="42.1634033" lon="14.6636533"><ele>87.0</ele><time>2026-05-03T08:09:45.898Z</time></trkpt><trkpt lat="42.1634433" lon="14.6637417"><ele>86.0</ele><time>2026-05-03T08:09:46.898Z</time></trkpt><trkpt lat="42.1634883" lon="14.6638283"><ele>85.0</ele><time>2026-05-03T08:09:47.897Z</time></trkpt><trkpt lat="42.16353" lon="14.6639183"><ele>84.0</ele><time>2026-05-03T08:09:48.897Z</time></trkpt><trkpt lat="42.16357" lon="14.6640017"><ele>83.0</ele><time>2026-05-03T08:09:49.898Z</time></trkpt><trkpt lat="42.163615" lon="14.6640833"><ele>82.0</ele><time>2026-05-03T08:09:50.898Z</time></trkpt><trkpt lat="42.1636567" lon="14.6641633"><ele>81.99999999999999</ele><time>2026-05-03T08:09:51.898Z</time></trkpt><trkpt lat="42.1637033" lon="14.6642433"><ele>82.0</ele><time>2026-05-03T08:09:52.898Z</time></trkpt><trkpt lat="42.1637483" lon="14.6643233"><ele>82.0</ele><time>2026-05-03T08:09:53.898Z</time></trkpt><trkpt lat="42.1637917" lon="14.664395"><ele>82.0</ele><time>2026-05-03T08:09:54.898Z</time></trkpt><trkpt lat="42.1638367" lon="14.6644683"><ele>82.0</ele><time>2026-05-03T08:09:55.898Z</time></trkpt><trkpt lat="42.16388" lon="14.6645433"><ele>81.99999999999999</ele><time>2026-05-03T08:09:56.898Z</time></trkpt><trkpt lat="42.1639217" lon="14.6646267"><ele>82.0</ele><time>2026-05-03T08:09:57.897Z</time></trkpt><trkpt lat="42.1639683" lon="14.6647117"><ele>81.66666666666666</ele><time>2026-05-03T08:09:58.898Z</time></trkpt><trkpt lat="42.1640133" lon="14.664795"><ele>81.33333333333333</ele><time>2026-05-03T08:09:59.898Z</time></trkpt><trkpt lat="42.1640433" lon="14.6648817"><ele>81.0</ele><time>2026-05-03T08:10:00.898Z</time></trkpt><trkpt lat="42.1640517" lon="14.6649783"><ele>80.66666666666667</ele><time>2026-05-03T08:10:01.898Z</time></trkpt><trkpt lat="42.16404" lon="14.6650767"><ele>80.33333333333334</ele><time>2026-05-03T08:10:02.898Z</time></trkpt><trkpt lat="42.1640183" lon="14.6651633"><ele>80.0</ele><time>2026-05-03T08:10:03.898Z</time></trkpt><trkpt lat="42.1639833" lon="14.6653267"><ele>79.85714285714286</ele><time>2026-05-03T08:10:05.898Z</time></trkpt><trkpt lat="42.1639683" lon="14.6654117"><ele>79.71428571428572</ele><time>2026-05-03T08:10:06.898Z</time></trkpt><trkpt lat="42.1639633" lon="14.6655033"><ele>79.57142857142858</ele><time>2026-05-03T08:10:07.898Z</time></trkpt><trkpt lat="42.16396" lon="14.66559"><ele>79.42857142857143</ele><time>2026-05-03T08:10:08.898Z</time></trkpt><trkpt lat="42.1639633" lon="14.6656833"><ele>79.28571428571429</ele><time>2026-05-03T08:10:09.897Z</time></trkpt><trkpt lat="42.1639617" lon="14.6657683"><ele>79.14285714285715</ele><time>2026-05-03T08:10:10.897Z</time></trkpt><trkpt lat="42.1639483" lon="14.6659217"><ele>79.0</ele><time>2026-05-03T08:10:12.897Z</time></trkpt><trkpt lat="42.1639267" lon="14.6660667"><ele>78.5</ele><time>2026-05-03T08:10:14.897Z</time></trkpt><trkpt lat="42.1639133" lon="14.6662133"><ele>78.0</ele><time>2026-05-03T08:10:16.897Z</time></trkpt><trkpt lat="42.1638967" lon="14.6663633"><ele>77.5</ele><time>2026-05-03T08:10:18.897Z</time></trkpt><trkpt lat="42.1638817" lon="14.6665183"><ele>77.0</ele><time>2026-05-03T08:10:20.897Z</time></trkpt><trkpt lat="42.163865" lon="14.6666733"><ele>77.0</ele><time>2026-05-03T08:10:22.898Z</time></trkpt><trkpt lat="42.163845" lon="14.666825"><ele>77.0</ele><time>2026-05-03T08:10:24.897Z</time></trkpt><trkpt lat="42.1638367" lon="14.6669833"><ele>77.0</ele><time>2026-05-03T08:10:26.898Z</time></trkpt><trkpt lat="42.1638167" lon="14.6671333"><ele>77.0</ele><time>2026-05-03T08:10:28.898Z</time></trkpt><trkpt lat="42.16379" lon="14.6672683"><ele>77.0</ele><time>2026-05-03T08:10:30.898Z</time></trkpt><trkpt lat="42.1637733" lon="14.6674133"><ele>77.0</ele><time>2026-05-03T08:10:32.897Z</time></trkpt><trkpt lat="42.16376" lon="14.66755"><ele>77.0</ele><time>2026-05-03T08:10:34.898Z</time></trkpt><trkpt lat="42.163735" lon="14.6676717"><ele>77.0</ele><time>2026-05-03T08:10:36.898Z</time></trkpt><trkpt lat="42.163705" lon="14.6677967"><ele>77.0</ele><time>2026-05-03T08:10:38.898Z</time></trkpt><trkpt lat="42.1636633" lon="14.66792"><ele>77.0</ele><time>2026-05-03T08:10:40.898Z</time></trkpt><trkpt lat="42.1636217" lon="14.6680517"><ele>76.6</ele><time>2026-05-03T08:10:42.898Z</time></trkpt><trkpt lat="42.1635717" lon="14.6681617"><ele>76.2</ele><time>2026-05-03T08:10:44.898Z</time></trkpt><trkpt lat="42.163515" lon="14.6682683"><ele>75.8</ele><time>2026-05-03T08:10:46.898Z</time></trkpt><trkpt lat="42.1634483" lon="14.6683717"><ele>75.4</ele><time>2026-05-03T08:10:48.897Z</time></trkpt><trkpt lat="42.1633817" lon="14.6684717"><ele>75.0</ele><time>2026-05-03T08:10:50.897Z</time></trkpt><trkpt lat="42.16331" lon="14.668555"><ele>75.0</ele><time>2026-05-03T08:10:52.898Z</time></trkpt><trkpt lat="42.1632367" lon="14.668635"><ele>75.0</ele><time>2026-05-03T08:10:54.897Z</time></trkpt><trkpt lat="42.1631633" lon="14.668735"><ele>75.0</ele><time>2026-05-03T08:10:56.898Z</time></trkpt><trkpt lat="42.1630917" lon="14.6688383"><ele>75.0</ele><time>2026-05-03T08:10:58.898Z</time></trkpt><trkpt lat="42.1630267" lon="14.6689383"><ele>75.0</ele><time>2026-05-03T08:11:00.898Z</time></trkpt><trkpt lat="42.16296" lon="14.6690417"><ele>75.4</ele><time>2026-05-03T08:11:02.898Z</time></trkpt><trkpt lat="42.1629033" lon="14.6691467"><ele>75.8</ele><time>2026-05-03T08:11:04.898Z</time></trkpt><trkpt lat="42.16284" lon="14.6692433"><ele>76.2</ele><time>2026-05-03T08:11:06.898Z</time></trkpt><trkpt lat="42.16278" lon="14.6693367"><ele>76.6</ele><time>2026-05-03T08:11:08.897Z</time></trkpt><trkpt lat="42.16272" lon="14.66943"><ele>77.0</ele><time>2026-05-03T08:11:10.897Z</time></trkpt><trkpt lat="42.1626667" lon="14.669535"><ele>77.0</ele><time>2026-05-03T08:11:12.897Z</time></trkpt><trkpt lat="42.162615" lon="14.6696317"><ele>77.0</ele><time>2026-05-03T08:11:14.898Z</time></trkpt><trkpt lat="42.1625633" lon="14.66973"><ele>77.0</ele><time>2026-05-03T08:11:16.898Z</time></trkpt><trkpt lat="42.16252" lon="14.6698333"><ele>77.0</ele><time>2026-05-03T08:11:18.898Z</time></trkpt><trkpt lat="42.16248" lon="14.6699283"><ele>77.0</ele><time>2026-05-03T08:11:20.898Z</time></trkpt><trkpt lat="42.162435" lon="14.6700233"><ele>77.0</ele><time>2026-05-03T08:11:22.898Z</time></trkpt><trkpt lat="42.1623933" lon="14.6701267"><ele>77.16666666666667</ele><time>2026-05-03T08:11:24.898Z</time></trkpt><trkpt lat="42.1623467" lon="14.670225"><ele>77.33333333333334</ele><time>2026-05-03T08:11:26.897Z</time></trkpt><trkpt lat="42.1623033" lon="14.6703183"><ele>77.5</ele><time>2026-05-03T08:11:28.897Z</time></trkpt><trkpt lat="42.162255" lon="14.67041"><ele>77.66666666666667</ele><time>2026-05-03T08:11:30.897Z</time></trkpt><trkpt lat="42.1621883" lon="14.67049"><ele>77.83333333333333</ele><time>2026-05-03T08:11:32.898Z</time></trkpt><trkpt lat="42.1621333" lon="14.6705683"><ele>78.0</ele><time>2026-05-03T08:11:34.897Z</time></trkpt><trkpt lat="42.1620667" lon="14.6706233"><ele>78.0</ele><time>2026-05-03T08:11:36.898Z</time></trkpt><trkpt lat="42.1619967" lon="14.67069"><ele>78.0</ele><time>2026-05-03T08:11:38.897Z</time></trkpt><trkpt lat="42.1619267" lon="14.670765"><ele>78.0</ele><time>2026-05-03T08:11:40.898Z</time></trkpt><trkpt lat="42.1618617" lon="14.67086"><ele>78.0</ele><time>2026-05-03T08:11:42.898Z</time></trkpt><trkpt lat="42.161795" lon="14.6709683"><ele>78.0</ele><time>2026-05-03T08:11:44.897Z</time></trkpt><trkpt lat="42.1617533" lon="14.6711233"><ele>77.75</ele><time>2026-05-03T08:11:46.898Z</time></trkpt><trkpt lat="42.1617033" lon="14.6712783"><ele>77.5</ele><time>2026-05-03T08:11:48.897Z</time></trkpt><trkpt lat="42.16165" lon="14.6714333"><ele>77.25</ele><time>2026-05-03T08:11:50.897Z</time></trkpt><trkpt lat="42.1615917" lon="14.671585"><ele>77.0</ele><time>2026-05-03T08:11:52.897Z</time></trkpt><trkpt lat="42.1615083" lon="14.67171"><ele>77.0</ele><time>2026-05-03T08:11:54.898Z</time></trkpt><trkpt lat="42.16144" lon="14.67184"><ele>77.0</ele><time>2026-05-03T08:11:56.898Z</time></trkpt><trkpt lat="42.161395" lon="14.6719817"><ele>77.0</ele><time>2026-05-03T08:11:58.898Z</time></trkpt><trkpt lat="42.1613533" lon="14.6721183"><ele>77.0</ele><time>2026-05-03T08:12:00.898Z</time></trkpt><trkpt lat="42.1613083" lon="14.6722517"><ele>76.8</ele><time>2026-05-03T08:12:02.897Z</time></trkpt><trkpt lat="42.1612633" lon="14.6723933"><ele>76.6</ele><time>2026-05-03T08:12:04.898Z</time></trkpt><trkpt lat="42.1612267" lon="14.67255"><ele>76.39999999999999</ele><time>2026-05-03T08:12:06.898Z</time></trkpt><trkpt lat="42.1611983" lon="14.6727033"><ele>76.2</ele><time>2026-05-03T08:12:08.898Z</time></trkpt><trkpt lat="42.1611467" lon="14.672805"><ele>76.0</ele><time>2026-05-03T08:12:10.897Z</time></trkpt><trkpt lat="42.1610567" lon="14.6728533"><ele>76.0</ele><time>2026-05-03T08:12:12.897Z</time></trkpt><trkpt lat="42.1609783" lon="14.6729067"><ele>76.0</ele><time>2026-05-03T08:12:14.898Z</time></trkpt><trkpt lat="42.1608833" lon="14.6729317"><ele>76.0</ele><time>2026-05-03T08:12:16.898Z</time></trkpt><trkpt lat="42.1607833" lon="14.6729133"><ele>76.0</ele><time>2026-05-03T08:12:18.897Z</time></trkpt><trkpt lat="42.1606883" lon="14.67288"><ele>76.0</ele><time>2026-05-03T08:12:20.898Z</time></trkpt><trkpt lat="42.1606083" lon="14.6728417"><ele>76.33333333333333</ele><time>2026-05-03T08:12:22.898Z</time></trkpt><trkpt lat="42.1605233" lon="14.672785"><ele>76.66666666666666</ele><time>2026-05-03T08:12:24.897Z</time></trkpt><trkpt lat="42.160445" lon="14.6727167"><ele>77.0</ele><time>2026-05-03T08:12:26.897Z</time></trkpt><trkpt lat="42.1603867" lon="14.6726367"><ele>77.33333333333333</ele><time>2026-05-03T08:12:28.898Z</time></trkpt><trkpt lat="42.1603317" lon="14.6725583"><ele>77.66666666666667</ele><time>2026-05-03T08:12:30.898Z</time></trkpt><trkpt lat="42.1602767" lon="14.67246"><ele>78.0</ele><time>2026-05-03T08:12:32.898Z</time></trkpt><trkpt lat="42.16022" lon="14.67237"><ele>78.0</ele><time>2026-05-03T08:12:34.897Z</time></trkpt><trkpt lat="42.1601683" lon="14.672275"><ele>78.0</ele><time>2026-05-03T08:12:36.898Z</time></trkpt><trkpt lat="42.1601233" lon="14.67218"><ele>78.0</ele><time>2026-05-03T08:12:38.897Z</time></trkpt><trkpt lat="42.1600733" lon="14.6720917"><ele>78.0</ele><time>2026-05-03T08:12:40.898Z</time></trkpt><trkpt lat="42.160025" lon="14.6720033"><ele>78.0</ele><time>2026-05-03T08:12:42.898Z</time></trkpt><trkpt lat="42.1599717" lon="14.6719183"><ele>78.0</ele><time>2026-05-03T08:12:44.897Z</time></trkpt><trkpt lat="42.159915" lon="14.6718767"><ele>78.0</ele><time>2026-05-03T08:12:46.898Z</time></trkpt><trkpt lat="42.1598317" lon="14.6719"><ele>78.0</ele><time>2026-05-03T08:12:48.898Z</time></trkpt><trkpt lat="42.1597617" lon="14.6719683"><ele>78.0</ele><time>2026-05-03T08:12:50.898Z</time></trkpt><trkpt lat="42.1596967" lon="14.6720617"><ele>78.0</ele><time>2026-05-03T08:12:52.897Z</time></trkpt><trkpt lat="42.1596183" lon="14.6721583"><ele>78.0</ele><time>2026-05-03T08:12:54.898Z</time></trkpt><trkpt lat="42.1595317" lon="14.6722833"><ele>77.42857142857143</ele><time>2026-05-03T08:12:56.898Z</time></trkpt><trkpt lat="42.1594867" lon="14.672365"><ele>76.85714285714285</ele><time>2026-05-03T08:12:57.898Z</time></trkpt><trkpt lat="42.15944" lon="14.6724333"><ele>76.28571428571428</ele><time>2026-05-03T08:12:58.897Z</time></trkpt><trkpt lat="42.1593917" lon="14.6725067"><ele>75.71428571428572</ele><time>2026-05-03T08:12:59.897Z</time></trkpt><trkpt lat="42.159345" lon="14.6725783"><ele>75.14285714285714</ele><time>2026-05-03T08:13:00.898Z</time></trkpt><trkpt lat="42.159295" lon="14.6726567"><ele>74.57142857142857</ele><time>2026-05-03T08:13:01.898Z</time></trkpt><trkpt lat="42.1592483" lon="14.6727383"><ele>74.0</ele><time>2026-05-03T08:13:02.897Z</time></trkpt><trkpt lat="42.1591967" lon="14.6728417"><ele>74.0</ele><time>2026-05-03T08:13:03.898Z</time></trkpt><trkpt lat="42.1591483" lon="14.6729533"><ele>74.0</ele><time>2026-05-03T08:13:04.897Z</time></trkpt><trkpt lat="42.1590983" lon="14.6730617"><ele>74.0</ele><time>2026-05-03T08:13:05.897Z</time></trkpt><trkpt lat="42.159045" lon="14.67317"><ele>74.0</ele><time>2026-05-03T08:13:06.898Z</time></trkpt><trkpt lat="42.1589917" lon="14.673265"><ele>74.0</ele><time>2026-05-03T08:13:07.897Z</time></trkpt><trkpt lat="42.1589283" lon="14.6733483"><ele>74.0</ele><time>2026-05-03T08:13:08.898Z</time></trkpt><trkpt lat="42.1588583" lon="14.6734183"><ele>74.0</ele><time>2026-05-03T08:13:09.898Z</time></trkpt><trkpt lat="42.1587883" lon="14.6734717"><ele>74.0</ele><time>2026-05-03T08:13:10.898Z</time></trkpt><trkpt lat="42.1587217" lon="14.6735133"><ele>74.0</ele><time>2026-05-03T08:13:11.898Z</time></trkpt><trkpt lat="42.1586583" lon="14.6735583"><ele>74.0</ele><time>2026-05-03T08:13:12.898Z</time></trkpt><trkpt lat="42.1585683" lon="14.6736333"><ele>74.0</ele><time>2026-05-03T08:13:14.898Z</time></trkpt><trkpt lat="42.1584933" lon="14.6737"><ele>74.28571428571429</ele><time>2026-05-03T08:13:17.897Z</time></trkpt><trkpt lat="42.1584233" lon="14.6737483"><ele>74.57142857142857</ele><time>2026-05-03T08:13:21.898Z</time></trkpt><trkpt lat="42.15836" lon="14.6737717"><ele>74.85714285714286</ele><time>2026-05-03T08:13:24.898Z</time></trkpt><trkpt lat="42.1582933" lon="14.6738217"><ele>75.14285714285714</ele><time>2026-05-03T08:13:27.898Z</time></trkpt><trkpt lat="42.1582433" lon="14.6738917"><ele>75.42857142857143</ele><time>2026-05-03T08:13:31.898Z</time></trkpt><trkpt lat="42.1581717" lon="14.673935"><ele>75.71428571428571</ele><time>2026-05-03T08:13:34.898Z</time></trkpt><trkpt lat="42.1581167" lon="14.6739817"><ele>76.0</ele><time>2026-05-03T08:13:36.898Z</time></trkpt><trkpt lat="42.1580633" lon="14.6740383"><ele>76.33333333333333</ele><time>2026-05-03T08:13:38.897Z</time></trkpt><trkpt lat="42.157995" lon="14.67411"><ele>76.66666666666666</ele><time>2026-05-03T08:13:41.898Z</time></trkpt><trkpt lat="42.157945" lon="14.67419"><ele>77.0</ele><time>2026-05-03T08:13:44.898Z</time></trkpt><trkpt lat="42.157885" lon="14.6742617"><ele>77.33333333333333</ele><time>2026-05-03T08:13:47.898Z</time></trkpt><trkpt lat="42.157825" lon="14.67433"><ele>77.66666666666667</ele><time>2026-05-03T08:13:50.898Z</time></trkpt><trkpt lat="42.157775" lon="14.6744117"><ele>78.0</ele><time>2026-05-03T08:13:53.898Z</time></trkpt><trkpt lat="42.1577383" lon="14.6744817"><ele>78.5</ele><time>2026-05-03T08:13:56.897Z</time></trkpt><trkpt lat="42.15769" lon="14.674565"><ele>79.0</ele><time>2026-05-03T08:13:59.897Z</time></trkpt><trkpt lat="42.1576367" lon="14.67465"><ele>79.5</ele><time>2026-05-03T08:14:02.897Z</time></trkpt><trkpt lat="42.15758" lon="14.674725"><ele>80.0</ele><time>2026-05-03T08:14:05.898Z</time></trkpt><trkpt lat="42.1575283" lon="14.6747967"><ele>80.5</ele><time>2026-05-03T08:14:08.897Z</time></trkpt><trkpt lat="42.1574867" lon="14.6748817"><ele>81.0</ele><time>2026-05-03T08:14:11.897Z</time></trkpt><trkpt lat="42.1574367" lon="14.6749717"><ele>81.0</ele><time>2026-05-03T08:14:14.898Z</time></trkpt><trkpt lat="42.157375" lon="14.675055"><ele>81.0</ele><time>2026-05-03T08:14:17.898Z</time></trkpt><trkpt lat="42.1573183" lon="14.675155"><ele>81.0</ele><time>2026-05-03T08:14:20.898Z</time></trkpt><trkpt lat="42.15728" lon="14.6752233"><ele>81.0</ele><time>2026-05-03T08:14:22.898Z</time></trkpt><trkpt lat="42.15724" lon="14.6753117"><ele>81.0</ele><time>2026-05-03T08:14:24.898Z</time></trkpt><trkpt lat="42.1572033" lon="14.6754133"><ele>81.0</ele><time>2026-05-03T08:14:26.897Z</time></trkpt><trkpt lat="42.1571667" lon="14.675515"><ele>81.0</ele><time>2026-05-03T08:14:28.897Z</time></trkpt><trkpt lat="42.1571333" lon="14.6756233"><ele>81.0</ele><time>2026-05-03T08:14:30.898Z</time></trkpt><trkpt lat="42.1571033" lon="14.6757433"><ele>81.0</ele><time>2026-05-03T08:14:32.897Z</time></trkpt><trkpt lat="42.157075" lon="14.675875"><ele>81.0</ele><time>2026-05-03T08:14:34.898Z</time></trkpt><trkpt lat="42.1570633" lon="14.676005"><ele>81.0</ele><time>2026-05-03T08:14:36.898Z</time></trkpt><trkpt lat="42.1570567" lon="14.6761"><ele>80.66666666666667</ele><time>2026-05-03T08:14:38.897Z</time></trkpt><trkpt lat="42.1570767" lon="14.6762167"><ele>80.33333333333333</ele><time>2026-05-03T08:14:41.897Z</time></trkpt><trkpt lat="42.15714" lon="14.6762883"><ele>80.0</ele><time>2026-05-03T08:14:43.898Z</time></trkpt><trkpt lat="42.1572183" lon="14.676335"><ele>79.66666666666666</ele><time>2026-05-03T08:14:45.898Z</time></trkpt><trkpt lat="42.157295" lon="14.6763717"><ele>79.33333333333333</ele><time>2026-05-03T08:14:47.898Z</time></trkpt><trkpt lat="42.1573833" lon="14.67641"><ele>79.0</ele><time>2026-05-03T08:14:49.898Z</time></trkpt><trkpt lat="42.1574717" lon="14.6764517"><ele>78.8</ele><time>2026-05-03T08:14:51.898Z</time></trkpt><trkpt lat="42.1575633" lon="14.6765017"><ele>78.60000000000001</ele><time>2026-05-03T08:14:53.898Z</time></trkpt><trkpt lat="42.1576717" lon="14.67655"><ele>78.4</ele><time>2026-05-03T08:14:55.897Z</time></trkpt><trkpt lat="42.15778" lon="14.6766"><ele>78.2</ele><time>2026-05-03T08:14:57.897Z</time></trkpt><trkpt lat="42.1578817" lon="14.6766517"><ele>78.0</ele><time>2026-05-03T08:14:59.898Z</time></trkpt><trkpt lat="42.1579833" lon="14.6767083"><ele>78.0</ele><time>2026-05-03T08:15:01.897Z</time></trkpt><trkpt lat="42.1580917" lon="14.6767667"><ele>78.0</ele><time>2026-05-03T08:15:03.898Z</time></trkpt><trkpt lat="42.1581983" lon="14.67682"><ele>78.0</ele><time>2026-05-03T08:15:05.897Z</time></trkpt><trkpt lat="42.158305" lon="14.6768783"><ele>78.0</ele><time>2026-05-03T08:15:07.898Z</time></trkpt><trkpt lat="42.1584117" lon="14.676935"><ele>77.4</ele><time>2026-05-03T08:15:09.898Z</time></trkpt><trkpt lat="42.1585133" lon="14.67699"><ele>76.8</ele><time>2026-05-03T08:15:11.898Z</time></trkpt><trkpt lat="42.1586117" lon="14.677055"><ele>76.2</ele><time>2026-05-03T08:15:13.897Z</time></trkpt><trkpt lat="42.1587083" lon="14.6771167"><ele>75.6</ele><time>2026-05-03T08:15:15.897Z</time></trkpt><trkpt lat="42.1588067" lon="14.6771833"><ele>75.0</ele><time>2026-05-03T08:15:17.898Z</time></trkpt><trkpt lat="42.158895" lon="14.6772617"><ele>75.0</ele><time>2026-05-03T08:15:19.898Z</time></trkpt><trkpt lat="42.1589933" lon="14.6773367"><ele>75.0</ele><time>2026-05-03T08:15:21.897Z</time></trkpt><trkpt lat="42.1590833" lon="14.6774083"><ele>75.0</ele><time>2026-05-03T08:15:23.898Z</time></trkpt><trkpt lat="42.1591667" lon="14.677475"><ele>75.0</ele><time>2026-05-03T08:15:25.898Z</time></trkpt><trkpt lat="42.159265" lon="14.67754"><ele>75.0</ele><time>2026-05-03T08:15:27.897Z</time></trkpt><trkpt lat="42.159365" lon="14.6776133"><ele>74.5</ele><time>2026-05-03T08:15:29.898Z</time></trkpt><trkpt lat="42.1594667" lon="14.6776967"><ele>74.0</ele><time>2026-05-03T08:15:31.898Z</time></trkpt><trkpt lat="42.1595633" lon="14.6777767"><ele>73.5</ele><time>2026-05-03T08:15:33.897Z</time></trkpt><trkpt lat="42.1596583" lon="14.6778567"><ele>73.0</ele><time>2026-05-03T08:15:35.897Z</time></trkpt><trkpt lat="42.1597533" lon="14.67796"><ele>72.83333333333333</ele><time>2026-05-03T08:15:37.898Z</time></trkpt><trkpt lat="42.159845" lon="14.6780567"><ele>72.66666666666666</ele><time>2026-05-03T08:15:39.898Z</time></trkpt><trkpt lat="42.1599433" lon="14.6781683"><ele>72.5</ele><time>2026-05-03T08:15:41.897Z</time></trkpt><trkpt lat="42.159995" lon="14.67822"><ele>72.33333333333333</ele><time>2026-05-03T08:15:42.898Z</time></trkpt><trkpt lat="42.160045" lon="14.6782733"><ele>72.16666666666667</ele><time>2026-05-03T08:15:43.898Z</time></trkpt><trkpt lat="42.1600967" lon="14.6783317"><ele>72.0</ele><time>2026-05-03T08:15:44.898Z</time></trkpt><trkpt lat="42.1601867" lon="14.6784383"><ele>72.0</ele><time>2026-05-03T08:15:46.898Z</time></trkpt><trkpt lat="42.1602717" lon="14.6785483"><ele>72.0</ele><time>2026-05-03T08:15:48.897Z</time></trkpt><trkpt lat="42.16032" lon="14.6786067"><ele>72.0</ele><time>2026-05-03T08:15:49.898Z</time></trkpt><trkpt lat="42.1604167" lon="14.6787067"><ele>72.0</ele><time>2026-05-03T08:15:51.897Z</time></trkpt><trkpt lat="42.1605067" lon="14.6788017"><ele>72.0</ele><time>2026-05-03T08:15:53.898Z</time></trkpt><trkpt lat="42.1605983" lon="14.6789033"><ele>71.5</ele><time>2026-05-03T08:15:55.898Z</time></trkpt><trkpt lat="42.1606983" lon="14.6790017"><ele>71.0</ele><time>2026-05-03T08:15:57.898Z</time></trkpt><trkpt lat="42.16079" lon="14.67911"><ele>70.5</ele><time>2026-05-03T08:15:59.898Z</time></trkpt><trkpt lat="42.1608367" lon="14.6791733"><ele>70.0</ele><time>2026-05-03T08:16:00.898Z</time></trkpt><trkpt lat="42.1608783" lon="14.67924"><ele>69.5</ele><time>2026-05-03T08:16:01.897Z</time></trkpt><trkpt lat="42.16092" lon="14.67931"><ele>69.0</ele><time>2026-05-03T08:16:02.897Z</time></trkpt><trkpt lat="42.16096" lon="14.67938"><ele>68.4</ele><time>2026-05-03T08:16:03.897Z</time></trkpt><trkpt lat="42.1609933" lon="14.679455"><ele>67.80000000000001</ele><time>2026-05-03T08:16:04.898Z</time></trkpt><trkpt lat="42.1610533" lon="14.67961"><ele>67.19999999999999</ele><time>2026-05-03T08:16:06.898Z</time></trkpt><trkpt lat="42.1610883" lon="14.6796883"><ele>66.6</ele><time>2026-05-03T08:16:07.898Z</time></trkpt><trkpt lat="42.161145" lon="14.6798417"><ele>66.0</ele><time>2026-05-03T08:16:09.897Z</time></trkpt><trkpt lat="42.1611683" lon="14.679925"><ele>66.0</ele><time>2026-05-03T08:16:10.898Z</time></trkpt><trkpt lat="42.1611967" lon="14.680005"><ele>66.0</ele><time>2026-05-03T08:16:11.898Z</time></trkpt><trkpt lat="42.1612267" lon="14.68008"><ele>66.0</ele><time>2026-05-03T08:16:12.897Z</time></trkpt><trkpt lat="42.1612567" lon="14.68016"><ele>66.0</ele><time>2026-05-03T08:16:13.897Z</time></trkpt><trkpt lat="42.1613167" lon="14.68031"><ele>66.0</ele><time>2026-05-03T08:16:15.898Z</time></trkpt><trkpt lat="42.16137" lon="14.68046"><ele>66.0</ele><time>2026-05-03T08:16:17.898Z</time></trkpt><trkpt lat="42.161395" lon="14.6805383"><ele>65.6</ele><time>2026-05-03T08:16:18.898Z</time></trkpt><trkpt lat="42.1614183" lon="14.6806183"><ele>65.19999999999999</ele><time>2026-05-03T08:16:19.898Z</time></trkpt><trkpt lat="42.1614733" lon="14.6807717"><ele>64.80000000000001</ele><time>2026-05-03T08:16:21.898Z</time></trkpt><trkpt lat="42.1615267" lon="14.6809233"><ele>64.4</ele><time>2026-05-03T08:16:23.897Z</time></trkpt><trkpt lat="42.1615767" lon="14.6810783"><ele>64.0</ele><time>2026-05-03T08:16:25.897Z</time></trkpt><trkpt lat="42.161605" lon="14.6811567"><ele>63.71428571428571</ele><time>2026-05-03T08:16:26.898Z</time></trkpt><trkpt lat="42.161635" lon="14.6812367"><ele>63.42857142857142</ele><time>2026-05-03T08:16:27.897Z</time></trkpt><trkpt lat="42.1616667" lon="14.6813117"><ele>63.14285714285714</ele><time>2026-05-03T08:16:28.897Z</time></trkpt><trkpt lat="42.1616933" lon="14.68139"><ele>62.85714285714286</ele><time>2026-05-03T08:16:29.898Z</time></trkpt><trkpt lat="42.16173" lon="14.68147"><ele>62.57142857142858</ele><time>2026-05-03T08:16:30.898Z</time></trkpt><trkpt lat="42.1617667" lon="14.6815483"><ele>62.28571428571429</ele><time>2026-05-03T08:16:31.898Z</time></trkpt><trkpt lat="42.161805" lon="14.68163"><ele>62.0</ele><time>2026-05-03T08:16:32.898Z</time></trkpt><trkpt lat="42.1618367" lon="14.681705"><ele>62.00000000000001</ele><time>2026-05-03T08:16:33.898Z</time></trkpt><trkpt lat="42.1618983" lon="14.6818617"><ele>62.0</ele><time>2026-05-03T08:16:35.897Z</time></trkpt><trkpt lat="42.1619317" lon="14.6819467"><ele>62.0</ele><time>2026-05-03T08:16:36.898Z</time></trkpt><trkpt lat="42.16196" lon="14.6820317"><ele>62.0</ele><time>2026-05-03T08:16:37.897Z</time></trkpt><trkpt lat="42.1619933" lon="14.6821133"><ele>62.00000000000001</ele><time>2026-05-03T08:16:38.898Z</time></trkpt><trkpt lat="42.162025" lon="14.6821967"><ele>62.0</ele><time>2026-05-03T08:16:39.898Z</time></trkpt><trkpt lat="42.1620867" lon="14.682345"><ele>61.66666666666667</ele><time>2026-05-03T08:16:41.898Z</time></trkpt><trkpt lat="42.16212" lon="14.6824183"><ele>61.333333333333336</ele><time>2026-05-03T08:16:42.897Z</time></trkpt><trkpt lat="42.1621517" lon="14.682495"><ele>61.0</ele><time>2026-05-03T08:16:43.898Z</time></trkpt><trkpt lat="42.1621783" lon="14.682575"><ele>60.66666666666667</ele><time>2026-05-03T08:16:44.898Z</time></trkpt><trkpt lat="42.1622083" lon="14.6826517"><ele>60.333333333333336</ele><time>2026-05-03T08:16:45.898Z</time></trkpt><trkpt lat="42.1622617" lon="14.6828067"><ele>60.0</ele><time>2026-05-03T08:16:47.898Z</time></trkpt><trkpt lat="42.1622983" lon="14.68288"><ele>59.57142857142857</ele><time>2026-05-03T08:16:48.897Z</time></trkpt><trkpt lat="42.1623317" lon="14.6829583"><ele>59.14285714285714</ele><time>2026-05-03T08:16:49.897Z</time></trkpt><trkpt lat="42.1623633" lon="14.683035"><ele>58.71428571428571</ele><time>2026-05-03T08:16:50.897Z</time></trkpt><trkpt lat="42.162425" lon="14.683175"><ele>58.285714285714285</ele><time>2026-05-03T08:16:52.898Z</time></trkpt><trkpt lat="42.162455" lon="14.68325"><ele>57.85714285714285</ele><time>2026-05-03T08:16:53.897Z</time></trkpt><trkpt lat="42.1624833" lon="14.6833267"><ele>57.42857142857142</ele><time>2026-05-03T08:16:54.897Z</time></trkpt><trkpt lat="42.1625167" lon="14.683405"><ele>57.0</ele><time>2026-05-03T08:16:55.898Z</time></trkpt><trkpt lat="42.1625467" lon="14.68348"><ele>56.8</ele><time>2026-05-03T08:16:56.898Z</time></trkpt><trkpt lat="42.162615" lon="14.683625"><ele>56.6</ele><time>2026-05-03T08:16:58.898Z</time></trkpt><trkpt lat="42.1626717" lon="14.683775"><ele>56.39999999999999</ele><time>2026-05-03T08:17:00.898Z</time></trkpt><trkpt lat="42.162725" lon="14.6839317"><ele>56.199999999999996</ele><time>2026-05-03T08:17:02.898Z</time></trkpt><trkpt lat="42.1627533" lon="14.68401"><ele>56.0</ele><time>2026-05-03T08:17:03.897Z</time></trkpt><trkpt lat="42.1627833" lon="14.6840933"><ele>56.00000000000001</ele><time>2026-05-03T08:17:04.898Z</time></trkpt><trkpt lat="42.1628167" lon="14.6841683"><ele>56.0</ele><time>2026-05-03T08:17:05.897Z</time></trkpt><trkpt lat="42.1628483" lon="14.6842467"><ele>56.0</ele><time>2026-05-03T08:17:06.898Z</time></trkpt><trkpt lat="42.1628833" lon="14.684325"><ele>56.0</ele><time>2026-05-03T08:17:07.898Z</time></trkpt><trkpt lat="42.1629183" lon="14.6844067"><ele>56.00000000000001</ele><time>2026-05-03T08:17:08.897Z</time></trkpt><trkpt lat="42.1629717" lon="14.6845533"><ele>56.0</ele><time>2026-05-03T08:17:10.898Z</time></trkpt><trkpt lat="42.1630017" lon="14.68463"><ele>55.714285714285715</ele><time>2026-05-03T08:17:11.898Z</time></trkpt><trkpt lat="42.1630367" lon="14.684715"><ele>55.42857142857143</ele><time>2026-05-03T08:17:12.897Z</time></trkpt><trkpt lat="42.1630717" lon="14.6847983"><ele>55.14285714285714</ele><time>2026-05-03T08:17:13.898Z</time></trkpt><trkpt lat="42.1631083" lon="14.68488"><ele>54.85714285714286</ele><time>2026-05-03T08:17:14.898Z</time></trkpt><trkpt lat="42.1631433" lon="14.684955"><ele>54.57142857142857</ele><time>2026-05-03T08:17:15.898Z</time></trkpt><trkpt lat="42.16318" lon="14.6850333"><ele>54.285714285714285</ele><time>2026-05-03T08:17:16.898Z</time></trkpt><trkpt lat="42.16322" lon="14.6851067"><ele>54.0</ele><time>2026-05-03T08:17:17.898Z</time></trkpt><trkpt lat="42.1632717" lon="14.6851967"><ele>53.5</ele><time>2026-05-03T08:17:18.898Z</time></trkpt><trkpt lat="42.1633083" lon="14.6852667"><ele>53.0</ele><time>2026-05-03T08:17:19.898Z</time></trkpt><trkpt lat="42.1633467" lon="14.6853383"><ele>52.5</ele><time>2026-05-03T08:17:20.898Z</time></trkpt><trkpt lat="42.1633867" lon="14.6854067"><ele>52.0</ele><time>2026-05-03T08:17:21.897Z</time></trkpt><trkpt lat="42.16347" lon="14.6855183"><ele>51.5</ele><time>2026-05-03T08:17:23.897Z</time></trkpt><trkpt lat="42.1635517" lon="14.6855933"><ele>51.0</ele><time>2026-05-03T08:17:25.898Z</time></trkpt><trkpt lat="42.1636367" lon="14.6856367"><ele>51.0</ele><time>2026-05-03T08:17:27.898Z</time></trkpt><trkpt lat="42.1637217" lon="14.6856233"><ele>51.0</ele><time>2026-05-03T08:17:29.898Z</time></trkpt><trkpt lat="42.1638" lon="14.6855933"><ele>51.0</ele><time>2026-05-03T08:17:31.898Z</time></trkpt><trkpt lat="42.1638817" lon="14.68552"><ele>51.0</ele><time>2026-05-03T08:17:33.898Z</time></trkpt><trkpt lat="42.16395" lon="14.6854267"><ele>51.0</ele><time>2026-05-03T08:17:35.897Z</time></trkpt><trkpt lat="42.1640133" lon="14.685335"><ele>51.4</ele><time>2026-05-03T08:17:37.898Z</time></trkpt><trkpt lat="42.16408" lon="14.68525"><ele>51.8</ele><time>2026-05-03T08:17:39.898Z</time></trkpt><trkpt lat="42.16414" lon="14.6851667"><ele>52.199999999999996</ele><time>2026-05-03T08:17:41.898Z</time></trkpt><trkpt lat="42.1642017" lon="14.68508"><ele>52.599999999999994</ele><time>2026-05-03T08:17:43.898Z</time></trkpt><trkpt lat="42.1642667" lon="14.6849933"><ele>53.0</ele><time>2026-05-03T08:17:45.898Z</time></trkpt><trkpt lat="42.16433" lon="14.6848933"><ele>53.0</ele><time>2026-05-03T08:17:47.898Z</time></trkpt><trkpt lat="42.1643967" lon="14.6847867"><ele>53.0</ele><time>2026-05-03T08:17:49.898Z</time></trkpt><trkpt lat="42.1644617" lon="14.684695"><ele>53.0</ele><time>2026-05-03T08:17:51.898Z</time></trkpt><trkpt lat="42.1645167" lon="14.68461"><ele>53.0</ele><time>2026-05-03T08:17:53.898Z</time></trkpt><trkpt lat="42.1645733" lon="14.6845183"><ele>53.0</ele><time>2026-05-03T08:17:55.898Z</time></trkpt><trkpt lat="42.1646383" lon="14.6844167"><ele>53.00000000000001</ele><time>2026-05-03T08:17:57.898Z</time></trkpt><trkpt lat="42.1646933" lon="14.6843367"><ele>53.0</ele><time>2026-05-03T08:17:59.898Z</time></trkpt><trkpt lat="42.1647517" lon="14.6842633"><ele>53.0</ele><time>2026-05-03T08:18:01.898Z</time></trkpt><trkpt lat="42.164815" lon="14.6841967"><ele>53.0</ele><time>2026-05-03T08:18:03.898Z</time></trkpt><trkpt lat="42.1648733" lon="14.684135"><ele>53.00000000000001</ele><time>2026-05-03T08:18:05.897Z</time></trkpt><trkpt lat="42.1649383" lon="14.6840717"><ele>53.0</ele><time>2026-05-03T08:18:07.897Z</time></trkpt><trkpt lat="42.1649967" lon="14.6840067"><ele>52.833333333333336</ele><time>2026-05-03T08:18:09.897Z</time></trkpt><trkpt lat="42.1650567" lon="14.6839333"><ele>52.66666666666667</ele><time>2026-05-03T08:18:11.898Z</time></trkpt><trkpt lat="42.1651133" lon="14.6838433"><ele>52.5</ele><time>2026-05-03T08:18:13.898Z</time></trkpt><trkpt lat="42.165165" lon="14.6837483"><ele>52.33333333333333</ele><time>2026-05-03T08:18:15.898Z</time></trkpt><trkpt lat="42.1652133" lon="14.6836467"><ele>52.166666666666664</ele><time>2026-05-03T08:18:17.898Z</time></trkpt><trkpt lat="42.1652567" lon="14.68355"><ele>52.0</ele><time>2026-05-03T08:18:19.898Z</time></trkpt><trkpt lat="42.165295" lon="14.68345"><ele>51.83333333333333</ele><time>2026-05-03T08:18:21.898Z</time></trkpt><trkpt lat="42.16533" lon="14.6833667"><ele>51.666666666666664</ele><time>2026-05-03T08:18:23.897Z</time></trkpt><trkpt lat="42.16536" lon="14.6832417"><ele>51.5</ele><time>2026-05-03T08:18:25.897Z</time></trkpt><trkpt lat="42.165385" lon="14.6831117"><ele>51.33333333333333</ele><time>2026-05-03T08:18:27.898Z</time></trkpt><trkpt lat="42.1654117" lon="14.6829983"><ele>51.166666666666664</ele><time>2026-05-03T08:18:29.898Z</time></trkpt><trkpt lat="42.1654483" lon="14.6829033"><ele>51.0</ele><time>2026-05-03T08:18:31.898Z</time></trkpt><trkpt lat="42.1655" lon="14.6828417"><ele>51.0</ele><time>2026-05-03T08:18:33.898Z</time></trkpt><trkpt lat="42.165575" lon="14.6828233"><ele>51.0</ele><time>2026-05-03T08:18:37.898Z</time></trkpt><trkpt lat="42.1656533" lon="14.6828417"><ele>51.0</ele><time>2026-05-03T08:18:41.898Z</time></trkpt><trkpt lat="42.16572" lon="14.68285"><ele>51.0</ele><time>2026-05-03T08:18:43.897Z</time></trkpt><trkpt lat="42.1658067" lon="14.6828617"><ele>51.0</ele><time>2026-05-03T08:18:45.898Z</time></trkpt><trkpt lat="42.165905" lon="14.6828467"><ele>51.0</ele><time>2026-05-03T08:18:47.897Z</time></trkpt><trkpt lat="42.1659967" lon="14.6828017"><ele>51.0</ele><time>2026-05-03T08:18:49.898Z</time></trkpt><trkpt lat="42.1660833" lon="14.682735"><ele>51.0</ele><time>2026-05-03T08:18:51.898Z</time></trkpt><trkpt lat="42.1661667" lon="14.68265"><ele>51.0</ele><time>2026-05-03T08:18:53.898Z</time></trkpt><trkpt lat="42.166235" lon="14.68256"><ele>51.0</ele><time>2026-05-03T08:18:55.898Z</time></trkpt><trkpt lat="42.166295" lon="14.682505"><ele>51.0</ele><time>2026-05-03T08:18:57.897Z</time></trkpt><trkpt lat="42.16636" lon="14.6824767"><ele>51.0</ele><time>2026-05-03T08:18:59.898Z</time></trkpt><trkpt lat="42.1664267" lon="14.6824933"><ele>51.0</ele><time>2026-05-03T08:19:01.898Z</time></trkpt><trkpt lat="42.1664783" lon="14.6825817"><ele>51.0</ele><time>2026-05-03T08:19:04.898Z</time></trkpt><trkpt lat="42.16644" lon="14.6826933"><ele>51.0</ele><time>2026-05-03T08:19:07.897Z</time></trkpt><trkpt lat="42.1664" lon="14.6827683"><ele>51.0</ele><time>2026-05-03T08:19:09.897Z</time></trkpt><trkpt lat="42.1663633" lon="14.6828567"><ele>51.0</ele><time>2026-05-03T08:19:11.898Z</time></trkpt><trkpt lat="42.1663267" lon="14.68295"><ele>51.0</ele><time>2026-05-03T08:19:14.898Z</time></trkpt><trkpt lat="42.1663" lon="14.6830317"><ele>50.833333333333336</ele><time>2026-05-03T08:19:17.898Z</time></trkpt><trkpt lat="42.1662767" lon="14.6831233"><ele>50.66666666666667</ele><time>2026-05-03T08:19:20.897Z</time></trkpt><trkpt lat="42.1662583" lon="14.68322"><ele>50.5</ele><time>2026-05-03T08:19:23.898Z</time></trkpt><trkpt lat="42.166255" lon="14.6833283"><ele>50.333333333333336</ele><time>2026-05-03T08:19:26.897Z</time></trkpt><trkpt lat="42.1662633" lon="14.6834517"><ele>50.16666666666667</ele><time>2026-05-03T08:19:29.898Z</time></trkpt><trkpt lat="42.1662783" lon="14.6835467"><ele>50.0</ele><time>2026-05-03T08:19:31.897Z</time></trkpt><trkpt lat="42.1663033" lon="14.6836533"><ele>50.00000000000001</ele><time>2026-05-03T08:19:33.897Z</time></trkpt><trkpt lat="42.1663333" lon="14.683765"><ele>50.0</ele><time>2026-05-03T08:19:35.898Z</time></trkpt><trkpt lat="42.1663633" lon="14.6838867"><ele>50.0</ele><time>2026-05-03T08:19:37.898Z</time></trkpt><trkpt lat="42.1663933" lon="14.6839967"><ele>50.0</ele><time>2026-05-03T08:19:39.898Z</time></trkpt><trkpt lat="42.1664217" lon="14.6841017"><ele>50.00000000000001</ele><time>2026-05-03T08:19:41.898Z</time></trkpt><trkpt lat="42.1664633" lon="14.6842083"><ele>50.0</ele><time>2026-05-03T08:19:43.898Z</time></trkpt><trkpt lat="42.166495" lon="14.6843083"><ele>50.00000000000001</ele><time>2026-05-03T08:19:45.898Z</time></trkpt><trkpt lat="42.1665267" lon="14.6844267"><ele>50.0</ele><time>2026-05-03T08:19:47.897Z</time></trkpt><trkpt lat="42.1665517" lon="14.6845383"><ele>50.0</ele><time>2026-05-03T08:19:49.898Z</time></trkpt><trkpt lat="42.166575" lon="14.6846517"><ele>50.0</ele><time>2026-05-03T08:19:51.898Z</time></trkpt><trkpt lat="42.166605" lon="14.68477"><ele>50.00000000000001</ele><time>2026-05-03T08:19:53.898Z</time></trkpt><trkpt lat="42.1666283" lon="14.6848817"><ele>50.0</ele><time>2026-05-03T08:19:55.897Z</time></trkpt><trkpt lat="42.1666483" lon="14.6849933"><ele>49.6</ele><time>2026-05-03T08:19:57.898Z</time></trkpt><trkpt lat="42.1666567" lon="14.6851217"><ele>49.2</ele><time>2026-05-03T08:19:59.898Z</time></trkpt><trkpt lat="42.1666633" lon="14.685255"><ele>48.8</ele><time>2026-05-03T08:20:01.898Z</time></trkpt><trkpt lat="42.1666667" lon="14.685385"><ele>48.4</ele><time>2026-05-03T08:20:03.898Z</time></trkpt><trkpt lat="42.1666667" lon="14.6855233"><ele>48.0</ele><time>2026-05-03T08:20:05.898Z</time></trkpt><trkpt lat="42.166665" lon="14.68565"><ele>48.0</ele><time>2026-05-03T08:20:07.898Z</time></trkpt><trkpt lat="42.1666733" lon="14.6857867"><ele>48.0</ele><time>2026-05-03T08:20:09.898Z</time></trkpt><trkpt lat="42.1666717" lon="14.6859183"><ele>48.0</ele><time>2026-05-03T08:20:11.898Z</time></trkpt><trkpt lat="42.1666617" lon="14.6860533"><ele>48.0</ele><time>2026-05-03T08:20:13.898Z</time></trkpt><trkpt lat="42.1666633" lon="14.6861783"><ele>48.0</ele><time>2026-05-03T08:20:15.897Z</time></trkpt><trkpt lat="42.1666733" lon="14.6863117"><ele>47.8</ele><time>2026-05-03T08:20:17.898Z</time></trkpt><trkpt lat="42.1666733" lon="14.68644"><ele>47.599999999999994</ele><time>2026-05-03T08:20:19.897Z</time></trkpt><trkpt lat="42.1666683" lon="14.6865733"><ele>47.400000000000006</ele><time>2026-05-03T08:20:21.898Z</time></trkpt><trkpt lat="42.1666667" lon="14.6867133"><ele>47.2</ele><time>2026-05-03T08:20:23.897Z</time></trkpt><trkpt lat="42.1666717" lon="14.6868483"><ele>47.0</ele><time>2026-05-03T08:20:25.898Z</time></trkpt><trkpt lat="42.166675" lon="14.686985"><ele>46.8</ele><time>2026-05-03T08:20:27.898Z</time></trkpt><trkpt lat="42.1666733" lon="14.687125"><ele>46.6</ele><time>2026-05-03T08:20:29.898Z</time></trkpt><trkpt lat="42.1666683" lon="14.6872683"><ele>46.4</ele><time>2026-05-03T08:20:31.898Z</time></trkpt><trkpt lat="42.1666683" lon="14.6874"><ele>46.199999999999996</ele><time>2026-05-03T08:20:33.898Z</time></trkpt><trkpt lat="42.1666683" lon="14.687535"><ele>46.0</ele><time>2026-05-03T08:20:35.898Z</time></trkpt><trkpt lat="42.1666767" lon="14.6876767"><ele>46.0</ele><time>2026-05-03T08:20:37.898Z</time></trkpt><trkpt lat="42.1666817" lon="14.6878183"><ele>46.0</ele><time>2026-05-03T08:20:39.898Z</time></trkpt><trkpt lat="42.1666933" lon="14.687965"><ele>46.0</ele><time>2026-05-03T08:20:41.898Z</time></trkpt><trkpt lat="42.1667033" lon="14.688105"><ele>46.0</ele><time>2026-05-03T08:20:43.898Z</time></trkpt><trkpt lat="42.1667133" lon="14.6882533"><ele>46.0</ele><time>2026-05-03T08:20:45.898Z</time></trkpt><trkpt lat="42.1667267" lon="14.6884"><ele>46.0</ele><time>2026-05-03T08:20:47.897Z</time></trkpt><trkpt lat="42.1667367" lon="14.688535"><ele>46.0</ele><time>2026-05-03T08:20:49.898Z</time></trkpt><trkpt lat="42.1667567" lon="14.6886817"><ele>46.0</ele><time>2026-05-03T08:20:51.898Z</time></trkpt><trkpt lat="42.1667683" lon="14.6888217"><ele>46.0</ele><time>2026-05-03T08:20:53.898Z</time></trkpt><trkpt lat="42.1667833" lon="14.6889567"><ele>46.0</ele><time>2026-05-03T08:20:55.897Z</time></trkpt><trkpt lat="42.1668" lon="14.689105"><ele>45.8</ele><time>2026-05-03T08:20:57.897Z</time></trkpt><trkpt lat="42.16681" lon="14.689245"><ele>45.599999999999994</ele><time>2026-05-03T08:20:59.897Z</time></trkpt><trkpt lat="42.1668133" lon="14.689385"><ele>45.4</ele><time>2026-05-03T08:21:01.897Z</time></trkpt><trkpt lat="42.1668233" lon="14.6895267"><ele>45.2</ele><time>2026-05-03T08:21:03.898Z</time></trkpt><trkpt lat="42.1668367" lon="14.68966"><ele>45.0</ele><time>2026-05-03T08:21:05.897Z</time></trkpt><trkpt lat="42.1668467" lon="14.689785"><ele>45.0</ele><time>2026-05-03T08:21:07.898Z</time></trkpt><trkpt lat="42.1668583" lon="14.6899183"><ele>45.0</ele><time>2026-05-03T08:21:09.898Z</time></trkpt><trkpt lat="42.1668783" lon="14.6900417"><ele>45.0</ele><time>2026-05-03T08:21:11.897Z</time></trkpt><trkpt lat="42.1668933" lon="14.6901733"><ele>45.0</ele><time>2026-05-03T08:21:13.898Z</time></trkpt><trkpt lat="42.166905" lon="14.690315"><ele>45.0</ele><time>2026-05-03T08:21:15.898Z</time></trkpt><trkpt lat="42.1669133" lon="14.6904517"><ele>44.8</ele><time>2026-05-03T08:21:17.897Z</time></trkpt><trkpt lat="42.1669283" lon="14.6905883"><ele>44.6</ele><time>2026-05-03T08:21:19.898Z</time></trkpt><trkpt lat="42.166935" lon="14.6907167"><ele>44.400000000000006</ele><time>2026-05-03T08:21:21.897Z</time></trkpt><trkpt lat="42.1669433" lon="14.6908533"><ele>44.2</ele><time>2026-05-03T08:21:23.898Z</time></trkpt><trkpt lat="42.166955" lon="14.6909917"><ele>44.0</ele><time>2026-05-03T08:21:25.898Z</time></trkpt><trkpt lat="42.1669617" lon="14.6911317"><ele>43.6</ele><time>2026-05-03T08:21:27.898Z</time></trkpt><trkpt lat="42.166975" lon="14.69127"><ele>43.2</ele><time>2026-05-03T08:21:29.898Z</time></trkpt><trkpt lat="42.1669967" lon="14.6914083"><ele>42.800000000000004</ele><time>2026-05-03T08:21:31.898Z</time></trkpt><trkpt lat="42.1670183" lon="14.6915467"><ele>42.400000000000006</ele><time>2026-05-03T08:21:33.898Z</time></trkpt><trkpt lat="42.16704" lon="14.6916717"><ele>42.0</ele><time>2026-05-03T08:21:35.897Z</time></trkpt><trkpt lat="42.167065" lon="14.6918033"><ele>42.0</ele><time>2026-05-03T08:21:37.898Z</time></trkpt><trkpt lat="42.167095" lon="14.69194"><ele>42.0</ele><time>2026-05-03T08:21:39.898Z</time></trkpt><trkpt lat="42.1671217" lon="14.6920633"><ele>42.0</ele><time>2026-05-03T08:21:41.898Z</time></trkpt><trkpt lat="42.16715" lon="14.69218"><ele>42.0</ele><time>2026-05-03T08:21:43.897Z</time></trkpt><trkpt lat="42.1671817" lon="14.6922967"><ele>42.0</ele><time>2026-05-03T08:21:45.898Z</time></trkpt><trkpt lat="42.167215" lon="14.692415"><ele>42.0</ele><time>2026-05-03T08:21:47.897Z</time></trkpt><trkpt lat="42.167245" lon="14.6925367"><ele>42.0</ele><time>2026-05-03T08:21:49.897Z</time></trkpt><trkpt lat="42.167285" lon="14.6926617"><ele>42.0</ele><time>2026-05-03T08:21:51.897Z</time></trkpt><trkpt lat="42.16732" lon="14.6927883"><ele>42.0</ele><time>2026-05-03T08:21:53.897Z</time></trkpt><trkpt lat="42.16735" lon="14.69291"><ele>42.0</ele><time>2026-05-03T08:21:55.897Z</time></trkpt><trkpt lat="42.16738" lon="14.6930367"><ele>42.0</ele><time>2026-05-03T08:21:57.898Z</time></trkpt><trkpt lat="42.1674067" lon="14.693155"><ele>42.0</ele><time>2026-05-03T08:21:59.898Z</time></trkpt><trkpt lat="42.1674317" lon="14.6932717"><ele>42.0</ele><time>2026-05-03T08:22:01.898Z</time></trkpt><trkpt lat="42.1674583" lon="14.6933883"><ele>42.0</ele><time>2026-05-03T08:22:03.898Z</time></trkpt><trkpt lat="42.16749" lon="14.6935067"><ele>42.0</ele><time>2026-05-03T08:22:05.898Z</time></trkpt><trkpt lat="42.16752" lon="14.69362"><ele>41.833333333333336</ele><time>2026-05-03T08:22:07.898Z</time></trkpt><trkpt lat="42.1675583" lon="14.693735"><ele>41.666666666666664</ele><time>2026-05-03T08:22:09.898Z</time></trkpt><trkpt lat="42.1676117" lon="14.6938417"><ele>41.5</ele><time>2026-05-03T08:22:11.897Z</time></trkpt><trkpt lat="42.1676683" lon="14.69393"><ele>41.33333333333333</ele><time>2026-05-03T08:22:13.898Z</time></trkpt><trkpt lat="42.1677267" lon="14.694015"><ele>41.166666666666664</ele><time>2026-05-03T08:22:15.898Z</time></trkpt><trkpt lat="42.1677933" lon="14.69409"><ele>41.0</ele><time>2026-05-03T08:22:17.898Z</time></trkpt><trkpt lat="42.1678583" lon="14.6941583"><ele>41.0</ele><time>2026-05-03T08:22:19.898Z</time></trkpt><trkpt lat="42.1679233" lon="14.6942183"><ele>41.0</ele><time>2026-05-03T08:22:21.897Z</time></trkpt><trkpt lat="42.1679883" lon="14.6942867"><ele>41.0</ele><time>2026-05-03T08:22:23.898Z</time></trkpt><trkpt lat="42.1680433" lon="14.6943433"><ele>41.0</ele><time>2026-05-03T08:22:25.898Z</time></trkpt><trkpt lat="42.1680983" lon="14.69441"><ele>41.0</ele><time>2026-05-03T08:22:27.898Z</time></trkpt><trkpt lat="42.1681567" lon="14.694475"><ele>41.0</ele><time>2026-05-03T08:22:29.898Z</time></trkpt><trkpt lat="42.1682133" lon="14.6945333"><ele>40.57142857142857</ele><time>2026-05-03T08:22:31.897Z</time></trkpt><trkpt lat="42.168265" lon="14.6945883"><ele>40.14285714285714</ele><time>2026-05-03T08:22:33.898Z</time></trkpt><trkpt lat="42.1683267" lon="14.6946367"><ele>39.71428571428571</ele><time>2026-05-03T08:22:35.897Z</time></trkpt><trkpt lat="42.1683833" lon="14.694675"><ele>39.285714285714285</ele><time>2026-05-03T08:22:37.898Z</time></trkpt><trkpt lat="42.16844" lon="14.6947333"><ele>38.85714285714286</ele><time>2026-05-03T08:22:39.898Z</time></trkpt><trkpt lat="42.1685083" lon="14.6947983"><ele>38.42857142857142</ele><time>2026-05-03T08:22:41.898Z</time></trkpt><trkpt lat="42.1685867" lon="14.6948533"><ele>38.0</ele><time>2026-05-03T08:22:43.898Z</time></trkpt><trkpt lat="42.168665" lon="14.6949083"><ele>38.0</ele><time>2026-05-03T08:22:45.897Z</time></trkpt><trkpt lat="42.1687483" lon="14.6949667"><ele>38.0</ele><time>2026-05-03T08:22:47.898Z</time></trkpt><trkpt lat="42.16883" lon="14.6950217"><ele>38.0</ele><time>2026-05-03T08:22:49.898Z</time></trkpt><trkpt lat="42.1689067" lon="14.69507"><ele>38.0</ele><time>2026-05-03T08:22:51.897Z</time></trkpt><trkpt lat="42.1689867" lon="14.6951333"><ele>38.0</ele><time>2026-05-03T08:22:53.897Z</time></trkpt><trkpt lat="42.1690733" lon="14.6951917"><ele>37.6</ele><time>2026-05-03T08:22:55.898Z</time></trkpt><trkpt lat="42.1691567" lon="14.6952367"><ele>37.199999999999996</ele><time>2026-05-03T08:22:57.898Z</time></trkpt><trkpt lat="42.1692383" lon="14.6952967"><ele>36.8</ele><time>2026-05-03T08:22:59.897Z</time></trkpt><trkpt lat="42.1693133" lon="14.6953717"><ele>36.4</ele><time>2026-05-03T08:23:01.898Z</time></trkpt><trkpt lat="42.1693767" lon="14.6954517"><ele>36.0</ele><time>2026-05-03T08:23:03.898Z</time></trkpt><trkpt lat="42.1694383" lon="14.69554"><ele>36.0</ele><time>2026-05-03T08:23:05.897Z</time></trkpt><trkpt lat="42.1695067" lon="14.6956"><ele>36.0</ele><time>2026-05-03T08:23:07.898Z</time></trkpt><trkpt lat="42.1695767" lon="14.6956133"><ele>36.0</ele><time>2026-05-03T08:23:09.898Z</time></trkpt><trkpt lat="42.16964" lon="14.6955767"><ele>36.0</ele><time>2026-05-03T08:23:11.898Z</time></trkpt><trkpt lat="42.1696783" lon="14.6954867"><ele>36.0</ele><time>2026-05-03T08:23:13.898Z</time></trkpt><trkpt lat="42.1696933" lon="14.6953733"><ele>36.0</ele><time>2026-05-03T08:23:15.898Z</time></trkpt><trkpt lat="42.1697" lon="14.6952483"><ele>35.8</ele><time>2026-05-03T08:23:17.897Z</time></trkpt><trkpt lat="42.1697183" lon="14.695125"><ele>35.6</ele><time>2026-05-03T08:23:19.898Z</time></trkpt><trkpt lat="42.169745" lon="14.69501"><ele>35.4</ele><time>2026-05-03T08:23:21.897Z</time></trkpt><trkpt lat="42.1697867" lon="14.694885"><ele>35.2</ele><time>2026-05-03T08:23:23.897Z</time></trkpt><trkpt lat="42.1698333" lon="14.694755"><ele>35.0</ele><time>2026-05-03T08:23:25.898Z</time></trkpt><trkpt lat="42.16988" lon="14.6946317"><ele>35.4</ele><time>2026-05-03T08:23:27.898Z</time></trkpt><trkpt lat="42.1699217" lon="14.694515"><ele>35.8</ele><time>2026-05-03T08:23:29.898Z</time></trkpt><trkpt lat="42.1699633" lon="14.6943983"><ele>36.2</ele><time>2026-05-03T08:23:31.898Z</time></trkpt><trkpt lat="42.170005" lon="14.6942817"><ele>36.6</ele><time>2026-05-03T08:23:33.897Z</time></trkpt><trkpt lat="42.17005" lon="14.6941633"><ele>37.0</ele><time>2026-05-03T08:23:35.898Z</time></trkpt><trkpt lat="42.1700933" lon="14.6940383"><ele>37.0</ele><time>2026-05-03T08:23:37.898Z</time></trkpt><trkpt lat="42.170135" lon="14.69391"><ele>37.0</ele><time>2026-05-03T08:23:39.898Z</time></trkpt><trkpt lat="42.1701733" lon="14.6937917"><ele>37.0</ele><time>2026-05-03T08:23:41.897Z</time></trkpt><trkpt lat="42.1702167" lon="14.6936683"><ele>37.0</ele><time>2026-05-03T08:23:43.898Z</time></trkpt><trkpt lat="42.17026" lon="14.69355"><ele>37.0</ele><time>2026-05-03T08:23:45.898Z</time></trkpt><trkpt lat="42.1703" lon="14.6934333"><ele>37.0</ele><time>2026-05-03T08:23:47.898Z</time></trkpt><trkpt lat="42.1703417" lon="14.6933183"><ele>37.0</ele><time>2026-05-03T08:23:49.898Z</time></trkpt><trkpt lat="42.1703817" lon="14.693215"><ele>37.0</ele><time>2026-05-03T08:23:51.898Z</time></trkpt><trkpt lat="42.1704183" lon="14.69311"><ele>37.0</ele><time>2026-05-03T08:23:53.898Z</time></trkpt><trkpt lat="42.170455" lon="14.6930017"><ele>37.0</ele><time>2026-05-03T08:23:55.898Z</time></trkpt><trkpt lat="42.1704917" lon="14.6928883"><ele>37.0</ele><time>2026-05-03T08:23:57.898Z</time></trkpt><trkpt lat="42.170525" lon="14.6927783"><ele>36.800000000000004</ele><time>2026-05-03T08:23:59.897Z</time></trkpt><trkpt lat="42.1705633" lon="14.692665"><ele>36.6</ele><time>2026-05-03T08:24:01.898Z</time></trkpt><trkpt lat="42.1706083" lon="14.692545"><ele>36.400000000000006</ele><time>2026-05-03T08:24:03.897Z</time></trkpt><trkpt lat="42.1706467" lon="14.692425"><ele>36.2</ele><time>2026-05-03T08:24:05.897Z</time></trkpt><trkpt lat="42.17069" lon="14.6923083"><ele>36.0</ele><time>2026-05-03T08:24:07.898Z</time></trkpt><trkpt lat="42.1707283" lon="14.6921883"><ele>36.0</ele><time>2026-05-03T08:24:09.898Z</time></trkpt><trkpt lat="42.1707717" lon="14.6920667"><ele>36.0</ele><time>2026-05-03T08:24:11.898Z</time></trkpt><trkpt lat="42.1708083" lon="14.6919483"><ele>36.0</ele><time>2026-05-03T08:24:13.898Z</time></trkpt><trkpt lat="42.1708583" lon="14.6918383"><ele>36.0</ele><time>2026-05-03T08:24:15.898Z</time></trkpt><trkpt lat="42.170935" lon="14.69176"><ele>36.0</ele><time>2026-05-03T08:24:17.898Z</time></trkpt><trkpt lat="42.1710317" lon="14.6917"><ele>35.6</ele><time>2026-05-03T08:24:19.898Z</time></trkpt><trkpt lat="42.1711333" lon="14.6916967"><ele>35.2</ele><time>2026-05-03T08:24:21.897Z</time></trkpt><trkpt lat="42.1712333" lon="14.691735"><ele>34.8</ele><time>2026-05-03T08:24:23.898Z</time></trkpt><trkpt lat="42.1713233" lon="14.6917867"><ele>34.4</ele><time>2026-05-03T08:24:25.897Z</time></trkpt><trkpt lat="42.1714167" lon="14.6918467"><ele>34.0</ele><time>2026-05-03T08:24:27.898Z</time></trkpt><trkpt lat="42.171515" lon="14.6919017"><ele>34.6</ele><time>2026-05-03T08:24:29.898Z</time></trkpt><trkpt lat="42.17161" lon="14.6919517"><ele>35.2</ele><time>2026-05-03T08:24:31.897Z</time></trkpt><trkpt lat="42.1717083" lon="14.6919983"><ele>35.800000000000004</ele><time>2026-05-03T08:24:33.897Z</time></trkpt><trkpt lat="42.1717967" lon="14.6920533"><ele>36.4</ele><time>2026-05-03T08:24:35.898Z</time></trkpt><trkpt lat="42.1718883" lon="14.6921083"><ele>37.0</ele><time>2026-05-03T08:24:37.897Z</time></trkpt><trkpt lat="42.17198" lon="14.692165"><ele>37.0</ele><time>2026-05-03T08:24:39.898Z</time></trkpt><trkpt lat="42.1720633" lon="14.6922233"><ele>37.0</ele><time>2026-05-03T08:24:41.898Z</time></trkpt><trkpt lat="42.1721483" lon="14.6922767"><ele>37.0</ele><time>2026-05-03T08:24:43.897Z</time></trkpt><trkpt lat="42.1722333" lon="14.6923433"><ele>37.0</ele><time>2026-05-03T08:24:45.898Z</time></trkpt><trkpt lat="42.1723183" lon="14.6924"><ele>37.0</ele><time>2026-05-03T08:24:47.898Z</time></trkpt><trkpt lat="42.1724067" lon="14.6924533"><ele>36.800000000000004</ele><time>2026-05-03T08:24:49.898Z</time></trkpt><trkpt lat="42.17249" lon="14.692505"><ele>36.6</ele><time>2026-05-03T08:24:51.898Z</time></trkpt><trkpt lat="42.172575" lon="14.6925517"><ele>36.400000000000006</ele><time>2026-05-03T08:24:53.897Z</time></trkpt><trkpt lat="42.1726583" lon="14.69261"><ele>36.2</ele><time>2026-05-03T08:24:55.898Z</time></trkpt><trkpt lat="42.1727383" lon="14.692665"><ele>36.0</ele><time>2026-05-03T08:24:57.898Z</time></trkpt><trkpt lat="42.1728267" lon="14.6927183"><ele>36.0</ele><time>2026-05-03T08:24:59.898Z</time></trkpt><trkpt lat="42.1729033" lon="14.6927733"><ele>36.0</ele><time>2026-05-03T08:25:01.898Z</time></trkpt><trkpt lat="42.172985" lon="14.6928217"><ele>36.0</ele><time>2026-05-03T08:25:03.898Z</time></trkpt><trkpt lat="42.1730733" lon="14.69287"><ele>36.0</ele><time>2026-05-03T08:25:05.898Z</time></trkpt><trkpt lat="42.1731567" lon="14.6929267"><ele>36.0</ele><time>2026-05-03T08:25:07.898Z</time></trkpt><trkpt lat="42.1732333" lon="14.6929833"><ele>35.666666666666664</ele><time>2026-05-03T08:25:09.898Z</time></trkpt><trkpt lat="42.1733067" lon="14.6930317"><ele>35.333333333333336</ele><time>2026-05-03T08:25:11.898Z</time></trkpt><trkpt lat="42.1733833" lon="14.6930717"><ele>35.0</ele><time>2026-05-03T08:25:13.898Z</time></trkpt><trkpt lat="42.1734583" lon="14.6931133"><ele>34.66666666666667</ele><time>2026-05-03T08:25:15.897Z</time></trkpt><trkpt lat="42.1735317" lon="14.69315"><ele>34.333333333333336</ele><time>2026-05-03T08:25:17.897Z</time></trkpt><trkpt lat="42.17361" lon="14.6931967"><ele>34.0</ele><time>2026-05-03T08:25:19.898Z</time></trkpt><trkpt lat="42.173685" lon="14.6932517"><ele>34.0</ele><time>2026-05-03T08:25:21.898Z</time></trkpt><trkpt lat="42.1737533" lon="14.69331"><ele>34.0</ele><time>2026-05-03T08:25:23.897Z</time></trkpt><trkpt lat="42.173825" lon="14.6933617"><ele>34.0</ele><time>2026-05-03T08:25:25.897Z</time></trkpt><trkpt lat="42.1739067" lon="14.693415"><ele>34.0</ele><time>2026-05-03T08:25:27.898Z</time></trkpt><trkpt lat="42.173985" lon="14.6934633"><ele>34.0</ele><time>2026-05-03T08:25:29.898Z</time></trkpt><trkpt lat="42.1740567" lon="14.693515"><ele>34.0</ele><time>2026-05-03T08:25:31.897Z</time></trkpt><trkpt lat="42.174125" lon="14.69356"><ele>34.0</ele><time>2026-05-03T08:25:33.896Z</time></trkpt><trkpt lat="42.1741883" lon="14.6936017"><ele>34.0</ele><time>2026-05-03T08:25:35.897Z</time></trkpt><trkpt lat="42.174255" lon="14.6936083"><ele>34.0</ele><time>2026-05-03T08:25:37.897Z</time></trkpt><trkpt lat="42.174335" lon="14.69355"><ele>34.0</ele><time>2026-05-03T08:25:40.897Z</time></trkpt><trkpt lat="42.17441" lon="14.6934917"><ele>34.0</ele><time>2026-05-03T08:25:43.897Z</time></trkpt><trkpt lat="42.1744733" lon="14.693445"><ele>34.0</ele><time>2026-05-03T08:25:46.896Z</time></trkpt><trkpt lat="42.1745267" lon="14.6933917"><ele>34.0</ele><time>2026-05-03T08:25:48.896Z</time></trkpt><trkpt lat="42.1746" lon="14.6933233"><ele>34.0</ele><time>2026-05-03T08:25:51.897Z</time></trkpt><trkpt lat="42.1746533" lon="14.6932733"><ele>34.0</ele><time>2026-05-03T08:25:53.897Z</time></trkpt><trkpt lat="42.174715" lon="14.6932133"><ele>34.0</ele><time>2026-05-03T08:25:55.897Z</time></trkpt><trkpt lat="42.17478" lon="14.6931517"><ele>34.0</ele><time>2026-05-03T08:25:57.897Z</time></trkpt><trkpt lat="42.1748383" lon="14.6931033"><ele>34.0</ele><time>2026-05-03T08:25:59.897Z</time></trkpt><trkpt lat="42.1749" lon="14.6930517"><ele>34.16666666666667</ele><time>2026-05-03T08:26:01.897Z</time></trkpt><trkpt lat="42.1749633" lon="14.692995"><ele>34.333333333333336</ele><time>2026-05-03T08:26:03.896Z</time></trkpt><trkpt lat="42.1750433" lon="14.69292"><ele>34.5</ele><time>2026-05-03T08:26:06.897Z</time></trkpt><trkpt lat="42.1751017" lon="14.6928667"><ele>34.666666666666664</ele><time>2026-05-03T08:26:08.896Z</time></trkpt><trkpt lat="42.1751517" lon="14.6928017"><ele>34.83333333333333</ele><time>2026-05-03T08:26:10.897Z</time></trkpt><trkpt lat="42.1752033" lon="14.6927317"><ele>35.0</ele><time>2026-05-03T08:26:12.897Z</time></trkpt><trkpt lat="42.1752567" lon="14.6926517"><ele>35.0</ele><time>2026-05-03T08:26:14.897Z</time></trkpt><trkpt lat="42.1753083" lon="14.6925783"><ele>35.0</ele><time>2026-05-03T08:26:16.896Z</time></trkpt><trkpt lat="42.1753517" lon="14.6925117"><ele>35.0</ele><time>2026-05-03T08:26:18.896Z</time></trkpt><trkpt lat="42.1753967" lon="14.6924417"><ele>35.0</ele><time>2026-05-03T08:26:20.896Z</time></trkpt><trkpt lat="42.17544" lon="14.6923467"><ele>35.0</ele><time>2026-05-03T08:26:22.897Z</time></trkpt><trkpt lat="42.1754783" lon="14.69225"><ele>35.0</ele><time>2026-05-03T08:26:24.897Z</time></trkpt><trkpt lat="42.1755217" lon="14.6921483"><ele>35.0</ele><time>2026-05-03T08:26:26.896Z</time></trkpt><trkpt lat="42.175565" lon="14.6920567"><ele>35.0</ele><time>2026-05-03T08:26:28.897Z</time></trkpt><trkpt lat="42.1756" lon="14.6919617"><ele>35.0</ele><time>2026-05-03T08:26:30.897Z</time></trkpt><trkpt lat="42.1756417" lon="14.69186"><ele>35.0</ele><time>2026-05-03T08:26:32.897Z</time></trkpt><trkpt lat="42.1756833" lon="14.691765"><ele>35.0</ele><time>2026-05-03T08:26:34.897Z</time></trkpt><trkpt lat="42.175715" lon="14.691675"><ele>35.0</ele><time>2026-05-03T08:26:36.897Z</time></trkpt><trkpt lat="42.1757417" lon="14.6915867"><ele>35.0</ele><time>2026-05-03T08:26:38.897Z</time></trkpt><trkpt lat="42.1757733" lon="14.6915083"><ele>35.0</ele><time>2026-05-03T08:26:40.896Z</time></trkpt><trkpt lat="42.1758217" lon="14.6913967"><ele>35.0</ele><time>2026-05-03T08:26:43.896Z</time></trkpt><trkpt lat="42.1758467" lon="14.6912933"><ele>35.0</ele><time>2026-05-03T08:26:45.896Z</time></trkpt><trkpt lat="42.1758767" lon="14.6911883"><ele>35.0</ele><time>2026-05-03T08:26:47.897Z</time></trkpt><trkpt lat="42.1759167" lon="14.69109"><ele>35.0</ele><time>2026-05-03T08:26:49.897Z</time></trkpt><trkpt lat="42.1759517" lon="14.6909933"><ele>35.0</ele><time>2026-05-03T08:26:51.897Z</time></trkpt><trkpt lat="42.17598" lon="14.6908933"><ele>35.0</ele><time>2026-05-03T08:26:53.896Z</time></trkpt><trkpt lat="42.1760067" lon="14.6908"><ele>35.0</ele><time>2026-05-03T08:26:55.897Z</time></trkpt><trkpt lat="42.1760383" lon="14.690705"><ele>35.0</ele><time>2026-05-03T08:26:57.897Z</time></trkpt><trkpt lat="42.1760717" lon="14.6906067"><ele>35.0</ele><time>2026-05-03T08:26:59.897Z</time></trkpt><trkpt lat="42.1761" lon="14.6905167"><ele>35.0</ele><time>2026-05-03T08:27:01.896Z</time></trkpt><trkpt lat="42.1761317" lon="14.6904217"><ele>35.0</ele><time>2026-05-03T08:27:03.897Z</time></trkpt><trkpt lat="42.1761617" lon="14.690325"><ele>35.0</ele><time>2026-05-03T08:27:05.896Z</time></trkpt><trkpt lat="42.1761917" lon="14.6902333"><ele>35.0</ele><time>2026-05-03T08:27:07.896Z</time></trkpt><trkpt lat="42.17622" lon="14.69014"><ele>35.0</ele><time>2026-05-03T08:27:09.897Z</time></trkpt><trkpt lat="42.1762567" lon="14.6900467"><ele>35.0</ele><time>2026-05-03T08:27:11.897Z</time></trkpt><trkpt lat="42.1762917" lon="14.6899433"><ele>35.0</ele><time>2026-05-03T08:27:13.896Z</time></trkpt><trkpt lat="42.1763217" lon="14.6898417"><ele>34.83333333333333</ele><time>2026-05-03T08:27:15.897Z</time></trkpt><trkpt lat="42.1763533" lon="14.6897367"><ele>34.666666666666664</ele><time>2026-05-03T08:27:17.897Z</time></trkpt><trkpt lat="42.1763883" lon="14.6896317"><ele>34.5</ele><time>2026-05-03T08:27:19.896Z</time></trkpt><trkpt lat="42.1764283" lon="14.6895267"><ele>34.333333333333336</ele><time>2026-05-03T08:27:21.897Z</time></trkpt><trkpt lat="42.1764617" lon="14.6894283"><ele>34.16666666666667</ele><time>2026-05-03T08:27:23.897Z</time></trkpt><trkpt lat="42.1765" lon="14.6893367"><ele>34.0</ele><time>2026-05-03T08:27:25.897Z</time></trkpt><trkpt lat="42.1765417" lon="14.6892483"><ele>33.66666666666667</ele><time>2026-05-03T08:27:27.897Z</time></trkpt><trkpt lat="42.1765917" lon="14.6891683"><ele>33.333333333333336</ele><time>2026-05-03T08:27:29.896Z</time></trkpt><trkpt lat="42.1766517" lon="14.6891"><ele>33.0</ele><time>2026-05-03T08:27:31.897Z</time></trkpt><trkpt lat="42.1767233" lon="14.68906"><ele>32.666666666666664</ele><time>2026-05-03T08:27:33.896Z</time></trkpt><trkpt lat="42.176795" lon="14.6890317"><ele>32.33333333333333</ele><time>2026-05-03T08:27:35.897Z</time></trkpt><trkpt lat="42.1768717" lon="14.6890017"><ele>32.0</ele><time>2026-05-03T08:27:37.896Z</time></trkpt><trkpt lat="42.1769517" lon="14.68899"><ele>31.999999999999996</ele><time>2026-05-03T08:27:39.896Z</time></trkpt><trkpt lat="42.17703" lon="14.688985"><ele>32.0</ele><time>2026-05-03T08:27:41.897Z</time></trkpt><trkpt lat="42.17711" lon="14.6889867"><ele>32.0</ele><time>2026-05-03T08:27:43.897Z</time></trkpt><trkpt lat="42.1771817" lon="14.6889717"><ele>32.0</ele><time>2026-05-03T08:27:45.896Z</time></trkpt><trkpt lat="42.17726" lon="14.6889167"><ele>31.999999999999996</ele><time>2026-05-03T08:27:47.897Z</time></trkpt><trkpt lat="42.1773317" lon="14.6888267"><ele>32.0</ele><time>2026-05-03T08:27:49.897Z</time></trkpt><trkpt lat="42.1773967" lon="14.6887167"><ele>31.400000000000002</ele><time>2026-05-03T08:27:51.896Z</time></trkpt><trkpt lat="42.1774617" lon="14.6886083"><ele>30.800000000000004</ele><time>2026-05-03T08:27:53.896Z</time></trkpt><trkpt lat="42.1775267" lon="14.6884983"><ele>30.2</ele><time>2026-05-03T08:27:55.897Z</time></trkpt><trkpt lat="42.1775883" lon="14.6884083"><ele>29.6</ele><time>2026-05-03T08:27:57.896Z</time></trkpt><trkpt lat="42.1776417" lon="14.6883283"><ele>29.0</ele><time>2026-05-03T08:27:59.897Z</time></trkpt><trkpt lat="42.1776983" lon="14.688265"><ele>28.999999999999996</ele><time>2026-05-03T08:28:01.896Z</time></trkpt><trkpt lat="42.1777533" lon="14.688195"><ele>29.0</ele><time>2026-05-03T08:28:03.897Z</time></trkpt><trkpt lat="42.177815" lon="14.688105"><ele>29.0</ele><time>2026-05-03T08:28:05.897Z</time></trkpt><trkpt lat="42.17788" lon="14.6880233"><ele>29.0</ele><time>2026-05-03T08:28:07.897Z</time></trkpt><trkpt lat="42.17795" lon="14.6879533"><ele>28.999999999999996</ele><time>2026-05-03T08:28:09.897Z</time></trkpt><trkpt lat="42.1780117" lon="14.6879"><ele>29.0</ele><time>2026-05-03T08:28:11.897Z</time></trkpt><trkpt lat="42.17807" lon="14.68786"><ele>28.999999999999996</ele><time>2026-05-03T08:28:13.896Z</time></trkpt><trkpt lat="42.1781583" lon="14.687815"><ele>29.0</ele><time>2026-05-03T08:28:16.896Z</time></trkpt><trkpt lat="42.1782467" lon="14.6877717"><ele>29.0</ele><time>2026-05-03T08:28:19.896Z</time></trkpt><trkpt lat="42.17831" lon="14.687745"><ele>29.0</ele><time>2026-05-03T08:28:21.897Z</time></trkpt><trkpt lat="42.1783833" lon="14.6877167"><ele>28.999999999999996</ele><time>2026-05-03T08:28:23.896Z</time></trkpt><trkpt lat="42.178455" lon="14.6876833"><ele>29.0</ele><time>2026-05-03T08:28:25.896Z</time></trkpt><trkpt lat="42.1785367" lon="14.6876533"><ele>28.0</ele><time>2026-05-03T08:28:27.897Z</time></trkpt><trkpt lat="42.178635" lon="14.6876367"><ele>27.0</ele><time>2026-05-03T08:28:29.897Z</time></trkpt><trkpt lat="42.1787383" lon="14.6876317"><ele>26.0</ele><time>2026-05-03T08:28:31.896Z</time></trkpt><trkpt lat="42.1788283" lon="14.6876333"><ele>25.0</ele><time>2026-05-03T08:28:33.896Z</time></trkpt><trkpt lat="42.1789117" lon="14.6876133"><ele>24.0</ele><time>2026-05-03T08:28:35.897Z</time></trkpt><trkpt lat="42.1789933" lon="14.6875917"><ele>22.666666666666668</ele><time>2026-05-03T08:28:38.897Z</time></trkpt><trkpt lat="42.1790667" lon="14.6876117"><ele>21.333333333333332</ele><time>2026-05-03T08:28:41.896Z</time></trkpt><trkpt lat="42.1791317" lon="14.68763"><ele>20.0</ele><time>2026-05-03T08:28:43.897Z</time></trkpt><trkpt lat="42.1792217" lon="14.6876367"><ele>18.666666666666664</ele><time>2026-05-03T08:28:46.896Z</time></trkpt><trkpt lat="42.179305" lon="14.6876433"><ele>17.333333333333332</ele><time>2026-05-03T08:28:49.897Z</time></trkpt><trkpt lat="42.1793733" lon="14.687645"><ele>16.0</ele><time>2026-05-03T08:28:52.897Z</time></trkpt><trkpt lat="42.1794517" lon="14.6876483"><ele>15.999999999999998</ele><time>2026-05-03T08:28:56.896Z</time></trkpt><trkpt lat="42.1795333" lon="14.687635"><ele>16.0</ele><time>2026-05-03T08:29:00.897Z</time></trkpt><trkpt lat="42.17961" lon="14.687615"><ele>16.0</ele><time>2026-05-03T08:29:03.896Z</time></trkpt><trkpt lat="42.1796733" lon="14.687575"><ele>16.0</ele><time>2026-05-03T08:29:06.897Z</time></trkpt><trkpt lat="42.1797433" lon="14.6875217"><ele>15.999999999999998</ele><time>2026-05-03T08:29:10.896Z</time></trkpt><trkpt lat="42.1797917" lon="14.6874483"><ele>16.0</ele><time>2026-05-03T08:29:14.896Z</time></trkpt><trkpt lat="42.1797917" lon="14.687285"><ele>15.999999999999998</ele><time>2026-05-03T08:30:18.16Z</time></trkpt><trkpt lat="42.1798217" lon="14.6873917"><ele>16.0</ele><time>2026-05-03T08:30:19.403Z</time></trkpt><trkpt lat="42.179755" lon="14.6873833"><ele>16.0</ele><time>2026-05-03T08:31:14.902Z</time></trkpt><trkpt lat="42.1797167" lon="14.68746"><ele>16.0</ele><time>2026-05-03T08:31:18.903Z</time></trkpt><trkpt lat="42.1796733" lon="14.687545"><ele>15.999999999999998</ele><time>2026-05-03T08:31:22.902Z</time></trkpt><trkpt lat="42.1796083" lon="14.6876133"><ele>16.0</ele><time>2026-05-03T08:31:26.902Z</time></trkpt><trkpt lat="42.1795333" lon="14.687645"><ele>15.999999999999998</ele><time>2026-05-03T08:31:30.903Z</time></trkpt><trkpt lat="42.1794533" lon="14.6876617"><ele>16.0</ele><time>2026-05-03T08:31:33.902Z</time></trkpt><trkpt lat="42.1793683" lon="14.6876367"><ele>16.0</ele><time>2026-05-03T08:31:36.902Z</time></trkpt><trkpt lat="42.17929" lon="14.6876233"><ele>16.0</ele><time>2026-05-03T08:31:39.903Z</time></trkpt><trkpt lat="42.17922" lon="14.6875967"><ele>15.999999999999998</ele><time>2026-05-03T08:31:42.903Z</time></trkpt><trkpt lat="42.1791417" lon="14.6875333"><ele>16.0</ele><time>2026-05-03T08:31:45.903Z</time></trkpt><trkpt lat="42.1790967" lon="14.6874483"><ele>16.0</ele><time>2026-05-03T08:31:48.903Z</time></trkpt><trkpt lat="42.1791283" lon="14.6873383"><ele>16.0</ele><time>2026-05-03T08:31:51.903Z</time></trkpt><trkpt lat="42.1791533" lon="14.687225"><ele>16.0</ele><time>2026-05-03T08:31:53.903Z</time></trkpt><trkpt lat="42.1791683" lon="14.6870833"><ele>16.0</ele><time>2026-05-03T08:31:55.903Z</time></trkpt><trkpt lat="42.179155" lon="14.68692"><ele>16.0</ele><time>2026-05-03T08:31:57.903Z</time></trkpt><trkpt lat="42.1791333" lon="14.6868233"><ele>15.8</ele><time>2026-05-03T08:31:58.902Z</time></trkpt><trkpt lat="42.1791133" lon="14.686735"><ele>15.600000000000001</ele><time>2026-05-03T08:31:59.903Z</time></trkpt><trkpt lat="42.1790867" lon="14.6865867"><ele>15.4</ele><time>2026-05-03T08:32:01.903Z</time></trkpt><trkpt lat="42.1790483" lon="14.6864583"><ele>15.2</ele><time>2026-05-03T08:32:03.903Z</time></trkpt><trkpt lat="42.1790033" lon="14.6863333"><ele>15.0</ele><time>2026-05-03T08:32:05.903Z</time></trkpt><trkpt lat="42.17894" lon="14.6862033"><ele>15.666666666666666</ele><time>2026-05-03T08:32:07.902Z</time></trkpt><trkpt lat="42.1788483" lon="14.686095"><ele>16.333333333333332</ele><time>2026-05-03T08:32:09.903Z</time></trkpt><trkpt lat="42.1787917" lon="14.68604"><ele>17.0</ele><time>2026-05-03T08:32:10.903Z</time></trkpt><trkpt lat="42.1787317" lon="14.6859817"><ele>17.666666666666664</ele><time>2026-05-03T08:32:11.903Z</time></trkpt><trkpt lat="42.1786583" lon="14.6859267"><ele>18.333333333333332</ele><time>2026-05-03T08:32:12.903Z</time></trkpt><trkpt lat="42.1785867" lon="14.6858683"><ele>19.0</ele><time>2026-05-03T08:32:13.903Z</time></trkpt><trkpt lat="42.1785183" lon="14.6858117"><ele>18.166666666666664</ele><time>2026-05-03T08:32:14.903Z</time></trkpt><trkpt lat="42.1784517" lon="14.68575"><ele>17.333333333333332</ele><time>2026-05-03T08:32:15.903Z</time></trkpt><trkpt lat="42.1783867" lon="14.6856917"><ele>16.5</ele><time>2026-05-03T08:32:16.902Z</time></trkpt><trkpt lat="42.1783283" lon="14.6856317"><ele>15.666666666666668</ele><time>2026-05-03T08:32:17.902Z</time></trkpt><trkpt lat="42.17827" lon="14.68557"><ele>14.833333333333334</ele><time>2026-05-03T08:32:18.903Z</time></trkpt><trkpt lat="42.1782117" lon="14.6855033"><ele>14.0</ele><time>2026-05-03T08:32:19.903Z</time></trkpt><trkpt lat="42.178155" lon="14.6854467"><ele>14.000000000000002</ele><time>2026-05-03T08:32:20.902Z</time></trkpt><trkpt lat="42.1780983" lon="14.6853967"><ele>14.0</ele><time>2026-05-03T08:32:21.902Z</time></trkpt><trkpt lat="42.1780483" lon="14.685345"><ele>14.0</ele><time>2026-05-03T08:32:22.902Z</time></trkpt><trkpt lat="42.1779617" lon="14.6852583"><ele>14.0</ele><time>2026-05-03T08:32:24.903Z</time></trkpt><trkpt lat="42.1778967" lon="14.68519"><ele>14.000000000000002</ele><time>2026-05-03T08:32:26.903Z</time></trkpt><trkpt lat="42.1778383" lon="14.6851383"><ele>14.0</ele><time>2026-05-03T08:32:28.903Z</time></trkpt><trkpt lat="42.177785" lon="14.6850883"><ele>13.666666666666668</ele><time>2026-05-03T08:32:30.903Z</time></trkpt><trkpt lat="42.17771" lon="14.6850417"><ele>13.333333333333334</ele><time>2026-05-03T08:32:33.902Z</time></trkpt><trkpt lat="42.1776483" lon="14.6849783"><ele>13.0</ele><time>2026-05-03T08:32:37.903Z</time></trkpt><trkpt lat="42.17763" lon="14.68489"><ele>12.666666666666668</ele><time>2026-05-03T08:32:40.903Z</time></trkpt><trkpt lat="42.177655" lon="14.6847633"><ele>12.333333333333334</ele><time>2026-05-03T08:32:43.902Z</time></trkpt><trkpt lat="42.1776833" lon="14.6846583"><ele>12.0</ele><time>2026-05-03T08:32:45.902Z</time></trkpt><trkpt lat="42.1777317" lon="14.6845517"><ele>11.999999999999998</ele><time>2026-05-03T08:32:48.903Z</time></trkpt><trkpt lat="42.1777983" lon="14.684505"><ele>12.0</ele><time>2026-05-03T08:32:51.902Z</time></trkpt><trkpt lat="42.1778633" lon="14.6844833"><ele>12.0</ele><time>2026-05-03T08:32:54.902Z</time></trkpt><trkpt lat="42.1779383" lon="14.684495"><ele>12.0</ele><time>2026-05-03T08:32:58.902Z</time></trkpt><trkpt lat="42.1780083" lon="14.6844867"><ele>12.0</ele><time>2026-05-03T08:33:01.902Z</time></trkpt><trkpt lat="42.1780767" lon="14.6844767"><ele>11.999999999999998</ele><time>2026-05-03T08:33:05.903Z</time></trkpt><trkpt lat="42.178145" lon="14.68446"><ele>12.0</ele><time>2026-05-03T08:33:08.903Z</time></trkpt><trkpt lat="42.1782167" lon="14.68444"><ele>12.57142857142857</ele><time>2026-05-03T08:33:12.903Z</time></trkpt><trkpt lat="42.1782867" lon="14.6843917"><ele>13.142857142857142</ele><time>2026-05-03T08:33:16.903Z</time></trkpt><trkpt lat="42.1783517" lon="14.6843467"><ele>13.714285714285714</ele><time>2026-05-03T08:33:20.903Z</time></trkpt><trkpt lat="42.1784167" lon="14.68431"><ele>14.285714285714285</ele><time>2026-05-03T08:33:24.903Z</time></trkpt><trkpt lat="42.1784783" lon="14.6842867"><ele>14.857142857142856</ele><time>2026-05-03T08:33:28.903Z</time></trkpt><trkpt lat="42.1785417" lon="14.6842767"><ele>15.428571428571427</ele><time>2026-05-03T08:33:32.903Z</time></trkpt><trkpt lat="42.1786033" lon="14.6842533"><ele>16.0</ele><time>2026-05-03T08:33:36.903Z</time></trkpt><trkpt lat="42.178675" lon="14.6842083"><ele>16.0</ele><time>2026-05-03T08:33:41.902Z</time></trkpt><trkpt lat="42.1787317" lon="14.6841683"><ele>15.999999999999998</ele><time>2026-05-03T08:33:45.903Z</time></trkpt><trkpt lat="42.1787917" lon="14.68412"><ele>16.0</ele><time>2026-05-03T08:33:49.902Z</time></trkpt><trkpt lat="42.1788417" lon="14.6840633"><ele>16.0</ele><time>2026-05-03T08:33:53.903Z</time></trkpt><trkpt lat="42.1789017" lon="14.6839967"><ele>15.999999999999998</ele><time>2026-05-03T08:33:58.903Z</time></trkpt><trkpt lat="42.1789633" lon="14.6839517"><ele>16.0</ele><time>2026-05-03T08:34:02.903Z</time></trkpt><trkpt lat="42.179015" lon="14.6838867"><ele>16.0</ele><time>2026-05-03T08:34:06.903Z</time></trkpt><trkpt lat="42.1790683" lon="14.6838133"><ele>15.714285714285714</ele><time>2026-05-03T08:34:10.902Z</time></trkpt><trkpt lat="42.1791117" lon="14.6837267"><ele>15.428571428571427</ele><time>2026-05-03T08:34:13.902Z</time></trkpt><trkpt lat="42.1791417" lon="14.6836467"><ele>15.142857142857142</ele><time>2026-05-03T08:34:16.902Z</time></trkpt><trkpt lat="42.1791567" lon="14.683555"><ele>14.857142857142858</ele><time>2026-05-03T08:34:19.902Z</time></trkpt><trkpt lat="42.1791517" lon="14.6834467"><ele>14.571428571428571</ele><time>2026-05-03T08:34:22.902Z</time></trkpt><trkpt lat="42.1791433" lon="14.683355"><ele>14.285714285714285</ele><time>2026-05-03T08:34:25.903Z</time></trkpt><trkpt lat="42.1791333" lon="14.6832583"><ele>14.0</ele><time>2026-05-03T08:34:29.902Z</time></trkpt><trkpt lat="42.179115" lon="14.6831617"><ele>14.714285714285715</ele><time>2026-05-03T08:34:33.903Z</time></trkpt><trkpt lat="42.179075" lon="14.683095"><ele>15.428571428571429</ele><time>2026-05-03T08:34:38.903Z</time></trkpt><trkpt lat="42.1789983" lon="14.6830567"><ele>16.142857142857142</ele><time>2026-05-03T08:34:42.903Z</time></trkpt><trkpt lat="42.1789217" lon="14.6830433"><ele>16.857142857142858</ele><time>2026-05-03T08:34:45.903Z</time></trkpt><trkpt lat="42.1788567" lon="14.6830283"><ele>17.571428571428573</ele><time>2026-05-03T08:34:47.903Z</time></trkpt><trkpt lat="42.1787833" lon="14.6830083"><ele>18.285714285714285</ele><time>2026-05-03T08:34:49.903Z</time></trkpt><trkpt lat="42.178705" lon="14.6829833"><ele>19.0</ele><time>2026-05-03T08:34:51.903Z</time></trkpt><trkpt lat="42.1786267" lon="14.68296"><ele>19.333333333333332</ele><time>2026-05-03T08:34:53.902Z</time></trkpt><trkpt lat="42.178555" lon="14.6829333"><ele>19.666666666666664</ele><time>2026-05-03T08:34:55.903Z</time></trkpt><trkpt lat="42.17847" lon="14.6829167"><ele>20.0</ele><time>2026-05-03T08:34:57.902Z</time></trkpt><trkpt lat="42.17838" lon="14.6828967"><ele>20.333333333333332</ele><time>2026-05-03T08:34:59.903Z</time></trkpt><trkpt lat="42.1782883" lon="14.6828833"><ele>20.666666666666668</ele><time>2026-05-03T08:35:01.903Z</time></trkpt><trkpt lat="42.1781967" lon="14.6828683"><ele>21.0</ele><time>2026-05-03T08:35:03.902Z</time></trkpt><trkpt lat="42.178105" lon="14.6828467"><ele>21.0</ele><time>2026-05-03T08:35:05.903Z</time></trkpt><trkpt lat="42.17801" lon="14.6828283"><ele>21.0</ele><time>2026-05-03T08:35:07.902Z</time></trkpt><trkpt lat="42.17792" lon="14.6828083"><ele>21.0</ele><time>2026-05-03T08:35:09.903Z</time></trkpt><trkpt lat="42.1778383" lon="14.6827867"><ele>21.0</ele><time>2026-05-03T08:35:11.903Z</time></trkpt><trkpt lat="42.1777617" lon="14.68277"><ele>21.0</ele><time>2026-05-03T08:35:13.902Z</time></trkpt><trkpt lat="42.1776967" lon="14.682755"><ele>21.0</ele><time>2026-05-03T08:35:15.903Z</time></trkpt><trkpt lat="42.1776283" lon="14.6827467"><ele>22.0</ele><time>2026-05-03T08:35:17.902Z</time></trkpt><trkpt lat="42.1775483" lon="14.682735"><ele>23.0</ele><time>2026-05-03T08:35:19.902Z</time></trkpt><trkpt lat="42.177475" lon="14.6827217"><ele>24.0</ele><time>2026-05-03T08:35:21.903Z</time></trkpt><trkpt lat="42.17738" lon="14.68271"><ele>25.0</ele><time>2026-05-03T08:35:24.902Z</time></trkpt><trkpt lat="42.1773117" lon="14.6827033"><ele>26.0</ele><time>2026-05-03T08:35:26.903Z</time></trkpt><trkpt lat="42.1772483" lon="14.6826883"><ele>27.0</ele><time>2026-05-03T08:35:28.902Z</time></trkpt><trkpt lat="42.1771583" lon="14.6826667"><ele>27.0</ele><time>2026-05-03T08:35:31.902Z</time></trkpt><trkpt lat="42.1770633" lon="14.6826467"><ele>27.0</ele><time>2026-05-03T08:35:34.903Z</time></trkpt><trkpt lat="42.1769667" lon="14.6826183"><ele>27.0</ele><time>2026-05-03T08:35:37.902Z</time></trkpt><trkpt lat="42.1769017" lon="14.6825967"><ele>27.0</ele><time>2026-05-03T08:35:39.903Z</time></trkpt><trkpt lat="42.1768333" lon="14.6825683"><ele>27.0</ele><time>2026-05-03T08:35:41.902Z</time></trkpt><trkpt lat="42.1767667" lon="14.6825367"><ele>27.0</ele><time>2026-05-03T08:35:43.903Z</time></trkpt><trkpt lat="42.1767033" lon="14.6825133"><ele>27.0</ele><time>2026-05-03T08:35:45.902Z</time></trkpt><trkpt lat="42.1766433" lon="14.6824783"><ele>27.0</ele><time>2026-05-03T08:35:47.902Z</time></trkpt><trkpt lat="42.176575" lon="14.682405"><ele>27.0</ele><time>2026-05-03T08:35:50.903Z</time></trkpt><trkpt lat="42.176545" lon="14.682305"><ele>27.0</ele><time>2026-05-03T08:35:53.902Z</time></trkpt><trkpt lat="42.1765317" lon="14.6822067"><ele>27.0</ele><time>2026-05-03T08:35:56.903Z</time></trkpt><trkpt lat="42.176555" lon="14.68211"><ele>27.0</ele><time>2026-05-03T08:35:59.903Z</time></trkpt><trkpt lat="42.1765883" lon="14.6820283"><ele>27.0</ele><time>2026-05-03T08:36:02.902Z</time></trkpt><trkpt lat="42.1766283" lon="14.6819417"><ele>27.0</ele><time>2026-05-03T08:36:05.902Z</time></trkpt><trkpt lat="42.17666" lon="14.6818533"><ele>27.0</ele><time>2026-05-03T08:36:08.902Z</time></trkpt><trkpt lat="42.1766817" lon="14.681745"><ele>27.0</ele><time>2026-05-03T08:36:11.902Z</time></trkpt><trkpt lat="42.1767117" lon="14.6816333"><ele>27.0</ele><time>2026-05-03T08:36:14.902Z</time></trkpt><trkpt lat="42.1767067" lon="14.681525"><ele>27.0</ele><time>2026-05-03T08:36:17.902Z</time></trkpt><trkpt lat="42.176645" lon="14.6814567"><ele>27.166666666666668</ele><time>2026-05-03T08:36:20.902Z</time></trkpt><trkpt lat="42.1765667" lon="14.6813983"><ele>27.333333333333336</ele><time>2026-05-03T08:36:23.902Z</time></trkpt><trkpt lat="42.1764917" lon="14.6813517"><ele>27.5</ele><time>2026-05-03T08:36:26.903Z</time></trkpt><trkpt lat="42.1764067" lon="14.6813533"><ele>27.666666666666668</ele><time>2026-05-03T08:36:29.902Z</time></trkpt><trkpt lat="42.1763317" lon="14.681315"><ele>27.833333333333336</ele><time>2026-05-03T08:36:32.903Z</time></trkpt><trkpt lat="42.1762917" lon="14.6812067"><ele>28.0</ele><time>2026-05-03T08:36:35.903Z</time></trkpt><trkpt lat="42.1762767" lon="14.6811217"><ele>28.714285714285715</ele><time>2026-05-03T08:36:37.903Z</time></trkpt><trkpt lat="42.17625" lon="14.68104"><ele>29.42857142857143</ele><time>2026-05-03T08:36:39.903Z</time></trkpt><trkpt lat="42.1762183" lon="14.68096"><ele>30.142857142857142</ele><time>2026-05-03T08:36:41.902Z</time></trkpt><trkpt lat="42.1761883" lon="14.68088"><ele>30.857142857142858</ele><time>2026-05-03T08:36:43.903Z</time></trkpt><trkpt lat="42.1761517" lon="14.6808017"><ele>31.571428571428573</ele><time>2026-05-03T08:36:45.902Z</time></trkpt><trkpt lat="42.176115" lon="14.6807267"><ele>32.285714285714285</ele><time>2026-05-03T08:36:47.902Z</time></trkpt><trkpt lat="42.1760683" lon="14.6806283"><ele>33.0</ele><time>2026-05-03T08:36:50.903Z</time></trkpt><trkpt lat="42.1760017" lon="14.680545"><ele>33.0</ele><time>2026-05-03T08:36:53.902Z</time></trkpt><trkpt lat="42.1759317" lon="14.6804617"><ele>33.0</ele><time>2026-05-03T08:36:56.903Z</time></trkpt><trkpt lat="42.17587" lon="14.6803733"><ele>33.0</ele><time>2026-05-03T08:36:59.903Z</time></trkpt><trkpt lat="42.1758" lon="14.6802867"><ele>33.0</ele><time>2026-05-03T08:37:02.902Z</time></trkpt><trkpt lat="42.1757517" lon="14.6802317"><ele>33.0</ele><time>2026-05-03T08:37:04.902Z</time></trkpt><trkpt lat="42.175685" lon="14.6801517"><ele>33.0</ele><time>2026-05-03T08:37:07.902Z</time></trkpt><trkpt lat="42.1756267" lon="14.6800783"><ele>33.5</ele><time>2026-05-03T08:37:10.903Z</time></trkpt><trkpt lat="42.1755767" lon="14.679995"><ele>34.0</ele><time>2026-05-03T08:37:13.903Z</time></trkpt><trkpt lat="42.17552" lon="14.6799083"><ele>34.5</ele><time>2026-05-03T08:37:16.903Z</time></trkpt><trkpt lat="42.1754617" lon="14.6798267"><ele>35.0</ele><time>2026-05-03T08:37:19.903Z</time></trkpt><trkpt lat="42.1754033" lon="14.6797417"><ele>35.5</ele><time>2026-05-03T08:37:22.903Z</time></trkpt><trkpt lat="42.1753417" lon="14.6796617"><ele>36.0</ele><time>2026-05-03T08:37:25.903Z</time></trkpt><trkpt lat="42.1752867" lon="14.6795733"><ele>36.0</ele><time>2026-05-03T08:37:28.903Z</time></trkpt><trkpt lat="42.17523" lon="14.6794917"><ele>36.0</ele><time>2026-05-03T08:37:31.903Z</time></trkpt><trkpt lat="42.1751767" lon="14.679405"><ele>36.0</ele><time>2026-05-03T08:37:34.903Z</time></trkpt><trkpt lat="42.1751383" lon="14.6793183"><ele>36.0</ele><time>2026-05-03T08:37:37.903Z</time></trkpt><trkpt lat="42.1751183" lon="14.6792017"><ele>36.0</ele><time>2026-05-03T08:37:40.902Z</time></trkpt><trkpt lat="42.17512" lon="14.6790883"><ele>36.0</ele><time>2026-05-03T08:37:43.903Z</time></trkpt><trkpt lat="42.17514" lon="14.679005"><ele>36.142857142857146</ele><time>2026-05-03T08:37:45.903Z</time></trkpt><trkpt lat="42.1751783" lon="14.6789"><ele>36.285714285714285</ele><time>2026-05-03T08:37:48.903Z</time></trkpt><trkpt lat="42.1752117" lon="14.6788133"><ele>36.42857142857143</ele><time>2026-05-03T08:37:51.903Z</time></trkpt><trkpt lat="42.1752467" lon="14.6787417"><ele>36.57142857142857</ele><time>2026-05-03T08:37:54.903Z</time></trkpt><trkpt lat="42.1752883" lon="14.678675"><ele>36.714285714285715</ele><time>2026-05-03T08:37:57.902Z</time></trkpt><trkpt lat="42.1753483" lon="14.6785917"><ele>36.85714285714286</ele><time>2026-05-03T08:38:00.903Z</time></trkpt><trkpt lat="42.1754" lon="14.6785167"><ele>37.0</ele><time>2026-05-03T08:38:03.902Z</time></trkpt><trkpt lat="42.1754533" lon="14.6784483"><ele>37.0</ele><time>2026-05-03T08:38:06.903Z</time></trkpt><trkpt lat="42.1754983" lon="14.678375"><ele>37.0</ele><time>2026-05-03T08:38:09.903Z</time></trkpt><trkpt lat="42.1755367" lon="14.6782933"><ele>37.0</ele><time>2026-05-03T08:38:12.903Z</time></trkpt><trkpt lat="42.1755717" lon="14.6782183"><ele>37.0</ele><time>2026-05-03T08:38:15.903Z</time></trkpt><trkpt lat="42.1755933" lon="14.6781033"><ele>37.0</ele><time>2026-05-03T08:38:19.902Z</time></trkpt><trkpt lat="42.1756217" lon="14.677985"><ele>37.0</ele><time>2026-05-03T08:38:22.903Z</time></trkpt><trkpt lat="42.1756417" lon="14.6778967"><ele>37.0</ele><time>2026-05-03T08:38:24.903Z</time></trkpt><trkpt lat="42.17566" lon="14.6778117"><ele>37.0</ele><time>2026-05-03T08:38:26.903Z</time></trkpt><trkpt lat="42.1756767" lon="14.67772"><ele>37.0</ele><time>2026-05-03T08:38:28.903Z</time></trkpt><trkpt lat="42.1756917" lon="14.6776367"><ele>37.0</ele><time>2026-05-03T08:38:30.903Z</time></trkpt><trkpt lat="42.1757017" lon="14.6775083"><ele>37.0</ele><time>2026-05-03T08:38:33.902Z</time></trkpt><trkpt lat="42.1756833" lon="14.6774133"><ele>37.0</ele><time>2026-05-03T08:38:36.903Z</time></trkpt><trkpt lat="42.17563" lon="14.677345"><ele>37.0</ele><time>2026-05-03T08:38:39.903Z</time></trkpt><trkpt lat="42.1755483" lon="14.6773417"><ele>37.16666666666667</ele><time>2026-05-03T08:38:42.903Z</time></trkpt><trkpt lat="42.1754767" lon="14.6773783"><ele>37.333333333333336</ele><time>2026-05-03T08:38:45.903Z</time></trkpt><trkpt lat="42.17541" lon="14.6774167"><ele>37.5</ele><time>2026-05-03T08:38:48.902Z</time></trkpt><trkpt lat="42.17533" lon="14.6774483"><ele>37.666666666666664</ele><time>2026-05-03T08:38:51.903Z</time></trkpt><trkpt lat="42.1752433" lon="14.6774817"><ele>37.83333333333333</ele><time>2026-05-03T08:38:54.903Z</time></trkpt><trkpt lat="42.1751483" lon="14.6775033"><ele>38.0</ele><time>2026-05-03T08:38:57.903Z</time></trkpt><trkpt lat="42.175085" lon="14.6775083"><ele>38.0</ele><time>2026-05-03T08:38:59.903Z</time></trkpt><trkpt lat="42.17501" lon="14.6775017"><ele>38.0</ele><time>2026-05-03T08:39:02.903Z</time></trkpt><trkpt lat="42.1749467" lon="14.6774967"><ele>38.0</ele><time>2026-05-03T08:39:04.903Z</time></trkpt><trkpt lat="42.17486" lon="14.6774883"><ele>38.0</ele><time>2026-05-03T08:39:07.902Z</time></trkpt><trkpt lat="42.174785" lon="14.6774817"><ele>38.0</ele><time>2026-05-03T08:39:09.902Z</time></trkpt><trkpt lat="42.1746983" lon="14.677475"><ele>38.0</ele><time>2026-05-03T08:39:11.903Z</time></trkpt><trkpt lat="42.1746117" lon="14.67745"><ele>38.166666666666664</ele><time>2026-05-03T08:39:13.902Z</time></trkpt><trkpt lat="42.1745267" lon="14.677415"><ele>38.33333333333333</ele><time>2026-05-03T08:39:15.903Z</time></trkpt><trkpt lat="42.1744417" lon="14.677375"><ele>38.5</ele><time>2026-05-03T08:39:17.902Z</time></trkpt><trkpt lat="42.1743667" lon="14.677315"><ele>38.666666666666664</ele><time>2026-05-03T08:39:19.903Z</time></trkpt><trkpt lat="42.1742883" lon="14.6772567"><ele>38.833333333333336</ele><time>2026-05-03T08:39:21.902Z</time></trkpt><trkpt lat="42.174215" lon="14.6771967"><ele>39.0</ele><time>2026-05-03T08:39:23.903Z</time></trkpt><trkpt lat="42.17415" lon="14.6771417"><ele>39.0</ele><time>2026-05-03T08:39:25.903Z</time></trkpt><trkpt lat="42.1740883" lon="14.6770833"><ele>39.0</ele><time>2026-05-03T08:39:27.902Z</time></trkpt><trkpt lat="42.17402" lon="14.6770283"><ele>39.0</ele><time>2026-05-03T08:39:29.903Z</time></trkpt><trkpt lat="42.173955" lon="14.6769617"><ele>39.0</ele><time>2026-05-03T08:39:31.903Z</time></trkpt><trkpt lat="42.173895" lon="14.6768983"><ele>39.0</ele><time>2026-05-03T08:39:33.903Z</time></trkpt><trkpt lat="42.1738333" lon="14.6768417"><ele>39.0</ele><time>2026-05-03T08:39:35.902Z</time></trkpt><trkpt lat="42.173765" lon="14.6767867"><ele>39.333333333333336</ele><time>2026-05-03T08:39:37.903Z</time></trkpt><trkpt lat="42.1736933" lon="14.6767333"><ele>39.666666666666664</ele><time>2026-05-03T08:39:39.902Z</time></trkpt><trkpt lat="42.1736217" lon="14.676685"><ele>40.0</ele><time>2026-05-03T08:39:41.902Z</time></trkpt><trkpt lat="42.173545" lon="14.6766367"><ele>40.33333333333333</ele><time>2026-05-03T08:39:43.902Z</time></trkpt><trkpt lat="42.1734783" lon="14.67659"><ele>40.666666666666664</ele><time>2026-05-03T08:39:45.902Z</time></trkpt><trkpt lat="42.1734067" lon="14.6765367"><ele>41.0</ele><time>2026-05-03T08:39:47.903Z</time></trkpt><trkpt lat="42.173315" lon="14.6764967"><ele>41.0</ele><time>2026-05-03T08:39:49.903Z</time></trkpt><trkpt lat="42.1732383" lon="14.6764633"><ele>41.0</ele><time>2026-05-03T08:39:51.902Z</time></trkpt><trkpt lat="42.17317" lon="14.6764183"><ele>41.0</ele><time>2026-05-03T08:39:53.903Z</time></trkpt><trkpt lat="42.1731" lon="14.676375"><ele>41.0</ele><time>2026-05-03T08:39:55.903Z</time></trkpt><trkpt lat="42.1730417" lon="14.6763283"><ele>41.0</ele><time>2026-05-03T08:39:57.903Z</time></trkpt><trkpt lat="42.1729717" lon="14.6762833"><ele>41.0</ele><time>2026-05-03T08:39:59.903Z</time></trkpt><trkpt lat="42.1729083" lon="14.67624"><ele>40.99999999999999</ele><time>2026-05-03T08:40:01.903Z</time></trkpt><trkpt lat="42.1728467" lon="14.6761967"><ele>41.0</ele><time>2026-05-03T08:40:03.902Z</time></trkpt><trkpt lat="42.172785" lon="14.67615"><ele>41.0</ele><time>2026-05-03T08:40:05.902Z</time></trkpt><trkpt lat="42.1727183" lon="14.6760983"><ele>41.0</ele><time>2026-05-03T08:40:07.902Z</time></trkpt><trkpt lat="42.1726467" lon="14.6760567"><ele>41.0</ele><time>2026-05-03T08:40:09.902Z</time></trkpt><trkpt lat="42.1725867" lon="14.6760167"><ele>40.99999999999999</ele><time>2026-05-03T08:40:11.903Z</time></trkpt><trkpt lat="42.17253" lon="14.675975"><ele>41.0</ele><time>2026-05-03T08:40:13.902Z</time></trkpt><trkpt lat="42.1724683" lon="14.6759267"><ele>41.285714285714285</ele><time>2026-05-03T08:40:15.903Z</time></trkpt><trkpt lat="42.1724" lon="14.6758833"><ele>41.57142857142857</ele><time>2026-05-03T08:40:17.903Z</time></trkpt><trkpt lat="42.1723367" lon="14.675835"><ele>41.85714285714286</ele><time>2026-05-03T08:40:19.903Z</time></trkpt><trkpt lat="42.1722783" lon="14.675785"><ele>42.14285714285714</ele><time>2026-05-03T08:40:21.903Z</time></trkpt><trkpt lat="42.17222" lon="14.6757433"><ele>42.42857142857143</ele><time>2026-05-03T08:40:23.903Z</time></trkpt><trkpt lat="42.1721633" lon="14.6756933"><ele>42.714285714285715</ele><time>2026-05-03T08:40:25.902Z</time></trkpt><trkpt lat="42.172075" lon="14.67564"><ele>43.0</ele><time>2026-05-03T08:40:28.903Z</time></trkpt><trkpt lat="42.1720183" lon="14.6755967"><ele>43.142857142857146</ele><time>2026-05-03T08:40:30.903Z</time></trkpt><trkpt lat="42.1719633" lon="14.675555"><ele>43.285714285714285</ele><time>2026-05-03T08:40:32.903Z</time></trkpt><trkpt lat="42.171905" lon="14.6755167"><ele>43.42857142857143</ele><time>2026-05-03T08:40:34.903Z</time></trkpt><trkpt lat="42.1718433" lon="14.6754817"><ele>43.57142857142857</ele><time>2026-05-03T08:40:36.903Z</time></trkpt><trkpt lat="42.1717867" lon="14.6754433"><ele>43.714285714285715</ele><time>2026-05-03T08:40:38.902Z</time></trkpt><trkpt lat="42.171705" lon="14.6753767"><ele>43.85714285714286</ele><time>2026-05-03T08:40:41.903Z</time></trkpt><trkpt lat="42.17163" lon="14.6753083"><ele>44.0</ele><time>2026-05-03T08:40:44.903Z</time></trkpt><trkpt lat="42.1715733" lon="14.67527"><ele>44.666666666666664</ele><time>2026-05-03T08:40:46.902Z</time></trkpt><trkpt lat="42.17149" lon="14.6752183"><ele>45.33333333333333</ele><time>2026-05-03T08:40:49.903Z</time></trkpt><trkpt lat="42.17141" lon="14.6751733"><ele>46.0</ele><time>2026-05-03T08:40:52.902Z</time></trkpt><trkpt lat="42.1713367" lon="14.6751233"><ele>46.666666666666664</ele><time>2026-05-03T08:40:55.903Z</time></trkpt><trkpt lat="42.17128" lon="14.67506"><ele>47.333333333333336</ele><time>2026-05-03T08:40:58.903Z</time></trkpt><trkpt lat="42.1712467" lon="14.67498"><ele>48.0</ele><time>2026-05-03T08:41:02.902Z</time></trkpt><trkpt lat="42.1713117" lon="14.6749133"><ele>47.99999999999999</ele><time>2026-05-03T08:41:06.902Z</time></trkpt><trkpt lat="42.1713833" lon="14.67486"><ele>48.0</ele><time>2026-05-03T08:41:09.902Z</time></trkpt><trkpt lat="42.1714317" lon="14.674805"><ele>48.0</ele><time>2026-05-03T08:41:11.903Z</time></trkpt><trkpt lat="42.1714867" lon="14.67474"><ele>48.0</ele><time>2026-05-03T08:41:13.903Z</time></trkpt><trkpt lat="42.1715367" lon="14.6746733"><ele>48.0</ele><time>2026-05-03T08:41:15.903Z</time></trkpt><trkpt lat="42.171585" lon="14.6745933"><ele>47.99999999999999</ele><time>2026-05-03T08:41:17.902Z</time></trkpt><trkpt lat="42.1716267" lon="14.6745083"><ele>48.0</ele><time>2026-05-03T08:41:19.903Z</time></trkpt><trkpt lat="42.1716617" lon="14.6744233"><ele>47.833333333333336</ele><time>2026-05-03T08:41:21.903Z</time></trkpt><trkpt lat="42.1716983" lon="14.6743317"><ele>47.666666666666664</ele><time>2026-05-03T08:41:23.903Z</time></trkpt><trkpt lat="42.1717433" lon="14.6742367"><ele>47.5</ele><time>2026-05-03T08:41:25.903Z</time></trkpt><trkpt lat="42.171785" lon="14.674145"><ele>47.33333333333333</ele><time>2026-05-03T08:41:27.903Z</time></trkpt><trkpt lat="42.17183" lon="14.6740533"><ele>47.166666666666664</ele><time>2026-05-03T08:41:29.903Z</time></trkpt><trkpt lat="42.1718783" lon="14.6739667"><ele>47.0</ele><time>2026-05-03T08:41:31.902Z</time></trkpt><trkpt lat="42.1719267" lon="14.6738817"><ele>47.0</ele><time>2026-05-03T08:41:33.902Z</time></trkpt><trkpt lat="42.1719733" lon="14.67379"><ele>47.0</ele><time>2026-05-03T08:41:35.903Z</time></trkpt><trkpt lat="42.1720167" lon="14.6737"><ele>47.0</ele><time>2026-05-03T08:41:37.903Z</time></trkpt><trkpt lat="42.1720617" lon="14.6736083"><ele>47.0</ele><time>2026-05-03T08:41:39.903Z</time></trkpt><trkpt lat="42.1721167" lon="14.6735083"><ele>47.0</ele><time>2026-05-03T08:41:41.903Z</time></trkpt><trkpt lat="42.1721817" lon="14.6734167"><ele>47.0</ele><time>2026-05-03T08:41:43.903Z</time></trkpt><trkpt lat="42.1722567" lon="14.6733267"><ele>46.5</ele><time>2026-05-03T08:41:45.903Z</time></trkpt><trkpt lat="42.1723383" lon="14.6732383"><ele>46.0</ele><time>2026-05-03T08:41:47.903Z</time></trkpt><trkpt lat="42.17243" lon="14.6731517"><ele>45.5</ele><time>2026-05-03T08:41:49.903Z</time></trkpt><trkpt lat="42.1725183" lon="14.67305"><ele>45.0</ele><time>2026-05-03T08:41:51.902Z</time></trkpt><trkpt lat="42.172605" lon="14.67294"><ele>44.8</ele><time>2026-05-03T08:41:53.903Z</time></trkpt><trkpt lat="42.1726867" lon="14.67281"><ele>44.6</ele><time>2026-05-03T08:41:55.903Z</time></trkpt><trkpt lat="42.1727567" lon="14.6726517"><ele>44.400000000000006</ele><time>2026-05-03T08:41:57.903Z</time></trkpt><trkpt lat="42.1727867" lon="14.672565"><ele>44.2</ele><time>2026-05-03T08:41:58.902Z</time></trkpt><trkpt lat="42.1728217" lon="14.6724783"><ele>44.0</ele><time>2026-05-03T08:41:59.903Z</time></trkpt><trkpt lat="42.17285" lon="14.6723983"><ele>44.0</ele><time>2026-05-03T08:42:00.903Z</time></trkpt><trkpt lat="42.1728867" lon="14.672315"><ele>44.0</ele><time>2026-05-03T08:42:01.903Z</time></trkpt><trkpt lat="42.1729217" lon="14.6722333"><ele>44.0</ele><time>2026-05-03T08:42:02.903Z</time></trkpt><trkpt lat="42.1729567" lon="14.6721567"><ele>44.0</ele><time>2026-05-03T08:42:03.902Z</time></trkpt><trkpt lat="42.17299" lon="14.6720833"><ele>44.0</ele><time>2026-05-03T08:42:04.903Z</time></trkpt><trkpt lat="42.1730217" lon="14.672005"><ele>44.0</ele><time>2026-05-03T08:42:05.903Z</time></trkpt><trkpt lat="42.1730833" lon="14.671865"><ele>44.0</ele><time>2026-05-03T08:42:07.903Z</time></trkpt><trkpt lat="42.1731283" lon="14.6717517"><ele>44.0</ele><time>2026-05-03T08:42:09.903Z</time></trkpt><trkpt lat="42.1731767" lon="14.671645"><ele>44.0</ele><time>2026-05-03T08:42:11.903Z</time></trkpt><trkpt lat="42.173215" lon="14.671545"><ele>44.0</ele><time>2026-05-03T08:42:13.903Z</time></trkpt><trkpt lat="42.1732467" lon="14.6714567"><ele>44.0</ele><time>2026-05-03T08:42:15.902Z</time></trkpt><trkpt lat="42.1732817" lon="14.6713783"><ele>44.0</ele><time>2026-05-03T08:42:17.902Z</time></trkpt><trkpt lat="42.1733167" lon="14.6712933"><ele>44.0</ele><time>2026-05-03T08:42:19.902Z</time></trkpt><trkpt lat="42.1733483" lon="14.67121"><ele>44.0</ele><time>2026-05-03T08:42:21.903Z</time></trkpt><trkpt lat="42.17338" lon="14.6711317"><ele>44.0</ele><time>2026-05-03T08:42:23.903Z</time></trkpt><trkpt lat="42.1734167" lon="14.6710433"><ele>44.0</ele><time>2026-05-03T08:42:25.903Z</time></trkpt><trkpt lat="42.1734533" lon="14.6709533"><ele>44.0</ele><time>2026-05-03T08:42:27.903Z</time></trkpt><trkpt lat="42.17349" lon="14.67087"><ele>44.0</ele><time>2026-05-03T08:42:29.903Z</time></trkpt><trkpt lat="42.173525" lon="14.67079"><ele>44.0</ele><time>2026-05-03T08:42:31.903Z</time></trkpt><trkpt lat="42.1735583" lon="14.670715"><ele>44.42857142857143</ele><time>2026-05-03T08:42:33.903Z</time></trkpt><trkpt lat="42.1735867" lon="14.6706383"><ele>44.857142857142854</ele><time>2026-05-03T08:42:35.903Z</time></trkpt><trkpt lat="42.173615" lon="14.6705567"><ele>45.285714285714285</ele><time>2026-05-03T08:42:37.903Z</time></trkpt><trkpt lat="42.17365" lon="14.6704767"><ele>45.714285714285715</ele><time>2026-05-03T08:42:39.903Z</time></trkpt><trkpt lat="42.17369" lon="14.6704033"><ele>46.14285714285714</ele><time>2026-05-03T08:42:41.903Z</time></trkpt><trkpt lat="42.173725" lon="14.6703233"><ele>46.57142857142857</ele><time>2026-05-03T08:42:43.902Z</time></trkpt><trkpt lat="42.1737583" lon="14.6702433"><ele>47.0</ele><time>2026-05-03T08:42:45.903Z</time></trkpt><trkpt lat="42.1737917" lon="14.6701633"><ele>47.0</ele><time>2026-05-03T08:42:47.903Z</time></trkpt><trkpt lat="42.17383" lon="14.6700833"><ele>47.0</ele><time>2026-05-03T08:42:49.902Z</time></trkpt><trkpt lat="42.1738683" lon="14.6700017"><ele>47.0</ele><time>2026-05-03T08:42:51.902Z</time></trkpt><trkpt lat="42.1739033" lon="14.66993"><ele>47.0</ele><time>2026-05-03T08:42:53.902Z</time></trkpt><trkpt lat="42.1739433" lon="14.6698467"><ele>47.0</ele><time>2026-05-03T08:42:55.903Z</time></trkpt><trkpt lat="42.1739867" lon="14.6697667"><ele>47.0</ele><time>2026-05-03T08:42:57.903Z</time></trkpt><trkpt lat="42.1740167" lon="14.6696683"><ele>47.0</ele><time>2026-05-03T08:42:59.903Z</time></trkpt><trkpt lat="42.1740483" lon="14.669585"><ele>47.0</ele><time>2026-05-03T08:43:01.903Z</time></trkpt><trkpt lat="42.1740867" lon="14.669495"><ele>47.0</ele><time>2026-05-03T08:43:03.902Z</time></trkpt><trkpt lat="42.1741183" lon="14.6694017"><ele>47.0</ele><time>2026-05-03T08:43:05.903Z</time></trkpt><trkpt lat="42.17415" lon="14.66931"><ele>47.0</ele><time>2026-05-03T08:43:07.903Z</time></trkpt><trkpt lat="42.1741817" lon="14.6692217"><ele>47.0</ele><time>2026-05-03T08:43:09.902Z</time></trkpt><trkpt lat="42.1742033" lon="14.6691333"><ele>47.0</ele><time>2026-05-03T08:43:11.901Z</time></trkpt><trkpt lat="42.17422" lon="14.66904"><ele>47.0</ele><time>2026-05-03T08:43:13.901Z</time></trkpt><trkpt lat="42.1742417" lon="14.6689217"><ele>47.0</ele><time>2026-05-03T08:43:16.902Z</time></trkpt><trkpt lat="42.17426" lon="14.6688317"><ele>47.0</ele><time>2026-05-03T08:43:18.902Z</time></trkpt><trkpt lat="42.1742733" lon="14.6687333"><ele>47.0</ele><time>2026-05-03T08:43:20.902Z</time></trkpt><trkpt lat="42.1742883" lon="14.6686167"><ele>47.0</ele><time>2026-05-03T08:43:22.902Z</time></trkpt><trkpt lat="42.174295" lon="14.6684917"><ele>47.0</ele><time>2026-05-03T08:43:24.901Z</time></trkpt><trkpt lat="42.1743117" lon="14.668345"><ele>47.0</ele><time>2026-05-03T08:43:26.902Z</time></trkpt><trkpt lat="42.1743217" lon="14.66826"><ele>47.0</ele><time>2026-05-03T08:43:27.901Z</time></trkpt><trkpt lat="42.1743367" lon="14.668175"><ele>47.0</ele><time>2026-05-03T08:43:28.902Z</time></trkpt><trkpt lat="42.1743617" lon="14.6680883"><ele>47.0</ele><time>2026-05-03T08:43:29.902Z</time></trkpt><trkpt lat="42.1743967" lon="14.6680083"><ele>47.0</ele><time>2026-05-03T08:43:30.901Z</time></trkpt><trkpt lat="42.17445" lon="14.6679317"><ele>47.0</ele><time>2026-05-03T08:43:31.902Z</time></trkpt><trkpt lat="42.174505" lon="14.6678583"><ele>47.0</ele><time>2026-05-03T08:43:32.902Z</time></trkpt><trkpt lat="42.174565" lon="14.66778"><ele>47.0</ele><time>2026-05-03T08:43:33.902Z</time></trkpt><trkpt lat="42.1746333" lon="14.6676933"><ele>46.6</ele><time>2026-05-03T08:43:34.902Z</time></trkpt><trkpt lat="42.1747" lon="14.6676083"><ele>46.2</ele><time>2026-05-03T08:43:35.902Z</time></trkpt><trkpt lat="42.17477" lon="14.6675233"><ele>45.8</ele><time>2026-05-03T08:43:36.901Z</time></trkpt><trkpt lat="42.1748433" lon="14.66744"><ele>45.4</ele><time>2026-05-03T08:43:37.901Z</time></trkpt><trkpt lat="42.17491" lon="14.6673617"><ele>45.0</ele><time>2026-05-03T08:43:38.902Z</time></trkpt><trkpt lat="42.174975" lon="14.6672717"><ele>44.666666666666664</ele><time>2026-05-03T08:43:39.901Z</time></trkpt><trkpt lat="42.175045" lon="14.6671833"><ele>44.333333333333336</ele><time>2026-05-03T08:43:40.901Z</time></trkpt><trkpt lat="42.1751117" lon="14.6671067"><ele>44.0</ele><time>2026-05-03T08:43:41.902Z</time></trkpt><trkpt lat="42.1751767" lon="14.6670417"><ele>43.66666666666667</ele><time>2026-05-03T08:43:42.901Z</time></trkpt><trkpt lat="42.1752333" lon="14.66698"><ele>43.333333333333336</ele><time>2026-05-03T08:43:43.901Z</time></trkpt><trkpt lat="42.175285" lon="14.6669233"><ele>43.0</ele><time>2026-05-03T08:43:44.901Z</time></trkpt><trkpt lat="42.1753583" lon="14.666835"><ele>43.0</ele><time>2026-05-03T08:43:46.902Z</time></trkpt><trkpt lat="42.1754183" lon="14.6667667"><ele>43.0</ele><time>2026-05-03T08:43:48.902Z</time></trkpt><trkpt lat="42.1754833" lon="14.6667"><ele>43.0</ele><time>2026-05-03T08:43:51.902Z</time></trkpt><trkpt lat="42.1755533" lon="14.6666417"><ele>43.0</ele><time>2026-05-03T08:43:54.902Z</time></trkpt><trkpt lat="42.17561" lon="14.666595"><ele>43.0</ele><time>2026-05-03T08:43:56.901Z</time></trkpt><trkpt lat="42.175685" lon="14.6665367"><ele>43.0</ele><time>2026-05-03T08:43:59.901Z</time></trkpt><trkpt lat="42.1757517" lon="14.6664833"><ele>43.5</ele><time>2026-05-03T08:44:02.902Z</time></trkpt><trkpt lat="42.1758217" lon="14.6664383"><ele>44.0</ele><time>2026-05-03T08:44:05.902Z</time></trkpt><trkpt lat="42.1758967" lon="14.6663967"><ele>44.5</ele><time>2026-05-03T08:44:08.901Z</time></trkpt><trkpt lat="42.1759633" lon="14.6663633"><ele>45.0</ele><time>2026-05-03T08:44:11.902Z</time></trkpt><trkpt lat="42.1760267" lon="14.666295"><ele>45.5</ele><time>2026-05-03T08:44:14.902Z</time></trkpt><trkpt lat="42.1760967" lon="14.6662417"><ele>46.0</ele><time>2026-05-03T08:44:17.901Z</time></trkpt><trkpt lat="42.1761583" lon="14.6662033"><ele>46.0</ele><time>2026-05-03T08:44:20.901Z</time></trkpt><trkpt lat="42.1762167" lon="14.6661633"><ele>46.0</ele><time>2026-05-03T08:44:23.902Z</time></trkpt><trkpt lat="42.17628" lon="14.6661017"><ele>46.0</ele><time>2026-05-03T08:44:26.902Z</time></trkpt><trkpt lat="42.1763367" lon="14.6660517"><ele>46.0</ele><time>2026-05-03T08:44:29.901Z</time></trkpt><trkpt lat="42.176395" lon="14.666005"><ele>46.0</ele><time>2026-05-03T08:44:32.902Z</time></trkpt><trkpt lat="42.176455" lon="14.6659467"><ele>46.0</ele><time>2026-05-03T08:44:35.902Z</time></trkpt><trkpt lat="42.1765117" lon="14.6658783"><ele>46.0</ele><time>2026-05-03T08:44:38.902Z</time></trkpt><trkpt lat="42.1765717" lon="14.6657967"><ele>46.5</ele><time>2026-05-03T08:44:41.902Z</time></trkpt><trkpt lat="42.1766283" lon="14.6657317"><ele>47.0</ele><time>2026-05-03T08:44:44.902Z</time></trkpt><trkpt lat="42.1766767" lon="14.6656667"><ele>47.5</ele><time>2026-05-03T08:44:47.902Z</time></trkpt><trkpt lat="42.1767333" lon="14.6656"><ele>48.0</ele><time>2026-05-03T08:44:50.902Z</time></trkpt><trkpt lat="42.176795" lon="14.6655467"><ele>48.49999999999999</ele><time>2026-05-03T08:44:53.902Z</time></trkpt><trkpt lat="42.176855" lon="14.66547"><ele>49.0</ele><time>2026-05-03T08:44:57.902Z</time></trkpt><trkpt lat="42.176915" lon="14.6653917"><ele>48.99999999999999</ele><time>2026-05-03T08:45:00.902Z</time></trkpt><trkpt lat="42.17698" lon="14.6653083"><ele>49.0</ele><time>2026-05-03T08:45:03.902Z</time></trkpt><trkpt lat="42.177045" lon="14.6652317"><ele>49.0</ele><time>2026-05-03T08:45:06.902Z</time></trkpt><trkpt lat="42.177105" lon="14.6651617"><ele>49.0</ele><time>2026-05-03T08:45:09.902Z</time></trkpt><trkpt lat="42.177175" lon="14.66508"><ele>48.99999999999999</ele><time>2026-05-03T08:45:12.902Z</time></trkpt><trkpt lat="42.177245" lon="14.66501"><ele>49.0</ele><time>2026-05-03T08:45:15.901Z</time></trkpt><trkpt lat="42.177325" lon="14.6649317"><ele>48.666666666666664</ele><time>2026-05-03T08:45:18.902Z</time></trkpt><trkpt lat="42.1773783" lon="14.6648717"><ele>48.33333333333333</ele><time>2026-05-03T08:45:20.901Z</time></trkpt><trkpt lat="42.177435" lon="14.664815"><ele>48.0</ele><time>2026-05-03T08:45:22.902Z</time></trkpt><trkpt lat="42.177495" lon="14.6647433"><ele>47.666666666666664</ele><time>2026-05-03T08:45:24.902Z</time></trkpt><trkpt lat="42.1775567" lon="14.6646717"><ele>47.33333333333333</ele><time>2026-05-03T08:45:26.902Z</time></trkpt><trkpt lat="42.17761" lon="14.66461"><ele>47.0</ele><time>2026-05-03T08:45:28.902Z</time></trkpt><trkpt lat="42.1776633" lon="14.6645317"><ele>47.0</ele><time>2026-05-03T08:45:30.902Z</time></trkpt><trkpt lat="42.1777067" lon="14.6644533"><ele>47.0</ele><time>2026-05-03T08:45:32.901Z</time></trkpt><trkpt lat="42.1777533" lon="14.6643683"><ele>47.0</ele><time>2026-05-03T08:45:34.902Z</time></trkpt><trkpt lat="42.1778033" lon="14.6642883"><ele>47.0</ele><time>2026-05-03T08:45:36.902Z</time></trkpt><trkpt lat="42.17785" lon="14.6641883"><ele>47.0</ele><time>2026-05-03T08:45:38.902Z</time></trkpt><trkpt lat="42.1779017" lon="14.6640933"><ele>47.0</ele><time>2026-05-03T08:45:40.902Z</time></trkpt><trkpt lat="42.1779417" lon="14.66401"><ele>47.14285714285714</ele><time>2026-05-03T08:45:42.902Z</time></trkpt><trkpt lat="42.17798" lon="14.663925"><ele>47.285714285714285</ele><time>2026-05-03T08:45:44.902Z</time></trkpt><trkpt lat="42.178015" lon="14.6638333"><ele>47.42857142857143</ele><time>2026-05-03T08:45:46.902Z</time></trkpt><trkpt lat="42.1780533" lon="14.66375"><ele>47.57142857142857</ele><time>2026-05-03T08:45:48.902Z</time></trkpt><trkpt lat="42.1780933" lon="14.6636717"><ele>47.714285714285715</ele><time>2026-05-03T08:45:50.902Z</time></trkpt><trkpt lat="42.178135" lon="14.6635917"><ele>47.857142857142854</ele><time>2026-05-03T08:45:52.901Z</time></trkpt><trkpt lat="42.1781733" lon="14.6635117"><ele>48.0</ele><time>2026-05-03T08:45:54.902Z</time></trkpt><trkpt lat="42.1782167" lon="14.6634283"><ele>47.99999999999999</ele><time>2026-05-03T08:45:56.902Z</time></trkpt><trkpt lat="42.1782583" lon="14.6633483"><ele>48.0</ele><time>2026-05-03T08:45:58.901Z</time></trkpt><trkpt lat="42.1783017" lon="14.6632717"><ele>48.0</ele><time>2026-05-03T08:46:00.902Z</time></trkpt><trkpt lat="42.1783483" lon="14.6631933"><ele>48.0</ele><time>2026-05-03T08:46:02.901Z</time></trkpt><trkpt lat="42.178385" lon="14.6631133"><ele>48.0</ele><time>2026-05-03T08:46:04.902Z</time></trkpt><trkpt lat="42.1784217" lon="14.6630183"><ele>47.99999999999999</ele><time>2026-05-03T08:46:06.901Z</time></trkpt><trkpt lat="42.1784633" lon="14.6629267"><ele>48.0</ele><time>2026-05-03T08:46:08.902Z</time></trkpt><trkpt lat="42.1785033" lon="14.662835"><ele>48.166666666666664</ele><time>2026-05-03T08:46:10.902Z</time></trkpt><trkpt lat="42.1785383" lon="14.6627383"><ele>48.33333333333333</ele><time>2026-05-03T08:46:12.902Z</time></trkpt><trkpt lat="42.17857" lon="14.662645"><ele>48.5</ele><time>2026-05-03T08:46:14.902Z</time></trkpt><trkpt lat="42.1785983" lon="14.66255"><ele>48.666666666666664</ele><time>2026-05-03T08:46:16.902Z</time></trkpt><trkpt lat="42.1786217" lon="14.662445"><ele>48.83333333333333</ele><time>2026-05-03T08:46:18.901Z</time></trkpt><trkpt lat="42.1786383" lon="14.6623483"><ele>49.0</ele><time>2026-05-03T08:46:20.902Z</time></trkpt><trkpt lat="42.1786533" lon="14.6622417"><ele>48.99999999999999</ele><time>2026-05-03T08:46:22.902Z</time></trkpt><trkpt lat="42.178665" lon="14.6621467"><ele>49.0</ele><time>2026-05-03T08:46:24.902Z</time></trkpt><trkpt lat="42.1786767" lon="14.6620533"><ele>49.0</ele><time>2026-05-03T08:46:26.902Z</time></trkpt><trkpt lat="42.1786917" lon="14.6619583"><ele>49.0</ele><time>2026-05-03T08:46:28.902Z</time></trkpt><trkpt lat="42.1787117" lon="14.661835"><ele>48.99999999999999</ele><time>2026-05-03T08:46:31.902Z</time></trkpt><trkpt lat="42.1787217" lon="14.6617417"><ele>49.0</ele><time>2026-05-03T08:46:33.901Z</time></trkpt><trkpt lat="42.1787383" lon="14.6616417"><ele>49.166666666666664</ele><time>2026-05-03T08:46:35.901Z</time></trkpt><trkpt lat="42.1787567" lon="14.661545"><ele>49.33333333333333</ele><time>2026-05-03T08:46:37.902Z</time></trkpt><trkpt lat="42.1787733" lon="14.6614167"><ele>49.5</ele><time>2026-05-03T08:46:39.902Z</time></trkpt><trkpt lat="42.1787917" lon="14.6613017"><ele>49.66666666666667</ele><time>2026-05-03T08:46:41.902Z</time></trkpt><trkpt lat="42.1788067" lon="14.6611917"><ele>49.833333333333336</ele><time>2026-05-03T08:46:43.902Z</time></trkpt><trkpt lat="42.1788283" lon="14.6610933"><ele>50.0</ele><time>2026-05-03T08:46:45.901Z</time></trkpt><trkpt lat="42.17885" lon="14.660995"><ele>50.00000000000001</ele><time>2026-05-03T08:46:47.902Z</time></trkpt><trkpt lat="42.17888" lon="14.6609033"><ele>50.0</ele><time>2026-05-03T08:46:49.901Z</time></trkpt><trkpt lat="42.1789217" lon="14.660805"><ele>50.0</ele><time>2026-05-03T08:46:51.902Z</time></trkpt><trkpt lat="42.178965" lon="14.6607117"><ele>50.0</ele><time>2026-05-03T08:46:53.902Z</time></trkpt><trkpt lat="42.17901" lon="14.6606083"><ele>50.00000000000001</ele><time>2026-05-03T08:46:55.902Z</time></trkpt><trkpt lat="42.1790583" lon="14.6605133"><ele>50.0</ele><time>2026-05-03T08:46:57.901Z</time></trkpt><trkpt lat="42.1791117" lon="14.6604267"><ele>50.00000000000001</ele><time>2026-05-03T08:46:59.901Z</time></trkpt><trkpt lat="42.1791617" lon="14.6603333"><ele>50.0</ele><time>2026-05-03T08:47:01.901Z</time></trkpt><trkpt lat="42.1792117" lon="14.6602483"><ele>50.0</ele><time>2026-05-03T08:47:03.902Z</time></trkpt><trkpt lat="42.17926" lon="14.6601683"><ele>50.0</ele><time>2026-05-03T08:47:05.902Z</time></trkpt><trkpt lat="42.1792967" lon="14.66009"><ele>50.00000000000001</ele><time>2026-05-03T08:47:07.902Z</time></trkpt><trkpt lat="42.1793383" lon="14.6600217"><ele>50.0</ele><time>2026-05-03T08:47:09.902Z</time></trkpt><trkpt lat="42.1793967" lon="14.6599317"><ele>50.00000000000001</ele><time>2026-05-03T08:47:12.902Z</time></trkpt><trkpt lat="42.1794417" lon="14.6598683"><ele>50.0</ele><time>2026-05-03T08:47:15.902Z</time></trkpt><trkpt lat="42.1794933" lon="14.6597817"><ele>50.0</ele><time>2026-05-03T08:47:19.902Z</time></trkpt><trkpt lat="42.1795333" lon="14.6597"><ele>50.0</ele><time>2026-05-03T08:47:22.902Z</time></trkpt><trkpt lat="42.1795683" lon="14.6596267"><ele>50.0</ele><time>2026-05-03T08:47:24.902Z</time></trkpt><trkpt lat="42.1796117" lon="14.6595467"><ele>50.00000000000001</ele><time>2026-05-03T08:47:26.902Z</time></trkpt><trkpt lat="42.1796567" lon="14.6594517"><ele>50.0</ele><time>2026-05-03T08:47:28.901Z</time></trkpt><trkpt lat="42.179705" lon="14.6593583"><ele>50.333333333333336</ele><time>2026-05-03T08:47:30.901Z</time></trkpt><trkpt lat="42.1797517" lon="14.65927"><ele>50.66666666666667</ele><time>2026-05-03T08:47:32.902Z</time></trkpt><trkpt lat="42.1797917" lon="14.659195"><ele>51.0</ele><time>2026-05-03T08:47:34.901Z</time></trkpt><trkpt lat="42.17985" lon="14.6591"><ele>51.33333333333333</ele><time>2026-05-03T08:47:37.902Z</time></trkpt><trkpt lat="42.1798933" lon="14.65902"><ele>51.666666666666664</ele><time>2026-05-03T08:47:39.902Z</time></trkpt><trkpt lat="42.1799317" lon="14.658945"><ele>52.0</ele><time>2026-05-03T08:47:41.901Z</time></trkpt><trkpt lat="42.1799867" lon="14.65884"><ele>52.166666666666664</ele><time>2026-05-03T08:47:44.902Z</time></trkpt><trkpt lat="42.1800317" lon="14.6587767"><ele>52.33333333333333</ele><time>2026-05-03T08:47:46.902Z</time></trkpt><trkpt lat="42.18007" lon="14.658705"><ele>52.5</ele><time>2026-05-03T08:47:48.902Z</time></trkpt><trkpt lat="42.180125" lon="14.658605"><ele>52.66666666666667</ele><time>2026-05-03T08:47:51.902Z</time></trkpt><trkpt lat="42.1801683" lon="14.6585367"><ele>52.833333333333336</ele><time>2026-05-03T08:47:53.902Z</time></trkpt><trkpt lat="42.1802283" lon="14.6584317"><ele>53.0</ele><time>2026-05-03T08:47:56.902Z</time></trkpt><trkpt lat="42.1802933" lon="14.65834"><ele>53.142857142857146</ele><time>2026-05-03T08:47:59.902Z</time></trkpt><trkpt lat="42.1803417" lon="14.658275"><ele>53.285714285714285</ele><time>2026-05-03T08:48:01.901Z</time></trkpt><trkpt lat="42.18039" lon="14.6582133"><ele>53.42857142857143</ele><time>2026-05-03T08:48:03.902Z</time></trkpt><trkpt lat="42.180445" lon="14.65817"><ele>53.57142857142857</ele><time>2026-05-03T08:48:05.902Z</time></trkpt><trkpt lat="42.180525" lon="14.658105"><ele>53.71428571428571</ele><time>2026-05-03T08:48:08.901Z</time></trkpt><trkpt lat="42.1805817" lon="14.65805"><ele>53.857142857142854</ele><time>2026-05-03T08:48:10.901Z</time></trkpt><trkpt lat="42.1806367" lon="14.6580033"><ele>54.0</ele><time>2026-05-03T08:48:12.902Z</time></trkpt><trkpt lat="42.1806967" lon="14.6579567"><ele>54.0</ele><time>2026-05-03T08:48:14.902Z</time></trkpt><trkpt lat="42.1807517" lon="14.6579017"><ele>54.0</ele><time>2026-05-03T08:48:16.901Z</time></trkpt><trkpt lat="42.1808317" lon="14.6578383"><ele>54.0</ele><time>2026-05-03T08:48:19.901Z</time></trkpt><trkpt lat="42.1808933" lon="14.6577917"><ele>54.0</ele><time>2026-05-03T08:48:21.902Z</time></trkpt><trkpt lat="42.1809467" lon="14.65774"><ele>54.0</ele><time>2026-05-03T08:48:23.902Z</time></trkpt><trkpt lat="42.18101" lon="14.6576783"><ele>54.0</ele><time>2026-05-03T08:48:25.902Z</time></trkpt><trkpt lat="42.1810683" lon="14.6576217"><ele>54.0</ele><time>2026-05-03T08:48:27.901Z</time></trkpt><trkpt lat="42.1811183" lon="14.6575667"><ele>54.166666666666664</ele><time>2026-05-03T08:48:29.901Z</time></trkpt><trkpt lat="42.181175" lon="14.6575"><ele>54.33333333333333</ele><time>2026-05-03T08:48:31.902Z</time></trkpt><trkpt lat="42.1812317" lon="14.6574383"><ele>54.5</ele><time>2026-05-03T08:48:33.901Z</time></trkpt><trkpt lat="42.1812917" lon="14.6573817"><ele>54.666666666666664</ele><time>2026-05-03T08:48:35.901Z</time></trkpt><trkpt lat="42.1813533" lon="14.65732"><ele>54.83333333333333</ele><time>2026-05-03T08:48:37.901Z</time></trkpt><trkpt lat="42.1814167" lon="14.6572533"><ele>55.0</ele><time>2026-05-03T08:48:39.901Z</time></trkpt><trkpt lat="42.1814717" lon="14.657185"><ele>54.99999999999999</ele><time>2026-05-03T08:48:41.901Z</time></trkpt><trkpt lat="42.1815267" lon="14.6571267"><ele>55.0</ele><time>2026-05-03T08:48:43.902Z</time></trkpt><trkpt lat="42.18158" lon="14.65707"><ele>55.0</ele><time>2026-05-03T08:48:45.902Z</time></trkpt><trkpt lat="42.18163" lon="14.6570067"><ele>55.0</ele><time>2026-05-03T08:48:47.902Z</time></trkpt><trkpt lat="42.1817033" lon="14.656925"><ele>54.99999999999999</ele><time>2026-05-03T08:48:50.902Z</time></trkpt><trkpt lat="42.1817633" lon="14.6568617"><ele>55.0</ele><time>2026-05-03T08:48:52.902Z</time></trkpt><trkpt lat="42.1818217" lon="14.6567967"><ele>54.99999999999999</ele><time>2026-05-03T08:48:54.902Z</time></trkpt><trkpt lat="42.18188" lon="14.65673"><ele>55.0</ele><time>2026-05-03T08:48:56.902Z</time></trkpt><trkpt lat="42.1819333" lon="14.6566783"><ele>55.0</ele><time>2026-05-03T08:48:58.902Z</time></trkpt><trkpt lat="42.1820117" lon="14.65661"><ele>55.0</ele><time>2026-05-03T08:49:01.902Z</time></trkpt><trkpt lat="42.1820667" lon="14.6565417"><ele>54.99999999999999</ele><time>2026-05-03T08:49:03.902Z</time></trkpt><trkpt lat="42.18212" lon="14.65647"><ele>55.0</ele><time>2026-05-03T08:49:05.902Z</time></trkpt><trkpt lat="42.18218" lon="14.6563983"><ele>54.99999999999999</ele><time>2026-05-03T08:49:07.901Z</time></trkpt><trkpt lat="42.1822417" lon="14.6563317"><ele>55.0</ele><time>2026-05-03T08:49:09.902Z</time></trkpt><trkpt lat="42.182305" lon="14.65626"><ele>55.0</ele><time>2026-05-03T08:49:11.902Z</time></trkpt><trkpt lat="42.1823683" lon="14.6561917"><ele>55.0</ele><time>2026-05-03T08:49:13.902Z</time></trkpt><trkpt lat="42.1824267" lon="14.6561333"><ele>54.99999999999999</ele><time>2026-05-03T08:49:15.902Z</time></trkpt><trkpt lat="42.1824817" lon="14.6560717"><ele>55.0</ele><time>2026-05-03T08:49:17.902Z</time></trkpt><trkpt lat="42.1825433" lon="14.6560133"><ele>54.83333333333333</ele><time>2026-05-03T08:49:19.901Z</time></trkpt><trkpt lat="42.1826017" lon="14.6559517"><ele>54.666666666666664</ele><time>2026-05-03T08:49:21.901Z</time></trkpt><trkpt lat="42.18266" lon="14.6558967"><ele>54.5</ele><time>2026-05-03T08:49:23.901Z</time></trkpt><trkpt lat="42.1827183" lon="14.6558567"><ele>54.33333333333333</ele><time>2026-05-03T08:49:25.902Z</time></trkpt><trkpt lat="42.1828067" lon="14.6558"><ele>54.166666666666664</ele><time>2026-05-03T08:49:28.902Z</time></trkpt><trkpt lat="42.1828867" lon="14.655735"><ele>54.0</ele><time>2026-05-03T08:49:31.902Z</time></trkpt><trkpt lat="42.1829483" lon="14.6556817"><ele>54.0</ele><time>2026-05-03T08:49:33.902Z</time></trkpt><trkpt lat="42.1830117" lon="14.6556317"><ele>54.0</ele><time>2026-05-03T08:49:35.902Z</time></trkpt><trkpt lat="42.1830817" lon="14.6555733"><ele>54.0</ele><time>2026-05-03T08:49:37.902Z</time></trkpt><trkpt lat="42.183155" lon="14.6555117"><ele>54.0</ele><time>2026-05-03T08:49:39.902Z</time></trkpt><trkpt lat="42.1832233" lon="14.65545"><ele>54.0</ele><time>2026-05-03T08:49:41.901Z</time></trkpt><trkpt lat="42.1832933" lon="14.6553933"><ele>54.0</ele><time>2026-05-03T08:49:43.902Z</time></trkpt><trkpt lat="42.1833617" lon="14.6553317"><ele>53.833333333333336</ele><time>2026-05-03T08:49:45.901Z</time></trkpt><trkpt lat="42.1834317" lon="14.6552717"><ele>53.66666666666667</ele><time>2026-05-03T08:49:47.902Z</time></trkpt><trkpt lat="42.1834983" lon="14.6552117"><ele>53.5</ele><time>2026-05-03T08:49:49.902Z</time></trkpt><trkpt lat="42.1835633" lon="14.6551633"><ele>53.333333333333336</ele><time>2026-05-03T08:49:51.902Z</time></trkpt><trkpt lat="42.1836283" lon="14.6551117"><ele>53.16666666666667</ele><time>2026-05-03T08:49:53.902Z</time></trkpt><trkpt lat="42.1836917" lon="14.655055"><ele>53.0</ele><time>2026-05-03T08:49:55.902Z</time></trkpt><trkpt lat="42.1837617" lon="14.6549983"><ele>53.0</ele><time>2026-05-03T08:49:57.901Z</time></trkpt><trkpt lat="42.1838233" lon="14.6549433"><ele>53.0</ele><time>2026-05-03T08:49:59.902Z</time></trkpt><trkpt lat="42.18389" lon="14.6548917"><ele>53.0</ele><time>2026-05-03T08:50:01.901Z</time></trkpt><trkpt lat="42.18396" lon="14.6548367"><ele>53.0</ele><time>2026-05-03T08:50:03.902Z</time></trkpt><trkpt lat="42.184025" lon="14.6547867"><ele>53.0</ele><time>2026-05-03T08:50:05.901Z</time></trkpt><trkpt lat="42.1840817" lon="14.6547417"><ele>53.0</ele><time>2026-05-03T08:50:07.901Z</time></trkpt><trkpt lat="42.1841483" lon="14.6546967"><ele>53.0</ele><time>2026-05-03T08:50:09.902Z</time></trkpt><trkpt lat="42.184215" lon="14.6546417"><ele>53.16666666666667</ele><time>2026-05-03T08:50:11.902Z</time></trkpt><trkpt lat="42.1842817" lon="14.65458"><ele>53.333333333333336</ele><time>2026-05-03T08:50:13.902Z</time></trkpt><trkpt lat="42.184345" lon="14.6545283"><ele>53.5</ele><time>2026-05-03T08:50:15.901Z</time></trkpt><trkpt lat="42.1844117" lon="14.6544733"><ele>53.66666666666667</ele><time>2026-05-03T08:50:17.902Z</time></trkpt><trkpt lat="42.1844767" lon="14.6544217"><ele>53.833333333333336</ele><time>2026-05-03T08:50:19.902Z</time></trkpt><trkpt lat="42.1845433" lon="14.6543683"><ele>54.0</ele><time>2026-05-03T08:50:21.902Z</time></trkpt><trkpt lat="42.18461" lon="14.6543133"><ele>54.166666666666664</ele><time>2026-05-03T08:50:23.901Z</time></trkpt><trkpt lat="42.1846767" lon="14.654245"><ele>54.33333333333333</ele><time>2026-05-03T08:50:25.901Z</time></trkpt><trkpt lat="42.184745" lon="14.65419"><ele>54.5</ele><time>2026-05-03T08:50:27.901Z</time></trkpt><trkpt lat="42.1848133" lon="14.6541367"><ele>54.666666666666664</ele><time>2026-05-03T08:50:29.902Z</time></trkpt><trkpt lat="42.1848817" lon="14.6540933"><ele>54.83333333333333</ele><time>2026-05-03T08:50:31.901Z</time></trkpt><trkpt lat="42.1849433" lon="14.6540383"><ele>55.0</ele><time>2026-05-03T08:50:33.902Z</time></trkpt><trkpt lat="42.185005" lon="14.653985"><ele>54.666666666666664</ele><time>2026-05-03T08:50:35.902Z</time></trkpt><trkpt lat="42.1850733" lon="14.6539333"><ele>54.33333333333333</ele><time>2026-05-03T08:50:37.901Z</time></trkpt><trkpt lat="42.1851367" lon="14.6538817"><ele>54.0</ele><time>2026-05-03T08:50:39.902Z</time></trkpt><trkpt lat="42.1851967" lon="14.6538267"><ele>53.66666666666667</ele><time>2026-05-03T08:50:41.902Z</time></trkpt><trkpt lat="42.1852633" lon="14.6537767"><ele>53.333333333333336</ele><time>2026-05-03T08:50:43.902Z</time></trkpt><trkpt lat="42.1853333" lon="14.6537183"><ele>53.0</ele><time>2026-05-03T08:50:45.902Z</time></trkpt><trkpt lat="42.185395" lon="14.6536633"><ele>53.142857142857146</ele><time>2026-05-03T08:50:47.902Z</time></trkpt><trkpt lat="42.1854617" lon="14.6536183"><ele>53.285714285714285</ele><time>2026-05-03T08:50:49.902Z</time></trkpt><trkpt lat="42.1855233" lon="14.653565"><ele>53.42857142857143</ele><time>2026-05-03T08:50:51.901Z</time></trkpt><trkpt lat="42.1855833" lon="14.6535117"><ele>53.57142857142857</ele><time>2026-05-03T08:50:53.902Z</time></trkpt><trkpt lat="42.18564" lon="14.6534633"><ele>53.71428571428571</ele><time>2026-05-03T08:50:55.901Z</time></trkpt><trkpt lat="42.1857033" lon="14.653405"><ele>53.857142857142854</ele><time>2026-05-03T08:50:57.902Z</time></trkpt><trkpt lat="42.1857567" lon="14.6533433"><ele>54.0</ele><time>2026-05-03T08:50:59.901Z</time></trkpt><trkpt lat="42.1858133" lon="14.6532817"><ele>54.0</ele><time>2026-05-03T08:51:01.902Z</time></trkpt><trkpt lat="42.1858633" lon="14.653225"><ele>54.0</ele><time>2026-05-03T08:51:03.901Z</time></trkpt><trkpt lat="42.1859167" lon="14.65315"><ele>54.0</ele><time>2026-05-03T08:51:05.901Z</time></trkpt><trkpt lat="42.1859817" lon="14.653085"><ele>54.0</ele><time>2026-05-03T08:51:08.901Z</time></trkpt><trkpt lat="42.186045" lon="14.6531433"><ele>54.0</ele><time>2026-05-03T08:51:11.902Z</time></trkpt><trkpt lat="42.18608" lon="14.6532683"><ele>54.0</ele><time>2026-05-03T08:51:14.901Z</time></trkpt><trkpt lat="42.1861067" lon="14.6533667"><ele>54.0</ele><time>2026-05-03T08:51:16.902Z</time></trkpt><trkpt lat="42.1861317" lon="14.6534633"><ele>54.0</ele><time>2026-05-03T08:51:18.901Z</time></trkpt><trkpt lat="42.1861617" lon="14.6535467"><ele>54.0</ele><time>2026-05-03T08:51:20.901Z</time></trkpt><trkpt lat="42.1862033" lon="14.6536383"><ele>54.0</ele><time>2026-05-03T08:51:22.901Z</time></trkpt><trkpt lat="42.186245" lon="14.6537283"><ele>54.0</ele><time>2026-05-03T08:51:24.901Z</time></trkpt><trkpt lat="42.18628" lon="14.65382"><ele>54.0</ele><time>2026-05-03T08:51:26.901Z</time></trkpt><trkpt lat="42.186315" lon="14.6539083"><ele>53.833333333333336</ele><time>2026-05-03T08:51:28.902Z</time></trkpt><trkpt lat="42.18635" lon="14.654"><ele>53.66666666666667</ele><time>2026-05-03T08:51:30.901Z</time></trkpt><trkpt lat="42.1863867" lon="14.6540833"><ele>53.5</ele><time>2026-05-03T08:51:32.902Z</time></trkpt><trkpt lat="42.1864283" lon="14.6541667"><ele>53.333333333333336</ele><time>2026-05-03T08:51:34.901Z</time></trkpt><trkpt lat="42.186475" lon="14.654265"><ele>53.16666666666667</ele><time>2026-05-03T08:51:36.902Z</time></trkpt><trkpt lat="42.1865217" lon="14.6543617"><ele>53.0</ele><time>2026-05-03T08:51:38.902Z</time></trkpt><trkpt lat="42.1865667" lon="14.654455"><ele>52.66666666666667</ele><time>2026-05-03T08:51:40.901Z</time></trkpt><trkpt lat="42.1866133" lon="14.65455"><ele>52.333333333333336</ele><time>2026-05-03T08:51:42.902Z</time></trkpt><trkpt lat="42.1866617" lon="14.65464"><ele>52.0</ele><time>2026-05-03T08:51:44.902Z</time></trkpt><trkpt lat="42.18671" lon="14.6547383"><ele>51.66666666666667</ele><time>2026-05-03T08:51:46.901Z</time></trkpt><trkpt lat="42.1867767" lon="14.6548133"><ele>51.333333333333336</ele><time>2026-05-03T08:51:48.902Z</time></trkpt><trkpt lat="42.18687" lon="14.6548317"><ele>51.0</ele><time>2026-05-03T08:51:50.902Z</time></trkpt><trkpt lat="42.1869667" lon="14.65483"><ele>51.0</ele><time>2026-05-03T08:51:52.902Z</time></trkpt><trkpt lat="42.1870517" lon="14.6547917"><ele>51.0</ele><time>2026-05-03T08:51:54.902Z</time></trkpt><trkpt lat="42.1871167" lon="14.6547133"><ele>51.0</ele><time>2026-05-03T08:51:56.901Z</time></trkpt><trkpt lat="42.1871683" lon="14.6546167"><ele>51.0</ele><time>2026-05-03T08:51:58.902Z</time></trkpt><trkpt lat="42.1872117" lon="14.65453"><ele>51.0</ele><time>2026-05-03T08:52:00.902Z</time></trkpt><trkpt lat="42.187255" lon="14.65444"><ele>51.0</ele><time>2026-05-03T08:52:02.901Z</time></trkpt><trkpt lat="42.1872917" lon="14.6543417"><ele>51.333333333333336</ele><time>2026-05-03T08:52:04.902Z</time></trkpt><trkpt lat="42.1873267" lon="14.6542417"><ele>51.66666666666667</ele><time>2026-05-03T08:52:06.902Z</time></trkpt><trkpt lat="42.1873517" lon="14.654145"><ele>52.0</ele><time>2026-05-03T08:52:08.901Z</time></trkpt><trkpt lat="42.1873917" lon="14.6540583"><ele>52.333333333333336</ele><time>2026-05-03T08:52:10.902Z</time></trkpt><trkpt lat="42.1874367" lon="14.6539967"><ele>52.66666666666667</ele><time>2026-05-03T08:52:12.902Z</time></trkpt><trkpt lat="42.18751" lon="14.6539367"><ele>53.0</ele><time>2026-05-03T08:52:15.902Z</time></trkpt><trkpt lat="42.1875833" lon="14.653875"><ele>52.57142857142858</ele><time>2026-05-03T08:52:18.901Z</time></trkpt><trkpt lat="42.1876267" lon="14.65377"><ele>52.14285714285714</ele><time>2026-05-03T08:52:21.902Z</time></trkpt><trkpt lat="42.18768" lon="14.6536967"><ele>51.714285714285715</ele><time>2026-05-03T08:52:24.901Z</time></trkpt><trkpt lat="42.187735" lon="14.6536433"><ele>51.28571428571429</ele><time>2026-05-03T08:52:26.901Z</time></trkpt><trkpt lat="42.187795" lon="14.6536033"><ele>50.85714285714286</ele><time>2026-05-03T08:52:28.902Z</time></trkpt><trkpt lat="42.1878517" lon="14.6535633"><ele>50.42857142857143</ele><time>2026-05-03T08:52:30.901Z</time></trkpt><trkpt lat="42.18792" lon="14.6534983"><ele>50.0</ele><time>2026-05-03T08:52:32.902Z</time></trkpt><trkpt lat="42.187995" lon="14.6534117"><ele>50.0</ele><time>2026-05-03T08:52:35.901Z</time></trkpt><trkpt lat="42.1880733" lon="14.6533533"><ele>50.0</ele><time>2026-05-03T08:52:37.901Z</time></trkpt><trkpt lat="42.18816" lon="14.65327"><ele>50.0</ele><time>2026-05-03T08:52:39.902Z</time></trkpt><trkpt lat="42.188245" lon="14.6531867"><ele>50.0</ele><time>2026-05-03T08:52:41.902Z</time></trkpt><trkpt lat="42.1883167" lon="14.6531267"><ele>50.0</ele><time>2026-05-03T08:52:43.901Z</time></trkpt><trkpt lat="42.1883833" lon="14.6530683"><ele>48.833333333333336</ele><time>2026-05-03T08:52:45.902Z</time></trkpt><trkpt lat="42.188445" lon="14.6529783"><ele>47.66666666666667</ele><time>2026-05-03T08:52:47.901Z</time></trkpt><trkpt lat="42.188485" lon="14.6529"><ele>46.5</ele><time>2026-05-03T08:52:49.902Z</time></trkpt><trkpt lat="42.1885233" lon="14.65282"><ele>45.333333333333336</ele><time>2026-05-03T08:52:51.901Z</time></trkpt><trkpt lat="42.188565" lon="14.6527433"><ele>44.16666666666667</ele><time>2026-05-03T08:52:53.901Z</time></trkpt><trkpt lat="42.1885933" lon="14.6526667"><ele>43.0</ele><time>2026-05-03T08:52:55.902Z</time></trkpt><trkpt lat="42.1886233" lon="14.652555"><ele>43.0</ele><time>2026-05-03T08:52:57.902Z</time></trkpt><trkpt lat="42.1886583" lon="14.6524417"><ele>43.0</ele><time>2026-05-03T08:52:59.902Z</time></trkpt><trkpt lat="42.1886867" lon="14.65235"><ele>43.0</ele><time>2026-05-03T08:53:01.902Z</time></trkpt><trkpt lat="42.1887217" lon="14.6522467"><ele>43.0</ele><time>2026-05-03T08:53:03.902Z</time></trkpt><trkpt lat="42.188745" lon="14.6521617"><ele>43.0</ele><time>2026-05-03T08:53:05.902Z</time></trkpt><trkpt lat="42.1887833" lon="14.6520567"><ele>43.0</ele><time>2026-05-03T08:53:08.901Z</time></trkpt><trkpt lat="42.1888217" lon="14.6519883"><ele>43.833333333333336</ele><time>2026-05-03T08:53:10.902Z</time></trkpt><trkpt lat="42.1888717" lon="14.6519133"><ele>44.66666666666667</ele><time>2026-05-03T08:53:12.902Z</time></trkpt><trkpt lat="42.1889183" lon="14.6518517"><ele>45.5</ele><time>2026-05-03T08:53:14.902Z</time></trkpt><trkpt lat="42.188975" lon="14.651755"><ele>46.333333333333336</ele><time>2026-05-03T08:53:16.902Z</time></trkpt><trkpt lat="42.189025" lon="14.651665"><ele>47.166666666666664</ele><time>2026-05-03T08:53:18.902Z</time></trkpt><trkpt lat="42.1890667" lon="14.651565"><ele>48.0</ele><time>2026-05-03T08:53:20.901Z</time></trkpt><trkpt lat="42.1891133" lon="14.6514383"><ele>44.0</ele><time>2026-05-03T08:53:22.901Z</time></trkpt><trkpt lat="42.1891533" lon="14.6513417"><ele>40.0</ele><time>2026-05-03T08:53:24.901Z</time></trkpt><trkpt lat="42.18921" lon="14.6511833"><ele>36.0</ele><time>2026-05-03T08:53:26.902Z</time></trkpt><trkpt lat="42.189225" lon="14.65108"><ele>32.0</ele><time>2026-05-03T08:53:29.902Z</time></trkpt><trkpt lat="42.1892517" lon="14.6509717"><ele>28.0</ele><time>2026-05-03T08:53:31.902Z</time></trkpt><trkpt lat="42.1892617" lon="14.6507833"><ele>28.000000000000004</ele><time>2026-05-03T08:53:34.901Z</time></trkpt><trkpt lat="42.1892717" lon="14.6506483"><ele>28.0</ele><time>2026-05-03T08:53:37.902Z</time></trkpt><trkpt lat="42.189295" lon="14.6505283"><ele>28.0</ele><time>2026-05-03T08:53:39.902Z</time></trkpt><trkpt lat="42.1893117" lon="14.6503983"><ele>28.0</ele><time>2026-05-03T08:53:41.901Z</time></trkpt><trkpt lat="42.1893283" lon="14.6503"><ele>28.000000000000004</ele><time>2026-05-03T08:53:42.901Z</time></trkpt><trkpt lat="42.189335" lon="14.6502017"><ele>28.0</ele><time>2026-05-03T08:53:43.902Z</time></trkpt><trkpt lat="42.1893583" lon="14.6500933"><ele>26.799999999999997</ele><time>2026-05-03T08:53:44.901Z</time></trkpt><trkpt lat="42.1893783" lon="14.6499967"><ele>25.599999999999998</ele><time>2026-05-03T08:53:45.902Z</time></trkpt><trkpt lat="42.1893983" lon="14.6499033"><ele>24.4</ele><time>2026-05-03T08:53:46.902Z</time></trkpt><trkpt lat="42.1894617" lon="14.6497817"><ele>23.200000000000003</ele><time>2026-05-03T08:53:48.902Z</time></trkpt><trkpt lat="42.1895433" lon="14.6496867"><ele>22.0</ele><time>2026-05-03T08:53:50.902Z</time></trkpt><trkpt lat="42.18961" lon="14.6496133"><ele>22.0</ele><time>2026-05-03T08:53:52.902Z</time></trkpt><trkpt lat="42.1896517" lon="14.6495133"><ele>22.0</ele><time>2026-05-03T08:53:54.902Z</time></trkpt><trkpt lat="42.189665" lon="14.6493983"><ele>22.0</ele><time>2026-05-03T08:53:56.902Z</time></trkpt><trkpt lat="42.1896717" lon="14.6492833"><ele>22.0</ele><time>2026-05-03T08:53:58.901Z</time></trkpt><trkpt lat="42.1896683" lon="14.64917"><ele>22.0</ele><time>2026-05-03T08:54:00.901Z</time></trkpt><trkpt lat="42.1896667" lon="14.6490433"><ele>22.0</ele><time>2026-05-03T08:54:02.901Z</time></trkpt><trkpt lat="42.18967" lon="14.6489233"><ele>20.166666666666664</ele><time>2026-05-03T08:54:04.902Z</time></trkpt><trkpt lat="42.1896783" lon="14.6488017"><ele>18.333333333333332</ele><time>2026-05-03T08:54:06.902Z</time></trkpt><trkpt lat="42.189685" lon="14.6486817"><ele>16.5</ele><time>2026-05-03T08:54:08.901Z</time></trkpt><trkpt lat="42.1896933" lon="14.64856"><ele>14.666666666666666</ele><time>2026-05-03T08:54:10.901Z</time></trkpt><trkpt lat="42.1897067" lon="14.648435"><ele>12.833333333333332</ele><time>2026-05-03T08:54:12.902Z</time></trkpt><trkpt lat="42.1897117" lon="14.6483283"><ele>11.0</ele><time>2026-05-03T08:54:14.902Z</time></trkpt><trkpt lat="42.189715" lon="14.6482133"><ele>10.333333333333332</ele><time>2026-05-03T08:54:16.901Z</time></trkpt><trkpt lat="42.1897167" lon="14.648095"><ele>9.666666666666666</ele><time>2026-05-03T08:54:18.901Z</time></trkpt><trkpt lat="42.1897133" lon="14.6479833"><ele>9.0</ele><time>2026-05-03T08:54:20.902Z</time></trkpt><trkpt lat="42.1897083" lon="14.6478717"><ele>8.333333333333334</ele><time>2026-05-03T08:54:22.902Z</time></trkpt><trkpt lat="42.1897083" lon="14.6477633"><ele>7.666666666666667</ele><time>2026-05-03T08:54:24.902Z</time></trkpt><trkpt lat="42.1897083" lon="14.6476583"><ele>7.0</ele><time>2026-05-03T08:54:26.901Z</time></trkpt><trkpt lat="42.1897167" lon="14.6475433"><ele>6.666666666666667</ele><time>2026-05-03T08:54:28.902Z</time></trkpt><trkpt lat="42.1897217" lon="14.6474267"><ele>6.333333333333334</ele><time>2026-05-03T08:54:30.901Z</time></trkpt><trkpt lat="42.1897217" lon="14.6473133"><ele>6.0</ele><time>2026-05-03T08:54:32.902Z</time></trkpt><trkpt lat="42.1897267" lon="14.6471967"><ele>5.666666666666667</ele><time>2026-05-03T08:54:34.901Z</time></trkpt><trkpt lat="42.18973" lon="14.6470767"><ele>5.333333333333334</ele><time>2026-05-03T08:54:36.902Z</time></trkpt><trkpt lat="42.1897217" lon="14.6469667"><ele>5.0</ele><time>2026-05-03T08:54:38.902Z</time></trkpt><trkpt lat="42.1897183" lon="14.6468533"><ele>5.0</ele><time>2026-05-03T08:54:40.901Z</time></trkpt><trkpt lat="42.189725" lon="14.646735"><ele>5.0</ele><time>2026-05-03T08:54:42.902Z</time></trkpt><trkpt lat="42.1897383" lon="14.6466117"><ele>5.0</ele><time>2026-05-03T08:54:44.901Z</time></trkpt><trkpt lat="42.189745" lon="14.6464967"><ele>5.0</ele><time>2026-05-03T08:54:46.902Z</time></trkpt><trkpt lat="42.18976" lon="14.646375"><ele>5.0</ele><time>2026-05-03T08:54:48.902Z</time></trkpt><trkpt lat="42.1897683" lon="14.646245"><ele>4.6</ele><time>2026-05-03T08:54:50.901Z</time></trkpt><trkpt lat="42.18977" lon="14.6461217"><ele>4.2</ele><time>2026-05-03T08:54:52.901Z</time></trkpt><trkpt lat="42.18978" lon="14.64601"><ele>3.8</ele><time>2026-05-03T08:54:54.902Z</time></trkpt><trkpt lat="42.1898033" lon="14.6458933"><ele>3.4</ele><time>2026-05-03T08:54:56.902Z</time></trkpt><trkpt lat="42.1898333" lon="14.645765"><ele>3.0</ele><time>2026-05-03T08:54:58.901Z</time></trkpt><trkpt lat="42.189875" lon="14.6456267"><ele>3.0</ele><time>2026-05-03T08:55:00.902Z</time></trkpt><trkpt lat="42.18993" lon="14.645485"><ele>3.0</ele><time>2026-05-03T08:55:02.901Z</time></trkpt><trkpt lat="42.189965" lon="14.64541"><ele>3.0</ele><time>2026-05-03T08:55:03.902Z</time></trkpt><trkpt lat="42.1900017" lon="14.645335"><ele>3.0</ele><time>2026-05-03T08:55:04.901Z</time></trkpt><trkpt lat="42.190035" lon="14.6452583"><ele>3.0</ele><time>2026-05-03T08:55:05.901Z</time></trkpt><trkpt lat="42.1900733" lon="14.6451683"><ele>3.0</ele><time>2026-05-03T08:55:06.901Z</time></trkpt><trkpt lat="42.1901083" lon="14.6450767"><ele>3.0</ele><time>2026-05-03T08:55:07.902Z</time></trkpt><trkpt lat="42.190145" lon="14.6449833"><ele>3.0</ele><time>2026-05-03T08:55:08.902Z</time></trkpt><trkpt lat="42.1901683" lon="14.6449017"><ele>3.0</ele><time>2026-05-03T08:55:09.902Z</time></trkpt><trkpt lat="42.1902083" lon="14.6447533"><ele>3.0</ele><time>2026-05-03T08:55:11.902Z</time></trkpt><trkpt lat="42.1902383" lon="14.6446633"><ele>3.0</ele><time>2026-05-03T08:55:13.902Z</time></trkpt><trkpt lat="42.190325" lon="14.644605"><ele>3.0</ele><time>2026-05-03T08:55:16.901Z</time></trkpt><trkpt lat="42.1904133" lon="14.64458"><ele>3.0</ele><time>2026-05-03T08:55:18.902Z</time></trkpt><trkpt lat="42.1905017" lon="14.644555"><ele>3.0</ele><time>2026-05-03T08:55:20.902Z</time></trkpt><trkpt lat="42.1905783" lon="14.644515"><ele>3.0</ele><time>2026-05-03T08:55:22.902Z</time></trkpt><trkpt lat="42.190655" lon="14.644485"><ele>3.0</ele><time>2026-05-03T08:55:24.901Z</time></trkpt><trkpt lat="42.1907267" lon="14.644445"><ele>3.0</ele><time>2026-05-03T08:55:26.902Z</time></trkpt><trkpt lat="42.190815" lon="14.6444317"><ele>3.0</ele><time>2026-05-03T08:55:28.901Z</time></trkpt><trkpt lat="42.1908983" lon="14.644395"><ele>2.8</ele><time>2026-05-03T08:55:30.902Z</time></trkpt><trkpt lat="42.1909833" lon="14.6443433"><ele>2.5999999999999996</ele><time>2026-05-03T08:55:32.901Z</time></trkpt><trkpt lat="42.1910533" lon="14.6442867"><ele>2.4000000000000004</ele><time>2026-05-03T08:55:34.901Z</time></trkpt><trkpt lat="42.191125" lon="14.6442067"><ele>2.2</ele><time>2026-05-03T08:55:36.902Z</time></trkpt><trkpt lat="42.191195" lon="14.6441083"><ele>2.0</ele><time>2026-05-03T08:55:38.902Z</time></trkpt><trkpt lat="42.1912567" lon="14.64399"><ele>2.0</ele><time>2026-05-03T08:55:40.902Z</time></trkpt><trkpt lat="42.1913117" lon="14.64387"><ele>2.0</ele><time>2026-05-03T08:55:42.902Z</time></trkpt><trkpt lat="42.1913633" lon="14.6437683"><ele>2.0</ele><time>2026-05-03T08:55:44.902Z</time></trkpt><trkpt lat="42.191425" lon="14.6436533"><ele>2.0</ele><time>2026-05-03T08:55:46.902Z</time></trkpt><trkpt lat="42.1914817" lon="14.64355"><ele>2.0</ele><time>2026-05-03T08:55:48.901Z</time></trkpt><trkpt lat="42.1915433" lon="14.6434617"><ele>1.6666666666666665</ele><time>2026-05-03T08:55:50.902Z</time></trkpt><trkpt lat="42.1915883" lon="14.6433833"><ele>1.3333333333333333</ele><time>2026-05-03T08:55:52.901Z</time></trkpt><trkpt lat="42.1916517" lon="14.6433267"><ele>1.0</ele><time>2026-05-03T08:55:54.902Z</time></trkpt><trkpt lat="42.1917267" lon="14.64325"><ele>0.6666666666666666</ele><time>2026-05-03T08:55:56.901Z</time></trkpt><trkpt lat="42.1917967" lon="14.6431567"><ele>0.3333333333333333</ele><time>2026-05-03T08:55:58.901Z</time></trkpt><trkpt lat="42.1918667" lon="14.64306"><ele>0.0</ele><time>2026-05-03T08:56:00.902Z</time></trkpt><trkpt lat="42.19193" lon="14.6429533"><ele>0.0</ele><time>2026-05-03T08:56:02.902Z</time></trkpt><trkpt lat="42.1919867" lon="14.6428567"><ele>0.0</ele><time>2026-05-03T08:56:04.902Z</time></trkpt><trkpt lat="42.1920467" lon="14.6427683"><ele>0.0</ele><time>2026-05-03T08:56:06.902Z</time></trkpt><trkpt lat="42.1921133" lon="14.6426917"><ele>0.0</ele><time>2026-05-03T08:56:08.901Z</time></trkpt><trkpt lat="42.1921817" lon="14.642615"><ele>0.0</ele><time>2026-05-03T08:56:10.901Z</time></trkpt><trkpt lat="42.1922383" lon="14.6425483"><ele>0.0</ele><time>2026-05-03T08:56:12.902Z</time></trkpt><trkpt lat="42.1922933" lon="14.6424717"><ele>0.0</ele><time>2026-05-03T08:56:14.902Z</time></trkpt><trkpt lat="42.1923417" lon="14.6423717"><ele>0.0</ele><time>2026-05-03T08:56:16.902Z</time></trkpt><trkpt lat="42.192385" lon="14.64226"><ele>0.0</ele><time>2026-05-03T08:56:18.902Z</time></trkpt><trkpt lat="42.1924283" lon="14.64215"><ele>0.0</ele><time>2026-05-03T08:56:20.902Z</time></trkpt><trkpt lat="42.1924583" lon="14.642035"><ele>0.0</ele><time>2026-05-03T08:56:22.901Z</time></trkpt><trkpt lat="42.1924883" lon="14.6419283"><ele>0.0</ele><time>2026-05-03T08:56:24.902Z</time></trkpt><trkpt lat="42.1925183" lon="14.6418167"><ele>0.0</ele><time>2026-05-03T08:56:26.902Z</time></trkpt><trkpt lat="42.1925533" lon="14.6417067"><ele>0.0</ele><time>2026-05-03T08:56:28.902Z</time></trkpt><trkpt lat="42.19258" lon="14.6416"><ele>0.0</ele><time>2026-05-03T08:56:30.902Z</time></trkpt><trkpt lat="42.1926067" lon="14.6414867"><ele>0.0</ele><time>2026-05-03T08:56:32.901Z</time></trkpt><trkpt lat="42.1926333" lon="14.6413817"><ele>0.0</ele><time>2026-05-03T08:56:34.902Z</time></trkpt><trkpt lat="42.1926567" lon="14.641275"><ele>0.0</ele><time>2026-05-03T08:56:36.901Z</time></trkpt><trkpt lat="42.192685" lon="14.6411717"><ele>0.0</ele><time>2026-05-03T08:56:38.901Z</time></trkpt><trkpt lat="42.1927083" lon="14.6410683"><ele>0.0</ele><time>2026-05-03T08:56:40.901Z</time></trkpt><trkpt lat="42.1927317" lon="14.6409733"><ele>0.0</ele><time>2026-05-03T08:56:42.902Z</time></trkpt><trkpt lat="42.1927567" lon="14.6408683"><ele>0.0</ele><time>2026-05-03T08:56:44.901Z</time></trkpt><trkpt lat="42.192795" lon="14.64078"><ele>0.0</ele><time>2026-05-03T08:56:46.902Z</time></trkpt><trkpt lat="42.1928267" lon="14.6406867"><ele>0.0</ele><time>2026-05-03T08:56:48.901Z</time></trkpt><trkpt lat="42.1928517" lon="14.6405833"><ele>0.0</ele><time>2026-05-03T08:56:50.901Z</time></trkpt><trkpt lat="42.1928783" lon="14.640465"><ele>0.0</ele><time>2026-05-03T08:56:52.902Z</time></trkpt><trkpt lat="42.1929083" lon="14.640355"><ele>0.0</ele><time>2026-05-03T08:56:54.902Z</time></trkpt><trkpt lat="42.1929417" lon="14.6402467"><ele>0.0</ele><time>2026-05-03T08:56:56.901Z</time></trkpt><trkpt lat="42.1929733" lon="14.6401367"><ele>0.0</ele><time>2026-05-03T08:56:58.901Z</time></trkpt><trkpt lat="42.1929967" lon="14.6400267"><ele>0.0</ele><time>2026-05-03T08:57:00.901Z</time></trkpt><trkpt lat="42.1930283" lon="14.6399067"><ele>-0.16666666666666666</ele><time>2026-05-03T08:57:02.902Z</time></trkpt><trkpt lat="42.19306" lon="14.63979"><ele>-0.3333333333333333</ele><time>2026-05-03T08:57:04.902Z</time></trkpt><trkpt lat="42.1930867" lon="14.6396767"><ele>-0.5</ele><time>2026-05-03T08:57:06.902Z</time></trkpt><trkpt lat="42.193115" lon="14.639575"><ele>-0.6666666666666666</ele><time>2026-05-03T08:57:08.902Z</time></trkpt><trkpt lat="42.193145" lon="14.63946"><ele>-0.8333333333333333</ele><time>2026-05-03T08:57:10.902Z</time></trkpt><trkpt lat="42.1931733" lon="14.6393417"><ele>-1.0</ele><time>2026-05-03T08:57:12.902Z</time></trkpt><trkpt lat="42.1932017" lon="14.6392267"><ele>-0.9999999999999999</ele><time>2026-05-03T08:57:14.902Z</time></trkpt><trkpt lat="42.19323" lon="14.6391167"><ele>-1.0</ele><time>2026-05-03T08:57:16.901Z</time></trkpt><trkpt lat="42.19326" lon="14.6390067"><ele>-1.0</ele><time>2026-05-03T08:57:18.901Z</time></trkpt><trkpt lat="42.1932933" lon="14.6389133"><ele>-1.0</ele><time>2026-05-03T08:57:20.902Z</time></trkpt><trkpt lat="42.1933233" lon="14.6388183"><ele>-0.9999999999999999</ele><time>2026-05-03T08:57:22.902Z</time></trkpt><trkpt lat="42.1933517" lon="14.6387183"><ele>-1.0</ele><time>2026-05-03T08:57:24.901Z</time></trkpt><trkpt lat="42.1933783" lon="14.6386167"><ele>-0.6666666666666666</ele><time>2026-05-03T08:57:26.902Z</time></trkpt><trkpt lat="42.1933983" lon="14.63852"><ele>-0.3333333333333333</ele><time>2026-05-03T08:57:28.902Z</time></trkpt><trkpt lat="42.19342" lon="14.6384183"><ele>0.0</ele><time>2026-05-03T08:57:30.902Z</time></trkpt><trkpt lat="42.19343" lon="14.6383117"><ele>0.3333333333333333</ele><time>2026-05-03T08:57:32.902Z</time></trkpt><trkpt lat="42.1934517" lon="14.6382083"><ele>0.6666666666666666</ele><time>2026-05-03T08:57:34.902Z</time></trkpt><trkpt lat="42.1934867" lon="14.6380967"><ele>1.0</ele><time>2026-05-03T08:57:36.902Z</time></trkpt><trkpt lat="42.1935183" lon="14.63799"><ele>0.9999999999999999</ele><time>2026-05-03T08:57:38.901Z</time></trkpt><trkpt lat="42.1935433" lon="14.6378917"><ele>1.0</ele><time>2026-05-03T08:57:40.902Z</time></trkpt><trkpt lat="42.1935617" lon="14.63781"><ele>1.0</ele><time>2026-05-03T08:57:42.902Z</time></trkpt><trkpt lat="42.1936" lon="14.6377117"><ele>1.0</ele><time>2026-05-03T08:57:45.901Z</time></trkpt><trkpt lat="42.1936383" lon="14.6376033"><ele>0.9999999999999999</ele><time>2026-05-03T08:57:48.9Z</time></trkpt><trkpt lat="42.193655" lon="14.6375133"><ele>1.0</ele><time>2026-05-03T08:57:50.901Z</time></trkpt><trkpt lat="42.19368" lon="14.6374233"><ele>1.0</ele><time>2026-05-03T08:57:52.901Z</time></trkpt><trkpt lat="42.193705" lon="14.6373383"><ele>0.9999999999999999</ele><time>2026-05-03T08:57:54.901Z</time></trkpt><trkpt lat="42.1937283" lon="14.6372533"><ele>1.0</ele><time>2026-05-03T08:57:56.9Z</time></trkpt><trkpt lat="42.193755" lon="14.6371483"><ele>1.0</ele><time>2026-05-03T08:57:58.901Z</time></trkpt><trkpt lat="42.19378" lon="14.637055"><ele>0.9999999999999999</ele><time>2026-05-03T08:58:00.901Z</time></trkpt><trkpt lat="42.19381" lon="14.6369683"><ele>1.0</ele><time>2026-05-03T08:58:02.901Z</time></trkpt><trkpt lat="42.193835" lon="14.6368833"><ele>1.0</ele><time>2026-05-03T08:58:04.901Z</time></trkpt><trkpt lat="42.1938633" lon="14.6367967"><ele>1.1666666666666665</ele><time>2026-05-03T08:58:06.901Z</time></trkpt><trkpt lat="42.19389" lon="14.6367017"><ele>1.3333333333333333</ele><time>2026-05-03T08:58:08.9Z</time></trkpt><trkpt lat="42.19392" lon="14.6366133"><ele>1.5</ele><time>2026-05-03T08:58:10.901Z</time></trkpt><trkpt lat="42.1939417" lon="14.63653"><ele>1.6666666666666665</ele><time>2026-05-03T08:58:12.9Z</time></trkpt><trkpt lat="42.1939683" lon="14.6364283"><ele>1.8333333333333333</ele><time>2026-05-03T08:58:14.901Z</time></trkpt><trkpt lat="42.193995" lon="14.6363233"><ele>2.0</ele><time>2026-05-03T08:58:16.901Z</time></trkpt><trkpt lat="42.1940217" lon="14.63622"><ele>1.8333333333333333</ele><time>2026-05-03T08:58:18.901Z</time></trkpt><trkpt lat="42.19405" lon="14.6361117"><ele>1.6666666666666665</ele><time>2026-05-03T08:58:20.901Z</time></trkpt><trkpt lat="42.1940733" lon="14.6360133"><ele>1.5</ele><time>2026-05-03T08:58:22.901Z</time></trkpt><trkpt lat="42.1940983" lon="14.635925"><ele>1.3333333333333333</ele><time>2026-05-03T08:58:24.901Z</time></trkpt><trkpt lat="42.1941283" lon="14.6358217"><ele>1.1666666666666665</ele><time>2026-05-03T08:58:26.901Z</time></trkpt><trkpt lat="42.194155" lon="14.6357217"><ele>1.0</ele><time>2026-05-03T08:58:28.901Z</time></trkpt><trkpt lat="42.194185" lon="14.63563"><ele>0.9999999999999999</ele><time>2026-05-03T08:58:30.901Z</time></trkpt><trkpt lat="42.1942133" lon="14.6355233"><ele>1.0</ele><time>2026-05-03T08:58:32.901Z</time></trkpt><trkpt lat="42.1942483" lon="14.63542"><ele>1.0</ele><time>2026-05-03T08:58:34.901Z</time></trkpt><trkpt lat="42.194285" lon="14.63531"><ele>1.0</ele><time>2026-05-03T08:58:36.901Z</time></trkpt><trkpt lat="42.1943167" lon="14.635195"><ele>0.9999999999999999</ele><time>2026-05-03T08:58:38.901Z</time></trkpt><trkpt lat="42.1943483" lon="14.6350733"><ele>1.0</ele><time>2026-05-03T08:58:40.901Z</time></trkpt><trkpt lat="42.1943767" lon="14.6349533"><ele>1.1666666666666665</ele><time>2026-05-03T08:58:42.901Z</time></trkpt><trkpt lat="42.1944033" lon="14.63484"><ele>1.3333333333333333</ele><time>2026-05-03T08:58:44.9Z</time></trkpt><trkpt lat="42.194435" lon="14.6347233"><ele>1.5</ele><time>2026-05-03T08:58:46.901Z</time></trkpt><trkpt lat="42.1944717" lon="14.6346033"><ele>1.6666666666666665</ele><time>2026-05-03T08:58:48.901Z</time></trkpt><trkpt lat="42.1945083" lon="14.634495"><ele>1.8333333333333333</ele><time>2026-05-03T08:58:50.901Z</time></trkpt><trkpt lat="42.1945467" lon="14.634395"><ele>2.0</ele><time>2026-05-03T08:58:52.9Z</time></trkpt><trkpt lat="42.194585" lon="14.6342933"><ele>2.2857142857142856</ele><time>2026-05-03T08:58:54.901Z</time></trkpt><trkpt lat="42.1946117" lon="14.63419"><ele>2.571428571428571</ele><time>2026-05-03T08:58:56.901Z</time></trkpt><trkpt lat="42.1946417" lon="14.6341"><ele>2.8571428571428568</ele><time>2026-05-03T08:58:58.9Z</time></trkpt><trkpt lat="42.1946717" lon="14.634015"><ele>3.142857142857143</ele><time>2026-05-03T08:59:00.9Z</time></trkpt><trkpt lat="42.1947017" lon="14.633935"><ele>3.428571428571428</ele><time>2026-05-03T08:59:02.9Z</time></trkpt><trkpt lat="42.1947283" lon="14.6338383"><ele>3.714285714285714</ele><time>2026-05-03T08:59:04.901Z</time></trkpt><trkpt lat="42.1947533" lon="14.63374"><ele>4.0</ele><time>2026-05-03T08:59:06.901Z</time></trkpt><trkpt lat="42.194785" lon="14.6336517"><ele>4.333333333333333</ele><time>2026-05-03T08:59:08.9Z</time></trkpt><trkpt lat="42.1948117" lon="14.6335583"><ele>4.666666666666666</ele><time>2026-05-03T08:59:10.9Z</time></trkpt><trkpt lat="42.1948467" lon="14.6334617"><ele>5.0</ele><time>2026-05-03T08:59:12.9Z</time></trkpt><trkpt lat="42.1948733" lon="14.6333817"><ele>5.333333333333333</ele><time>2026-05-03T08:59:14.901Z</time></trkpt><trkpt lat="42.1949017" lon="14.6332833"><ele>5.666666666666667</ele><time>2026-05-03T08:59:16.9Z</time></trkpt><trkpt lat="42.1949283" lon="14.6331767"><ele>6.0</ele><time>2026-05-03T08:59:18.9Z</time></trkpt><trkpt lat="42.1949633" lon="14.633065"><ele>5.833333333333333</ele><time>2026-05-03T08:59:20.901Z</time></trkpt><trkpt lat="42.1949883" lon="14.632945"><ele>5.666666666666667</ele><time>2026-05-03T08:59:22.901Z</time></trkpt><trkpt lat="42.1950167" lon="14.6328333"><ele>5.5</ele><time>2026-05-03T08:59:24.901Z</time></trkpt><trkpt lat="42.1950417" lon="14.6327217"><ele>5.333333333333334</ele><time>2026-05-03T08:59:26.901Z</time></trkpt><trkpt lat="42.19507" lon="14.6326117"><ele>5.166666666666667</ele><time>2026-05-03T08:59:28.9Z</time></trkpt><trkpt lat="42.1951017" lon="14.6325033"><ele>5.0</ele><time>2026-05-03T08:59:30.901Z</time></trkpt><trkpt lat="42.19513" lon="14.63238"><ele>5.0</ele><time>2026-05-03T08:59:32.901Z</time></trkpt><trkpt lat="42.1951633" lon="14.632275"><ele>5.0</ele><time>2026-05-03T08:59:34.901Z</time></trkpt><trkpt lat="42.1951917" lon="14.63218"><ele>5.0</ele><time>2026-05-03T08:59:36.9Z</time></trkpt><trkpt lat="42.19522" lon="14.6320717"><ele>5.0</ele><time>2026-05-03T08:59:38.901Z</time></trkpt><trkpt lat="42.1952433" lon="14.6319533"><ele>5.0</ele><time>2026-05-03T08:59:40.901Z</time></trkpt><trkpt lat="42.1952767" lon="14.63184"><ele>5.0</ele><time>2026-05-03T08:59:42.9Z</time></trkpt><trkpt lat="42.195315" lon="14.63174"><ele>4.833333333333334</ele><time>2026-05-03T08:59:44.9Z</time></trkpt><trkpt lat="42.19535" lon="14.6316417"><ele>4.666666666666667</ele><time>2026-05-03T08:59:46.901Z</time></trkpt><trkpt lat="42.1953817" lon="14.6315467"><ele>4.5</ele><time>2026-05-03T08:59:48.901Z</time></trkpt><trkpt lat="42.195405" lon="14.6314467"><ele>4.333333333333333</ele><time>2026-05-03T08:59:50.901Z</time></trkpt><trkpt lat="42.1954333" lon="14.6313333"><ele>4.166666666666666</ele><time>2026-05-03T08:59:52.901Z</time></trkpt><trkpt lat="42.1954733" lon="14.63122"><ele>4.0</ele><time>2026-05-03T08:59:54.9Z</time></trkpt><trkpt lat="42.1955117" lon="14.6311133"><ele>4.0</ele><time>2026-05-03T08:59:56.901Z</time></trkpt><trkpt lat="42.19554" lon="14.6310167"><ele>4.0</ele><time>2026-05-03T08:59:58.901Z</time></trkpt><trkpt lat="42.1955617" lon="14.63089"><ele>4.0</ele><time>2026-05-03T09:00:00.9Z</time></trkpt><trkpt lat="42.1955933" lon="14.63076"><ele>4.0</ele><time>2026-05-03T09:00:02.901Z</time></trkpt><trkpt lat="42.1956317" lon="14.6306483"><ele>4.0</ele><time>2026-05-03T09:00:04.901Z</time></trkpt><trkpt lat="42.19566" lon="14.630535"><ele>3.833333333333333</ele><time>2026-05-03T09:00:06.9Z</time></trkpt><trkpt lat="42.19568" lon="14.6304183"><ele>3.6666666666666665</ele><time>2026-05-03T09:00:08.9Z</time></trkpt><trkpt lat="42.1957083" lon="14.630305"><ele>3.5</ele><time>2026-05-03T09:00:10.901Z</time></trkpt><trkpt lat="42.1957367" lon="14.63019"><ele>3.333333333333333</ele><time>2026-05-03T09:00:12.9Z</time></trkpt><trkpt lat="42.1957633" lon="14.63008"><ele>3.1666666666666665</ele><time>2026-05-03T09:00:14.9Z</time></trkpt><trkpt lat="42.1958033" lon="14.6299733"><ele>3.0</ele><time>2026-05-03T09:00:16.901Z</time></trkpt><trkpt lat="42.1958433" lon="14.6298683"><ele>3.0</ele><time>2026-05-03T09:00:18.901Z</time></trkpt><trkpt lat="42.19588" lon="14.6297567"><ele>3.0</ele><time>2026-05-03T09:00:20.9Z</time></trkpt><trkpt lat="42.19591" lon="14.6296583"><ele>3.0</ele><time>2026-05-03T09:00:22.9Z</time></trkpt><trkpt lat="42.1959367" lon="14.629565"><ele>3.0</ele><time>2026-05-03T09:00:24.9Z</time></trkpt><trkpt lat="42.1959733" lon="14.62949"><ele>3.0</ele><time>2026-05-03T09:00:26.9Z</time></trkpt><trkpt lat="42.1960167" lon="14.6294067"><ele>3.0</ele><time>2026-05-03T09:00:28.9Z</time></trkpt><trkpt lat="42.196055" lon="14.6293083"><ele>3.1666666666666665</ele><time>2026-05-03T09:00:30.901Z</time></trkpt><trkpt lat="42.19607" lon="14.6291933"><ele>3.333333333333333</ele><time>2026-05-03T09:00:32.901Z</time></trkpt><trkpt lat="42.196075" lon="14.6290783"><ele>3.5</ele><time>2026-05-03T09:00:34.901Z</time></trkpt><trkpt lat="42.1960733" lon="14.6289633"><ele>3.6666666666666665</ele><time>2026-05-03T09:00:36.901Z</time></trkpt><trkpt lat="42.1960683" lon="14.6288517"><ele>3.833333333333333</ele><time>2026-05-03T09:00:38.9Z</time></trkpt><trkpt lat="42.19608" lon="14.6287467"><ele>4.0</ele><time>2026-05-03T09:00:40.901Z</time></trkpt><trkpt lat="42.1961" lon="14.62864"><ele>4.0</ele><time>2026-05-03T09:00:42.9Z</time></trkpt><trkpt lat="42.1961233" lon="14.628555"><ele>3.9999999999999996</ele><time>2026-05-03T09:00:44.9Z</time></trkpt><trkpt lat="42.1961517" lon="14.6284683"><ele>4.0</ele><time>2026-05-03T09:00:46.901Z</time></trkpt><trkpt lat="42.196185" lon="14.6283783"><ele>4.0</ele><time>2026-05-03T09:00:48.901Z</time></trkpt><trkpt lat="42.196215" lon="14.628295"><ele>3.9999999999999996</ele><time>2026-05-03T09:00:50.9Z</time></trkpt><trkpt lat="42.1962467" lon="14.6282033"><ele>4.0</ele><time>2026-05-03T09:00:52.901Z</time></trkpt><trkpt lat="42.1962767" lon="14.6281117"><ele>4.0</ele><time>2026-05-03T09:00:54.901Z</time></trkpt><trkpt lat="42.19632" lon="14.6280133"><ele>3.9999999999999996</ele><time>2026-05-03T09:00:56.901Z</time></trkpt><trkpt lat="42.1963583" lon="14.6279117"><ele>4.0</ele><time>2026-05-03T09:00:58.9Z</time></trkpt><trkpt lat="42.19639" lon="14.6278067"><ele>4.0</ele><time>2026-05-03T09:01:00.9Z</time></trkpt><trkpt lat="42.1964267" lon="14.6276983"><ele>4.0</ele><time>2026-05-03T09:01:02.901Z</time></trkpt><trkpt lat="42.1964617" lon="14.6275867"><ele>3.9999999999999996</ele><time>2026-05-03T09:01:04.9Z</time></trkpt><trkpt lat="42.1965033" lon="14.627475"><ele>4.0</ele><time>2026-05-03T09:01:06.901Z</time></trkpt><trkpt lat="42.19654" lon="14.62737"><ele>3.6666666666666665</ele><time>2026-05-03T09:01:08.901Z</time></trkpt><trkpt lat="42.1965733" lon="14.6272717"><ele>3.333333333333333</ele><time>2026-05-03T09:01:10.9Z</time></trkpt><trkpt lat="42.19661" lon="14.627165"><ele>3.0</ele><time>2026-05-03T09:01:12.901Z</time></trkpt><trkpt lat="42.1966483" lon="14.6270617"><ele>2.6666666666666665</ele><time>2026-05-03T09:01:14.901Z</time></trkpt><trkpt lat="42.1966817" lon="14.626965"><ele>2.333333333333333</ele><time>2026-05-03T09:01:16.9Z</time></trkpt><trkpt lat="42.1967117" lon="14.62687"><ele>2.0</ele><time>2026-05-03T09:01:18.9Z</time></trkpt><trkpt lat="42.196745" lon="14.6267717"><ele>1.6666666666666665</ele><time>2026-05-03T09:01:20.901Z</time></trkpt><trkpt lat="42.1967783" lon="14.6266717"><ele>1.3333333333333333</ele><time>2026-05-03T09:01:22.901Z</time></trkpt><trkpt lat="42.1968083" lon="14.6265733"><ele>1.0</ele><time>2026-05-03T09:01:24.901Z</time></trkpt><trkpt lat="42.1968417" lon="14.6264733"><ele>0.6666666666666666</ele><time>2026-05-03T09:01:26.9Z</time></trkpt><trkpt lat="42.19688" lon="14.62638"><ele>0.3333333333333333</ele><time>2026-05-03T09:01:28.901Z</time></trkpt><trkpt lat="42.1969117" lon="14.62629"><ele>0.0</ele><time>2026-05-03T09:01:30.901Z</time></trkpt><trkpt lat="42.1969433" lon="14.6261933"><ele>1.1666666666666667</ele><time>2026-05-03T09:01:32.901Z</time></trkpt><trkpt lat="42.1969767" lon="14.626085"><ele>2.3333333333333335</ele><time>2026-05-03T09:01:34.901Z</time></trkpt><trkpt lat="42.197015" lon="14.6259833"><ele>3.5</ele><time>2026-05-03T09:01:36.901Z</time></trkpt><trkpt lat="42.197055" lon="14.6258767"><ele>4.666666666666667</ele><time>2026-05-03T09:01:38.901Z</time></trkpt><trkpt lat="42.1970917" lon="14.6257817"><ele>5.833333333333334</ele><time>2026-05-03T09:01:40.9Z</time></trkpt><trkpt lat="42.1971267" lon="14.62569"><ele>7.0</ele><time>2026-05-03T09:01:42.901Z</time></trkpt><trkpt lat="42.1971633" lon="14.6255983"><ele>7.000000000000001</ele><time>2026-05-03T09:01:44.901Z</time></trkpt><trkpt lat="42.1971967" lon="14.6254967"><ele>7.0</ele><time>2026-05-03T09:01:46.9Z</time></trkpt><trkpt lat="42.1972367" lon="14.6254083"><ele>7.0</ele><time>2026-05-03T09:01:48.9Z</time></trkpt><trkpt lat="42.1972717" lon="14.625305"><ele>7.0</ele><time>2026-05-03T09:01:50.901Z</time></trkpt><trkpt lat="42.1973033" lon="14.6252"><ele>7.000000000000001</ele><time>2026-05-03T09:01:52.9Z</time></trkpt><trkpt lat="42.1973383" lon="14.625095"><ele>7.0</ele><time>2026-05-03T09:01:54.901Z</time></trkpt><trkpt lat="42.1973817" lon="14.6249967"><ele>6.666666666666667</ele><time>2026-05-03T09:01:56.901Z</time></trkpt><trkpt lat="42.1974183" lon="14.6248933"><ele>6.333333333333334</ele><time>2026-05-03T09:01:58.9Z</time></trkpt><trkpt lat="42.19745" lon="14.6247917"><ele>6.0</ele><time>2026-05-03T09:02:00.9Z</time></trkpt><trkpt lat="42.1974783" lon="14.6246983"><ele>5.666666666666667</ele><time>2026-05-03T09:02:02.901Z</time></trkpt><trkpt lat="42.1975083" lon="14.6246"><ele>5.333333333333334</ele><time>2026-05-03T09:02:04.901Z</time></trkpt><trkpt lat="42.197545" lon="14.6245067"><ele>5.0</ele><time>2026-05-03T09:02:06.901Z</time></trkpt><trkpt lat="42.1975817" lon="14.6244133"><ele>5.666666666666667</ele><time>2026-05-03T09:02:08.9Z</time></trkpt><trkpt lat="42.19761" lon="14.624315"><ele>6.333333333333334</ele><time>2026-05-03T09:02:10.901Z</time></trkpt><trkpt lat="42.19764" lon="14.6242183"><ele>7.0</ele><time>2026-05-03T09:02:12.901Z</time></trkpt><trkpt lat="42.1976733" lon="14.6241267"><ele>7.666666666666667</ele><time>2026-05-03T09:02:14.901Z</time></trkpt><trkpt lat="42.1977083" lon="14.62403"><ele>8.333333333333334</ele><time>2026-05-03T09:02:16.901Z</time></trkpt><trkpt lat="42.1977417" lon="14.6239217"><ele>9.0</ele><time>2026-05-03T09:02:18.901Z</time></trkpt><trkpt lat="42.1977717" lon="14.6238183"><ele>9.0</ele><time>2026-05-03T09:02:20.901Z</time></trkpt><trkpt lat="42.1978" lon="14.62371"><ele>9.0</ele><time>2026-05-03T09:02:22.901Z</time></trkpt><trkpt lat="42.197835" lon="14.6236"><ele>9.0</ele><time>2026-05-03T09:02:24.901Z</time></trkpt><trkpt lat="42.1978667" lon="14.6234833"><ele>9.0</ele><time>2026-05-03T09:02:26.901Z</time></trkpt><trkpt lat="42.1979" lon="14.6233717"><ele>9.0</ele><time>2026-05-03T09:02:28.901Z</time></trkpt><trkpt lat="42.19793" lon="14.6232733"><ele>9.0</ele><time>2026-05-03T09:02:30.9Z</time></trkpt><trkpt lat="42.19796" lon="14.62318"><ele>9.285714285714286</ele><time>2026-05-03T09:02:32.901Z</time></trkpt><trkpt lat="42.1979817" lon="14.6230867"><ele>9.571428571428571</ele><time>2026-05-03T09:02:34.901Z</time></trkpt><trkpt lat="42.19802" lon="14.6229933"><ele>9.857142857142858</ele><time>2026-05-03T09:02:36.901Z</time></trkpt><trkpt lat="42.1980467" lon="14.622895"><ele>10.142857142857142</ele><time>2026-05-03T09:02:38.901Z</time></trkpt><trkpt lat="42.198065" lon="14.6228083"><ele>10.428571428571429</ele><time>2026-05-03T09:02:40.901Z</time></trkpt><trkpt lat="42.1980917" lon="14.622715"><ele>10.714285714285715</ele><time>2026-05-03T09:02:42.901Z</time></trkpt><trkpt lat="42.1981083" lon="14.6226217"><ele>11.0</ele><time>2026-05-03T09:02:44.901Z</time></trkpt><trkpt lat="42.198135" lon="14.622525"><ele>11.5</ele><time>2026-05-03T09:02:46.9Z</time></trkpt><trkpt lat="42.198165" lon="14.6224267"><ele>12.0</ele><time>2026-05-03T09:02:48.901Z</time></trkpt><trkpt lat="42.1981967" lon="14.6223333"><ele>12.5</ele><time>2026-05-03T09:02:50.901Z</time></trkpt><trkpt lat="42.198225" lon="14.6222417"><ele>13.0</ele><time>2026-05-03T09:02:52.901Z</time></trkpt><trkpt lat="42.1982517" lon="14.6221433"><ele>13.500000000000002</ele><time>2026-05-03T09:02:54.901Z</time></trkpt><trkpt lat="42.1982817" lon="14.6220517"><ele>14.0</ele><time>2026-05-03T09:02:56.901Z</time></trkpt><trkpt lat="42.1983033" lon="14.621955"><ele>13.000000000000002</ele><time>2026-05-03T09:02:58.901Z</time></trkpt><trkpt lat="42.19833" lon="14.621855"><ele>12.0</ele><time>2026-05-03T09:03:00.901Z</time></trkpt><trkpt lat="42.1983583" lon="14.621755"><ele>11.0</ele><time>2026-05-03T09:03:02.9Z</time></trkpt><trkpt lat="42.1983883" lon="14.6216583"><ele>10.0</ele><time>2026-05-03T09:03:04.9Z</time></trkpt><trkpt lat="42.19842" lon="14.6215667"><ele>9.0</ele><time>2026-05-03T09:03:06.901Z</time></trkpt><trkpt lat="42.19845" lon="14.6214633"><ele>8.0</ele><time>2026-05-03T09:03:08.901Z</time></trkpt><trkpt lat="42.1984783" lon="14.6213583"><ele>8.0</ele><time>2026-05-03T09:03:10.901Z</time></trkpt><trkpt lat="42.198505" lon="14.62127"><ele>7.999999999999999</ele><time>2026-05-03T09:03:12.901Z</time></trkpt><trkpt lat="42.1985267" lon="14.6211833"><ele>8.0</ele><time>2026-05-03T09:03:14.901Z</time></trkpt><trkpt lat="42.1985567" lon="14.6211083"><ele>8.0</ele><time>2026-05-03T09:03:16.901Z</time></trkpt><trkpt lat="42.1985867" lon="14.6210183"><ele>7.999999999999999</ele><time>2026-05-03T09:03:18.901Z</time></trkpt><trkpt lat="42.1986133" lon="14.6209167"><ele>8.0</ele><time>2026-05-03T09:03:20.901Z</time></trkpt><trkpt lat="42.198645" lon="14.62081"><ele>8.0</ele><time>2026-05-03T09:03:22.901Z</time></trkpt><trkpt lat="42.198675" lon="14.6207017"><ele>8.166666666666666</ele><time>2026-05-03T09:03:24.901Z</time></trkpt><trkpt lat="42.1987133" lon="14.6205917"><ele>8.333333333333332</ele><time>2026-05-03T09:03:26.901Z</time></trkpt><trkpt lat="42.1987433" lon="14.6204983"><ele>8.5</ele><time>2026-05-03T09:03:28.9Z</time></trkpt><trkpt lat="42.1987717" lon="14.6204067"><ele>8.666666666666666</ele><time>2026-05-03T09:03:30.9Z</time></trkpt><trkpt lat="42.1987983" lon="14.6203017"><ele>8.833333333333334</ele><time>2026-05-03T09:03:32.901Z</time></trkpt><trkpt lat="42.1988267" lon="14.62021"><ele>9.0</ele><time>2026-05-03T09:03:34.9Z</time></trkpt><trkpt lat="42.1988467" lon="14.6201167"><ele>9.0</ele><time>2026-05-03T09:03:36.901Z</time></trkpt><trkpt lat="42.1988833" lon="14.6200133"><ele>9.0</ele><time>2026-05-03T09:03:38.9Z</time></trkpt><trkpt lat="42.1989083" lon="14.6199167"><ele>9.0</ele><time>2026-05-03T09:03:40.901Z</time></trkpt><trkpt lat="42.19893" lon="14.6198233"><ele>9.0</ele><time>2026-05-03T09:03:42.901Z</time></trkpt><trkpt lat="42.198965" lon="14.6197283"><ele>9.0</ele><time>2026-05-03T09:03:44.901Z</time></trkpt><trkpt lat="42.1989983" lon="14.6196317"><ele>9.0</ele><time>2026-05-03T09:03:46.901Z</time></trkpt><trkpt lat="42.1990333" lon="14.6195433"><ele>7.833333333333333</ele><time>2026-05-03T09:03:48.9Z</time></trkpt><trkpt lat="42.1990583" lon="14.61944"><ele>6.666666666666667</ele><time>2026-05-03T09:03:50.901Z</time></trkpt><trkpt lat="42.1990933" lon="14.619345"><ele>5.5</ele><time>2026-05-03T09:03:52.9Z</time></trkpt><trkpt lat="42.19912" lon="14.6192533"><ele>4.333333333333333</ele><time>2026-05-03T09:03:54.901Z</time></trkpt><trkpt lat="42.1991483" lon="14.6191567"><ele>3.1666666666666665</ele><time>2026-05-03T09:03:56.9Z</time></trkpt><trkpt lat="42.19918" lon="14.6190533"><ele>2.0</ele><time>2026-05-03T09:03:58.901Z</time></trkpt><trkpt lat="42.1992067" lon="14.61896"><ele>1.9999999999999998</ele><time>2026-05-03T09:04:00.901Z</time></trkpt><trkpt lat="42.199225" lon="14.6188667"><ele>2.0</ele><time>2026-05-03T09:04:02.901Z</time></trkpt><trkpt lat="42.1992583" lon="14.61876"><ele>2.0</ele><time>2026-05-03T09:04:04.9Z</time></trkpt><trkpt lat="42.1992933" lon="14.6186667"><ele>2.0</ele><time>2026-05-03T09:04:06.901Z</time></trkpt><trkpt lat="42.1993317" lon="14.6185833"><ele>1.9999999999999998</ele><time>2026-05-03T09:04:08.9Z</time></trkpt><trkpt lat="42.1993667" lon="14.6184917"><ele>2.0</ele><time>2026-05-03T09:04:10.901Z</time></trkpt><trkpt lat="42.1993967" lon="14.6183967"><ele>2.1666666666666665</ele><time>2026-05-03T09:04:12.901Z</time></trkpt><trkpt lat="42.1994283" lon="14.6183017"><ele>2.333333333333333</ele><time>2026-05-03T09:04:14.901Z</time></trkpt><trkpt lat="42.1994633" lon="14.6182033"><ele>2.5</ele><time>2026-05-03T09:04:16.901Z</time></trkpt><trkpt lat="42.1994983" lon="14.61811"><ele>2.6666666666666665</ele><time>2026-05-03T09:04:18.901Z</time></trkpt><trkpt lat="42.1995283" lon="14.6180117"><ele>2.8333333333333335</ele><time>2026-05-03T09:04:20.901Z</time></trkpt><trkpt lat="42.1995633" lon="14.61791"><ele>3.0</ele><time>2026-05-03T09:04:22.901Z</time></trkpt><trkpt lat="42.1996017" lon="14.6178117"><ele>3.5</ele><time>2026-05-03T09:04:24.9Z</time></trkpt><trkpt lat="42.1996333" lon="14.6177017"><ele>4.0</ele><time>2026-05-03T09:04:26.901Z</time></trkpt><trkpt lat="42.1996633" lon="14.6175983"><ele>4.5</ele><time>2026-05-03T09:04:28.901Z</time></trkpt><trkpt lat="42.1996933" lon="14.6175017"><ele>5.0</ele><time>2026-05-03T09:04:30.9Z</time></trkpt><trkpt lat="42.1997233" lon="14.6174033"><ele>5.5</ele><time>2026-05-03T09:04:32.901Z</time></trkpt><trkpt lat="42.199755" lon="14.6172933"><ele>6.0</ele><time>2026-05-03T09:04:34.901Z</time></trkpt><trkpt lat="42.199785" lon="14.6172033"><ele>6.0</ele><time>2026-05-03T09:04:36.901Z</time></trkpt><trkpt lat="42.1998217" lon="14.6171133"><ele>6.0</ele><time>2026-05-03T09:04:38.901Z</time></trkpt><trkpt lat="42.1998533" lon="14.617005"><ele>6.0</ele><time>2026-05-03T09:04:40.9Z</time></trkpt><trkpt lat="42.1998783" lon="14.616915"><ele>6.0</ele><time>2026-05-03T09:04:42.901Z</time></trkpt><trkpt lat="42.1999217" lon="14.6168167"><ele>6.0</ele><time>2026-05-03T09:04:45.9Z</time></trkpt><trkpt lat="42.1999533" lon="14.61674"><ele>6.0</ele><time>2026-05-03T09:04:47.901Z</time></trkpt><trkpt lat="42.199985" lon="14.6166567"><ele>5.7142857142857135</ele><time>2026-05-03T09:04:49.901Z</time></trkpt><trkpt lat="42.200015" lon="14.616575"><ele>5.428571428571429</ele><time>2026-05-03T09:04:51.901Z</time></trkpt><trkpt lat="42.20005" lon="14.616485"><ele>5.142857142857142</ele><time>2026-05-03T09:04:53.9Z</time></trkpt><trkpt lat="42.20008" lon="14.6163933"><ele>4.857142857142857</ele><time>2026-05-03T09:04:55.901Z</time></trkpt><trkpt lat="42.2001083" lon="14.6163017"><ele>4.571428571428571</ele><time>2026-05-03T09:04:57.9Z</time></trkpt><trkpt lat="42.2001333" lon="14.6162233"><ele>4.285714285714286</ele><time>2026-05-03T09:04:59.901Z</time></trkpt><trkpt lat="42.200175" lon="14.6161117"><ele>4.0</ele><time>2026-05-03T09:05:02.901Z</time></trkpt><trkpt lat="42.2002067" lon="14.61602"><ele>3.9999999999999996</ele><time>2026-05-03T09:05:04.901Z</time></trkpt><trkpt lat="42.20023" lon="14.615935"><ele>4.0</ele><time>2026-05-03T09:05:06.901Z</time></trkpt><trkpt lat="42.200275" lon="14.6158283"><ele>4.0</ele><time>2026-05-03T09:05:09.9Z</time></trkpt><trkpt lat="42.2003183" lon="14.615715"><ele>4.0</ele><time>2026-05-03T09:05:12.9Z</time></trkpt><trkpt lat="42.2003617" lon="14.6156267"><ele>3.9999999999999996</ele><time>2026-05-03T09:05:14.901Z</time></trkpt><trkpt lat="42.2004167" lon="14.61555"><ele>4.0</ele><time>2026-05-03T09:05:16.901Z</time></trkpt><trkpt lat="42.20047" lon="14.6154567"><ele>4.0</ele><time>2026-05-03T09:05:18.901Z</time></trkpt><trkpt lat="42.2005017" lon="14.6153683"><ele>3.9999999999999996</ele><time>2026-05-03T09:05:20.901Z</time></trkpt><trkpt lat="42.20054" lon="14.6152817"><ele>4.0</ele><time>2026-05-03T09:05:22.901Z</time></trkpt><trkpt lat="42.200585" lon="14.6152033"><ele>4.0</ele><time>2026-05-03T09:05:24.9Z</time></trkpt><trkpt lat="42.2006367" lon="14.61513"><ele>3.9999999999999996</ele><time>2026-05-03T09:05:26.901Z</time></trkpt><trkpt lat="42.2006967" lon="14.6150933"><ele>4.0</ele><time>2026-05-03T09:05:28.901Z</time></trkpt><trkpt lat="42.2007717" lon="14.6150667"><ele>4.0</ele><time>2026-05-03T09:05:30.9Z</time></trkpt><trkpt lat="42.2008617" lon="14.6150383"><ele>3.833333333333333</ele><time>2026-05-03T09:05:32.9Z</time></trkpt><trkpt lat="42.2009483" lon="14.6150233"><ele>3.6666666666666665</ele><time>2026-05-03T09:05:34.9Z</time></trkpt><trkpt lat="42.201025" lon="14.6150167"><ele>3.5</ele><time>2026-05-03T09:05:36.901Z</time></trkpt><trkpt lat="42.2011117" lon="14.6149833"><ele>3.333333333333333</ele><time>2026-05-03T09:05:38.901Z</time></trkpt><trkpt lat="42.20119" lon="14.61493"><ele>3.1666666666666665</ele><time>2026-05-03T09:05:40.901Z</time></trkpt><trkpt lat="42.2012517" lon="14.6148583"><ele>3.0</ele><time>2026-05-03T09:05:42.9Z</time></trkpt><trkpt lat="42.2013117" lon="14.61479"><ele>3.0</ele><time>2026-05-03T09:05:44.901Z</time></trkpt><trkpt lat="42.2013633" lon="14.6147233"><ele>3.0</ele><time>2026-05-03T09:05:46.901Z</time></trkpt><trkpt lat="42.2014133" lon="14.6146383"><ele>3.0</ele><time>2026-05-03T09:05:48.901Z</time></trkpt><trkpt lat="42.2014533" lon="14.6145617"><ele>3.0</ele><time>2026-05-03T09:05:50.901Z</time></trkpt><trkpt lat="42.2015367" lon="14.6143983"><ele>3.0</ele><time>2026-05-03T09:06:27.901Z</time></trkpt><trkpt lat="42.2015828" lon="14.6143235"><ele>3.0</ele><time>2026-05-03T09:07:31.874Z</time></trkpt><trkpt lat="42.2015884" lon="14.6145124"><ele>2.9999999999999996</ele><time>2026-05-03T09:11:24.9Z</time></trkpt><trkpt lat="42.2016009" lon="14.6144248"><ele>3.0</ele><time>2026-05-03T09:11:31.901Z</time></trkpt><trkpt lat="42.2016204" lon="14.6143438"><ele>3.0</ele><time>2026-05-03T09:26:09.903Z</time></trkpt><trkpt lat="42.2015521" lon="14.6143405"><ele>3.0</ele><time>2026-05-03T09:29:55.903Z</time></trkpt><trkpt lat="42.2015129" lon="14.6144177"><ele>3.0</ele><time>2026-05-03T09:30:03.902Z</time></trkpt><trkpt lat="42.2014506" lon="14.6145445"><ele>2.9999999999999996</ele><time>2026-05-03T09:30:52.903Z</time></trkpt><trkpt lat="42.2014119" lon="14.6146123"><ele>3.0</ele><time>2026-05-03T09:30:55.902Z</time></trkpt><trkpt lat="42.2013579" lon="14.6147057"><ele>3.0</ele><time>2026-05-03T09:30:58.902Z</time></trkpt><trkpt lat="42.2013087" lon="14.6147718"><ele>3.0</ele><time>2026-05-03T09:31:00.903Z</time></trkpt><trkpt lat="42.2012555" lon="14.6148393"><ele>3.0</ele><time>2026-05-03T09:31:02.903Z</time></trkpt><trkpt lat="42.2012059" lon="14.6148958"><ele>3.0</ele><time>2026-05-03T09:31:04.902Z</time></trkpt><trkpt lat="42.2011307" lon="14.6149602"><ele>3.0</ele><time>2026-05-03T09:31:07.902Z</time></trkpt><trkpt lat="42.2010539" lon="14.6149748"><ele>3.0</ele><time>2026-05-03T09:31:10.903Z</time></trkpt><trkpt lat="42.2009837" lon="14.6149358"><ele>2.9999999999999996</ele><time>2026-05-03T09:31:13.902Z</time></trkpt><trkpt lat="42.2009229" lon="14.6148962"><ele>3.0</ele><time>2026-05-03T09:31:16.903Z</time></trkpt><trkpt lat="42.2008508" lon="14.6148842"><ele>3.0</ele><time>2026-05-03T09:31:20.903Z</time></trkpt><trkpt lat="42.2007847" lon="14.6148516"><ele>3.0</ele><time>2026-05-03T09:31:25.903Z</time></trkpt><trkpt lat="42.2007308" lon="14.6147871"><ele>3.0</ele><time>2026-05-03T09:31:32.903Z</time></trkpt><trkpt lat="42.200706" lon="14.6146931"><ele>2.9999999999999996</ele><time>2026-05-03T09:31:37.903Z</time></trkpt><trkpt lat="42.2006933" lon="14.6145983"><ele>3.0</ele><time>2026-05-03T09:31:41.903Z</time></trkpt><trkpt lat="42.200715" lon="14.6145067"><ele>3.2857142857142856</ele><time>2026-05-03T09:31:44.903Z</time></trkpt><trkpt lat="42.20074" lon="14.6144233"><ele>3.571428571428571</ele><time>2026-05-03T09:31:47.903Z</time></trkpt><trkpt lat="42.2007783" lon="14.6143133"><ele>3.8571428571428568</ele><time>2026-05-03T09:31:50.902Z</time></trkpt><trkpt lat="42.2008017" lon="14.614225"><ele>4.142857142857142</ele><time>2026-05-03T09:31:52.903Z</time></trkpt><trkpt lat="42.200825" lon="14.6141417"><ele>4.428571428571429</ele><time>2026-05-03T09:31:54.902Z</time></trkpt><trkpt lat="42.2008483" lon="14.6140517"><ele>4.714285714285714</ele><time>2026-05-03T09:31:56.902Z</time></trkpt><trkpt lat="42.20087" lon="14.6139533"><ele>5.0</ele><time>2026-05-03T09:31:58.903Z</time></trkpt><trkpt lat="42.2008967" lon="14.613865"><ele>5.0</ele><time>2026-05-03T09:32:00.902Z</time></trkpt><trkpt lat="42.200925" lon="14.6137833"><ele>5.0</ele><time>2026-05-03T09:32:02.903Z</time></trkpt><trkpt lat="42.2009517" lon="14.61369"><ele>5.0</ele><time>2026-05-03T09:32:04.903Z</time></trkpt><trkpt lat="42.2009833" lon="14.6135867"><ele>5.0</ele><time>2026-05-03T09:32:06.903Z</time></trkpt><trkpt lat="42.201015" lon="14.6134767"><ele>5.0</ele><time>2026-05-03T09:32:08.903Z</time></trkpt><trkpt lat="42.2010533" lon="14.613355"><ele>5.0</ele><time>2026-05-03T09:32:10.902Z</time></trkpt><trkpt lat="42.2010967" lon="14.61322"><ele>5.2</ele><time>2026-05-03T09:32:12.903Z</time></trkpt><trkpt lat="42.2011417" lon="14.61309"><ele>5.4</ele><time>2026-05-03T09:32:14.903Z</time></trkpt><trkpt lat="42.20118" lon="14.61295"><ele>5.6</ele><time>2026-05-03T09:32:16.902Z</time></trkpt><trkpt lat="42.2012233" lon="14.6128167"><ele>5.8</ele><time>2026-05-03T09:32:18.901Z</time></trkpt><trkpt lat="42.201265" lon="14.6126817"><ele>6.0</ele><time>2026-05-03T09:32:20.902Z</time></trkpt><trkpt lat="42.201305" lon="14.6125417"><ele>6.0</ele><time>2026-05-03T09:32:22.902Z</time></trkpt><trkpt lat="42.2013517" lon="14.6123917"><ele>6.0</ele><time>2026-05-03T09:32:24.902Z</time></trkpt><trkpt lat="42.2013883" lon="14.6122483"><ele>6.0</ele><time>2026-05-03T09:32:26.902Z</time></trkpt><trkpt lat="42.20143" lon="14.6121033"><ele>6.0</ele><time>2026-05-03T09:32:28.901Z</time></trkpt><trkpt lat="42.2014767" lon="14.6119567"><ele>5.75</ele><time>2026-05-03T09:32:30.901Z</time></trkpt><trkpt lat="42.2015217" lon="14.6118083"><ele>5.5</ele><time>2026-05-03T09:32:32.902Z</time></trkpt><trkpt lat="42.2015617" lon="14.61166"><ele>5.25</ele><time>2026-05-03T09:32:34.902Z</time></trkpt><trkpt lat="42.2016083" lon="14.6115183"><ele>5.0</ele><time>2026-05-03T09:32:36.901Z</time></trkpt><trkpt lat="42.2016567" lon="14.61137"><ele>5.0</ele><time>2026-05-03T09:32:38.902Z</time></trkpt><trkpt lat="42.2017117" lon="14.6112233"><ele>5.0</ele><time>2026-05-03T09:32:40.902Z</time></trkpt><trkpt lat="42.2017583" lon="14.6110933"><ele>5.0</ele><time>2026-05-03T09:32:42.902Z</time></trkpt><trkpt lat="42.2018" lon="14.6109717"><ele>5.0</ele><time>2026-05-03T09:32:44.901Z</time></trkpt><trkpt lat="42.2018467" lon="14.610845"><ele>5.0</ele><time>2026-05-03T09:32:46.901Z</time></trkpt><trkpt lat="42.2018867" lon="14.610725"><ele>5.0</ele><time>2026-05-03T09:32:48.902Z</time></trkpt><trkpt lat="42.2019283" lon="14.6106"><ele>5.0</ele><time>2026-05-03T09:32:50.902Z</time></trkpt><trkpt lat="42.201955" lon="14.6104817"><ele>5.0</ele><time>2026-05-03T09:32:52.901Z</time></trkpt><trkpt lat="42.201965" lon="14.6103717"><ele>5.0</ele><time>2026-05-03T09:32:54.901Z</time></trkpt><trkpt lat="42.2019717" lon="14.610265"><ele>5.0</ele><time>2026-05-03T09:32:56.902Z</time></trkpt><trkpt lat="42.2019767" lon="14.6101433"><ele>5.0</ele><time>2026-05-03T09:32:58.902Z</time></trkpt><trkpt lat="42.201975" lon="14.610035"><ele>4.714285714285714</ele><time>2026-05-03T09:33:00.902Z</time></trkpt><trkpt lat="42.2019767" lon="14.60994"><ele>4.428571428571429</ele><time>2026-05-03T09:33:02.902Z</time></trkpt><trkpt lat="42.2019867" lon="14.609855"><ele>4.142857142857142</ele><time>2026-05-03T09:33:04.901Z</time></trkpt><trkpt lat="42.2020233" lon="14.60977"><ele>3.8571428571428568</ele><time>2026-05-03T09:33:06.902Z</time></trkpt><trkpt lat="42.2020617" lon="14.60968"><ele>3.571428571428571</ele><time>2026-05-03T09:33:08.902Z</time></trkpt><trkpt lat="42.202095" lon="14.60959"><ele>3.2857142857142856</ele><time>2026-05-03T09:33:10.902Z</time></trkpt><trkpt lat="42.20213" lon="14.6094967"><ele>3.0</ele><time>2026-05-03T09:33:12.902Z</time></trkpt><trkpt lat="42.2021717" lon="14.6093867"><ele>3.0</ele><time>2026-05-03T09:33:14.902Z</time></trkpt><trkpt lat="42.202225" lon="14.6092483"><ele>3.0</ele><time>2026-05-03T09:33:16.902Z</time></trkpt><trkpt lat="42.202275" lon="14.6091267"><ele>3.0</ele><time>2026-05-03T09:33:18.902Z</time></trkpt><trkpt lat="42.2023233" lon="14.609005"><ele>3.0</ele><time>2026-05-03T09:33:20.902Z</time></trkpt><trkpt lat="42.2023683" lon="14.6089033"><ele>3.0</ele><time>2026-05-03T09:33:22.902Z</time></trkpt><trkpt lat="42.202415" lon="14.6088"><ele>3.1666666666666665</ele><time>2026-05-03T09:33:24.902Z</time></trkpt><trkpt lat="42.2024483" lon="14.6086967"><ele>3.333333333333333</ele><time>2026-05-03T09:33:26.902Z</time></trkpt><trkpt lat="42.2024883" lon="14.6085933"><ele>3.5</ele><time>2026-05-03T09:33:28.902Z</time></trkpt><trkpt lat="42.20253" lon="14.60849"><ele>3.6666666666666665</ele><time>2026-05-03T09:33:30.901Z</time></trkpt><trkpt lat="42.202575" lon="14.6083867"><ele>3.833333333333333</ele><time>2026-05-03T09:33:32.902Z</time></trkpt><trkpt lat="42.2026167" lon="14.6082867"><ele>4.0</ele><time>2026-05-03T09:33:34.901Z</time></trkpt><trkpt lat="42.2026583" lon="14.60819"><ele>4.0</ele><time>2026-05-03T09:33:36.902Z</time></trkpt><trkpt lat="42.2027017" lon="14.608075"><ele>4.0</ele><time>2026-05-03T09:33:38.902Z</time></trkpt><trkpt lat="42.2027433" lon="14.6079667"><ele>4.0</ele><time>2026-05-03T09:33:40.902Z</time></trkpt><trkpt lat="42.2027883" lon="14.6078567"><ele>4.0</ele><time>2026-05-03T09:33:42.902Z</time></trkpt><trkpt lat="42.202835" lon="14.6077483"><ele>4.0</ele><time>2026-05-03T09:33:44.902Z</time></trkpt><trkpt lat="42.2028883" lon="14.6076333"><ele>3.8000000000000003</ele><time>2026-05-03T09:33:46.901Z</time></trkpt><trkpt lat="42.2029367" lon="14.6075133"><ele>3.6000000000000005</ele><time>2026-05-03T09:33:48.902Z</time></trkpt><trkpt lat="42.20299" lon="14.6073817"><ele>3.4</ele><time>2026-05-03T09:33:50.902Z</time></trkpt><trkpt lat="42.20304" lon="14.6072583"><ele>3.2</ele><time>2026-05-03T09:33:52.902Z</time></trkpt><trkpt lat="42.20309" lon="14.6071383"><ele>3.0</ele><time>2026-05-03T09:33:54.902Z</time></trkpt><trkpt lat="42.2031417" lon="14.6070217"><ele>2.6</ele><time>2026-05-03T09:33:56.902Z</time></trkpt><trkpt lat="42.2031933" lon="14.6069067"><ele>2.1999999999999997</ele><time>2026-05-03T09:33:58.901Z</time></trkpt><trkpt lat="42.2032383" lon="14.606795"><ele>1.8</ele><time>2026-05-03T09:34:00.902Z</time></trkpt><trkpt lat="42.2032817" lon="14.60669"><ele>1.4</ele><time>2026-05-03T09:34:02.901Z</time></trkpt><trkpt lat="42.20333" lon="14.60658"><ele>1.0</ele><time>2026-05-03T09:34:04.902Z</time></trkpt><trkpt lat="42.2033833" lon="14.606475"><ele>1.0</ele><time>2026-05-03T09:34:06.902Z</time></trkpt><trkpt lat="42.2034333" lon="14.60637"><ele>1.0</ele><time>2026-05-03T09:34:08.902Z</time></trkpt><trkpt lat="42.2034867" lon="14.6062633"><ele>1.0</ele><time>2026-05-03T09:34:10.901Z</time></trkpt><trkpt lat="42.2035333" lon="14.6061517"><ele>1.0</ele><time>2026-05-03T09:34:12.901Z</time></trkpt><trkpt lat="42.2035833" lon="14.6060467"><ele>1.0</ele><time>2026-05-03T09:34:14.902Z</time></trkpt><trkpt lat="42.2036317" lon="14.6059417"><ele>0.8</ele><time>2026-05-03T09:34:16.902Z</time></trkpt><trkpt lat="42.2036833" lon="14.605835"><ele>0.6000000000000001</ele><time>2026-05-03T09:34:18.901Z</time></trkpt><trkpt lat="42.2037267" lon="14.6057133"><ele>0.4</ele><time>2026-05-03T09:34:20.902Z</time></trkpt><trkpt lat="42.2037733" lon="14.60559"><ele>0.2</ele><time>2026-05-03T09:34:22.902Z</time></trkpt><trkpt lat="42.203825" lon="14.605465"><ele>0.0</ele><time>2026-05-03T09:34:24.902Z</time></trkpt><trkpt lat="42.2038833" lon="14.6053367"><ele>0.2</ele><time>2026-05-03T09:34:26.901Z</time></trkpt><trkpt lat="42.2039417" lon="14.6052033"><ele>0.4</ele><time>2026-05-03T09:34:28.902Z</time></trkpt><trkpt lat="42.2039917" lon="14.6050817"><ele>0.6000000000000001</ele><time>2026-05-03T09:34:30.902Z</time></trkpt><trkpt lat="42.2040433" lon="14.604965"><ele>0.8</ele><time>2026-05-03T09:34:32.902Z</time></trkpt><trkpt lat="42.2040917" lon="14.6048533"><ele>1.0</ele><time>2026-05-03T09:34:34.902Z</time></trkpt><trkpt lat="42.2041467" lon="14.604745"><ele>1.0</ele><time>2026-05-03T09:34:36.902Z</time></trkpt><trkpt lat="42.2041983" lon="14.6046267"><ele>1.0</ele><time>2026-05-03T09:34:38.901Z</time></trkpt><trkpt lat="42.2042483" lon="14.604515"><ele>1.0</ele><time>2026-05-03T09:34:40.902Z</time></trkpt><trkpt lat="42.204295" lon="14.6044"><ele>1.0</ele><time>2026-05-03T09:34:42.901Z</time></trkpt><trkpt lat="42.2043483" lon="14.6042867"><ele>1.0</ele><time>2026-05-03T09:34:44.902Z</time></trkpt><trkpt lat="42.2044017" lon="14.6041683"><ele>1.0</ele><time>2026-05-03T09:34:46.902Z</time></trkpt><trkpt lat="42.20445" lon="14.604045"><ele>1.0</ele><time>2026-05-03T09:34:48.902Z</time></trkpt><trkpt lat="42.2044883" lon="14.6039267"><ele>1.0</ele><time>2026-05-03T09:34:50.901Z</time></trkpt><trkpt lat="42.2045417" lon="14.6038117"><ele>1.0</ele><time>2026-05-03T09:34:52.902Z</time></trkpt><trkpt lat="42.2046017" lon="14.6037033"><ele>1.0</ele><time>2026-05-03T09:34:54.902Z</time></trkpt><trkpt lat="42.20467" lon="14.6036133"><ele>1.0</ele><time>2026-05-03T09:34:56.901Z</time></trkpt><trkpt lat="42.2047333" lon="14.6035083"><ele>1.0</ele><time>2026-05-03T09:34:58.901Z</time></trkpt><trkpt lat="42.204785" lon="14.6034067"><ele>1.0</ele><time>2026-05-03T09:35:00.902Z</time></trkpt><trkpt lat="42.2048283" lon="14.60329"><ele>1.0</ele><time>2026-05-03T09:35:02.901Z</time></trkpt><trkpt lat="42.20487" lon="14.60318"><ele>1.0</ele><time>2026-05-03T09:35:04.902Z</time></trkpt><trkpt lat="42.2049183" lon="14.6030767"><ele>1.6</ele><time>2026-05-03T09:35:06.902Z</time></trkpt><trkpt lat="42.20497" lon="14.60297"><ele>2.2</ele><time>2026-05-03T09:35:08.902Z</time></trkpt><trkpt lat="42.205015" lon="14.6028617"><ele>2.8000000000000003</ele><time>2026-05-03T09:35:10.901Z</time></trkpt><trkpt lat="42.205065" lon="14.6027383"><ele>3.4000000000000004</ele><time>2026-05-03T09:35:12.901Z</time></trkpt><trkpt lat="42.2051183" lon="14.6026217"><ele>4.0</ele><time>2026-05-03T09:35:14.902Z</time></trkpt><trkpt lat="42.2051683" lon="14.6025017"><ele>4.6</ele><time>2026-05-03T09:35:16.902Z</time></trkpt><trkpt lat="42.2052167" lon="14.6023867"><ele>5.2</ele><time>2026-05-03T09:35:18.902Z</time></trkpt><trkpt lat="42.205265" lon="14.6022717"><ele>5.799999999999999</ele><time>2026-05-03T09:35:20.901Z</time></trkpt><trkpt lat="42.2053117" lon="14.60216"><ele>6.3999999999999995</ele><time>2026-05-03T09:35:22.902Z</time></trkpt><trkpt lat="42.2053567" lon="14.6020667"><ele>7.0</ele><time>2026-05-03T09:35:24.902Z</time></trkpt><trkpt lat="42.2054133" lon="14.6019667"><ele>7.8</ele><time>2026-05-03T09:35:26.901Z</time></trkpt><trkpt lat="42.205465" lon="14.60186"><ele>8.6</ele><time>2026-05-03T09:35:28.901Z</time></trkpt><trkpt lat="42.2055133" lon="14.60175"><ele>9.4</ele><time>2026-05-03T09:35:30.902Z</time></trkpt><trkpt lat="42.2055683" lon="14.6016383"><ele>10.200000000000001</ele><time>2026-05-03T09:35:32.902Z</time></trkpt><trkpt lat="42.20562" lon="14.6015083"><ele>11.0</ele><time>2026-05-03T09:35:34.902Z</time></trkpt><trkpt lat="42.2056717" lon="14.6013933"><ele>10.4</ele><time>2026-05-03T09:35:36.902Z</time></trkpt><trkpt lat="42.2057167" lon="14.60129"><ele>9.8</ele><time>2026-05-03T09:35:38.902Z</time></trkpt><trkpt lat="42.2057683" lon="14.6011717"><ele>9.200000000000001</ele><time>2026-05-03T09:35:40.902Z</time></trkpt><trkpt lat="42.2058267" lon="14.6010467"><ele>8.600000000000001</ele><time>2026-05-03T09:35:42.901Z</time></trkpt><trkpt lat="42.205875" lon="14.6009383"><ele>8.0</ele><time>2026-05-03T09:35:44.902Z</time></trkpt><trkpt lat="42.2059217" lon="14.6008233"><ele>8.0</ele><time>2026-05-03T09:35:46.902Z</time></trkpt><trkpt lat="42.2059733" lon="14.6007067"><ele>8.0</ele><time>2026-05-03T09:35:48.901Z</time></trkpt><trkpt lat="42.206025" lon="14.6005883"><ele>8.0</ele><time>2026-05-03T09:35:50.902Z</time></trkpt><trkpt lat="42.20607" lon="14.600475"><ele>8.0</ele><time>2026-05-03T09:35:52.902Z</time></trkpt><trkpt lat="42.2061183" lon="14.60037"><ele>8.0</ele><time>2026-05-03T09:35:54.901Z</time></trkpt><trkpt lat="42.2061633" lon="14.600275"><ele>8.5</ele><time>2026-05-03T09:35:56.902Z</time></trkpt><trkpt lat="42.2062167" lon="14.6001883"><ele>9.0</ele><time>2026-05-03T09:35:58.902Z</time></trkpt><trkpt lat="42.2062633" lon="14.6000817"><ele>9.5</ele><time>2026-05-03T09:36:00.901Z</time></trkpt><trkpt lat="42.2063067" lon="14.59997"><ele>10.0</ele><time>2026-05-03T09:36:02.901Z</time></trkpt><trkpt lat="42.20634" lon="14.5998917"><ele>10.5</ele><time>2026-05-03T09:36:04.902Z</time></trkpt><trkpt lat="42.2063717" lon="14.5998117"><ele>11.0</ele><time>2026-05-03T09:36:08.901Z</time></trkpt><trkpt lat="42.206415" lon="14.5997117"><ele>11.0</ele><time>2026-05-03T09:36:12.902Z</time></trkpt><trkpt lat="42.2064717" lon="14.5996017"><ele>11.0</ele><time>2026-05-03T09:36:15.902Z</time></trkpt><trkpt lat="42.20652" lon="14.5995033"><ele>11.0</ele><time>2026-05-03T09:36:17.902Z</time></trkpt><trkpt lat="42.2065717" lon="14.599395"><ele>11.0</ele><time>2026-05-03T09:36:19.902Z</time></trkpt><trkpt lat="42.20662" lon="14.5992783"><ele>11.0</ele><time>2026-05-03T09:36:21.902Z</time></trkpt><trkpt lat="42.20667" lon="14.5991417"><ele>10.25</ele><time>2026-05-03T09:36:23.901Z</time></trkpt><trkpt lat="42.2067283" lon="14.5990083"><ele>9.5</ele><time>2026-05-03T09:36:25.902Z</time></trkpt><trkpt lat="42.2067883" lon="14.5988783"><ele>8.75</ele><time>2026-05-03T09:36:27.901Z</time></trkpt><trkpt lat="42.2068533" lon="14.59875"><ele>8.0</ele><time>2026-05-03T09:36:29.902Z</time></trkpt><trkpt lat="42.20691" lon="14.598615"><ele>9.4</ele><time>2026-05-03T09:36:31.902Z</time></trkpt><trkpt lat="42.2069617" lon="14.598485"><ele>10.8</ele><time>2026-05-03T09:36:33.902Z</time></trkpt><trkpt lat="42.2070133" lon="14.59836"><ele>12.2</ele><time>2026-05-03T09:36:35.902Z</time></trkpt><trkpt lat="42.2070583" lon="14.59825"><ele>13.6</ele><time>2026-05-03T09:36:37.901Z</time></trkpt><trkpt lat="42.2071067" lon="14.5981417"><ele>15.0</ele><time>2026-05-03T09:36:39.901Z</time></trkpt><trkpt lat="42.2071483" lon="14.5980383"><ele>15.0</ele><time>2026-05-03T09:36:41.901Z</time></trkpt><trkpt lat="42.2072" lon="14.59794"><ele>15.0</ele><time>2026-05-03T09:36:43.901Z</time></trkpt><trkpt lat="42.2072433" lon="14.59785"><ele>15.0</ele><time>2026-05-03T09:36:45.902Z</time></trkpt><trkpt lat="42.2072817" lon="14.5977533"><ele>15.0</ele><time>2026-05-03T09:36:47.902Z</time></trkpt><trkpt lat="42.2073283" lon="14.5976633"><ele>15.0</ele><time>2026-05-03T09:36:49.902Z</time></trkpt><trkpt lat="42.20737" lon="14.5975767"><ele>15.0</ele><time>2026-05-03T09:36:51.902Z</time></trkpt><trkpt lat="42.2074117" lon="14.5974883"><ele>14.8</ele><time>2026-05-03T09:36:53.902Z</time></trkpt><trkpt lat="42.207455" lon="14.5973783"><ele>14.6</ele><time>2026-05-03T09:36:55.901Z</time></trkpt><trkpt lat="42.2074933" lon="14.5972883"><ele>14.399999999999999</ele><time>2026-05-03T09:36:57.901Z</time></trkpt><trkpt lat="42.20754" lon="14.5971817"><ele>14.2</ele><time>2026-05-03T09:36:59.901Z</time></trkpt><trkpt lat="42.2075833" lon="14.59707"><ele>14.0</ele><time>2026-05-03T09:37:01.902Z</time></trkpt><trkpt lat="42.207625" lon="14.5969483"><ele>14.0</ele><time>2026-05-03T09:37:03.901Z</time></trkpt><trkpt lat="42.2076683" lon="14.5968083"><ele>13.999999999999998</ele><time>2026-05-03T09:37:05.901Z</time></trkpt><trkpt lat="42.2077167" lon="14.596685"><ele>13.999999999999998</ele><time>2026-05-03T09:37:07.902Z</time></trkpt><trkpt lat="42.2077683" lon="14.5965817"><ele>14.0</ele><time>2026-05-03T09:37:09.901Z</time></trkpt><trkpt lat="42.2078217" lon="14.5964567"><ele>14.0</ele><time>2026-05-03T09:37:11.902Z</time></trkpt><trkpt lat="42.2078683" lon="14.596345"><ele>14.0</ele><time>2026-05-03T09:37:13.901Z</time></trkpt><trkpt lat="42.2079133" lon="14.5962367"><ele>13.999999999999998</ele><time>2026-05-03T09:37:15.901Z</time></trkpt><trkpt lat="42.2079633" lon="14.5961267"><ele>13.999999999999998</ele><time>2026-05-03T09:37:17.902Z</time></trkpt><trkpt lat="42.2080133" lon="14.5960217"><ele>14.0</ele><time>2026-05-03T09:37:19.902Z</time></trkpt><trkpt lat="42.208065" lon="14.5959167"><ele>14.0</ele><time>2026-05-03T09:37:21.902Z</time></trkpt><trkpt lat="42.2081233" lon="14.5957967"><ele>14.000000000000002</ele><time>2026-05-03T09:37:23.901Z</time></trkpt><trkpt lat="42.2081733" lon="14.595705"><ele>14.0</ele><time>2026-05-03T09:37:25.902Z</time></trkpt><trkpt lat="42.2082233" lon="14.595605"><ele>14.0</ele><time>2026-05-03T09:37:27.901Z</time></trkpt><trkpt lat="42.208275" lon="14.595515"><ele>14.0</ele><time>2026-05-03T09:37:29.901Z</time></trkpt><trkpt lat="42.2083233" lon="14.59542"><ele>14.000000000000002</ele><time>2026-05-03T09:37:31.902Z</time></trkpt><trkpt lat="42.2083733" lon="14.5953233"><ele>14.0</ele><time>2026-05-03T09:37:33.901Z</time></trkpt><trkpt lat="42.2084217" lon="14.5952233"><ele>14.000000000000002</ele><time>2026-05-03T09:37:35.902Z</time></trkpt><trkpt lat="42.208475" lon="14.5951217"><ele>14.0</ele><time>2026-05-03T09:37:37.902Z</time></trkpt><trkpt lat="42.2085283" lon="14.59503"><ele>14.0</ele><time>2026-05-03T09:37:39.902Z</time></trkpt><trkpt lat="42.2085833" lon="14.5949383"><ele>14.0</ele><time>2026-05-03T09:37:41.901Z</time></trkpt><trkpt lat="42.2086367" lon="14.5948567"><ele>14.000000000000002</ele><time>2026-05-03T09:37:43.901Z</time></trkpt><trkpt lat="42.2086883" lon="14.5947633"><ele>14.0</ele><time>2026-05-03T09:37:45.901Z</time></trkpt><trkpt lat="42.2087417" lon="14.5946483"><ele>14.0</ele><time>2026-05-03T09:37:47.902Z</time></trkpt><trkpt lat="42.2087967" lon="14.5945467"><ele>13.999999999999998</ele><time>2026-05-03T09:37:49.901Z</time></trkpt><trkpt lat="42.208855" lon="14.594445"><ele>13.999999999999998</ele><time>2026-05-03T09:37:51.901Z</time></trkpt><trkpt lat="42.2089183" lon="14.59434"><ele>14.0</ele><time>2026-05-03T09:37:53.901Z</time></trkpt><trkpt lat="42.20898" lon="14.5942283"><ele>14.0</ele><time>2026-05-03T09:37:55.902Z</time></trkpt><trkpt lat="42.209035" lon="14.5941267"><ele>13.833333333333334</ele><time>2026-05-03T09:37:57.901Z</time></trkpt><trkpt lat="42.2090883" lon="14.5940417"><ele>13.666666666666668</ele><time>2026-05-03T09:37:59.902Z</time></trkpt><trkpt lat="42.2091433" lon="14.5939583"><ele>13.5</ele><time>2026-05-03T09:38:01.902Z</time></trkpt><trkpt lat="42.2091967" lon="14.5938667"><ele>13.333333333333332</ele><time>2026-05-03T09:38:03.902Z</time></trkpt><trkpt lat="42.209255" lon="14.5937783"><ele>13.166666666666666</ele><time>2026-05-03T09:38:05.902Z</time></trkpt><trkpt lat="42.20931" lon="14.593685"><ele>13.0</ele><time>2026-05-03T09:38:07.901Z</time></trkpt><trkpt lat="42.2093683" lon="14.5935967"><ele>12.999999999999998</ele><time>2026-05-03T09:38:09.901Z</time></trkpt><trkpt lat="42.2094167" lon="14.593495"><ele>13.0</ele><time>2026-05-03T09:38:11.902Z</time></trkpt><trkpt lat="42.2094667" lon="14.5934"><ele>13.0</ele><time>2026-05-03T09:38:13.902Z</time></trkpt><trkpt lat="42.209515" lon="14.5933117"><ele>13.0</ele><time>2026-05-03T09:38:15.902Z</time></trkpt><trkpt lat="42.209575" lon="14.5932317"><ele>12.999999999999998</ele><time>2026-05-03T09:38:17.902Z</time></trkpt><trkpt lat="42.209635" lon="14.5931517"><ele>13.0</ele><time>2026-05-03T09:38:19.901Z</time></trkpt><trkpt lat="42.2096883" lon="14.59307"><ele>13.0</ele><time>2026-05-03T09:38:21.902Z</time></trkpt><trkpt lat="42.2097383" lon="14.5929983"><ele>13.0</ele><time>2026-05-03T09:38:23.901Z</time></trkpt><trkpt lat="42.2097917" lon="14.5929133"><ele>13.0</ele><time>2026-05-03T09:38:25.902Z</time></trkpt><trkpt lat="42.2098433" lon="14.5928167"><ele>13.0</ele><time>2026-05-03T09:38:27.902Z</time></trkpt><trkpt lat="42.2098983" lon="14.59271"><ele>13.0</ele><time>2026-05-03T09:38:29.902Z</time></trkpt><trkpt lat="42.2099633" lon="14.59258"><ele>11.8</ele><time>2026-05-03T09:38:31.902Z</time></trkpt><trkpt lat="42.210025" lon="14.5924717"><ele>10.600000000000001</ele><time>2026-05-03T09:38:33.902Z</time></trkpt><trkpt lat="42.2100767" lon="14.5923583"><ele>9.399999999999999</ele><time>2026-05-03T09:38:35.902Z</time></trkpt><trkpt lat="42.2101283" lon="14.592245"><ele>8.2</ele><time>2026-05-03T09:38:37.902Z</time></trkpt><trkpt lat="42.210175" lon="14.5921333"><ele>7.0</ele><time>2026-05-03T09:38:39.902Z</time></trkpt><trkpt lat="42.210225" lon="14.5920183"><ele>8.6</ele><time>2026-05-03T09:38:41.902Z</time></trkpt><trkpt lat="42.2102683" lon="14.5919"><ele>10.2</ele><time>2026-05-03T09:38:43.902Z</time></trkpt><trkpt lat="42.2103183" lon="14.5917967"><ele>11.8</ele><time>2026-05-03T09:38:45.902Z</time></trkpt><trkpt lat="42.2103717" lon="14.59169"><ele>13.4</ele><time>2026-05-03T09:38:47.902Z</time></trkpt><trkpt lat="42.2104167" lon="14.591595"><ele>15.0</ele><time>2026-05-03T09:38:49.902Z</time></trkpt><trkpt lat="42.2104617" lon="14.5914983"><ele>15.0</ele><time>2026-05-03T09:38:51.902Z</time></trkpt><trkpt lat="42.2105017" lon="14.5913983"><ele>15.0</ele><time>2026-05-03T09:38:53.902Z</time></trkpt><trkpt lat="42.2105433" lon="14.591295"><ele>15.0</ele><time>2026-05-03T09:38:55.901Z</time></trkpt><trkpt lat="42.2105867" lon="14.5911933"><ele>15.0</ele><time>2026-05-03T09:38:57.902Z</time></trkpt><trkpt lat="42.2106317" lon="14.591075"><ele>15.0</ele><time>2026-05-03T09:38:59.902Z</time></trkpt><trkpt lat="42.2106717" lon="14.59095"><ele>13.0</ele><time>2026-05-03T09:39:01.902Z</time></trkpt><trkpt lat="42.210715" lon="14.5908367"><ele>11.0</ele><time>2026-05-03T09:39:03.902Z</time></trkpt><trkpt lat="42.2107633" lon="14.5907333"><ele>9.0</ele><time>2026-05-03T09:39:05.902Z</time></trkpt><trkpt lat="42.210805" lon="14.5906317"><ele>7.0</ele><time>2026-05-03T09:39:07.902Z</time></trkpt><trkpt lat="42.21085" lon="14.59052"><ele>5.0</ele><time>2026-05-03T09:39:09.902Z</time></trkpt><trkpt lat="42.21089" lon="14.5904117"><ele>6.5</ele><time>2026-05-03T09:39:11.901Z</time></trkpt><trkpt lat="42.2109267" lon="14.5903017"><ele>8.0</ele><time>2026-05-03T09:39:13.901Z</time></trkpt><trkpt lat="42.2109667" lon="14.59019"><ele>9.5</ele><time>2026-05-03T09:39:15.901Z</time></trkpt><trkpt lat="42.2110067" lon="14.5900917"><ele>11.0</ele><time>2026-05-03T09:39:17.902Z</time></trkpt><trkpt lat="42.2110517" lon="14.5899933"><ele>12.500000000000002</ele><time>2026-05-03T09:39:19.901Z</time></trkpt><trkpt lat="42.2110967" lon="14.5898917"><ele>14.0</ele><time>2026-05-03T09:39:21.901Z</time></trkpt><trkpt lat="42.211135" lon="14.5897917"><ele>14.000000000000002</ele><time>2026-05-03T09:39:23.901Z</time></trkpt><trkpt lat="42.2111767" lon="14.5896933"><ele>14.0</ele><time>2026-05-03T09:39:25.902Z</time></trkpt><trkpt lat="42.2112217" lon="14.5895967"><ele>14.0</ele><time>2026-05-03T09:39:27.902Z</time></trkpt><trkpt lat="42.2112683" lon="14.5895017"><ele>14.0</ele><time>2026-05-03T09:39:29.902Z</time></trkpt><trkpt lat="42.2113133" lon="14.5893967"><ele>14.000000000000002</ele><time>2026-05-03T09:39:31.902Z</time></trkpt><trkpt lat="42.211355" lon="14.5892683"><ele>14.0</ele><time>2026-05-03T09:39:33.902Z</time></trkpt><trkpt lat="42.2113917" lon="14.5891567"><ele>14.166666666666668</ele><time>2026-05-03T09:39:35.902Z</time></trkpt><trkpt lat="42.2114317" lon="14.5890433"><ele>14.333333333333334</ele><time>2026-05-03T09:39:37.902Z</time></trkpt><trkpt lat="42.21148" lon="14.5889433"><ele>14.5</ele><time>2026-05-03T09:39:39.902Z</time></trkpt><trkpt lat="42.2115317" lon="14.5888467"><ele>14.666666666666668</ele><time>2026-05-03T09:39:41.901Z</time></trkpt><trkpt lat="42.2115767" lon="14.5887533"><ele>14.833333333333334</ele><time>2026-05-03T09:39:43.901Z</time></trkpt><trkpt lat="42.2116233" lon="14.5886533"><ele>15.0</ele><time>2026-05-03T09:39:45.902Z</time></trkpt><trkpt lat="42.2116817" lon="14.5885567"><ele>15.0</ele><time>2026-05-03T09:39:47.902Z</time></trkpt><trkpt lat="42.211735" lon="14.58846"><ele>15.0</ele><time>2026-05-03T09:39:49.901Z</time></trkpt><trkpt lat="42.211785" lon="14.588355"><ele>15.0</ele><time>2026-05-03T09:39:51.902Z</time></trkpt><trkpt lat="42.2118283" lon="14.588265"><ele>15.0</ele><time>2026-05-03T09:39:53.902Z</time></trkpt><trkpt lat="42.2118783" lon="14.588155"><ele>15.0</ele><time>2026-05-03T09:39:55.902Z</time></trkpt><trkpt lat="42.2119267" lon="14.58804"><ele>15.0</ele><time>2026-05-03T09:39:57.902Z</time></trkpt><trkpt lat="42.21198" lon="14.5879233"><ele>15.0</ele><time>2026-05-03T09:39:59.901Z</time></trkpt><trkpt lat="42.21202" lon="14.5878067"><ele>15.0</ele><time>2026-05-03T09:40:01.902Z</time></trkpt><trkpt lat="42.21208" lon="14.5877033"><ele>15.0</ele><time>2026-05-03T09:40:03.901Z</time></trkpt><trkpt lat="42.2121367" lon="14.5876017"><ele>15.0</ele><time>2026-05-03T09:40:05.902Z</time></trkpt><trkpt lat="42.21219" lon="14.5874983"><ele>16.0</ele><time>2026-05-03T09:40:07.902Z</time></trkpt><trkpt lat="42.2122367" lon="14.5873867"><ele>17.0</ele><time>2026-05-03T09:40:09.902Z</time></trkpt><trkpt lat="42.21229" lon="14.5872683"><ele>18.0</ele><time>2026-05-03T09:40:11.901Z</time></trkpt><trkpt lat="42.2123433" lon="14.5871467"><ele>19.0</ele><time>2026-05-03T09:40:13.901Z</time></trkpt><trkpt lat="42.2123983" lon="14.5870333"><ele>20.0</ele><time>2026-05-03T09:40:15.902Z</time></trkpt><trkpt lat="42.21245" lon="14.586935"><ele>17.8</ele><time>2026-05-03T09:40:17.902Z</time></trkpt><trkpt lat="42.212495" lon="14.5868317"><ele>15.6</ele><time>2026-05-03T09:40:19.902Z</time></trkpt><trkpt lat="42.2125433" lon="14.5867283"><ele>13.4</ele><time>2026-05-03T09:40:21.901Z</time></trkpt><trkpt lat="42.212595" lon="14.5866217"><ele>11.2</ele><time>2026-05-03T09:40:23.901Z</time></trkpt><trkpt lat="42.2126433" lon="14.58651"><ele>9.0</ele><time>2026-05-03T09:40:25.902Z</time></trkpt><trkpt lat="42.2126967" lon="14.586405"><ele>9.0</ele><time>2026-05-03T09:40:27.902Z</time></trkpt><trkpt lat="42.212745" lon="14.586295"><ele>9.0</ele><time>2026-05-03T09:40:29.902Z</time></trkpt><trkpt lat="42.2128033" lon="14.5861833"><ele>9.0</ele><time>2026-05-03T09:40:31.902Z</time></trkpt><trkpt lat="42.2128533" lon="14.5860867"><ele>9.0</ele><time>2026-05-03T09:40:33.901Z</time></trkpt><trkpt lat="42.2129117" lon="14.5859783"><ele>9.0</ele><time>2026-05-03T09:40:35.902Z</time></trkpt><trkpt lat="42.21296" lon="14.5858867"><ele>8.5</ele><time>2026-05-03T09:40:37.901Z</time></trkpt><trkpt lat="42.213005" lon="14.5857967"><ele>8.0</ele><time>2026-05-03T09:40:39.902Z</time></trkpt><trkpt lat="42.213045" lon="14.5856983"><ele>7.5</ele><time>2026-05-03T09:40:41.901Z</time></trkpt><trkpt lat="42.213105" lon="14.58559"><ele>7.0</ele><time>2026-05-03T09:40:43.901Z</time></trkpt><trkpt lat="42.2131583" lon="14.5854933"><ele>6.5</ele><time>2026-05-03T09:40:45.902Z</time></trkpt><trkpt lat="42.213205" lon="14.5854"><ele>6.0</ele><time>2026-05-03T09:40:47.901Z</time></trkpt><trkpt lat="42.21326" lon="14.5852817"><ele>7.199999999999999</ele><time>2026-05-03T09:40:49.902Z</time></trkpt><trkpt lat="42.2133167" lon="14.5851867"><ele>8.399999999999999</ele><time>2026-05-03T09:40:51.902Z</time></trkpt><trkpt lat="42.213375" lon="14.585085"><ele>9.6</ele><time>2026-05-03T09:40:53.901Z</time></trkpt><trkpt lat="42.2134283" lon="14.5849867"><ele>10.799999999999999</ele><time>2026-05-03T09:40:55.901Z</time></trkpt><trkpt lat="42.21348" lon="14.584885"><ele>12.0</ele><time>2026-05-03T09:40:57.902Z</time></trkpt><trkpt lat="42.2135317" lon="14.5847967"><ele>12.0</ele><time>2026-05-03T09:40:59.902Z</time></trkpt><trkpt lat="42.2135883" lon="14.5847083"><ele>12.0</ele><time>2026-05-03T09:41:01.901Z</time></trkpt><trkpt lat="42.213645" lon="14.58462"><ele>12.0</ele><time>2026-05-03T09:41:03.902Z</time></trkpt><trkpt lat="42.2137033" lon="14.5845283"><ele>12.0</ele><time>2026-05-03T09:41:05.901Z</time></trkpt><trkpt lat="42.2137617" lon="14.5844417"><ele>12.0</ele><time>2026-05-03T09:41:07.901Z</time></trkpt><trkpt lat="42.2138167" lon="14.5843417"><ele>12.0</ele><time>2026-05-03T09:41:09.902Z</time></trkpt><trkpt lat="42.2138733" lon="14.5842567"><ele>11.166666666666666</ele><time>2026-05-03T09:41:11.902Z</time></trkpt><trkpt lat="42.2139283" lon="14.5841783"><ele>10.333333333333334</ele><time>2026-05-03T09:41:13.902Z</time></trkpt><trkpt lat="42.2139817" lon="14.5840933"><ele>9.5</ele><time>2026-05-03T09:41:15.902Z</time></trkpt><trkpt lat="42.2140283" lon="14.584005"><ele>8.666666666666668</ele><time>2026-05-03T09:41:17.902Z</time></trkpt><trkpt lat="42.2140767" lon="14.583915"><ele>7.833333333333334</ele><time>2026-05-03T09:41:19.902Z</time></trkpt><trkpt lat="42.21414" lon="14.583835"><ele>7.0</ele><time>2026-05-03T09:41:21.901Z</time></trkpt><trkpt lat="42.21419" lon="14.58375"><ele>8.333333333333334</ele><time>2026-05-03T09:41:23.901Z</time></trkpt><trkpt lat="42.2142417" lon="14.58368"><ele>9.666666666666668</ele><time>2026-05-03T09:41:25.902Z</time></trkpt><trkpt lat="42.21429" lon="14.5835967"><ele>11.0</ele><time>2026-05-03T09:41:27.901Z</time></trkpt><trkpt lat="42.2143333" lon="14.5835083"><ele>12.333333333333334</ele><time>2026-05-03T09:41:29.902Z</time></trkpt><trkpt lat="42.2143833" lon="14.5834183"><ele>13.666666666666666</ele><time>2026-05-03T09:41:31.901Z</time></trkpt><trkpt lat="42.2144333" lon="14.583345"><ele>15.0</ele><time>2026-05-03T09:41:33.902Z</time></trkpt><trkpt lat="42.2144767" lon="14.5832833"><ele>15.0</ele><time>2026-05-03T09:41:35.902Z</time></trkpt><trkpt lat="42.2145333" lon="14.583185"><ele>15.0</ele><time>2026-05-03T09:41:38.902Z</time></trkpt><trkpt lat="42.21457" lon="14.58311"><ele>15.0</ele><time>2026-05-03T09:41:40.901Z</time></trkpt><trkpt lat="42.2146267" lon="14.583015"><ele>15.0</ele><time>2026-05-03T09:41:43.902Z</time></trkpt><trkpt lat="42.2146683" lon="14.5829483"><ele>15.0</ele><time>2026-05-03T09:41:45.902Z</time></trkpt><trkpt lat="42.2147083" lon="14.58288"><ele>15.0</ele><time>2026-05-03T09:41:47.901Z</time></trkpt><trkpt lat="42.2147683" lon="14.5827717"><ele>14.333333333333334</ele><time>2026-05-03T09:41:50.901Z</time></trkpt><trkpt lat="42.21483" lon="14.582665"><ele>13.666666666666666</ele><time>2026-05-03T09:41:52.901Z</time></trkpt><trkpt lat="42.2148783" lon="14.582555"><ele>13.0</ele><time>2026-05-03T09:41:54.902Z</time></trkpt><trkpt lat="42.21492" lon="14.5824433"><ele>12.333333333333332</ele><time>2026-05-03T09:41:56.902Z</time></trkpt><trkpt lat="42.2149683" lon="14.5823467"><ele>11.666666666666666</ele><time>2026-05-03T09:41:58.902Z</time></trkpt><trkpt lat="42.2150167" lon="14.5822733"><ele>11.0</ele><time>2026-05-03T09:42:00.902Z</time></trkpt><trkpt lat="42.215065" lon="14.58219"><ele>11.0</ele><time>2026-05-03T09:42:02.901Z</time></trkpt><trkpt lat="42.215105" lon="14.582105"><ele>11.0</ele><time>2026-05-03T09:42:04.902Z</time></trkpt><trkpt lat="42.2151417" lon="14.5820233"><ele>11.0</ele><time>2026-05-03T09:42:06.902Z</time></trkpt><trkpt lat="42.21518" lon="14.5819417"><ele>11.0</ele><time>2026-05-03T09:42:08.901Z</time></trkpt><trkpt lat="42.215225" lon="14.5818467"><ele>11.0</ele><time>2026-05-03T09:42:10.901Z</time></trkpt><trkpt lat="42.2152667" lon="14.581765"><ele>11.0</ele><time>2026-05-03T09:42:12.902Z</time></trkpt><trkpt lat="42.2153117" lon="14.58168"><ele>11.5</ele><time>2026-05-03T09:42:14.902Z</time></trkpt><trkpt lat="42.21536" lon="14.5815533"><ele>12.0</ele><time>2026-05-03T09:42:16.902Z</time></trkpt><trkpt lat="42.21541" lon="14.581445"><ele>12.5</ele><time>2026-05-03T09:42:18.902Z</time></trkpt><trkpt lat="42.2154583" lon="14.5813617"><ele>13.0</ele><time>2026-05-03T09:42:20.902Z</time></trkpt><trkpt lat="42.215495" lon="14.581275"><ele>13.500000000000002</ele><time>2026-05-03T09:42:22.902Z</time></trkpt><trkpt lat="42.2155333" lon="14.5811817"><ele>14.0</ele><time>2026-05-03T09:42:24.901Z</time></trkpt><trkpt lat="42.2155833" lon="14.58107"><ele>14.833333333333334</ele><time>2026-05-03T09:42:26.901Z</time></trkpt><trkpt lat="42.2156217" lon="14.5809783"><ele>15.666666666666668</ele><time>2026-05-03T09:42:28.901Z</time></trkpt><trkpt lat="42.21565" lon="14.5809"><ele>16.5</ele><time>2026-05-03T09:42:30.902Z</time></trkpt><trkpt lat="42.2156783" lon="14.5808183"><ele>17.333333333333332</ele><time>2026-05-03T09:42:32.902Z</time></trkpt><trkpt lat="42.2157117" lon="14.580735"><ele>18.166666666666664</ele><time>2026-05-03T09:42:34.901Z</time></trkpt><trkpt lat="42.2157567" lon="14.5806267"><ele>19.0</ele><time>2026-05-03T09:42:37.902Z</time></trkpt><trkpt lat="42.2158083" lon="14.5805267"><ele>18.285714285714285</ele><time>2026-05-03T09:42:40.901Z</time></trkpt><trkpt lat="42.2158483" lon="14.58046"><ele>17.571428571428573</ele><time>2026-05-03T09:42:42.902Z</time></trkpt><trkpt lat="42.21589" lon="14.58039"><ele>16.857142857142858</ele><time>2026-05-03T09:42:44.902Z</time></trkpt><trkpt lat="42.2159283" lon="14.5803133"><ele>16.142857142857142</ele><time>2026-05-03T09:42:46.902Z</time></trkpt><trkpt lat="42.2159667" lon="14.58023"><ele>15.428571428571429</ele><time>2026-05-03T09:42:48.902Z</time></trkpt><trkpt lat="42.21602" lon="14.580125"><ele>14.714285714285715</ele><time>2026-05-03T09:42:51.902Z</time></trkpt><trkpt lat="42.2160533" lon="14.5800417"><ele>14.0</ele><time>2026-05-03T09:42:53.902Z</time></trkpt><trkpt lat="42.21609" lon="14.5799517"><ele>14.000000000000002</ele><time>2026-05-03T09:42:55.901Z</time></trkpt><trkpt lat="42.216125" lon="14.5798567"><ele>14.0</ele><time>2026-05-03T09:42:57.901Z</time></trkpt><trkpt lat="42.2161617" lon="14.5797667"><ele>14.0</ele><time>2026-05-03T09:42:59.902Z</time></trkpt><trkpt lat="42.2162" lon="14.5796667"><ele>14.0</ele><time>2026-05-03T09:43:01.901Z</time></trkpt><trkpt lat="42.2162467" lon="14.5795633"><ele>14.000000000000002</ele><time>2026-05-03T09:43:03.901Z</time></trkpt><trkpt lat="42.2162867" lon="14.5794683"><ele>14.0</ele><time>2026-05-03T09:43:05.902Z</time></trkpt><trkpt lat="42.216325" lon="14.5793817"><ele>15.000000000000002</ele><time>2026-05-03T09:43:07.902Z</time></trkpt><trkpt lat="42.2163683" lon="14.5792933"><ele>16.0</ele><time>2026-05-03T09:43:09.901Z</time></trkpt><trkpt lat="42.2164067" lon="14.5792067"><ele>17.0</ele><time>2026-05-03T09:43:11.902Z</time></trkpt><trkpt lat="42.2164433" lon="14.5791167"><ele>18.0</ele><time>2026-05-03T09:43:13.902Z</time></trkpt><trkpt lat="42.2164833" lon="14.5790267"><ele>19.0</ele><time>2026-05-03T09:43:15.901Z</time></trkpt><trkpt lat="42.216525" lon="14.5789433"><ele>20.0</ele><time>2026-05-03T09:43:17.902Z</time></trkpt><trkpt lat="42.2165683" lon="14.5788517"><ele>18.833333333333336</ele><time>2026-05-03T09:43:19.901Z</time></trkpt><trkpt lat="42.2166067" lon="14.578765"><ele>17.666666666666668</ele><time>2026-05-03T09:43:21.902Z</time></trkpt><trkpt lat="42.2166433" lon="14.5786833"><ele>16.5</ele><time>2026-05-03T09:43:23.902Z</time></trkpt><trkpt lat="42.2166833" lon="14.578615"><ele>15.333333333333332</ele><time>2026-05-03T09:43:25.902Z</time></trkpt><trkpt lat="42.2167383" lon="14.57851"><ele>14.166666666666666</ele><time>2026-05-03T09:43:28.901Z</time></trkpt><trkpt lat="42.21677" lon="14.578435"><ele>13.0</ele><time>2026-05-03T09:43:30.901Z</time></trkpt><trkpt lat="42.2168133" lon="14.5783383"><ele>13.0</ele><time>2026-05-03T09:43:33.9Z</time></trkpt><trkpt lat="42.216845" lon="14.5782583"><ele>13.0</ele><time>2026-05-03T09:43:35.901Z</time></trkpt><trkpt lat="42.21688" lon="14.5781783"><ele>13.0</ele><time>2026-05-03T09:43:37.901Z</time></trkpt><trkpt lat="42.21692" lon="14.5780883"><ele>13.0</ele><time>2026-05-03T09:43:39.901Z</time></trkpt><trkpt lat="42.2169533" lon="14.578005"><ele>13.0</ele><time>2026-05-03T09:43:41.901Z</time></trkpt><trkpt lat="42.2169817" lon="14.5779233"><ele>13.0</ele><time>2026-05-03T09:43:43.9Z</time></trkpt><trkpt lat="42.21701" lon="14.5778417"><ele>13.0</ele><time>2026-05-03T09:43:45.9Z</time></trkpt><trkpt lat="42.21704" lon="14.57776"><ele>14.166666666666666</ele><time>2026-05-03T09:43:47.901Z</time></trkpt><trkpt lat="42.217075" lon="14.5776767"><ele>15.333333333333332</ele><time>2026-05-03T09:43:49.901Z</time></trkpt><trkpt lat="42.2171283" lon="14.5775867"><ele>16.5</ele><time>2026-05-03T09:43:51.901Z</time></trkpt><trkpt lat="42.2171683" lon="14.57751"><ele>17.666666666666668</ele><time>2026-05-03T09:43:53.901Z</time></trkpt><trkpt lat="42.2172183" lon="14.5774133"><ele>18.833333333333336</ele><time>2026-05-03T09:43:55.901Z</time></trkpt><trkpt lat="42.2172633" lon="14.577325"><ele>20.0</ele><time>2026-05-03T09:43:57.901Z</time></trkpt><trkpt lat="42.2173033" lon="14.5772433"><ele>18.666666666666668</ele><time>2026-05-03T09:43:59.901Z</time></trkpt><trkpt lat="42.2173417" lon="14.5771583"><ele>17.333333333333336</ele><time>2026-05-03T09:44:01.901Z</time></trkpt><trkpt lat="42.2173733" lon="14.5770833"><ele>16.0</ele><time>2026-05-03T09:44:03.9Z</time></trkpt><trkpt lat="42.2174117" lon="14.5770017"><ele>14.666666666666668</ele><time>2026-05-03T09:44:05.901Z</time></trkpt><trkpt lat="42.217455" lon="14.576905"><ele>13.333333333333334</ele><time>2026-05-03T09:44:07.901Z</time></trkpt><trkpt lat="42.2175" lon="14.5768083"><ele>12.0</ele><time>2026-05-03T09:44:09.9Z</time></trkpt><trkpt lat="42.217545" lon="14.5767183"><ele>12.0</ele><time>2026-05-03T09:44:11.9Z</time></trkpt><trkpt lat="42.2175817" lon="14.5766367"><ele>12.0</ele><time>2026-05-03T09:44:13.9Z</time></trkpt><trkpt lat="42.2176183" lon="14.576525"><ele>12.0</ele><time>2026-05-03T09:44:16.901Z</time></trkpt><trkpt lat="42.21765" lon="14.5764433"><ele>12.0</ele><time>2026-05-03T09:44:18.901Z</time></trkpt><trkpt lat="42.2177033" lon="14.5763367"><ele>12.0</ele><time>2026-05-03T09:44:21.901Z</time></trkpt><trkpt lat="42.2177433" lon="14.57626"><ele>12.0</ele><time>2026-05-03T09:44:23.901Z</time></trkpt><trkpt lat="42.217785" lon="14.576185"><ele>12.666666666666666</ele><time>2026-05-03T09:44:25.9Z</time></trkpt><trkpt lat="42.2178233" lon="14.5761167"><ele>13.333333333333332</ele><time>2026-05-03T09:44:27.901Z</time></trkpt><trkpt lat="42.21787" lon="14.576015"><ele>14.0</ele><time>2026-05-03T09:44:30.901Z</time></trkpt><trkpt lat="42.2179233" lon="14.57594"><ele>14.666666666666666</ele><time>2026-05-03T09:44:33.901Z</time></trkpt><trkpt lat="42.2179667" lon="14.5758483"><ele>15.333333333333332</ele><time>2026-05-03T09:44:36.901Z</time></trkpt><trkpt lat="42.2180133" lon="14.57575"><ele>16.0</ele><time>2026-05-03T09:44:39.9Z</time></trkpt><trkpt lat="42.2180483" lon="14.5756733"><ele>15.999999999999998</ele><time>2026-05-03T09:44:41.901Z</time></trkpt><trkpt lat="42.218085" lon="14.575595"><ele>16.0</ele><time>2026-05-03T09:44:43.9Z</time></trkpt><trkpt lat="42.2181333" lon="14.575475"><ele>16.0</ele><time>2026-05-03T09:44:46.901Z</time></trkpt><trkpt lat="42.218165" lon="14.57539"><ele>16.0</ele><time>2026-05-03T09:44:48.901Z</time></trkpt><trkpt lat="42.2182067" lon="14.5753033"><ele>15.999999999999998</ele><time>2026-05-03T09:44:50.901Z</time></trkpt><trkpt lat="42.2182433" lon="14.5752283"><ele>16.0</ele><time>2026-05-03T09:44:52.901Z</time></trkpt><trkpt lat="42.2182667" lon="14.5751433"><ele>16.0</ele><time>2026-05-03T09:44:55.901Z</time></trkpt><trkpt lat="42.2182567" lon="14.57504"><ele>15.999999999999998</ele><time>2026-05-03T09:44:58.901Z</time></trkpt><trkpt lat="42.2182467" lon="14.5749333"><ele>16.0</ele><time>2026-05-03T09:45:01.9Z</time></trkpt><trkpt lat="42.2182483" lon="14.5748367"><ele>16.0</ele><time>2026-05-03T09:45:05.901Z</time></trkpt><trkpt lat="42.218285" lon="14.5747517"><ele>15.999999999999998</ele><time>2026-05-03T09:45:09.901Z</time></trkpt><trkpt lat="42.2183117" lon="14.5746733"><ele>16.0</ele><time>2026-05-03T09:45:12.9Z</time></trkpt><trkpt lat="42.2183533" lon="14.5746017"><ele>16.0</ele><time>2026-05-03T09:45:15.9Z</time></trkpt><trkpt lat="42.2184017" lon="14.5745117"><ele>15.999999999999998</ele><time>2026-05-03T09:45:19.9Z</time></trkpt><trkpt lat="42.2184483" lon="14.5744183"><ele>16.0</ele><time>2026-05-03T09:45:23.9Z</time></trkpt><trkpt lat="42.2184917" lon="14.5743333"><ele>16.0</ele><time>2026-05-03T09:45:27.901Z</time></trkpt><trkpt lat="42.218535" lon="14.5742583"><ele>16.0</ele><time>2026-05-03T09:45:30.901Z</time></trkpt><trkpt lat="42.218575" lon="14.574165"><ele>15.999999999999998</ele><time>2026-05-03T09:45:33.901Z</time></trkpt><trkpt lat="42.2186067" lon="14.5740867"><ele>16.0</ele><time>2026-05-03T09:45:40.901Z</time></trkpt><trkpt lat="42.2186633" lon="14.5740033"><ele>15.999999999999998</ele><time>2026-05-03T09:46:12.901Z</time></trkpt><trkpt lat="42.218715" lon="14.5739083"><ele>16.0</ele><time>2026-05-03T09:46:15.9Z</time></trkpt><trkpt lat="42.21874" lon="14.573825"><ele>16.0</ele><time>2026-05-03T09:46:17.901Z</time></trkpt><trkpt lat="42.2187667" lon="14.5737383"><ele>16.0</ele><time>2026-05-03T09:46:20.901Z</time></trkpt><trkpt lat="42.2187967" lon="14.5736367"><ele>15.999999999999998</ele><time>2026-05-03T09:46:25.901Z</time></trkpt><trkpt lat="42.2188367" lon="14.5735467"><ele>16.0</ele><time>2026-05-03T09:46:28.901Z</time></trkpt><trkpt lat="42.2188833" lon="14.57346"><ele>16.428571428571427</ele><time>2026-05-03T09:46:31.901Z</time></trkpt><trkpt lat="42.2189233" lon="14.573385"><ele>16.857142857142854</ele><time>2026-05-03T09:46:34.901Z</time></trkpt><trkpt lat="42.2189583" lon="14.5733"><ele>17.285714285714285</ele><time>2026-05-03T09:46:37.901Z</time></trkpt><trkpt lat="42.2189967" lon="14.573225"><ele>17.714285714285715</ele><time>2026-05-03T09:46:40.901Z</time></trkpt><trkpt lat="42.2190333" lon="14.573145"><ele>18.142857142857146</ele><time>2026-05-03T09:46:43.901Z</time></trkpt><trkpt lat="42.21907" lon="14.57306"><ele>18.57142857142857</ele><time>2026-05-03T09:46:46.9Z</time></trkpt><trkpt lat="42.219115" lon="14.572985"><ele>19.0</ele><time>2026-05-03T09:46:49.901Z</time></trkpt><trkpt lat="42.2191617" lon="14.5728917"><ele>18.0</ele><time>2026-05-03T09:46:52.901Z</time></trkpt><trkpt lat="42.2192117" lon="14.5727917"><ele>17.0</ele><time>2026-05-03T09:46:55.9Z</time></trkpt><trkpt lat="42.2192433" lon="14.5726833"><ele>16.0</ele><time>2026-05-03T09:46:58.9Z</time></trkpt><trkpt lat="42.2192617" lon="14.5725767"><ele>15.0</ele><time>2026-05-03T09:47:01.9Z</time></trkpt><trkpt lat="42.2192717" lon="14.5724917"><ele>13.999999999999998</ele><time>2026-05-03T09:47:04.901Z</time></trkpt><trkpt lat="42.2193533" lon="14.5724467"><ele>13.0</ele><time>2026-05-03T09:47:08.9Z</time></trkpt><trkpt lat="42.219425" lon="14.5724083"><ele>12.999999999999998</ele><time>2026-05-03T09:47:11.901Z</time></trkpt><trkpt lat="42.219485" lon="14.5723317"><ele>13.0</ele><time>2026-05-03T09:47:14.901Z</time></trkpt><trkpt lat="42.2195217" lon="14.572255"><ele>13.0</ele><time>2026-05-03T09:47:17.901Z</time></trkpt><trkpt lat="42.2195783" lon="14.57218"><ele>13.0</ele><time>2026-05-03T09:47:29.901Z</time></trkpt><trkpt lat="42.2196567" lon="14.5722"><ele>12.999999999999998</ele><time>2026-05-03T09:47:32.9Z</time></trkpt><trkpt lat="42.2197117" lon="14.5721067"><ele>13.0</ele><time>2026-05-03T09:48:00.901Z</time></trkpt><trkpt lat="42.219765" lon="14.5720283"><ele>13.666666666666666</ele><time>2026-05-03T09:48:04.901Z</time></trkpt><trkpt lat="42.2198083" lon="14.57195"><ele>14.333333333333332</ele><time>2026-05-03T09:48:07.901Z</time></trkpt><trkpt lat="42.2198517" lon="14.5718517"><ele>15.0</ele><time>2026-05-03T09:48:10.901Z</time></trkpt><trkpt lat="42.2198933" lon="14.5717617"><ele>15.666666666666668</ele><time>2026-05-03T09:48:13.9Z</time></trkpt><trkpt lat="42.2199233" lon="14.5716867"><ele>16.333333333333336</ele><time>2026-05-03T09:48:15.901Z</time></trkpt><trkpt lat="42.219975" lon="14.57158"><ele>17.0</ele><time>2026-05-03T09:48:18.9Z</time></trkpt><trkpt lat="42.22003" lon="14.571465"><ele>16.428571428571427</ele><time>2026-05-03T09:48:21.901Z</time></trkpt><trkpt lat="42.22006" lon="14.5713883"><ele>15.857142857142858</ele><time>2026-05-03T09:48:23.901Z</time></trkpt><trkpt lat="42.2200883" lon="14.5713083"><ele>15.285714285714285</ele><time>2026-05-03T09:48:25.9Z</time></trkpt><trkpt lat="42.2201133" lon="14.5712283"><ele>14.714285714285714</ele><time>2026-05-03T09:48:27.901Z</time></trkpt><trkpt lat="42.2201467" lon="14.5711333"><ele>14.142857142857142</ele><time>2026-05-03T09:48:29.9Z</time></trkpt><trkpt lat="42.2201833" lon="14.5710433"><ele>13.571428571428571</ele><time>2026-05-03T09:48:31.9Z</time></trkpt><trkpt lat="42.2202117" lon="14.5709483"><ele>13.0</ele><time>2026-05-03T09:48:33.9Z</time></trkpt><trkpt lat="42.2202383" lon="14.570855"><ele>13.0</ele><time>2026-05-03T09:48:35.901Z</time></trkpt><trkpt lat="42.22027" lon="14.5707667"><ele>13.0</ele><time>2026-05-03T09:48:37.9Z</time></trkpt><trkpt lat="42.2203017" lon="14.5706883"><ele>13.0</ele><time>2026-05-03T09:48:39.901Z</time></trkpt><trkpt lat="42.22033" lon="14.57061"><ele>13.0</ele><time>2026-05-03T09:48:41.901Z</time></trkpt><trkpt lat="42.2203617" lon="14.5705317"><ele>13.0</ele><time>2026-05-03T09:48:43.9Z</time></trkpt><trkpt lat="42.2203933" lon="14.57045"><ele>13.0</ele><time>2026-05-03T09:48:45.901Z</time></trkpt><trkpt lat="42.22043" lon="14.5703483"><ele>13.0</ele><time>2026-05-03T09:48:47.901Z</time></trkpt><trkpt lat="42.2204667" lon="14.57025"><ele>13.714285714285714</ele><time>2026-05-03T09:48:49.901Z</time></trkpt><trkpt lat="42.2204983" lon="14.5701517"><ele>14.42857142857143</ele><time>2026-05-03T09:48:51.901Z</time></trkpt><trkpt lat="42.220535" lon="14.5700617"><ele>15.142857142857144</ele><time>2026-05-03T09:48:53.9Z</time></trkpt><trkpt lat="42.220565" lon="14.5699683"><ele>15.857142857142858</ele><time>2026-05-03T09:48:55.901Z</time></trkpt><trkpt lat="42.2205883" lon="14.56986"><ele>16.571428571428573</ele><time>2026-05-03T09:48:57.9Z</time></trkpt><trkpt lat="42.2206167" lon="14.5697767"><ele>17.28571428571429</ele><time>2026-05-03T09:48:59.901Z</time></trkpt><trkpt lat="42.22064" lon="14.5696967"><ele>18.0</ele><time>2026-05-03T09:49:01.901Z</time></trkpt><trkpt lat="42.2206783" lon="14.5695783"><ele>16.666666666666668</ele><time>2026-05-03T09:49:04.901Z</time></trkpt><trkpt lat="42.2207183" lon="14.56948"><ele>15.333333333333334</ele><time>2026-05-03T09:49:06.901Z</time></trkpt><trkpt lat="42.2207533" lon="14.5693783"><ele>14.0</ele><time>2026-05-03T09:49:08.9Z</time></trkpt><trkpt lat="42.2207833" lon="14.5692833"><ele>12.666666666666668</ele><time>2026-05-03T09:49:10.901Z</time></trkpt><trkpt lat="42.220815" lon="14.5692"><ele>11.333333333333334</ele><time>2026-05-03T09:49:12.9Z</time></trkpt><trkpt lat="42.2208467" lon="14.5691117"><ele>10.0</ele><time>2026-05-03T09:49:14.901Z</time></trkpt><trkpt lat="42.2208817" lon="14.5690183"><ele>10.0</ele><time>2026-05-03T09:49:16.901Z</time></trkpt><trkpt lat="42.22092" lon="14.56893"><ele>10.0</ele><time>2026-05-03T09:49:18.901Z</time></trkpt><trkpt lat="42.220955" lon="14.5688367"><ele>10.0</ele><time>2026-05-03T09:49:20.901Z</time></trkpt><trkpt lat="42.220995" lon="14.56874"><ele>10.0</ele><time>2026-05-03T09:49:22.901Z</time></trkpt><trkpt lat="42.2210283" lon="14.5686467"><ele>10.0</ele><time>2026-05-03T09:49:24.9Z</time></trkpt><trkpt lat="42.2210567" lon="14.5685433"><ele>10.0</ele><time>2026-05-03T09:49:26.9Z</time></trkpt><trkpt lat="42.221095" lon="14.5684433"><ele>10.5</ele><time>2026-05-03T09:49:28.9Z</time></trkpt><trkpt lat="42.221135" lon="14.56835"><ele>11.0</ele><time>2026-05-03T09:49:30.9Z</time></trkpt><trkpt lat="42.2211717" lon="14.5682617"><ele>11.5</ele><time>2026-05-03T09:49:32.9Z</time></trkpt><trkpt lat="42.2212117" lon="14.56817"><ele>12.0</ele><time>2026-05-03T09:49:34.901Z</time></trkpt><trkpt lat="42.2212517" lon="14.568075"><ele>12.499999999999998</ele><time>2026-05-03T09:49:36.901Z</time></trkpt><trkpt lat="42.2212867" lon="14.56798"><ele>13.0</ele><time>2026-05-03T09:49:38.901Z</time></trkpt><trkpt lat="42.2213267" lon="14.5678933"><ele>13.428571428571427</ele><time>2026-05-03T09:49:40.901Z</time></trkpt><trkpt lat="42.221365" lon="14.5678117"><ele>13.857142857142858</ele><time>2026-05-03T09:49:42.901Z</time></trkpt><trkpt lat="42.2214017" lon="14.5677317"><ele>14.285714285714285</ele><time>2026-05-03T09:49:44.901Z</time></trkpt><trkpt lat="42.2214417" lon="14.5676417"><ele>14.714285714285714</ele><time>2026-05-03T09:49:46.9Z</time></trkpt><trkpt lat="42.2214717" lon="14.5675567"><ele>15.142857142857142</ele><time>2026-05-03T09:49:48.9Z</time></trkpt><trkpt lat="42.2215017" lon="14.5674667"><ele>15.571428571428571</ele><time>2026-05-03T09:49:50.9Z</time></trkpt><trkpt lat="42.2215383" lon="14.56738"><ele>16.0</ele><time>2026-05-03T09:49:52.901Z</time></trkpt><trkpt lat="42.2215767" lon="14.5673017"><ele>14.857142857142856</ele><time>2026-05-03T09:49:54.901Z</time></trkpt><trkpt lat="42.2216183" lon="14.5672183"><ele>13.714285714285712</ele><time>2026-05-03T09:49:56.9Z</time></trkpt><trkpt lat="42.2216617" lon="14.5671317"><ele>12.571428571428571</ele><time>2026-05-03T09:49:58.901Z</time></trkpt><trkpt lat="42.221705" lon="14.5670483"><ele>11.428571428571427</ele><time>2026-05-03T09:50:00.9Z</time></trkpt><trkpt lat="42.2217417" lon="14.5669683"><ele>10.285714285714285</ele><time>2026-05-03T09:50:02.901Z</time></trkpt><trkpt lat="42.2217867" lon="14.56688"><ele>9.142857142857142</ele><time>2026-05-03T09:50:04.9Z</time></trkpt><trkpt lat="42.22182" lon="14.5667967"><ele>8.0</ele><time>2026-05-03T09:50:06.9Z</time></trkpt><trkpt lat="42.2218583" lon="14.56671"><ele>7.999999999999999</ele><time>2026-05-03T09:50:08.901Z</time></trkpt><trkpt lat="42.2218967" lon="14.5666283"><ele>8.0</ele><time>2026-05-03T09:50:10.901Z</time></trkpt><trkpt lat="42.2219433" lon="14.5665417"><ele>8.0</ele><time>2026-05-03T09:50:12.9Z</time></trkpt><trkpt lat="42.2219867" lon="14.5664517"><ele>8.0</ele><time>2026-05-03T09:50:14.901Z</time></trkpt><trkpt lat="42.2220383" lon="14.5663433"><ele>7.999999999999999</ele><time>2026-05-03T09:50:16.901Z</time></trkpt><trkpt lat="42.2220783" lon="14.566245"><ele>8.0</ele><time>2026-05-03T09:50:18.901Z</time></trkpt><trkpt lat="42.22212" lon="14.5661567"><ele>7.499999999999999</ele><time>2026-05-03T09:50:20.901Z</time></trkpt><trkpt lat="42.2221617" lon="14.5660517"><ele>7.0</ele><time>2026-05-03T09:50:22.9Z</time></trkpt><trkpt lat="42.2222083" lon="14.5659517"><ele>6.5</ele><time>2026-05-03T09:50:24.901Z</time></trkpt><trkpt lat="42.2222567" lon="14.5658483"><ele>6.0</ele><time>2026-05-03T09:50:26.9Z</time></trkpt><trkpt lat="42.2223083" lon="14.5657483"><ele>5.5</ele><time>2026-05-03T09:50:28.9Z</time></trkpt><trkpt lat="42.2223583" lon="14.5656567"><ele>5.0</ele><time>2026-05-03T09:50:30.9Z</time></trkpt><trkpt lat="42.2224033" lon="14.5655633"><ele>5.0</ele><time>2026-05-03T09:50:32.901Z</time></trkpt><trkpt lat="42.2224483" lon="14.5654667"><ele>5.0</ele><time>2026-05-03T09:50:34.901Z</time></trkpt><trkpt lat="42.222495" lon="14.5653667"><ele>5.0</ele><time>2026-05-03T09:50:36.9Z</time></trkpt><trkpt lat="42.2225417" lon="14.56527"><ele>5.0</ele><time>2026-05-03T09:50:38.9Z</time></trkpt><trkpt lat="42.2225883" lon="14.56518"><ele>5.0</ele><time>2026-05-03T09:50:40.9Z</time></trkpt><trkpt lat="42.222635" lon="14.5650867"><ele>5.0</ele><time>2026-05-03T09:50:42.901Z</time></trkpt><trkpt lat="42.22268" lon="14.5649883"><ele>6.5</ele><time>2026-05-03T09:50:44.901Z</time></trkpt><trkpt lat="42.2227217" lon="14.56489"><ele>8.0</ele><time>2026-05-03T09:50:46.901Z</time></trkpt><trkpt lat="42.222765" lon="14.5647983"><ele>9.5</ele><time>2026-05-03T09:50:48.901Z</time></trkpt><trkpt lat="42.22281" lon="14.56471"><ele>11.0</ele><time>2026-05-03T09:50:50.901Z</time></trkpt><trkpt lat="42.2228533" lon="14.56462"><ele>12.500000000000002</ele><time>2026-05-03T09:50:52.9Z</time></trkpt><trkpt lat="42.2228917" lon="14.5645333"><ele>14.0</ele><time>2026-05-03T09:50:54.9Z</time></trkpt><trkpt lat="42.2229317" lon="14.5644467"><ele>14.666666666666668</ele><time>2026-05-03T09:50:56.9Z</time></trkpt><trkpt lat="42.22297" lon="14.564365"><ele>15.333333333333334</ele><time>2026-05-03T09:50:58.901Z</time></trkpt><trkpt lat="42.2230133" lon="14.5642783"><ele>16.0</ele><time>2026-05-03T09:51:00.9Z</time></trkpt><trkpt lat="42.2230583" lon="14.5641817"><ele>16.666666666666668</ele><time>2026-05-03T09:51:02.901Z</time></trkpt><trkpt lat="42.2230983" lon="14.564085"><ele>17.333333333333332</ele><time>2026-05-03T09:51:04.9Z</time></trkpt><trkpt lat="42.2231367" lon="14.56399"><ele>18.0</ele><time>2026-05-03T09:51:06.901Z</time></trkpt><trkpt lat="42.2231817" lon="14.5638933"><ele>16.714285714285715</ele><time>2026-05-03T09:51:08.9Z</time></trkpt><trkpt lat="42.2232267" lon="14.5638083"><ele>15.428571428571429</ele><time>2026-05-03T09:51:10.901Z</time></trkpt><trkpt lat="42.2232717" lon="14.5637317"><ele>14.142857142857144</ele><time>2026-05-03T09:51:12.9Z</time></trkpt><trkpt lat="42.2233117" lon="14.563655"><ele>12.857142857142858</ele><time>2026-05-03T09:51:14.901Z</time></trkpt><trkpt lat="42.22335" lon="14.5635733"><ele>11.571428571428573</ele><time>2026-05-03T09:51:16.901Z</time></trkpt><trkpt lat="42.2233933" lon="14.5634867"><ele>10.285714285714286</ele><time>2026-05-03T09:51:18.901Z</time></trkpt><trkpt lat="42.22343" lon="14.563405"><ele>9.0</ele><time>2026-05-03T09:51:20.9Z</time></trkpt><trkpt lat="42.223465" lon="14.5633217"><ele>9.000000000000002</ele><time>2026-05-03T09:51:22.9Z</time></trkpt><trkpt lat="42.2235067" lon="14.563235"><ele>9.0</ele><time>2026-05-03T09:51:24.9Z</time></trkpt><trkpt lat="42.2235467" lon="14.5631517"><ele>9.0</ele><time>2026-05-03T09:51:26.901Z</time></trkpt><trkpt lat="42.2235867" lon="14.5630633"><ele>9.0</ele><time>2026-05-03T09:51:28.901Z</time></trkpt><trkpt lat="42.223625" lon="14.5629833"><ele>9.0</ele><time>2026-05-03T09:51:30.9Z</time></trkpt><trkpt lat="42.223665" lon="14.5628967"><ele>9.000000000000002</ele><time>2026-05-03T09:51:32.9Z</time></trkpt><trkpt lat="42.2237033" lon="14.5628167"><ele>9.0</ele><time>2026-05-03T09:51:34.901Z</time></trkpt><trkpt lat="42.2237483" lon="14.5627267"><ele>7.833333333333333</ele><time>2026-05-03T09:51:36.9Z</time></trkpt><trkpt lat="42.2237883" lon="14.5626433"><ele>6.666666666666667</ele><time>2026-05-03T09:51:38.901Z</time></trkpt><trkpt lat="42.2238283" lon="14.5625583"><ele>5.5</ele><time>2026-05-03T09:51:40.901Z</time></trkpt><trkpt lat="42.2238717" lon="14.562475"><ele>4.333333333333333</ele><time>2026-05-03T09:51:42.9Z</time></trkpt><trkpt lat="42.2239117" lon="14.5623867"><ele>3.1666666666666665</ele><time>2026-05-03T09:51:44.9Z</time></trkpt><trkpt lat="42.22395" lon="14.5622983"><ele>2.0</ele><time>2026-05-03T09:51:46.901Z</time></trkpt><trkpt lat="42.22399" lon="14.5622117"><ele>1.9999999999999998</ele><time>2026-05-03T09:51:48.901Z</time></trkpt><trkpt lat="42.22403" lon="14.5621333"><ele>2.0</ele><time>2026-05-03T09:51:50.901Z</time></trkpt><trkpt lat="42.224075" lon="14.5620467"><ele>2.0</ele><time>2026-05-03T09:51:52.9Z</time></trkpt><trkpt lat="42.2241133" lon="14.5619667"><ele>2.0</ele><time>2026-05-03T09:51:54.901Z</time></trkpt><trkpt lat="42.22415" lon="14.5618817"><ele>1.9999999999999998</ele><time>2026-05-03T09:51:56.901Z</time></trkpt><trkpt lat="42.2241883" lon="14.561795"><ele>2.0</ele><time>2026-05-03T09:51:58.901Z</time></trkpt><trkpt lat="42.2242317" lon="14.5616983"><ele>2.7142857142857144</ele><time>2026-05-03T09:52:00.901Z</time></trkpt><trkpt lat="42.2242667" lon="14.5616133"><ele>3.4285714285714284</ele><time>2026-05-03T09:52:02.901Z</time></trkpt><trkpt lat="42.2243067" lon="14.5615217"><ele>4.142857142857142</ele><time>2026-05-03T09:52:04.901Z</time></trkpt><trkpt lat="42.2243467" lon="14.5614317"><ele>4.857142857142857</ele><time>2026-05-03T09:52:06.901Z</time></trkpt><trkpt lat="42.224385" lon="14.56135"><ele>5.571428571428571</ele><time>2026-05-03T09:52:08.9Z</time></trkpt><trkpt lat="42.2244233" lon="14.5612667"><ele>6.285714285714286</ele><time>2026-05-03T09:52:10.901Z</time></trkpt><trkpt lat="42.224465" lon="14.5611817"><ele>7.0</ele><time>2026-05-03T09:52:12.901Z</time></trkpt><trkpt lat="42.2245067" lon="14.561095"><ele>8.333333333333334</ele><time>2026-05-03T09:52:14.901Z</time></trkpt><trkpt lat="42.224545" lon="14.5610167"><ele>9.666666666666668</ele><time>2026-05-03T09:52:16.9Z</time></trkpt><trkpt lat="42.22458" lon="14.560945"><ele>11.0</ele><time>2026-05-03T09:52:18.901Z</time></trkpt><trkpt lat="42.2246167" lon="14.56085"><ele>12.333333333333334</ele><time>2026-05-03T09:52:21.901Z</time></trkpt><trkpt lat="42.2246533" lon="14.5607333"><ele>13.666666666666666</ele><time>2026-05-03T09:52:24.9Z</time></trkpt><trkpt lat="42.22469" lon="14.5606367"><ele>15.0</ele><time>2026-05-03T09:52:26.9Z</time></trkpt><trkpt lat="42.2247317" lon="14.5605533"><ele>15.0</ele><time>2026-05-03T09:52:28.901Z</time></trkpt><trkpt lat="42.22477" lon="14.5604667"><ele>15.0</ele><time>2026-05-03T09:52:30.901Z</time></trkpt><trkpt lat="42.2248067" lon="14.5603783"><ele>15.0</ele><time>2026-05-03T09:52:32.9Z</time></trkpt><trkpt lat="42.2248433" lon="14.560285"><ele>15.0</ele><time>2026-05-03T09:52:34.9Z</time></trkpt><trkpt lat="42.22488" lon="14.5601967"><ele>15.0</ele><time>2026-05-03T09:52:36.901Z</time></trkpt><trkpt lat="42.2249183" lon="14.5600883"><ele>15.0</ele><time>2026-05-03T09:52:38.901Z</time></trkpt><trkpt lat="42.224955" lon="14.5599867"><ele>14.0</ele><time>2026-05-03T09:52:40.901Z</time></trkpt><trkpt lat="42.2249883" lon="14.5598817"><ele>13.0</ele><time>2026-05-03T09:52:42.901Z</time></trkpt><trkpt lat="42.2250183" lon="14.559785"><ele>12.0</ele><time>2026-05-03T09:52:44.9Z</time></trkpt><trkpt lat="42.2250583" lon="14.559685"><ele>11.0</ele><time>2026-05-03T09:52:46.901Z</time></trkpt><trkpt lat="42.2251083" lon="14.5595767"><ele>10.0</ele><time>2026-05-03T09:52:48.9Z</time></trkpt><trkpt lat="42.2251517" lon="14.5594633"><ele>9.0</ele><time>2026-05-03T09:52:50.9Z</time></trkpt><trkpt lat="42.2251917" lon="14.559355"><ele>9.0</ele><time>2026-05-03T09:52:52.901Z</time></trkpt><trkpt lat="42.2252333" lon="14.5592517"><ele>9.0</ele><time>2026-05-03T09:52:54.901Z</time></trkpt><trkpt lat="42.2252733" lon="14.5591433"><ele>9.0</ele><time>2026-05-03T09:52:56.9Z</time></trkpt><trkpt lat="42.225315" lon="14.55903"><ele>9.0</ele><time>2026-05-03T09:52:58.901Z</time></trkpt><trkpt lat="42.2253567" lon="14.558925"><ele>9.0</ele><time>2026-05-03T09:53:00.901Z</time></trkpt><trkpt lat="42.225405" lon="14.5588033"><ele>9.8</ele><time>2026-05-03T09:53:02.901Z</time></trkpt><trkpt lat="42.2254517" lon="14.558695"><ele>10.600000000000001</ele><time>2026-05-03T09:53:04.901Z</time></trkpt><trkpt lat="42.2254917" lon="14.5585717"><ele>11.4</ele><time>2026-05-03T09:53:06.901Z</time></trkpt><trkpt lat="42.2255333" lon="14.5584567"><ele>12.200000000000001</ele><time>2026-05-03T09:53:08.901Z</time></trkpt><trkpt lat="42.2255783" lon="14.55835"><ele>13.0</ele><time>2026-05-03T09:53:10.901Z</time></trkpt><trkpt lat="42.2256217" lon="14.558245"><ele>12.200000000000001</ele><time>2026-05-03T09:53:12.901Z</time></trkpt><trkpt lat="42.225665" lon="14.5581267"><ele>11.4</ele><time>2026-05-03T09:53:14.9Z</time></trkpt><trkpt lat="42.2257133" lon="14.558005"><ele>10.600000000000001</ele><time>2026-05-03T09:53:16.901Z</time></trkpt><trkpt lat="42.22576" lon="14.557875"><ele>9.8</ele><time>2026-05-03T09:53:18.901Z</time></trkpt><trkpt lat="42.2258017" lon="14.5577517"><ele>9.0</ele><time>2026-05-03T09:53:20.901Z</time></trkpt><trkpt lat="42.22584" lon="14.5576333"><ele>9.0</ele><time>2026-05-03T09:53:22.901Z</time></trkpt><trkpt lat="42.2258833" lon="14.5575067"><ele>9.0</ele><time>2026-05-03T09:53:24.901Z</time></trkpt><trkpt lat="42.2259283" lon="14.5573733"><ele>9.0</ele><time>2026-05-03T09:53:26.901Z</time></trkpt><trkpt lat="42.2259717" lon="14.55726"><ele>9.0</ele><time>2026-05-03T09:53:28.901Z</time></trkpt><trkpt lat="42.226015" lon="14.5571617"><ele>9.0</ele><time>2026-05-03T09:53:30.901Z</time></trkpt><trkpt lat="42.22606" lon="14.557045"><ele>10.4</ele><time>2026-05-03T09:53:32.9Z</time></trkpt><trkpt lat="42.2261067" lon="14.55692"><ele>11.8</ele><time>2026-05-03T09:53:34.901Z</time></trkpt><trkpt lat="42.2261517" lon="14.556815"><ele>13.200000000000001</ele><time>2026-05-03T09:53:36.901Z</time></trkpt><trkpt lat="42.2261983" lon="14.5567117"><ele>14.600000000000001</ele><time>2026-05-03T09:53:38.901Z</time></trkpt><trkpt lat="42.226245" lon="14.5566033"><ele>16.0</ele><time>2026-05-03T09:53:40.901Z</time></trkpt><trkpt lat="42.2262917" lon="14.5564917"><ele>16.0</ele><time>2026-05-03T09:53:42.901Z</time></trkpt><trkpt lat="42.2263333" lon="14.5563783"><ele>16.0</ele><time>2026-05-03T09:53:44.9Z</time></trkpt><trkpt lat="42.2263817" lon="14.5562517"><ele>16.0</ele><time>2026-05-03T09:53:46.901Z</time></trkpt><trkpt lat="42.2264317" lon="14.556135"><ele>16.0</ele><time>2026-05-03T09:53:48.9Z</time></trkpt><trkpt lat="42.22649" lon="14.5560317"><ele>16.0</ele><time>2026-05-03T09:53:50.901Z</time></trkpt><trkpt lat="42.2265433" lon="14.555925"><ele>14.0</ele><time>2026-05-03T09:53:52.901Z</time></trkpt><trkpt lat="42.2265933" lon="14.5558183"><ele>12.000000000000002</ele><time>2026-05-03T09:53:54.901Z</time></trkpt><trkpt lat="42.2266467" lon="14.5557083"><ele>10.0</ele><time>2026-05-03T09:53:56.9Z</time></trkpt><trkpt lat="42.2266967" lon="14.5556067"><ele>8.0</ele><time>2026-05-03T09:53:58.899Z</time></trkpt><trkpt lat="42.2267517" lon="14.555495"><ele>6.0</ele><time>2026-05-03T09:54:00.899Z</time></trkpt><trkpt lat="42.2267933" lon="14.555395"><ele>7.4</ele><time>2026-05-03T09:54:02.9Z</time></trkpt><trkpt lat="42.2268517" lon="14.5552717"><ele>8.8</ele><time>2026-05-03T09:54:04.9Z</time></trkpt><trkpt lat="42.22691" lon="14.5551633"><ele>10.200000000000001</ele><time>2026-05-03T09:54:06.9Z</time></trkpt><trkpt lat="42.226965" lon="14.55506"><ele>11.6</ele><time>2026-05-03T09:54:08.9Z</time></trkpt><trkpt lat="42.2270317" lon="14.5549683"><ele>13.0</ele><time>2026-05-03T09:54:10.899Z</time></trkpt><trkpt lat="42.2270933" lon="14.5548567"><ele>13.0</ele><time>2026-05-03T09:54:12.9Z</time></trkpt><trkpt lat="42.2271617" lon="14.5547433"><ele>13.0</ele><time>2026-05-03T09:54:14.9Z</time></trkpt><trkpt lat="42.2272267" lon="14.5546317"><ele>13.0</ele><time>2026-05-03T09:54:16.9Z</time></trkpt><trkpt lat="42.2272967" lon="14.5545283"><ele>13.0</ele><time>2026-05-03T09:54:18.9Z</time></trkpt><trkpt lat="42.2273683" lon="14.55441"><ele>13.0</ele><time>2026-05-03T09:54:20.9Z</time></trkpt><trkpt lat="42.227435" lon="14.5543067"><ele>11.4</ele><time>2026-05-03T09:54:22.9Z</time></trkpt><trkpt lat="42.227505" lon="14.5542067"><ele>9.8</ele><time>2026-05-03T09:54:24.9Z</time></trkpt><trkpt lat="42.2275467" lon="14.5541383"><ele>8.2</ele><time>2026-05-03T09:54:25.9Z</time></trkpt><trkpt lat="42.227615" lon="14.5540083"><ele>6.6</ele><time>2026-05-03T09:54:27.9Z</time></trkpt><trkpt lat="42.2276867" lon="14.55389"><ele>5.0</ele><time>2026-05-03T09:54:29.9Z</time></trkpt><trkpt lat="42.2277517" lon="14.553785"><ele>6.166666666666667</ele><time>2026-05-03T09:54:31.9Z</time></trkpt><trkpt lat="42.2278167" lon="14.5536817"><ele>7.333333333333334</ele><time>2026-05-03T09:54:33.899Z</time></trkpt><trkpt lat="42.22788" lon="14.5535783"><ele>8.5</ele><time>2026-05-03T09:54:35.899Z</time></trkpt><trkpt lat="42.2279383" lon="14.5534933"><ele>9.666666666666666</ele><time>2026-05-03T09:54:37.9Z</time></trkpt><trkpt lat="42.2279833" lon="14.5534167"><ele>10.833333333333334</ele><time>2026-05-03T09:54:39.9Z</time></trkpt><trkpt lat="42.2280333" lon="14.5533367"><ele>12.0</ele><time>2026-05-03T09:54:41.9Z</time></trkpt><trkpt lat="42.228105" lon="14.5532233"><ele>10.2</ele><time>2026-05-03T09:54:43.9Z</time></trkpt><trkpt lat="42.2281483" lon="14.55315"><ele>8.399999999999999</ele><time>2026-05-03T09:54:44.9Z</time></trkpt><trkpt lat="42.2282217" lon="14.5530283"><ele>6.6</ele><time>2026-05-03T09:54:46.899Z</time></trkpt><trkpt lat="42.2282783" lon="14.5529167"><ele>4.8</ele><time>2026-05-03T09:54:48.9Z</time></trkpt><trkpt lat="42.2283383" lon="14.5528083"><ele>3.0</ele><time>2026-05-03T09:54:50.9Z</time></trkpt><trkpt lat="42.2284033" lon="14.552695"><ele>3.0</ele><time>2026-05-03T09:54:52.9Z</time></trkpt><trkpt lat="42.228465" lon="14.5525917"><ele>3.0</ele><time>2026-05-03T09:54:54.9Z</time></trkpt><trkpt lat="42.2285233" lon="14.5524867"><ele>3.0</ele><time>2026-05-03T09:54:56.9Z</time></trkpt><trkpt lat="42.2285833" lon="14.5523817"><ele>3.0</ele><time>2026-05-03T09:54:58.9Z</time></trkpt><trkpt lat="42.22864" lon="14.5522767"><ele>3.0</ele><time>2026-05-03T09:55:00.899Z</time></trkpt><trkpt lat="42.2287" lon="14.5521667"><ele>3.0</ele><time>2026-05-03T09:55:02.9Z</time></trkpt><trkpt lat="42.2287583" lon="14.5520617"><ele>3.0</ele><time>2026-05-03T09:55:04.9Z</time></trkpt><trkpt lat="42.2288183" lon="14.5519633"><ele>3.0</ele><time>2026-05-03T09:55:06.9Z</time></trkpt><trkpt lat="42.22888" lon="14.551855"><ele>3.0</ele><time>2026-05-03T09:55:08.899Z</time></trkpt><trkpt lat="42.2289433" lon="14.5517483"><ele>3.0</ele><time>2026-05-03T09:55:10.9Z</time></trkpt><trkpt lat="42.2290017" lon="14.551655"><ele>3.4</ele><time>2026-05-03T09:55:12.899Z</time></trkpt><trkpt lat="42.2290633" lon="14.5515567"><ele>3.8</ele><time>2026-05-03T09:55:14.899Z</time></trkpt><trkpt lat="42.2291267" lon="14.5514433"><ele>4.2</ele><time>2026-05-03T09:55:16.9Z</time></trkpt><trkpt lat="42.2291933" lon="14.5513317"><ele>4.6</ele><time>2026-05-03T09:55:18.9Z</time></trkpt><trkpt lat="42.2292567" lon="14.5512233"><ele>5.0</ele><time>2026-05-03T09:55:20.899Z</time></trkpt><trkpt lat="42.2293217" lon="14.5511183"><ele>5.0</ele><time>2026-05-03T09:55:22.9Z</time></trkpt><trkpt lat="42.2293833" lon="14.5510167"><ele>5.0</ele><time>2026-05-03T09:55:24.899Z</time></trkpt><trkpt lat="42.2294433" lon="14.5509133"><ele>5.0</ele><time>2026-05-03T09:55:26.9Z</time></trkpt><trkpt lat="42.2295" lon="14.550805"><ele>5.0</ele><time>2026-05-03T09:55:28.9Z</time></trkpt><trkpt lat="42.22955" lon="14.5506883"><ele>5.0</ele><time>2026-05-03T09:55:30.899Z</time></trkpt><trkpt lat="42.2295917" lon="14.5505733"><ele>5.0</ele><time>2026-05-03T09:55:32.9Z</time></trkpt><trkpt lat="42.2296383" lon="14.55046"><ele>5.0</ele><time>2026-05-03T09:55:34.9Z</time></trkpt><trkpt lat="42.2296867" lon="14.55035"><ele>5.0</ele><time>2026-05-03T09:55:36.9Z</time></trkpt><trkpt lat="42.2297383" lon="14.5502383"><ele>5.0</ele><time>2026-05-03T09:55:38.9Z</time></trkpt><trkpt lat="42.2297967" lon="14.5501317"><ele>5.0</ele><time>2026-05-03T09:55:40.9Z</time></trkpt><trkpt lat="42.2298583" lon="14.55003"><ele>4.8</ele><time>2026-05-03T09:55:42.9Z</time></trkpt><trkpt lat="42.2299233" lon="14.5499267"><ele>4.6</ele><time>2026-05-03T09:55:44.9Z</time></trkpt><trkpt lat="42.2299833" lon="14.54983"><ele>4.4</ele><time>2026-05-03T09:55:46.9Z</time></trkpt><trkpt lat="42.2300417" lon="14.5497283"><ele>4.2</ele><time>2026-05-03T09:55:48.9Z</time></trkpt><trkpt lat="42.2301133" lon="14.549615"><ele>4.0</ele><time>2026-05-03T09:55:50.899Z</time></trkpt><trkpt lat="42.2301817" lon="14.54951"><ele>4.0</ele><time>2026-05-03T09:55:52.9Z</time></trkpt><trkpt lat="42.230245" lon="14.549405"><ele>4.0</ele><time>2026-05-03T09:55:54.899Z</time></trkpt><trkpt lat="42.23031" lon="14.549295"><ele>4.0</ele><time>2026-05-03T09:55:56.9Z</time></trkpt><trkpt lat="42.23037" lon="14.5492017"><ele>4.0</ele><time>2026-05-03T09:55:58.9Z</time></trkpt><trkpt lat="42.230425" lon="14.5490983"><ele>4.0</ele><time>2026-05-03T09:56:00.9Z</time></trkpt><trkpt lat="42.23048" lon="14.5489967"><ele>4.0</ele><time>2026-05-03T09:56:02.9Z</time></trkpt><trkpt lat="42.2305333" lon="14.54891"><ele>4.0</ele><time>2026-05-03T09:56:04.9Z</time></trkpt><trkpt lat="42.2305817" lon="14.54881"><ele>4.0</ele><time>2026-05-03T09:56:06.9Z</time></trkpt><trkpt lat="42.2306333" lon="14.5487017"><ele>4.0</ele><time>2026-05-03T09:56:08.9Z</time></trkpt><trkpt lat="42.230685" lon="14.5486017"><ele>4.0</ele><time>2026-05-03T09:56:10.9Z</time></trkpt><trkpt lat="42.2307433" lon="14.5484967"><ele>3.8000000000000003</ele><time>2026-05-03T09:56:12.9Z</time></trkpt><trkpt lat="42.2308067" lon="14.5484017"><ele>3.6000000000000005</ele><time>2026-05-03T09:56:14.899Z</time></trkpt><trkpt lat="42.2308667" lon="14.5483017"><ele>3.4</ele><time>2026-05-03T09:56:16.9Z</time></trkpt><trkpt lat="42.2309233" lon="14.5482117"><ele>3.2</ele><time>2026-05-03T09:56:18.899Z</time></trkpt><trkpt lat="42.2309817" lon="14.5481117"><ele>3.0</ele><time>2026-05-03T09:56:20.899Z</time></trkpt><trkpt lat="42.231035" lon="14.5480117"><ele>3.0</ele><time>2026-05-03T09:56:22.9Z</time></trkpt><trkpt lat="42.2310917" lon="14.5479133"><ele>3.0</ele><time>2026-05-03T09:56:24.9Z</time></trkpt><trkpt lat="42.23115" lon="14.5478133"><ele>3.0</ele><time>2026-05-03T09:56:26.9Z</time></trkpt><trkpt lat="42.2312133" lon="14.5477083"><ele>3.0</ele><time>2026-05-03T09:56:28.899Z</time></trkpt><trkpt lat="42.2312767" lon="14.5476017"><ele>3.0</ele><time>2026-05-03T09:56:30.899Z</time></trkpt><trkpt lat="42.23134" lon="14.5475"><ele>2.8</ele><time>2026-05-03T09:56:32.9Z</time></trkpt><trkpt lat="42.2314067" lon="14.5473983"><ele>2.5999999999999996</ele><time>2026-05-03T09:56:34.899Z</time></trkpt><trkpt lat="42.2314633" lon="14.547295"><ele>2.4000000000000004</ele><time>2026-05-03T09:56:36.899Z</time></trkpt><trkpt lat="42.23152" lon="14.5471933"><ele>2.2</ele><time>2026-05-03T09:56:38.899Z</time></trkpt><trkpt lat="42.2315733" lon="14.54709"><ele>2.0</ele><time>2026-05-03T09:56:40.899Z</time></trkpt><trkpt lat="42.23163" lon="14.5469867"><ele>2.0</ele><time>2026-05-03T09:56:42.9Z</time></trkpt><trkpt lat="42.23169" lon="14.5468883"><ele>2.0</ele><time>2026-05-03T09:56:44.9Z</time></trkpt><trkpt lat="42.2317517" lon="14.546785"><ele>2.0</ele><time>2026-05-03T09:56:46.9Z</time></trkpt><trkpt lat="42.231815" lon="14.5466817"><ele>2.0</ele><time>2026-05-03T09:56:48.9Z</time></trkpt><trkpt lat="42.2318783" lon="14.5465783"><ele>2.0</ele><time>2026-05-03T09:56:50.899Z</time></trkpt><trkpt lat="42.2319383" lon="14.5464733"><ele>2.0</ele><time>2026-05-03T09:56:52.9Z</time></trkpt><trkpt lat="42.2319967" lon="14.5463767"><ele>2.0</ele><time>2026-05-03T09:56:54.899Z</time></trkpt><trkpt lat="42.2320567" lon="14.5462783"><ele>2.0</ele><time>2026-05-03T09:56:56.899Z</time></trkpt><trkpt lat="42.2321217" lon="14.5461717"><ele>2.0</ele><time>2026-05-03T09:56:58.9Z</time></trkpt><trkpt lat="42.232185" lon="14.5460733"><ele>2.0</ele><time>2026-05-03T09:57:00.9Z</time></trkpt><trkpt lat="42.2322433" lon="14.54597"><ele>2.0</ele><time>2026-05-03T09:57:02.9Z</time></trkpt><trkpt lat="42.2323017" lon="14.5458633"><ele>2.0</ele><time>2026-05-03T09:57:04.899Z</time></trkpt><trkpt lat="42.2323617" lon="14.54576"><ele>2.0</ele><time>2026-05-03T09:57:06.9Z</time></trkpt><trkpt lat="42.232425" lon="14.54565"><ele>2.0</ele><time>2026-05-03T09:57:08.9Z</time></trkpt><trkpt lat="42.2324867" lon="14.54553"><ele>2.0</ele><time>2026-05-03T09:57:10.9Z</time></trkpt><trkpt lat="42.2325517" lon="14.5454217"><ele>2.6</ele><time>2026-05-03T09:57:12.9Z</time></trkpt><trkpt lat="42.2326133" lon="14.5453167"><ele>3.2</ele><time>2026-05-03T09:57:14.9Z</time></trkpt><trkpt lat="42.232675" lon="14.54521"><ele>3.8</ele><time>2026-05-03T09:57:16.9Z</time></trkpt><trkpt lat="42.2327417" lon="14.5451033"><ele>4.4</ele><time>2026-05-03T09:57:18.899Z</time></trkpt><trkpt lat="42.2327983" lon="14.5449967"><ele>5.0</ele><time>2026-05-03T09:57:20.9Z</time></trkpt><trkpt lat="42.2328517" lon="14.5448917"><ele>5.0</ele><time>2026-05-03T09:57:22.9Z</time></trkpt><trkpt lat="42.232905" lon="14.5447933"><ele>5.0</ele><time>2026-05-03T09:57:24.9Z</time></trkpt><trkpt lat="42.2329633" lon="14.5446883"><ele>5.0</ele><time>2026-05-03T09:57:26.899Z</time></trkpt><trkpt lat="42.2330183" lon="14.5445867"><ele>5.0</ele><time>2026-05-03T09:57:28.9Z</time></trkpt><trkpt lat="42.2330683" lon="14.54449"><ele>5.0</ele><time>2026-05-03T09:57:30.899Z</time></trkpt><trkpt lat="42.2331183" lon="14.5443867"><ele>4.8</ele><time>2026-05-03T09:57:32.899Z</time></trkpt><trkpt lat="42.2331667" lon="14.5442767"><ele>4.6</ele><time>2026-05-03T09:57:34.899Z</time></trkpt><trkpt lat="42.233215" lon="14.54418"><ele>4.4</ele><time>2026-05-03T09:57:36.899Z</time></trkpt><trkpt lat="42.2332617" lon="14.5440717"><ele>4.2</ele><time>2026-05-03T09:57:38.899Z</time></trkpt><trkpt lat="42.233315" lon="14.5439517"><ele>4.0</ele><time>2026-05-03T09:57:40.9Z</time></trkpt><trkpt lat="42.233355" lon="14.5438517"><ele>3.9999999999999996</ele><time>2026-05-03T09:57:42.899Z</time></trkpt><trkpt lat="42.2334017" lon="14.5437533"><ele>4.0</ele><time>2026-05-03T09:57:44.9Z</time></trkpt><trkpt lat="42.2334467" lon="14.5436583"><ele>4.0</ele><time>2026-05-03T09:57:46.9Z</time></trkpt><trkpt lat="42.23348" lon="14.5435733"><ele>4.0</ele><time>2026-05-03T09:57:48.9Z</time></trkpt><trkpt lat="42.23351" lon="14.5434933"><ele>3.9999999999999996</ele><time>2026-05-03T09:57:50.9Z</time></trkpt><trkpt lat="42.2335417" lon="14.5434133"><ele>4.0</ele><time>2026-05-03T09:57:52.9Z</time></trkpt><trkpt lat="42.2335617" lon="14.5433117"><ele>5.166666666666666</ele><time>2026-05-03T09:57:54.9Z</time></trkpt><trkpt lat="42.233575" lon="14.5432"><ele>6.333333333333333</ele><time>2026-05-03T09:57:56.9Z</time></trkpt><trkpt lat="42.233595" lon="14.543085"><ele>7.5</ele><time>2026-05-03T09:57:58.9Z</time></trkpt><trkpt lat="42.2336333" lon="14.5429867"><ele>8.666666666666666</ele><time>2026-05-03T09:58:00.899Z</time></trkpt><trkpt lat="42.2336767" lon="14.5429017"><ele>9.833333333333332</ele><time>2026-05-03T09:58:02.899Z</time></trkpt><trkpt lat="42.2337233" lon="14.5427883"><ele>11.0</ele><time>2026-05-03T09:58:04.9Z</time></trkpt><trkpt lat="42.233775" lon="14.5426717"><ele>9.4</ele><time>2026-05-03T09:58:06.9Z</time></trkpt><trkpt lat="42.2338317" lon="14.54256"><ele>7.800000000000001</ele><time>2026-05-03T09:58:08.9Z</time></trkpt><trkpt lat="42.23388" lon="14.542445"><ele>6.2</ele><time>2026-05-03T09:58:10.9Z</time></trkpt><trkpt lat="42.2339267" lon="14.54233"><ele>4.6</ele><time>2026-05-03T09:58:12.9Z</time></trkpt><trkpt lat="42.233965" lon="14.5422267"><ele>3.0</ele><time>2026-05-03T09:58:14.899Z</time></trkpt><trkpt lat="42.234" lon="14.5421267"><ele>3.1666666666666665</ele><time>2026-05-03T09:58:16.9Z</time></trkpt><trkpt lat="42.2340433" lon="14.5420333"><ele>3.333333333333333</ele><time>2026-05-03T09:58:18.9Z</time></trkpt><trkpt lat="42.23409" lon="14.5419267"><ele>3.5</ele><time>2026-05-03T09:58:20.899Z</time></trkpt><trkpt lat="42.2341317" lon="14.5418233"><ele>3.6666666666666665</ele><time>2026-05-03T09:58:22.9Z</time></trkpt><trkpt lat="42.2341517" lon="14.541705"><ele>3.833333333333333</ele><time>2026-05-03T09:58:24.9Z</time></trkpt><trkpt lat="42.234145" lon="14.5416033"><ele>4.0</ele><time>2026-05-03T09:58:26.9Z</time></trkpt><trkpt lat="42.23409" lon="14.5415267"><ele>3.9999999999999996</ele><time>2026-05-03T09:58:29.9Z</time></trkpt><trkpt lat="42.2340133" lon="14.5414667"><ele>4.0</ele><time>2026-05-03T09:58:32.899Z</time></trkpt><trkpt lat="42.2339633" lon="14.5413983"><ele>4.0</ele><time>2026-05-03T09:58:34.899Z</time></trkpt><trkpt lat="42.23392" lon="14.5413333"><ele>4.0</ele><time>2026-05-03T09:58:36.9Z</time></trkpt><trkpt lat="42.2338767" lon="14.54126"><ele>3.9999999999999996</ele><time>2026-05-03T09:58:38.899Z</time></trkpt><trkpt lat="42.2338083" lon="14.5411867"><ele>4.0</ele><time>2026-05-03T09:58:40.9Z</time></trkpt><trkpt lat="42.2337783" lon="14.5411033"><ele>5.5</ele><time>2026-05-03T09:58:42.899Z</time></trkpt><trkpt lat="42.233755" lon="14.5410183"><ele>7.0</ele><time>2026-05-03T09:58:44.899Z</time></trkpt><trkpt lat="42.2337083" lon="14.5409467"><ele>8.5</ele><time>2026-05-03T09:58:47.899Z</time></trkpt><trkpt lat="42.233645" lon="14.54089"><ele>10.0</ele><time>2026-05-03T09:58:50.9Z</time></trkpt><trkpt lat="42.233605" lon="14.5408"><ele>11.499999999999998</ele><time>2026-05-03T09:58:53.899Z</time></trkpt><trkpt lat="42.2335617" lon="14.5406883"><ele>13.0</ele><time>2026-05-03T09:58:56.899Z</time></trkpt><trkpt lat="42.2335167" lon="14.5406233"><ele>13.0</ele><time>2026-05-03T09:58:58.899Z</time></trkpt><trkpt lat="42.23344" lon="14.54055"><ele>13.0</ele><time>2026-05-03T09:59:01.899Z</time></trkpt><trkpt lat="42.2333933" lon="14.54049"><ele>13.0</ele><time>2026-05-03T09:59:03.9Z</time></trkpt><trkpt lat="42.2333383" lon="14.5404267"><ele>13.0</ele><time>2026-05-03T09:59:05.9Z</time></trkpt><trkpt lat="42.2332817" lon="14.5403833"><ele>13.0</ele><time>2026-05-03T09:59:07.9Z</time></trkpt><trkpt lat="42.23321" lon="14.5403417"><ele>13.0</ele><time>2026-05-03T09:59:10.9Z</time></trkpt><trkpt lat="42.23317" lon="14.5402667"><ele>13.0</ele><time>2026-05-03T09:59:13.9Z</time></trkpt><trkpt lat="42.2331417" lon="14.5401717"><ele>13.142857142857142</ele><time>2026-05-03T09:59:16.899Z</time></trkpt><trkpt lat="42.2331083" lon="14.5400867"><ele>13.285714285714286</ele><time>2026-05-03T09:59:18.899Z</time></trkpt><trkpt lat="42.2330717" lon="14.54001"><ele>13.428571428571429</ele><time>2026-05-03T09:59:20.9Z</time></trkpt><trkpt lat="42.233035" lon="14.5399283"><ele>13.571428571428571</ele><time>2026-05-03T09:59:22.9Z</time></trkpt><trkpt lat="42.2329933" lon="14.5398367"><ele>13.714285714285715</ele><time>2026-05-03T09:59:24.9Z</time></trkpt><trkpt lat="42.232945" lon="14.5397533"><ele>13.857142857142858</ele><time>2026-05-03T09:59:27.9Z</time></trkpt><trkpt lat="42.232905" lon="14.539685"><ele>14.0</ele><time>2026-05-03T09:59:31.9Z</time></trkpt><trkpt lat="42.2328483" lon="14.539635"><ele>14.0</ele><time>2026-05-03T09:59:37.899Z</time></trkpt><trkpt lat="42.2327967" lon="14.5396933"><ele>14.0</ele><time>2026-05-03T09:59:56.9Z</time></trkpt><trkpt lat="42.232865" lon="14.539715"><ele>14.0</ele><time>2026-05-03T10:00:17.9Z</time></trkpt><trkpt lat="42.2329067" lon="14.539795"><ele>14.0</ele><time>2026-05-03T10:00:22.899Z</time></trkpt><trkpt lat="42.2329133" lon="14.5399017"><ele>14.0</ele><time>2026-05-03T10:00:27.9Z</time></trkpt><trkpt lat="42.23294" lon="14.53999"><ele>14.0</ele><time>2026-05-03T10:00:30.9Z</time></trkpt><trkpt lat="42.23298" lon="14.5400583"><ele>14.0</ele><time>2026-05-03T10:00:32.9Z</time></trkpt><trkpt lat="42.2330517" lon="14.5401367"><ele>14.000000000000002</ele><time>2026-05-03T10:00:34.9Z</time></trkpt><trkpt lat="42.2331067" lon="14.5401983"><ele>14.0</ele><time>2026-05-03T10:00:36.899Z</time></trkpt><trkpt lat="42.233175" lon="14.5402733"><ele>14.0</ele><time>2026-05-03T10:00:39.899Z</time></trkpt><trkpt lat="42.2332483" lon="14.54033"><ele>14.0</ele><time>2026-05-03T10:00:42.9Z</time></trkpt><trkpt lat="42.2333033" lon="14.54038"><ele>14.000000000000002</ele><time>2026-05-03T10:00:44.9Z</time></trkpt><trkpt lat="42.2333483" lon="14.540455"><ele>14.0</ele><time>2026-05-03T10:00:46.9Z</time></trkpt><trkpt lat="42.2334033" lon="14.540515"><ele>13.833333333333334</ele><time>2026-05-03T10:00:48.9Z</time></trkpt><trkpt lat="42.2334667" lon="14.5405817"><ele>13.666666666666668</ele><time>2026-05-03T10:00:50.9Z</time></trkpt><trkpt lat="42.2335183" lon="14.54064"><ele>13.5</ele><time>2026-05-03T10:00:52.899Z</time></trkpt><trkpt lat="42.2335867" lon="14.5407267"><ele>13.333333333333332</ele><time>2026-05-03T10:00:54.9Z</time></trkpt><trkpt lat="42.2336417" lon="14.54082"><ele>13.166666666666666</ele><time>2026-05-03T10:00:56.9Z</time></trkpt><trkpt lat="42.2336667" lon="14.5408983"><ele>13.0</ele><time>2026-05-03T10:00:59.899Z</time></trkpt><trkpt lat="42.2336983" lon="14.541"><ele>13.0</ele><time>2026-05-03T10:01:03.899Z</time></trkpt><trkpt lat="42.2337633" lon="14.5410917"><ele>13.0</ele><time>2026-05-03T10:01:06.899Z</time></trkpt><trkpt lat="42.23382" lon="14.5411733"><ele>13.0</ele><time>2026-05-03T10:01:08.899Z</time></trkpt><trkpt lat="42.233885" lon="14.54126"><ele>13.0</ele><time>2026-05-03T10:01:10.9Z</time></trkpt><trkpt lat="42.2339633" lon="14.5413533"><ele>13.0</ele><time>2026-05-03T10:01:12.899Z</time></trkpt><trkpt lat="42.2340333" lon="14.54146"><ele>11.499999999999998</ele><time>2026-05-03T10:01:14.899Z</time></trkpt><trkpt lat="42.2340967" lon="14.541565"><ele>10.0</ele><time>2026-05-03T10:01:16.9Z</time></trkpt><trkpt lat="42.2341117" lon="14.5416833"><ele>8.5</ele><time>2026-05-03T10:01:19.899Z</time></trkpt><trkpt lat="42.23408" lon="14.5417583"><ele>7.0</ele><time>2026-05-03T10:01:21.9Z</time></trkpt><trkpt lat="42.2340383" lon="14.5418333"><ele>5.5</ele><time>2026-05-03T10:01:23.9Z</time></trkpt><trkpt lat="42.2339967" lon="14.5419133"><ele>4.0</ele><time>2026-05-03T10:01:25.899Z</time></trkpt><trkpt lat="42.233955" lon="14.5419917"><ele>7.0</ele><time>2026-05-03T10:01:27.899Z</time></trkpt><trkpt lat="42.233925" lon="14.5420767"><ele>10.0</ele><time>2026-05-03T10:01:29.9Z</time></trkpt><trkpt lat="42.23389" lon="14.5421667"><ele>13.0</ele><time>2026-05-03T10:01:31.899Z</time></trkpt><trkpt lat="42.2338583" lon="14.54226"><ele>16.0</ele><time>2026-05-03T10:01:33.9Z</time></trkpt><trkpt lat="42.2338317" lon="14.5423633"><ele>19.0</ele><time>2026-05-03T10:01:35.899Z</time></trkpt><trkpt lat="42.2338017" lon="14.5424567"><ele>22.0</ele><time>2026-05-03T10:01:37.899Z</time></trkpt><trkpt lat="42.2337567" lon="14.5425417"><ele>22.0</ele><time>2026-05-03T10:01:39.899Z</time></trkpt><trkpt lat="42.233715" lon="14.54262"><ele>22.0</ele><time>2026-05-03T10:01:41.899Z</time></trkpt><trkpt lat="42.2336717" lon="14.5426983"><ele>22.0</ele><time>2026-05-03T10:01:43.9Z</time></trkpt><trkpt lat="42.2336367" lon="14.5427767"><ele>22.0</ele><time>2026-05-03T10:01:45.9Z</time></trkpt><trkpt lat="42.2336133" lon="14.5428583"><ele>22.0</ele><time>2026-05-03T10:01:47.899Z</time></trkpt><trkpt lat="42.2335833" lon="14.5429467"><ele>22.0</ele><time>2026-05-03T10:01:49.9Z</time></trkpt><trkpt lat="42.23355" lon="14.5430483"><ele>22.0</ele><time>2026-05-03T10:01:51.9Z</time></trkpt><trkpt lat="42.2335117" lon="14.5431417"><ele>20.42857142857143</ele><time>2026-05-03T10:01:53.9Z</time></trkpt><trkpt lat="42.233465" lon="14.5432217"><ele>18.857142857142858</ele><time>2026-05-03T10:01:55.9Z</time></trkpt><trkpt lat="42.2334217" lon="14.5433017"><ele>17.285714285714285</ele><time>2026-05-03T10:01:57.9Z</time></trkpt><trkpt lat="42.2333767" lon="14.543375"><ele>15.714285714285715</ele><time>2026-05-03T10:01:59.9Z</time></trkpt><trkpt lat="42.2333267" lon="14.5434367"><ele>14.142857142857142</ele><time>2026-05-03T10:02:01.899Z</time></trkpt><trkpt lat="42.2332783" lon="14.5434983"><ele>12.571428571428571</ele><time>2026-05-03T10:02:03.9Z</time></trkpt><trkpt lat="42.2332317" lon="14.5435567"><ele>11.0</ele><time>2026-05-03T10:02:05.9Z</time></trkpt><trkpt lat="42.2331667" lon="14.5436083"><ele>11.0</ele><time>2026-05-03T10:02:08.9Z</time></trkpt><trkpt lat="42.233175" lon="14.5435"><ele>11.0</ele><time>2026-05-03T10:02:14.9Z</time></trkpt><trkpt lat="42.2332317" lon="14.5433967"><ele>11.0</ele><time>2026-05-03T10:02:17.899Z</time></trkpt><trkpt lat="42.2332683" lon="14.543325"><ele>11.0</ele><time>2026-05-03T10:02:19.9Z</time></trkpt><trkpt lat="42.23331" lon="14.5432567"><ele>11.0</ele><time>2026-05-03T10:02:21.899Z</time></trkpt><trkpt lat="42.2333483" lon="14.543175"><ele>11.0</ele><time>2026-05-03T10:02:23.899Z</time></trkpt><trkpt lat="42.2333933" lon="14.5430967"><ele>11.0</ele><time>2026-05-03T10:02:25.9Z</time></trkpt><trkpt lat="42.2334383" lon="14.5430217"><ele>11.0</ele><time>2026-05-03T10:02:27.9Z</time></trkpt><trkpt lat="42.2334883" lon="14.5429417"><ele>11.0</ele><time>2026-05-03T10:02:29.9Z</time></trkpt><trkpt lat="42.2335367" lon="14.5428583"><ele>11.0</ele><time>2026-05-03T10:02:31.899Z</time></trkpt><trkpt lat="42.23359" lon="14.5427667"><ele>11.0</ele><time>2026-05-03T10:02:33.9Z</time></trkpt><trkpt lat="42.2336317" lon="14.5426767"><ele>11.0</ele><time>2026-05-03T10:02:35.9Z</time></trkpt><trkpt lat="42.2336667" lon="14.5425633"><ele>13.200000000000001</ele><time>2026-05-03T10:02:37.899Z</time></trkpt><trkpt lat="42.233705" lon="14.5424367"><ele>15.400000000000002</ele><time>2026-05-03T10:02:39.899Z</time></trkpt><trkpt lat="42.2337433" lon="14.542325"><ele>17.6</ele><time>2026-05-03T10:02:41.899Z</time></trkpt><trkpt lat="42.233785" lon="14.5422133"><ele>19.8</ele><time>2026-05-03T10:02:43.9Z</time></trkpt><trkpt lat="42.2338267" lon="14.5420983"><ele>22.0</ele><time>2026-05-03T10:02:45.9Z</time></trkpt><trkpt lat="42.2338683" lon="14.541965"><ele>22.333333333333332</ele><time>2026-05-03T10:02:47.9Z</time></trkpt><trkpt lat="42.2338783" lon="14.5418183"><ele>22.666666666666664</ele><time>2026-05-03T10:02:49.899Z</time></trkpt><trkpt lat="42.2338267" lon="14.541725"><ele>23.0</ele><time>2026-05-03T10:02:51.899Z</time></trkpt><trkpt lat="42.2337717" lon="14.54165"><ele>23.333333333333332</ele><time>2026-05-03T10:02:53.9Z</time></trkpt><trkpt lat="42.2337217" lon="14.541575"><ele>23.666666666666668</ele><time>2026-05-03T10:02:55.9Z</time></trkpt><trkpt lat="42.23367" lon="14.541495"><ele>24.0</ele><time>2026-05-03T10:02:57.9Z</time></trkpt><trkpt lat="42.233615" lon="14.5414233"><ele>24.0</ele><time>2026-05-03T10:02:59.9Z</time></trkpt><trkpt lat="42.2335667" lon="14.5413633"><ele>24.0</ele><time>2026-05-03T10:03:01.9Z</time></trkpt><trkpt lat="42.2334967" lon="14.54129"><ele>24.0</ele><time>2026-05-03T10:03:04.899Z</time></trkpt><trkpt lat="42.2334433" lon="14.5412233"><ele>24.0</ele><time>2026-05-03T10:03:07.899Z</time></trkpt><trkpt lat="42.2333667" lon="14.5411683"><ele>24.0</ele><time>2026-05-03T10:03:10.9Z</time></trkpt><trkpt lat="42.2332817" lon="14.54113"><ele>24.0</ele><time>2026-05-03T10:03:13.899Z</time></trkpt><trkpt lat="42.23319" lon="14.5411"><ele>24.142857142857142</ele><time>2026-05-03T10:03:15.9Z</time></trkpt><trkpt lat="42.23313" lon="14.54105"><ele>24.285714285714285</ele><time>2026-05-03T10:03:17.899Z</time></trkpt><trkpt lat="42.2330683" lon="14.5410067"><ele>24.42857142857143</ele><time>2026-05-03T10:03:19.899Z</time></trkpt><trkpt lat="42.2329867" lon="14.540965"><ele>24.57142857142857</ele><time>2026-05-03T10:03:21.9Z</time></trkpt><trkpt lat="42.23292" lon="14.54093"><ele>24.714285714285715</ele><time>2026-05-03T10:03:23.9Z</time></trkpt><trkpt lat="42.2328533" lon="14.5409067"><ele>24.857142857142858</ele><time>2026-05-03T10:03:25.9Z</time></trkpt><trkpt lat="42.2327883" lon="14.5408933"><ele>25.0</ele><time>2026-05-03T10:03:27.899Z</time></trkpt><trkpt lat="42.2327233" lon="14.5408833"><ele>25.000000000000004</ele><time>2026-05-03T10:03:29.899Z</time></trkpt><trkpt lat="42.2326383" lon="14.54087"><ele>25.0</ele><time>2026-05-03T10:03:31.9Z</time></trkpt><trkpt lat="42.2325517" lon="14.5408617"><ele>25.0</ele><time>2026-05-03T10:03:33.899Z</time></trkpt><trkpt lat="42.23246" lon="14.5408433"><ele>25.0</ele><time>2026-05-03T10:03:35.899Z</time></trkpt><trkpt lat="42.2323767" lon="14.5408083"><ele>25.000000000000004</ele><time>2026-05-03T10:03:37.899Z</time></trkpt><trkpt lat="42.2323017" lon="14.54077"><ele>25.0</ele><time>2026-05-03T10:03:39.899Z</time></trkpt><trkpt lat="42.2322317" lon="14.54073"><ele>26.166666666666668</ele><time>2026-05-03T10:03:41.9Z</time></trkpt><trkpt lat="42.232165" lon="14.5406717"><ele>27.333333333333336</ele><time>2026-05-03T10:03:43.9Z</time></trkpt><trkpt lat="42.2321" lon="14.54061"><ele>28.5</ele><time>2026-05-03T10:03:45.899Z</time></trkpt><trkpt lat="42.23204" lon="14.54054"><ele>29.666666666666664</ele><time>2026-05-03T10:03:47.9Z</time></trkpt><trkpt lat="42.2319783" lon="14.540465"><ele>30.833333333333332</ele><time>2026-05-03T10:03:49.9Z</time></trkpt><trkpt lat="42.23193" lon="14.5403833"><ele>32.0</ele><time>2026-05-03T10:03:51.9Z</time></trkpt><trkpt lat="42.2319083" lon="14.5402933"><ele>32.0</ele><time>2026-05-03T10:03:53.899Z</time></trkpt><trkpt lat="42.2319" lon="14.5401917"><ele>31.999999999999996</ele><time>2026-05-03T10:03:55.899Z</time></trkpt><trkpt lat="42.2318817" lon="14.5400783"><ele>32.0</ele><time>2026-05-03T10:03:58.899Z</time></trkpt><trkpt lat="42.2318767" lon="14.53997"><ele>32.0</ele><time>2026-05-03T10:04:01.899Z</time></trkpt><trkpt lat="42.2318667" lon="14.539885"><ele>31.999999999999996</ele><time>2026-05-03T10:04:03.9Z</time></trkpt><trkpt lat="42.2318633" lon="14.5397933"><ele>32.0</ele><time>2026-05-03T10:04:05.899Z</time></trkpt><trkpt lat="42.2318517" lon="14.5396967"><ele>32.0</ele><time>2026-05-03T10:04:07.9Z</time></trkpt><trkpt lat="42.231825" lon="14.539595"><ele>30.333333333333332</ele><time>2026-05-03T10:04:09.9Z</time></trkpt><trkpt lat="42.2318" lon="14.5395033"><ele>28.666666666666664</ele><time>2026-05-03T10:04:11.899Z</time></trkpt><trkpt lat="42.2317617" lon="14.53942"><ele>27.0</ele><time>2026-05-03T10:04:13.899Z</time></trkpt><trkpt lat="42.2317167" lon="14.5393417"><ele>25.333333333333332</ele><time>2026-05-03T10:04:15.9Z</time></trkpt><trkpt lat="42.23166" lon="14.5392583"><ele>23.666666666666664</ele><time>2026-05-03T10:04:17.9Z</time></trkpt><trkpt lat="42.2315967" lon="14.53917"><ele>22.0</ele><time>2026-05-03T10:04:19.899Z</time></trkpt><trkpt lat="42.23154" lon="14.5390867"><ele>22.0</ele><time>2026-05-03T10:04:21.899Z</time></trkpt><trkpt lat="42.2314867" lon="14.53902"><ele>22.0</ele><time>2026-05-03T10:04:23.899Z</time></trkpt><trkpt lat="42.231425" lon="14.5389567"><ele>22.0</ele><time>2026-05-03T10:04:25.899Z</time></trkpt><trkpt lat="42.2313567" lon="14.5388983"><ele>22.0</ele><time>2026-05-03T10:04:27.899Z</time></trkpt><trkpt lat="42.2312917" lon="14.5388283"><ele>22.0</ele><time>2026-05-03T10:04:29.898Z</time></trkpt><trkpt lat="42.23122" lon="14.5387733"><ele>22.0</ele><time>2026-05-03T10:04:31.899Z</time></trkpt><trkpt lat="42.2311483" lon="14.5387233"><ele>21.714285714285715</ele><time>2026-05-03T10:04:33.898Z</time></trkpt><trkpt lat="42.23108" lon="14.5386733"><ele>21.428571428571427</ele><time>2026-05-03T10:04:35.899Z</time></trkpt><trkpt lat="42.2310133" lon="14.5386333"><ele>21.142857142857142</ele><time>2026-05-03T10:04:37.899Z</time></trkpt><trkpt lat="42.230945" lon="14.5386017"><ele>20.857142857142858</ele><time>2026-05-03T10:04:39.899Z</time></trkpt><trkpt lat="42.230885" lon="14.5385667"><ele>20.571428571428573</ele><time>2026-05-03T10:04:41.898Z</time></trkpt><trkpt lat="42.2308133" lon="14.5385417"><ele>20.285714285714285</ele><time>2026-05-03T10:04:43.899Z</time></trkpt><trkpt lat="42.2307483" lon="14.5385217"><ele>20.0</ele><time>2026-05-03T10:04:45.899Z</time></trkpt><trkpt lat="42.230655" lon="14.53849"><ele>21.428571428571427</ele><time>2026-05-03T10:04:48.898Z</time></trkpt><trkpt lat="42.2305867" lon="14.538465"><ele>22.857142857142858</ele><time>2026-05-03T10:04:50.899Z</time></trkpt><trkpt lat="42.2305183" lon="14.5384367"><ele>24.285714285714285</ele><time>2026-05-03T10:04:52.898Z</time></trkpt><trkpt lat="42.2304483" lon="14.53841"><ele>25.714285714285715</ele><time>2026-05-03T10:04:54.899Z</time></trkpt><trkpt lat="42.230385" lon="14.53839"><ele>27.142857142857142</ele><time>2026-05-03T10:04:56.898Z</time></trkpt><trkpt lat="42.2303183" lon="14.5383567"><ele>28.571428571428573</ele><time>2026-05-03T10:04:58.898Z</time></trkpt><trkpt lat="42.2302467" lon="14.538325"><ele>30.0</ele><time>2026-05-03T10:05:00.898Z</time></trkpt><trkpt lat="42.2301733" lon="14.5382967"><ele>30.0</ele><time>2026-05-03T10:05:02.899Z</time></trkpt><trkpt lat="42.2301033" lon="14.53827"><ele>30.0</ele><time>2026-05-03T10:05:04.898Z</time></trkpt><trkpt lat="42.2300367" lon="14.5382367"><ele>30.0</ele><time>2026-05-03T10:05:06.898Z</time></trkpt><trkpt lat="42.2299733" lon="14.5381983"><ele>30.0</ele><time>2026-05-03T10:05:08.899Z</time></trkpt><trkpt lat="42.229895" lon="14.538165"><ele>30.0</ele><time>2026-05-03T10:05:10.899Z</time></trkpt><trkpt lat="42.2298133" lon="14.5381367"><ele>30.0</ele><time>2026-05-03T10:05:12.899Z</time></trkpt><trkpt lat="42.22973" lon="14.538125"><ele>31.0</ele><time>2026-05-03T10:05:14.899Z</time></trkpt><trkpt lat="42.229645" lon="14.538125"><ele>32.0</ele><time>2026-05-03T10:05:16.899Z</time></trkpt><trkpt lat="42.2295633" lon="14.5381333"><ele>33.0</ele><time>2026-05-03T10:05:18.899Z</time></trkpt><trkpt lat="42.2294917" lon="14.5381667"><ele>34.0</ele><time>2026-05-03T10:05:20.899Z</time></trkpt><trkpt lat="42.2294283" lon="14.5382"><ele>35.0</ele><time>2026-05-03T10:05:22.899Z</time></trkpt><trkpt lat="42.2293533" lon="14.5382317"><ele>36.0</ele><time>2026-05-03T10:05:24.898Z</time></trkpt><trkpt lat="42.229295" lon="14.5382783"><ele>36.0</ele><time>2026-05-03T10:05:26.899Z</time></trkpt><trkpt lat="42.2292133" lon="14.5383167"><ele>36.0</ele><time>2026-05-03T10:05:29.898Z</time></trkpt><trkpt lat="42.2291383" lon="14.538335"><ele>36.0</ele><time>2026-05-03T10:05:32.898Z</time></trkpt><trkpt lat="42.2290567" lon="14.5383283"><ele>36.0</ele><time>2026-05-03T10:05:35.898Z</time></trkpt><trkpt lat="42.2289983" lon="14.53829"><ele>36.0</ele><time>2026-05-03T10:05:38.899Z</time></trkpt><trkpt lat="42.228935" lon="14.538235"><ele>36.0</ele><time>2026-05-03T10:05:41.898Z</time></trkpt><trkpt lat="42.2288683" lon="14.5381433"><ele>36.166666666666664</ele><time>2026-05-03T10:05:44.898Z</time></trkpt><trkpt lat="42.2288033" lon="14.538085"><ele>36.333333333333336</ele><time>2026-05-03T10:05:46.898Z</time></trkpt><trkpt lat="42.228725" lon="14.5380333"><ele>36.5</ele><time>2026-05-03T10:05:48.899Z</time></trkpt><trkpt lat="42.2286533" lon="14.5379783"><ele>36.66666666666667</ele><time>2026-05-03T10:05:50.898Z</time></trkpt><trkpt lat="42.2285833" lon="14.5379233"><ele>36.833333333333336</ele><time>2026-05-03T10:05:52.899Z</time></trkpt><trkpt lat="42.22852" lon="14.5378633"><ele>37.0</ele><time>2026-05-03T10:05:54.898Z</time></trkpt><trkpt lat="42.2284483" lon="14.5378067"><ele>37.0</ele><time>2026-05-03T10:05:56.899Z</time></trkpt><trkpt lat="42.22837" lon="14.5377483"><ele>37.0</ele><time>2026-05-03T10:05:58.898Z</time></trkpt><trkpt lat="42.2282967" lon="14.5376883"><ele>37.0</ele><time>2026-05-03T10:06:00.899Z</time></trkpt><trkpt lat="42.2282117" lon="14.5376383"><ele>37.0</ele><time>2026-05-03T10:06:02.898Z</time></trkpt><trkpt lat="42.228115" lon="14.5376"><ele>37.0</ele><time>2026-05-03T10:06:04.899Z</time></trkpt><trkpt lat="42.2280333" lon="14.537565"><ele>38.16666666666667</ele><time>2026-05-03T10:06:06.899Z</time></trkpt><trkpt lat="42.2279483" lon="14.5375333"><ele>39.333333333333336</ele><time>2026-05-03T10:06:08.898Z</time></trkpt><trkpt lat="42.2278733" lon="14.5375017"><ele>40.5</ele><time>2026-05-03T10:06:10.899Z</time></trkpt><trkpt lat="42.2277933" lon="14.5374783"><ele>41.666666666666664</ele><time>2026-05-03T10:06:12.898Z</time></trkpt><trkpt lat="42.2277033" lon="14.53745"><ele>42.83333333333333</ele><time>2026-05-03T10:06:15.899Z</time></trkpt><trkpt lat="42.2276117" lon="14.5374267"><ele>44.0</ele><time>2026-05-03T10:06:18.899Z</time></trkpt><trkpt lat="42.2275483" lon="14.53741"><ele>44.0</ele><time>2026-05-03T10:06:20.898Z</time></trkpt><trkpt lat="42.2274917" lon="14.53737"><ele>44.0</ele><time>2026-05-03T10:06:22.898Z</time></trkpt><trkpt lat="42.227425" lon="14.53734"><ele>44.0</ele><time>2026-05-03T10:06:24.898Z</time></trkpt><trkpt lat="42.2273617" lon="14.5373083"><ele>44.0</ele><time>2026-05-03T10:06:26.898Z</time></trkpt><trkpt lat="42.227295" lon="14.5372633"><ele>44.0</ele><time>2026-05-03T10:06:28.899Z</time></trkpt><trkpt lat="42.2272317" lon="14.5372183"><ele>44.0</ele><time>2026-05-03T10:06:30.899Z</time></trkpt><trkpt lat="42.227155" lon="14.5371933"><ele>44.0</ele><time>2026-05-03T10:06:32.899Z</time></trkpt><trkpt lat="42.227085" lon="14.5371667"><ele>44.5</ele><time>2026-05-03T10:06:34.898Z</time></trkpt><trkpt lat="42.2270117" lon="14.537135"><ele>45.0</ele><time>2026-05-03T10:06:36.899Z</time></trkpt><trkpt lat="42.22694" lon="14.5371033"><ele>45.5</ele><time>2026-05-03T10:06:38.899Z</time></trkpt><trkpt lat="42.2268683" lon="14.5370783"><ele>46.0</ele><time>2026-05-03T10:06:40.898Z</time></trkpt><trkpt lat="42.2267717" lon="14.53706"><ele>46.5</ele><time>2026-05-03T10:06:43.899Z</time></trkpt><trkpt lat="42.226685" lon="14.5370717"><ele>47.0</ele><time>2026-05-03T10:06:45.899Z</time></trkpt><trkpt lat="42.2265833" lon="14.5370967"><ele>47.0</ele><time>2026-05-03T10:06:47.899Z</time></trkpt><trkpt lat="42.2265" lon="14.5371283"><ele>47.0</ele><time>2026-05-03T10:06:49.898Z</time></trkpt><trkpt lat="42.22642" lon="14.5371783"><ele>47.0</ele><time>2026-05-03T10:06:51.899Z</time></trkpt><trkpt lat="42.2263517" lon="14.5372333"><ele>47.0</ele><time>2026-05-03T10:06:53.898Z</time></trkpt><trkpt lat="42.226275" lon="14.5372867"><ele>47.0</ele><time>2026-05-03T10:06:55.899Z</time></trkpt><trkpt lat="42.2262" lon="14.5373433"><ele>47.0</ele><time>2026-05-03T10:06:57.899Z</time></trkpt><trkpt lat="42.226125" lon="14.5373833"><ele>47.14285714285714</ele><time>2026-05-03T10:06:59.899Z</time></trkpt><trkpt lat="42.2260517" lon="14.5374183"><ele>47.285714285714285</ele><time>2026-05-03T10:07:01.899Z</time></trkpt><trkpt lat="42.2259817" lon="14.5374367"><ele>47.42857142857143</ele><time>2026-05-03T10:07:03.899Z</time></trkpt><trkpt lat="42.225915" lon="14.5374583"><ele>47.57142857142857</ele><time>2026-05-03T10:07:05.899Z</time></trkpt><trkpt lat="42.2258483" lon="14.53748"><ele>47.714285714285715</ele><time>2026-05-03T10:07:07.898Z</time></trkpt><trkpt lat="42.2257817" lon="14.5375"><ele>47.857142857142854</ele><time>2026-05-03T10:07:10.899Z</time></trkpt><trkpt lat="42.2258617" lon="14.53747"><ele>48.0</ele><time>2026-05-03T10:07:20.899Z</time></trkpt><trkpt lat="42.2259267" lon="14.5374067"><ele>47.99999999999999</ele><time>2026-05-03T10:07:23.899Z</time></trkpt><trkpt lat="42.2259683" lon="14.5373217"><ele>48.0</ele><time>2026-05-03T10:07:25.899Z</time></trkpt><trkpt lat="42.2260033" lon="14.5372283"><ele>48.0</ele><time>2026-05-03T10:07:27.899Z</time></trkpt><trkpt lat="42.2260367" lon="14.53715"><ele>48.0</ele><time>2026-05-03T10:07:29.899Z</time></trkpt><trkpt lat="42.2260667" lon="14.5370617"><ele>48.0</ele><time>2026-05-03T10:07:31.898Z</time></trkpt><trkpt lat="42.2260917" lon="14.5369667"><ele>47.99999999999999</ele><time>2026-05-03T10:07:33.898Z</time></trkpt><trkpt lat="42.226145" lon="14.5368817"><ele>48.0</ele><time>2026-05-03T10:07:35.899Z</time></trkpt><trkpt lat="42.2262067" lon="14.5368017"><ele>46.199999999999996</ele><time>2026-05-03T10:07:37.899Z</time></trkpt><trkpt lat="42.2262667" lon="14.53674"><ele>44.4</ele><time>2026-05-03T10:07:39.899Z</time></trkpt><trkpt lat="42.2263467" lon="14.536665"><ele>42.599999999999994</ele><time>2026-05-03T10:07:41.898Z</time></trkpt><trkpt lat="42.2264333" lon="14.5365833"><ele>40.8</ele><time>2026-05-03T10:07:43.899Z</time></trkpt><trkpt lat="42.2265117" lon="14.5364817"><ele>39.0</ele><time>2026-05-03T10:07:45.898Z</time></trkpt><trkpt lat="42.2265933" lon="14.53639"><ele>39.0</ele><time>2026-05-03T10:07:47.899Z</time></trkpt><trkpt lat="42.2266583" lon="14.5363017"><ele>39.0</ele><time>2026-05-03T10:07:49.899Z</time></trkpt><trkpt lat="42.2267117" lon="14.5362217"><ele>39.0</ele><time>2026-05-03T10:07:51.899Z</time></trkpt><trkpt lat="42.22678" lon="14.5361183"><ele>39.0</ele><time>2026-05-03T10:07:53.899Z</time></trkpt><trkpt lat="42.2268667" lon="14.5360217"><ele>39.0</ele><time>2026-05-03T10:07:55.899Z</time></trkpt><trkpt lat="42.2269467" lon="14.5359167"><ele>37.4</ele><time>2026-05-03T10:07:57.898Z</time></trkpt><trkpt lat="42.22704" lon="14.53581"><ele>35.8</ele><time>2026-05-03T10:07:59.899Z</time></trkpt><trkpt lat="42.227145" lon="14.5357433"><ele>34.2</ele><time>2026-05-03T10:08:01.899Z</time></trkpt><trkpt lat="42.2272567" lon="14.5357067"><ele>32.6</ele><time>2026-05-03T10:08:03.899Z</time></trkpt><trkpt lat="42.2273233" lon="14.5356967"><ele>31.0</ele><time>2026-05-03T10:08:04.899Z</time></trkpt><trkpt lat="42.22743" lon="14.5356767"><ele>29.200000000000003</ele><time>2026-05-03T10:08:06.899Z</time></trkpt><trkpt lat="42.2275283" lon="14.5356683"><ele>27.400000000000002</ele><time>2026-05-03T10:08:08.899Z</time></trkpt><trkpt lat="42.2276317" lon="14.53566"><ele>25.6</ele><time>2026-05-03T10:08:10.899Z</time></trkpt><trkpt lat="42.2277517" lon="14.53567"><ele>23.8</ele><time>2026-05-03T10:08:12.899Z</time></trkpt><trkpt lat="42.227875" lon="14.535685"><ele>22.0</ele><time>2026-05-03T10:08:14.898Z</time></trkpt><trkpt lat="42.2280017" lon="14.535695"><ele>22.0</ele><time>2026-05-03T10:08:16.899Z</time></trkpt><trkpt lat="42.2280967" lon="14.5356717"><ele>22.0</ele><time>2026-05-03T10:08:18.899Z</time></trkpt><trkpt lat="42.2281767" lon="14.535595"><ele>22.0</ele><time>2026-05-03T10:08:20.899Z</time></trkpt><trkpt lat="42.228255" lon="14.5354833"><ele>22.0</ele><time>2026-05-03T10:08:22.899Z</time></trkpt><trkpt lat="42.2283283" lon="14.5353833"><ele>22.0</ele><time>2026-05-03T10:08:24.899Z</time></trkpt><trkpt lat="42.228395" lon="14.5352917"><ele>18.8</ele><time>2026-05-03T10:08:26.898Z</time></trkpt><trkpt lat="42.2284617" lon="14.5352183"><ele>15.600000000000001</ele><time>2026-05-03T10:08:28.899Z</time></trkpt><trkpt lat="42.22854" lon="14.53516"><ele>12.4</ele><time>2026-05-03T10:08:30.899Z</time></trkpt><trkpt lat="42.22864" lon="14.53509"><ele>9.2</ele><time>2026-05-03T10:08:32.899Z</time></trkpt><trkpt lat="42.2287333" lon="14.53501"><ele>6.0</ele><time>2026-05-03T10:08:34.899Z</time></trkpt><trkpt lat="42.22881" lon="14.534955"><ele>6.0</ele><time>2026-05-03T10:08:36.899Z</time></trkpt><trkpt lat="42.2288833" lon="14.5349317"><ele>6.0</ele><time>2026-05-03T10:08:38.899Z</time></trkpt><trkpt lat="42.228965" lon="14.5349967"><ele>6.0</ele><time>2026-05-03T10:08:41.898Z</time></trkpt><trkpt lat="42.229025" lon="14.5350617"><ele>6.0</ele><time>2026-05-03T10:08:43.899Z</time></trkpt><trkpt lat="42.2290983" lon="14.5351217"><ele>6.0</ele><time>2026-05-03T10:08:45.898Z</time></trkpt><trkpt lat="42.2291567" lon="14.5351867"><ele>6.0</ele><time>2026-05-03T10:08:47.899Z</time></trkpt><trkpt lat="42.2292167" lon="14.5352583"><ele>6.166666666666667</ele><time>2026-05-03T10:08:49.899Z</time></trkpt><trkpt lat="42.2292717" lon="14.5353233"><ele>6.333333333333334</ele><time>2026-05-03T10:08:51.898Z</time></trkpt><trkpt lat="42.2293183" lon="14.5354183"><ele>6.5</ele><time>2026-05-03T10:08:54.898Z</time></trkpt><trkpt lat="42.2293417" lon="14.5355167"><ele>6.666666666666667</ele><time>2026-05-03T10:08:56.899Z</time></trkpt><trkpt lat="42.2293667" lon="14.5356317"><ele>6.833333333333334</ele><time>2026-05-03T10:08:58.899Z</time></trkpt><trkpt lat="42.2294" lon="14.535745"><ele>7.0</ele><time>2026-05-03T10:09:01.899Z</time></trkpt><trkpt lat="42.2294617" lon="14.5358617"><ele>7.000000000000001</ele><time>2026-05-03T10:09:03.898Z</time></trkpt><trkpt lat="42.229505" lon="14.53596"><ele>7.0</ele><time>2026-05-03T10:09:05.899Z</time></trkpt><trkpt lat="42.2295533" lon="14.53605"><ele>7.0</ele><time>2026-05-03T10:09:07.898Z</time></trkpt><trkpt lat="42.2296067" lon="14.5361483"><ele>7.0</ele><time>2026-05-03T10:09:09.898Z</time></trkpt><trkpt lat="42.229675" lon="14.5362417"><ele>7.000000000000001</ele><time>2026-05-03T10:09:11.899Z</time></trkpt><trkpt lat="42.2297417" lon="14.53631"><ele>7.0</ele><time>2026-05-03T10:09:13.898Z</time></trkpt><trkpt lat="42.2297917" lon="14.5363833"><ele>7.6</ele><time>2026-05-03T10:09:15.899Z</time></trkpt><trkpt lat="42.22986" lon="14.5364667"><ele>8.2</ele><time>2026-05-03T10:09:17.899Z</time></trkpt><trkpt lat="42.2299317" lon="14.53655"><ele>8.8</ele><time>2026-05-03T10:09:19.899Z</time></trkpt><trkpt lat="42.2299967" lon="14.53663"><ele>9.4</ele><time>2026-05-03T10:09:21.899Z</time></trkpt><trkpt lat="42.2300583" lon="14.5367167"><ele>10.0</ele><time>2026-05-03T10:09:23.898Z</time></trkpt><trkpt lat="42.2301133" lon="14.5368117"><ele>10.0</ele><time>2026-05-03T10:09:25.899Z</time></trkpt><trkpt lat="42.230165" lon="14.5369033"><ele>10.0</ele><time>2026-05-03T10:09:27.899Z</time></trkpt><trkpt lat="42.2302183" lon="14.536995"><ele>10.0</ele><time>2026-05-03T10:09:29.899Z</time></trkpt><trkpt lat="42.2302667" lon="14.5370717"><ele>10.0</ele><time>2026-05-03T10:09:31.899Z</time></trkpt><trkpt lat="42.2303067" lon="14.5371433"><ele>10.0</ele><time>2026-05-03T10:09:33.899Z</time></trkpt><trkpt lat="42.2303433" lon="14.5372167"><ele>10.0</ele><time>2026-05-03T10:09:35.898Z</time></trkpt><trkpt lat="42.23039" lon="14.5373"><ele>10.166666666666668</ele><time>2026-05-03T10:09:37.899Z</time></trkpt><trkpt lat="42.2304417" lon="14.5373983"><ele>10.333333333333334</ele><time>2026-05-03T10:09:40.899Z</time></trkpt><trkpt lat="42.2304733" lon="14.5374817"><ele>10.5</ele><time>2026-05-03T10:09:43.898Z</time></trkpt><trkpt lat="42.2305167" lon="14.537565"><ele>10.666666666666666</ele><time>2026-05-03T10:09:46.899Z</time></trkpt><trkpt lat="42.23056" lon="14.5376433"><ele>10.833333333333332</ele><time>2026-05-03T10:09:48.899Z</time></trkpt><trkpt lat="42.2306117" lon="14.537725"><ele>11.0</ele><time>2026-05-03T10:09:50.899Z</time></trkpt><trkpt lat="42.2306617" lon="14.5377933"><ele>11.0</ele><time>2026-05-03T10:09:52.899Z</time></trkpt><trkpt lat="42.2307117" lon="14.5378567"><ele>11.0</ele><time>2026-05-03T10:09:54.898Z</time></trkpt><trkpt lat="42.2307733" lon="14.5379233"><ele>11.0</ele><time>2026-05-03T10:09:57.899Z</time></trkpt><trkpt lat="42.230835" lon="14.5379733"><ele>11.0</ele><time>2026-05-03T10:10:00.899Z</time></trkpt><trkpt lat="42.2309083" lon="14.53802"><ele>11.0</ele><time>2026-05-03T10:10:04.898Z</time></trkpt><trkpt lat="42.2309783" lon="14.5380533"><ele>11.0</ele><time>2026-05-03T10:10:07.898Z</time></trkpt><trkpt lat="42.231035" lon="14.5381183"><ele>11.0</ele><time>2026-05-03T10:10:10.899Z</time></trkpt><trkpt lat="42.2310967" lon="14.5381817"><ele>11.0</ele><time>2026-05-03T10:10:13.898Z</time></trkpt><trkpt lat="42.2311567" lon="14.5381417"><ele>11.0</ele><time>2026-05-03T10:10:18.899Z</time></trkpt><trkpt lat="42.2312067" lon="14.5380567"><ele>11.0</ele><time>2026-05-03T10:10:21.899Z</time></trkpt><trkpt lat="42.23124" lon="14.5379367"><ele>11.0</ele><time>2026-05-03T10:10:24.899Z</time></trkpt><trkpt lat="42.231265" lon="14.5378433"><ele>11.0</ele><time>2026-05-03T10:10:27.899Z</time></trkpt><trkpt lat="42.2312967" lon="14.5377283"><ele>11.0</ele><time>2026-05-03T10:10:30.899Z</time></trkpt><trkpt lat="42.2313233" lon="14.5376383"><ele>11.0</ele><time>2026-05-03T10:10:32.899Z</time></trkpt><trkpt lat="42.231365" lon="14.5375633"><ele>11.0</ele><time>2026-05-03T10:10:34.898Z</time></trkpt><trkpt lat="42.2314217" lon="14.5375033"><ele>11.0</ele><time>2026-05-03T10:10:36.899Z</time></trkpt><trkpt lat="42.231485" lon="14.5374367"><ele>11.0</ele><time>2026-05-03T10:10:38.898Z</time></trkpt><trkpt lat="42.2315383" lon="14.5373833"><ele>11.0</ele><time>2026-05-03T10:10:40.898Z</time></trkpt><trkpt lat="42.231605" lon="14.5373583"><ele>11.0</ele><time>2026-05-03T10:10:43.898Z</time></trkpt><trkpt lat="42.2316867" lon="14.5374133"><ele>11.0</ele><time>2026-05-03T10:10:46.898Z</time></trkpt><trkpt lat="42.2316967" lon="14.537515"><ele>10.857142857142858</ele><time>2026-05-03T10:10:50.899Z</time></trkpt><trkpt lat="42.2316967" lon="14.5376167"><ele>10.714285714285714</ele><time>2026-05-03T10:10:54.899Z</time></trkpt><trkpt lat="42.2317417" lon="14.537715"><ele>10.571428571428571</ele><time>2026-05-03T10:10:57.898Z</time></trkpt><trkpt lat="42.2317833" lon="14.5377917"><ele>10.428571428571429</ele><time>2026-05-03T10:11:00.899Z</time></trkpt><trkpt lat="42.2318167" lon="14.5378783"><ele>10.285714285714286</ele><time>2026-05-03T10:11:04.899Z</time></trkpt><trkpt lat="42.231875" lon="14.5379383"><ele>10.142857142857142</ele><time>2026-05-03T10:11:08.899Z</time></trkpt><trkpt lat="42.231915" lon="14.5380083"><ele>10.0</ele><time>2026-05-03T10:11:16.899Z</time></trkpt><trkpt lat="42.23197" lon="14.538115"><ele>10.0</ele><time>2026-05-03T10:11:25.899Z</time></trkpt><trkpt lat="42.2319533" lon="14.5380067"><ele>10.0</ele><time>2026-05-03T10:11:50.898Z</time></trkpt><trkpt lat="42.2318967" lon="14.5379117"><ele>10.0</ele><time>2026-05-03T10:11:53.899Z</time></trkpt><trkpt lat="42.2318717" lon="14.5378267"><ele>10.0</ele><time>2026-05-03T10:11:56.898Z</time></trkpt><trkpt lat="42.2318583" lon="14.537725"><ele>10.0</ele><time>2026-05-03T10:11:59.899Z</time></trkpt><trkpt lat="42.2318483" lon="14.5376017"><ele>10.0</ele><time>2026-05-03T10:12:02.899Z</time></trkpt><trkpt lat="42.231815" lon="14.5375117"><ele>9.833333333333334</ele><time>2026-05-03T10:12:04.898Z</time></trkpt><trkpt lat="42.2317733" lon="14.5374417"><ele>9.666666666666668</ele><time>2026-05-03T10:12:06.899Z</time></trkpt><trkpt lat="42.23173" lon="14.537355"><ele>9.5</ele><time>2026-05-03T10:12:08.899Z</time></trkpt><trkpt lat="42.23166" lon="14.5372933"><ele>9.333333333333334</ele><time>2026-05-03T10:12:11.899Z</time></trkpt><trkpt lat="42.2315883" lon="14.5372967"><ele>9.166666666666666</ele><time>2026-05-03T10:12:15.899Z</time></trkpt><trkpt lat="42.2314983" lon="14.5373367"><ele>9.0</ele><time>2026-05-03T10:12:18.899Z</time></trkpt><trkpt lat="42.2314283" lon="14.5374167"><ele>9.333333333333334</ele><time>2026-05-03T10:12:21.899Z</time></trkpt><trkpt lat="42.2313783" lon="14.5374883"><ele>9.666666666666666</ele><time>2026-05-03T10:12:24.899Z</time></trkpt><trkpt lat="42.2313333" lon="14.53757"><ele>10.0</ele><time>2026-05-03T10:12:27.899Z</time></trkpt><trkpt lat="42.2312967" lon="14.537645"><ele>10.333333333333332</ele><time>2026-05-03T10:12:29.898Z</time></trkpt><trkpt lat="42.23126" lon="14.5377183"><ele>10.666666666666666</ele><time>2026-05-03T10:12:31.899Z</time></trkpt><trkpt lat="42.2312017" lon="14.53782"><ele>11.0</ele><time>2026-05-03T10:12:34.899Z</time></trkpt><trkpt lat="42.2311633" lon="14.5379233"><ele>12.285714285714286</ele><time>2026-05-03T10:12:37.899Z</time></trkpt><trkpt lat="42.23115" lon="14.5380117"><ele>13.571428571428571</ele><time>2026-05-03T10:12:40.898Z</time></trkpt><trkpt lat="42.2311333" lon="14.5380983"><ele>14.857142857142858</ele><time>2026-05-03T10:12:47.898Z</time></trkpt><trkpt lat="42.2311783" lon="14.5381667"><ele>16.142857142857142</ele><time>2026-05-03T10:12:53.898Z</time></trkpt><trkpt lat="42.2312233" lon="14.53824"><ele>17.42857142857143</ele><time>2026-05-03T10:12:57.899Z</time></trkpt><trkpt lat="42.2312983" lon="14.5383017"><ele>18.714285714285715</ele><time>2026-05-03T10:13:01.899Z</time></trkpt><trkpt lat="42.2313583" lon="14.5383833"><ele>20.0</ele><time>2026-05-03T10:13:05.898Z</time></trkpt><trkpt lat="42.231415" lon="14.5384367"><ele>20.0</ele><time>2026-05-03T10:13:12.899Z</time></trkpt><trkpt lat="42.2314583" lon="14.5385917"><ele>20.0</ele><time>2026-05-03T10:13:26.899Z</time></trkpt><trkpt lat="42.231445" lon="14.5384933"><ele>20.0</ele><time>2026-05-03T10:14:57.902Z</time></trkpt><trkpt lat="42.2314" lon="14.5384083"><ele>20.0</ele><time>2026-05-03T10:15:01.901Z</time></trkpt><trkpt lat="42.2313367" lon="14.5383317"><ele>20.0</ele><time>2026-05-03T10:15:06.902Z</time></trkpt><trkpt lat="42.231285" lon="14.5382733"><ele>20.0</ele><time>2026-05-03T10:15:08.902Z</time></trkpt><trkpt lat="42.2312333" lon="14.538215"><ele>20.0</ele><time>2026-05-03T10:15:10.902Z</time></trkpt><trkpt lat="42.2311733" lon="14.53816"><ele>20.0</ele><time>2026-05-03T10:15:12.902Z</time></trkpt><trkpt lat="42.2311233" lon="14.5380933"><ele>20.0</ele><time>2026-05-03T10:15:14.902Z</time></trkpt><trkpt lat="42.2310767" lon="14.538035"><ele>20.0</ele><time>2026-05-03T10:15:16.901Z</time></trkpt><trkpt lat="42.2310167" lon="14.53798"><ele>20.0</ele><time>2026-05-03T10:15:18.901Z</time></trkpt><trkpt lat="42.23096" lon="14.5379283"><ele>20.0</ele><time>2026-05-03T10:15:20.902Z</time></trkpt><trkpt lat="42.2308917" lon="14.53788"><ele>20.0</ele><time>2026-05-03T10:15:22.902Z</time></trkpt><trkpt lat="42.2307967" lon="14.5378217"><ele>19.166666666666668</ele><time>2026-05-03T10:15:24.902Z</time></trkpt><trkpt lat="42.2307267" lon="14.537765"><ele>18.333333333333336</ele><time>2026-05-03T10:15:26.901Z</time></trkpt><trkpt lat="42.2306717" lon="14.537695"><ele>17.5</ele><time>2026-05-03T10:15:28.902Z</time></trkpt><trkpt lat="42.2306167" lon="14.5376283"><ele>16.666666666666668</ele><time>2026-05-03T10:15:30.901Z</time></trkpt><trkpt lat="42.2305683" lon="14.5375383"><ele>15.833333333333334</ele><time>2026-05-03T10:15:32.902Z</time></trkpt><trkpt lat="42.230515" lon="14.5374267"><ele>15.0</ele><time>2026-05-03T10:15:34.901Z</time></trkpt><trkpt lat="42.230445" lon="14.5373117"><ele>15.0</ele><time>2026-05-03T10:15:36.902Z</time></trkpt><trkpt lat="42.230375" lon="14.5371883"><ele>15.0</ele><time>2026-05-03T10:15:38.902Z</time></trkpt><trkpt lat="42.23031" lon="14.537075"><ele>15.0</ele><time>2026-05-03T10:15:40.901Z</time></trkpt><trkpt lat="42.2302583" lon="14.536955"><ele>15.0</ele><time>2026-05-03T10:15:42.901Z</time></trkpt><trkpt lat="42.230195" lon="14.5368333"><ele>15.0</ele><time>2026-05-03T10:15:44.902Z</time></trkpt><trkpt lat="42.2301283" lon="14.536725"><ele>15.0</ele><time>2026-05-03T10:15:46.901Z</time></trkpt><trkpt lat="42.23006" lon="14.5366367"><ele>15.0</ele><time>2026-05-03T10:15:48.902Z</time></trkpt><trkpt lat="42.229995" lon="14.5365533"><ele>15.0</ele><time>2026-05-03T10:15:50.901Z</time></trkpt><trkpt lat="42.2299217" lon="14.5364783"><ele>15.0</ele><time>2026-05-03T10:15:52.902Z</time></trkpt><trkpt lat="42.2298567" lon="14.536405"><ele>15.0</ele><time>2026-05-03T10:15:54.901Z</time></trkpt><trkpt lat="42.2297983" lon="14.5363217"><ele>15.0</ele><time>2026-05-03T10:15:56.901Z</time></trkpt><trkpt lat="42.2297433" lon="14.53625"><ele>13.666666666666666</ele><time>2026-05-03T10:15:58.901Z</time></trkpt><trkpt lat="42.2296967" lon="14.5361767"><ele>12.333333333333334</ele><time>2026-05-03T10:16:00.902Z</time></trkpt><trkpt lat="42.22964" lon="14.5360917"><ele>11.0</ele><time>2026-05-03T10:16:02.902Z</time></trkpt><trkpt lat="42.2295867" lon="14.536"><ele>9.666666666666668</ele><time>2026-05-03T10:16:04.902Z</time></trkpt><trkpt lat="42.22954" lon="14.535905"><ele>8.333333333333334</ele><time>2026-05-03T10:16:06.901Z</time></trkpt><trkpt lat="42.2295067" lon="14.5358217"><ele>7.0</ele><time>2026-05-03T10:16:08.901Z</time></trkpt><trkpt lat="42.2294483" lon="14.53574"><ele>7.0</ele><time>2026-05-03T10:16:10.901Z</time></trkpt><trkpt lat="42.2294117" lon="14.535605"><ele>6.999999999999999</ele><time>2026-05-03T10:16:12.901Z</time></trkpt><trkpt lat="42.2293833" lon="14.5354667"><ele>6.999999999999999</ele><time>2026-05-03T10:16:14.902Z</time></trkpt><trkpt lat="42.2293433" lon="14.535345"><ele>7.0</ele><time>2026-05-03T10:16:16.901Z</time></trkpt><trkpt lat="42.2292917" lon="14.5352517"><ele>7.0</ele><time>2026-05-03T10:16:18.902Z</time></trkpt><trkpt lat="42.2292233" lon="14.5351783"><ele>7.000000000000001</ele><time>2026-05-03T10:16:20.901Z</time></trkpt><trkpt lat="42.2291517" lon="14.5351083"><ele>7.0</ele><time>2026-05-03T10:16:22.901Z</time></trkpt><trkpt lat="42.229075" lon="14.535035"><ele>7.0</ele><time>2026-05-03T10:16:24.902Z</time></trkpt><trkpt lat="42.2289883" lon="14.5349533"><ele>7.0</ele><time>2026-05-03T10:16:26.902Z</time></trkpt><trkpt lat="42.2289217" lon="14.534885"><ele>7.000000000000001</ele><time>2026-05-03T10:16:28.902Z</time></trkpt><trkpt lat="42.22886" lon="14.5348567"><ele>7.0</ele><time>2026-05-03T10:16:30.901Z</time></trkpt><trkpt lat="42.228775" lon="14.5349083"><ele>6.833333333333334</ele><time>2026-05-03T10:16:33.901Z</time></trkpt><trkpt lat="42.2287083" lon="14.53498"><ele>6.666666666666667</ele><time>2026-05-03T10:16:36.902Z</time></trkpt><trkpt lat="42.2286317" lon="14.5350283"><ele>6.5</ele><time>2026-05-03T10:16:39.902Z</time></trkpt><trkpt lat="42.2285517" lon="14.5350783"><ele>6.333333333333334</ele><time>2026-05-03T10:16:42.902Z</time></trkpt><trkpt lat="42.2284867" lon="14.5351417"><ele>6.166666666666667</ele><time>2026-05-03T10:16:45.902Z</time></trkpt><trkpt lat="42.2284267" lon="14.535195"><ele>6.0</ele><time>2026-05-03T10:16:47.902Z</time></trkpt><trkpt lat="42.2283717" lon="14.5352483"><ele>6.0</ele><time>2026-05-03T10:16:49.901Z</time></trkpt><trkpt lat="42.2283067" lon="14.535305"><ele>6.0</ele><time>2026-05-03T10:16:51.902Z</time></trkpt><trkpt lat="42.2282433" lon="14.5353783"><ele>6.0</ele><time>2026-05-03T10:16:53.901Z</time></trkpt><trkpt lat="42.22819" lon="14.5354467"><ele>6.0</ele><time>2026-05-03T10:16:55.902Z</time></trkpt><trkpt lat="42.2281483" lon="14.5355383"><ele>6.0</ele><time>2026-05-03T10:16:57.902Z</time></trkpt><trkpt lat="42.2280817" lon="14.5356017"><ele>6.0</ele><time>2026-05-03T10:17:00.902Z</time></trkpt><trkpt lat="42.2280083" lon="14.535605"><ele>8.666666666666666</ele><time>2026-05-03T10:17:03.902Z</time></trkpt><trkpt lat="42.2279417" lon="14.5356017"><ele>11.333333333333332</ele><time>2026-05-03T10:17:06.902Z</time></trkpt><trkpt lat="42.2278667" lon="14.535595"><ele>14.0</ele><time>2026-05-03T10:17:09.902Z</time></trkpt><trkpt lat="42.227795" lon="14.5355833"><ele>16.666666666666664</ele><time>2026-05-03T10:17:12.902Z</time></trkpt><trkpt lat="42.2277033" lon="14.5355733"><ele>19.333333333333332</ele><time>2026-05-03T10:17:15.901Z</time></trkpt><trkpt lat="42.2276167" lon="14.53558"><ele>22.0</ele><time>2026-05-03T10:17:18.902Z</time></trkpt><trkpt lat="42.22753" lon="14.5355883"><ele>22.0</ele><time>2026-05-03T10:17:21.901Z</time></trkpt><trkpt lat="42.2274617" lon="14.5355967"><ele>22.0</ele><time>2026-05-03T10:17:23.901Z</time></trkpt><trkpt lat="42.22736" lon="14.53562"><ele>22.0</ele><time>2026-05-03T10:17:25.902Z</time></trkpt><trkpt lat="42.2272617" lon="14.5356467"><ele>22.0</ele><time>2026-05-03T10:17:27.901Z</time></trkpt><trkpt lat="42.2271983" lon="14.53568"><ele>22.0</ele><time>2026-05-03T10:17:29.902Z</time></trkpt><trkpt lat="42.2271233" lon="14.5357267"><ele>22.0</ele><time>2026-05-03T10:17:32.902Z</time></trkpt><trkpt lat="42.2270433" lon="14.5357467"><ele>23.5</ele><time>2026-05-03T10:17:35.901Z</time></trkpt><trkpt lat="42.2269667" lon="14.5357883"><ele>25.0</ele><time>2026-05-03T10:17:38.901Z</time></trkpt><trkpt lat="42.2268783" lon="14.535845"><ele>26.5</ele><time>2026-05-03T10:17:41.901Z</time></trkpt><trkpt lat="42.2268167" lon="14.5358917"><ele>28.0</ele><time>2026-05-03T10:17:44.902Z</time></trkpt><trkpt lat="42.2267483" lon="14.53596"><ele>29.500000000000004</ele><time>2026-05-03T10:17:47.902Z</time></trkpt><trkpt lat="42.2266967" lon="14.5360133"><ele>31.0</ele><time>2026-05-03T10:17:50.902Z</time></trkpt><trkpt lat="42.226645" lon="14.5360633"><ele>31.000000000000004</ele><time>2026-05-03T10:17:53.902Z</time></trkpt><trkpt lat="42.2265833" lon="14.5361217"><ele>31.0</ele><time>2026-05-03T10:17:57.902Z</time></trkpt><trkpt lat="42.226525" lon="14.5361667"><ele>31.0</ele><time>2026-05-03T10:18:01.902Z</time></trkpt><trkpt lat="42.226465" lon="14.53622"><ele>31.0</ele><time>2026-05-03T10:18:06.902Z</time></trkpt><trkpt lat="42.22639" lon="14.5362567"><ele>31.000000000000004</ele><time>2026-05-03T10:18:10.902Z</time></trkpt><trkpt lat="42.22632" lon="14.5363217"><ele>31.0</ele><time>2026-05-03T10:18:13.902Z</time></trkpt><trkpt lat="42.226265" lon="14.5363817"><ele>31.857142857142858</ele><time>2026-05-03T10:18:15.902Z</time></trkpt><trkpt lat="42.2262117" lon="14.5364317"><ele>32.714285714285715</ele><time>2026-05-03T10:18:17.901Z</time></trkpt><trkpt lat="42.2261533" lon="14.5364983"><ele>33.57142857142857</ele><time>2026-05-03T10:18:20.902Z</time></trkpt><trkpt lat="42.2260933" lon="14.5365883"><ele>34.42857142857143</ele><time>2026-05-03T10:18:23.902Z</time></trkpt><trkpt lat="42.226045" lon="14.536655"><ele>35.285714285714285</ele><time>2026-05-03T10:18:26.901Z</time></trkpt><trkpt lat="42.226015" lon="14.536735"><ele>36.142857142857146</ele><time>2026-05-03T10:18:29.901Z</time></trkpt><trkpt lat="42.2259867" lon="14.5368267"><ele>37.0</ele><time>2026-05-03T10:18:32.901Z</time></trkpt><trkpt lat="42.2259617" lon="14.536915"><ele>37.0</ele><time>2026-05-03T10:18:35.902Z</time></trkpt><trkpt lat="42.2259383" lon="14.53701"><ele>37.0</ele><time>2026-05-03T10:18:38.901Z</time></trkpt><trkpt lat="42.2259017" lon="14.5371083"><ele>37.0</ele><time>2026-05-03T10:18:43.902Z</time></trkpt><trkpt lat="42.2258583" lon="14.5371933"><ele>37.0</ele><time>2026-05-03T10:18:47.901Z</time></trkpt><trkpt lat="42.22583" lon="14.5372833"><ele>37.0</ele><time>2026-05-03T10:18:50.902Z</time></trkpt><trkpt lat="42.2257917" lon="14.5373833"><ele>37.0</ele><time>2026-05-03T10:18:54.902Z</time></trkpt><trkpt lat="42.2257267" lon="14.5374467"><ele>38.833333333333336</ele><time>2026-05-03T10:18:57.901Z</time></trkpt><trkpt lat="42.2256567" lon="14.5375033"><ele>40.66666666666667</ele><time>2026-05-03T10:19:00.901Z</time></trkpt><trkpt lat="42.2255817" lon="14.5375633"><ele>42.5</ele><time>2026-05-03T10:19:03.902Z</time></trkpt><trkpt lat="42.22552" lon="14.537615"><ele>44.333333333333336</ele><time>2026-05-03T10:19:06.902Z</time></trkpt><trkpt lat="42.225455" lon="14.5376617"><ele>46.166666666666664</ele><time>2026-05-03T10:19:09.902Z</time></trkpt><trkpt lat="42.2253933" lon="14.53772"><ele>48.0</ele><time>2026-05-03T10:19:12.902Z</time></trkpt><trkpt lat="42.2253267" lon="14.5377867"><ele>48.57142857142857</ele><time>2026-05-03T10:19:15.901Z</time></trkpt><trkpt lat="42.2252633" lon="14.5378467"><ele>49.14285714285714</ele><time>2026-05-03T10:19:18.902Z</time></trkpt><trkpt lat="42.2252083" lon="14.5379"><ele>49.71428571428571</ele><time>2026-05-03T10:19:21.901Z</time></trkpt><trkpt lat="42.2251483" lon="14.53796"><ele>50.285714285714285</ele><time>2026-05-03T10:19:24.901Z</time></trkpt><trkpt lat="42.2251" lon="14.53802"><ele>50.85714285714286</ele><time>2026-05-03T10:19:27.901Z</time></trkpt><trkpt lat="42.2251317" lon="14.5380967"><ele>51.42857142857142</ele><time>2026-05-03T10:19:34.901Z</time></trkpt><trkpt lat="42.2251933" lon="14.5381167"><ele>52.0</ele><time>2026-05-03T10:19:36.902Z</time></trkpt><trkpt lat="42.2252567" lon="14.5381383"><ele>52.83333333333333</ele><time>2026-05-03T10:19:38.902Z</time></trkpt><trkpt lat="42.2253333" lon="14.5381983"><ele>53.666666666666664</ele><time>2026-05-03T10:19:41.902Z</time></trkpt><trkpt lat="42.2253967" lon="14.5382717"><ele>54.5</ele><time>2026-05-03T10:19:44.901Z</time></trkpt><trkpt lat="42.2254783" lon="14.538325"><ele>55.33333333333333</ele><time>2026-05-03T10:19:47.901Z</time></trkpt><trkpt lat="42.2255633" lon="14.5383433"><ele>56.166666666666664</ele><time>2026-05-03T10:19:50.902Z</time></trkpt><trkpt lat="42.2256517" lon="14.5383283"><ele>57.0</ele><time>2026-05-03T10:19:52.902Z</time></trkpt><trkpt lat="42.2257467" lon="14.538305"><ele>57.0</ele><time>2026-05-03T10:19:54.902Z</time></trkpt><trkpt lat="42.2258383" lon="14.5383133"><ele>57.0</ele><time>2026-05-03T10:19:56.902Z</time></trkpt><trkpt lat="42.2259333" lon="14.5383317"><ele>57.0</ele><time>2026-05-03T10:19:58.901Z</time></trkpt><trkpt lat="42.2260483" lon="14.5383633"><ele>57.0</ele><time>2026-05-03T10:20:00.901Z</time></trkpt><trkpt lat="42.2261317" lon="14.538405"><ele>57.0</ele><time>2026-05-03T10:20:02.902Z</time></trkpt><trkpt lat="42.2261817" lon="14.5384567"><ele>57.0</ele><time>2026-05-03T10:20:04.902Z</time></trkpt><trkpt lat="42.2262333" lon="14.5385083"><ele>56.99999999999999</ele><time>2026-05-03T10:20:07.902Z</time></trkpt><trkpt lat="42.2262883" lon="14.5385633"><ele>57.0</ele><time>2026-05-03T10:20:10.901Z</time></trkpt><trkpt lat="42.2263517" lon="14.5386083"><ele>57.0</ele><time>2026-05-03T10:20:13.902Z</time></trkpt><trkpt lat="42.2264183" lon="14.5386483"><ele>56.99999999999999</ele><time>2026-05-03T10:20:16.901Z</time></trkpt><trkpt lat="42.2264917" lon="14.538665"><ele>57.0</ele><time>2026-05-03T10:20:19.902Z</time></trkpt><trkpt lat="42.226555" lon="14.5387083"><ele>57.0</ele><time>2026-05-03T10:20:21.902Z</time></trkpt><trkpt lat="42.2266333" lon="14.5387333"><ele>58.5</ele><time>2026-05-03T10:20:24.901Z</time></trkpt><trkpt lat="42.2267233" lon="14.5387733"><ele>60.0</ele><time>2026-05-03T10:20:27.902Z</time></trkpt><trkpt lat="42.2267833" lon="14.5388283"><ele>61.5</ele><time>2026-05-03T10:20:30.902Z</time></trkpt><trkpt lat="42.2267733" lon="14.5389333"><ele>63.0</ele><time>2026-05-03T10:20:34.901Z</time></trkpt><trkpt lat="42.2267433" lon="14.5390333"><ele>64.5</ele><time>2026-05-03T10:20:38.901Z</time></trkpt><trkpt lat="42.2267283" lon="14.539125"><ele>66.0</ele><time>2026-05-03T10:20:41.902Z</time></trkpt><trkpt lat="42.2266817" lon="14.539205"><ele>66.0</ele><time>2026-05-03T10:20:44.901Z</time></trkpt><trkpt lat="42.2266283" lon="14.5392783"><ele>66.0</ele><time>2026-05-03T10:20:47.902Z</time></trkpt><trkpt lat="42.22658" lon="14.53936"><ele>66.0</ele><time>2026-05-03T10:20:50.901Z</time></trkpt><trkpt lat="42.2265633" lon="14.53946"><ele>66.0</ele><time>2026-05-03T10:20:53.902Z</time></trkpt><trkpt lat="42.2265433" lon="14.5395533"><ele>66.0</ele><time>2026-05-03T10:20:56.902Z</time></trkpt><trkpt lat="42.2265383" lon="14.5396483"><ele>66.0</ele><time>2026-05-03T10:20:59.901Z</time></trkpt><trkpt lat="42.22656" lon="14.5397633"><ele>67.5</ele><time>2026-05-03T10:21:02.901Z</time></trkpt><trkpt lat="42.2266083" lon="14.5398517"><ele>69.0</ele><time>2026-05-03T10:21:05.902Z</time></trkpt><trkpt lat="42.2266617" lon="14.5399017"><ele>70.5</ele><time>2026-05-03T10:21:08.902Z</time></trkpt><trkpt lat="42.226715" lon="14.5399583"><ele>72.0</ele><time>2026-05-03T10:21:10.901Z</time></trkpt><trkpt lat="42.226765" lon="14.54001"><ele>73.5</ele><time>2026-05-03T10:21:12.901Z</time></trkpt><trkpt lat="42.2268417" lon="14.540075"><ele>75.0</ele><time>2026-05-03T10:21:15.901Z</time></trkpt><trkpt lat="42.22691" lon="14.5401367"><ele>75.0</ele><time>2026-05-03T10:21:17.902Z</time></trkpt><trkpt lat="42.2269767" lon="14.54019"><ele>75.0</ele><time>2026-05-03T10:21:19.902Z</time></trkpt><trkpt lat="42.2270383" lon="14.5402383"><ele>75.0</ele><time>2026-05-03T10:21:21.902Z</time></trkpt><trkpt lat="42.2271383" lon="14.5403"><ele>75.0</ele><time>2026-05-03T10:21:24.902Z</time></trkpt><trkpt lat="42.2272017" lon="14.5403233"><ele>75.0</ele><time>2026-05-03T10:21:26.902Z</time></trkpt><trkpt lat="42.2272667" lon="14.5403767"><ele>75.0</ele><time>2026-05-03T10:21:28.901Z</time></trkpt><trkpt lat="42.2273417" lon="14.5404233"><ele>76.5</ele><time>2026-05-03T10:21:31.902Z</time></trkpt><trkpt lat="42.2274183" lon="14.54046"><ele>78.0</ele><time>2026-05-03T10:21:34.901Z</time></trkpt><trkpt lat="42.22748" lon="14.5405117"><ele>79.5</ele><time>2026-05-03T10:21:36.902Z</time></trkpt><trkpt lat="42.227545" lon="14.5405533"><ele>81.0</ele><time>2026-05-03T10:21:38.901Z</time></trkpt><trkpt lat="42.2276267" lon="14.540605"><ele>82.5</ele><time>2026-05-03T10:21:40.902Z</time></trkpt><trkpt lat="42.2277033" lon="14.5406617"><ele>84.0</ele><time>2026-05-03T10:21:42.902Z</time></trkpt><trkpt lat="42.2277733" lon="14.5407233"><ele>84.0</ele><time>2026-05-03T10:21:44.902Z</time></trkpt><trkpt lat="42.2278533" lon="14.5407833"><ele>84.0</ele><time>2026-05-03T10:21:46.902Z</time></trkpt><trkpt lat="42.2279467" lon="14.5408383"><ele>84.0</ele><time>2026-05-03T10:21:48.902Z</time></trkpt><trkpt lat="42.2280533" lon="14.5408817"><ele>84.0</ele><time>2026-05-03T10:21:50.902Z</time></trkpt><trkpt lat="42.22811" lon="14.5409217"><ele>84.0</ele><time>2026-05-03T10:21:51.901Z</time></trkpt><trkpt lat="42.2282067" lon="14.5409883"><ele>84.4</ele><time>2026-05-03T10:21:53.902Z</time></trkpt><trkpt lat="42.22829" lon="14.5410783"><ele>84.80000000000001</ele><time>2026-05-03T10:21:55.902Z</time></trkpt><trkpt lat="42.228355" lon="14.5411733"><ele>85.19999999999999</ele><time>2026-05-03T10:21:57.902Z</time></trkpt><trkpt lat="42.2284183" lon="14.54128"><ele>85.6</ele><time>2026-05-03T10:21:59.902Z</time></trkpt><trkpt lat="42.2284767" lon="14.5413783"><ele>86.0</ele><time>2026-05-03T10:22:01.902Z</time></trkpt><trkpt lat="42.22855" lon="14.54148"><ele>86.0</ele><time>2026-05-03T10:22:03.902Z</time></trkpt><trkpt lat="42.2286183" lon="14.5416067"><ele>86.0</ele><time>2026-05-03T10:22:05.902Z</time></trkpt><trkpt lat="42.2286817" lon="14.5417267"><ele>86.0</ele><time>2026-05-03T10:22:07.902Z</time></trkpt><trkpt lat="42.22874" lon="14.5418317"><ele>86.0</ele><time>2026-05-03T10:22:09.902Z</time></trkpt><trkpt lat="42.2287983" lon="14.5419217"><ele>86.0</ele><time>2026-05-03T10:22:11.902Z</time></trkpt><trkpt lat="42.228855" lon="14.5419917"><ele>86.0</ele><time>2026-05-03T10:22:13.902Z</time></trkpt><trkpt lat="42.228915" lon="14.5420317"><ele>86.0</ele><time>2026-05-03T10:22:15.901Z</time></trkpt><trkpt lat="42.229005" lon="14.5420633"><ele>86.0</ele><time>2026-05-03T10:22:18.902Z</time></trkpt><trkpt lat="42.2290733" lon="14.5421317"><ele>86.0</ele><time>2026-05-03T10:22:20.901Z</time></trkpt><trkpt lat="42.2291317" lon="14.5422033"><ele>86.0</ele><time>2026-05-03T10:22:22.901Z</time></trkpt><trkpt lat="42.22918" lon="14.5423067"><ele>86.0</ele><time>2026-05-03T10:22:24.902Z</time></trkpt><trkpt lat="42.22922" lon="14.542415"><ele>85.83333333333334</ele><time>2026-05-03T10:22:26.902Z</time></trkpt><trkpt lat="42.2292183" lon="14.5425167"><ele>85.66666666666667</ele><time>2026-05-03T10:22:28.902Z</time></trkpt><trkpt lat="42.2291983" lon="14.542625"><ele>85.5</ele><time>2026-05-03T10:22:30.901Z</time></trkpt><trkpt lat="42.22916" lon="14.5427083"><ele>85.33333333333333</ele><time>2026-05-03T10:22:32.902Z</time></trkpt><trkpt lat="42.2291233" lon="14.54278"><ele>85.16666666666666</ele><time>2026-05-03T10:22:34.902Z</time></trkpt><trkpt lat="42.22907" lon="14.5428633"><ele>85.0</ele><time>2026-05-03T10:22:37.901Z</time></trkpt><trkpt lat="42.2290083" lon="14.5429483"><ele>85.57142857142857</ele><time>2026-05-03T10:22:40.902Z</time></trkpt><trkpt lat="42.2289567" lon="14.5430017"><ele>86.14285714285714</ele><time>2026-05-03T10:22:42.902Z</time></trkpt><trkpt lat="42.2289033" lon="14.5430683"><ele>86.71428571428571</ele><time>2026-05-03T10:22:45.901Z</time></trkpt><trkpt lat="42.2288583" lon="14.5431617"><ele>87.28571428571428</ele><time>2026-05-03T10:22:48.902Z</time></trkpt><trkpt lat="42.2288183" lon="14.54323"><ele>87.85714285714286</ele><time>2026-05-03T10:22:50.902Z</time></trkpt><trkpt lat="42.2287717" lon="14.5433067"><ele>88.42857142857142</ele><time>2026-05-03T10:22:52.902Z</time></trkpt><trkpt lat="42.228715" lon="14.54338"><ele>89.0</ele><time>2026-05-03T10:22:54.902Z</time></trkpt><trkpt lat="42.228665" lon="14.5434517"><ele>89.0</ele><time>2026-05-03T10:22:56.902Z</time></trkpt><trkpt lat="42.2286183" lon="14.543515"><ele>89.0</ele><time>2026-05-03T10:22:58.902Z</time></trkpt><trkpt lat="42.228565" lon="14.5435967"><ele>89.0</ele><time>2026-05-03T10:23:01.901Z</time></trkpt><trkpt lat="42.2284967" lon="14.54366"><ele>89.0</ele><time>2026-05-03T10:23:04.902Z</time></trkpt><trkpt lat="42.2284183" lon="14.5437417"><ele>89.0</ele><time>2026-05-03T10:23:07.902Z</time></trkpt><trkpt lat="42.228375" lon="14.54381"><ele>89.0</ele><time>2026-05-03T10:23:09.901Z</time></trkpt><trkpt lat="42.22833" lon="14.543885"><ele>88.16666666666667</ele><time>2026-05-03T10:23:12.902Z</time></trkpt><trkpt lat="42.2282867" lon="14.5439483"><ele>87.33333333333334</ele><time>2026-05-03T10:23:15.901Z</time></trkpt><trkpt lat="42.2282167" lon="14.5439417"><ele>86.5</ele><time>2026-05-03T10:23:20.902Z</time></trkpt><trkpt lat="42.2281317" lon="14.5439583"><ele>85.66666666666667</ele><time>2026-05-03T10:23:24.902Z</time></trkpt><trkpt lat="42.228055" lon="14.544005"><ele>84.83333333333333</ele><time>2026-05-03T10:23:27.901Z</time></trkpt><trkpt lat="42.2279717" lon="14.5440567"><ele>84.0</ele><time>2026-05-03T10:23:30.902Z</time></trkpt><trkpt lat="42.2278817" lon="14.5441017"><ele>84.0</ele><time>2026-05-03T10:23:33.901Z</time></trkpt><trkpt lat="42.2278083" lon="14.5441533"><ele>84.0</ele><time>2026-05-03T10:23:35.902Z</time></trkpt><trkpt lat="42.2277033" lon="14.5442183"><ele>84.0</ele><time>2026-05-03T10:23:37.902Z</time></trkpt><trkpt lat="42.227635" lon="14.5442817"><ele>84.0</ele><time>2026-05-03T10:23:39.901Z</time></trkpt><trkpt lat="42.2275833" lon="14.5444033"><ele>84.0</ele><time>2026-05-03T10:23:41.902Z</time></trkpt><trkpt lat="42.2274967" lon="14.544535"><ele>82.60000000000001</ele><time>2026-05-03T10:23:43.902Z</time></trkpt><trkpt lat="42.2274117" lon="14.5446433"><ele>81.2</ele><time>2026-05-03T10:23:45.901Z</time></trkpt><trkpt lat="42.2273317" lon="14.544735"><ele>79.80000000000001</ele><time>2026-05-03T10:23:47.902Z</time></trkpt><trkpt lat="42.2272417" lon="14.5448133"><ele>78.4</ele><time>2026-05-03T10:23:49.901Z</time></trkpt><trkpt lat="42.22719" lon="14.5448683"><ele>77.0</ele><time>2026-05-03T10:23:51.902Z</time></trkpt><trkpt lat="42.22713" lon="14.5449383"><ele>77.5</ele><time>2026-05-03T10:23:54.901Z</time></trkpt><trkpt lat="42.2270683" lon="14.5450017"><ele>78.0</ele><time>2026-05-03T10:23:56.902Z</time></trkpt><trkpt lat="42.2270217" lon="14.5450817"><ele>78.5</ele><time>2026-05-03T10:23:58.901Z</time></trkpt><trkpt lat="42.22696" lon="14.5451817"><ele>79.0</ele><time>2026-05-03T10:24:01.902Z</time></trkpt><trkpt lat="42.2268967" lon="14.5452817"><ele>79.5</ele><time>2026-05-03T10:24:04.902Z</time></trkpt><trkpt lat="42.2268533" lon="14.5453717"><ele>80.0</ele><time>2026-05-03T10:24:06.902Z</time></trkpt><trkpt lat="42.226805" lon="14.545485"><ele>80.0</ele><time>2026-05-03T10:24:08.901Z</time></trkpt><trkpt lat="42.2267617" lon="14.5455717"><ele>80.0</ele><time>2026-05-03T10:24:10.902Z</time></trkpt><trkpt lat="42.2267233" lon="14.5456467"><ele>80.0</ele><time>2026-05-03T10:24:12.902Z</time></trkpt><trkpt lat="42.2266783" lon="14.5457283"><ele>80.0</ele><time>2026-05-03T10:24:14.902Z</time></trkpt><trkpt lat="42.22663" lon="14.545805"><ele>80.0</ele><time>2026-05-03T10:24:16.902Z</time></trkpt><trkpt lat="42.2265783" lon="14.5458933"><ele>80.0</ele><time>2026-05-03T10:24:18.902Z</time></trkpt><trkpt lat="42.2265267" lon="14.54599"><ele>81.5</ele><time>2026-05-03T10:24:20.902Z</time></trkpt><trkpt lat="42.2264633" lon="14.5460967"><ele>83.0</ele><time>2026-05-03T10:24:22.902Z</time></trkpt><trkpt lat="42.2264017" lon="14.5461983"><ele>84.5</ele><time>2026-05-03T10:24:24.902Z</time></trkpt><trkpt lat="42.226345" lon="14.5462817"><ele>86.0</ele><time>2026-05-03T10:24:26.901Z</time></trkpt><trkpt lat="42.2262767" lon="14.54634"><ele>87.5</ele><time>2026-05-03T10:24:29.902Z</time></trkpt><trkpt lat="42.2262133" lon="14.5464167"><ele>89.0</ele><time>2026-05-03T10:24:31.902Z</time></trkpt><trkpt lat="42.2261467" lon="14.5464917"><ele>89.0</ele><time>2026-05-03T10:24:33.901Z</time></trkpt><trkpt lat="42.2260783" lon="14.546585"><ele>89.0</ele><time>2026-05-03T10:24:35.902Z</time></trkpt><trkpt lat="42.22601" lon="14.546685"><ele>89.0</ele><time>2026-05-03T10:24:37.901Z</time></trkpt><trkpt lat="42.2259517" lon="14.5467733"><ele>89.0</ele><time>2026-05-03T10:24:39.902Z</time></trkpt><trkpt lat="42.2259033" lon="14.54684"><ele>89.0</ele><time>2026-05-03T10:24:41.902Z</time></trkpt><trkpt lat="42.225845" lon="14.5469167"><ele>89.0</ele><time>2026-05-03T10:24:42.902Z</time></trkpt><trkpt lat="42.2258" lon="14.54699"><ele>87.5</ele><time>2026-05-03T10:24:44.901Z</time></trkpt><trkpt lat="42.2257533" lon="14.547095"><ele>86.0</ele><time>2026-05-03T10:24:47.902Z</time></trkpt><trkpt lat="42.2257233" lon="14.5471717"><ele>84.5</ele><time>2026-05-03T10:24:49.902Z</time></trkpt><trkpt lat="42.22566" lon="14.5472583"><ele>83.0</ele><time>2026-05-03T10:24:51.902Z</time></trkpt><trkpt lat="42.2255917" lon="14.54736"><ele>81.5</ele><time>2026-05-03T10:24:53.902Z</time></trkpt><trkpt lat="42.2255383" lon="14.5474533"><ele>80.0</ele><time>2026-05-03T10:24:55.902Z</time></trkpt><trkpt lat="42.2254783" lon="14.5475417"><ele>81.83333333333334</ele><time>2026-05-03T10:24:57.902Z</time></trkpt><trkpt lat="42.2254183" lon="14.54763"><ele>83.66666666666667</ele><time>2026-05-03T10:24:59.901Z</time></trkpt><trkpt lat="42.22536" lon="14.5477067"><ele>85.5</ele><time>2026-05-03T10:25:01.902Z</time></trkpt><trkpt lat="42.2253083" lon="14.5478017"><ele>87.33333333333333</ele><time>2026-05-03T10:25:04.902Z</time></trkpt><trkpt lat="42.2252767" lon="14.5478767"><ele>89.16666666666666</ele><time>2026-05-03T10:25:06.902Z</time></trkpt><trkpt lat="42.2252517" lon="14.5479683"><ele>91.0</ele><time>2026-05-03T10:25:09.902Z</time></trkpt><trkpt lat="42.22522" lon="14.5480633"><ele>91.0</ele><time>2026-05-03T10:25:12.902Z</time></trkpt><trkpt lat="42.2251767" lon="14.54817"><ele>91.0</ele><time>2026-05-03T10:25:15.901Z</time></trkpt><trkpt lat="42.2251467" lon="14.5482533"><ele>91.0</ele><time>2026-05-03T10:25:17.902Z</time></trkpt><trkpt lat="42.22512" lon="14.5483367"><ele>91.0</ele><time>2026-05-03T10:25:19.902Z</time></trkpt><trkpt lat="42.2250867" lon="14.5484267"><ele>91.0</ele><time>2026-05-03T10:25:21.901Z</time></trkpt><trkpt lat="42.2250533" lon="14.5485333"><ele>91.0</ele><time>2026-05-03T10:25:23.901Z</time></trkpt><trkpt lat="42.2250017" lon="14.5486533"><ele>89.5</ele><time>2026-05-03T10:25:26.902Z</time></trkpt><trkpt lat="42.2249567" lon="14.5487383"><ele>88.0</ele><time>2026-05-03T10:25:28.901Z</time></trkpt><trkpt lat="42.2249033" lon="14.54886"><ele>86.5</ele><time>2026-05-03T10:25:31.901Z</time></trkpt><trkpt lat="42.2248567" lon="14.5489467"><ele>85.0</ele><time>2026-05-03T10:25:33.902Z</time></trkpt><trkpt lat="42.2248033" lon="14.5490383"><ele>83.5</ele><time>2026-05-03T10:25:35.901Z</time></trkpt><trkpt lat="42.224745" lon="14.5491367"><ele>82.0</ele><time>2026-05-03T10:25:38.902Z</time></trkpt><trkpt lat="42.2246933" lon="14.5492367"><ele>83.14285714285714</ele><time>2026-05-03T10:25:41.901Z</time></trkpt><trkpt lat="42.2246567" lon="14.5493117"><ele>84.28571428571428</ele><time>2026-05-03T10:25:43.902Z</time></trkpt><trkpt lat="42.2246183" lon="14.5493817"><ele>85.42857142857142</ele><time>2026-05-03T10:25:45.901Z</time></trkpt><trkpt lat="42.2245717" lon="14.549455"><ele>86.57142857142857</ele><time>2026-05-03T10:25:47.902Z</time></trkpt><trkpt lat="42.22453" lon="14.5495333"><ele>87.71428571428572</ele><time>2026-05-03T10:25:49.902Z</time></trkpt><trkpt lat="42.2244917" lon="14.549605"><ele>88.85714285714285</ele><time>2026-05-03T10:25:51.902Z</time></trkpt><trkpt lat="42.22445" lon="14.5496867"><ele>90.0</ele><time>2026-05-03T10:25:53.901Z</time></trkpt><trkpt lat="42.22441" lon="14.5497583"><ele>90.0</ele><time>2026-05-03T10:25:55.902Z</time></trkpt><trkpt lat="42.2243683" lon="14.5498283"><ele>90.0</ele><time>2026-05-03T10:25:57.902Z</time></trkpt><trkpt lat="42.2243183" lon="14.5499167"><ele>90.0</ele><time>2026-05-03T10:25:59.901Z</time></trkpt><trkpt lat="42.2242617" lon="14.5500117"><ele>90.0</ele><time>2026-05-03T10:26:01.902Z</time></trkpt><trkpt lat="42.2242017" lon="14.550105"><ele>90.0</ele><time>2026-05-03T10:26:03.902Z</time></trkpt><trkpt lat="42.2241267" lon="14.55018"><ele>90.0</ele><time>2026-05-03T10:26:05.901Z</time></trkpt><trkpt lat="42.2240583" lon="14.5502633"><ele>90.0</ele><time>2026-05-03T10:26:07.902Z</time></trkpt><trkpt lat="42.2240067" lon="14.5503383"><ele>90.0</ele><time>2026-05-03T10:26:09.902Z</time></trkpt><trkpt lat="42.223975" lon="14.5504517"><ele>90.0</ele><time>2026-05-03T10:26:12.902Z</time></trkpt><trkpt lat="42.2239717" lon="14.5505383"><ele>90.0</ele><time>2026-05-03T10:26:14.902Z</time></trkpt><trkpt lat="42.2239617" lon="14.5506433"><ele>90.0</ele><time>2026-05-03T10:26:16.902Z</time></trkpt><trkpt lat="42.2239283" lon="14.550755"><ele>90.0</ele><time>2026-05-03T10:26:18.902Z</time></trkpt><trkpt lat="42.2238883" lon="14.5508633"><ele>90.8</ele><time>2026-05-03T10:26:20.901Z</time></trkpt><trkpt lat="42.2238417" lon="14.550985"><ele>91.6</ele><time>2026-05-03T10:26:22.902Z</time></trkpt><trkpt lat="42.2238067" lon="14.5510583"><ele>92.4</ele><time>2026-05-03T10:26:23.902Z</time></trkpt><trkpt lat="42.2237383" lon="14.551195"><ele>93.2</ele><time>2026-05-03T10:26:25.901Z</time></trkpt><trkpt lat="42.2236967" lon="14.5512717"><ele>94.0</ele><time>2026-05-03T10:26:26.902Z</time></trkpt><trkpt lat="42.2236283" lon="14.5513867"><ele>94.0</ele><time>2026-05-03T10:26:28.902Z</time></trkpt><trkpt lat="42.2235883" lon="14.5514667"><ele>94.0</ele><time>2026-05-03T10:26:29.901Z</time></trkpt><trkpt lat="42.2235383" lon="14.55158"><ele>94.0</ele><time>2026-05-03T10:26:30.902Z</time></trkpt><trkpt lat="42.2234733" lon="14.5516833"><ele>94.0</ele><time>2026-05-03T10:26:32.901Z</time></trkpt><trkpt lat="42.2234133" lon="14.5517783"><ele>94.0</ele><time>2026-05-03T10:26:34.902Z</time></trkpt><trkpt lat="42.2233533" lon="14.5518767"><ele>94.0</ele><time>2026-05-03T10:26:36.902Z</time></trkpt><trkpt lat="42.223295" lon="14.5519817"><ele>94.0</ele><time>2026-05-03T10:26:38.902Z</time></trkpt><trkpt lat="42.22325" lon="14.5520883"><ele>94.0</ele><time>2026-05-03T10:26:40.902Z</time></trkpt><trkpt lat="42.223215" lon="14.5521683"><ele>94.0</ele><time>2026-05-03T10:26:41.901Z</time></trkpt><trkpt lat="42.22319" lon="14.5522467"><ele>94.0</ele><time>2026-05-03T10:26:42.902Z</time></trkpt><trkpt lat="42.22314" lon="14.5523833"><ele>94.0</ele><time>2026-05-03T10:26:44.901Z</time></trkpt><trkpt lat="42.2231" lon="14.5525217"><ele>95.0</ele><time>2026-05-03T10:26:46.901Z</time></trkpt><trkpt lat="42.2230567" lon="14.5526617"><ele>96.0</ele><time>2026-05-03T10:26:48.902Z</time></trkpt><trkpt lat="42.223025" lon="14.5527817"><ele>97.0</ele><time>2026-05-03T10:26:50.902Z</time></trkpt><trkpt lat="42.2229867" lon="14.55288"><ele>98.0</ele><time>2026-05-03T10:26:51.902Z</time></trkpt><trkpt lat="42.2229633" lon="14.5529633"><ele>99.0</ele><time>2026-05-03T10:26:52.902Z</time></trkpt><trkpt lat="42.2229283" lon="14.5531217"><ele>99.0</ele><time>2026-05-03T10:26:54.902Z</time></trkpt><trkpt lat="42.2228833" lon="14.5532383"><ele>99.0</ele><time>2026-05-03T10:26:56.901Z</time></trkpt><trkpt lat="42.2228517" lon="14.5533333"><ele>99.0</ele><time>2026-05-03T10:26:58.902Z</time></trkpt><trkpt lat="42.22281" lon="14.5534283"><ele>99.0</ele><time>2026-05-03T10:27:00.901Z</time></trkpt><trkpt lat="42.2227483" lon="14.5535517"><ele>99.0</ele><time>2026-05-03T10:27:02.901Z</time></trkpt><trkpt lat="42.222705" lon="14.5536667"><ele>98.16666666666667</ele><time>2026-05-03T10:27:04.902Z</time></trkpt><trkpt lat="42.2226933" lon="14.5537767"><ele>97.33333333333333</ele><time>2026-05-03T10:27:06.901Z</time></trkpt><trkpt lat="42.2226817" lon="14.5539"><ele>96.5</ele><time>2026-05-03T10:27:08.901Z</time></trkpt><trkpt lat="42.2226733" lon="14.554045"><ele>95.66666666666666</ele><time>2026-05-03T10:27:10.902Z</time></trkpt><trkpt lat="42.2226817" lon="14.554135"><ele>94.83333333333333</ele><time>2026-05-03T10:27:12.902Z</time></trkpt><trkpt lat="42.2226767" lon="14.5542383"><ele>94.0</ele><time>2026-05-03T10:27:14.902Z</time></trkpt><trkpt lat="42.2226683" lon="14.5543417"><ele>94.0</ele><time>2026-05-03T10:27:16.902Z</time></trkpt><trkpt lat="42.2226233" lon="14.5544983"><ele>94.0</ele><time>2026-05-03T10:27:18.901Z</time></trkpt><trkpt lat="42.2225983" lon="14.5545883"><ele>94.0</ele><time>2026-05-03T10:27:19.902Z</time></trkpt><trkpt lat="42.222585" lon="14.554705"><ele>94.0</ele><time>2026-05-03T10:27:21.902Z</time></trkpt><trkpt lat="42.2225667" lon="14.5548083"><ele>94.0</ele><time>2026-05-03T10:27:23.901Z</time></trkpt><trkpt lat="42.222545" lon="14.5549133"><ele>94.0</ele><time>2026-05-03T10:27:24.901Z</time></trkpt><trkpt lat="42.222505" lon="14.5550867"><ele>93.0</ele><time>2026-05-03T10:27:26.902Z</time></trkpt><trkpt lat="42.222505" lon="14.5552183"><ele>92.0</ele><time>2026-05-03T10:27:28.901Z</time></trkpt><trkpt lat="42.222515" lon="14.555335"><ele>91.0</ele><time>2026-05-03T10:27:30.902Z</time></trkpt><trkpt lat="42.2225217" lon="14.5554633"><ele>90.0</ele><time>2026-05-03T10:27:31.902Z</time></trkpt><trkpt lat="42.2225267" lon="14.5556067"><ele>89.0</ele><time>2026-05-03T10:27:32.902Z</time></trkpt><trkpt lat="42.22254" lon="14.5557633"><ele>88.16666666666667</ele><time>2026-05-03T10:27:33.902Z</time></trkpt><trkpt lat="42.2224867" lon="14.5558717"><ele>87.33333333333334</ele><time>2026-05-03T10:27:36.902Z</time></trkpt><trkpt lat="42.222455" lon="14.5560233"><ele>86.5</ele><time>2026-05-03T10:27:38.902Z</time></trkpt><trkpt lat="42.2224067" lon="14.5561283"><ele>85.66666666666667</ele><time>2026-05-03T10:27:40.902Z</time></trkpt><trkpt lat="42.2223583" lon="14.5561833"><ele>84.83333333333333</ele><time>2026-05-03T10:27:42.902Z</time></trkpt><trkpt lat="42.2223033" lon="14.5562583"><ele>84.0</ele><time>2026-05-03T10:27:44.902Z</time></trkpt><trkpt lat="42.2222533" lon="14.5563317"><ele>84.0</ele><time>2026-05-03T10:27:46.901Z</time></trkpt><trkpt lat="42.22218" lon="14.55645"><ele>84.0</ele><time>2026-05-03T10:27:48.902Z</time></trkpt><trkpt lat="42.2220983" lon="14.5565867"><ele>84.0</ele><time>2026-05-03T10:27:50.902Z</time></trkpt><trkpt lat="42.2220467" lon="14.5566517"><ele>84.0</ele><time>2026-05-03T10:27:51.902Z</time></trkpt><trkpt lat="42.2219967" lon="14.5567217"><ele>84.0</ele><time>2026-05-03T10:27:52.901Z</time></trkpt><trkpt lat="42.2219533" lon="14.556785"><ele>84.0</ele><time>2026-05-03T10:27:53.902Z</time></trkpt><trkpt lat="42.2218917" lon="14.5569"><ele>84.0</ele><time>2026-05-03T10:27:55.901Z</time></trkpt><trkpt lat="42.221855" lon="14.556995"><ele>84.0</ele><time>2026-05-03T10:27:57.901Z</time></trkpt><trkpt lat="42.2218267" lon="14.557095"><ele>84.0</ele><time>2026-05-03T10:27:59.902Z</time></trkpt><trkpt lat="42.221795" lon="14.5572017"><ele>84.0</ele><time>2026-05-03T10:28:01.902Z</time></trkpt><trkpt lat="42.2217667" lon="14.557325"><ele>84.0</ele><time>2026-05-03T10:28:03.901Z</time></trkpt><trkpt lat="42.2217233" lon="14.5574733"><ele>82.0</ele><time>2026-05-03T10:28:05.902Z</time></trkpt><trkpt lat="42.2217017" lon="14.5575583"><ele>80.0</ele><time>2026-05-03T10:28:06.901Z</time></trkpt><trkpt lat="42.2216833" lon="14.5576467"><ele>78.0</ele><time>2026-05-03T10:28:07.902Z</time></trkpt><trkpt lat="42.2216717" lon="14.5577367"><ele>76.0</ele><time>2026-05-03T10:28:08.902Z</time></trkpt><trkpt lat="42.22164" lon="14.5578833"><ele>74.0</ele><time>2026-05-03T10:28:10.902Z</time></trkpt><trkpt lat="42.2216183" lon="14.5580167"><ele>72.0</ele><time>2026-05-03T10:28:12.902Z</time></trkpt><trkpt lat="42.2215967" lon="14.5581633"><ele>71.4</ele><time>2026-05-03T10:28:14.902Z</time></trkpt><trkpt lat="42.221585" lon="14.5582583"><ele>70.80000000000001</ele><time>2026-05-03T10:28:15.902Z</time></trkpt><trkpt lat="42.2215517" lon="14.558515"><ele>70.2</ele><time>2026-05-03T10:28:17.901Z</time></trkpt><trkpt lat="42.221545" lon="14.5586"><ele>69.60000000000001</ele><time>2026-05-03T10:28:18.901Z</time></trkpt><trkpt lat="42.221545" lon="14.558725"><ele>69.0</ele><time>2026-05-03T10:28:19.902Z</time></trkpt><trkpt lat="42.2215483" lon="14.5588467"><ele>68.83333333333333</ele><time>2026-05-03T10:28:20.901Z</time></trkpt><trkpt lat="42.22155" lon="14.558935"><ele>68.66666666666667</ele><time>2026-05-03T10:28:21.902Z</time></trkpt><trkpt lat="42.2215533" lon="14.559025"><ele>68.5</ele><time>2026-05-03T10:28:22.902Z</time></trkpt><trkpt lat="42.2215617" lon="14.55915"><ele>68.33333333333334</ele><time>2026-05-03T10:28:23.902Z</time></trkpt><trkpt lat="42.2215683" lon="14.5592617"><ele>68.16666666666667</ele><time>2026-05-03T10:28:24.902Z</time></trkpt><trkpt lat="42.22156" lon="14.559405"><ele>68.0</ele><time>2026-05-03T10:28:25.901Z</time></trkpt><trkpt lat="42.2215467" lon="14.559555"><ele>68.8</ele><time>2026-05-03T10:28:27.902Z</time></trkpt><trkpt lat="42.2215267" lon="14.5596983"><ele>69.6</ele><time>2026-05-03T10:28:29.901Z</time></trkpt><trkpt lat="42.2215183" lon="14.559785"><ele>70.4</ele><time>2026-05-03T10:28:30.902Z</time></trkpt><trkpt lat="42.221485" lon="14.5599067"><ele>71.2</ele><time>2026-05-03T10:28:31.902Z</time></trkpt><trkpt lat="42.2214483" lon="14.5600617"><ele>72.0</ele><time>2026-05-03T10:28:33.902Z</time></trkpt><trkpt lat="42.2214067" lon="14.5602583"><ele>70.6</ele><time>2026-05-03T10:28:35.902Z</time></trkpt><trkpt lat="42.221395" lon="14.5603683"><ele>69.2</ele><time>2026-05-03T10:28:36.902Z</time></trkpt><trkpt lat="42.2213433" lon="14.5604933"><ele>67.8</ele><time>2026-05-03T10:28:38.901Z</time></trkpt><trkpt lat="42.2212767" lon="14.56061"><ele>66.4</ele><time>2026-05-03T10:28:40.902Z</time></trkpt><trkpt lat="42.2212233" lon="14.56072"><ele>65.0</ele><time>2026-05-03T10:28:42.902Z</time></trkpt><trkpt lat="42.22118" lon="14.5608167"><ele>65.0</ele><time>2026-05-03T10:28:44.901Z</time></trkpt><trkpt lat="42.22114" lon="14.5609217"><ele>65.0</ele><time>2026-05-03T10:28:46.901Z</time></trkpt><trkpt lat="42.2211083" lon="14.56102"><ele>65.0</ele><time>2026-05-03T10:28:48.902Z</time></trkpt><trkpt lat="42.2210717" lon="14.5611117"><ele>65.0</ele><time>2026-05-03T10:28:50.902Z</time></trkpt><trkpt lat="42.221035" lon="14.5611867"><ele>65.0</ele><time>2026-05-03T10:28:52.901Z</time></trkpt><trkpt lat="42.2209833" lon="14.5612917"><ele>65.0</ele><time>2026-05-03T10:28:54.902Z</time></trkpt><trkpt lat="42.22093" lon="14.5614067"><ele>63.6</ele><time>2026-05-03T10:28:56.901Z</time></trkpt><trkpt lat="42.220885" lon="14.56158"><ele>62.2</ele><time>2026-05-03T10:28:58.901Z</time></trkpt><trkpt lat="42.220835" lon="14.56168"><ele>60.8</ele><time>2026-05-03T10:29:00.901Z</time></trkpt><trkpt lat="42.22078" lon="14.5617583"><ele>59.4</ele><time>2026-05-03T10:29:03.902Z</time></trkpt><trkpt lat="42.22073" lon="14.56187"><ele>58.0</ele><time>2026-05-03T10:29:06.902Z</time></trkpt><trkpt lat="42.2206883" lon="14.5619483"><ele>58.99999999999999</ele><time>2026-05-03T10:29:08.902Z</time></trkpt><trkpt lat="42.220635" lon="14.5620167"><ele>60.0</ele><time>2026-05-03T10:29:10.902Z</time></trkpt><trkpt lat="42.2205883" lon="14.5620933"><ele>61.0</ele><time>2026-05-03T10:29:12.902Z</time></trkpt><trkpt lat="42.2205333" lon="14.5621783"><ele>62.0</ele><time>2026-05-03T10:29:14.902Z</time></trkpt><trkpt lat="42.220485" lon="14.56227"><ele>62.99999999999999</ele><time>2026-05-03T10:29:16.902Z</time></trkpt><trkpt lat="42.2204383" lon="14.5623683"><ele>64.0</ele><time>2026-05-03T10:29:18.902Z</time></trkpt><trkpt lat="42.2203833" lon="14.5624617"><ele>63.99999999999999</ele><time>2026-05-03T10:29:20.902Z</time></trkpt><trkpt lat="42.2203267" lon="14.5625567"><ele>64.0</ele><time>2026-05-03T10:29:22.902Z</time></trkpt><trkpt lat="42.2202783" lon="14.5626567"><ele>64.0</ele><time>2026-05-03T10:29:25.902Z</time></trkpt><trkpt lat="42.220235" lon="14.5627383"><ele>64.0</ele><time>2026-05-03T10:29:28.902Z</time></trkpt><trkpt lat="42.2201983" lon="14.5628467"><ele>63.99999999999999</ele><time>2026-05-03T10:29:31.901Z</time></trkpt><trkpt lat="42.220165" lon="14.5629283"><ele>64.0</ele><time>2026-05-03T10:29:33.902Z</time></trkpt><trkpt lat="42.2201283" lon="14.5630567"><ele>63.49999999999999</ele><time>2026-05-03T10:29:36.902Z</time></trkpt><trkpt lat="42.2201083" lon="14.5631517"><ele>63.0</ele><time>2026-05-03T10:29:38.902Z</time></trkpt><trkpt lat="42.220075" lon="14.5632533"><ele>62.5</ele><time>2026-05-03T10:29:40.902Z</time></trkpt><trkpt lat="42.22005" lon="14.563375"><ele>62.0</ele><time>2026-05-03T10:29:42.901Z</time></trkpt><trkpt lat="42.2200267" lon="14.5634583"><ele>61.49999999999999</ele><time>2026-05-03T10:29:44.902Z</time></trkpt><trkpt lat="42.21999" lon="14.5635917"><ele>61.0</ele><time>2026-05-03T10:29:46.902Z</time></trkpt><trkpt lat="42.21996" lon="14.563675"><ele>60.4</ele><time>2026-05-03T10:29:48.902Z</time></trkpt><trkpt lat="42.21992" lon="14.5637867"><ele>59.8</ele><time>2026-05-03T10:29:50.902Z</time></trkpt><trkpt lat="42.2198833" lon="14.5639117"><ele>59.199999999999996</ele><time>2026-05-03T10:29:52.902Z</time></trkpt><trkpt lat="42.2198367" lon="14.5640183"><ele>58.599999999999994</ele><time>2026-05-03T10:29:54.901Z</time></trkpt><trkpt lat="42.219785" lon="14.5641433"><ele>58.0</ele><time>2026-05-03T10:29:56.901Z</time></trkpt><trkpt lat="42.21976" lon="14.56423"><ele>59.2</ele><time>2026-05-03T10:29:57.902Z</time></trkpt><trkpt lat="42.2197083" lon="14.5643733"><ele>60.4</ele><time>2026-05-03T10:29:59.902Z</time></trkpt><trkpt lat="42.21966" lon="14.5644817"><ele>61.60000000000001</ele><time>2026-05-03T10:30:01.902Z</time></trkpt><trkpt lat="42.2196083" lon="14.5645967"><ele>62.800000000000004</ele><time>2026-05-03T10:30:03.902Z</time></trkpt><trkpt lat="42.219565" lon="14.564735"><ele>64.0</ele><time>2026-05-03T10:30:05.901Z</time></trkpt><trkpt lat="42.21951" lon="14.5648517"><ele>63.99999999999999</ele><time>2026-05-03T10:30:07.901Z</time></trkpt><trkpt lat="42.2194633" lon="14.5649483"><ele>64.0</ele><time>2026-05-03T10:30:09.902Z</time></trkpt><trkpt lat="42.2194217" lon="14.5650233"><ele>64.0</ele><time>2026-05-03T10:30:11.902Z</time></trkpt><trkpt lat="42.2193783" lon="14.565115"><ele>64.0</ele><time>2026-05-03T10:30:14.902Z</time></trkpt><trkpt lat="42.2193417" lon="14.5652067"><ele>63.99999999999999</ele><time>2026-05-03T10:30:17.902Z</time></trkpt><trkpt lat="42.2193117" lon="14.565295"><ele>64.0</ele><time>2026-05-03T10:30:20.902Z</time></trkpt><trkpt lat="42.21928" lon="14.5653933"><ele>63.285714285714285</ele><time>2026-05-03T10:30:24.902Z</time></trkpt><trkpt lat="42.21926" lon="14.5654817"><ele>62.57142857142857</ele><time>2026-05-03T10:30:28.902Z</time></trkpt><trkpt lat="42.2192167" lon="14.5655567"><ele>61.857142857142854</ele><time>2026-05-03T10:30:31.901Z</time></trkpt><trkpt lat="42.21916" lon="14.5656483"><ele>61.14285714285714</ele><time>2026-05-03T10:30:34.902Z</time></trkpt><trkpt lat="42.2191133" lon="14.56574"><ele>60.42857142857143</ele><time>2026-05-03T10:30:37.901Z</time></trkpt><trkpt lat="42.2190733" lon="14.5658233"><ele>59.71428571428571</ele><time>2026-05-03T10:30:40.901Z</time></trkpt><trkpt lat="42.2190233" lon="14.5658817"><ele>59.0</ele><time>2026-05-03T10:30:42.901Z</time></trkpt><trkpt lat="42.2189617" lon="14.5659667"><ele>60.66666666666667</ele><time>2026-05-03T10:30:44.902Z</time></trkpt><trkpt lat="42.218895" lon="14.56606"><ele>62.333333333333336</ele><time>2026-05-03T10:30:46.901Z</time></trkpt><trkpt lat="42.2188317" lon="14.5661633"><ele>64.0</ele><time>2026-05-03T10:30:48.902Z</time></trkpt><trkpt lat="42.2187883" lon="14.5662783"><ele>65.66666666666667</ele><time>2026-05-03T10:30:50.902Z</time></trkpt><trkpt lat="42.2187467" lon="14.5663667"><ele>67.33333333333333</ele><time>2026-05-03T10:30:52.901Z</time></trkpt><trkpt lat="42.218695" lon="14.5664383"><ele>69.0</ele><time>2026-05-03T10:30:54.902Z</time></trkpt><trkpt lat="42.218625" lon="14.5665"><ele>69.0</ele><time>2026-05-03T10:30:56.902Z</time></trkpt><trkpt lat="42.2185567" lon="14.5665783"><ele>69.0</ele><time>2026-05-03T10:30:58.901Z</time></trkpt><trkpt lat="42.2184717" lon="14.5666967"><ele>69.0</ele><time>2026-05-03T10:31:00.902Z</time></trkpt><trkpt lat="42.2184133" lon="14.566775"><ele>69.0</ele><time>2026-05-03T10:31:01.902Z</time></trkpt><trkpt lat="42.2183167" lon="14.5669617"><ele>66.60000000000001</ele><time>2026-05-03T10:31:03.902Z</time></trkpt><trkpt lat="42.2182633" lon="14.56713"><ele>64.2</ele><time>2026-05-03T10:31:05.902Z</time></trkpt><trkpt lat="42.2182433" lon="14.567225"><ele>61.800000000000004</ele><time>2026-05-03T10:31:06.902Z</time></trkpt><trkpt lat="42.2182067" lon="14.5673683"><ele>59.400000000000006</ele><time>2026-05-03T10:31:08.902Z</time></trkpt><trkpt lat="42.218185" lon="14.5675083"><ele>57.0</ele><time>2026-05-03T10:31:10.901Z</time></trkpt><trkpt lat="42.2181617" lon="14.56764"><ele>60.8</ele><time>2026-05-03T10:31:12.902Z</time></trkpt><trkpt lat="42.2181417" lon="14.567765"><ele>64.6</ele><time>2026-05-03T10:31:14.901Z</time></trkpt><trkpt lat="42.218115" lon="14.5678817"><ele>68.39999999999999</ele><time>2026-05-03T10:31:16.902Z</time></trkpt><trkpt lat="42.2180917" lon="14.5680067"><ele>72.2</ele><time>2026-05-03T10:31:18.901Z</time></trkpt><trkpt lat="42.2180683" lon="14.56813"><ele>76.0</ele><time>2026-05-03T10:31:20.902Z</time></trkpt><trkpt lat="42.218045" lon="14.5682583"><ele>76.0</ele><time>2026-05-03T10:31:22.902Z</time></trkpt><trkpt lat="42.21801" lon="14.5683833"><ele>76.0</ele><time>2026-05-03T10:31:24.902Z</time></trkpt><trkpt lat="42.2179583" lon="14.5684933"><ele>76.0</ele><time>2026-05-03T10:31:26.902Z</time></trkpt><trkpt lat="42.2179217" lon="14.5685817"><ele>76.0</ele><time>2026-05-03T10:31:28.902Z</time></trkpt><trkpt lat="42.217885" lon="14.5686767"><ele>76.0</ele><time>2026-05-03T10:31:30.901Z</time></trkpt><trkpt lat="42.217825" lon="14.568775"><ele>76.0</ele><time>2026-05-03T10:31:33.902Z</time></trkpt><trkpt lat="42.21779" lon="14.5688717"><ele>73.5</ele><time>2026-05-03T10:31:35.902Z</time></trkpt><trkpt lat="42.217765" lon="14.5689583"><ele>71.0</ele><time>2026-05-03T10:31:37.902Z</time></trkpt><trkpt lat="42.2177133" lon="14.569065"><ele>68.5</ele><time>2026-05-03T10:31:40.901Z</time></trkpt><trkpt lat="42.2176583" lon="14.5691667"><ele>66.0</ele><time>2026-05-03T10:31:43.902Z</time></trkpt><trkpt lat="42.217585" lon="14.569225"><ele>63.49999999999999</ele><time>2026-05-03T10:31:45.901Z</time></trkpt><trkpt lat="42.2175467" lon="14.569295"><ele>61.0</ele><time>2026-05-03T10:31:47.902Z</time></trkpt><trkpt lat="42.2174917" lon="14.5693833"><ele>61.0</ele><time>2026-05-03T10:31:49.902Z</time></trkpt><trkpt lat="42.21744" lon="14.5694717"><ele>60.99999999999999</ele><time>2026-05-03T10:31:51.901Z</time></trkpt><trkpt lat="42.2173683" lon="14.5695733"><ele>60.99999999999999</ele><time>2026-05-03T10:31:53.901Z</time></trkpt><trkpt lat="42.2172967" lon="14.5696667"><ele>61.0</ele><time>2026-05-03T10:31:55.902Z</time></trkpt><trkpt lat="42.21723" lon="14.5697717"><ele>61.0</ele><time>2026-05-03T10:31:57.902Z</time></trkpt><trkpt lat="42.2171567" lon="14.5698883"><ele>61.599999999999994</ele><time>2026-05-03T10:31:59.902Z</time></trkpt><trkpt lat="42.2170783" lon="14.5700067"><ele>62.199999999999996</ele><time>2026-05-03T10:32:01.901Z</time></trkpt><trkpt lat="42.2170133" lon="14.5701117"><ele>62.800000000000004</ele><time>2026-05-03T10:32:03.902Z</time></trkpt><trkpt lat="42.2169567" lon="14.5702133"><ele>63.400000000000006</ele><time>2026-05-03T10:32:05.902Z</time></trkpt><trkpt lat="42.2168883" lon="14.5703317"><ele>64.0</ele><time>2026-05-03T10:32:07.902Z</time></trkpt><trkpt lat="42.2168383" lon="14.5704333"><ele>63.99999999999999</ele><time>2026-05-03T10:32:09.901Z</time></trkpt><trkpt lat="42.2168" lon="14.5705317"><ele>64.0</ele><time>2026-05-03T10:32:11.901Z</time></trkpt><trkpt lat="42.2167767" lon="14.5706167"><ele>64.0</ele><time>2026-05-03T10:32:13.902Z</time></trkpt><trkpt lat="42.2167733" lon="14.570715"><ele>64.0</ele><time>2026-05-03T10:32:15.902Z</time></trkpt><trkpt lat="42.21676" lon="14.570815"><ele>63.99999999999999</ele><time>2026-05-03T10:32:17.901Z</time></trkpt><trkpt lat="42.2167567" lon="14.5709233"><ele>64.0</ele><time>2026-05-03T10:32:19.902Z</time></trkpt><trkpt lat="42.2167467" lon="14.5710383"><ele>63.99999999999999</ele><time>2026-05-03T10:32:21.901Z</time></trkpt><trkpt lat="42.216735" lon="14.5711267"><ele>64.0</ele><time>2026-05-03T10:32:23.901Z</time></trkpt><trkpt lat="42.2167317" lon="14.57125"><ele>64.0</ele><time>2026-05-03T10:32:26.901Z</time></trkpt><trkpt lat="42.2167333" lon="14.5713417"><ele>64.0</ele><time>2026-05-03T10:32:28.901Z</time></trkpt><trkpt lat="42.216695" lon="14.5714617"><ele>63.99999999999999</ele><time>2026-05-03T10:32:30.902Z</time></trkpt><trkpt lat="42.2166933" lon="14.5715733"><ele>64.0</ele><time>2026-05-03T10:32:32.902Z</time></trkpt><trkpt lat="42.2166983" lon="14.5716933"><ele>63.2</ele><time>2026-05-03T10:32:34.902Z</time></trkpt><trkpt lat="42.2167083" lon="14.571825"><ele>62.400000000000006</ele><time>2026-05-03T10:32:36.902Z</time></trkpt><trkpt lat="42.216705" lon="14.571975"><ele>61.6</ele><time>2026-05-03T10:32:38.902Z</time></trkpt><trkpt lat="42.21668" lon="14.5721283"><ele>60.8</ele><time>2026-05-03T10:32:40.902Z</time></trkpt><trkpt lat="42.216655" lon="14.57226"><ele>60.0</ele><time>2026-05-03T10:32:42.901Z</time></trkpt><trkpt lat="42.2166267" lon="14.5723617"><ele>58.833333333333336</ele><time>2026-05-03T10:32:44.902Z</time></trkpt><trkpt lat="42.21659" lon="14.5724467"><ele>57.66666666666667</ele><time>2026-05-03T10:32:46.901Z</time></trkpt><trkpt lat="42.21655" lon="14.57254"><ele>56.5</ele><time>2026-05-03T10:32:48.902Z</time></trkpt><trkpt lat="42.2164967" lon="14.5726417"><ele>55.333333333333336</ele><time>2026-05-03T10:32:50.901Z</time></trkpt><trkpt lat="42.2164467" lon="14.57274"><ele>54.16666666666667</ele><time>2026-05-03T10:32:52.902Z</time></trkpt><trkpt lat="42.2163933" lon="14.5728367"><ele>53.0</ele><time>2026-05-03T10:32:54.902Z</time></trkpt><trkpt lat="42.21634" lon="14.57293"><ele>56.333333333333336</ele><time>2026-05-03T10:32:56.902Z</time></trkpt><trkpt lat="42.2163167" lon="14.5730383"><ele>59.66666666666667</ele><time>2026-05-03T10:32:58.902Z</time></trkpt><trkpt lat="42.2162617" lon="14.57311"><ele>63.0</ele><time>2026-05-03T10:33:00.901Z</time></trkpt><trkpt lat="42.21618" lon="14.5731767"><ele>66.33333333333333</ele><time>2026-05-03T10:33:03.902Z</time></trkpt><trkpt lat="42.21614" lon="14.5732583"><ele>69.66666666666666</ele><time>2026-05-03T10:33:05.902Z</time></trkpt><trkpt lat="42.2160883" lon="14.573375"><ele>73.0</ele><time>2026-05-03T10:33:07.901Z</time></trkpt><trkpt lat="42.2160183" lon="14.5735117"><ele>73.0</ele><time>2026-05-03T10:33:09.902Z</time></trkpt><trkpt lat="42.2159517" lon="14.573645"><ele>73.0</ele><time>2026-05-03T10:33:11.902Z</time></trkpt><trkpt lat="42.21593" lon="14.57378"><ele>73.0</ele><time>2026-05-03T10:33:13.902Z</time></trkpt><trkpt lat="42.2159233" lon="14.5739083"><ele>73.0</ele><time>2026-05-03T10:33:15.902Z</time></trkpt><trkpt lat="42.21592" lon="14.574005"><ele>73.0</ele><time>2026-05-03T10:33:17.902Z</time></trkpt><trkpt lat="42.2158917" lon="14.5741233"><ele>70.83333333333333</ele><time>2026-05-03T10:33:20.901Z</time></trkpt><trkpt lat="42.2158717" lon="14.574225"><ele>68.66666666666666</ele><time>2026-05-03T10:33:23.901Z</time></trkpt><trkpt lat="42.2158467" lon="14.574315"><ele>66.5</ele><time>2026-05-03T10:33:25.902Z</time></trkpt><trkpt lat="42.2158183" lon="14.5744117"><ele>64.33333333333333</ele><time>2026-05-03T10:33:27.901Z</time></trkpt><trkpt lat="42.215785" lon="14.5745217"><ele>62.166666666666664</ele><time>2026-05-03T10:33:29.901Z</time></trkpt><trkpt lat="42.2157533" lon="14.5746333"><ele>60.0</ele><time>2026-05-03T10:33:31.902Z</time></trkpt><trkpt lat="42.2157133" lon="14.5747417"><ele>57.8</ele><time>2026-05-03T10:33:33.901Z</time></trkpt><trkpt lat="42.2156767" lon="14.5748467"><ele>55.6</ele><time>2026-05-03T10:33:35.901Z</time></trkpt><trkpt lat="42.2156183" lon="14.57495"><ele>53.400000000000006</ele><time>2026-05-03T10:33:37.902Z</time></trkpt><trkpt lat="42.2155483" lon="14.5750667"><ele>51.2</ele><time>2026-05-03T10:33:39.902Z</time></trkpt><trkpt lat="42.215475" lon="14.5751783"><ele>49.0</ele><time>2026-05-03T10:33:41.902Z</time></trkpt><trkpt lat="42.2153983" lon="14.5752833"><ele>51.0</ele><time>2026-05-03T10:33:43.902Z</time></trkpt><trkpt lat="42.215315" lon="14.5753617"><ele>53.0</ele><time>2026-05-03T10:33:45.902Z</time></trkpt><trkpt lat="42.2152383" lon="14.57544"><ele>55.00000000000001</ele><time>2026-05-03T10:33:47.902Z</time></trkpt><trkpt lat="42.21519" lon="14.5755317"><ele>57.0</ele><time>2026-05-03T10:33:49.902Z</time></trkpt><trkpt lat="42.2151483" lon="14.5756433"><ele>59.0</ele><time>2026-05-03T10:33:51.902Z</time></trkpt><trkpt lat="42.2151033" lon="14.575765"><ele>59.0</ele><time>2026-05-03T10:33:53.902Z</time></trkpt><trkpt lat="42.215075" lon="14.575895"><ele>59.00000000000001</ele><time>2026-05-03T10:33:55.902Z</time></trkpt><trkpt lat="42.2150583" lon="14.576035"><ele>59.00000000000001</ele><time>2026-05-03T10:33:57.902Z</time></trkpt><trkpt lat="42.2150417" lon="14.57612"><ele>59.0</ele><time>2026-05-03T10:33:58.901Z</time></trkpt><trkpt lat="42.2149983" lon="14.576265"><ele>59.0</ele><time>2026-05-03T10:34:00.902Z</time></trkpt><trkpt lat="42.21495" lon="14.5763933"><ele>57.16666666666667</ele><time>2026-05-03T10:34:02.902Z</time></trkpt><trkpt lat="42.2149117" lon="14.5764967"><ele>55.333333333333336</ele><time>2026-05-03T10:34:04.902Z</time></trkpt><trkpt lat="42.2148867" lon="14.5765933"><ele>53.5</ele><time>2026-05-03T10:34:06.901Z</time></trkpt><trkpt lat="42.21488" lon="14.5766833"><ele>51.66666666666667</ele><time>2026-05-03T10:34:08.901Z</time></trkpt><trkpt lat="42.2148717" lon="14.5768017"><ele>49.833333333333336</ele><time>2026-05-03T10:34:10.902Z</time></trkpt><trkpt lat="42.2148583" lon="14.5769367"><ele>48.0</ele><time>2026-05-03T10:34:12.902Z</time></trkpt><trkpt lat="42.2148317" lon="14.5770683"><ele>51.166666666666664</ele><time>2026-05-03T10:34:14.902Z</time></trkpt><trkpt lat="42.2147983" lon="14.5772133"><ele>54.33333333333333</ele><time>2026-05-03T10:34:16.902Z</time></trkpt><trkpt lat="42.2147783" lon="14.57732"><ele>57.5</ele><time>2026-05-03T10:34:17.902Z</time></trkpt><trkpt lat="42.2147683" lon="14.5774283"><ele>60.666666666666664</ele><time>2026-05-03T10:34:18.902Z</time></trkpt><trkpt lat="42.2147517" lon="14.57754"><ele>63.83333333333333</ele><time>2026-05-03T10:34:19.902Z</time></trkpt><trkpt lat="42.214735" lon="14.5776533"><ele>67.0</ele><time>2026-05-03T10:34:20.902Z</time></trkpt><trkpt lat="42.2147" lon="14.5777633"><ele>65.5</ele><time>2026-05-03T10:34:21.902Z</time></trkpt><trkpt lat="42.2146683" lon="14.5778617"><ele>64.0</ele><time>2026-05-03T10:34:22.902Z</time></trkpt><trkpt lat="42.2146317" lon="14.577955"><ele>62.5</ele><time>2026-05-03T10:34:23.902Z</time></trkpt><trkpt lat="42.2145917" lon="14.5780417"><ele>61.0</ele><time>2026-05-03T10:34:24.901Z</time></trkpt><trkpt lat="42.2145567" lon="14.578125"><ele>59.49999999999999</ele><time>2026-05-03T10:34:25.902Z</time></trkpt><trkpt lat="42.2145167" lon="14.5781933"><ele>58.0</ele><time>2026-05-03T10:34:26.902Z</time></trkpt><trkpt lat="42.2144617" lon="14.5782833"><ele>57.99999999999999</ele><time>2026-05-03T10:34:28.902Z</time></trkpt><trkpt lat="42.2144183" lon="14.5783533"><ele>58.0</ele><time>2026-05-03T10:34:30.902Z</time></trkpt><trkpt lat="42.21438" lon="14.5784533"><ele>58.0</ele><time>2026-05-03T10:34:32.901Z</time></trkpt><trkpt lat="42.214345" lon="14.5785817"><ele>58.0</ele><time>2026-05-03T10:34:34.901Z</time></trkpt><trkpt lat="42.2143183" lon="14.5786617"><ele>57.99999999999999</ele><time>2026-05-03T10:34:35.902Z</time></trkpt><trkpt lat="42.2142967" lon="14.5788067"><ele>58.0</ele><time>2026-05-03T10:34:37.902Z</time></trkpt><trkpt lat="42.21427" lon="14.5789133"><ele>56.49999999999999</ele><time>2026-05-03T10:34:39.902Z</time></trkpt><trkpt lat="42.2142483" lon="14.579"><ele>55.0</ele><time>2026-05-03T10:34:41.901Z</time></trkpt><trkpt lat="42.214215" lon="14.57909"><ele>53.5</ele><time>2026-05-03T10:34:43.902Z</time></trkpt><trkpt lat="42.2141867" lon="14.5791833"><ele>52.0</ele><time>2026-05-03T10:34:45.902Z</time></trkpt><trkpt lat="42.2141683" lon="14.579285"><ele>50.49999999999999</ele><time>2026-05-03T10:34:47.901Z</time></trkpt><trkpt lat="42.2141517" lon="14.5793833"><ele>49.0</ele><time>2026-05-03T10:34:49.901Z</time></trkpt><trkpt lat="42.2141283" lon="14.5794883"><ele>47.49999999999999</ele><time>2026-05-03T10:34:51.901Z</time></trkpt><trkpt lat="42.214115" lon="14.57959"><ele>46.0</ele><time>2026-05-03T10:34:53.901Z</time></trkpt><trkpt lat="42.2140867" lon="14.5797217"><ele>44.5</ele><time>2026-05-03T10:34:55.902Z</time></trkpt><trkpt lat="42.21407" lon="14.5798133"><ele>43.0</ele><time>2026-05-03T10:34:56.902Z</time></trkpt><trkpt lat="42.2140533" lon="14.5799067"><ele>41.5</ele><time>2026-05-03T10:34:57.901Z</time></trkpt><trkpt lat="42.21403" lon="14.5799983"><ele>40.0</ele><time>2026-05-03T10:34:58.902Z</time></trkpt><trkpt lat="42.2139983" lon="14.58008"><ele>41.5</ele><time>2026-05-03T10:34:59.902Z</time></trkpt><trkpt lat="42.213965" lon="14.5801667"><ele>43.0</ele><time>2026-05-03T10:35:00.902Z</time></trkpt><trkpt lat="42.2139317" lon="14.5802417"><ele>44.5</ele><time>2026-05-03T10:35:01.902Z</time></trkpt><trkpt lat="42.2139033" lon="14.5803217"><ele>46.0</ele><time>2026-05-03T10:35:02.902Z</time></trkpt><trkpt lat="42.2138817" lon="14.5804083"><ele>47.49999999999999</ele><time>2026-05-03T10:35:03.901Z</time></trkpt><trkpt lat="42.21386" lon="14.5804967"><ele>49.0</ele><time>2026-05-03T10:35:04.902Z</time></trkpt><trkpt lat="42.213825" lon="14.58066"><ele>49.0</ele><time>2026-05-03T10:35:06.902Z</time></trkpt><trkpt lat="42.2137983" lon="14.5807917"><ele>49.0</ele><time>2026-05-03T10:35:08.901Z</time></trkpt><trkpt lat="42.2137783" lon="14.5808883"><ele>49.0</ele><time>2026-05-03T10:35:10.902Z</time></trkpt><trkpt lat="42.21374" lon="14.581015"><ele>49.0</ele><time>2026-05-03T10:35:12.902Z</time></trkpt><trkpt lat="42.2137283" lon="14.5811783"><ele>49.0</ele><time>2026-05-03T10:35:14.901Z</time></trkpt><trkpt lat="42.2137267" lon="14.5812783"><ele>47.166666666666664</ele><time>2026-05-03T10:35:15.902Z</time></trkpt><trkpt lat="42.2137283" lon="14.5813733"><ele>45.33333333333333</ele><time>2026-05-03T10:35:16.902Z</time></trkpt><trkpt lat="42.2137167" lon="14.5815283"><ele>43.5</ele><time>2026-05-03T10:35:18.902Z</time></trkpt><trkpt lat="42.21377" lon="14.581635"><ele>41.666666666666664</ele><time>2026-05-03T10:35:20.901Z</time></trkpt><trkpt lat="42.21382" lon="14.58169"><ele>39.83333333333333</ele><time>2026-05-03T10:35:21.902Z</time></trkpt><trkpt lat="42.2138717" lon="14.581745"><ele>38.0</ele><time>2026-05-03T10:35:22.902Z</time></trkpt><trkpt lat="42.2139633" lon="14.581825"><ele>35.4</ele><time>2026-05-03T10:35:24.902Z</time></trkpt><trkpt lat="42.21404" lon="14.5818867"><ele>32.8</ele><time>2026-05-03T10:35:26.902Z</time></trkpt><trkpt lat="42.2141183" lon="14.5819633"><ele>30.2</ele><time>2026-05-03T10:35:28.901Z</time></trkpt><trkpt lat="42.2141717" lon="14.5820167"><ele>27.6</ele><time>2026-05-03T10:35:30.901Z</time></trkpt><trkpt lat="42.2141817" lon="14.582155"><ele>25.0</ele><time>2026-05-03T10:35:52.901Z</time></trkpt><trkpt lat="42.214135" lon="14.5822683"><ele>24.000000000000004</ele><time>2026-05-03T10:35:55.901Z</time></trkpt><trkpt lat="42.2141083" lon="14.5823683"><ele>23.0</ele><time>2026-05-03T10:35:57.901Z</time></trkpt><trkpt lat="42.2141" lon="14.5824567"><ele>22.0</ele><time>2026-05-03T10:35:59.902Z</time></trkpt><trkpt lat="42.214175" lon="14.5824583"><ele>21.0</ele><time>2026-05-03T10:36:02.901Z</time></trkpt><trkpt lat="42.214235" lon="14.582385"><ele>20.0</ele><time>2026-05-03T10:36:04.901Z</time></trkpt><trkpt lat="42.21431" lon="14.5823483"><ele>19.0</ele><time>2026-05-03T10:36:06.902Z</time></trkpt><trkpt lat="42.2143983" lon="14.582375"><ele>19.0</ele><time>2026-05-03T10:36:08.901Z</time></trkpt><trkpt lat="42.2144717" lon="14.5824217"><ele>19.0</ele><time>2026-05-03T10:36:10.902Z</time></trkpt><trkpt lat="42.2145383" lon="14.5824883"><ele>19.0</ele><time>2026-05-03T10:36:13.902Z</time></trkpt><trkpt lat="42.214605" lon="14.5825517"><ele>19.0</ele><time>2026-05-03T10:36:17.902Z</time></trkpt><trkpt lat="42.214675" lon="14.5825683"><ele>19.0</ele><time>2026-05-03T10:36:20.901Z</time></trkpt><trkpt lat="42.21475" lon="14.5825283"><ele>19.0</ele><time>2026-05-03T10:36:23.901Z</time></trkpt><trkpt lat="42.2148117" lon="14.58249"><ele>19.0</ele><time>2026-05-03T10:36:25.902Z</time></trkpt><trkpt lat="42.214785" lon="14.5825833"><ele>19.0</ele><time>2026-05-03T10:36:34.901Z</time></trkpt><trkpt lat="42.2147333" lon="14.5826717"><ele>19.0</ele><time>2026-05-03T10:36:36.901Z</time></trkpt><trkpt lat="42.214685" lon="14.5827783"><ele>19.0</ele><time>2026-05-03T10:36:38.902Z</time></trkpt><trkpt lat="42.2146283" lon="14.58289"><ele>19.0</ele><time>2026-05-03T10:36:40.902Z</time></trkpt><trkpt lat="42.2145633" lon="14.5829933"><ele>18.2</ele><time>2026-05-03T10:36:42.902Z</time></trkpt><trkpt lat="42.2144983" lon="14.5831117"><ele>17.4</ele><time>2026-05-03T10:36:44.901Z</time></trkpt><trkpt lat="42.214445" lon="14.58322"><ele>16.6</ele><time>2026-05-03T10:36:46.901Z</time></trkpt><trkpt lat="42.2143683" lon="14.583315"><ele>15.8</ele><time>2026-05-03T10:36:48.902Z</time></trkpt><trkpt lat="42.2142917" lon="14.58341"><ele>15.0</ele><time>2026-05-03T10:36:50.901Z</time></trkpt><trkpt lat="42.2142183" lon="14.5835233"><ele>15.0</ele><time>2026-05-03T10:36:52.902Z</time></trkpt><trkpt lat="42.2141517" lon="14.58363"><ele>15.0</ele><time>2026-05-03T10:36:54.901Z</time></trkpt><trkpt lat="42.21408" lon="14.5837383"><ele>15.0</ele><time>2026-05-03T10:36:56.902Z</time></trkpt><trkpt lat="42.21402" lon="14.5838567"><ele>15.0</ele><time>2026-05-03T10:36:58.901Z</time></trkpt><trkpt lat="42.2139517" lon="14.5839833"><ele>15.0</ele><time>2026-05-03T10:37:00.902Z</time></trkpt><trkpt lat="42.213905" lon="14.58405"><ele>14.4</ele><time>2026-05-03T10:37:01.901Z</time></trkpt><trkpt lat="42.213865" lon="14.5841167"><ele>13.8</ele><time>2026-05-03T10:37:02.902Z</time></trkpt><trkpt lat="42.2137867" lon="14.5842417"><ele>13.2</ele><time>2026-05-03T10:37:04.901Z</time></trkpt><trkpt lat="42.2137217" lon="14.58437"><ele>12.6</ele><time>2026-05-03T10:37:06.902Z</time></trkpt><trkpt lat="42.2136483" lon="14.5845033"><ele>12.0</ele><time>2026-05-03T10:37:08.901Z</time></trkpt><trkpt lat="42.213575" lon="14.58462"><ele>12.0</ele><time>2026-05-03T10:37:10.902Z</time></trkpt><trkpt lat="42.2135" lon="14.5847367"><ele>12.0</ele><time>2026-05-03T10:37:12.902Z</time></trkpt><trkpt lat="42.21346" lon="14.5848117"><ele>12.0</ele><time>2026-05-03T10:37:13.902Z</time></trkpt><trkpt lat="42.2133983" lon="14.58494"><ele>12.0</ele><time>2026-05-03T10:37:15.902Z</time></trkpt><trkpt lat="42.2133367" lon="14.58507"><ele>12.0</ele><time>2026-05-03T10:37:17.902Z</time></trkpt><trkpt lat="42.2132733" lon="14.5851967"><ele>12.0</ele><time>2026-05-03T10:37:19.902Z</time></trkpt><trkpt lat="42.2132083" lon="14.5853167"><ele>12.0</ele><time>2026-05-03T10:37:21.902Z</time></trkpt><trkpt lat="42.2131483" lon="14.585445"><ele>12.0</ele><time>2026-05-03T10:37:23.901Z</time></trkpt><trkpt lat="42.2130967" lon="14.5855683"><ele>12.0</ele><time>2026-05-03T10:37:25.902Z</time></trkpt><trkpt lat="42.2130183" lon="14.5856983"><ele>11.25</ele><time>2026-05-03T10:37:27.902Z</time></trkpt><trkpt lat="42.2129433" lon="14.5858233"><ele>10.5</ele><time>2026-05-03T10:37:29.901Z</time></trkpt><trkpt lat="42.2128833" lon="14.5859533"><ele>9.75</ele><time>2026-05-03T10:37:31.901Z</time></trkpt><trkpt lat="42.2128183" lon="14.5860833"><ele>9.0</ele><time>2026-05-03T10:37:33.902Z</time></trkpt><trkpt lat="42.21276" lon="14.586215"><ele>9.0</ele><time>2026-05-03T10:37:35.902Z</time></trkpt><trkpt lat="42.2126967" lon="14.58635"><ele>9.0</ele><time>2026-05-03T10:37:37.901Z</time></trkpt><trkpt lat="42.2126367" lon="14.5864833"><ele>9.0</ele><time>2026-05-03T10:37:39.901Z</time></trkpt><trkpt lat="42.2125683" lon="14.5866117"><ele>9.0</ele><time>2026-05-03T10:37:41.902Z</time></trkpt><trkpt lat="42.21251" lon="14.5867417"><ele>9.0</ele><time>2026-05-03T10:37:43.901Z</time></trkpt><trkpt lat="42.212445" lon="14.5868767"><ele>9.0</ele><time>2026-05-03T10:37:45.902Z</time></trkpt><trkpt lat="42.2123867" lon="14.5870017"><ele>9.0</ele><time>2026-05-03T10:37:47.902Z</time></trkpt><trkpt lat="42.21232" lon="14.587135"><ele>9.0</ele><time>2026-05-03T10:37:49.902Z</time></trkpt><trkpt lat="42.212245" lon="14.5872667"><ele>11.75</ele><time>2026-05-03T10:37:51.902Z</time></trkpt><trkpt lat="42.2121783" lon="14.587395"><ele>14.5</ele><time>2026-05-03T10:37:53.902Z</time></trkpt><trkpt lat="42.212115" lon="14.587535"><ele>17.25</ele><time>2026-05-03T10:37:55.902Z</time></trkpt><trkpt lat="42.21206" lon="14.5876717"><ele>20.0</ele><time>2026-05-03T10:37:57.901Z</time></trkpt><trkpt lat="42.212" lon="14.5877983"><ele>19.0</ele><time>2026-05-03T10:37:59.902Z</time></trkpt><trkpt lat="42.2119467" lon="14.58792"><ele>18.0</ele><time>2026-05-03T10:38:01.902Z</time></trkpt><trkpt lat="42.2118817" lon="14.5880417"><ele>17.0</ele><time>2026-05-03T10:38:03.902Z</time></trkpt><trkpt lat="42.211825" lon="14.5881717"><ele>16.0</ele><time>2026-05-03T10:38:05.902Z</time></trkpt><trkpt lat="42.2117583" lon="14.5883"><ele>15.0</ele><time>2026-05-03T10:38:07.902Z</time></trkpt><trkpt lat="42.2116983" lon="14.5884183"><ele>15.0</ele><time>2026-05-03T10:38:09.902Z</time></trkpt><trkpt lat="42.2116233" lon="14.58854"><ele>15.0</ele><time>2026-05-03T10:38:11.901Z</time></trkpt><trkpt lat="42.2115567" lon="14.5886883"><ele>15.0</ele><time>2026-05-03T10:38:13.902Z</time></trkpt><trkpt lat="42.21149" lon="14.5888283"><ele>15.0</ele><time>2026-05-03T10:38:15.901Z</time></trkpt><trkpt lat="42.2114333" lon="14.58897"><ele>14.75</ele><time>2026-05-03T10:38:17.902Z</time></trkpt><trkpt lat="42.2113783" lon="14.5891083"><ele>14.5</ele><time>2026-05-03T10:38:19.902Z</time></trkpt><trkpt lat="42.2113183" lon="14.589245"><ele>14.25</ele><time>2026-05-03T10:38:21.902Z</time></trkpt><trkpt lat="42.2112533" lon="14.58938"><ele>14.0</ele><time>2026-05-03T10:38:23.902Z</time></trkpt><trkpt lat="42.211205" lon="14.5895167"><ele>14.0</ele><time>2026-05-03T10:38:25.902Z</time></trkpt><trkpt lat="42.21115" lon="14.5896567"><ele>13.999999999999998</ele><time>2026-05-03T10:38:27.901Z</time></trkpt><trkpt lat="42.2110767" lon="14.589795"><ele>13.999999999999998</ele><time>2026-05-03T10:38:29.901Z</time></trkpt><trkpt lat="42.2110417" lon="14.589875"><ele>14.0</ele><time>2026-05-03T10:38:30.902Z</time></trkpt><trkpt lat="42.211015" lon="14.5899567"><ele>14.0</ele><time>2026-05-03T10:38:31.901Z</time></trkpt><trkpt lat="42.210965" lon="14.5901033"><ele>14.0</ele><time>2026-05-03T10:38:33.901Z</time></trkpt><trkpt lat="42.2109067" lon="14.590245"><ele>14.0</ele><time>2026-05-03T10:38:35.902Z</time></trkpt><trkpt lat="42.2108517" lon="14.5903917"><ele>14.0</ele><time>2026-05-03T10:38:37.902Z</time></trkpt><trkpt lat="42.21079" lon="14.590535"><ele>14.0</ele><time>2026-05-03T10:38:39.902Z</time></trkpt><trkpt lat="42.2107383" lon="14.59068"><ele>14.25</ele><time>2026-05-03T10:38:41.902Z</time></trkpt><trkpt lat="42.2106917" lon="14.5908167"><ele>14.5</ele><time>2026-05-03T10:38:43.901Z</time></trkpt><trkpt lat="42.21064" lon="14.5909583"><ele>14.75</ele><time>2026-05-03T10:38:45.902Z</time></trkpt><trkpt lat="42.2105767" lon="14.5910917"><ele>15.0</ele><time>2026-05-03T10:38:47.902Z</time></trkpt><trkpt lat="42.2105233" lon="14.5912317"><ele>15.0</ele><time>2026-05-03T10:38:49.902Z</time></trkpt><trkpt lat="42.210465" lon="14.5913667"><ele>15.0</ele><time>2026-05-03T10:38:51.902Z</time></trkpt><trkpt lat="42.2104033" lon="14.5915083"><ele>15.0</ele><time>2026-05-03T10:38:53.901Z</time></trkpt><trkpt lat="42.2103417" lon="14.5916517"><ele>15.0</ele><time>2026-05-03T10:38:55.901Z</time></trkpt><trkpt lat="42.2102833" lon="14.591785"><ele>15.0</ele><time>2026-05-03T10:38:57.902Z</time></trkpt><trkpt lat="42.2102217" lon="14.5919133"><ele>15.0</ele><time>2026-05-03T10:38:59.902Z</time></trkpt><trkpt lat="42.2101667" lon="14.59203"><ele>15.0</ele><time>2026-05-03T10:39:01.902Z</time></trkpt><trkpt lat="42.2101" lon="14.5921533"><ele>15.0</ele><time>2026-05-03T10:39:03.901Z</time></trkpt><trkpt lat="42.210045" lon="14.5922667"><ele>15.0</ele><time>2026-05-03T10:39:05.902Z</time></trkpt><trkpt lat="42.2099783" lon="14.592395"><ele>14.6</ele><time>2026-05-03T10:39:07.901Z</time></trkpt><trkpt lat="42.209905" lon="14.592515"><ele>14.2</ele><time>2026-05-03T10:39:09.902Z</time></trkpt><trkpt lat="42.2098367" lon="14.5926417"><ele>13.8</ele><time>2026-05-03T10:39:11.901Z</time></trkpt><trkpt lat="42.2097667" lon="14.5927583"><ele>13.4</ele><time>2026-05-03T10:39:13.902Z</time></trkpt><trkpt lat="42.209705" lon="14.592865"><ele>13.0</ele><time>2026-05-03T10:39:15.902Z</time></trkpt><trkpt lat="42.2096417" lon="14.5929717"><ele>13.0</ele><time>2026-05-03T10:39:17.902Z</time></trkpt><trkpt lat="42.2095683" lon="14.5930817"><ele>13.0</ele><time>2026-05-03T10:39:19.901Z</time></trkpt><trkpt lat="42.2095083" lon="14.593195"><ele>13.0</ele><time>2026-05-03T10:39:21.902Z</time></trkpt><trkpt lat="42.2094483" lon="14.59329"><ele>13.0</ele><time>2026-05-03T10:39:23.902Z</time></trkpt><trkpt lat="42.2093883" lon="14.5934133"><ele>13.0</ele><time>2026-05-03T10:39:25.902Z</time></trkpt><trkpt lat="42.2093183" lon="14.5935517"><ele>12.999999999999998</ele><time>2026-05-03T10:39:27.902Z</time></trkpt><trkpt lat="42.2092817" lon="14.593625"><ele>13.0</ele><time>2026-05-03T10:39:28.902Z</time></trkpt><trkpt lat="42.209245" lon="14.5937017"><ele>13.0</ele><time>2026-05-03T10:39:29.902Z</time></trkpt><trkpt lat="42.2091733" lon="14.593845"><ele>13.0</ele><time>2026-05-03T10:39:31.902Z</time></trkpt><trkpt lat="42.2091317" lon="14.5939117"><ele>12.999999999999998</ele><time>2026-05-03T10:39:32.901Z</time></trkpt><trkpt lat="42.2090533" lon="14.5940367"><ele>13.0</ele><time>2026-05-03T10:39:34.901Z</time></trkpt><trkpt lat="42.20898" lon="14.5941467"><ele>13.2</ele><time>2026-05-03T10:39:36.901Z</time></trkpt><trkpt lat="42.2089133" lon="14.5942617"><ele>13.4</ele><time>2026-05-03T10:39:38.902Z</time></trkpt><trkpt lat="42.2088367" lon="14.5943667"><ele>13.599999999999998</ele><time>2026-05-03T10:39:40.901Z</time></trkpt><trkpt lat="42.20876" lon="14.5944833"><ele>13.799999999999999</ele><time>2026-05-03T10:39:42.902Z</time></trkpt><trkpt lat="42.208715" lon="14.594545"><ele>14.0</ele><time>2026-05-03T10:39:43.902Z</time></trkpt><trkpt lat="42.208655" lon="14.594665"><ele>14.000000000000002</ele><time>2026-05-03T10:39:45.902Z</time></trkpt><trkpt lat="42.2085883" lon="14.5947917"><ele>14.0</ele><time>2026-05-03T10:39:47.902Z</time></trkpt><trkpt lat="42.2085517" lon="14.5948617"><ele>14.0</ele><time>2026-05-03T10:39:48.902Z</time></trkpt><trkpt lat="42.2085183" lon="14.5949383"><ele>14.0</ele><time>2026-05-03T10:39:49.901Z</time></trkpt><trkpt lat="42.2084717" lon="14.5950117"><ele>14.000000000000002</ele><time>2026-05-03T10:39:50.902Z</time></trkpt><trkpt lat="42.2084133" lon="14.595145"><ele>14.0</ele><time>2026-05-03T10:39:52.901Z</time></trkpt><trkpt lat="42.208345" lon="14.5952667"><ele>15.0</ele><time>2026-05-03T10:39:54.901Z</time></trkpt><trkpt lat="42.2082767" lon="14.5953983"><ele>16.0</ele><time>2026-05-03T10:39:56.901Z</time></trkpt><trkpt lat="42.2082067" lon="14.5955233"><ele>17.0</ele><time>2026-05-03T10:39:58.901Z</time></trkpt><trkpt lat="42.2081383" lon="14.59565"><ele>18.0</ele><time>2026-05-03T10:40:00.901Z</time></trkpt><trkpt lat="42.2080733" lon="14.5957833"><ele>18.0</ele><time>2026-05-03T10:40:02.901Z</time></trkpt><trkpt lat="42.2080167" lon="14.5959133"><ele>18.0</ele><time>2026-05-03T10:40:04.901Z</time></trkpt><trkpt lat="42.2079617" lon="14.59604"><ele>18.0</ele><time>2026-05-03T10:40:06.901Z</time></trkpt><trkpt lat="42.2078983" lon="14.596155"><ele>18.0</ele><time>2026-05-03T10:40:08.901Z</time></trkpt><trkpt lat="42.2078383" lon="14.5962883"><ele>18.0</ele><time>2026-05-03T10:40:10.9Z</time></trkpt><trkpt lat="42.207785" lon="14.5964117"><ele>17.0</ele><time>2026-05-03T10:40:12.901Z</time></trkpt><trkpt lat="42.2077333" lon="14.5965483"><ele>16.0</ele><time>2026-05-03T10:40:14.901Z</time></trkpt><trkpt lat="42.2076817" lon="14.5966817"><ele>15.0</ele><time>2026-05-03T10:40:16.901Z</time></trkpt><trkpt lat="42.2076367" lon="14.59683"><ele>14.0</ele><time>2026-05-03T10:40:18.901Z</time></trkpt><trkpt lat="42.2075983" lon="14.5969633"><ele>15.0</ele><time>2026-05-03T10:40:20.901Z</time></trkpt><trkpt lat="42.2075383" lon="14.5970933"><ele>15.999999999999998</ele><time>2026-05-03T10:40:22.901Z</time></trkpt><trkpt lat="42.2074733" lon="14.59723"><ele>17.0</ele><time>2026-05-03T10:40:24.901Z</time></trkpt><trkpt lat="42.2074133" lon="14.597365"><ele>18.0</ele><time>2026-05-03T10:40:26.901Z</time></trkpt><trkpt lat="42.2073533" lon="14.59747"><ele>19.0</ele><time>2026-05-03T10:40:28.901Z</time></trkpt><trkpt lat="42.2072967" lon="14.5975867"><ele>19.0</ele><time>2026-05-03T10:40:30.901Z</time></trkpt><trkpt lat="42.20724" lon="14.597715"><ele>19.0</ele><time>2026-05-03T10:40:32.9Z</time></trkpt><trkpt lat="42.2071983" lon="14.5978367"><ele>19.0</ele><time>2026-05-03T10:40:34.901Z</time></trkpt><trkpt lat="42.2071433" lon="14.59796"><ele>19.0</ele><time>2026-05-03T10:40:36.901Z</time></trkpt><trkpt lat="42.2071117" lon="14.5980383"><ele>19.0</ele><time>2026-05-03T10:40:37.901Z</time></trkpt><trkpt lat="42.207045" lon="14.5981667"><ele>18.0</ele><time>2026-05-03T10:40:39.901Z</time></trkpt><trkpt lat="42.2069717" lon="14.5982933"><ele>17.0</ele><time>2026-05-03T10:40:41.9Z</time></trkpt><trkpt lat="42.206915" lon="14.5984183"><ele>16.0</ele><time>2026-05-03T10:40:43.901Z</time></trkpt><trkpt lat="42.2068583" lon="14.598555"><ele>15.0</ele><time>2026-05-03T10:40:45.901Z</time></trkpt><trkpt lat="42.2067983" lon="14.598695"><ele>13.25</ele><time>2026-05-03T10:40:47.901Z</time></trkpt><trkpt lat="42.2067433" lon="14.59883"><ele>11.5</ele><time>2026-05-03T10:40:49.9Z</time></trkpt><trkpt lat="42.2066883" lon="14.5989683"><ele>9.75</ele><time>2026-05-03T10:40:51.901Z</time></trkpt><trkpt lat="42.2066267" lon="14.5990983"><ele>8.0</ele><time>2026-05-03T10:40:53.9Z</time></trkpt><trkpt lat="42.20656" lon="14.5992283"><ele>8.0</ele><time>2026-05-03T10:40:55.901Z</time></trkpt><trkpt lat="42.2065117" lon="14.599355"><ele>8.0</ele><time>2026-05-03T10:40:57.901Z</time></trkpt><trkpt lat="42.2064533" lon="14.59949"><ele>8.0</ele><time>2026-05-03T10:40:59.901Z</time></trkpt><trkpt lat="42.2063933" lon="14.5996133"><ele>8.0</ele><time>2026-05-03T10:41:01.9Z</time></trkpt><trkpt lat="42.2063383" lon="14.59974"><ele>8.0</ele><time>2026-05-03T10:41:03.901Z</time></trkpt><trkpt lat="42.206285" lon="14.59986"><ele>8.0</ele><time>2026-05-03T10:41:05.901Z</time></trkpt><trkpt lat="42.2062317" lon="14.59998"><ele>8.0</ele><time>2026-05-03T10:41:07.901Z</time></trkpt><trkpt lat="42.206175" lon="14.6001083"><ele>8.0</ele><time>2026-05-03T10:41:09.901Z</time></trkpt><trkpt lat="42.2061217" lon="14.60024"><ele>8.0</ele><time>2026-05-03T10:41:11.9Z</time></trkpt><trkpt lat="42.206065" lon="14.6003683"><ele>8.0</ele><time>2026-05-03T10:41:13.901Z</time></trkpt><trkpt lat="42.20601" lon="14.6005"><ele>8.0</ele><time>2026-05-03T10:41:15.9Z</time></trkpt><trkpt lat="42.2059533" lon="14.6006317"><ele>8.0</ele><time>2026-05-03T10:41:17.901Z</time></trkpt><trkpt lat="42.20592" lon="14.6007083"><ele>8.0</ele><time>2026-05-03T10:41:18.901Z</time></trkpt><trkpt lat="42.2058567" lon="14.6008533"><ele>8.0</ele><time>2026-05-03T10:41:20.9Z</time></trkpt><trkpt lat="42.205795" lon="14.600995"><ele>8.0</ele><time>2026-05-03T10:41:22.901Z</time></trkpt><trkpt lat="42.205765" lon="14.6010717"><ele>8.0</ele><time>2026-05-03T10:41:23.901Z</time></trkpt><trkpt lat="42.2057383" lon="14.6011567"><ele>8.0</ele><time>2026-05-03T10:41:24.901Z</time></trkpt><trkpt lat="42.205685" lon="14.6012933"><ele>8.0</ele><time>2026-05-03T10:41:26.901Z</time></trkpt><trkpt lat="42.20562" lon="14.60142"><ele>8.0</ele><time>2026-05-03T10:41:28.901Z</time></trkpt><trkpt lat="42.2055567" lon="14.6015383"><ele>8.0</ele><time>2026-05-03T10:41:30.901Z</time></trkpt><trkpt lat="42.2055033" lon="14.6016717"><ele>7.75</ele><time>2026-05-03T10:41:32.901Z</time></trkpt><trkpt lat="42.20545" lon="14.601815"><ele>7.5</ele><time>2026-05-03T10:41:34.901Z</time></trkpt><trkpt lat="42.20539" lon="14.6019417"><ele>7.25</ele><time>2026-05-03T10:41:36.901Z</time></trkpt><trkpt lat="42.205325" lon="14.6020683"><ele>7.0</ele><time>2026-05-03T10:41:38.9Z</time></trkpt><trkpt lat="42.2052633" lon="14.602195"><ele>7.0</ele><time>2026-05-03T10:41:40.901Z</time></trkpt><trkpt lat="42.2052117" lon="14.6023217"><ele>7.0</ele><time>2026-05-03T10:41:42.9Z</time></trkpt><trkpt lat="42.2051533" lon="14.6024517"><ele>7.0</ele><time>2026-05-03T10:41:44.9Z</time></trkpt><trkpt lat="42.2051033" lon="14.6025883"><ele>7.0</ele><time>2026-05-03T10:41:46.9Z</time></trkpt><trkpt lat="42.2050433" lon="14.6027267"><ele>6.3999999999999995</ele><time>2026-05-03T10:41:48.901Z</time></trkpt><trkpt lat="42.2049833" lon="14.60286"><ele>5.799999999999999</ele><time>2026-05-03T10:41:50.901Z</time></trkpt><trkpt lat="42.2049267" lon="14.602985"><ele>5.2</ele><time>2026-05-03T10:41:52.9Z</time></trkpt><trkpt lat="42.2048683" lon="14.6031"><ele>4.6</ele><time>2026-05-03T10:41:54.901Z</time></trkpt><trkpt lat="42.2048117" lon="14.60323"><ele>4.0</ele><time>2026-05-03T10:41:56.901Z</time></trkpt><trkpt lat="42.2047583" lon="14.603365"><ele>3.4000000000000004</ele><time>2026-05-03T10:41:58.901Z</time></trkpt><trkpt lat="42.204705" lon="14.603485"><ele>2.8000000000000003</ele><time>2026-05-03T10:42:00.9Z</time></trkpt><trkpt lat="42.204635" lon="14.60359"><ele>2.2</ele><time>2026-05-03T10:42:02.901Z</time></trkpt><trkpt lat="42.2045617" lon="14.6037117"><ele>1.6</ele><time>2026-05-03T10:42:04.901Z</time></trkpt><trkpt lat="42.2045067" lon="14.6038567"><ele>1.0</ele><time>2026-05-03T10:42:06.901Z</time></trkpt><trkpt lat="42.204455" lon="14.60399"><ele>1.0</ele><time>2026-05-03T10:42:08.9Z</time></trkpt><trkpt lat="42.204395" lon="14.6041167"><ele>1.0</ele><time>2026-05-03T10:42:10.901Z</time></trkpt><trkpt lat="42.2043383" lon="14.6042383"><ele>1.0</ele><time>2026-05-03T10:42:12.9Z</time></trkpt><trkpt lat="42.2042783" lon="14.6043667"><ele>1.0</ele><time>2026-05-03T10:42:14.901Z</time></trkpt><trkpt lat="42.2042283" lon="14.6045017"><ele>1.0</ele><time>2026-05-03T10:42:16.901Z</time></trkpt><trkpt lat="42.2041717" lon="14.6046417"><ele>1.0</ele><time>2026-05-03T10:42:18.9Z</time></trkpt><trkpt lat="42.2041133" lon="14.6047783"><ele>1.0</ele><time>2026-05-03T10:42:20.901Z</time></trkpt><trkpt lat="42.20405" lon="14.6049017"><ele>1.0</ele><time>2026-05-03T10:42:22.901Z</time></trkpt><trkpt lat="42.2039933" lon="14.6050317"><ele>1.0</ele><time>2026-05-03T10:42:24.901Z</time></trkpt><trkpt lat="42.20394" lon="14.6051617"><ele>1.0</ele><time>2026-05-03T10:42:26.901Z</time></trkpt><trkpt lat="42.2038817" lon="14.6052817"><ele>1.0</ele><time>2026-05-03T10:42:28.9Z</time></trkpt><trkpt lat="42.203825" lon="14.605415"><ele>1.0</ele><time>2026-05-03T10:42:30.901Z</time></trkpt><trkpt lat="42.20377" lon="14.6055383"><ele>1.0</ele><time>2026-05-03T10:42:32.901Z</time></trkpt><trkpt lat="42.2037267" lon="14.6056667"><ele>1.0</ele><time>2026-05-03T10:42:34.901Z</time></trkpt><trkpt lat="42.2037017" lon="14.6057467"><ele>1.0</ele><time>2026-05-03T10:42:35.901Z</time></trkpt><trkpt lat="42.20365" lon="14.6058667"><ele>1.0</ele><time>2026-05-03T10:42:37.901Z</time></trkpt><trkpt lat="42.2035917" lon="14.60599"><ele>1.0</ele><time>2026-05-03T10:42:39.9Z</time></trkpt><trkpt lat="42.2035333" lon="14.60612"><ele>1.0</ele><time>2026-05-03T10:42:41.901Z</time></trkpt><trkpt lat="42.2034767" lon="14.6062417"><ele>1.0</ele><time>2026-05-03T10:42:43.901Z</time></trkpt><trkpt lat="42.203415" lon="14.6063717"><ele>1.0</ele><time>2026-05-03T10:42:45.901Z</time></trkpt><trkpt lat="42.203355" lon="14.6065"><ele>1.0</ele><time>2026-05-03T10:42:47.9Z</time></trkpt><trkpt lat="42.2033" lon="14.606625"><ele>1.0</ele><time>2026-05-03T10:42:49.901Z</time></trkpt><trkpt lat="42.203245" lon="14.6067633"><ele>1.0</ele><time>2026-05-03T10:42:51.901Z</time></trkpt><trkpt lat="42.2031883" lon="14.606895"><ele>1.0</ele><time>2026-05-03T10:42:53.901Z</time></trkpt><trkpt lat="42.203135" lon="14.6070217"><ele>1.4</ele><time>2026-05-03T10:42:55.901Z</time></trkpt><trkpt lat="42.20308" lon="14.6071517"><ele>1.8</ele><time>2026-05-03T10:42:57.9Z</time></trkpt><trkpt lat="42.2030267" lon="14.6072917"><ele>2.1999999999999997</ele><time>2026-05-03T10:42:59.901Z</time></trkpt><trkpt lat="42.202975" lon="14.6074183"><ele>2.6</ele><time>2026-05-03T10:43:01.901Z</time></trkpt><trkpt lat="42.202925" lon="14.6075383"><ele>3.0</ele><time>2026-05-03T10:43:03.901Z</time></trkpt><trkpt lat="42.2028733" lon="14.6076467"><ele>3.0</ele><time>2026-05-03T10:43:05.901Z</time></trkpt><trkpt lat="42.202825" lon="14.6077433"><ele>3.0</ele><time>2026-05-03T10:43:07.901Z</time></trkpt><trkpt lat="42.2027767" lon="14.60784"><ele>3.0</ele><time>2026-05-03T10:43:09.901Z</time></trkpt><trkpt lat="42.2027233" lon="14.6079483"><ele>3.0</ele><time>2026-05-03T10:43:11.901Z</time></trkpt><trkpt lat="42.2026733" lon="14.6080717"><ele>3.0</ele><time>2026-05-03T10:43:13.901Z</time></trkpt><trkpt lat="42.20262" lon="14.6081983"><ele>3.2</ele><time>2026-05-03T10:43:15.901Z</time></trkpt><trkpt lat="42.2025667" lon="14.60833"><ele>3.4</ele><time>2026-05-03T10:43:17.9Z</time></trkpt><trkpt lat="42.2025133" lon="14.60846"><ele>3.6000000000000005</ele><time>2026-05-03T10:43:19.901Z</time></trkpt><trkpt lat="42.202465" lon="14.6085933"><ele>3.8000000000000003</ele><time>2026-05-03T10:43:21.901Z</time></trkpt><trkpt lat="42.2024133" lon="14.60873"><ele>4.0</ele><time>2026-05-03T10:43:23.901Z</time></trkpt><trkpt lat="42.2023633" lon="14.6088617"><ele>3.8000000000000003</ele><time>2026-05-03T10:43:25.9Z</time></trkpt><trkpt lat="42.202315" lon="14.6090017"><ele>3.6000000000000005</ele><time>2026-05-03T10:43:27.901Z</time></trkpt><trkpt lat="42.2022583" lon="14.6091267"><ele>3.4</ele><time>2026-05-03T10:43:29.901Z</time></trkpt><trkpt lat="42.2022067" lon="14.6092467"><ele>3.2</ele><time>2026-05-03T10:43:31.901Z</time></trkpt><trkpt lat="42.2021483" lon="14.6093767"><ele>3.0</ele><time>2026-05-03T10:43:33.901Z</time></trkpt><trkpt lat="42.2020917" lon="14.609505"><ele>3.0</ele><time>2026-05-03T10:43:35.901Z</time></trkpt><trkpt lat="42.20204" lon="14.6096333"><ele>3.0</ele><time>2026-05-03T10:43:37.901Z</time></trkpt><trkpt lat="42.2019933" lon="14.6097617"><ele>3.0</ele><time>2026-05-03T10:43:39.901Z</time></trkpt><trkpt lat="42.20195" lon="14.6098933"><ele>3.0</ele><time>2026-05-03T10:43:41.901Z</time></trkpt><trkpt lat="42.2019433" lon="14.6100483"><ele>3.0</ele><time>2026-05-03T10:43:43.901Z</time></trkpt><trkpt lat="42.2019433" lon="14.6101367"><ele>3.0</ele><time>2026-05-03T10:43:44.9Z</time></trkpt><trkpt lat="42.2019383" lon="14.6102217"><ele>3.0</ele><time>2026-05-03T10:43:45.901Z</time></trkpt><trkpt lat="42.2019367" lon="14.6103133"><ele>3.0</ele><time>2026-05-03T10:43:46.901Z</time></trkpt><trkpt lat="42.20194" lon="14.6103983"><ele>3.0</ele><time>2026-05-03T10:43:47.901Z</time></trkpt><trkpt lat="42.2019367" lon="14.61049"><ele>3.0</ele><time>2026-05-03T10:43:48.901Z</time></trkpt><trkpt lat="42.20189" lon="14.610635"><ele>3.0</ele><time>2026-05-03T10:43:50.901Z</time></trkpt><trkpt lat="42.2018333" lon="14.6107733"><ele>3.4</ele><time>2026-05-03T10:43:52.901Z</time></trkpt><trkpt lat="42.2017783" lon="14.6109083"><ele>3.8</ele><time>2026-05-03T10:43:54.9Z</time></trkpt><trkpt lat="42.2017533" lon="14.6109867"><ele>4.2</ele><time>2026-05-03T10:43:55.901Z</time></trkpt><trkpt lat="42.2017017" lon="14.6111233"><ele>4.6</ele><time>2026-05-03T10:43:57.901Z</time></trkpt><trkpt lat="42.2016483" lon="14.6112683"><ele>5.0</ele><time>2026-05-03T10:43:59.9Z</time></trkpt><trkpt lat="42.2016" lon="14.611415"><ele>5.0</ele><time>2026-05-03T10:44:01.901Z</time></trkpt><trkpt lat="42.2015583" lon="14.6115583"><ele>5.0</ele><time>2026-05-03T10:44:03.9Z</time></trkpt><trkpt lat="42.201515" lon="14.6116917"><ele>5.0</ele><time>2026-05-03T10:44:05.901Z</time></trkpt><trkpt lat="42.20147" lon="14.611845"><ele>5.0</ele><time>2026-05-03T10:44:07.9Z</time></trkpt><trkpt lat="42.2014267" lon="14.6119917"><ele>5.2</ele><time>2026-05-03T10:44:09.901Z</time></trkpt><trkpt lat="42.2013867" lon="14.612135"><ele>5.4</ele><time>2026-05-03T10:44:11.901Z</time></trkpt><trkpt lat="42.201345" lon="14.6122683"><ele>5.6</ele><time>2026-05-03T10:44:13.9Z</time></trkpt><trkpt lat="42.2013067" lon="14.6123967"><ele>5.8</ele><time>2026-05-03T10:44:15.901Z</time></trkpt><trkpt lat="42.20127" lon="14.61253"><ele>6.0</ele><time>2026-05-03T10:44:17.901Z</time></trkpt><trkpt lat="42.20123" lon="14.612665"><ele>6.0</ele><time>2026-05-03T10:44:19.901Z</time></trkpt><trkpt lat="42.2011967" lon="14.6127967"><ele>6.0</ele><time>2026-05-03T10:44:21.9Z</time></trkpt><trkpt lat="42.2011617" lon="14.6129183"><ele>6.0</ele><time>2026-05-03T10:44:23.901Z</time></trkpt><trkpt lat="42.2011233" lon="14.6130367"><ele>6.0</ele><time>2026-05-03T10:44:25.901Z</time></trkpt><trkpt lat="42.2010917" lon="14.6131583"><ele>6.0</ele><time>2026-05-03T10:44:27.9Z</time></trkpt><trkpt lat="42.2010467" lon="14.6132733"><ele>6.166666666666667</ele><time>2026-05-03T10:44:29.9Z</time></trkpt><trkpt lat="42.2010067" lon="14.6133883"><ele>6.333333333333334</ele><time>2026-05-03T10:44:31.901Z</time></trkpt><trkpt lat="42.200975" lon="14.6134983"><ele>6.5</ele><time>2026-05-03T10:44:33.9Z</time></trkpt><trkpt lat="42.20094" lon="14.6136083"><ele>6.666666666666667</ele><time>2026-05-03T10:44:35.9Z</time></trkpt><trkpt lat="42.2009017" lon="14.6137167"><ele>6.833333333333334</ele><time>2026-05-03T10:44:37.901Z</time></trkpt><trkpt lat="42.2008633" lon="14.613825"><ele>7.0</ele><time>2026-05-03T10:44:39.901Z</time></trkpt><trkpt lat="42.2008283" lon="14.6139467"><ele>6.6</ele><time>2026-05-03T10:44:41.9Z</time></trkpt><trkpt lat="42.2008" lon="14.6140567"><ele>6.199999999999999</ele><time>2026-05-03T10:44:43.9Z</time></trkpt><trkpt lat="42.200765" lon="14.6141683"><ele>5.8</ele><time>2026-05-03T10:44:45.901Z</time></trkpt><trkpt lat="42.200735" lon="14.61428"><ele>5.4</ele><time>2026-05-03T10:44:47.901Z</time></trkpt><trkpt lat="42.2006983" lon="14.6144067"><ele>5.0</ele><time>2026-05-03T10:44:49.901Z</time></trkpt><trkpt lat="42.2006733" lon="14.614535"><ele>4.6</ele><time>2026-05-03T10:44:51.9Z</time></trkpt><trkpt lat="42.2006617" lon="14.6146817"><ele>4.2</ele><time>2026-05-03T10:44:53.9Z</time></trkpt><trkpt lat="42.2006667" lon="14.6148217"><ele>3.8</ele><time>2026-05-03T10:44:55.901Z</time></trkpt><trkpt lat="42.2006483" lon="14.614975"><ele>3.4</ele><time>2026-05-03T10:44:57.901Z</time></trkpt><trkpt lat="42.2006033" lon="14.615095"><ele>3.0</ele><time>2026-05-03T10:44:59.901Z</time></trkpt><trkpt lat="42.2005517" lon="14.6151883"><ele>3.2</ele><time>2026-05-03T10:45:01.901Z</time></trkpt><trkpt lat="42.2005" lon="14.6152733"><ele>3.4</ele><time>2026-05-03T10:45:03.901Z</time></trkpt><trkpt lat="42.2004367" lon="14.6153633"><ele>3.6000000000000005</ele><time>2026-05-03T10:45:05.9Z</time></trkpt><trkpt lat="42.200375" lon="14.6154617"><ele>3.8000000000000003</ele><time>2026-05-03T10:45:07.901Z</time></trkpt><trkpt lat="42.2003217" lon="14.61558"><ele>4.0</ele><time>2026-05-03T10:45:09.9Z</time></trkpt><trkpt lat="42.2002833" lon="14.6156967"><ele>4.0</ele><time>2026-05-03T10:45:11.901Z</time></trkpt><trkpt lat="42.20024" lon="14.6158117"><ele>4.0</ele><time>2026-05-03T10:45:13.9Z</time></trkpt><trkpt lat="42.2001933" lon="14.6159283"><ele>4.0</ele><time>2026-05-03T10:45:15.901Z</time></trkpt><trkpt lat="42.2001517" lon="14.6160533"><ele>4.0</ele><time>2026-05-03T10:45:17.901Z</time></trkpt><trkpt lat="42.2001067" lon="14.6161817"><ele>4.0</ele><time>2026-05-03T10:45:19.901Z</time></trkpt><trkpt lat="42.2000583" lon="14.6163133"><ele>4.4</ele><time>2026-05-03T10:45:21.9Z</time></trkpt><trkpt lat="42.200015" lon="14.61646"><ele>4.800000000000001</ele><time>2026-05-03T10:45:23.901Z</time></trkpt><trkpt lat="42.1999633" lon="14.6165983"><ele>5.199999999999999</ele><time>2026-05-03T10:45:25.901Z</time></trkpt><trkpt lat="42.1999183" lon="14.6167333"><ele>5.6</ele><time>2026-05-03T10:45:27.901Z</time></trkpt><trkpt lat="42.1998783" lon="14.6168633"><ele>6.0</ele><time>2026-05-03T10:45:29.901Z</time></trkpt><trkpt lat="42.1998283" lon="14.6169883"><ele>6.0</ele><time>2026-05-03T10:45:31.9Z</time></trkpt><trkpt lat="42.19978" lon="14.6171183"><ele>6.0</ele><time>2026-05-03T10:45:33.901Z</time></trkpt><trkpt lat="42.19974" lon="14.6172467"><ele>6.0</ele><time>2026-05-03T10:45:35.901Z</time></trkpt><trkpt lat="42.1996967" lon="14.6173833"><ele>6.0</ele><time>2026-05-03T10:45:37.901Z</time></trkpt><trkpt lat="42.19965" lon="14.61752"><ele>6.0</ele><time>2026-05-03T10:45:39.901Z</time></trkpt><trkpt lat="42.1995967" lon="14.6176633"><ele>6.0</ele><time>2026-05-03T10:45:41.901Z</time></trkpt><trkpt lat="42.1995583" lon="14.6178017"><ele>6.0</ele><time>2026-05-03T10:45:43.901Z</time></trkpt><trkpt lat="42.199515" lon="14.617935"><ele>6.0</ele><time>2026-05-03T10:45:45.901Z</time></trkpt><trkpt lat="42.1994683" lon="14.61807"><ele>6.0</ele><time>2026-05-03T10:45:47.901Z</time></trkpt><trkpt lat="42.1994233" lon="14.6182"><ele>6.0</ele><time>2026-05-03T10:45:49.901Z</time></trkpt><trkpt lat="42.1993767" lon="14.6183333"><ele>5.3999999999999995</ele><time>2026-05-03T10:45:51.9Z</time></trkpt><trkpt lat="42.1993367" lon="14.6184617"><ele>4.8</ele><time>2026-05-03T10:45:53.901Z</time></trkpt><trkpt lat="42.1992917" lon="14.618585"><ele>4.199999999999999</ele><time>2026-05-03T10:45:55.9Z</time></trkpt><trkpt lat="42.19924" lon="14.6187117"><ele>3.5999999999999996</ele><time>2026-05-03T10:45:57.901Z</time></trkpt><trkpt lat="42.1992067" lon="14.61884"><ele>3.0</ele><time>2026-05-03T10:45:59.901Z</time></trkpt><trkpt lat="42.1991667" lon="14.6189617"><ele>2.8</ele><time>2026-05-03T10:46:01.901Z</time></trkpt><trkpt lat="42.1991267" lon="14.619085"><ele>2.5999999999999996</ele><time>2026-05-03T10:46:03.9Z</time></trkpt><trkpt lat="42.1990833" lon="14.6192133"><ele>2.4000000000000004</ele><time>2026-05-03T10:46:05.901Z</time></trkpt><trkpt lat="42.199045" lon="14.619345"><ele>2.2</ele><time>2026-05-03T10:46:07.901Z</time></trkpt><trkpt lat="42.1990033" lon="14.61948"><ele>2.0</ele><time>2026-05-03T10:46:09.901Z</time></trkpt><trkpt lat="42.19896" lon="14.61962"><ele>3.4000000000000004</ele><time>2026-05-03T10:46:11.901Z</time></trkpt><trkpt lat="42.1989133" lon="14.6197583"><ele>4.800000000000001</ele><time>2026-05-03T10:46:13.9Z</time></trkpt><trkpt lat="42.19887" lon="14.61989"><ele>6.2</ele><time>2026-05-03T10:46:15.901Z</time></trkpt><trkpt lat="42.1988233" lon="14.62003"><ele>7.6000000000000005</ele><time>2026-05-03T10:46:17.901Z</time></trkpt><trkpt lat="42.1987867" lon="14.620165"><ele>9.0</ele><time>2026-05-03T10:46:19.901Z</time></trkpt><trkpt lat="42.1987467" lon="14.6203083"><ele>9.0</ele><time>2026-05-03T10:46:21.901Z</time></trkpt><trkpt lat="42.198705" lon="14.6204533"><ele>9.0</ele><time>2026-05-03T10:46:23.9Z</time></trkpt><trkpt lat="42.1986617" lon="14.62059"><ele>9.0</ele><time>2026-05-03T10:46:25.901Z</time></trkpt><trkpt lat="42.1986217" lon="14.620735"><ele>9.0</ele><time>2026-05-03T10:46:27.9Z</time></trkpt><trkpt lat="42.1985817" lon="14.6208867"><ele>9.0</ele><time>2026-05-03T10:46:29.9Z</time></trkpt><trkpt lat="42.198535" lon="14.6210367"><ele>9.0</ele><time>2026-05-03T10:46:31.9Z</time></trkpt><trkpt lat="42.19849" lon="14.6211883"><ele>9.0</ele><time>2026-05-03T10:46:33.9Z</time></trkpt><trkpt lat="42.1984467" lon="14.62134"><ele>9.0</ele><time>2026-05-03T10:46:35.901Z</time></trkpt><trkpt lat="42.1984017" lon="14.62148"><ele>8.75</ele><time>2026-05-03T10:46:37.9Z</time></trkpt><trkpt lat="42.1983633" lon="14.6216267"><ele>8.5</ele><time>2026-05-03T10:46:39.901Z</time></trkpt><trkpt lat="42.1983233" lon="14.62177"><ele>8.25</ele><time>2026-05-03T10:46:41.9Z</time></trkpt><trkpt lat="42.198285" lon="14.6219133"><ele>8.0</ele><time>2026-05-03T10:46:43.901Z</time></trkpt><trkpt lat="42.1982467" lon="14.6220633"><ele>7.0</ele><time>2026-05-03T10:46:45.901Z</time></trkpt><trkpt lat="42.19821" lon="14.6222067"><ele>6.0</ele><time>2026-05-03T10:46:47.901Z</time></trkpt><trkpt lat="42.1981683" lon="14.62235"><ele>5.0</ele><time>2026-05-03T10:46:49.901Z</time></trkpt><trkpt lat="42.1981233" lon="14.6224967"><ele>4.0</ele><time>2026-05-03T10:46:51.901Z</time></trkpt><trkpt lat="42.1980867" lon="14.62264"><ele>5.75</ele><time>2026-05-03T10:46:53.9Z</time></trkpt><trkpt lat="42.1980417" lon="14.6227867"><ele>7.5</ele><time>2026-05-03T10:46:55.901Z</time></trkpt><trkpt lat="42.1979983" lon="14.622925"><ele>9.25</ele><time>2026-05-03T10:46:57.901Z</time></trkpt><trkpt lat="42.1979433" lon="14.6230533"><ele>11.0</ele><time>2026-05-03T10:46:59.901Z</time></trkpt><trkpt lat="42.197905" lon="14.6232017"><ele>11.0</ele><time>2026-05-03T10:47:01.901Z</time></trkpt><trkpt lat="42.19787" lon="14.6233517"><ele>11.0</ele><time>2026-05-03T10:47:03.901Z</time></trkpt><trkpt lat="42.1978383" lon="14.6234933"><ele>11.0</ele><time>2026-05-03T10:47:05.901Z</time></trkpt><trkpt lat="42.1977967" lon="14.623645"><ele>11.0</ele><time>2026-05-03T10:47:07.9Z</time></trkpt><trkpt lat="42.197755" lon="14.6237867"><ele>10.5</ele><time>2026-05-03T10:47:09.9Z</time></trkpt><trkpt lat="42.1977133" lon="14.6239267"><ele>10.0</ele><time>2026-05-03T10:47:11.901Z</time></trkpt><trkpt lat="42.19767" lon="14.6240633"><ele>9.5</ele><time>2026-05-03T10:47:13.901Z</time></trkpt><trkpt lat="42.1976317" lon="14.6242117"><ele>9.0</ele><time>2026-05-03T10:47:15.901Z</time></trkpt><trkpt lat="42.19758" lon="14.62435"><ele>8.0</ele><time>2026-05-03T10:47:17.901Z</time></trkpt><trkpt lat="42.197525" lon="14.624495"><ele>7.0</ele><time>2026-05-03T10:47:19.9Z</time></trkpt><trkpt lat="42.197475" lon="14.6246467"><ele>6.0</ele><time>2026-05-03T10:47:21.901Z</time></trkpt><trkpt lat="42.1974283" lon="14.6247883"><ele>5.0</ele><time>2026-05-03T10:47:23.901Z</time></trkpt><trkpt lat="42.197375" lon="14.6249317"><ele>5.5</ele><time>2026-05-03T10:47:25.901Z</time></trkpt><trkpt lat="42.1973217" lon="14.625075"><ele>6.0</ele><time>2026-05-03T10:47:27.901Z</time></trkpt><trkpt lat="42.1972717" lon="14.6252167"><ele>6.5</ele><time>2026-05-03T10:47:29.901Z</time></trkpt><trkpt lat="42.19722" lon="14.6253583"><ele>7.0</ele><time>2026-05-03T10:47:31.901Z</time></trkpt><trkpt lat="42.1971717" lon="14.6255067"><ele>7.0</ele><time>2026-05-03T10:47:33.901Z</time></trkpt><trkpt lat="42.1971183" lon="14.6256483"><ele>7.0</ele><time>2026-05-03T10:47:35.901Z</time></trkpt><trkpt lat="42.1970717" lon="14.6257917"><ele>7.0</ele><time>2026-05-03T10:47:37.901Z</time></trkpt><trkpt lat="42.1970183" lon="14.625935"><ele>7.0</ele><time>2026-05-03T10:47:39.901Z</time></trkpt><trkpt lat="42.1969683" lon="14.6260733"><ele>5.25</ele><time>2026-05-03T10:47:41.901Z</time></trkpt><trkpt lat="42.19692" lon="14.6262133"><ele>3.5</ele><time>2026-05-03T10:47:43.901Z</time></trkpt><trkpt lat="42.1968733" lon="14.6263517"><ele>1.75</ele><time>2026-05-03T10:47:45.901Z</time></trkpt><trkpt lat="42.1968183" lon="14.626485"><ele>0.0</ele><time>2026-05-03T10:47:47.901Z</time></trkpt><trkpt lat="42.1967667" lon="14.626625"><ele>0.0</ele><time>2026-05-03T10:47:49.9Z</time></trkpt><trkpt lat="42.196715" lon="14.6267617"><ele>0.0</ele><time>2026-05-03T10:47:51.9Z</time></trkpt><trkpt lat="42.196675" lon="14.6269067"><ele>0.0</ele><time>2026-05-03T10:47:53.9Z</time></trkpt><trkpt lat="42.1966267" lon="14.62705"><ele>0.0</ele><time>2026-05-03T10:47:55.901Z</time></trkpt><trkpt lat="42.1965767" lon="14.6271817"><ele>0.5</ele><time>2026-05-03T10:47:57.901Z</time></trkpt><trkpt lat="42.196515" lon="14.6273167"><ele>1.0</ele><time>2026-05-03T10:47:59.901Z</time></trkpt><trkpt lat="42.1964683" lon="14.6274517"><ele>1.5</ele><time>2026-05-03T10:48:01.901Z</time></trkpt><trkpt lat="42.1964183" lon="14.6275917"><ele>2.0</ele><time>2026-05-03T10:48:03.9Z</time></trkpt><trkpt lat="42.1963683" lon="14.6277267"><ele>2.4000000000000004</ele><time>2026-05-03T10:48:05.901Z</time></trkpt><trkpt lat="42.196325" lon="14.6278583"><ele>2.8000000000000003</ele><time>2026-05-03T10:48:07.9Z</time></trkpt><trkpt lat="42.1962817" lon="14.62799"><ele>3.2</ele><time>2026-05-03T10:48:09.901Z</time></trkpt><trkpt lat="42.1962383" lon="14.6281183"><ele>3.6</ele><time>2026-05-03T10:48:11.9Z</time></trkpt><trkpt lat="42.1961917" lon="14.628245"><ele>4.0</ele><time>2026-05-03T10:48:13.9Z</time></trkpt><trkpt lat="42.196145" lon="14.62837"><ele>3.9999999999999996</ele><time>2026-05-03T10:48:15.901Z</time></trkpt><trkpt lat="42.1961033" lon="14.6284833"><ele>4.0</ele><time>2026-05-03T10:48:17.9Z</time></trkpt><trkpt lat="42.1960633" lon="14.628595"><ele>4.0</ele><time>2026-05-03T10:48:19.9Z</time></trkpt><trkpt lat="42.196025" lon="14.6287033"><ele>4.0</ele><time>2026-05-03T10:48:21.901Z</time></trkpt><trkpt lat="42.195985" lon="14.6287783"><ele>3.9999999999999996</ele><time>2026-05-03T10:48:24.9Z</time></trkpt><trkpt lat="42.195915" lon="14.62871"><ele>4.0</ele><time>2026-05-03T10:48:29.901Z</time></trkpt><trkpt lat="42.1958717" lon="14.6286083"><ele>4.0</ele><time>2026-05-03T10:48:31.9Z</time></trkpt><trkpt lat="42.1958183" lon="14.62849"><ele>4.0</ele><time>2026-05-03T10:48:33.901Z</time></trkpt><trkpt lat="42.195775" lon="14.6283583"><ele>4.0</ele><time>2026-05-03T10:48:35.9Z</time></trkpt><trkpt lat="42.195715" lon="14.6282367"><ele>4.0</ele><time>2026-05-03T10:48:37.901Z</time></trkpt><trkpt lat="42.1956483" lon="14.6281067"><ele>4.0</ele><time>2026-05-03T10:48:39.901Z</time></trkpt><trkpt lat="42.1955717" lon="14.6279867"><ele>4.800000000000001</ele><time>2026-05-03T10:48:41.901Z</time></trkpt><trkpt lat="42.1955033" lon="14.627865"><ele>5.6000000000000005</ele><time>2026-05-03T10:48:43.901Z</time></trkpt><trkpt lat="42.1954467" lon="14.627765"><ele>6.4</ele><time>2026-05-03T10:48:45.9Z</time></trkpt><trkpt lat="42.195395" lon="14.62766"><ele>7.2</ele><time>2026-05-03T10:48:47.901Z</time></trkpt><trkpt lat="42.195335" lon="14.627525"><ele>8.0</ele><time>2026-05-03T10:48:49.901Z</time></trkpt><trkpt lat="42.1952833" lon="14.6274217"><ele>8.166666666666666</ele><time>2026-05-03T10:48:51.901Z</time></trkpt><trkpt lat="42.195235" lon="14.6273517"><ele>8.333333333333332</ele><time>2026-05-03T10:48:53.901Z</time></trkpt><trkpt lat="42.1951583" lon="14.6273067"><ele>8.5</ele><time>2026-05-03T10:48:55.9Z</time></trkpt><trkpt lat="42.1950733" lon="14.6272983"><ele>8.666666666666666</ele><time>2026-05-03T10:48:57.901Z</time></trkpt><trkpt lat="42.1949817" lon="14.6273267"><ele>8.833333333333334</ele><time>2026-05-03T10:48:59.901Z</time></trkpt><trkpt lat="42.1949017" lon="14.6274067"><ele>9.0</ele><time>2026-05-03T10:49:01.901Z</time></trkpt><trkpt lat="42.19485" lon="14.6275117"><ele>9.2</ele><time>2026-05-03T10:49:03.9Z</time></trkpt><trkpt lat="42.1948" lon="14.6276133"><ele>9.4</ele><time>2026-05-03T10:49:05.901Z</time></trkpt><trkpt lat="42.1947683" lon="14.6277267"><ele>9.6</ele><time>2026-05-03T10:49:07.9Z</time></trkpt><trkpt lat="42.1947917" lon="14.62784"><ele>9.8</ele><time>2026-05-03T10:49:09.901Z</time></trkpt><trkpt lat="42.1948567" lon="14.6279383"><ele>10.0</ele><time>2026-05-03T10:49:11.901Z</time></trkpt><trkpt lat="42.1949433" lon="14.6280083"><ele>9.666666666666668</ele><time>2026-05-03T10:49:13.9Z</time></trkpt><trkpt lat="42.19503" lon="14.6280683"><ele>9.333333333333334</ele><time>2026-05-03T10:49:15.9Z</time></trkpt><trkpt lat="42.1951083" lon="14.6281317"><ele>9.0</ele><time>2026-05-03T10:49:17.9Z</time></trkpt><trkpt lat="42.19514" lon="14.6282233"><ele>8.666666666666666</ele><time>2026-05-03T10:49:19.901Z</time></trkpt><trkpt lat="42.1951233" lon="14.6283267"><ele>8.333333333333332</ele><time>2026-05-03T10:49:21.9Z</time></trkpt><trkpt lat="42.1950767" lon="14.62845"><ele>8.0</ele><time>2026-05-03T10:49:23.901Z</time></trkpt><trkpt lat="42.1950383" lon="14.62857"><ele>8.0</ele><time>2026-05-03T10:49:25.901Z</time></trkpt><trkpt lat="42.194995" lon="14.6287067"><ele>8.0</ele><time>2026-05-03T10:49:27.901Z</time></trkpt><trkpt lat="42.19495" lon="14.6288433"><ele>8.0</ele><time>2026-05-03T10:49:29.901Z</time></trkpt><trkpt lat="42.1948917" lon="14.628985"><ele>8.0</ele><time>2026-05-03T10:49:31.901Z</time></trkpt><trkpt lat="42.1948283" lon="14.6291233"><ele>8.0</ele><time>2026-05-03T10:49:33.901Z</time></trkpt><trkpt lat="42.1948017" lon="14.6292083"><ele>7.999999999999999</ele><time>2026-05-03T10:49:34.9Z</time></trkpt><trkpt lat="42.19478" lon="14.62929"><ele>8.0</ele><time>2026-05-03T10:49:35.9Z</time></trkpt><trkpt lat="42.1947533" lon="14.6293783"><ele>8.0</ele><time>2026-05-03T10:49:36.901Z</time></trkpt><trkpt lat="42.19473" lon="14.6294633"><ele>7.999999999999999</ele><time>2026-05-03T10:49:37.901Z</time></trkpt><trkpt lat="42.1946983" lon="14.6295467"><ele>8.0</ele><time>2026-05-03T10:49:38.901Z</time></trkpt><trkpt lat="42.1946683" lon="14.62963"><ele>8.0</ele><time>2026-05-03T10:49:39.9Z</time></trkpt><trkpt lat="42.1946333" lon="14.6297033"><ele>8.0</ele><time>2026-05-03T10:49:40.901Z</time></trkpt><trkpt lat="42.1946033" lon="14.629785"><ele>7.999999999999999</ele><time>2026-05-03T10:49:41.901Z</time></trkpt><trkpt lat="42.1945733" lon="14.6298667"><ele>8.0</ele><time>2026-05-03T10:49:42.901Z</time></trkpt><trkpt lat="42.1945417" lon="14.6299467"><ele>8.0</ele><time>2026-05-03T10:49:43.901Z</time></trkpt><trkpt lat="42.194515" lon="14.630025"><ele>7.999999999999999</ele><time>2026-05-03T10:49:44.901Z</time></trkpt><trkpt lat="42.19449" lon="14.6301033"><ele>8.0</ele><time>2026-05-03T10:49:45.9Z</time></trkpt><trkpt lat="42.1944667" lon="14.6301833"><ele>8.0</ele><time>2026-05-03T10:49:46.901Z</time></trkpt><trkpt lat="42.1944117" lon="14.6303267"><ele>7.5</ele><time>2026-05-03T10:49:48.901Z</time></trkpt><trkpt lat="42.1943567" lon="14.6304667"><ele>7.0</ele><time>2026-05-03T10:49:50.901Z</time></trkpt><trkpt lat="42.19431" lon="14.630595"><ele>6.5</ele><time>2026-05-03T10:49:52.901Z</time></trkpt><trkpt lat="42.19425" lon="14.6307417"><ele>6.0</ele><time>2026-05-03T10:49:54.9Z</time></trkpt><trkpt lat="42.19419" lon="14.6308883"><ele>6.0</ele><time>2026-05-03T10:49:56.901Z</time></trkpt><trkpt lat="42.1941383" lon="14.63102"><ele>6.0</ele><time>2026-05-03T10:49:58.901Z</time></trkpt><trkpt lat="42.194075" lon="14.6311667"><ele>6.0</ele><time>2026-05-03T10:50:00.901Z</time></trkpt><trkpt lat="42.19401" lon="14.6312983"><ele>6.0</ele><time>2026-05-03T10:50:02.901Z</time></trkpt><trkpt lat="42.1939417" lon="14.631435"><ele>6.8</ele><time>2026-05-03T10:50:04.901Z</time></trkpt><trkpt lat="42.1939083" lon="14.6315083"><ele>7.6</ele><time>2026-05-03T10:50:05.901Z</time></trkpt><trkpt lat="42.1938533" lon="14.6316483"><ele>8.4</ele><time>2026-05-03T10:50:07.901Z</time></trkpt><trkpt lat="42.1938233" lon="14.631725"><ele>9.2</ele><time>2026-05-03T10:50:08.9Z</time></trkpt><trkpt lat="42.1937683" lon="14.6318683"><ele>10.0</ele><time>2026-05-03T10:50:10.9Z</time></trkpt><trkpt lat="42.1937083" lon="14.6320133"><ele>10.0</ele><time>2026-05-03T10:50:12.901Z</time></trkpt><trkpt lat="42.1936433" lon="14.6321433"><ele>10.0</ele><time>2026-05-03T10:50:14.901Z</time></trkpt><trkpt lat="42.1935867" lon="14.6322467"><ele>10.0</ele><time>2026-05-03T10:50:16.901Z</time></trkpt><trkpt lat="42.19354" lon="14.6323417"><ele>10.0</ele><time>2026-05-03T10:50:18.901Z</time></trkpt><trkpt lat="42.193485" lon="14.6323933"><ele>10.0</ele><time>2026-05-03T10:50:20.901Z</time></trkpt><trkpt lat="42.1934083" lon="14.6324133"><ele>10.0</ele><time>2026-05-03T10:50:22.901Z</time></trkpt><trkpt lat="42.1933083" lon="14.63247"><ele>10.0</ele><time>2026-05-03T10:50:24.901Z</time></trkpt><trkpt lat="42.1932217" lon="14.6325533"><ele>10.0</ele><time>2026-05-03T10:50:26.901Z</time></trkpt><trkpt lat="42.1931683" lon="14.6326467"><ele>10.0</ele><time>2026-05-03T10:50:28.901Z</time></trkpt><trkpt lat="42.1931167" lon="14.6327383"><ele>10.0</ele><time>2026-05-03T10:50:30.901Z</time></trkpt><trkpt lat="42.1930683" lon="14.6328317"><ele>10.0</ele><time>2026-05-03T10:50:32.9Z</time></trkpt><trkpt lat="42.1930167" lon="14.6328917"><ele>10.0</ele><time>2026-05-03T10:50:34.901Z</time></trkpt><trkpt lat="42.1929183" lon="14.6329433"><ele>10.8</ele><time>2026-05-03T10:50:36.901Z</time></trkpt><trkpt lat="42.1928367" lon="14.6329933"><ele>11.6</ele><time>2026-05-03T10:50:38.9Z</time></trkpt><trkpt lat="42.19272" lon="14.6330433"><ele>12.399999999999999</ele><time>2026-05-03T10:50:40.9Z</time></trkpt><trkpt lat="42.1926583" lon="14.6330633"><ele>13.2</ele><time>2026-05-03T10:50:41.9Z</time></trkpt><trkpt lat="42.19255" lon="14.6330967"><ele>14.0</ele><time>2026-05-03T10:50:43.901Z</time></trkpt><trkpt lat="42.1924583" lon="14.6331183"><ele>14.000000000000002</ele><time>2026-05-03T10:50:45.901Z</time></trkpt><trkpt lat="42.1923733" lon="14.6331267"><ele>14.0</ele><time>2026-05-03T10:50:47.901Z</time></trkpt><trkpt lat="42.1922917" lon="14.6331183"><ele>14.0</ele><time>2026-05-03T10:50:49.901Z</time></trkpt><trkpt lat="42.1922317" lon="14.63309"><ele>14.0</ele><time>2026-05-03T10:50:51.901Z</time></trkpt><trkpt lat="42.1922033" lon="14.63299"><ele>14.000000000000002</ele><time>2026-05-03T10:50:55.901Z</time></trkpt><trkpt lat="42.1922117" lon="14.6328917"><ele>14.0</ele><time>2026-05-03T10:50:57.901Z</time></trkpt><trkpt lat="42.1922717" lon="14.63281"><ele>14.399999999999999</ele><time>2026-05-03T10:50:59.901Z</time></trkpt><trkpt lat="42.1923583" lon="14.63277"><ele>14.799999999999999</ele><time>2026-05-03T10:51:01.901Z</time></trkpt><trkpt lat="42.1924533" lon="14.6327283"><ele>15.200000000000001</ele><time>2026-05-03T10:51:03.9Z</time></trkpt><trkpt lat="42.1925483" lon="14.632685"><ele>15.600000000000001</ele><time>2026-05-03T10:51:05.9Z</time></trkpt><trkpt lat="42.1926533" lon="14.632635"><ele>16.0</ele><time>2026-05-03T10:51:07.901Z</time></trkpt><trkpt lat="42.192745" lon="14.6325683"><ele>16.0</ele><time>2026-05-03T10:51:09.9Z</time></trkpt><trkpt lat="42.1928217" lon="14.6324733"><ele>16.0</ele><time>2026-05-03T10:51:11.9Z</time></trkpt><trkpt lat="42.1928483" lon="14.6323433"><ele>16.0</ele><time>2026-05-03T10:51:13.901Z</time></trkpt><trkpt lat="42.1928333" lon="14.6322117"><ele>16.0</ele><time>2026-05-03T10:51:15.9Z</time></trkpt><trkpt lat="42.1928167" lon="14.63208"><ele>16.0</ele><time>2026-05-03T10:51:17.901Z</time></trkpt><trkpt lat="42.1928067" lon="14.6319667"><ele>16.6</ele><time>2026-05-03T10:51:19.901Z</time></trkpt><trkpt lat="42.1927733" lon="14.6318367"><ele>17.200000000000003</ele><time>2026-05-03T10:51:21.9Z</time></trkpt><trkpt lat="42.192745" lon="14.6317183"><ele>17.799999999999997</ele><time>2026-05-03T10:51:23.9Z</time></trkpt><trkpt lat="42.192715" lon="14.6316017"><ele>18.4</ele><time>2026-05-03T10:51:25.901Z</time></trkpt><trkpt lat="42.1926867" lon="14.6314867"><ele>19.0</ele><time>2026-05-03T10:51:27.901Z</time></trkpt><trkpt lat="42.1926583" lon="14.6313733"><ele>19.0</ele><time>2026-05-03T10:51:29.901Z</time></trkpt><trkpt lat="42.1926383" lon="14.6312617"><ele>19.0</ele><time>2026-05-03T10:51:31.9Z</time></trkpt><trkpt lat="42.1926233" lon="14.63116"><ele>19.0</ele><time>2026-05-03T10:51:33.901Z</time></trkpt><trkpt lat="42.19262" lon="14.631055"><ele>19.0</ele><time>2026-05-03T10:51:35.901Z</time></trkpt><trkpt lat="42.19263" lon="14.6309533"><ele>19.0</ele><time>2026-05-03T10:51:37.901Z</time></trkpt><trkpt lat="42.1926517" lon="14.6308567"><ele>19.0</ele><time>2026-05-03T10:51:39.9Z</time></trkpt><trkpt lat="42.1926917" lon="14.63078"><ele>19.857142857142858</ele><time>2026-05-03T10:51:41.9Z</time></trkpt><trkpt lat="42.19274" lon="14.6307183"><ele>20.714285714285715</ele><time>2026-05-03T10:51:43.901Z</time></trkpt><trkpt lat="42.192795" lon="14.6306567"><ele>21.571428571428573</ele><time>2026-05-03T10:51:45.901Z</time></trkpt><trkpt lat="42.1928467" lon="14.630595"><ele>22.42857142857143</ele><time>2026-05-03T10:51:47.9Z</time></trkpt><trkpt lat="42.1929033" lon="14.6305367"><ele>23.285714285714285</ele><time>2026-05-03T10:51:49.901Z</time></trkpt><trkpt lat="42.1929583" lon="14.6304767"><ele>24.142857142857146</ele><time>2026-05-03T10:51:51.901Z</time></trkpt><trkpt lat="42.1930083" lon="14.6303767"><ele>25.0</ele><time>2026-05-03T10:51:54.9Z</time></trkpt><trkpt lat="42.1930267" lon="14.6302633"><ele>27.166666666666668</ele><time>2026-05-03T10:51:57.901Z</time></trkpt><trkpt lat="42.193015" lon="14.6301517"><ele>29.333333333333336</ele><time>2026-05-03T10:52:00.9Z</time></trkpt><trkpt lat="42.1929767" lon="14.6300483"><ele>31.5</ele><time>2026-05-03T10:52:03.901Z</time></trkpt><trkpt lat="42.192925" lon="14.6299633"><ele>33.666666666666664</ele><time>2026-05-03T10:52:06.901Z</time></trkpt><trkpt lat="42.1928617" lon="14.6298933"><ele>35.83333333333333</ele><time>2026-05-03T10:52:09.9Z</time></trkpt><trkpt lat="42.1927967" lon="14.62982"><ele>38.0</ele><time>2026-05-03T10:52:12.9Z</time></trkpt><trkpt lat="42.19273" lon="14.6297567"><ele>38.0</ele><time>2026-05-03T10:52:15.901Z</time></trkpt><trkpt lat="42.1926667" lon="14.6296933"><ele>38.0</ele><time>2026-05-03T10:52:18.901Z</time></trkpt><trkpt lat="42.1926" lon="14.6296283"><ele>38.0</ele><time>2026-05-03T10:52:21.901Z</time></trkpt><trkpt lat="42.19253" lon="14.6295683"><ele>38.0</ele><time>2026-05-03T10:52:24.9Z</time></trkpt><trkpt lat="42.1924583" lon="14.629505"><ele>38.0</ele><time>2026-05-03T10:52:27.9Z</time></trkpt><trkpt lat="42.1923883" lon="14.629435"><ele>38.0</ele><time>2026-05-03T10:52:30.9Z</time></trkpt><trkpt lat="42.19233" lon="14.62939"><ele>39.5</ele><time>2026-05-03T10:52:32.9Z</time></trkpt><trkpt lat="42.1922583" lon="14.6293333"><ele>41.0</ele><time>2026-05-03T10:52:35.901Z</time></trkpt><trkpt lat="42.1921783" lon="14.6292767"><ele>42.5</ele><time>2026-05-03T10:52:38.9Z</time></trkpt><trkpt lat="42.1920933" lon="14.6292217"><ele>44.0</ele><time>2026-05-03T10:52:41.9Z</time></trkpt><trkpt lat="42.1920333" lon="14.629175"><ele>45.5</ele><time>2026-05-03T10:52:43.9Z</time></trkpt><trkpt lat="42.191975" lon="14.6291333"><ele>47.0</ele><time>2026-05-03T10:52:45.9Z</time></trkpt><trkpt lat="42.1918933" lon="14.6290683"><ele>47.0</ele><time>2026-05-03T10:52:48.901Z</time></trkpt><trkpt lat="42.191825" lon="14.6290083"><ele>47.0</ele><time>2026-05-03T10:52:50.9Z</time></trkpt><trkpt lat="42.1917517" lon="14.6289517"><ele>47.0</ele><time>2026-05-03T10:52:52.901Z</time></trkpt><trkpt lat="42.1916817" lon="14.6288833"><ele>47.0</ele><time>2026-05-03T10:52:54.9Z</time></trkpt><trkpt lat="42.1916017" lon="14.628825"><ele>47.0</ele><time>2026-05-03T10:52:56.9Z</time></trkpt><trkpt lat="42.191525" lon="14.6287683"><ele>47.0</ele><time>2026-05-03T10:52:58.901Z</time></trkpt><trkpt lat="42.1914383" lon="14.6286917"><ele>47.6</ele><time>2026-05-03T10:53:00.9Z</time></trkpt><trkpt lat="42.1913467" lon="14.6286083"><ele>48.2</ele><time>2026-05-03T10:53:02.901Z</time></trkpt><trkpt lat="42.1912583" lon="14.6285133"><ele>48.8</ele><time>2026-05-03T10:53:04.901Z</time></trkpt><trkpt lat="42.1911817" lon="14.62841"><ele>49.4</ele><time>2026-05-03T10:53:06.9Z</time></trkpt><trkpt lat="42.1911267" lon="14.62829"><ele>50.0</ele><time>2026-05-03T10:53:08.901Z</time></trkpt><trkpt lat="42.19107" lon="14.6281717"><ele>50.0</ele><time>2026-05-03T10:53:10.9Z</time></trkpt><trkpt lat="42.19101" lon="14.62806"><ele>50.0</ele><time>2026-05-03T10:53:12.901Z</time></trkpt><trkpt lat="42.19095" lon="14.62795"><ele>50.0</ele><time>2026-05-03T10:53:14.9Z</time></trkpt><trkpt lat="42.190885" lon="14.6278367"><ele>50.0</ele><time>2026-05-03T10:53:16.901Z</time></trkpt><trkpt lat="42.1908217" lon="14.6277267"><ele>50.0</ele><time>2026-05-03T10:53:18.9Z</time></trkpt><trkpt lat="42.1907633" lon="14.6276167"><ele>50.2</ele><time>2026-05-03T10:53:20.901Z</time></trkpt><trkpt lat="42.190695" lon="14.62751"><ele>50.4</ele><time>2026-05-03T10:53:22.9Z</time></trkpt><trkpt lat="42.1906383" lon="14.62739"><ele>50.599999999999994</ele><time>2026-05-03T10:53:24.901Z</time></trkpt><trkpt lat="42.190575" lon="14.6272817"><ele>50.8</ele><time>2026-05-03T10:53:26.901Z</time></trkpt><trkpt lat="42.1905133" lon="14.6271733"><ele>51.0</ele><time>2026-05-03T10:53:28.901Z</time></trkpt><trkpt lat="42.19045" lon="14.6270817"><ele>51.8</ele><time>2026-05-03T10:53:30.901Z</time></trkpt><trkpt lat="42.1903883" lon="14.6269683"><ele>52.599999999999994</ele><time>2026-05-03T10:53:32.901Z</time></trkpt><trkpt lat="42.19033" lon="14.626845"><ele>53.4</ele><time>2026-05-03T10:53:34.9Z</time></trkpt><trkpt lat="42.19028" lon="14.6267217"><ele>54.2</ele><time>2026-05-03T10:53:36.9Z</time></trkpt><trkpt lat="42.1902283" lon="14.6265933"><ele>55.0</ele><time>2026-05-03T10:53:38.901Z</time></trkpt><trkpt lat="42.1901867" lon="14.6264633"><ele>55.0</ele><time>2026-05-03T10:53:40.9Z</time></trkpt><trkpt lat="42.1901483" lon="14.6263367"><ele>55.0</ele><time>2026-05-03T10:53:42.9Z</time></trkpt><trkpt lat="42.1901117" lon="14.62621"><ele>55.0</ele><time>2026-05-03T10:53:44.901Z</time></trkpt><trkpt lat="42.1900683" lon="14.62608"><ele>55.0</ele><time>2026-05-03T10:53:46.901Z</time></trkpt><trkpt lat="42.190025" lon="14.6259583"><ele>55.0</ele><time>2026-05-03T10:53:48.9Z</time></trkpt><trkpt lat="42.1899717" lon="14.6258433"><ele>55.2</ele><time>2026-05-03T10:53:50.9Z</time></trkpt><trkpt lat="42.1899167" lon="14.6257367"><ele>55.4</ele><time>2026-05-03T10:53:52.901Z</time></trkpt><trkpt lat="42.18985" lon="14.62563"><ele>55.599999999999994</ele><time>2026-05-03T10:53:54.9Z</time></trkpt><trkpt lat="42.18979" lon="14.6255183"><ele>55.8</ele><time>2026-05-03T10:53:56.901Z</time></trkpt><trkpt lat="42.1897467" lon="14.6253967"><ele>56.0</ele><time>2026-05-03T10:53:58.901Z</time></trkpt><trkpt lat="42.189715" lon="14.6252883"><ele>57.0</ele><time>2026-05-03T10:54:00.901Z</time></trkpt><trkpt lat="42.1896633" lon="14.6251717"><ele>57.99999999999999</ele><time>2026-05-03T10:54:02.901Z</time></trkpt><trkpt lat="42.1895883" lon="14.6250683"><ele>58.99999999999999</ele><time>2026-05-03T10:54:04.9Z</time></trkpt><trkpt lat="42.1895383" lon="14.624965"><ele>60.0</ele><time>2026-05-03T10:54:06.901Z</time></trkpt><trkpt lat="42.1895117" lon="14.6248433"><ele>61.0</ele><time>2026-05-03T10:54:08.901Z</time></trkpt><trkpt lat="42.18948" lon="14.6247233"><ele>61.0</ele><time>2026-05-03T10:54:10.9Z</time></trkpt><trkpt lat="42.1894367" lon="14.6246033"><ele>60.99999999999999</ele><time>2026-05-03T10:54:12.901Z</time></trkpt><trkpt lat="42.1893917" lon="14.6244883"><ele>60.99999999999999</ele><time>2026-05-03T10:54:14.901Z</time></trkpt><trkpt lat="42.18935" lon="14.6243733"><ele>61.0</ele><time>2026-05-03T10:54:16.901Z</time></trkpt><trkpt lat="42.1893083" lon="14.6242567"><ele>61.0</ele><time>2026-05-03T10:54:18.901Z</time></trkpt><trkpt lat="42.189255" lon="14.6241383"><ele>61.8</ele><time>2026-05-03T10:54:20.9Z</time></trkpt><trkpt lat="42.1891967" lon="14.6240367"><ele>62.599999999999994</ele><time>2026-05-03T10:54:22.901Z</time></trkpt><trkpt lat="42.1891217" lon="14.6239467"><ele>63.4</ele><time>2026-05-03T10:54:24.901Z</time></trkpt><trkpt lat="42.1890383" lon="14.623865"><ele>64.2</ele><time>2026-05-03T10:54:26.9Z</time></trkpt><trkpt lat="42.1889567" lon="14.62379"><ele>65.0</ele><time>2026-05-03T10:54:28.901Z</time></trkpt><trkpt lat="42.1888867" lon="14.6237067"><ele>65.8</ele><time>2026-05-03T10:54:30.9Z</time></trkpt><trkpt lat="42.1888083" lon="14.62362"><ele>66.6</ele><time>2026-05-03T10:54:32.901Z</time></trkpt><trkpt lat="42.1887233" lon="14.62354"><ele>67.4</ele><time>2026-05-03T10:54:34.901Z</time></trkpt><trkpt lat="42.1886367" lon="14.6234583"><ele>68.2</ele><time>2026-05-03T10:54:36.9Z</time></trkpt><trkpt lat="42.1885533" lon="14.6233817"><ele>69.0</ele><time>2026-05-03T10:54:38.901Z</time></trkpt><trkpt lat="42.1884667" lon="14.6232967"><ele>69.0</ele><time>2026-05-03T10:54:40.9Z</time></trkpt><trkpt lat="42.1883817" lon="14.6232233"><ele>69.0</ele><time>2026-05-03T10:54:42.901Z</time></trkpt><trkpt lat="42.1883067" lon="14.6231333"><ele>69.0</ele><time>2026-05-03T10:54:44.9Z</time></trkpt><trkpt lat="42.188245" lon="14.6230233"><ele>69.0</ele><time>2026-05-03T10:54:46.901Z</time></trkpt><trkpt lat="42.1881867" lon="14.6229133"><ele>69.0</ele><time>2026-05-03T10:54:48.901Z</time></trkpt><trkpt lat="42.1881083" lon="14.622805"><ele>69.2</ele><time>2026-05-03T10:54:50.901Z</time></trkpt><trkpt lat="42.1880183" lon="14.6227083"><ele>69.4</ele><time>2026-05-03T10:54:52.901Z</time></trkpt><trkpt lat="42.1879667" lon="14.6226583"><ele>69.6</ele><time>2026-05-03T10:54:53.901Z</time></trkpt><trkpt lat="42.1878733" lon="14.6225667"><ele>69.8</ele><time>2026-05-03T10:54:55.901Z</time></trkpt><trkpt lat="42.1877817" lon="14.6224817"><ele>70.0</ele><time>2026-05-03T10:54:57.901Z</time></trkpt><trkpt lat="42.1876833" lon="14.62242"><ele>70.0</ele><time>2026-05-03T10:54:59.9Z</time></trkpt><trkpt lat="42.1875833" lon="14.6223417"><ele>70.0</ele><time>2026-05-03T10:55:01.901Z</time></trkpt><trkpt lat="42.1874933" lon="14.6222583"><ele>70.0</ele><time>2026-05-03T10:55:03.901Z</time></trkpt><trkpt lat="42.1873933" lon="14.6221917"><ele>70.0</ele><time>2026-05-03T10:55:05.901Z</time></trkpt><trkpt lat="42.18729" lon="14.6221283"><ele>70.0</ele><time>2026-05-03T10:55:07.901Z</time></trkpt><trkpt lat="42.1871917" lon="14.6220583"><ele>70.0</ele><time>2026-05-03T10:55:09.9Z</time></trkpt><trkpt lat="42.1870917" lon="14.6219833"><ele>70.0</ele><time>2026-05-03T10:55:11.901Z</time></trkpt><trkpt lat="42.1869833" lon="14.6219067"><ele>70.0</ele><time>2026-05-03T10:55:13.901Z</time></trkpt><trkpt lat="42.1868917" lon="14.6218183"><ele>70.5</ele><time>2026-05-03T10:55:15.901Z</time></trkpt><trkpt lat="42.1867967" lon="14.6217367"><ele>71.0</ele><time>2026-05-03T10:55:17.901Z</time></trkpt><trkpt lat="42.186705" lon="14.6216533"><ele>71.5</ele><time>2026-05-03T10:55:19.901Z</time></trkpt><trkpt lat="42.18661" lon="14.6215683"><ele>72.0</ele><time>2026-05-03T10:55:21.901Z</time></trkpt><trkpt lat="42.1865183" lon="14.621475"><ele>72.25</ele><time>2026-05-03T10:55:23.9Z</time></trkpt><trkpt lat="42.1864217" lon="14.6213833"><ele>72.5</ele><time>2026-05-03T10:55:25.901Z</time></trkpt><trkpt lat="42.186325" lon="14.6212867"><ele>72.75</ele><time>2026-05-03T10:55:27.9Z</time></trkpt><trkpt lat="42.1862267" lon="14.621225"><ele>73.0</ele><time>2026-05-03T10:55:29.9Z</time></trkpt><trkpt lat="42.18613" lon="14.6211433"><ele>73.2</ele><time>2026-05-03T10:55:31.9Z</time></trkpt><trkpt lat="42.18604" lon="14.62106"><ele>73.4</ele><time>2026-05-03T10:55:33.901Z</time></trkpt><trkpt lat="42.185955" lon="14.6209583"><ele>73.60000000000001</ele><time>2026-05-03T10:55:35.9Z</time></trkpt><trkpt lat="42.1858667" lon="14.6208667"><ele>73.8</ele><time>2026-05-03T10:55:37.9Z</time></trkpt><trkpt lat="42.18577" lon="14.6207833"><ele>74.0</ele><time>2026-05-03T10:55:39.9Z</time></trkpt><trkpt lat="42.1856683" lon="14.6207017"><ele>74.0</ele><time>2026-05-03T10:55:41.901Z</time></trkpt><trkpt lat="42.185575" lon="14.6206233"><ele>74.0</ele><time>2026-05-03T10:55:43.901Z</time></trkpt><trkpt lat="42.1854817" lon="14.62054"><ele>74.0</ele><time>2026-05-03T10:55:45.9Z</time></trkpt><trkpt lat="42.1853817" lon="14.62045"><ele>74.0</ele><time>2026-05-03T10:55:47.9Z</time></trkpt><trkpt lat="42.1852783" lon="14.6203667"><ele>74.25</ele><time>2026-05-03T10:55:49.901Z</time></trkpt><trkpt lat="42.18518" lon="14.6202833"><ele>74.5</ele><time>2026-05-03T10:55:51.9Z</time></trkpt><trkpt lat="42.1850817" lon="14.6201967"><ele>74.75</ele><time>2026-05-03T10:55:53.9Z</time></trkpt><trkpt lat="42.1849733" lon="14.620125"><ele>75.0</ele><time>2026-05-03T10:55:55.9Z</time></trkpt><trkpt lat="42.18488" lon="14.62004"><ele>76.0</ele><time>2026-05-03T10:55:57.901Z</time></trkpt><trkpt lat="42.18479" lon="14.619955"><ele>77.0</ele><time>2026-05-03T10:55:59.9Z</time></trkpt><trkpt lat="42.1846933" lon="14.61988"><ele>78.0</ele><time>2026-05-03T10:56:01.9Z</time></trkpt><trkpt lat="42.1845917" lon="14.6198067"><ele>79.0</ele><time>2026-05-03T10:56:03.9Z</time></trkpt><trkpt lat="42.1844867" lon="14.6197367"><ele>79.0</ele><time>2026-05-03T10:56:05.901Z</time></trkpt><trkpt lat="42.1843883" lon="14.6196633"><ele>79.0</ele><time>2026-05-03T10:56:07.901Z</time></trkpt><trkpt lat="42.1842933" lon="14.61958"><ele>79.0</ele><time>2026-05-03T10:56:09.9Z</time></trkpt><trkpt lat="42.1842083" lon="14.619495"><ele>79.0</ele><time>2026-05-03T10:56:11.901Z</time></trkpt><trkpt lat="42.18412" lon="14.6194"><ele>79.0</ele><time>2026-05-03T10:56:13.901Z</time></trkpt><trkpt lat="42.184035" lon="14.6193"><ele>79.80000000000001</ele><time>2026-05-03T10:56:15.901Z</time></trkpt><trkpt lat="42.1839417" lon="14.619205"><ele>80.60000000000001</ele><time>2026-05-03T10:56:17.901Z</time></trkpt><trkpt lat="42.18385" lon="14.619125"><ele>81.4</ele><time>2026-05-03T10:56:19.901Z</time></trkpt><trkpt lat="42.18375" lon="14.61905"><ele>82.2</ele><time>2026-05-03T10:56:21.901Z</time></trkpt><trkpt lat="42.18365" lon="14.618995"><ele>83.0</ele><time>2026-05-03T10:56:23.901Z</time></trkpt><trkpt lat="42.1835417" lon="14.6189433"><ele>83.0</ele><time>2026-05-03T10:56:25.9Z</time></trkpt><trkpt lat="42.183435" lon="14.6189083"><ele>83.0</ele><time>2026-05-03T10:56:27.901Z</time></trkpt><trkpt lat="42.1833217" lon="14.6188467"><ele>83.0</ele><time>2026-05-03T10:56:29.9Z</time></trkpt><trkpt lat="42.1832383" lon="14.6187333"><ele>83.0</ele><time>2026-05-03T10:56:31.901Z</time></trkpt><trkpt lat="42.18317" lon="14.61861"><ele>83.0</ele><time>2026-05-03T10:56:33.9Z</time></trkpt><trkpt lat="42.1831183" lon="14.61848"><ele>83.0</ele><time>2026-05-03T10:56:35.9Z</time></trkpt><trkpt lat="42.1830883" lon="14.6183483"><ele>83.0</ele><time>2026-05-03T10:56:37.901Z</time></trkpt><trkpt lat="42.183055" lon="14.6182133"><ele>83.0</ele><time>2026-05-03T10:56:39.9Z</time></trkpt><trkpt lat="42.183" lon="14.6181283"><ele>83.0</ele><time>2026-05-03T10:56:41.9Z</time></trkpt><trkpt lat="42.182925" lon="14.6180733"><ele>83.0</ele><time>2026-05-03T10:56:43.9Z</time></trkpt><trkpt lat="42.18283" lon="14.6180517"><ele>83.0</ele><time>2026-05-03T10:56:45.901Z</time></trkpt><trkpt lat="42.1827183" lon="14.6180417"><ele>83.0</ele><time>2026-05-03T10:56:47.9Z</time></trkpt><trkpt lat="42.1826117" lon="14.61803"><ele>83.0</ele><time>2026-05-03T10:56:49.9Z</time></trkpt><trkpt lat="42.1825017" lon="14.618025"><ele>83.0</ele><time>2026-05-03T10:56:51.901Z</time></trkpt><trkpt lat="42.1823917" lon="14.6180317"><ele>83.4</ele><time>2026-05-03T10:56:53.901Z</time></trkpt><trkpt lat="42.1822883" lon="14.618035"><ele>83.80000000000001</ele><time>2026-05-03T10:56:55.9Z</time></trkpt><trkpt lat="42.18217" lon="14.6180233"><ele>84.2</ele><time>2026-05-03T10:56:57.901Z</time></trkpt><trkpt lat="42.182105" lon="14.6180233"><ele>84.6</ele><time>2026-05-03T10:56:58.9Z</time></trkpt><trkpt lat="42.1819917" lon="14.6180183"><ele>85.0</ele><time>2026-05-03T10:57:00.901Z</time></trkpt><trkpt lat="42.18188" lon="14.6180133"><ele>85.0</ele><time>2026-05-03T10:57:02.901Z</time></trkpt><trkpt lat="42.1817683" lon="14.6180083"><ele>85.0</ele><time>2026-05-03T10:57:04.901Z</time></trkpt><trkpt lat="42.1816617" lon="14.6180033"><ele>85.0</ele><time>2026-05-03T10:57:06.901Z</time></trkpt><trkpt lat="42.181555" lon="14.618"><ele>85.0</ele><time>2026-05-03T10:57:08.901Z</time></trkpt><trkpt lat="42.181445" lon="14.6180033"><ele>85.0</ele><time>2026-05-03T10:57:10.9Z</time></trkpt><trkpt lat="42.18133" lon="14.6180067"><ele>85.6</ele><time>2026-05-03T10:57:12.9Z</time></trkpt><trkpt lat="42.1812217" lon="14.6180033"><ele>86.2</ele><time>2026-05-03T10:57:14.901Z</time></trkpt><trkpt lat="42.1811083" lon="14.6180117"><ele>86.80000000000001</ele><time>2026-05-03T10:57:16.901Z</time></trkpt><trkpt lat="42.1809933" lon="14.6180233"><ele>87.4</ele><time>2026-05-03T10:57:18.901Z</time></trkpt><trkpt lat="42.1808817" lon="14.6180317"><ele>88.0</ele><time>2026-05-03T10:57:20.901Z</time></trkpt><trkpt lat="42.18077" lon="14.6180383"><ele>88.60000000000001</ele><time>2026-05-03T10:57:22.9Z</time></trkpt><trkpt lat="42.18066" lon="14.6180417"><ele>89.2</ele><time>2026-05-03T10:57:24.901Z</time></trkpt><trkpt lat="42.1805517" lon="14.6180533"><ele>89.8</ele><time>2026-05-03T10:57:26.901Z</time></trkpt><trkpt lat="42.1804617" lon="14.6180717"><ele>90.4</ele><time>2026-05-03T10:57:28.901Z</time></trkpt><trkpt lat="42.1803783" lon="14.6180817"><ele>91.0</ele><time>2026-05-03T10:57:30.901Z</time></trkpt><trkpt lat="42.1802983" lon="14.6180933"><ele>91.0</ele><time>2026-05-03T10:57:32.901Z</time></trkpt><trkpt lat="42.18022" lon="14.61812"><ele>91.0</ele><time>2026-05-03T10:57:34.9Z</time></trkpt><trkpt lat="42.18014" lon="14.6181433"><ele>91.0</ele><time>2026-05-03T10:57:37.901Z</time></trkpt><trkpt lat="42.1800617" lon="14.6181083"><ele>91.0</ele><time>2026-05-03T10:57:40.901Z</time></trkpt><trkpt lat="42.1799783" lon="14.6180483"><ele>91.0</ele><time>2026-05-03T10:57:42.901Z</time></trkpt><trkpt lat="42.1798883" lon="14.6179717"><ele>91.0</ele><time>2026-05-03T10:57:44.901Z</time></trkpt><trkpt lat="42.1797867" lon="14.6179"><ele>91.5</ele><time>2026-05-03T10:57:46.901Z</time></trkpt><trkpt lat="42.1796767" lon="14.617825"><ele>92.0</ele><time>2026-05-03T10:57:48.9Z</time></trkpt><trkpt lat="42.1795767" lon="14.617745"><ele>92.5</ele><time>2026-05-03T10:57:50.9Z</time></trkpt><trkpt lat="42.17948" lon="14.6176683"><ele>93.0</ele><time>2026-05-03T10:57:52.901Z</time></trkpt><trkpt lat="42.1793817" lon="14.6175983"><ele>93.25</ele><time>2026-05-03T10:57:54.901Z</time></trkpt><trkpt lat="42.1792783" lon="14.6175167"><ele>93.5</ele><time>2026-05-03T10:57:56.9Z</time></trkpt><trkpt lat="42.1791817" lon="14.6174433"><ele>93.75</ele><time>2026-05-03T10:57:58.9Z</time></trkpt><trkpt lat="42.17908" lon="14.6173633"><ele>94.0</ele><time>2026-05-03T10:58:00.9Z</time></trkpt><trkpt lat="42.17898" lon="14.6172933"><ele>94.5</ele><time>2026-05-03T10:58:02.901Z</time></trkpt><trkpt lat="42.1788717" lon="14.6172217"><ele>95.0</ele><time>2026-05-03T10:58:04.9Z</time></trkpt><trkpt lat="42.1787717" lon="14.6171517"><ele>95.5</ele><time>2026-05-03T10:58:06.9Z</time></trkpt><trkpt lat="42.1786767" lon="14.6170817"><ele>96.0</ele><time>2026-05-03T10:58:08.901Z</time></trkpt><trkpt lat="42.17858" lon="14.617"><ele>95.75</ele><time>2026-05-03T10:58:10.901Z</time></trkpt><trkpt lat="42.178475" lon="14.6169183"><ele>95.5</ele><time>2026-05-03T10:58:12.9Z</time></trkpt><trkpt lat="42.17837" lon="14.6168433"><ele>95.25</ele><time>2026-05-03T10:58:14.901Z</time></trkpt><trkpt lat="42.17826" lon="14.6167733"><ele>95.0</ele><time>2026-05-03T10:58:16.901Z</time></trkpt><trkpt lat="42.1781583" lon="14.6166983"><ele>95.75</ele><time>2026-05-03T10:58:18.9Z</time></trkpt><trkpt lat="42.1780533" lon="14.6166283"><ele>96.5</ele><time>2026-05-03T10:58:20.901Z</time></trkpt><trkpt lat="42.1779433" lon="14.61654"><ele>97.25</ele><time>2026-05-03T10:58:22.9Z</time></trkpt><trkpt lat="42.1778317" lon="14.6164617"><ele>98.0</ele><time>2026-05-03T10:58:24.901Z</time></trkpt><trkpt lat="42.17772" lon="14.6163767"><ele>97.99999999999999</ele><time>2026-05-03T10:58:26.901Z</time></trkpt><trkpt lat="42.17766" lon="14.61633"><ele>98.0</ele><time>2026-05-03T10:58:27.901Z</time></trkpt><trkpt lat="42.1776017" lon="14.61629"><ele>98.0</ele><time>2026-05-03T10:58:28.901Z</time></trkpt><trkpt lat="42.1775433" lon="14.616245"><ele>98.0</ele><time>2026-05-03T10:58:29.9Z</time></trkpt><trkpt lat="42.177435" lon="14.6161567"><ele>97.99999999999999</ele><time>2026-05-03T10:58:31.901Z</time></trkpt><trkpt lat="42.1773767" lon="14.6161117"><ele>98.0</ele><time>2026-05-03T10:58:32.9Z</time></trkpt><trkpt lat="42.177315" lon="14.616065"><ele>98.33333333333333</ele><time>2026-05-03T10:58:33.901Z</time></trkpt><trkpt lat="42.1772583" lon="14.61602"><ele>98.66666666666666</ele><time>2026-05-03T10:58:34.901Z</time></trkpt><trkpt lat="42.1771933" lon="14.6159767"><ele>99.0</ele><time>2026-05-03T10:58:35.901Z</time></trkpt><trkpt lat="42.1770783" lon="14.6159017"><ele>99.33333333333334</ele><time>2026-05-03T10:58:37.9Z</time></trkpt><trkpt lat="42.1770183" lon="14.61587"><ele>99.66666666666667</ele><time>2026-05-03T10:58:38.901Z</time></trkpt><trkpt lat="42.1769533" lon="14.615835"><ele>100.0</ele><time>2026-05-03T10:58:39.9Z</time></trkpt><trkpt lat="42.1768883" lon="14.615805"><ele>100.00000000000001</ele><time>2026-05-03T10:58:40.901Z</time></trkpt><trkpt lat="42.1768217" lon="14.61578"><ele>100.0</ele><time>2026-05-03T10:58:41.901Z</time></trkpt><trkpt lat="42.176755" lon="14.615755"><ele>100.0</ele><time>2026-05-03T10:58:42.9Z</time></trkpt><trkpt lat="42.1766867" lon="14.6157367"><ele>100.0</ele><time>2026-05-03T10:58:43.9Z</time></trkpt><trkpt lat="42.1766183" lon="14.6157233"><ele>100.0</ele><time>2026-05-03T10:58:44.9Z</time></trkpt><trkpt lat="42.1765517" lon="14.6157083"><ele>100.00000000000001</ele><time>2026-05-03T10:58:45.9Z</time></trkpt><trkpt lat="42.1764783" lon="14.6156917"><ele>100.0</ele><time>2026-05-03T10:58:46.901Z</time></trkpt><trkpt lat="42.1764067" lon="14.6156717"><ele>100.28571428571429</ele><time>2026-05-03T10:58:47.9Z</time></trkpt><trkpt lat="42.176335" lon="14.6156533"><ele>100.57142857142857</ele><time>2026-05-03T10:58:48.901Z</time></trkpt><trkpt lat="42.1762667" lon="14.615635"><ele>100.85714285714286</ele><time>2026-05-03T10:58:49.901Z</time></trkpt><trkpt lat="42.176195" lon="14.6156217"><ele>101.14285714285714</ele><time>2026-05-03T10:58:50.901Z</time></trkpt><trkpt lat="42.1761217" lon="14.615605"><ele>101.42857142857143</ele><time>2026-05-03T10:58:51.901Z</time></trkpt><trkpt lat="42.17605" lon="14.6155917"><ele>101.71428571428572</ele><time>2026-05-03T10:58:52.901Z</time></trkpt><trkpt lat="42.17598" lon="14.6155767"><ele>102.0</ele><time>2026-05-03T10:58:53.9Z</time></trkpt><trkpt lat="42.17591" lon="14.6155633"><ele>102.0</ele><time>2026-05-03T10:58:54.9Z</time></trkpt><trkpt lat="42.1758417" lon="14.6155483"><ele>102.0</ele><time>2026-05-03T10:58:55.901Z</time></trkpt><trkpt lat="42.1757683" lon="14.6155267"><ele>102.0</ele><time>2026-05-03T10:58:56.901Z</time></trkpt><trkpt lat="42.175695" lon="14.61551"><ele>102.0</ele><time>2026-05-03T10:58:57.901Z</time></trkpt><trkpt lat="42.17562" lon="14.6154983"><ele>102.0</ele><time>2026-05-03T10:58:58.901Z</time></trkpt><trkpt lat="42.175545" lon="14.615485"><ele>102.0</ele><time>2026-05-03T10:58:59.9Z</time></trkpt><trkpt lat="42.175475" lon="14.6154667"><ele>102.0</ele><time>2026-05-03T10:59:00.901Z</time></trkpt><trkpt lat="42.1754017" lon="14.6154417"><ele>102.14285714285714</ele><time>2026-05-03T10:59:01.901Z</time></trkpt><trkpt lat="42.1753317" lon="14.6154183"><ele>102.28571428571429</ele><time>2026-05-03T10:59:02.9Z</time></trkpt><trkpt lat="42.175255" lon="14.6153983"><ele>102.42857142857142</ele><time>2026-05-03T10:59:03.901Z</time></trkpt><trkpt lat="42.1751817" lon="14.6153833"><ele>102.57142857142857</ele><time>2026-05-03T10:59:04.901Z</time></trkpt><trkpt lat="42.1751183" lon="14.6153617"><ele>102.71428571428571</ele><time>2026-05-03T10:59:05.901Z</time></trkpt><trkpt lat="42.1750517" lon="14.6153433"><ele>102.85714285714285</ele><time>2026-05-03T10:59:06.901Z</time></trkpt><trkpt lat="42.1749817" lon="14.6153233"><ele>103.0</ele><time>2026-05-03T10:59:07.901Z</time></trkpt><trkpt lat="42.1749117" lon="14.61531"><ele>102.99999999999999</ele><time>2026-05-03T10:59:08.901Z</time></trkpt><trkpt lat="42.1748417" lon="14.6152933"><ele>103.0</ele><time>2026-05-03T10:59:09.9Z</time></trkpt><trkpt lat="42.1747667" lon="14.6152733"><ele>103.0</ele><time>2026-05-03T10:59:10.901Z</time></trkpt><trkpt lat="42.1746933" lon="14.6152517"><ele>103.0</ele><time>2026-05-03T10:59:11.901Z</time></trkpt><trkpt lat="42.174625" lon="14.6152383"><ele>103.0</ele><time>2026-05-03T10:59:12.9Z</time></trkpt><trkpt lat="42.1745533" lon="14.6152217"><ele>102.99999999999999</ele><time>2026-05-03T10:59:13.901Z</time></trkpt><trkpt lat="42.1744783" lon="14.6152067"><ele>103.0</ele><time>2026-05-03T10:59:14.9Z</time></trkpt><trkpt lat="42.1744033" lon="14.6151917"><ele>103.00000000000001</ele><time>2026-05-03T10:59:15.9Z</time></trkpt><trkpt lat="42.1743283" lon="14.615175"><ele>103.0</ele><time>2026-05-03T10:59:16.901Z</time></trkpt><trkpt lat="42.174255" lon="14.6151567"><ele>103.0</ele><time>2026-05-03T10:59:17.9Z</time></trkpt><trkpt lat="42.174185" lon="14.615135"><ele>103.0</ele><time>2026-05-03T10:59:18.901Z</time></trkpt><trkpt lat="42.1741117" lon="14.61512"><ele>103.00000000000001</ele><time>2026-05-03T10:59:19.901Z</time></trkpt><trkpt lat="42.1740383" lon="14.6151017"><ele>103.0</ele><time>2026-05-03T10:59:20.901Z</time></trkpt><trkpt lat="42.1739617" lon="14.6150783"><ele>102.99999999999999</ele><time>2026-05-03T10:59:21.901Z</time></trkpt><trkpt lat="42.17389" lon="14.61506"><ele>103.0</ele><time>2026-05-03T10:59:22.9Z</time></trkpt><trkpt lat="42.1738133" lon="14.6150417"><ele>103.0</ele><time>2026-05-03T10:59:23.9Z</time></trkpt><trkpt lat="42.173735" lon="14.6150267"><ele>103.0</ele><time>2026-05-03T10:59:24.901Z</time></trkpt><trkpt lat="42.173665" lon="14.6150117"><ele>103.0</ele><time>2026-05-03T10:59:25.9Z</time></trkpt><trkpt lat="42.1735933" lon="14.6149933"><ele>102.99999999999999</ele><time>2026-05-03T10:59:26.9Z</time></trkpt><trkpt lat="42.173525" lon="14.614975"><ele>103.0</ele><time>2026-05-03T10:59:27.901Z</time></trkpt><trkpt lat="42.17345" lon="14.614955"><ele>102.99999999999999</ele><time>2026-05-03T10:59:28.9Z</time></trkpt><trkpt lat="42.1733733" lon="14.6149367"><ele>103.0</ele><time>2026-05-03T10:59:29.9Z</time></trkpt><trkpt lat="42.1733017" lon="14.6149217"><ele>103.0</ele><time>2026-05-03T10:59:30.901Z</time></trkpt><trkpt lat="42.1732267" lon="14.6149017"><ele>103.0</ele><time>2026-05-03T10:59:31.901Z</time></trkpt><trkpt lat="42.1731517" lon="14.614885"><ele>103.0</ele><time>2026-05-03T10:59:32.901Z</time></trkpt><trkpt lat="42.1730833" lon="14.6148667"><ele>102.99999999999999</ele><time>2026-05-03T10:59:33.901Z</time></trkpt><trkpt lat="42.1730083" lon="14.61485"><ele>103.0</ele><time>2026-05-03T10:59:34.901Z</time></trkpt><trkpt lat="42.1729383" lon="14.6148333"><ele>103.42857142857142</ele><time>2026-05-03T10:59:35.901Z</time></trkpt><trkpt lat="42.1728667" lon="14.6148183"><ele>103.85714285714286</ele><time>2026-05-03T10:59:36.901Z</time></trkpt><trkpt lat="42.1727933" lon="14.6147983"><ele>104.28571428571428</ele><time>2026-05-03T10:59:37.901Z</time></trkpt><trkpt lat="42.1727217" lon="14.614785"><ele>104.71428571428571</ele><time>2026-05-03T10:59:38.901Z</time></trkpt><trkpt lat="42.1726483" lon="14.6147683"><ele>105.14285714285714</ele><time>2026-05-03T10:59:39.901Z</time></trkpt><trkpt lat="42.1725783" lon="14.6147517"><ele>105.57142857142857</ele><time>2026-05-03T10:59:40.901Z</time></trkpt><trkpt lat="42.172505" lon="14.614735"><ele>106.0</ele><time>2026-05-03T10:59:41.9Z</time></trkpt><trkpt lat="42.1724283" lon="14.6147183"><ele>106.00000000000001</ele><time>2026-05-03T10:59:42.901Z</time></trkpt><trkpt lat="42.172355" lon="14.6147033"><ele>106.0</ele><time>2026-05-03T10:59:43.901Z</time></trkpt><trkpt lat="42.1722833" lon="14.61469"><ele>106.0</ele><time>2026-05-03T10:59:44.9Z</time></trkpt><trkpt lat="42.1722183" lon="14.6146667"><ele>106.0</ele><time>2026-05-03T10:59:45.901Z</time></trkpt><trkpt lat="42.1720933" lon="14.6146167"><ele>106.00000000000001</ele><time>2026-05-03T10:59:47.901Z</time></trkpt><trkpt lat="42.172025" lon="14.614605"><ele>106.0</ele><time>2026-05-03T10:59:48.901Z</time></trkpt><trkpt lat="42.17196" lon="14.6145917"><ele>106.0</ele><time>2026-05-03T10:59:49.901Z</time></trkpt><trkpt lat="42.1718867" lon="14.6145733"><ele>106.0</ele><time>2026-05-03T10:59:50.9Z</time></trkpt><trkpt lat="42.1718167" lon="14.6145583"><ele>106.0</ele><time>2026-05-03T10:59:51.901Z</time></trkpt><trkpt lat="42.171745" lon="14.6145417"><ele>106.0</ele><time>2026-05-03T10:59:52.901Z</time></trkpt><trkpt lat="42.1716717" lon="14.6145267"><ele>106.0</ele><time>2026-05-03T10:59:53.9Z</time></trkpt><trkpt lat="42.171595" lon="14.614515"><ele>106.0</ele><time>2026-05-03T10:59:54.901Z</time></trkpt><trkpt lat="42.1715233" lon="14.6144983"><ele>106.0</ele><time>2026-05-03T10:59:55.901Z</time></trkpt><trkpt lat="42.17145" lon="14.6144867"><ele>105.85714285714286</ele><time>2026-05-03T10:59:56.901Z</time></trkpt><trkpt lat="42.1713733" lon="14.61447"><ele>105.71428571428571</ele><time>2026-05-03T10:59:57.9Z</time></trkpt><trkpt lat="42.1713033" lon="14.6144517"><ele>105.57142857142857</ele><time>2026-05-03T10:59:58.9Z</time></trkpt><trkpt lat="42.1712367" lon="14.6144333"><ele>105.42857142857143</ele><time>2026-05-03T10:59:59.9Z</time></trkpt><trkpt lat="42.171165" lon="14.6144167"><ele>105.28571428571428</ele><time>2026-05-03T11:00:00.9Z</time></trkpt><trkpt lat="42.1710917" lon="14.6144017"><ele>105.14285714285714</ele><time>2026-05-03T11:00:01.9Z</time></trkpt><trkpt lat="42.17102" lon="14.6143833"><ele>105.0</ele><time>2026-05-03T11:00:02.9Z</time></trkpt><trkpt lat="42.1709483" lon="14.6143717"><ele>105.0</ele><time>2026-05-03T11:00:03.901Z</time></trkpt><trkpt lat="42.1708767" lon="14.6143517"><ele>105.0</ele><time>2026-05-03T11:00:04.901Z</time></trkpt><trkpt lat="42.1708033" lon="14.6143317"><ele>105.0</ele><time>2026-05-03T11:00:05.901Z</time></trkpt><trkpt lat="42.170735" lon="14.6143117"><ele>105.0</ele><time>2026-05-03T11:00:06.901Z</time></trkpt><trkpt lat="42.1706667" lon="14.6142933"><ele>105.0</ele><time>2026-05-03T11:00:07.901Z</time></trkpt><trkpt lat="42.1705967" lon="14.614275"><ele>105.0</ele><time>2026-05-03T11:00:08.901Z</time></trkpt><trkpt lat="42.1705283" lon="14.6142583"><ele>105.0</ele><time>2026-05-03T11:00:09.901Z</time></trkpt><trkpt lat="42.17046" lon="14.61424"><ele>105.85714285714286</ele><time>2026-05-03T11:00:10.901Z</time></trkpt><trkpt lat="42.1703917" lon="14.614225"><ele>106.71428571428572</ele><time>2026-05-03T11:00:11.901Z</time></trkpt><trkpt lat="42.1703217" lon="14.6142083"><ele>107.57142857142857</ele><time>2026-05-03T11:00:12.901Z</time></trkpt><trkpt lat="42.1702517" lon="14.6141967"><ele>108.42857142857143</ele><time>2026-05-03T11:00:13.901Z</time></trkpt><trkpt lat="42.1701767" lon="14.6141717"><ele>109.28571428571429</ele><time>2026-05-03T11:00:14.901Z</time></trkpt><trkpt lat="42.1701067" lon="14.6141533"><ele>110.14285714285714</ele><time>2026-05-03T11:00:15.9Z</time></trkpt><trkpt lat="42.17003" lon="14.614135"><ele>111.0</ele><time>2026-05-03T11:00:16.9Z</time></trkpt><trkpt lat="42.1699567" lon="14.61412"><ele>111.0</ele><time>2026-05-03T11:00:17.9Z</time></trkpt><trkpt lat="42.169885" lon="14.6141033"><ele>111.0</ele><time>2026-05-03T11:00:18.901Z</time></trkpt><trkpt lat="42.1698133" lon="14.6140867"><ele>111.0</ele><time>2026-05-03T11:00:19.901Z</time></trkpt><trkpt lat="42.16974" lon="14.6140683"><ele>111.0</ele><time>2026-05-03T11:00:20.9Z</time></trkpt><trkpt lat="42.16967" lon="14.6140583"><ele>111.0</ele><time>2026-05-03T11:00:21.901Z</time></trkpt><trkpt lat="42.1695983" lon="14.6140433"><ele>111.0</ele><time>2026-05-03T11:00:22.901Z</time></trkpt><trkpt lat="42.16953" lon="14.6140267"><ele>111.0</ele><time>2026-05-03T11:00:23.9Z</time></trkpt><trkpt lat="42.1694567" lon="14.614005"><ele>111.28571428571428</ele><time>2026-05-03T11:00:24.901Z</time></trkpt><trkpt lat="42.1693833" lon="14.613985"><ele>111.57142857142858</ele><time>2026-05-03T11:00:25.9Z</time></trkpt><trkpt lat="42.1693133" lon="14.6139767"><ele>111.85714285714286</ele><time>2026-05-03T11:00:26.9Z</time></trkpt><trkpt lat="42.169245" lon="14.6139667"><ele>112.14285714285714</ele><time>2026-05-03T11:00:27.9Z</time></trkpt><trkpt lat="42.169175" lon="14.61396"><ele>112.42857142857142</ele><time>2026-05-03T11:00:28.901Z</time></trkpt><trkpt lat="42.1691067" lon="14.613955"><ele>112.71428571428572</ele><time>2026-05-03T11:00:29.9Z</time></trkpt><trkpt lat="42.16904" lon="14.6139583"><ele>113.0</ele><time>2026-05-03T11:00:30.9Z</time></trkpt><trkpt lat="42.168965" lon="14.61396"><ele>113.14285714285714</ele><time>2026-05-03T11:00:31.9Z</time></trkpt><trkpt lat="42.1688933" lon="14.613965"><ele>113.28571428571428</ele><time>2026-05-03T11:00:32.901Z</time></trkpt><trkpt lat="42.1688233" lon="14.6139667"><ele>113.42857142857142</ele><time>2026-05-03T11:00:33.901Z</time></trkpt><trkpt lat="42.1687483" lon="14.613975"><ele>113.57142857142857</ele><time>2026-05-03T11:00:34.901Z</time></trkpt><trkpt lat="42.1686767" lon="14.6139883"><ele>113.7142857142857</ele><time>2026-05-03T11:00:35.901Z</time></trkpt><trkpt lat="42.1686083" lon="14.6140017"><ele>113.85714285714285</ele><time>2026-05-03T11:00:36.901Z</time></trkpt><trkpt lat="42.1685433" lon="14.614015"><ele>114.0</ele><time>2026-05-03T11:00:37.9Z</time></trkpt><trkpt lat="42.1684683" lon="14.61402"><ele>114.0</ele><time>2026-05-03T11:00:38.901Z</time></trkpt><trkpt lat="42.1683967" lon="14.614025"><ele>114.0</ele><time>2026-05-03T11:00:39.901Z</time></trkpt><trkpt lat="42.1683233" lon="14.6140333"><ele>114.0</ele><time>2026-05-03T11:00:40.901Z</time></trkpt><trkpt lat="42.168255" lon="14.6140467"><ele>114.0</ele><time>2026-05-03T11:00:41.901Z</time></trkpt><trkpt lat="42.1681867" lon="14.614065"><ele>114.0</ele><time>2026-05-03T11:00:42.901Z</time></trkpt><trkpt lat="42.1680833" lon="14.6140783"><ele>114.0</ele><time>2026-05-03T11:00:43.9Z</time></trkpt><trkpt lat="42.1680133" lon="14.6140933"><ele>114.28571428571428</ele><time>2026-05-03T11:00:44.9Z</time></trkpt><trkpt lat="42.16794" lon="14.6140983"><ele>114.57142857142856</ele><time>2026-05-03T11:00:45.9Z</time></trkpt><trkpt lat="42.1678683" lon="14.61411"><ele>114.85714285714286</ele><time>2026-05-03T11:00:46.901Z</time></trkpt><trkpt lat="42.1677933" lon="14.614115"><ele>115.14285714285714</ele><time>2026-05-03T11:00:47.901Z</time></trkpt><trkpt lat="42.1677217" lon="14.6141333"><ele>115.42857142857143</ele><time>2026-05-03T11:00:48.901Z</time></trkpt><trkpt lat="42.1676533" lon="14.6141433"><ele>115.71428571428572</ele><time>2026-05-03T11:00:49.901Z</time></trkpt><trkpt lat="42.1675867" lon="14.6141483"><ele>116.00000000000001</ele><time>2026-05-03T11:00:50.901Z</time></trkpt><trkpt lat="42.1675117" lon="14.614155"><ele>116.00000000000001</ele><time>2026-05-03T11:00:51.901Z</time></trkpt><trkpt lat="42.1674367" lon="14.6141633"><ele>116.0</ele><time>2026-05-03T11:00:52.901Z</time></trkpt><trkpt lat="42.16736" lon="14.6141783"><ele>116.00000000000001</ele><time>2026-05-03T11:00:53.9Z</time></trkpt><trkpt lat="42.16729" lon="14.614185"><ele>116.00000000000001</ele><time>2026-05-03T11:00:54.9Z</time></trkpt><trkpt lat="42.1672183" lon="14.6141933"><ele>116.0</ele><time>2026-05-03T11:00:55.9Z</time></trkpt><trkpt lat="42.1671467" lon="14.614205"><ele>116.00000000000001</ele><time>2026-05-03T11:00:56.901Z</time></trkpt><trkpt lat="42.16708" lon="14.6142183"><ele>116.00000000000001</ele><time>2026-05-03T11:00:57.901Z</time></trkpt><trkpt lat="42.167015" lon="14.6142283"><ele>116.2857142857143</ele><time>2026-05-03T11:00:58.901Z</time></trkpt><trkpt lat="42.1669383" lon="14.61424"><ele>116.57142857142858</ele><time>2026-05-03T11:00:59.901Z</time></trkpt><trkpt lat="42.1668667" lon="14.6142483"><ele>116.85714285714286</ele><time>2026-05-03T11:01:00.9Z</time></trkpt><trkpt lat="42.1667917" lon="14.6142583"><ele>117.14285714285715</ele><time>2026-05-03T11:01:01.9Z</time></trkpt><trkpt lat="42.1667167" lon="14.614265"><ele>117.42857142857144</ele><time>2026-05-03T11:01:02.9Z</time></trkpt><trkpt lat="42.166645" lon="14.614275"><ele>117.71428571428571</ele><time>2026-05-03T11:01:03.9Z</time></trkpt><trkpt lat="42.1665767" lon="14.614285"><ele>118.0</ele><time>2026-05-03T11:01:04.9Z</time></trkpt><trkpt lat="42.1665017" lon="14.614295"><ele>118.0</ele><time>2026-05-03T11:01:05.9Z</time></trkpt><trkpt lat="42.166425" lon="14.614305"><ele>118.0</ele><time>2026-05-03T11:01:06.901Z</time></trkpt><trkpt lat="42.1663467" lon="14.6143167"><ele>118.0</ele><time>2026-05-03T11:01:07.9Z</time></trkpt><trkpt lat="42.1662767" lon="14.6143267"><ele>118.0</ele><time>2026-05-03T11:01:08.901Z</time></trkpt><trkpt lat="42.1662067" lon="14.614335"><ele>118.0</ele><time>2026-05-03T11:01:09.9Z</time></trkpt><trkpt lat="42.166135" lon="14.6143483"><ele>118.0</ele><time>2026-05-03T11:01:10.901Z</time></trkpt><trkpt lat="42.1660633" lon="14.6143567"><ele>118.0</ele><time>2026-05-03T11:01:11.901Z</time></trkpt><trkpt lat="42.16599" lon="14.61437"><ele>118.0</ele><time>2026-05-03T11:01:12.901Z</time></trkpt><trkpt lat="42.165915" lon="14.6143767"><ele>118.0</ele><time>2026-05-03T11:01:13.901Z</time></trkpt><trkpt lat="42.1658417" lon="14.6143883"><ele>118.0</ele><time>2026-05-03T11:01:14.901Z</time></trkpt><trkpt lat="42.1657633" lon="14.6143983"><ele>118.0</ele><time>2026-05-03T11:01:15.9Z</time></trkpt><trkpt lat="42.1656883" lon="14.61441"><ele>118.0</ele><time>2026-05-03T11:01:16.901Z</time></trkpt><trkpt lat="42.1656133" lon="14.61442"><ele>118.0</ele><time>2026-05-03T11:01:17.901Z</time></trkpt><trkpt lat="42.1655433" lon="14.61443"><ele>118.0</ele><time>2026-05-03T11:01:18.901Z</time></trkpt><trkpt lat="42.1654683" lon="14.6144367"><ele>118.0</ele><time>2026-05-03T11:01:19.9Z</time></trkpt><trkpt lat="42.1654" lon="14.6144467"><ele>118.0</ele><time>2026-05-03T11:01:20.901Z</time></trkpt><trkpt lat="42.1653317" lon="14.61446"><ele>118.0</ele><time>2026-05-03T11:01:21.901Z</time></trkpt><trkpt lat="42.1652567" lon="14.61447"><ele>118.0</ele><time>2026-05-03T11:01:22.901Z</time></trkpt><trkpt lat="42.1651817" lon="14.614475"><ele>118.0</ele><time>2026-05-03T11:01:23.9Z</time></trkpt><trkpt lat="42.1651083" lon="14.61449"><ele>118.0</ele><time>2026-05-03T11:01:24.901Z</time></trkpt><trkpt lat="42.16503" lon="14.6145017"><ele>118.0</ele><time>2026-05-03T11:01:25.9Z</time></trkpt><trkpt lat="42.164955" lon="14.6145117"><ele>118.0</ele><time>2026-05-03T11:01:26.901Z</time></trkpt><trkpt lat="42.1648783" lon="14.6145217"><ele>118.0</ele><time>2026-05-03T11:01:27.901Z</time></trkpt><trkpt lat="42.164805" lon="14.6145317"><ele>118.0</ele><time>2026-05-03T11:01:28.9Z</time></trkpt><trkpt lat="42.1647367" lon="14.61454"><ele>118.0</ele><time>2026-05-03T11:01:29.901Z</time></trkpt><trkpt lat="42.1646617" lon="14.61455"><ele>118.0</ele><time>2026-05-03T11:01:30.901Z</time></trkpt><trkpt lat="42.1645883" lon="14.6145633"><ele>118.0</ele><time>2026-05-03T11:01:31.901Z</time></trkpt><trkpt lat="42.1645133" lon="14.6145733"><ele>118.0</ele><time>2026-05-03T11:01:32.901Z</time></trkpt><trkpt lat="42.1644383" lon="14.6145833"><ele>118.33333333333334</ele><time>2026-05-03T11:01:33.9Z</time></trkpt><trkpt lat="42.1643667" lon="14.6145967"><ele>118.66666666666667</ele><time>2026-05-03T11:01:34.901Z</time></trkpt><trkpt lat="42.1642883" lon="14.6146067"><ele>119.0</ele><time>2026-05-03T11:01:35.9Z</time></trkpt><trkpt lat="42.1642167" lon="14.6146133"><ele>119.33333333333334</ele><time>2026-05-03T11:01:36.9Z</time></trkpt><trkpt lat="42.1641433" lon="14.6146233"><ele>119.66666666666667</ele><time>2026-05-03T11:01:37.9Z</time></trkpt><trkpt lat="42.1640667" lon="14.6146333"><ele>120.0</ele><time>2026-05-03T11:01:38.9Z</time></trkpt><trkpt lat="42.16399" lon="14.6146483"><ele>120.5</ele><time>2026-05-03T11:01:39.9Z</time></trkpt><trkpt lat="42.1639167" lon="14.6146583"><ele>121.0</ele><time>2026-05-03T11:01:40.901Z</time></trkpt><trkpt lat="42.163845" lon="14.61467"><ele>121.5</ele><time>2026-05-03T11:01:41.901Z</time></trkpt><trkpt lat="42.163765" lon="14.6146833"><ele>122.0</ele><time>2026-05-03T11:01:42.901Z</time></trkpt><trkpt lat="42.1636883" lon="14.6146933"><ele>122.5</ele><time>2026-05-03T11:01:43.901Z</time></trkpt><trkpt lat="42.1636133" lon="14.614705"><ele>123.0</ele><time>2026-05-03T11:01:44.9Z</time></trkpt><trkpt lat="42.1635333" lon="14.614715"><ele>123.0</ele><time>2026-05-03T11:01:45.9Z</time></trkpt><trkpt lat="42.1634583" lon="14.6147267"><ele>123.0</ele><time>2026-05-03T11:01:46.9Z</time></trkpt><trkpt lat="42.1633817" lon="14.614735"><ele>123.0</ele><time>2026-05-03T11:01:47.901Z</time></trkpt><trkpt lat="42.16331" lon="14.6147483"><ele>123.0</ele><time>2026-05-03T11:01:48.901Z</time></trkpt><trkpt lat="42.1632367" lon="14.6147583"><ele>123.0</ele><time>2026-05-03T11:01:49.901Z</time></trkpt><trkpt lat="42.1631583" lon="14.6147667"><ele>123.0</ele><time>2026-05-03T11:01:50.9Z</time></trkpt><trkpt lat="42.16308" lon="14.614775"><ele>123.2857142857143</ele><time>2026-05-03T11:01:51.9Z</time></trkpt><trkpt lat="42.163" lon="14.6147867"><ele>123.57142857142858</ele><time>2026-05-03T11:01:52.901Z</time></trkpt><trkpt lat="42.1629267" lon="14.6148"><ele>123.85714285714286</ele><time>2026-05-03T11:01:53.9Z</time></trkpt><trkpt lat="42.1628583" lon="14.614815"><ele>124.14285714285715</ele><time>2026-05-03T11:01:54.901Z</time></trkpt><trkpt lat="42.1627833" lon="14.61482"><ele>124.42857142857144</ele><time>2026-05-03T11:01:55.9Z</time></trkpt><trkpt lat="42.1627117" lon="14.6148267"><ele>124.71428571428571</ele><time>2026-05-03T11:01:56.9Z</time></trkpt><trkpt lat="42.16264" lon="14.6148333"><ele>125.0</ele><time>2026-05-03T11:01:57.901Z</time></trkpt><trkpt lat="42.1625667" lon="14.614845"><ele>125.0</ele><time>2026-05-03T11:01:58.9Z</time></trkpt><trkpt lat="42.1624933" lon="14.6148567"><ele>125.0</ele><time>2026-05-03T11:01:59.901Z</time></trkpt><trkpt lat="42.16242" lon="14.614865"><ele>125.0</ele><time>2026-05-03T11:02:00.9Z</time></trkpt><trkpt lat="42.162345" lon="14.6148767"><ele>125.0</ele><time>2026-05-03T11:02:01.901Z</time></trkpt><trkpt lat="42.16227" lon="14.6148833"><ele>125.0</ele><time>2026-05-03T11:02:02.9Z</time></trkpt><trkpt lat="42.1621983" lon="14.614895"><ele>125.0</ele><time>2026-05-03T11:02:03.901Z</time></trkpt><trkpt lat="42.16213" lon="14.6149067"><ele>125.0</ele><time>2026-05-03T11:02:04.9Z</time></trkpt><trkpt lat="42.1620617" lon="14.61492"><ele>125.14285714285714</ele><time>2026-05-03T11:02:05.901Z</time></trkpt><trkpt lat="42.1619883" lon="14.6149283"><ele>125.28571428571429</ele><time>2026-05-03T11:02:06.901Z</time></trkpt><trkpt lat="42.1619183" lon="14.61494"><ele>125.42857142857143</ele><time>2026-05-03T11:02:07.9Z</time></trkpt><trkpt lat="42.16185" lon="14.6149517"><ele>125.57142857142857</ele><time>2026-05-03T11:02:08.901Z</time></trkpt><trkpt lat="42.161775" lon="14.6149617"><ele>125.71428571428572</ele><time>2026-05-03T11:02:09.901Z</time></trkpt><trkpt lat="42.1617" lon="14.6149667"><ele>125.85714285714286</ele><time>2026-05-03T11:02:10.901Z</time></trkpt><trkpt lat="42.1616217" lon="14.614975"><ele>126.0</ele><time>2026-05-03T11:02:11.9Z</time></trkpt><trkpt lat="42.1615467" lon="14.6149917"><ele>126.16666666666667</ele><time>2026-05-03T11:02:12.901Z</time></trkpt><trkpt lat="42.1614683" lon="14.6150017"><ele>126.33333333333334</ele><time>2026-05-03T11:02:13.901Z</time></trkpt><trkpt lat="42.161395" lon="14.61501"><ele>126.5</ele><time>2026-05-03T11:02:14.901Z</time></trkpt><trkpt lat="42.161315" lon="14.6150183"><ele>126.66666666666667</ele><time>2026-05-03T11:02:15.901Z</time></trkpt><trkpt lat="42.1612433" lon="14.6150317"><ele>126.83333333333334</ele><time>2026-05-03T11:02:16.901Z</time></trkpt><trkpt lat="42.1611683" lon="14.615045"><ele>127.0</ele><time>2026-05-03T11:02:17.901Z</time></trkpt><trkpt lat="42.1610967" lon="14.6150583"><ele>127.00000000000001</ele><time>2026-05-03T11:02:18.901Z</time></trkpt><trkpt lat="42.1610233" lon="14.6150717"><ele>127.0</ele><time>2026-05-03T11:02:19.901Z</time></trkpt><trkpt lat="42.1609433" lon="14.6150833"><ele>127.0</ele><time>2026-05-03T11:02:20.9Z</time></trkpt><trkpt lat="42.1608683" lon="14.6150917"><ele>127.0</ele><time>2026-05-03T11:02:21.901Z</time></trkpt><trkpt lat="42.160795" lon="14.6151033"><ele>127.00000000000001</ele><time>2026-05-03T11:02:22.901Z</time></trkpt><trkpt lat="42.1607233" lon="14.6151133"><ele>127.0</ele><time>2026-05-03T11:02:23.901Z</time></trkpt><trkpt lat="42.1606467" lon="14.6151217"><ele>127.42857142857143</ele><time>2026-05-03T11:02:24.9Z</time></trkpt><trkpt lat="42.1605767" lon="14.6151333"><ele>127.85714285714286</ele><time>2026-05-03T11:02:25.901Z</time></trkpt><trkpt lat="42.1605" lon="14.61514"><ele>128.28571428571428</ele><time>2026-05-03T11:02:26.901Z</time></trkpt><trkpt lat="42.160435" lon="14.6151483"><ele>128.71428571428572</ele><time>2026-05-03T11:02:27.9Z</time></trkpt><trkpt lat="42.1603633" lon="14.6151567"><ele>129.14285714285714</ele><time>2026-05-03T11:02:28.9Z</time></trkpt><trkpt lat="42.160295" lon="14.6151717"><ele>129.57142857142858</ele><time>2026-05-03T11:02:29.9Z</time></trkpt><trkpt lat="42.16023" lon="14.6151883"><ele>130.0</ele><time>2026-05-03T11:02:30.9Z</time></trkpt><trkpt lat="42.1601567" lon="14.6151917"><ele>130.0</ele><time>2026-05-03T11:02:31.901Z</time></trkpt><trkpt lat="42.16009" lon="14.615205"><ele>130.0</ele><time>2026-05-03T11:02:32.9Z</time></trkpt><trkpt lat="42.1600033" lon="14.615225"><ele>130.0</ele><time>2026-05-03T11:02:33.9Z</time></trkpt><trkpt lat="42.15992" lon="14.615235"><ele>130.0</ele><time>2026-05-03T11:02:34.9Z</time></trkpt><trkpt lat="42.1598383" lon="14.6152467"><ele>130.0</ele><time>2026-05-03T11:02:35.9Z</time></trkpt><trkpt lat="42.159765" lon="14.61525"><ele>130.0</ele><time>2026-05-03T11:02:36.901Z</time></trkpt><trkpt lat="42.15969" lon="14.6152567"><ele>129.85714285714286</ele><time>2026-05-03T11:02:37.9Z</time></trkpt><trkpt lat="42.1596117" lon="14.615265"><ele>129.71428571428572</ele><time>2026-05-03T11:02:38.901Z</time></trkpt><trkpt lat="42.1595333" lon="14.6152767"><ele>129.57142857142856</ele><time>2026-05-03T11:02:39.9Z</time></trkpt><trkpt lat="42.1594633" lon="14.6152817"><ele>129.42857142857144</ele><time>2026-05-03T11:02:40.901Z</time></trkpt><trkpt lat="42.15939" lon="14.6152867"><ele>129.28571428571428</ele><time>2026-05-03T11:02:41.9Z</time></trkpt><trkpt lat="42.1593167" lon="14.6152933"><ele>129.14285714285714</ele><time>2026-05-03T11:02:42.9Z</time></trkpt><trkpt lat="42.1592433" lon="14.615305"><ele>129.0</ele><time>2026-05-03T11:02:43.9Z</time></trkpt><trkpt lat="42.1591683" lon="14.615315"><ele>128.99999999999997</ele><time>2026-05-03T11:02:44.901Z</time></trkpt><trkpt lat="42.1590933" lon="14.615325"><ele>129.0</ele><time>2026-05-03T11:02:45.9Z</time></trkpt><trkpt lat="42.1590167" lon="14.6153333"><ele>129.0</ele><time>2026-05-03T11:02:46.9Z</time></trkpt><trkpt lat="42.1589367" lon="14.615345"><ele>129.0</ele><time>2026-05-03T11:02:47.9Z</time></trkpt><trkpt lat="42.15887" lon="14.615345"><ele>129.0</ele><time>2026-05-03T11:02:48.901Z</time></trkpt><trkpt lat="42.158805" lon="14.61535"><ele>128.99999999999997</ele><time>2026-05-03T11:02:49.9Z</time></trkpt><trkpt lat="42.158735" lon="14.61536"><ele>129.0</ele><time>2026-05-03T11:02:50.901Z</time></trkpt><trkpt lat="42.1586683" lon="14.6153583"><ele>129.5</ele><time>2026-05-03T11:02:51.9Z</time></trkpt><trkpt lat="42.1585967" lon="14.6153433"><ele>130.0</ele><time>2026-05-03T11:02:52.901Z</time></trkpt><trkpt lat="42.158525" lon="14.6153233"><ele>130.5</ele><time>2026-05-03T11:02:53.9Z</time></trkpt><trkpt lat="42.15846" lon="14.6152967"><ele>131.0</ele><time>2026-05-03T11:02:54.901Z</time></trkpt><trkpt lat="42.158355" lon="14.6152317"><ele>131.5</ele><time>2026-05-03T11:02:56.901Z</time></trkpt><trkpt lat="42.158265" lon="14.615135"><ele>132.0</ele><time>2026-05-03T11:02:58.9Z</time></trkpt><trkpt lat="42.1582" lon="14.615015"><ele>132.4</ele><time>2026-05-03T11:03:00.901Z</time></trkpt><trkpt lat="42.158115" lon="14.614915"><ele>132.79999999999998</ele><time>2026-05-03T11:03:02.901Z</time></trkpt><trkpt lat="42.1579933" lon="14.6148517"><ele>133.2</ele><time>2026-05-03T11:03:04.901Z</time></trkpt><trkpt lat="42.15793" lon="14.614815"><ele>133.6</ele><time>2026-05-03T11:03:05.9Z</time></trkpt><trkpt lat="42.157875" lon="14.6147533"><ele>134.0</ele><time>2026-05-03T11:03:06.901Z</time></trkpt><trkpt lat="42.15783" lon="14.6146833"><ele>134.0</ele><time>2026-05-03T11:03:07.9Z</time></trkpt><trkpt lat="42.1577883" lon="14.61461"><ele>134.0</ele><time>2026-05-03T11:03:08.9Z</time></trkpt><trkpt lat="42.15775" lon="14.614535"><ele>134.0</ele><time>2026-05-03T11:03:09.901Z</time></trkpt><trkpt lat="42.1577117" lon="14.6144517"><ele>134.0</ele><time>2026-05-03T11:03:10.901Z</time></trkpt><trkpt lat="42.1576683" lon="14.6143783"><ele>134.0</ele><time>2026-05-03T11:03:11.9Z</time></trkpt><trkpt lat="42.1576233" lon="14.6142983"><ele>134.0</ele><time>2026-05-03T11:03:12.9Z</time></trkpt><trkpt lat="42.1575783" lon="14.614215"><ele>134.0</ele><time>2026-05-03T11:03:13.901Z</time></trkpt><trkpt lat="42.157545" lon="14.614135"><ele>134.0</ele><time>2026-05-03T11:03:14.901Z</time></trkpt><trkpt lat="42.15751" lon="14.61406"><ele>134.0</ele><time>2026-05-03T11:03:15.901Z</time></trkpt><trkpt lat="42.1574733" lon="14.61398"><ele>134.0</ele><time>2026-05-03T11:03:16.901Z</time></trkpt><trkpt lat="42.1574333" lon="14.6138967"><ele>134.0</ele><time>2026-05-03T11:03:17.9Z</time></trkpt><trkpt lat="42.1573933" lon="14.61382"><ele>134.0</ele><time>2026-05-03T11:03:18.901Z</time></trkpt><trkpt lat="42.1573483" lon="14.61374"><ele>134.0</ele><time>2026-05-03T11:03:19.901Z</time></trkpt><trkpt lat="42.1573067" lon="14.6136617"><ele>134.0</ele><time>2026-05-03T11:03:20.9Z</time></trkpt><trkpt lat="42.1572667" lon="14.6135817"><ele>134.0</ele><time>2026-05-03T11:03:21.901Z</time></trkpt><trkpt lat="42.15723" lon="14.6135"><ele>134.0</ele><time>2026-05-03T11:03:22.901Z</time></trkpt><trkpt lat="42.1571967" lon="14.61342"><ele>134.0</ele><time>2026-05-03T11:03:23.9Z</time></trkpt><trkpt lat="42.157165" lon="14.6133367"><ele>134.0</ele><time>2026-05-03T11:03:24.901Z</time></trkpt><trkpt lat="42.1571283" lon="14.6132533"><ele>134.0</ele><time>2026-05-03T11:03:25.901Z</time></trkpt><trkpt lat="42.1570933" lon="14.6131767"><ele>134.0</ele><time>2026-05-03T11:03:26.901Z</time></trkpt><trkpt lat="42.1570583" lon="14.613095"><ele>134.0</ele><time>2026-05-03T11:03:27.901Z</time></trkpt><trkpt lat="42.1570233" lon="14.6130167"><ele>134.0</ele><time>2026-05-03T11:03:28.901Z</time></trkpt><trkpt lat="42.1569933" lon="14.61294"><ele>134.0</ele><time>2026-05-03T11:03:29.901Z</time></trkpt><trkpt lat="42.1569683" lon="14.6128533"><ele>134.0</ele><time>2026-05-03T11:03:30.901Z</time></trkpt><trkpt lat="42.1569467" lon="14.61277"><ele>134.0</ele><time>2026-05-03T11:03:31.9Z</time></trkpt><trkpt lat="42.15692" lon="14.61268"><ele>134.0</ele><time>2026-05-03T11:03:32.9Z</time></trkpt><trkpt lat="42.1569017" lon="14.6125833"><ele>134.0</ele><time>2026-05-03T11:03:33.9Z</time></trkpt><trkpt lat="42.1568817" lon="14.6124833"><ele>134.0</ele><time>2026-05-03T11:03:34.901Z</time></trkpt><trkpt lat="42.1568633" lon="14.61239"><ele>134.16666666666666</ele><time>2026-05-03T11:03:35.901Z</time></trkpt><trkpt lat="42.1568433" lon="14.6122917"><ele>134.33333333333331</ele><time>2026-05-03T11:03:36.901Z</time></trkpt><trkpt lat="42.1568183" lon="14.6121933"><ele>134.5</ele><time>2026-05-03T11:03:37.901Z</time></trkpt><trkpt lat="42.1567983" lon="14.6120967"><ele>134.66666666666666</ele><time>2026-05-03T11:03:38.901Z</time></trkpt><trkpt lat="42.15678" lon="14.6119983"><ele>134.83333333333334</ele><time>2026-05-03T11:03:39.901Z</time></trkpt><trkpt lat="42.1567567" lon="14.6119"><ele>135.0</ele><time>2026-05-03T11:03:40.901Z</time></trkpt><trkpt lat="42.1567333" lon="14.6118"><ele>135.0</ele><time>2026-05-03T11:03:41.901Z</time></trkpt><trkpt lat="42.1567083" lon="14.6116967"><ele>135.0</ele><time>2026-05-03T11:03:42.901Z</time></trkpt><trkpt lat="42.1566783" lon="14.6115967"><ele>135.0</ele><time>2026-05-03T11:03:43.9Z</time></trkpt><trkpt lat="42.1566567" lon="14.6115017"><ele>135.0</ele><time>2026-05-03T11:03:44.9Z</time></trkpt><trkpt lat="42.1566317" lon="14.6114117"><ele>135.0</ele><time>2026-05-03T11:03:45.901Z</time></trkpt><trkpt lat="42.156605" lon="14.6113083"><ele>135.0</ele><time>2026-05-03T11:03:46.901Z</time></trkpt><trkpt lat="42.1565833" lon="14.6112033"><ele>134.83333333333334</ele><time>2026-05-03T11:03:47.9Z</time></trkpt><trkpt lat="42.156555" lon="14.6111067"><ele>134.66666666666666</ele><time>2026-05-03T11:03:48.901Z</time></trkpt><trkpt lat="42.1565367" lon="14.6110117"><ele>134.5</ele><time>2026-05-03T11:03:49.901Z</time></trkpt><trkpt lat="42.1565083" lon="14.6109133"><ele>134.33333333333331</ele><time>2026-05-03T11:03:50.901Z</time></trkpt><trkpt lat="42.1564833" lon="14.61082"><ele>134.16666666666666</ele><time>2026-05-03T11:03:51.901Z</time></trkpt><trkpt lat="42.156465" lon="14.61072"><ele>134.0</ele><time>2026-05-03T11:03:52.9Z</time></trkpt><trkpt lat="42.156445" lon="14.610625"><ele>134.0</ele><time>2026-05-03T11:03:53.901Z</time></trkpt><trkpt lat="42.1564233" lon="14.6105217"><ele>134.0</ele><time>2026-05-03T11:03:54.901Z</time></trkpt><trkpt lat="42.1564033" lon="14.610425"><ele>134.0</ele><time>2026-05-03T11:03:55.9Z</time></trkpt><trkpt lat="42.156385" lon="14.6103267"><ele>134.0</ele><time>2026-05-03T11:03:56.9Z</time></trkpt><trkpt lat="42.156365" lon="14.6102283"><ele>134.0</ele><time>2026-05-03T11:03:57.901Z</time></trkpt><trkpt lat="42.1563467" lon="14.61013"><ele>134.0</ele><time>2026-05-03T11:03:58.901Z</time></trkpt><trkpt lat="42.15633" lon="14.6100267"><ele>134.16666666666666</ele><time>2026-05-03T11:03:59.901Z</time></trkpt><trkpt lat="42.1563083" lon="14.6099283"><ele>134.33333333333331</ele><time>2026-05-03T11:04:00.9Z</time></trkpt><trkpt lat="42.1562883" lon="14.6098283"><ele>134.5</ele><time>2026-05-03T11:04:01.9Z</time></trkpt><trkpt lat="42.1562683" lon="14.6097317"><ele>134.66666666666666</ele><time>2026-05-03T11:04:02.901Z</time></trkpt><trkpt lat="42.15624" lon="14.6096217"><ele>134.83333333333334</ele><time>2026-05-03T11:04:03.901Z</time></trkpt><trkpt lat="42.1562167" lon="14.6095133"><ele>135.0</ele><time>2026-05-03T11:04:04.901Z</time></trkpt><trkpt lat="42.1561833" lon="14.6094133"><ele>135.28571428571428</ele><time>2026-05-03T11:04:05.901Z</time></trkpt><trkpt lat="42.1561667" lon="14.6093167"><ele>135.57142857142856</ele><time>2026-05-03T11:04:06.901Z</time></trkpt><trkpt lat="42.1561467" lon="14.609225"><ele>135.85714285714286</ele><time>2026-05-03T11:04:07.901Z</time></trkpt><trkpt lat="42.1561267" lon="14.6091267"><ele>136.14285714285714</ele><time>2026-05-03T11:04:08.901Z</time></trkpt><trkpt lat="42.1561067" lon="14.6090283"><ele>136.42857142857144</ele><time>2026-05-03T11:04:09.9Z</time></trkpt><trkpt lat="42.156085" lon="14.608935"><ele>136.71428571428572</ele><time>2026-05-03T11:04:10.9Z</time></trkpt><trkpt lat="42.1560667" lon="14.6088417"><ele>137.0</ele><time>2026-05-03T11:04:11.901Z</time></trkpt><trkpt lat="42.15605" lon="14.608745"><ele>137.0</ele><time>2026-05-03T11:04:12.9Z</time></trkpt><trkpt lat="42.15603" lon="14.6086417"><ele>137.0</ele><time>2026-05-03T11:04:13.9Z</time></trkpt><trkpt lat="42.1560067" lon="14.60854"><ele>137.0</ele><time>2026-05-03T11:04:14.901Z</time></trkpt><trkpt lat="42.1559883" lon="14.6084383"><ele>137.0</ele><time>2026-05-03T11:04:15.901Z</time></trkpt><trkpt lat="42.1559633" lon="14.6083333"><ele>137.0</ele><time>2026-05-03T11:04:16.901Z</time></trkpt><trkpt lat="42.1559383" lon="14.608235"><ele>137.0</ele><time>2026-05-03T11:04:17.901Z</time></trkpt><trkpt lat="42.155915" lon="14.608135"><ele>137.0</ele><time>2026-05-03T11:04:18.901Z</time></trkpt><trkpt lat="42.1558867" lon="14.6080333"><ele>137.0</ele><time>2026-05-03T11:04:19.901Z</time></trkpt><trkpt lat="42.1558633" lon="14.6079333"><ele>137.0</ele><time>2026-05-03T11:04:20.9Z</time></trkpt><trkpt lat="42.15584" lon="14.6078333"><ele>137.0</ele><time>2026-05-03T11:04:21.9Z</time></trkpt><trkpt lat="42.1558183" lon="14.6077283"><ele>137.0</ele><time>2026-05-03T11:04:22.9Z</time></trkpt><trkpt lat="42.155795" lon="14.6076233"><ele>137.0</ele><time>2026-05-03T11:04:23.901Z</time></trkpt><trkpt lat="42.1557717" lon="14.607515"><ele>136.83333333333331</ele><time>2026-05-03T11:04:24.901Z</time></trkpt><trkpt lat="42.155755" lon="14.607415"><ele>136.66666666666666</ele><time>2026-05-03T11:04:25.901Z</time></trkpt><trkpt lat="42.15573" lon="14.6073133"><ele>136.5</ele><time>2026-05-03T11:04:26.901Z</time></trkpt><trkpt lat="42.155705" lon="14.60721"><ele>136.33333333333334</ele><time>2026-05-03T11:04:27.9Z</time></trkpt><trkpt lat="42.1556833" lon="14.60711"><ele>136.16666666666669</ele><time>2026-05-03T11:04:28.901Z</time></trkpt><trkpt lat="42.1556583" lon="14.6070117"><ele>136.0</ele><time>2026-05-03T11:04:29.901Z</time></trkpt><trkpt lat="42.155635" lon="14.6069133"><ele>136.5</ele><time>2026-05-03T11:04:30.9Z</time></trkpt><trkpt lat="42.155605" lon="14.6068133"><ele>137.0</ele><time>2026-05-03T11:04:31.901Z</time></trkpt><trkpt lat="42.15558" lon="14.60671"><ele>137.5</ele><time>2026-05-03T11:04:32.901Z</time></trkpt><trkpt lat="42.1555617" lon="14.6066133"><ele>138.0</ele><time>2026-05-03T11:04:33.9Z</time></trkpt><trkpt lat="42.1555417" lon="14.6065167"><ele>138.5</ele><time>2026-05-03T11:04:34.901Z</time></trkpt><trkpt lat="42.15552" lon="14.6064117"><ele>139.0</ele><time>2026-05-03T11:04:35.9Z</time></trkpt><trkpt lat="42.1555017" lon="14.6063083"><ele>139.0</ele><time>2026-05-03T11:04:36.901Z</time></trkpt><trkpt lat="42.1554817" lon="14.6062033"><ele>139.0</ele><time>2026-05-03T11:04:37.901Z</time></trkpt><trkpt lat="42.1554617" lon="14.6061017"><ele>139.0</ele><time>2026-05-03T11:04:38.901Z</time></trkpt><trkpt lat="42.1554367" lon="14.606005"><ele>139.0</ele><time>2026-05-03T11:04:39.901Z</time></trkpt><trkpt lat="42.1554117" lon="14.6059083"><ele>139.0</ele><time>2026-05-03T11:04:40.901Z</time></trkpt><trkpt lat="42.1553967" lon="14.6058"><ele>139.0</ele><time>2026-05-03T11:04:41.9Z</time></trkpt><trkpt lat="42.155375" lon="14.6057017"><ele>139.16666666666669</ele><time>2026-05-03T11:04:42.9Z</time></trkpt><trkpt lat="42.1553517" lon="14.6056083"><ele>139.33333333333334</ele><time>2026-05-03T11:04:43.901Z</time></trkpt><trkpt lat="42.1553283" lon="14.6055083"><ele>139.5</ele><time>2026-05-03T11:04:44.901Z</time></trkpt><trkpt lat="42.155305" lon="14.6054117"><ele>139.66666666666666</ele><time>2026-05-03T11:04:45.901Z</time></trkpt><trkpt lat="42.155285" lon="14.6053183"><ele>139.83333333333331</ele><time>2026-05-03T11:04:46.9Z</time></trkpt><trkpt lat="42.15526" lon="14.6052183"><ele>140.0</ele><time>2026-05-03T11:04:47.9Z</time></trkpt><trkpt lat="42.1552333" lon="14.6051167"><ele>140.16666666666666</ele><time>2026-05-03T11:04:48.9Z</time></trkpt><trkpt lat="42.1552067" lon="14.6050133"><ele>140.33333333333331</ele><time>2026-05-03T11:04:49.901Z</time></trkpt><trkpt lat="42.155185" lon="14.6049183"><ele>140.5</ele><time>2026-05-03T11:04:50.901Z</time></trkpt><trkpt lat="42.1551633" lon="14.60482"><ele>140.66666666666666</ele><time>2026-05-03T11:04:51.9Z</time></trkpt><trkpt lat="42.1551417" lon="14.6047217"><ele>140.83333333333334</ele><time>2026-05-03T11:04:52.9Z</time></trkpt><trkpt lat="42.1551217" lon="14.6046267"><ele>141.0</ele><time>2026-05-03T11:04:53.901Z</time></trkpt><trkpt lat="42.1551" lon="14.6045267"><ele>141.14285714285714</ele><time>2026-05-03T11:04:54.901Z</time></trkpt><trkpt lat="42.1550767" lon="14.60443"><ele>141.28571428571428</ele><time>2026-05-03T11:04:55.9Z</time></trkpt><trkpt lat="42.155055" lon="14.60433"><ele>141.42857142857142</ele><time>2026-05-03T11:04:56.901Z</time></trkpt><trkpt lat="42.15504" lon="14.604235"><ele>141.57142857142856</ele><time>2026-05-03T11:04:57.901Z</time></trkpt><trkpt lat="42.1550133" lon="14.6041383"><ele>141.7142857142857</ele><time>2026-05-03T11:04:58.9Z</time></trkpt><trkpt lat="42.1549967" lon="14.60404"><ele>141.85714285714286</ele><time>2026-05-03T11:04:59.9Z</time></trkpt><trkpt lat="42.15498" lon="14.603945"><ele>142.0</ele><time>2026-05-03T11:05:00.9Z</time></trkpt><trkpt lat="42.1549617" lon="14.603845"><ele>142.0</ele><time>2026-05-03T11:05:01.901Z</time></trkpt><trkpt lat="42.154945" lon="14.6037483"><ele>142.0</ele><time>2026-05-03T11:05:02.901Z</time></trkpt><trkpt lat="42.1549233" lon="14.6036517"><ele>142.0</ele><time>2026-05-03T11:05:03.9Z</time></trkpt><trkpt lat="42.154905" lon="14.603555"><ele>142.0</ele><time>2026-05-03T11:05:04.901Z</time></trkpt><trkpt lat="42.1548867" lon="14.6034633"><ele>142.0</ele><time>2026-05-03T11:05:05.901Z</time></trkpt><trkpt lat="42.154865" lon="14.6033717"><ele>142.0</ele><time>2026-05-03T11:05:06.901Z</time></trkpt><trkpt lat="42.1548417" lon="14.6032767"><ele>142.0</ele><time>2026-05-03T11:05:07.901Z</time></trkpt><trkpt lat="42.1548183" lon="14.60318"><ele>142.57142857142856</ele><time>2026-05-03T11:05:08.901Z</time></trkpt><trkpt lat="42.1548" lon="14.603085"><ele>143.14285714285714</ele><time>2026-05-03T11:05:09.9Z</time></trkpt><trkpt lat="42.1547783" lon="14.6029883"><ele>143.71428571428572</ele><time>2026-05-03T11:05:10.9Z</time></trkpt><trkpt lat="42.154755" lon="14.6028917"><ele>144.28571428571428</ele><time>2026-05-03T11:05:11.9Z</time></trkpt><trkpt lat="42.1547333" lon="14.6028"><ele>144.85714285714286</ele><time>2026-05-03T11:05:12.901Z</time></trkpt><trkpt lat="42.154715" lon="14.60271"><ele>145.42857142857142</ele><time>2026-05-03T11:05:13.9Z</time></trkpt><trkpt lat="42.1546933" lon="14.6026217"><ele>146.0</ele><time>2026-05-03T11:05:14.901Z</time></trkpt><trkpt lat="42.1546717" lon="14.6025267"><ele>146.0</ele><time>2026-05-03T11:05:15.901Z</time></trkpt><trkpt lat="42.1546483" lon="14.6024233"><ele>146.0</ele><time>2026-05-03T11:05:16.901Z</time></trkpt><trkpt lat="42.15463" lon="14.6023317"><ele>146.0</ele><time>2026-05-03T11:05:17.9Z</time></trkpt><trkpt lat="42.1546117" lon="14.6022383"><ele>146.0</ele><time>2026-05-03T11:05:18.901Z</time></trkpt><trkpt lat="42.15459" lon="14.6021467"><ele>146.0</ele><time>2026-05-03T11:05:19.901Z</time></trkpt><trkpt lat="42.1545683" lon="14.602055"><ele>146.0</ele><time>2026-05-03T11:05:20.9Z</time></trkpt><trkpt lat="42.1545483" lon="14.6019633"><ele>146.0</ele><time>2026-05-03T11:05:21.901Z</time></trkpt><trkpt lat="42.154525" lon="14.6018667"><ele>146.14285714285714</ele><time>2026-05-03T11:05:22.901Z</time></trkpt><trkpt lat="42.1544983" lon="14.6017717"><ele>146.28571428571428</ele><time>2026-05-03T11:05:23.9Z</time></trkpt><trkpt lat="42.1544733" lon="14.6016767"><ele>146.42857142857144</ele><time>2026-05-03T11:05:24.901Z</time></trkpt><trkpt lat="42.154445" lon="14.601585"><ele>146.57142857142856</ele><time>2026-05-03T11:05:25.901Z</time></trkpt><trkpt lat="42.1544283" lon="14.6014967"><ele>146.71428571428572</ele><time>2026-05-03T11:05:26.901Z</time></trkpt><trkpt lat="42.1544083" lon="14.6014"><ele>146.85714285714286</ele><time>2026-05-03T11:05:27.901Z</time></trkpt><trkpt lat="42.154385" lon="14.6013067"><ele>147.0</ele><time>2026-05-03T11:05:28.9Z</time></trkpt><trkpt lat="42.1543633" lon="14.60121"><ele>147.14285714285714</ele><time>2026-05-03T11:05:29.9Z</time></trkpt><trkpt lat="42.1543467" lon="14.6011117"><ele>147.28571428571428</ele><time>2026-05-03T11:05:30.9Z</time></trkpt><trkpt lat="42.1543283" lon="14.6010133"><ele>147.42857142857144</ele><time>2026-05-03T11:05:31.901Z</time></trkpt><trkpt lat="42.1543033" lon="14.6009233"><ele>147.57142857142856</ele><time>2026-05-03T11:05:32.901Z</time></trkpt><trkpt lat="42.1542817" lon="14.6008283"><ele>147.71428571428572</ele><time>2026-05-03T11:05:33.9Z</time></trkpt><trkpt lat="42.154265" lon="14.6007367"><ele>147.85714285714286</ele><time>2026-05-03T11:05:34.9Z</time></trkpt><trkpt lat="42.154245" lon="14.6006467"><ele>148.0</ele><time>2026-05-03T11:05:35.9Z</time></trkpt><trkpt lat="42.1542217" lon="14.6005467"><ele>148.0</ele><time>2026-05-03T11:05:36.901Z</time></trkpt><trkpt lat="42.1542017" lon="14.6004567"><ele>148.0</ele><time>2026-05-03T11:05:37.901Z</time></trkpt><trkpt lat="42.154175" lon="14.60036"><ele>148.0</ele><time>2026-05-03T11:05:38.9Z</time></trkpt><trkpt lat="42.1541483" lon="14.6002683"><ele>148.0</ele><time>2026-05-03T11:05:39.901Z</time></trkpt><trkpt lat="42.1541267" lon="14.6001733"><ele>148.0</ele><time>2026-05-03T11:05:40.901Z</time></trkpt><trkpt lat="42.1541067" lon="14.600075"><ele>148.0</ele><time>2026-05-03T11:05:41.901Z</time></trkpt><trkpt lat="42.15409" lon="14.5999783"><ele>148.0</ele><time>2026-05-03T11:05:42.901Z</time></trkpt><trkpt lat="42.15407" lon="14.59989"><ele>148.0</ele><time>2026-05-03T11:05:43.9Z</time></trkpt><trkpt lat="42.15405" lon="14.5997967"><ele>148.0</ele><time>2026-05-03T11:05:44.9Z</time></trkpt><trkpt lat="42.1540267" lon="14.5996983"><ele>148.0</ele><time>2026-05-03T11:05:45.901Z</time></trkpt><trkpt lat="42.1540083" lon="14.5996083"><ele>148.0</ele><time>2026-05-03T11:05:46.9Z</time></trkpt><trkpt lat="42.1539883" lon="14.599515"><ele>148.0</ele><time>2026-05-03T11:05:47.901Z</time></trkpt><trkpt lat="42.1539667" lon="14.5994233"><ele>148.0</ele><time>2026-05-03T11:05:48.9Z</time></trkpt><trkpt lat="42.1539483" lon="14.59933"><ele>148.0</ele><time>2026-05-03T11:05:49.901Z</time></trkpt><trkpt lat="42.153925" lon="14.5992333"><ele>148.57142857142858</ele><time>2026-05-03T11:05:50.901Z</time></trkpt><trkpt lat="42.1539033" lon="14.599145"><ele>149.14285714285714</ele><time>2026-05-03T11:05:51.9Z</time></trkpt><trkpt lat="42.153885" lon="14.5990533"><ele>149.71428571428572</ele><time>2026-05-03T11:05:52.901Z</time></trkpt><trkpt lat="42.153865" lon="14.59896"><ele>150.28571428571428</ele><time>2026-05-03T11:05:53.9Z</time></trkpt><trkpt lat="42.153845" lon="14.5988667"><ele>150.85714285714286</ele><time>2026-05-03T11:05:54.9Z</time></trkpt><trkpt lat="42.1538217" lon="14.5987767"><ele>151.42857142857142</ele><time>2026-05-03T11:05:55.901Z</time></trkpt><trkpt lat="42.153805" lon="14.5986883"><ele>152.0</ele><time>2026-05-03T11:05:56.901Z</time></trkpt><trkpt lat="42.153785" lon="14.598595"><ele>152.28571428571428</ele><time>2026-05-03T11:05:57.901Z</time></trkpt><trkpt lat="42.1537617" lon="14.5985"><ele>152.57142857142858</ele><time>2026-05-03T11:05:58.901Z</time></trkpt><trkpt lat="42.1537367" lon="14.5984117"><ele>152.85714285714286</ele><time>2026-05-03T11:05:59.901Z</time></trkpt><trkpt lat="42.153715" lon="14.5983183"><ele>153.14285714285714</ele><time>2026-05-03T11:06:00.9Z</time></trkpt><trkpt lat="42.1536933" lon="14.5982233"><ele>153.42857142857144</ele><time>2026-05-03T11:06:01.901Z</time></trkpt><trkpt lat="42.1536683" lon="14.5981283"><ele>153.71428571428572</ele><time>2026-05-03T11:06:02.901Z</time></trkpt><trkpt lat="42.15365" lon="14.598035"><ele>154.0</ele><time>2026-05-03T11:06:03.9Z</time></trkpt><trkpt lat="42.153625" lon="14.5979383"><ele>154.0</ele><time>2026-05-03T11:06:04.901Z</time></trkpt><trkpt lat="42.1536033" lon="14.5978433"><ele>154.0</ele><time>2026-05-03T11:06:05.901Z</time></trkpt><trkpt lat="42.1535817" lon="14.5977517"><ele>154.0</ele><time>2026-05-03T11:06:06.901Z</time></trkpt><trkpt lat="42.15356" lon="14.5976617"><ele>154.0</ele><time>2026-05-03T11:06:07.9Z</time></trkpt><trkpt lat="42.1535433" lon="14.59757"><ele>154.0</ele><time>2026-05-03T11:06:08.901Z</time></trkpt><trkpt lat="42.1535233" lon="14.5974783"><ele>154.0</ele><time>2026-05-03T11:06:09.901Z</time></trkpt><trkpt lat="42.1535083" lon="14.597385"><ele>154.0</ele><time>2026-05-03T11:06:10.901Z</time></trkpt><trkpt lat="42.15349" lon="14.59729"><ele>154.0</ele><time>2026-05-03T11:06:11.901Z</time></trkpt><trkpt lat="42.1534717" lon="14.5971983"><ele>154.0</ele><time>2026-05-03T11:06:12.901Z</time></trkpt><trkpt lat="42.1534567" lon="14.597105"><ele>154.0</ele><time>2026-05-03T11:06:13.9Z</time></trkpt><trkpt lat="42.1534367" lon="14.5970133"><ele>154.0</ele><time>2026-05-03T11:06:14.9Z</time></trkpt><trkpt lat="42.1534167" lon="14.5969183"><ele>154.0</ele><time>2026-05-03T11:06:15.901Z</time></trkpt><trkpt lat="42.153395" lon="14.5968233"><ele>154.0</ele><time>2026-05-03T11:06:16.901Z</time></trkpt><trkpt lat="42.15337" lon="14.5967367"><ele>154.0</ele><time>2026-05-03T11:06:17.9Z</time></trkpt><trkpt lat="42.153355" lon="14.5966517"><ele>154.0</ele><time>2026-05-03T11:06:18.9Z</time></trkpt><trkpt lat="42.15334" lon="14.5965667"><ele>154.0</ele><time>2026-05-03T11:06:19.901Z</time></trkpt><trkpt lat="42.1533217" lon="14.5964717"><ele>154.0</ele><time>2026-05-03T11:06:20.9Z</time></trkpt><trkpt lat="42.1533017" lon="14.596375"><ele>154.0</ele><time>2026-05-03T11:06:21.9Z</time></trkpt><trkpt lat="42.1532767" lon="14.5962783"><ele>154.0</ele><time>2026-05-03T11:06:22.9Z</time></trkpt><trkpt lat="42.1532517" lon="14.5961783"><ele>154.0</ele><time>2026-05-03T11:06:23.9Z</time></trkpt><trkpt lat="42.1532283" lon="14.5960817"><ele>154.0</ele><time>2026-05-03T11:06:24.901Z</time></trkpt><trkpt lat="42.1532017" lon="14.595985"><ele>154.14285714285714</ele><time>2026-05-03T11:06:25.901Z</time></trkpt><trkpt lat="42.1531783" lon="14.595895"><ele>154.28571428571428</ele><time>2026-05-03T11:06:26.901Z</time></trkpt><trkpt lat="42.153155" lon="14.5957967"><ele>154.42857142857144</ele><time>2026-05-03T11:06:27.9Z</time></trkpt><trkpt lat="42.153135" lon="14.5956967"><ele>154.57142857142856</ele><time>2026-05-03T11:06:28.9Z</time></trkpt><trkpt lat="42.153115" lon="14.5956067"><ele>154.71428571428572</ele><time>2026-05-03T11:06:29.901Z</time></trkpt><trkpt lat="42.153095" lon="14.5955083"><ele>154.85714285714286</ele><time>2026-05-03T11:06:30.9Z</time></trkpt><trkpt lat="42.1530767" lon="14.5954117"><ele>155.0</ele><time>2026-05-03T11:06:31.901Z</time></trkpt><trkpt lat="42.153055" lon="14.59532"><ele>155.28571428571428</ele><time>2026-05-03T11:06:32.901Z</time></trkpt><trkpt lat="42.153035" lon="14.59523"><ele>155.57142857142856</ele><time>2026-05-03T11:06:33.9Z</time></trkpt><trkpt lat="42.15302" lon="14.595135"><ele>155.85714285714283</ele><time>2026-05-03T11:06:34.901Z</time></trkpt><trkpt lat="42.1529983" lon="14.59504"><ele>156.14285714285714</ele><time>2026-05-03T11:06:35.9Z</time></trkpt><trkpt lat="42.1529767" lon="14.5949417"><ele>156.42857142857142</ele><time>2026-05-03T11:06:36.901Z</time></trkpt><trkpt lat="42.1529583" lon="14.59485"><ele>156.7142857142857</ele><time>2026-05-03T11:06:37.9Z</time></trkpt><trkpt lat="42.152945" lon="14.5947567"><ele>157.0</ele><time>2026-05-03T11:06:38.901Z</time></trkpt><trkpt lat="42.1529333" lon="14.5946667"><ele>156.99999999999997</ele><time>2026-05-03T11:06:39.901Z</time></trkpt><trkpt lat="42.1529117" lon="14.5945783"><ele>157.0</ele><time>2026-05-03T11:06:40.9Z</time></trkpt><trkpt lat="42.1528933" lon="14.5944917"><ele>157.0</ele><time>2026-05-03T11:06:41.901Z</time></trkpt><trkpt lat="42.1528783" lon="14.5943967"><ele>157.0</ele><time>2026-05-03T11:06:42.9Z</time></trkpt><trkpt lat="42.1528483" lon="14.5943"><ele>157.0</ele><time>2026-05-03T11:06:43.901Z</time></trkpt><trkpt lat="42.1528217" lon="14.5942083"><ele>156.99999999999997</ele><time>2026-05-03T11:06:44.901Z</time></trkpt><trkpt lat="42.1528033" lon="14.5941133"><ele>157.0</ele><time>2026-05-03T11:06:45.901Z</time></trkpt><trkpt lat="42.15278" lon="14.59402"><ele>157.14285714285714</ele><time>2026-05-03T11:06:46.901Z</time></trkpt><trkpt lat="42.1527583" lon="14.5939233"><ele>157.28571428571428</ele><time>2026-05-03T11:06:47.901Z</time></trkpt><trkpt lat="42.15274" lon="14.5938317"><ele>157.42857142857144</ele><time>2026-05-03T11:06:48.9Z</time></trkpt><trkpt lat="42.15272" lon="14.593735"><ele>157.57142857142856</ele><time>2026-05-03T11:06:49.9Z</time></trkpt><trkpt lat="42.1527017" lon="14.5936433"><ele>157.71428571428572</ele><time>2026-05-03T11:06:50.901Z</time></trkpt><trkpt lat="42.1526767" lon="14.59355"><ele>157.85714285714286</ele><time>2026-05-03T11:06:51.901Z</time></trkpt><trkpt lat="42.152655" lon="14.593455"><ele>158.0</ele><time>2026-05-03T11:06:52.901Z</time></trkpt><trkpt lat="42.152635" lon="14.5933533"><ele>158.57142857142858</ele><time>2026-05-03T11:06:53.901Z</time></trkpt><trkpt lat="42.15261" lon="14.5932633"><ele>159.14285714285714</ele><time>2026-05-03T11:06:54.901Z</time></trkpt><trkpt lat="42.1525833" lon="14.5931733"><ele>159.71428571428572</ele><time>2026-05-03T11:06:55.901Z</time></trkpt><trkpt lat="42.1525683" lon="14.5930833"><ele>160.28571428571428</ele><time>2026-05-03T11:06:56.901Z</time></trkpt><trkpt lat="42.1525483" lon="14.592995"><ele>160.85714285714286</ele><time>2026-05-03T11:06:57.901Z</time></trkpt><trkpt lat="42.1525317" lon="14.5929067"><ele>161.42857142857144</ele><time>2026-05-03T11:06:58.901Z</time></trkpt><trkpt lat="42.1525133" lon="14.5928167"><ele>162.0</ele><time>2026-05-03T11:06:59.9Z</time></trkpt><trkpt lat="42.1524933" lon="14.5927267"><ele>162.0</ele><time>2026-05-03T11:07:00.901Z</time></trkpt><trkpt lat="42.1524517" lon="14.592565"><ele>162.0</ele><time>2026-05-03T11:07:02.901Z</time></trkpt><trkpt lat="42.1524317" lon="14.59248"><ele>162.0</ele><time>2026-05-03T11:07:03.9Z</time></trkpt><trkpt lat="42.152415" lon="14.59239"><ele>162.0</ele><time>2026-05-03T11:07:04.9Z</time></trkpt><trkpt lat="42.1523783" lon="14.592225"><ele>162.0</ele><time>2026-05-03T11:07:06.901Z</time></trkpt><trkpt lat="42.15234" lon="14.592065"><ele>162.39999999999998</ele><time>2026-05-03T11:07:08.9Z</time></trkpt><trkpt lat="42.1523183" lon="14.591985"><ele>162.79999999999998</ele><time>2026-05-03T11:07:09.901Z</time></trkpt><trkpt lat="42.1522883" lon="14.5918333"><ele>163.2</ele><time>2026-05-03T11:07:11.901Z</time></trkpt><trkpt lat="42.1522617" lon="14.5917017"><ele>163.6</ele><time>2026-05-03T11:07:13.901Z</time></trkpt><trkpt lat="42.1522633" lon="14.5915483"><ele>164.0</ele><time>2026-05-03T11:07:15.9Z</time></trkpt><trkpt lat="42.1522567" lon="14.5913917"><ele>164.0</ele><time>2026-05-03T11:07:17.901Z</time></trkpt><trkpt lat="42.1522317" lon="14.59124"><ele>164.0</ele><time>2026-05-03T11:07:19.901Z</time></trkpt><trkpt lat="42.15217" lon="14.5911383"><ele>164.0</ele><time>2026-05-03T11:07:21.901Z</time></trkpt><trkpt lat="42.1521133" lon="14.59103"><ele>164.0</ele><time>2026-05-03T11:07:23.901Z</time></trkpt><trkpt lat="42.1520617" lon="14.5908967"><ele>164.0</ele><time>2026-05-03T11:07:25.9Z</time></trkpt><trkpt lat="42.15201" lon="14.5907633"><ele>164.6</ele><time>2026-05-03T11:07:27.9Z</time></trkpt><trkpt lat="42.1519667" lon="14.590625"><ele>165.2</ele><time>2026-05-03T11:07:29.9Z</time></trkpt><trkpt lat="42.1519283" lon="14.5904883"><ele>165.79999999999998</ele><time>2026-05-03T11:07:31.9Z</time></trkpt><trkpt lat="42.1518983" lon="14.59038"><ele>166.39999999999998</ele><time>2026-05-03T11:07:33.901Z</time></trkpt><trkpt lat="42.1518683" lon="14.5902517"><ele>167.0</ele><time>2026-05-03T11:07:35.901Z</time></trkpt><trkpt lat="42.151825" lon="14.590105"><ele>167.6</ele><time>2026-05-03T11:07:37.9Z</time></trkpt><trkpt lat="42.15179" lon="14.58997"><ele>168.2</ele><time>2026-05-03T11:07:39.9Z</time></trkpt><trkpt lat="42.1517567" lon="14.5898467"><ele>168.8</ele><time>2026-05-03T11:07:41.901Z</time></trkpt><trkpt lat="42.1517133" lon="14.589715"><ele>169.4</ele><time>2026-05-03T11:07:43.9Z</time></trkpt><trkpt lat="42.1516783" lon="14.5895767"><ele>170.0</ele><time>2026-05-03T11:07:45.901Z</time></trkpt><trkpt lat="42.151635" lon="14.5894367"><ele>170.4</ele><time>2026-05-03T11:07:47.9Z</time></trkpt><trkpt lat="42.1515933" lon="14.5892867"><ele>170.8</ele><time>2026-05-03T11:07:49.901Z</time></trkpt><trkpt lat="42.1515533" lon="14.5891517"><ele>171.2</ele><time>2026-05-03T11:07:51.901Z</time></trkpt><trkpt lat="42.1515117" lon="14.58901"><ele>171.6</ele><time>2026-05-03T11:07:53.901Z</time></trkpt><trkpt lat="42.1514733" lon="14.5888733"><ele>172.0</ele><time>2026-05-03T11:07:55.901Z</time></trkpt><trkpt lat="42.1514317" lon="14.5887367"><ele>173.0</ele><time>2026-05-03T11:07:57.901Z</time></trkpt><trkpt lat="42.15139" lon="14.5886117"><ele>174.0</ele><time>2026-05-03T11:07:59.901Z</time></trkpt><trkpt lat="42.15135" lon="14.5884783"><ele>175.0</ele><time>2026-05-03T11:08:01.901Z</time></trkpt><trkpt lat="42.151305" lon="14.5883533"><ele>176.0</ele><time>2026-05-03T11:08:03.9Z</time></trkpt><trkpt lat="42.151255" lon="14.5882517"><ele>177.0</ele><time>2026-05-03T11:08:05.901Z</time></trkpt><trkpt lat="42.1512183" lon="14.5881367"><ele>177.0</ele><time>2026-05-03T11:08:07.9Z</time></trkpt><trkpt lat="42.151185" lon="14.5880217"><ele>177.0</ele><time>2026-05-03T11:08:09.901Z</time></trkpt><trkpt lat="42.15115" lon="14.587895"><ele>177.0</ele><time>2026-05-03T11:08:11.901Z</time></trkpt><trkpt lat="42.1511217" lon="14.58778"><ele>177.0</ele><time>2026-05-03T11:08:13.9Z</time></trkpt><trkpt lat="42.1510883" lon="14.58765"><ele>177.0</ele><time>2026-05-03T11:08:15.9Z</time></trkpt><trkpt lat="42.1510433" lon="14.5875217"><ele>177.8</ele><time>2026-05-03T11:08:17.901Z</time></trkpt><trkpt lat="42.1510033" lon="14.5873883"><ele>178.6</ele><time>2026-05-03T11:08:19.9Z</time></trkpt><trkpt lat="42.1509633" lon="14.5872583"><ele>179.4</ele><time>2026-05-03T11:08:21.901Z</time></trkpt><trkpt lat="42.150925" lon="14.5871267"><ele>180.20000000000002</ele><time>2026-05-03T11:08:23.901Z</time></trkpt><trkpt lat="42.150885" lon="14.5869833"><ele>181.0</ele><time>2026-05-03T11:08:25.901Z</time></trkpt><trkpt lat="42.1508567" lon="14.5868417"><ele>181.60000000000002</ele><time>2026-05-03T11:08:27.901Z</time></trkpt><trkpt lat="42.1508183" lon="14.5867117"><ele>182.2</ele><time>2026-05-03T11:08:29.901Z</time></trkpt><trkpt lat="42.1507717" lon="14.5866"><ele>182.8</ele><time>2026-05-03T11:08:31.901Z</time></trkpt><trkpt lat="42.1507167" lon="14.58652"><ele>183.39999999999998</ele><time>2026-05-03T11:08:33.901Z</time></trkpt><trkpt lat="42.1506633" lon="14.5863783"><ele>184.0</ele><time>2026-05-03T11:08:35.9Z</time></trkpt><trkpt lat="42.1505783" lon="14.5863083"><ele>184.6</ele><time>2026-05-03T11:08:37.901Z</time></trkpt><trkpt lat="42.1504783" lon="14.586255"><ele>185.2</ele><time>2026-05-03T11:08:39.901Z</time></trkpt><trkpt lat="42.15038" lon="14.5862183"><ele>185.79999999999998</ele><time>2026-05-03T11:08:41.901Z</time></trkpt><trkpt lat="42.1502883" lon="14.5861833"><ele>186.39999999999998</ele><time>2026-05-03T11:08:43.901Z</time></trkpt><trkpt lat="42.1502033" lon="14.58616"><ele>187.0</ele><time>2026-05-03T11:08:45.901Z</time></trkpt><trkpt lat="42.150115" lon="14.5861433"><ele>188.2</ele><time>2026-05-03T11:08:47.901Z</time></trkpt><trkpt lat="42.15003" lon="14.5861283"><ele>189.39999999999998</ele><time>2026-05-03T11:08:49.901Z</time></trkpt><trkpt lat="42.1499517" lon="14.5861267"><ele>190.60000000000002</ele><time>2026-05-03T11:08:51.9Z</time></trkpt><trkpt lat="42.1498367" lon="14.58608"><ele>191.8</ele><time>2026-05-03T11:08:53.9Z</time></trkpt><trkpt lat="42.1497383" lon="14.5860083"><ele>193.0</ele><time>2026-05-03T11:08:55.901Z</time></trkpt><trkpt lat="42.1496517" lon="14.5859383"><ele>193.0</ele><time>2026-05-03T11:08:57.9Z</time></trkpt><trkpt lat="42.1495817" lon="14.585865"><ele>193.0</ele><time>2026-05-03T11:08:59.901Z</time></trkpt><trkpt lat="42.1494933" lon="14.5857733"><ele>193.0</ele><time>2026-05-03T11:09:01.901Z</time></trkpt><trkpt lat="42.1494383" lon="14.5857283"><ele>193.0</ele><time>2026-05-03T11:09:02.901Z</time></trkpt><trkpt lat="42.1493483" lon="14.5856333"><ele>193.0</ele><time>2026-05-03T11:09:04.901Z</time></trkpt><trkpt lat="42.1492617" lon="14.5855467"><ele>192.99999999999997</ele><time>2026-05-03T11:09:06.901Z</time></trkpt><trkpt lat="42.1491967" lon="14.585465"><ele>193.0</ele><time>2026-05-03T11:09:08.901Z</time></trkpt><trkpt lat="42.1491383" lon="14.5853833"><ele>193.0</ele><time>2026-05-03T11:09:10.901Z</time></trkpt><trkpt lat="42.1490983" lon="14.5852883"><ele>193.0</ele><time>2026-05-03T11:09:12.901Z</time></trkpt><trkpt lat="42.14907" lon="14.5852083"><ele>192.99999999999997</ele><time>2026-05-03T11:09:14.9Z</time></trkpt><trkpt lat="42.149045" lon="14.5851033"><ele>193.0</ele><time>2026-05-03T11:09:16.901Z</time></trkpt><trkpt lat="42.149055" lon="14.58501"><ele>193.66666666666666</ele><time>2026-05-03T11:09:18.9Z</time></trkpt><trkpt lat="42.1491433" lon="14.5849867"><ele>194.33333333333331</ele><time>2026-05-03T11:09:21.901Z</time></trkpt><trkpt lat="42.149215" lon="14.58504"><ele>195.0</ele><time>2026-05-03T11:09:23.9Z</time></trkpt><trkpt lat="42.149295" lon="14.5850867"><ele>195.66666666666669</ele><time>2026-05-03T11:09:25.901Z</time></trkpt><trkpt lat="42.149365" lon="14.585135"><ele>196.33333333333334</ele><time>2026-05-03T11:09:27.9Z</time></trkpt><trkpt lat="42.1494233" lon="14.5851783"><ele>197.0</ele><time>2026-05-03T11:09:29.901Z</time></trkpt><trkpt lat="42.1495017" lon="14.5852317"><ele>197.00000000000003</ele><time>2026-05-03T11:09:32.9Z</time></trkpt><trkpt lat="42.149575" lon="14.58523"><ele>197.0</ele><time>2026-05-03T11:09:36.901Z</time></trkpt><trkpt lat="42.1496467" lon="14.5851883"><ele>197.0</ele><time>2026-05-03T11:09:38.901Z</time></trkpt><trkpt lat="42.149725" lon="14.5851917"><ele>197.0</ele><time>2026-05-03T11:09:40.9Z</time></trkpt><trkpt lat="42.1498017" lon="14.5852133"><ele>197.00000000000003</ele><time>2026-05-03T11:09:44.901Z</time></trkpt><trkpt lat="42.1498583" lon="14.585345"><ele>197.0</ele><time>2026-05-03T11:10:13.901Z</time></trkpt><trkpt lat="42.1499883" lon="14.585285"><ele>205.0</ele><time>2026-05-03T11:11:18.125Z</time></trkpt></trkseg></trk></gpx>